﻿<?xml version="1.0" encoding="utf-8"?><gpx creator="Garmin Desktop App" version="1.1" xsi:schemaLocation="http://www.topografix.com/GPX/1/1 http://www.topografix.com/GPX/1/1/gpx.xsd http://www.garmin.com/xmlschemas/WaypointExtension/v1 http://www8.garmin.com/xmlschemas/WaypointExtensionv1.xsd http://www.garmin.com/xmlschemas/TrackPointExtension/v1 http://www.garmin.com/xmlschemas/TrackPointExtensionv1.xsd http://www.garmin.com/xmlschemas/GpxExtensions/v3 http://www8.garmin.com/xmlschemas/GpxExtensionsv3.xsd http://www.garmin.com/xmlschemas/ActivityExtension/v1 http://www8.garmin.com/xmlschemas/ActivityExtensionv1.xsd http://www.garmin.com/xmlschemas/AdventuresExtensions/v1 http://www8.garmin.com/xmlschemas/AdventuresExtensionv1.xsd http://www.garmin.com/xmlschemas/PressureExtension/v1 http://www.garmin.com/xmlschemas/PressureExtensionv1.xsd http://www.garmin.com/xmlschemas/TripExtensions/v1 http://www.garmin.com/xmlschemas/TripExtensionsv1.xsd http://www.garmin.com/xmlschemas/TripMetaDataExtensions/v1 http://www.garmin.com/xmlschemas/TripMetaDataExtensionsv1.xsd http://www.garmin.com/xmlschemas/ViaPointTransportationModeExtensions/v1 http://www.garmin.com/xmlschemas/ViaPointTransportationModeExtensionsv1.xsd http://www.garmin.com/xmlschemas/CreationTimeExtension/v1 http://www.garmin.com/xmlschemas/CreationTimeExtensionsv1.xsd http://www.garmin.com/xmlschemas/AccelerationExtension/v1 http://www.garmin.com/xmlschemas/AccelerationExtensionv1.xsd http://www.garmin.com/xmlschemas/PowerExtension/v1 http://www.garmin.com/xmlschemas/PowerExtensionv1.xsd http://www.garmin.com/xmlschemas/VideoExtension/v1 http://www.garmin.com/xmlschemas/VideoExtensionv1.xsd" xmlns="http://www.topografix.com/GPX/1/1" xmlns:xsi="http://www.w3.org/2001/XMLSchema-instance" xmlns:wptx1="http://www.garmin.com/xmlschemas/WaypointExtension/v1" xmlns:gpxtrx="http://www.garmin.com/xmlschemas/GpxExtensions/v3" xmlns:gpxtpx="http://www.garmin.com/xmlschemas/TrackPointExtension/v1" xmlns:gpxx="http://www.garmin.com/xmlschemas/GpxExtensions/v3" xmlns:trp="http://www.garmin.com/xmlschemas/TripExtensions/v1" xmlns:adv="http://www.garmin.com/xmlschemas/AdventuresExtensions/v1" xmlns:prs="http://www.garmin.com/xmlschemas/PressureExtension/v1" xmlns:tmd="http://www.garmin.com/xmlschemas/TripMetaDataExtensions/v1" xmlns:vptm="http://www.garmin.com/xmlschemas/ViaPointTransportationModeExtensions/v1" xmlns:ctx="http://www.garmin.com/xmlschemas/CreationTimeExtension/v1" xmlns:gpxacc="http://www.garmin.com/xmlschemas/AccelerationExtension/v1" xmlns:gpxpx="http://www.garmin.com/xmlschemas/PowerExtension/v1" xmlns:vidx1="http://www.garmin.com/xmlschemas/VideoExtension/v1">

  <metadata>
    <link href="http://www.garmin.com">
      <text>Garmin International</text>
    </link>
    <time>2026-04-25T20:14:35Z</time>
    <bounds maxlat="59.083549976348877" maxlon="30.0311279296875" minlat="59.063208103179932" minlon="30.009133815765381" />
  </metadata>

  <trk>
    <name>2026-04-25 16:48:48</name>
    <extensions>
      <gpxx:TrackExtension>
        <gpxx:DisplayColor>DarkGreen</gpxx:DisplayColor>
      </gpxx:TrackExtension>
    </extensions>
    <trkseg>
      <trkpt lat="59.063358306884766" lon="30.031020641326904">
        <time>2026-04-25T07:35:30Z</time>
      </trkpt>
      <trkpt lat="59.063358306884766" lon="30.031020641326904">
        <time>2026-04-25T07:35:33Z</time>
      </trkpt>
      <trkpt lat="59.063358306884766" lon="30.031020641326904">
        <time>2026-04-25T07:35:35Z</time>
      </trkpt>
      <trkpt lat="59.063379764556885" lon="30.031042098999023">
        <time>2026-04-25T07:35:38Z</time>
      </trkpt>
      <trkpt lat="59.063379764556885" lon="30.031042098999023">
        <time>2026-04-25T07:35:40Z</time>
      </trkpt>
      <trkpt lat="59.063401222229004" lon="30.031063556671143">
        <time>2026-04-25T07:35:43Z</time>
      </trkpt>
      <trkpt lat="59.063401222229004" lon="30.031063556671143">
        <time>2026-04-25T07:35:45Z</time>
      </trkpt>
      <trkpt lat="59.063379764556885" lon="30.031063556671143">
        <time>2026-04-25T07:35:48Z</time>
      </trkpt>
      <trkpt lat="59.063379764556885" lon="30.031042098999023">
        <time>2026-04-25T07:35:50Z</time>
      </trkpt>
      <trkpt lat="59.063379764556885" lon="30.031042098999023">
        <time>2026-04-25T07:35:53Z</time>
      </trkpt>
      <trkpt lat="59.063379764556885" lon="30.031042098999023">
        <time>2026-04-25T07:35:55Z</time>
      </trkpt>
      <trkpt lat="59.063379764556885" lon="30.031042098999023">
        <time>2026-04-25T07:35:58Z</time>
      </trkpt>
      <trkpt lat="59.063358306884766" lon="30.030977725982666">
        <time>2026-04-25T07:36:00Z</time>
      </trkpt>
      <trkpt lat="59.063358306884766" lon="30.030956268310547">
        <time>2026-04-25T07:36:03Z</time>
      </trkpt>
      <trkpt lat="59.063358306884766" lon="30.030977725982666">
        <time>2026-04-25T07:36:05Z</time>
      </trkpt>
      <trkpt lat="59.063358306884766" lon="30.030977725982666">
        <time>2026-04-25T07:36:08Z</time>
      </trkpt>
      <trkpt lat="59.063358306884766" lon="30.030977725982666">
        <time>2026-04-25T07:36:10Z</time>
      </trkpt>
      <trkpt lat="59.063358306884766" lon="30.030956268310547">
        <time>2026-04-25T07:36:13Z</time>
      </trkpt>
      <trkpt lat="59.063358306884766" lon="30.030956268310547">
        <time>2026-04-25T07:36:15Z</time>
      </trkpt>
      <trkpt lat="59.063358306884766" lon="30.030956268310547">
        <time>2026-04-25T07:36:18Z</time>
      </trkpt>
      <trkpt lat="59.063358306884766" lon="30.030956268310547">
        <time>2026-04-25T07:36:20Z</time>
      </trkpt>
      <trkpt lat="59.063358306884766" lon="30.030956268310547">
        <time>2026-04-25T07:36:23Z</time>
      </trkpt>
      <trkpt lat="59.063358306884766" lon="30.030977725982666">
        <time>2026-04-25T07:36:25Z</time>
      </trkpt>
      <trkpt lat="59.063379764556885" lon="30.030977725982666">
        <time>2026-04-25T07:36:28Z</time>
      </trkpt>
      <trkpt lat="59.063358306884766" lon="30.030977725982666">
        <time>2026-04-25T07:36:30Z</time>
      </trkpt>
      <trkpt lat="59.063358306884766" lon="30.030977725982666">
        <time>2026-04-25T07:36:33Z</time>
      </trkpt>
      <trkpt lat="59.063358306884766" lon="30.030977725982666">
        <time>2026-04-25T07:36:35Z</time>
      </trkpt>
      <trkpt lat="59.063358306884766" lon="30.030977725982666">
        <time>2026-04-25T07:36:38Z</time>
      </trkpt>
      <trkpt lat="59.063358306884766" lon="30.030977725982666">
        <time>2026-04-25T07:36:40Z</time>
      </trkpt>
      <trkpt lat="59.063358306884766" lon="30.030977725982666">
        <time>2026-04-25T07:36:43Z</time>
      </trkpt>
      <trkpt lat="59.063358306884766" lon="30.030977725982666">
        <time>2026-04-25T07:36:45Z</time>
      </trkpt>
      <trkpt lat="59.063358306884766" lon="30.030977725982666">
        <time>2026-04-25T07:36:48Z</time>
      </trkpt>
      <trkpt lat="59.063358306884766" lon="30.030977725982666">
        <time>2026-04-25T07:36:50Z</time>
      </trkpt>
      <trkpt lat="59.063358306884766" lon="30.030977725982666">
        <time>2026-04-25T07:36:53Z</time>
      </trkpt>
      <trkpt lat="59.063358306884766" lon="30.030977725982666">
        <time>2026-04-25T07:36:55Z</time>
      </trkpt>
      <trkpt lat="59.063358306884766" lon="30.030977725982666">
        <time>2026-04-25T07:36:58Z</time>
      </trkpt>
      <trkpt lat="59.063358306884766" lon="30.030977725982666">
        <time>2026-04-25T07:37:00Z</time>
      </trkpt>
      <trkpt lat="59.063358306884766" lon="30.030999183654785">
        <time>2026-04-25T07:37:03Z</time>
      </trkpt>
      <trkpt lat="59.063358306884766" lon="30.030999183654785">
        <time>2026-04-25T07:37:05Z</time>
      </trkpt>
      <trkpt lat="59.063358306884766" lon="30.030999183654785">
        <time>2026-04-25T07:37:08Z</time>
      </trkpt>
      <trkpt lat="59.063358306884766" lon="30.030999183654785">
        <time>2026-04-25T07:37:10Z</time>
      </trkpt>
      <trkpt lat="59.063358306884766" lon="30.030999183654785">
        <time>2026-04-25T07:37:13Z</time>
      </trkpt>
      <trkpt lat="59.063358306884766" lon="30.030999183654785">
        <time>2026-04-25T07:37:15Z</time>
      </trkpt>
      <trkpt lat="59.063358306884766" lon="30.030999183654785">
        <time>2026-04-25T07:37:18Z</time>
      </trkpt>
      <trkpt lat="59.063358306884766" lon="30.030999183654785">
        <time>2026-04-25T07:37:20Z</time>
      </trkpt>
      <trkpt lat="59.063358306884766" lon="30.030999183654785">
        <time>2026-04-25T07:37:23Z</time>
      </trkpt>
      <trkpt lat="59.063358306884766" lon="30.030999183654785">
        <time>2026-04-25T07:37:25Z</time>
      </trkpt>
      <trkpt lat="59.063358306884766" lon="30.031020641326904">
        <time>2026-04-25T07:37:28Z</time>
      </trkpt>
      <trkpt lat="59.063358306884766" lon="30.031020641326904">
        <time>2026-04-25T07:37:30Z</time>
      </trkpt>
      <trkpt lat="59.063358306884766" lon="30.031020641326904">
        <time>2026-04-25T07:37:33Z</time>
      </trkpt>
      <trkpt lat="59.063358306884766" lon="30.031020641326904">
        <time>2026-04-25T07:37:35Z</time>
      </trkpt>
      <trkpt lat="59.063358306884766" lon="30.031020641326904">
        <time>2026-04-25T07:37:38Z</time>
      </trkpt>
      <trkpt lat="59.063358306884766" lon="30.031020641326904">
        <time>2026-04-25T07:37:40Z</time>
      </trkpt>
      <trkpt lat="59.063358306884766" lon="30.031020641326904">
        <time>2026-04-25T07:37:43Z</time>
      </trkpt>
      <trkpt lat="59.063358306884766" lon="30.031020641326904">
        <time>2026-04-25T07:37:45Z</time>
      </trkpt>
      <trkpt lat="59.063358306884766" lon="30.031020641326904">
        <time>2026-04-25T07:37:48Z</time>
      </trkpt>
      <trkpt lat="59.063358306884766" lon="30.031020641326904">
        <time>2026-04-25T07:37:50Z</time>
      </trkpt>
      <trkpt lat="59.063358306884766" lon="30.031020641326904">
        <time>2026-04-25T07:37:53Z</time>
      </trkpt>
      <trkpt lat="59.063358306884766" lon="30.031020641326904">
        <time>2026-04-25T07:37:55Z</time>
      </trkpt>
      <trkpt lat="59.063358306884766" lon="30.031020641326904">
        <time>2026-04-25T07:37:58Z</time>
      </trkpt>
      <trkpt lat="59.063358306884766" lon="30.030999183654785">
        <time>2026-04-25T07:38:00Z</time>
      </trkpt>
      <trkpt lat="59.063358306884766" lon="30.030999183654785">
        <time>2026-04-25T07:38:03Z</time>
      </trkpt>
      <trkpt lat="59.063358306884766" lon="30.030999183654785">
        <time>2026-04-25T07:38:05Z</time>
      </trkpt>
      <trkpt lat="59.063336849212646" lon="30.030999183654785">
        <time>2026-04-25T07:38:08Z</time>
      </trkpt>
      <trkpt lat="59.063336849212646" lon="30.030999183654785">
        <time>2026-04-25T07:38:10Z</time>
      </trkpt>
      <trkpt lat="59.063336849212646" lon="30.030977725982666">
        <time>2026-04-25T07:38:13Z</time>
      </trkpt>
      <trkpt lat="59.063336849212646" lon="30.030977725982666">
        <time>2026-04-25T07:38:15Z</time>
      </trkpt>
      <trkpt lat="59.063336849212646" lon="30.030977725982666">
        <time>2026-04-25T07:38:18Z</time>
      </trkpt>
      <trkpt lat="59.063336849212646" lon="30.030977725982666">
        <time>2026-04-25T07:38:20Z</time>
      </trkpt>
      <trkpt lat="59.063336849212646" lon="30.030956268310547">
        <time>2026-04-25T07:38:23Z</time>
      </trkpt>
      <trkpt lat="59.063336849212646" lon="30.030934810638428">
        <time>2026-04-25T07:38:25Z</time>
      </trkpt>
      <trkpt lat="59.063358306884766" lon="30.030956268310547">
        <time>2026-04-25T07:38:28Z</time>
      </trkpt>
      <trkpt lat="59.063379764556885" lon="30.030956268310547">
        <time>2026-04-25T07:38:30Z</time>
      </trkpt>
      <trkpt lat="59.063401222229004" lon="30.030999183654785">
        <time>2026-04-25T07:38:33Z</time>
      </trkpt>
      <trkpt lat="59.063401222229004" lon="30.031020641326904">
        <time>2026-04-25T07:38:35Z</time>
      </trkpt>
      <trkpt lat="59.063422679901123" lon="30.031042098999023">
        <time>2026-04-25T07:38:38Z</time>
      </trkpt>
      <trkpt lat="59.063422679901123" lon="30.031063556671143">
        <time>2026-04-25T07:38:40Z</time>
      </trkpt>
      <trkpt lat="59.063401222229004" lon="30.031063556671143">
        <time>2026-04-25T07:38:43Z</time>
      </trkpt>
      <trkpt lat="59.063379764556885" lon="30.031063556671143">
        <time>2026-04-25T07:38:45Z</time>
      </trkpt>
      <trkpt lat="59.063358306884766" lon="30.031085014343262">
        <time>2026-04-25T07:38:48Z</time>
      </trkpt>
      <trkpt lat="59.063336849212646" lon="30.0311279296875">
        <time>2026-04-25T07:38:50Z</time>
      </trkpt>
      <trkpt lat="59.063315391540527" lon="30.0311279296875">
        <time>2026-04-25T07:38:53Z</time>
      </trkpt>
      <trkpt lat="59.063293933868408" lon="30.031106472015381">
        <time>2026-04-25T07:38:55Z</time>
      </trkpt>
      <trkpt lat="59.063272476196289" lon="30.031085014343262">
        <time>2026-04-25T07:38:58Z</time>
      </trkpt>
      <trkpt lat="59.063272476196289" lon="30.031063556671143">
        <time>2026-04-25T07:39:00Z</time>
      </trkpt>
      <trkpt lat="59.06325101852417" lon="30.031020641326904">
        <time>2026-04-25T07:39:03Z</time>
      </trkpt>
      <trkpt lat="59.063229560852051" lon="30.030956268310547">
        <time>2026-04-25T07:39:05Z</time>
      </trkpt>
      <trkpt lat="59.063229560852051" lon="30.030934810638428">
        <time>2026-04-25T07:39:08Z</time>
      </trkpt>
      <trkpt lat="59.063208103179932" lon="30.030934810638428">
        <time>2026-04-25T07:39:10Z</time>
      </trkpt>
      <trkpt lat="59.063208103179932" lon="30.030913352966309">
        <time>2026-04-25T07:39:13Z</time>
      </trkpt>
      <trkpt lat="59.063208103179932" lon="30.030913352966309">
        <time>2026-04-25T07:39:15Z</time>
      </trkpt>
      <trkpt lat="59.063208103179932" lon="30.030913352966309">
        <time>2026-04-25T07:39:18Z</time>
      </trkpt>
      <trkpt lat="59.063208103179932" lon="30.030913352966309">
        <time>2026-04-25T07:39:20Z</time>
      </trkpt>
      <trkpt lat="59.063208103179932" lon="30.030913352966309">
        <time>2026-04-25T07:39:23Z</time>
      </trkpt>
      <trkpt lat="59.063208103179932" lon="30.030913352966309">
        <time>2026-04-25T07:39:25Z</time>
      </trkpt>
      <trkpt lat="59.063208103179932" lon="30.030913352966309">
        <time>2026-04-25T07:39:28Z</time>
      </trkpt>
      <trkpt lat="59.063208103179932" lon="30.030913352966309">
        <time>2026-04-25T07:39:30Z</time>
      </trkpt>
      <trkpt lat="59.063208103179932" lon="30.030913352966309">
        <time>2026-04-25T07:39:33Z</time>
      </trkpt>
      <trkpt lat="59.063208103179932" lon="30.030913352966309">
        <time>2026-04-25T07:39:35Z</time>
      </trkpt>
      <trkpt lat="59.063208103179932" lon="30.030913352966309">
        <time>2026-04-25T07:39:38Z</time>
      </trkpt>
      <trkpt lat="59.063208103179932" lon="30.030913352966309">
        <time>2026-04-25T07:39:40Z</time>
      </trkpt>
      <trkpt lat="59.063208103179932" lon="30.030913352966309">
        <time>2026-04-25T07:39:43Z</time>
      </trkpt>
      <trkpt lat="59.063208103179932" lon="30.030913352966309">
        <time>2026-04-25T07:39:45Z</time>
      </trkpt>
      <trkpt lat="59.063208103179932" lon="30.030913352966309">
        <time>2026-04-25T07:39:48Z</time>
      </trkpt>
      <trkpt lat="59.063208103179932" lon="30.030913352966309">
        <time>2026-04-25T07:39:50Z</time>
      </trkpt>
      <trkpt lat="59.063208103179932" lon="30.030913352966309">
        <time>2026-04-25T07:39:53Z</time>
      </trkpt>
      <trkpt lat="59.063208103179932" lon="30.030913352966309">
        <time>2026-04-25T07:39:55Z</time>
      </trkpt>
      <trkpt lat="59.063208103179932" lon="30.030913352966309">
        <time>2026-04-25T07:39:58Z</time>
      </trkpt>
      <trkpt lat="59.063208103179932" lon="30.030913352966309">
        <time>2026-04-25T07:40:00Z</time>
      </trkpt>
      <trkpt lat="59.063208103179932" lon="30.030913352966309">
        <time>2026-04-25T07:40:03Z</time>
      </trkpt>
      <trkpt lat="59.063208103179932" lon="30.030913352966309">
        <time>2026-04-25T07:40:05Z</time>
      </trkpt>
      <trkpt lat="59.063208103179932" lon="30.030913352966309">
        <time>2026-04-25T07:40:08Z</time>
      </trkpt>
      <trkpt lat="59.063208103179932" lon="30.030913352966309">
        <time>2026-04-25T07:40:10Z</time>
      </trkpt>
      <trkpt lat="59.063208103179932" lon="30.030913352966309">
        <time>2026-04-25T07:40:13Z</time>
      </trkpt>
      <trkpt lat="59.063208103179932" lon="30.030913352966309">
        <time>2026-04-25T07:40:15Z</time>
      </trkpt>
      <trkpt lat="59.063208103179932" lon="30.030913352966309">
        <time>2026-04-25T07:40:18Z</time>
      </trkpt>
      <trkpt lat="59.063208103179932" lon="30.030913352966309">
        <time>2026-04-25T07:40:20Z</time>
      </trkpt>
      <trkpt lat="59.063208103179932" lon="30.030913352966309">
        <time>2026-04-25T07:40:23Z</time>
      </trkpt>
      <trkpt lat="59.063208103179932" lon="30.030913352966309">
        <time>2026-04-25T07:40:25Z</time>
      </trkpt>
      <trkpt lat="59.063208103179932" lon="30.030913352966309">
        <time>2026-04-25T07:40:28Z</time>
      </trkpt>
      <trkpt lat="59.063208103179932" lon="30.030913352966309">
        <time>2026-04-25T07:40:30Z</time>
      </trkpt>
      <trkpt lat="59.063208103179932" lon="30.030913352966309">
        <time>2026-04-25T07:40:33Z</time>
      </trkpt>
      <trkpt lat="59.063208103179932" lon="30.030913352966309">
        <time>2026-04-25T07:40:35Z</time>
      </trkpt>
      <trkpt lat="59.063208103179932" lon="30.030913352966309">
        <time>2026-04-25T07:40:38Z</time>
      </trkpt>
      <trkpt lat="59.063208103179932" lon="30.030913352966309">
        <time>2026-04-25T07:40:40Z</time>
      </trkpt>
      <trkpt lat="59.063208103179932" lon="30.030913352966309">
        <time>2026-04-25T07:40:43Z</time>
      </trkpt>
      <trkpt lat="59.063208103179932" lon="30.030934810638428">
        <time>2026-04-25T07:40:45Z</time>
      </trkpt>
      <trkpt lat="59.063229560852051" lon="30.030934810638428">
        <time>2026-04-25T07:40:48Z</time>
      </trkpt>
      <trkpt lat="59.063229560852051" lon="30.030956268310547">
        <time>2026-04-25T07:40:50Z</time>
      </trkpt>
      <trkpt lat="59.06325101852417" lon="30.030956268310547">
        <time>2026-04-25T07:40:53Z</time>
      </trkpt>
      <trkpt lat="59.063293933868408" lon="30.030934810638428">
        <time>2026-04-25T07:40:55Z</time>
      </trkpt>
      <trkpt lat="59.063315391540527" lon="30.030956268310547">
        <time>2026-04-25T07:40:58Z</time>
      </trkpt>
      <trkpt lat="59.063358306884766" lon="30.030977725982666">
        <time>2026-04-25T07:41:00Z</time>
      </trkpt>
      <trkpt lat="59.063358306884766" lon="30.030999183654785">
        <time>2026-04-25T07:41:03Z</time>
      </trkpt>
      <trkpt lat="59.063379764556885" lon="30.030999183654785">
        <time>2026-04-25T07:41:05Z</time>
      </trkpt>
      <trkpt lat="59.063379764556885" lon="30.031020641326904">
        <time>2026-04-25T07:41:08Z</time>
      </trkpt>
      <trkpt lat="59.063401222229004" lon="30.030999183654785">
        <time>2026-04-25T07:41:10Z</time>
      </trkpt>
      <trkpt lat="59.063401222229004" lon="30.030999183654785">
        <time>2026-04-25T07:41:13Z</time>
      </trkpt>
      <trkpt lat="59.063401222229004" lon="30.030999183654785">
        <time>2026-04-25T07:41:15Z</time>
      </trkpt>
      <trkpt lat="59.063401222229004" lon="30.030999183654785">
        <time>2026-04-25T07:41:18Z</time>
      </trkpt>
      <trkpt lat="59.063401222229004" lon="30.030999183654785">
        <time>2026-04-25T07:41:20Z</time>
      </trkpt>
      <trkpt lat="59.063401222229004" lon="30.030977725982666">
        <time>2026-04-25T07:41:23Z</time>
      </trkpt>
      <trkpt lat="59.063422679901123" lon="30.030956268310547">
        <time>2026-04-25T07:41:25Z</time>
      </trkpt>
      <trkpt lat="59.063422679901123" lon="30.030913352966309">
        <time>2026-04-25T07:41:28Z</time>
      </trkpt>
      <trkpt lat="59.063422679901123" lon="30.03087043762207">
        <time>2026-04-25T07:41:30Z</time>
      </trkpt>
      <trkpt lat="59.063422679901123" lon="30.030848979949951">
        <time>2026-04-25T07:41:33Z</time>
      </trkpt>
      <trkpt lat="59.063444137573242" lon="30.030827522277832">
        <time>2026-04-25T07:41:35Z</time>
      </trkpt>
      <trkpt lat="59.063444137573242" lon="30.030827522277832">
        <time>2026-04-25T07:41:38Z</time>
      </trkpt>
      <trkpt lat="59.063465595245361" lon="30.03087043762207">
        <time>2026-04-25T07:41:40Z</time>
      </trkpt>
      <trkpt lat="59.06348705291748" lon="30.030891895294189">
        <time>2026-04-25T07:41:43Z</time>
      </trkpt>
      <trkpt lat="59.0635085105896" lon="30.030913352966309">
        <time>2026-04-25T07:41:45Z</time>
      </trkpt>
      <trkpt lat="59.063529968261719" lon="30.030913352966309">
        <time>2026-04-25T07:41:48Z</time>
      </trkpt>
      <trkpt lat="59.063551425933838" lon="30.030913352966309">
        <time>2026-04-25T07:41:50Z</time>
      </trkpt>
      <trkpt lat="59.063572883605957" lon="30.030891895294189">
        <time>2026-04-25T07:41:53Z</time>
      </trkpt>
      <trkpt lat="59.063615798950195" lon="30.03087043762207">
        <time>2026-04-25T07:41:55Z</time>
      </trkpt>
      <trkpt lat="59.063637256622314" lon="30.03087043762207">
        <time>2026-04-25T07:41:58Z</time>
      </trkpt>
      <trkpt lat="59.063658714294434" lon="30.03087043762207">
        <time>2026-04-25T07:42:00Z</time>
      </trkpt>
      <trkpt lat="59.063658714294434" lon="30.03087043762207">
        <time>2026-04-25T07:42:03Z</time>
      </trkpt>
      <trkpt lat="59.063701629638672" lon="30.03087043762207">
        <time>2026-04-25T07:42:05Z</time>
      </trkpt>
      <trkpt lat="59.063701629638672" lon="30.03087043762207">
        <time>2026-04-25T07:42:08Z</time>
      </trkpt>
      <trkpt lat="59.063723087310791" lon="30.030848979949951">
        <time>2026-04-25T07:42:10Z</time>
      </trkpt>
      <trkpt lat="59.063723087310791" lon="30.03087043762207">
        <time>2026-04-25T07:42:13Z</time>
      </trkpt>
      <trkpt lat="59.06374454498291" lon="30.030848979949951">
        <time>2026-04-25T07:42:15Z</time>
      </trkpt>
      <trkpt lat="59.063766002655029" lon="30.030848979949951">
        <time>2026-04-25T07:42:18Z</time>
      </trkpt>
      <trkpt lat="59.063787460327148" lon="30.03087043762207">
        <time>2026-04-25T07:42:20Z</time>
      </trkpt>
      <trkpt lat="59.063787460327148" lon="30.03087043762207">
        <time>2026-04-25T07:42:23Z</time>
      </trkpt>
      <trkpt lat="59.063787460327148" lon="30.03087043762207">
        <time>2026-04-25T07:42:25Z</time>
      </trkpt>
      <trkpt lat="59.063808917999268" lon="30.03087043762207">
        <time>2026-04-25T07:42:28Z</time>
      </trkpt>
      <trkpt lat="59.063808917999268" lon="30.03087043762207">
        <time>2026-04-25T07:42:30Z</time>
      </trkpt>
      <trkpt lat="59.063808917999268" lon="30.03087043762207">
        <time>2026-04-25T07:42:33Z</time>
      </trkpt>
      <trkpt lat="59.063808917999268" lon="30.03087043762207">
        <time>2026-04-25T07:42:35Z</time>
      </trkpt>
      <trkpt lat="59.063808917999268" lon="30.03087043762207">
        <time>2026-04-25T07:42:38Z</time>
      </trkpt>
      <trkpt lat="59.063808917999268" lon="30.03087043762207">
        <time>2026-04-25T07:42:40Z</time>
      </trkpt>
      <trkpt lat="59.063830375671387" lon="30.030848979949951">
        <time>2026-04-25T07:42:43Z</time>
      </trkpt>
      <trkpt lat="59.063830375671387" lon="30.030848979949951">
        <time>2026-04-25T07:42:45Z</time>
      </trkpt>
      <trkpt lat="59.063830375671387" lon="30.030827522277832">
        <time>2026-04-25T07:42:48Z</time>
      </trkpt>
      <trkpt lat="59.063830375671387" lon="30.030806064605713">
        <time>2026-04-25T07:42:50Z</time>
      </trkpt>
      <trkpt lat="59.063851833343506" lon="30.030806064605713">
        <time>2026-04-25T07:42:53Z</time>
      </trkpt>
      <trkpt lat="59.063851833343506" lon="30.030806064605713">
        <time>2026-04-25T07:42:55Z</time>
      </trkpt>
      <trkpt lat="59.063851833343506" lon="30.030806064605713">
        <time>2026-04-25T07:42:58Z</time>
      </trkpt>
      <trkpt lat="59.063851833343506" lon="30.030827522277832">
        <time>2026-04-25T07:43:00Z</time>
      </trkpt>
      <trkpt lat="59.063851833343506" lon="30.030827522277832">
        <time>2026-04-25T07:43:03Z</time>
      </trkpt>
      <trkpt lat="59.063851833343506" lon="30.030827522277832">
        <time>2026-04-25T07:43:05Z</time>
      </trkpt>
      <trkpt lat="59.063851833343506" lon="30.030827522277832">
        <time>2026-04-25T07:43:08Z</time>
      </trkpt>
      <trkpt lat="59.063873291015625" lon="30.030806064605713">
        <time>2026-04-25T07:43:10Z</time>
      </trkpt>
      <trkpt lat="59.063873291015625" lon="30.030827522277832">
        <time>2026-04-25T07:43:13Z</time>
      </trkpt>
      <trkpt lat="59.063873291015625" lon="30.030806064605713">
        <time>2026-04-25T07:43:15Z</time>
      </trkpt>
      <trkpt lat="59.063873291015625" lon="30.030806064605713">
        <time>2026-04-25T07:43:18Z</time>
      </trkpt>
      <trkpt lat="59.063873291015625" lon="30.030806064605713">
        <time>2026-04-25T07:43:20Z</time>
      </trkpt>
      <trkpt lat="59.063894748687744" lon="30.030784606933594">
        <time>2026-04-25T07:43:23Z</time>
      </trkpt>
      <trkpt lat="59.063894748687744" lon="30.030784606933594">
        <time>2026-04-25T07:43:25Z</time>
      </trkpt>
      <trkpt lat="59.063894748687744" lon="30.030784606933594">
        <time>2026-04-25T07:43:28Z</time>
      </trkpt>
      <trkpt lat="59.063916206359863" lon="30.030784606933594">
        <time>2026-04-25T07:43:30Z</time>
      </trkpt>
      <trkpt lat="59.063916206359863" lon="30.030806064605713">
        <time>2026-04-25T07:43:33Z</time>
      </trkpt>
      <trkpt lat="59.063916206359863" lon="30.030806064605713">
        <time>2026-04-25T07:43:35Z</time>
      </trkpt>
      <trkpt lat="59.063937664031982" lon="30.030806064605713">
        <time>2026-04-25T07:43:38Z</time>
      </trkpt>
      <trkpt lat="59.063937664031982" lon="30.030806064605713">
        <time>2026-04-25T07:43:40Z</time>
      </trkpt>
      <trkpt lat="59.063937664031982" lon="30.030806064605713">
        <time>2026-04-25T07:43:43Z</time>
      </trkpt>
      <trkpt lat="59.063937664031982" lon="30.030806064605713">
        <time>2026-04-25T07:43:45Z</time>
      </trkpt>
      <trkpt lat="59.063937664031982" lon="30.030806064605713">
        <time>2026-04-25T07:43:48Z</time>
      </trkpt>
      <trkpt lat="59.063937664031982" lon="30.030784606933594">
        <time>2026-04-25T07:43:50Z</time>
      </trkpt>
      <trkpt lat="59.063937664031982" lon="30.030784606933594">
        <time>2026-04-25T07:43:53Z</time>
      </trkpt>
      <trkpt lat="59.063937664031982" lon="30.030784606933594">
        <time>2026-04-25T07:43:55Z</time>
      </trkpt>
      <trkpt lat="59.063937664031982" lon="30.030784606933594">
        <time>2026-04-25T07:43:58Z</time>
      </trkpt>
      <trkpt lat="59.063937664031982" lon="30.030784606933594">
        <time>2026-04-25T07:44:00Z</time>
      </trkpt>
      <trkpt lat="59.063937664031982" lon="30.030784606933594">
        <time>2026-04-25T07:44:03Z</time>
      </trkpt>
      <trkpt lat="59.063937664031982" lon="30.030784606933594">
        <time>2026-04-25T07:44:05Z</time>
      </trkpt>
      <trkpt lat="59.063959121704102" lon="30.030784606933594">
        <time>2026-04-25T07:44:08Z</time>
      </trkpt>
      <trkpt lat="59.063959121704102" lon="30.030806064605713">
        <time>2026-04-25T07:44:10Z</time>
      </trkpt>
      <trkpt lat="59.063959121704102" lon="30.030806064605713">
        <time>2026-04-25T07:44:13Z</time>
      </trkpt>
      <trkpt lat="59.063959121704102" lon="30.030806064605713">
        <time>2026-04-25T07:44:15Z</time>
      </trkpt>
      <trkpt lat="59.063980579376221" lon="30.030806064605713">
        <time>2026-04-25T07:44:18Z</time>
      </trkpt>
      <trkpt lat="59.063980579376221" lon="30.030784606933594">
        <time>2026-04-25T07:44:20Z</time>
      </trkpt>
      <trkpt lat="59.063980579376221" lon="30.030784606933594">
        <time>2026-04-25T07:44:23Z</time>
      </trkpt>
      <trkpt lat="59.06400203704834" lon="30.030763149261475">
        <time>2026-04-25T07:44:25Z</time>
      </trkpt>
      <trkpt lat="59.06400203704834" lon="30.030741691589355">
        <time>2026-04-25T07:44:28Z</time>
      </trkpt>
      <trkpt lat="59.06400203704834" lon="30.030741691589355">
        <time>2026-04-25T07:44:30Z</time>
      </trkpt>
      <trkpt lat="59.064023494720459" lon="30.030741691589355">
        <time>2026-04-25T07:44:33Z</time>
      </trkpt>
      <trkpt lat="59.064044952392578" lon="30.030720233917236">
        <time>2026-04-25T07:44:35Z</time>
      </trkpt>
      <trkpt lat="59.064044952392578" lon="30.030720233917236">
        <time>2026-04-25T07:44:38Z</time>
      </trkpt>
      <trkpt lat="59.064044952392578" lon="30.030720233917236">
        <time>2026-04-25T07:44:40Z</time>
      </trkpt>
      <trkpt lat="59.064066410064697" lon="30.030720233917236">
        <time>2026-04-25T07:44:43Z</time>
      </trkpt>
      <trkpt lat="59.064087867736816" lon="30.030720233917236">
        <time>2026-04-25T07:44:45Z</time>
      </trkpt>
      <trkpt lat="59.064087867736816" lon="30.030741691589355">
        <time>2026-04-25T07:44:48Z</time>
      </trkpt>
      <trkpt lat="59.064130783081055" lon="30.030741691589355">
        <time>2026-04-25T07:44:50Z</time>
      </trkpt>
      <trkpt lat="59.064152240753174" lon="30.030720233917236">
        <time>2026-04-25T07:44:53Z</time>
      </trkpt>
      <trkpt lat="59.064152240753174" lon="30.030720233917236">
        <time>2026-04-25T07:44:55Z</time>
      </trkpt>
      <trkpt lat="59.064173698425293" lon="30.030720233917236">
        <time>2026-04-25T07:44:58Z</time>
      </trkpt>
      <trkpt lat="59.064173698425293" lon="30.030720233917236">
        <time>2026-04-25T07:45:00Z</time>
      </trkpt>
      <trkpt lat="59.064173698425293" lon="30.030720233917236">
        <time>2026-04-25T07:45:03Z</time>
      </trkpt>
      <trkpt lat="59.064195156097412" lon="30.030698776245117">
        <time>2026-04-25T07:45:05Z</time>
      </trkpt>
      <trkpt lat="59.064195156097412" lon="30.030698776245117">
        <time>2026-04-25T07:45:08Z</time>
      </trkpt>
      <trkpt lat="59.064195156097412" lon="30.030698776245117">
        <time>2026-04-25T07:45:10Z</time>
      </trkpt>
      <trkpt lat="59.064195156097412" lon="30.030698776245117">
        <time>2026-04-25T07:45:13Z</time>
      </trkpt>
      <trkpt lat="59.064195156097412" lon="30.030698776245117">
        <time>2026-04-25T07:45:15Z</time>
      </trkpt>
      <trkpt lat="59.064195156097412" lon="30.030698776245117">
        <time>2026-04-25T07:45:18Z</time>
      </trkpt>
      <trkpt lat="59.064216613769531" lon="30.030698776245117">
        <time>2026-04-25T07:45:20Z</time>
      </trkpt>
      <trkpt lat="59.06423807144165" lon="30.030677318572998">
        <time>2026-04-25T07:45:23Z</time>
      </trkpt>
      <trkpt lat="59.06423807144165" lon="30.030677318572998">
        <time>2026-04-25T07:45:25Z</time>
      </trkpt>
      <trkpt lat="59.06425952911377" lon="30.030677318572998">
        <time>2026-04-25T07:45:28Z</time>
      </trkpt>
      <trkpt lat="59.064280986785889" lon="30.030655860900879">
        <time>2026-04-25T07:45:30Z</time>
      </trkpt>
      <trkpt lat="59.064280986785889" lon="30.03063440322876">
        <time>2026-04-25T07:45:33Z</time>
      </trkpt>
      <trkpt lat="59.064302444458008" lon="30.03063440322876">
        <time>2026-04-25T07:45:35Z</time>
      </trkpt>
      <trkpt lat="59.064323902130127" lon="30.03063440322876">
        <time>2026-04-25T07:45:38Z</time>
      </trkpt>
      <trkpt lat="59.064323902130127" lon="30.030612945556641">
        <time>2026-04-25T07:45:40Z</time>
      </trkpt>
      <trkpt lat="59.064345359802246" lon="30.030612945556641">
        <time>2026-04-25T07:45:43Z</time>
      </trkpt>
      <trkpt lat="59.064366817474365" lon="30.030591487884521">
        <time>2026-04-25T07:45:45Z</time>
      </trkpt>
      <trkpt lat="59.064366817474365" lon="30.030570030212402">
        <time>2026-04-25T07:45:48Z</time>
      </trkpt>
      <trkpt lat="59.064388275146484" lon="30.030570030212402">
        <time>2026-04-25T07:45:50Z</time>
      </trkpt>
      <trkpt lat="59.064409732818604" lon="30.030570030212402">
        <time>2026-04-25T07:45:53Z</time>
      </trkpt>
      <trkpt lat="59.064452648162842" lon="30.030527114868164">
        <time>2026-04-25T07:45:55Z</time>
      </trkpt>
      <trkpt lat="59.064474105834961" lon="30.030505657196045">
        <time>2026-04-25T07:45:58Z</time>
      </trkpt>
      <trkpt lat="59.064517021179199" lon="30.030505657196045">
        <time>2026-04-25T07:46:00Z</time>
      </trkpt>
      <trkpt lat="59.064517021179199" lon="30.030505657196045">
        <time>2026-04-25T07:46:03Z</time>
      </trkpt>
      <trkpt lat="59.064538478851318" lon="30.030484199523926">
        <time>2026-04-25T07:46:05Z</time>
      </trkpt>
      <trkpt lat="59.064538478851318" lon="30.030484199523926">
        <time>2026-04-25T07:46:08Z</time>
      </trkpt>
      <trkpt lat="59.064559936523438" lon="30.030484199523926">
        <time>2026-04-25T07:46:10Z</time>
      </trkpt>
      <trkpt lat="59.064559936523438" lon="30.030505657196045">
        <time>2026-04-25T07:46:13Z</time>
      </trkpt>
      <trkpt lat="59.064581394195557" lon="30.030505657196045">
        <time>2026-04-25T07:46:15Z</time>
      </trkpt>
      <trkpt lat="59.064581394195557" lon="30.030527114868164">
        <time>2026-04-25T07:46:18Z</time>
      </trkpt>
      <trkpt lat="59.064581394195557" lon="30.030505657196045">
        <time>2026-04-25T07:46:20Z</time>
      </trkpt>
      <trkpt lat="59.064581394195557" lon="30.030505657196045">
        <time>2026-04-25T07:46:23Z</time>
      </trkpt>
      <trkpt lat="59.064581394195557" lon="30.030505657196045">
        <time>2026-04-25T07:46:25Z</time>
      </trkpt>
      <trkpt lat="59.064581394195557" lon="30.030505657196045">
        <time>2026-04-25T07:46:28Z</time>
      </trkpt>
      <trkpt lat="59.064602851867676" lon="30.030505657196045">
        <time>2026-04-25T07:46:30Z</time>
      </trkpt>
      <trkpt lat="59.064624309539795" lon="30.030484199523926">
        <time>2026-04-25T07:46:33Z</time>
      </trkpt>
      <trkpt lat="59.064667224884033" lon="30.030484199523926">
        <time>2026-04-25T07:46:35Z</time>
      </trkpt>
      <trkpt lat="59.064688682556152" lon="30.030484199523926">
        <time>2026-04-25T07:46:38Z</time>
      </trkpt>
      <trkpt lat="59.064710140228271" lon="30.030484199523926">
        <time>2026-04-25T07:46:40Z</time>
      </trkpt>
      <trkpt lat="59.064710140228271" lon="30.030484199523926">
        <time>2026-04-25T07:46:43Z</time>
      </trkpt>
      <trkpt lat="59.06475305557251" lon="30.030484199523926">
        <time>2026-04-25T07:46:45Z</time>
      </trkpt>
      <trkpt lat="59.064817428588867" lon="30.030462741851807">
        <time>2026-04-25T07:46:48Z</time>
      </trkpt>
      <trkpt lat="59.064838886260986" lon="30.030441284179688">
        <time>2026-04-25T07:46:50Z</time>
      </trkpt>
      <trkpt lat="59.064774513244629" lon="30.030484199523926">
        <time>2026-04-25T07:46:53Z</time>
      </trkpt>
      <trkpt lat="59.064624309539795" lon="30.030527114868164">
        <time>2026-04-25T07:46:55Z</time>
      </trkpt>
      <trkpt lat="59.064517021179199" lon="30.030548572540283">
        <time>2026-04-25T07:46:58Z</time>
      </trkpt>
      <trkpt lat="59.064474105834961" lon="30.030548572540283">
        <time>2026-04-25T07:47:00Z</time>
      </trkpt>
      <trkpt lat="59.064452648162842" lon="30.030548572540283">
        <time>2026-04-25T07:47:03Z</time>
      </trkpt>
      <trkpt lat="59.064431190490723" lon="30.030548572540283">
        <time>2026-04-25T07:47:05Z</time>
      </trkpt>
      <trkpt lat="59.064431190490723" lon="30.030548572540283">
        <time>2026-04-25T07:47:08Z</time>
      </trkpt>
      <trkpt lat="59.064431190490723" lon="30.030570030212402">
        <time>2026-04-25T07:47:10Z</time>
      </trkpt>
      <trkpt lat="59.064431190490723" lon="30.030570030212402">
        <time>2026-04-25T07:47:13Z</time>
      </trkpt>
      <trkpt lat="59.064431190490723" lon="30.030570030212402">
        <time>2026-04-25T07:47:15Z</time>
      </trkpt>
      <trkpt lat="59.064431190490723" lon="30.030570030212402">
        <time>2026-04-25T07:47:18Z</time>
      </trkpt>
      <trkpt lat="59.064431190490723" lon="30.030570030212402">
        <time>2026-04-25T07:47:20Z</time>
      </trkpt>
      <trkpt lat="59.064431190490723" lon="30.030570030212402">
        <time>2026-04-25T07:47:23Z</time>
      </trkpt>
      <trkpt lat="59.064431190490723" lon="30.030570030212402">
        <time>2026-04-25T07:47:25Z</time>
      </trkpt>
      <trkpt lat="59.064431190490723" lon="30.030570030212402">
        <time>2026-04-25T07:47:28Z</time>
      </trkpt>
      <trkpt lat="59.064431190490723" lon="30.030570030212402">
        <time>2026-04-25T07:47:30Z</time>
      </trkpt>
      <trkpt lat="59.064431190490723" lon="30.030570030212402">
        <time>2026-04-25T07:47:33Z</time>
      </trkpt>
      <trkpt lat="59.064431190490723" lon="30.030570030212402">
        <time>2026-04-25T07:47:35Z</time>
      </trkpt>
      <trkpt lat="59.064431190490723" lon="30.030570030212402">
        <time>2026-04-25T07:47:38Z</time>
      </trkpt>
      <trkpt lat="59.064431190490723" lon="30.030570030212402">
        <time>2026-04-25T07:47:40Z</time>
      </trkpt>
      <trkpt lat="59.064431190490723" lon="30.030570030212402">
        <time>2026-04-25T07:47:43Z</time>
      </trkpt>
      <trkpt lat="59.064431190490723" lon="30.030570030212402">
        <time>2026-04-25T07:47:45Z</time>
      </trkpt>
      <trkpt lat="59.064431190490723" lon="30.030570030212402">
        <time>2026-04-25T07:47:48Z</time>
      </trkpt>
      <trkpt lat="59.064431190490723" lon="30.030570030212402">
        <time>2026-04-25T07:47:50Z</time>
      </trkpt>
      <trkpt lat="59.064431190490723" lon="30.030570030212402">
        <time>2026-04-25T07:47:53Z</time>
      </trkpt>
      <trkpt lat="59.064431190490723" lon="30.030570030212402">
        <time>2026-04-25T07:47:55Z</time>
      </trkpt>
      <trkpt lat="59.064431190490723" lon="30.030570030212402">
        <time>2026-04-25T07:47:58Z</time>
      </trkpt>
      <trkpt lat="59.064431190490723" lon="30.030570030212402">
        <time>2026-04-25T07:48:00Z</time>
      </trkpt>
      <trkpt lat="59.064431190490723" lon="30.030570030212402">
        <time>2026-04-25T07:48:03Z</time>
      </trkpt>
      <trkpt lat="59.064431190490723" lon="30.030570030212402">
        <time>2026-04-25T07:48:05Z</time>
      </trkpt>
      <trkpt lat="59.064431190490723" lon="30.030570030212402">
        <time>2026-04-25T07:48:08Z</time>
      </trkpt>
      <trkpt lat="59.064409732818604" lon="30.030570030212402">
        <time>2026-04-25T07:48:10Z</time>
      </trkpt>
      <trkpt lat="59.064409732818604" lon="30.030570030212402">
        <time>2026-04-25T07:48:13Z</time>
      </trkpt>
      <trkpt lat="59.064409732818604" lon="30.030570030212402">
        <time>2026-04-25T07:48:15Z</time>
      </trkpt>
      <trkpt lat="59.064409732818604" lon="30.030570030212402">
        <time>2026-04-25T07:48:18Z</time>
      </trkpt>
      <trkpt lat="59.064409732818604" lon="30.030570030212402">
        <time>2026-04-25T07:48:20Z</time>
      </trkpt>
      <trkpt lat="59.064409732818604" lon="30.030570030212402">
        <time>2026-04-25T07:48:23Z</time>
      </trkpt>
      <trkpt lat="59.064409732818604" lon="30.030570030212402">
        <time>2026-04-25T07:48:25Z</time>
      </trkpt>
      <trkpt lat="59.064409732818604" lon="30.030570030212402">
        <time>2026-04-25T07:48:28Z</time>
      </trkpt>
      <trkpt lat="59.064409732818604" lon="30.030570030212402">
        <time>2026-04-25T07:48:30Z</time>
      </trkpt>
      <trkpt lat="59.064409732818604" lon="30.030570030212402">
        <time>2026-04-25T07:48:33Z</time>
      </trkpt>
      <trkpt lat="59.064409732818604" lon="30.030570030212402">
        <time>2026-04-25T07:48:35Z</time>
      </trkpt>
      <trkpt lat="59.064431190490723" lon="30.030548572540283">
        <time>2026-04-25T07:48:38Z</time>
      </trkpt>
      <trkpt lat="59.064538478851318" lon="30.030527114868164">
        <time>2026-04-25T07:48:40Z</time>
      </trkpt>
      <trkpt lat="59.064645767211914" lon="30.030484199523926">
        <time>2026-04-25T07:48:43Z</time>
      </trkpt>
      <trkpt lat="59.064881801605225" lon="30.030419826507568">
        <time>2026-04-25T07:48:45Z</time>
      </trkpt>
      <trkpt lat="59.065053462982178" lon="30.03037691116333">
        <time>2026-04-25T07:48:48Z</time>
      </trkpt>
      <trkpt lat="59.06524658203125" lon="30.030312538146973">
        <time>2026-04-25T07:48:50Z</time>
      </trkpt>
      <trkpt lat="59.065268039703369" lon="30.030312538146973">
        <time>2026-04-25T07:48:53Z</time>
      </trkpt>
      <trkpt lat="59.065225124359131" lon="30.030312538146973">
        <time>2026-04-25T07:48:55Z</time>
      </trkpt>
      <trkpt lat="59.065225124359131" lon="30.030312538146973">
        <time>2026-04-25T07:48:58Z</time>
      </trkpt>
      <trkpt lat="59.06524658203125" lon="30.030312538146973">
        <time>2026-04-25T07:49:00Z</time>
      </trkpt>
      <trkpt lat="59.06524658203125" lon="30.030312538146973">
        <time>2026-04-25T07:49:03Z</time>
      </trkpt>
      <trkpt lat="59.06524658203125" lon="30.030312538146973">
        <time>2026-04-25T07:49:05Z</time>
      </trkpt>
      <trkpt lat="59.06524658203125" lon="30.030312538146973">
        <time>2026-04-25T07:49:08Z</time>
      </trkpt>
      <trkpt lat="59.06524658203125" lon="30.030312538146973">
        <time>2026-04-25T07:49:10Z</time>
      </trkpt>
      <trkpt lat="59.06524658203125" lon="30.030312538146973">
        <time>2026-04-25T07:49:13Z</time>
      </trkpt>
      <trkpt lat="59.06524658203125" lon="30.030312538146973">
        <time>2026-04-25T07:49:15Z</time>
      </trkpt>
      <trkpt lat="59.06524658203125" lon="30.030312538146973">
        <time>2026-04-25T07:49:18Z</time>
      </trkpt>
      <trkpt lat="59.06524658203125" lon="30.030312538146973">
        <time>2026-04-25T07:49:20Z</time>
      </trkpt>
      <trkpt lat="59.06524658203125" lon="30.030312538146973">
        <time>2026-04-25T07:49:23Z</time>
      </trkpt>
      <trkpt lat="59.065268039703369" lon="30.030291080474854">
        <time>2026-04-25T07:49:25Z</time>
      </trkpt>
      <trkpt lat="59.065268039703369" lon="30.030291080474854">
        <time>2026-04-25T07:49:28Z</time>
      </trkpt>
      <trkpt lat="59.065268039703369" lon="30.030291080474854">
        <time>2026-04-25T07:49:30Z</time>
      </trkpt>
      <trkpt lat="59.065289497375488" lon="30.030291080474854">
        <time>2026-04-25T07:49:33Z</time>
      </trkpt>
      <trkpt lat="59.065332412719727" lon="30.030291080474854">
        <time>2026-04-25T07:49:35Z</time>
      </trkpt>
      <trkpt lat="59.065353870391846" lon="30.030291080474854">
        <time>2026-04-25T07:49:38Z</time>
      </trkpt>
      <trkpt lat="59.065375328063965" lon="30.030291080474854">
        <time>2026-04-25T07:49:40Z</time>
      </trkpt>
      <trkpt lat="59.065396785736084" lon="30.030291080474854">
        <time>2026-04-25T07:49:43Z</time>
      </trkpt>
      <trkpt lat="59.065482616424561" lon="30.030226707458496">
        <time>2026-04-25T07:49:48Z</time>
      </trkpt>
      <trkpt lat="59.06550407409668" lon="30.030226707458496">
        <time>2026-04-25T07:49:50Z</time>
      </trkpt>
      <trkpt lat="59.065525531768799" lon="30.030226707458496">
        <time>2026-04-25T07:49:53Z</time>
      </trkpt>
      <trkpt lat="59.065546989440918" lon="30.030205249786377">
        <time>2026-04-25T07:49:55Z</time>
      </trkpt>
      <trkpt lat="59.065546989440918" lon="30.030205249786377">
        <time>2026-04-25T07:49:58Z</time>
      </trkpt>
      <trkpt lat="59.065589904785156" lon="30.030183792114258">
        <time>2026-04-25T07:50:00Z</time>
      </trkpt>
      <trkpt lat="59.065611362457275" lon="30.030162334442139">
        <time>2026-04-25T07:50:03Z</time>
      </trkpt>
      <trkpt lat="59.065632820129395" lon="30.03014087677002">
        <time>2026-04-25T07:50:05Z</time>
      </trkpt>
      <trkpt lat="59.065654277801514" lon="30.03014087677002">
        <time>2026-04-25T07:50:08Z</time>
      </trkpt>
      <trkpt lat="59.065697193145752" lon="30.03014087677002">
        <time>2026-04-25T07:50:10Z</time>
      </trkpt>
      <trkpt lat="59.065697193145752" lon="30.0301194190979">
        <time>2026-04-25T07:50:13Z</time>
      </trkpt>
      <trkpt lat="59.065718650817871" lon="30.0301194190979">
        <time>2026-04-25T07:50:15Z</time>
      </trkpt>
      <trkpt lat="59.065718650817871" lon="30.0301194190979">
        <time>2026-04-25T07:50:18Z</time>
      </trkpt>
      <trkpt lat="59.065718650817871" lon="30.0301194190979">
        <time>2026-04-25T07:50:20Z</time>
      </trkpt>
      <trkpt lat="59.065718650817871" lon="30.0301194190979">
        <time>2026-04-25T07:50:23Z</time>
      </trkpt>
      <trkpt lat="59.065718650817871" lon="30.030097961425781">
        <time>2026-04-25T07:50:25Z</time>
      </trkpt>
      <trkpt lat="59.065718650817871" lon="30.030097961425781">
        <time>2026-04-25T07:50:28Z</time>
      </trkpt>
      <trkpt lat="59.065718650817871" lon="30.0301194190979">
        <time>2026-04-25T07:50:30Z</time>
      </trkpt>
      <trkpt lat="59.065697193145752" lon="30.0301194190979">
        <time>2026-04-25T07:50:33Z</time>
      </trkpt>
      <trkpt lat="59.065718650817871" lon="30.0301194190979">
        <time>2026-04-25T07:50:35Z</time>
      </trkpt>
      <trkpt lat="59.065718650817871" lon="30.0301194190979">
        <time>2026-04-25T07:50:38Z</time>
      </trkpt>
      <trkpt lat="59.065718650817871" lon="30.0301194190979">
        <time>2026-04-25T07:50:40Z</time>
      </trkpt>
      <trkpt lat="59.065718650817871" lon="30.0301194190979">
        <time>2026-04-25T07:50:43Z</time>
      </trkpt>
      <trkpt lat="59.065718650817871" lon="30.030097961425781">
        <time>2026-04-25T07:50:45Z</time>
      </trkpt>
      <trkpt lat="59.065718650817871" lon="30.030097961425781">
        <time>2026-04-25T07:50:48Z</time>
      </trkpt>
      <trkpt lat="59.065718650817871" lon="30.030097961425781">
        <time>2026-04-25T07:50:50Z</time>
      </trkpt>
      <trkpt lat="59.065718650817871" lon="30.030097961425781">
        <time>2026-04-25T07:50:53Z</time>
      </trkpt>
      <trkpt lat="59.065718650817871" lon="30.030097961425781">
        <time>2026-04-25T07:50:55Z</time>
      </trkpt>
      <trkpt lat="59.065718650817871" lon="30.030097961425781">
        <time>2026-04-25T07:50:58Z</time>
      </trkpt>
      <trkpt lat="59.065718650817871" lon="30.030097961425781">
        <time>2026-04-25T07:51:00Z</time>
      </trkpt>
      <trkpt lat="59.065718650817871" lon="30.030097961425781">
        <time>2026-04-25T07:51:03Z</time>
      </trkpt>
      <trkpt lat="59.065718650817871" lon="30.030097961425781">
        <time>2026-04-25T07:51:05Z</time>
      </trkpt>
      <trkpt lat="59.065697193145752" lon="30.030097961425781">
        <time>2026-04-25T07:51:08Z</time>
      </trkpt>
      <trkpt lat="59.065697193145752" lon="30.030097961425781">
        <time>2026-04-25T07:51:10Z</time>
      </trkpt>
      <trkpt lat="59.065697193145752" lon="30.030097961425781">
        <time>2026-04-25T07:51:13Z</time>
      </trkpt>
      <trkpt lat="59.065697193145752" lon="30.030076503753662">
        <time>2026-04-25T07:51:15Z</time>
      </trkpt>
      <trkpt lat="59.065697193145752" lon="30.030076503753662">
        <time>2026-04-25T07:51:18Z</time>
      </trkpt>
      <trkpt lat="59.065697193145752" lon="30.030076503753662">
        <time>2026-04-25T07:51:20Z</time>
      </trkpt>
      <trkpt lat="59.065718650817871" lon="30.030076503753662">
        <time>2026-04-25T07:51:23Z</time>
      </trkpt>
      <trkpt lat="59.065761566162109" lon="30.030055046081543">
        <time>2026-04-25T07:51:25Z</time>
      </trkpt>
      <trkpt lat="59.065761566162109" lon="30.030055046081543">
        <time>2026-04-25T07:51:28Z</time>
      </trkpt>
      <trkpt lat="59.065783023834229" lon="30.030076503753662">
        <time>2026-04-25T07:51:30Z</time>
      </trkpt>
      <trkpt lat="59.065804481506348" lon="30.030076503753662">
        <time>2026-04-25T07:51:33Z</time>
      </trkpt>
      <trkpt lat="59.065825939178467" lon="30.030076503753662">
        <time>2026-04-25T07:51:35Z</time>
      </trkpt>
      <trkpt lat="59.065825939178467" lon="30.030076503753662">
        <time>2026-04-25T07:51:38Z</time>
      </trkpt>
      <trkpt lat="59.065847396850586" lon="30.030055046081543">
        <time>2026-04-25T07:51:40Z</time>
      </trkpt>
      <trkpt lat="59.065847396850586" lon="30.030076503753662">
        <time>2026-04-25T07:51:43Z</time>
      </trkpt>
      <trkpt lat="59.065868854522705" lon="30.030076503753662">
        <time>2026-04-25T07:51:45Z</time>
      </trkpt>
      <trkpt lat="59.065868854522705" lon="30.030097961425781">
        <time>2026-04-25T07:51:48Z</time>
      </trkpt>
      <trkpt lat="59.065847396850586" lon="30.030097961425781">
        <time>2026-04-25T07:51:50Z</time>
      </trkpt>
      <trkpt lat="59.065847396850586" lon="30.030097961425781">
        <time>2026-04-25T07:51:53Z</time>
      </trkpt>
      <trkpt lat="59.065847396850586" lon="30.030097961425781">
        <time>2026-04-25T07:51:55Z</time>
      </trkpt>
      <trkpt lat="59.065847396850586" lon="30.030097961425781">
        <time>2026-04-25T07:51:58Z</time>
      </trkpt>
      <trkpt lat="59.065868854522705" lon="30.030097961425781">
        <time>2026-04-25T07:52:00Z</time>
      </trkpt>
      <trkpt lat="59.065868854522705" lon="30.030076503753662">
        <time>2026-04-25T07:52:03Z</time>
      </trkpt>
      <trkpt lat="59.065890312194824" lon="30.030076503753662">
        <time>2026-04-25T07:52:05Z</time>
      </trkpt>
      <trkpt lat="59.065890312194824" lon="30.030097961425781">
        <time>2026-04-25T07:52:08Z</time>
      </trkpt>
      <trkpt lat="59.065911769866943" lon="30.030097961425781">
        <time>2026-04-25T07:52:10Z</time>
      </trkpt>
      <trkpt lat="59.065911769866943" lon="30.030097961425781">
        <time>2026-04-25T07:52:13Z</time>
      </trkpt>
      <trkpt lat="59.065911769866943" lon="30.0301194190979">
        <time>2026-04-25T07:52:15Z</time>
      </trkpt>
      <trkpt lat="59.065933227539062" lon="30.0301194190979">
        <time>2026-04-25T07:52:18Z</time>
      </trkpt>
      <trkpt lat="59.065976142883301" lon="30.030076503753662">
        <time>2026-04-25T07:52:20Z</time>
      </trkpt>
      <trkpt lat="59.066061973571777" lon="30.030055046081543">
        <time>2026-04-25T07:52:23Z</time>
      </trkpt>
      <trkpt lat="59.066083431243896" lon="30.030033588409424">
        <time>2026-04-25T07:52:25Z</time>
      </trkpt>
      <trkpt lat="59.066083431243896" lon="30.030012130737305">
        <time>2026-04-25T07:52:28Z</time>
      </trkpt>
      <trkpt lat="59.066083431243896" lon="30.030012130737305">
        <time>2026-04-25T07:52:30Z</time>
      </trkpt>
      <trkpt lat="59.066083431243896" lon="30.030012130737305">
        <time>2026-04-25T07:52:33Z</time>
      </trkpt>
      <trkpt lat="59.066061973571777" lon="30.030012130737305">
        <time>2026-04-25T07:52:35Z</time>
      </trkpt>
      <trkpt lat="59.066040515899658" lon="30.029990673065186">
        <time>2026-04-25T07:52:38Z</time>
      </trkpt>
      <trkpt lat="59.066061973571777" lon="30.029990673065186">
        <time>2026-04-25T07:52:40Z</time>
      </trkpt>
      <trkpt lat="59.066061973571777" lon="30.029990673065186">
        <time>2026-04-25T07:52:43Z</time>
      </trkpt>
      <trkpt lat="59.066061973571777" lon="30.029990673065186">
        <time>2026-04-25T07:52:45Z</time>
      </trkpt>
      <trkpt lat="59.066061973571777" lon="30.029990673065186">
        <time>2026-04-25T07:52:48Z</time>
      </trkpt>
      <trkpt lat="59.066061973571777" lon="30.030012130737305">
        <time>2026-04-25T07:52:50Z</time>
      </trkpt>
      <trkpt lat="59.066040515899658" lon="30.030012130737305">
        <time>2026-04-25T07:52:53Z</time>
      </trkpt>
      <trkpt lat="59.066019058227539" lon="30.030055046081543">
        <time>2026-04-25T07:52:55Z</time>
      </trkpt>
      <trkpt lat="59.06599760055542" lon="30.030076503753662">
        <time>2026-04-25T07:52:58Z</time>
      </trkpt>
      <trkpt lat="59.065976142883301" lon="30.030097961425781">
        <time>2026-04-25T07:53:00Z</time>
      </trkpt>
      <trkpt lat="59.065976142883301" lon="30.030097961425781">
        <time>2026-04-25T07:53:03Z</time>
      </trkpt>
      <trkpt lat="59.065954685211182" lon="30.030097961425781">
        <time>2026-04-25T07:53:05Z</time>
      </trkpt>
      <trkpt lat="59.065954685211182" lon="30.030097961425781">
        <time>2026-04-25T07:53:08Z</time>
      </trkpt>
      <trkpt lat="59.065954685211182" lon="30.0301194190979">
        <time>2026-04-25T07:53:10Z</time>
      </trkpt>
      <trkpt lat="59.065954685211182" lon="30.0301194190979">
        <time>2026-04-25T07:53:13Z</time>
      </trkpt>
      <trkpt lat="59.065954685211182" lon="30.03014087677002">
        <time>2026-04-25T07:53:15Z</time>
      </trkpt>
      <trkpt lat="59.065976142883301" lon="30.030162334442139">
        <time>2026-04-25T07:53:20Z</time>
      </trkpt>
      <trkpt lat="59.065976142883301" lon="30.03014087677002">
        <time>2026-04-25T07:53:23Z</time>
      </trkpt>
      <trkpt lat="59.065976142883301" lon="30.030162334442139">
        <time>2026-04-25T07:53:25Z</time>
      </trkpt>
      <trkpt lat="59.065976142883301" lon="30.03014087677002">
        <time>2026-04-25T07:53:28Z</time>
      </trkpt>
      <trkpt lat="59.066019058227539" lon="30.0301194190979">
        <time>2026-04-25T07:53:30Z</time>
      </trkpt>
      <trkpt lat="59.066061973571777" lon="30.030097961425781">
        <time>2026-04-25T07:53:33Z</time>
      </trkpt>
      <trkpt lat="59.066169261932373" lon="30.030055046081543">
        <time>2026-04-25T07:53:35Z</time>
      </trkpt>
      <trkpt lat="59.066212177276611" lon="30.030055046081543">
        <time>2026-04-25T07:53:38Z</time>
      </trkpt>
      <trkpt lat="59.066276550292969" lon="30.030033588409424">
        <time>2026-04-25T07:53:40Z</time>
      </trkpt>
      <trkpt lat="59.066298007965088" lon="30.029969215393066">
        <time>2026-04-25T07:53:43Z</time>
      </trkpt>
      <trkpt lat="59.066319465637207" lon="30.029947757720947">
        <time>2026-04-25T07:53:45Z</time>
      </trkpt>
      <trkpt lat="59.066319465637207" lon="30.029947757720947">
        <time>2026-04-25T07:53:48Z</time>
      </trkpt>
      <trkpt lat="59.066340923309326" lon="30.029947757720947">
        <time>2026-04-25T07:53:50Z</time>
      </trkpt>
      <trkpt lat="59.066340923309326" lon="30.029947757720947">
        <time>2026-04-25T07:53:53Z</time>
      </trkpt>
      <trkpt lat="59.066340923309326" lon="30.029926300048828">
        <time>2026-04-25T07:53:55Z</time>
      </trkpt>
      <trkpt lat="59.066340923309326" lon="30.029926300048828">
        <time>2026-04-25T07:53:58Z</time>
      </trkpt>
      <trkpt lat="59.066340923309326" lon="30.029947757720947">
        <time>2026-04-25T07:54:00Z</time>
      </trkpt>
      <trkpt lat="59.066340923309326" lon="30.029947757720947">
        <time>2026-04-25T07:54:03Z</time>
      </trkpt>
      <trkpt lat="59.066340923309326" lon="30.029926300048828">
        <time>2026-04-25T07:54:05Z</time>
      </trkpt>
      <trkpt lat="59.066340923309326" lon="30.029926300048828">
        <time>2026-04-25T07:54:08Z</time>
      </trkpt>
      <trkpt lat="59.066319465637207" lon="30.029947757720947">
        <time>2026-04-25T07:54:10Z</time>
      </trkpt>
      <trkpt lat="59.066298007965088" lon="30.029926300048828">
        <time>2026-04-25T07:54:13Z</time>
      </trkpt>
      <trkpt lat="59.066298007965088" lon="30.029926300048828">
        <time>2026-04-25T07:54:15Z</time>
      </trkpt>
      <trkpt lat="59.066298007965088" lon="30.029926300048828">
        <time>2026-04-25T07:54:18Z</time>
      </trkpt>
      <trkpt lat="59.066319465637207" lon="30.029947757720947">
        <time>2026-04-25T07:54:20Z</time>
      </trkpt>
      <trkpt lat="59.066340923309326" lon="30.029947757720947">
        <time>2026-04-25T07:54:23Z</time>
      </trkpt>
      <trkpt lat="59.066426753997803" lon="30.029926300048828">
        <time>2026-04-25T07:54:25Z</time>
      </trkpt>
      <trkpt lat="59.066469669342041" lon="30.02988338470459">
        <time>2026-04-25T07:54:28Z</time>
      </trkpt>
      <trkpt lat="59.066512584686279" lon="30.02988338470459">
        <time>2026-04-25T07:54:30Z</time>
      </trkpt>
      <trkpt lat="59.066555500030518" lon="30.02988338470459">
        <time>2026-04-25T07:54:33Z</time>
      </trkpt>
      <trkpt lat="59.066555500030518" lon="30.029904842376709">
        <time>2026-04-25T07:54:35Z</time>
      </trkpt>
      <trkpt lat="59.066576957702637" lon="30.029904842376709">
        <time>2026-04-25T07:54:38Z</time>
      </trkpt>
      <trkpt lat="59.066576957702637" lon="30.029904842376709">
        <time>2026-04-25T07:54:40Z</time>
      </trkpt>
      <trkpt lat="59.066576957702637" lon="30.02988338470459">
        <time>2026-04-25T07:54:43Z</time>
      </trkpt>
      <trkpt lat="59.066576957702637" lon="30.02988338470459">
        <time>2026-04-25T07:54:45Z</time>
      </trkpt>
      <trkpt lat="59.066555500030518" lon="30.02988338470459">
        <time>2026-04-25T07:54:48Z</time>
      </trkpt>
      <trkpt lat="59.066555500030518" lon="30.02988338470459">
        <time>2026-04-25T07:54:50Z</time>
      </trkpt>
      <trkpt lat="59.066555500030518" lon="30.029861927032471">
        <time>2026-04-25T07:54:53Z</time>
      </trkpt>
      <trkpt lat="59.066598415374756" lon="30.029840469360352">
        <time>2026-04-25T07:54:55Z</time>
      </trkpt>
      <trkpt lat="59.066598415374756" lon="30.029840469360352">
        <time>2026-04-25T07:54:58Z</time>
      </trkpt>
      <trkpt lat="59.066598415374756" lon="30.029840469360352">
        <time>2026-04-25T07:55:00Z</time>
      </trkpt>
      <trkpt lat="59.066619873046875" lon="30.029840469360352">
        <time>2026-04-25T07:55:03Z</time>
      </trkpt>
      <trkpt lat="59.066684246063232" lon="30.029840469360352">
        <time>2026-04-25T07:55:05Z</time>
      </trkpt>
      <trkpt lat="59.06674861907959" lon="30.029819011688232">
        <time>2026-04-25T07:55:08Z</time>
      </trkpt>
      <trkpt lat="59.066834449768066" lon="30.029797554016113">
        <time>2026-04-25T07:55:10Z</time>
      </trkpt>
      <trkpt lat="59.066877365112305" lon="30.029776096343994">
        <time>2026-04-25T07:55:13Z</time>
      </trkpt>
      <trkpt lat="59.066920280456543" lon="30.029754638671875">
        <time>2026-04-25T07:55:15Z</time>
      </trkpt>
      <trkpt lat="59.066920280456543" lon="30.029776096343994">
        <time>2026-04-25T07:55:18Z</time>
      </trkpt>
      <trkpt lat="59.066877365112305" lon="30.029797554016113">
        <time>2026-04-25T07:55:20Z</time>
      </trkpt>
      <trkpt lat="59.066877365112305" lon="30.029819011688232">
        <time>2026-04-25T07:55:23Z</time>
      </trkpt>
      <trkpt lat="59.066941738128662" lon="30.029776096343994">
        <time>2026-04-25T07:55:25Z</time>
      </trkpt>
      <trkpt lat="59.06700611114502" lon="30.029733180999756">
        <time>2026-04-25T07:55:28Z</time>
      </trkpt>
      <trkpt lat="59.067070484161377" lon="30.029690265655518">
        <time>2026-04-25T07:55:30Z</time>
      </trkpt>
      <trkpt lat="59.067134857177734" lon="30.029690265655518">
        <time>2026-04-25T07:55:33Z</time>
      </trkpt>
      <trkpt lat="59.067177772521973" lon="30.029647350311279">
        <time>2026-04-25T07:55:35Z</time>
      </trkpt>
      <trkpt lat="59.067177772521973" lon="30.02962589263916">
        <time>2026-04-25T07:55:38Z</time>
      </trkpt>
      <trkpt lat="59.067177772521973" lon="30.029647350311279">
        <time>2026-04-25T07:55:40Z</time>
      </trkpt>
      <trkpt lat="59.067177772521973" lon="30.029647350311279">
        <time>2026-04-25T07:55:43Z</time>
      </trkpt>
      <trkpt lat="59.067177772521973" lon="30.029647350311279">
        <time>2026-04-25T07:55:45Z</time>
      </trkpt>
      <trkpt lat="59.067156314849854" lon="30.029647350311279">
        <time>2026-04-25T07:55:48Z</time>
      </trkpt>
      <trkpt lat="59.067177772521973" lon="30.029647350311279">
        <time>2026-04-25T07:55:50Z</time>
      </trkpt>
      <trkpt lat="59.067177772521973" lon="30.029647350311279">
        <time>2026-04-25T07:55:53Z</time>
      </trkpt>
      <trkpt lat="59.067177772521973" lon="30.029647350311279">
        <time>2026-04-25T07:55:55Z</time>
      </trkpt>
      <trkpt lat="59.067177772521973" lon="30.029647350311279">
        <time>2026-04-25T07:55:58Z</time>
      </trkpt>
      <trkpt lat="59.067177772521973" lon="30.029647350311279">
        <time>2026-04-25T07:56:00Z</time>
      </trkpt>
      <trkpt lat="59.067199230194092" lon="30.02962589263916">
        <time>2026-04-25T07:56:03Z</time>
      </trkpt>
      <trkpt lat="59.06724214553833" lon="30.02962589263916">
        <time>2026-04-25T07:56:05Z</time>
      </trkpt>
      <trkpt lat="59.06724214553833" lon="30.029604434967041">
        <time>2026-04-25T07:56:08Z</time>
      </trkpt>
      <trkpt lat="59.067263603210449" lon="30.029604434967041">
        <time>2026-04-25T07:56:10Z</time>
      </trkpt>
      <trkpt lat="59.067327976226807" lon="30.029582977294922">
        <time>2026-04-25T07:56:13Z</time>
      </trkpt>
      <trkpt lat="59.067435264587402" lon="30.029561519622803">
        <time>2026-04-25T07:56:15Z</time>
      </trkpt>
      <trkpt lat="59.067478179931641" lon="30.029540061950684">
        <time>2026-04-25T07:56:18Z</time>
      </trkpt>
      <trkpt lat="59.067435264587402" lon="30.029561519622803">
        <time>2026-04-25T07:56:20Z</time>
      </trkpt>
      <trkpt lat="59.067478179931641" lon="30.029561519622803">
        <time>2026-04-25T07:56:23Z</time>
      </trkpt>
      <trkpt lat="59.067542552947998" lon="30.029540061950684">
        <time>2026-04-25T07:56:25Z</time>
      </trkpt>
      <trkpt lat="59.067521095275879" lon="30.029540061950684">
        <time>2026-04-25T07:56:28Z</time>
      </trkpt>
      <trkpt lat="59.067521095275879" lon="30.029540061950684">
        <time>2026-04-25T07:56:30Z</time>
      </trkpt>
      <trkpt lat="59.067564010620117" lon="30.029540061950684">
        <time>2026-04-25T07:56:33Z</time>
      </trkpt>
      <trkpt lat="59.067585468292236" lon="30.029540061950684">
        <time>2026-04-25T07:56:35Z</time>
      </trkpt>
      <trkpt lat="59.067585468292236" lon="30.029540061950684">
        <time>2026-04-25T07:56:38Z</time>
      </trkpt>
      <trkpt lat="59.067585468292236" lon="30.029540061950684">
        <time>2026-04-25T07:56:40Z</time>
      </trkpt>
      <trkpt lat="59.067606925964355" lon="30.029518604278564">
        <time>2026-04-25T07:56:43Z</time>
      </trkpt>
      <trkpt lat="59.067649841308594" lon="30.029518604278564">
        <time>2026-04-25T07:56:45Z</time>
      </trkpt>
      <trkpt lat="59.067692756652832" lon="30.029497146606445">
        <time>2026-04-25T07:56:48Z</time>
      </trkpt>
      <trkpt lat="59.06773567199707" lon="30.029497146606445">
        <time>2026-04-25T07:56:50Z</time>
      </trkpt>
      <trkpt lat="59.06773567199707" lon="30.029497146606445">
        <time>2026-04-25T07:56:53Z</time>
      </trkpt>
      <trkpt lat="59.067778587341309" lon="30.029454231262207">
        <time>2026-04-25T07:56:55Z</time>
      </trkpt>
      <trkpt lat="59.067800045013428" lon="30.029432773590088">
        <time>2026-04-25T07:56:58Z</time>
      </trkpt>
      <trkpt lat="59.067821502685547" lon="30.029411315917969">
        <time>2026-04-25T07:57:00Z</time>
      </trkpt>
      <trkpt lat="59.067842960357666" lon="30.02938985824585">
        <time>2026-04-25T07:57:03Z</time>
      </trkpt>
      <trkpt lat="59.067842960357666" lon="30.02936840057373">
        <time>2026-04-25T07:57:05Z</time>
      </trkpt>
      <trkpt lat="59.067864418029785" lon="30.02936840057373">
        <time>2026-04-25T07:57:08Z</time>
      </trkpt>
      <trkpt lat="59.067885875701904" lon="30.02938985824585">
        <time>2026-04-25T07:57:10Z</time>
      </trkpt>
      <trkpt lat="59.067907333374023" lon="30.02938985824585">
        <time>2026-04-25T07:57:13Z</time>
      </trkpt>
      <trkpt lat="59.067907333374023" lon="30.029411315917969">
        <time>2026-04-25T07:57:15Z</time>
      </trkpt>
      <trkpt lat="59.067928791046143" lon="30.029411315917969">
        <time>2026-04-25T07:57:18Z</time>
      </trkpt>
      <trkpt lat="59.067950248718262" lon="30.029411315917969">
        <time>2026-04-25T07:57:20Z</time>
      </trkpt>
      <trkpt lat="59.0679931640625" lon="30.029411315917969">
        <time>2026-04-25T07:57:23Z</time>
      </trkpt>
      <trkpt lat="59.068057537078857" lon="30.02938985824585">
        <time>2026-04-25T07:57:25Z</time>
      </trkpt>
      <trkpt lat="59.068057537078857" lon="30.02938985824585">
        <time>2026-04-25T07:57:28Z</time>
      </trkpt>
      <trkpt lat="59.068036079406738" lon="30.02936840057373">
        <time>2026-04-25T07:57:30Z</time>
      </trkpt>
      <trkpt lat="59.068036079406738" lon="30.029346942901611">
        <time>2026-04-25T07:57:33Z</time>
      </trkpt>
      <trkpt lat="59.068036079406738" lon="30.029325485229492">
        <time>2026-04-25T07:57:35Z</time>
      </trkpt>
      <trkpt lat="59.068036079406738" lon="30.029325485229492">
        <time>2026-04-25T07:57:38Z</time>
      </trkpt>
      <trkpt lat="59.068014621734619" lon="30.029325485229492">
        <time>2026-04-25T07:57:40Z</time>
      </trkpt>
      <trkpt lat="59.068014621734619" lon="30.029304027557373">
        <time>2026-04-25T07:57:43Z</time>
      </trkpt>
      <trkpt lat="59.068014621734619" lon="30.029304027557373">
        <time>2026-04-25T07:57:45Z</time>
      </trkpt>
      <trkpt lat="59.068014621734619" lon="30.029304027557373">
        <time>2026-04-25T07:57:48Z</time>
      </trkpt>
      <trkpt lat="59.068036079406738" lon="30.029325485229492">
        <time>2026-04-25T07:57:50Z</time>
      </trkpt>
      <trkpt lat="59.068100452423096" lon="30.029325485229492">
        <time>2026-04-25T07:57:53Z</time>
      </trkpt>
      <trkpt lat="59.068186283111572" lon="30.029304027557373">
        <time>2026-04-25T07:57:55Z</time>
      </trkpt>
      <trkpt lat="59.06825065612793" lon="30.029304027557373">
        <time>2026-04-25T07:57:58Z</time>
      </trkpt>
      <trkpt lat="59.068336486816406" lon="30.029282569885254">
        <time>2026-04-25T07:58:00Z</time>
      </trkpt>
      <trkpt lat="59.068400859832764" lon="30.029261112213135">
        <time>2026-04-25T07:58:03Z</time>
      </trkpt>
      <trkpt lat="59.06848669052124" lon="30.029239654541016">
        <time>2026-04-25T07:58:05Z</time>
      </trkpt>
      <trkpt lat="59.068529605865479" lon="30.029218196868896">
        <time>2026-04-25T07:58:08Z</time>
      </trkpt>
      <trkpt lat="59.068593978881836" lon="30.029196739196777">
        <time>2026-04-25T07:58:10Z</time>
      </trkpt>
      <trkpt lat="59.068636894226074" lon="30.029196739196777">
        <time>2026-04-25T07:58:13Z</time>
      </trkpt>
      <trkpt lat="59.068679809570313" lon="30.029175281524658">
        <time>2026-04-25T07:58:15Z</time>
      </trkpt>
      <trkpt lat="59.068679809570313" lon="30.029196739196777">
        <time>2026-04-25T07:58:18Z</time>
      </trkpt>
      <trkpt lat="59.068679809570313" lon="30.029196739196777">
        <time>2026-04-25T07:58:20Z</time>
      </trkpt>
      <trkpt lat="59.068679809570313" lon="30.029196739196777">
        <time>2026-04-25T07:58:23Z</time>
      </trkpt>
      <trkpt lat="59.068679809570313" lon="30.029196739196777">
        <time>2026-04-25T07:58:25Z</time>
      </trkpt>
      <trkpt lat="59.068679809570313" lon="30.029196739196777">
        <time>2026-04-25T07:58:28Z</time>
      </trkpt>
      <trkpt lat="59.06874418258667" lon="30.029153823852539">
        <time>2026-04-25T07:58:30Z</time>
      </trkpt>
      <trkpt lat="59.06874418258667" lon="30.029153823852539">
        <time>2026-04-25T07:58:33Z</time>
      </trkpt>
      <trkpt lat="59.068808555603027" lon="30.029110908508301">
        <time>2026-04-25T07:58:35Z</time>
      </trkpt>
      <trkpt lat="59.068808555603027" lon="30.02913236618042">
        <time>2026-04-25T07:58:38Z</time>
      </trkpt>
      <trkpt lat="59.068830013275146" lon="30.02913236618042">
        <time>2026-04-25T07:58:40Z</time>
      </trkpt>
      <trkpt lat="59.068872928619385" lon="30.02913236618042">
        <time>2026-04-25T07:58:43Z</time>
      </trkpt>
      <trkpt lat="59.068937301635742" lon="30.029110908508301">
        <time>2026-04-25T07:58:45Z</time>
      </trkpt>
      <trkpt lat="59.069023132324219" lon="30.029110908508301">
        <time>2026-04-25T07:58:48Z</time>
      </trkpt>
      <trkpt lat="59.069130420684814" lon="30.029067993164062">
        <time>2026-04-25T07:58:50Z</time>
      </trkpt>
      <trkpt lat="59.06923770904541" lon="30.029046535491943">
        <time>2026-04-25T07:58:53Z</time>
      </trkpt>
      <trkpt lat="59.069366455078125" lon="30.028982162475586">
        <time>2026-04-25T07:58:55Z</time>
      </trkpt>
      <trkpt lat="59.069409370422363" lon="30.028960704803467">
        <time>2026-04-25T07:58:58Z</time>
      </trkpt>
      <trkpt lat="59.069387912750244" lon="30.028939247131348">
        <time>2026-04-25T07:59:00Z</time>
      </trkpt>
      <trkpt lat="59.069344997406006" lon="30.028939247131348">
        <time>2026-04-25T07:59:03Z</time>
      </trkpt>
      <trkpt lat="59.06923770904541" lon="30.028960704803467">
        <time>2026-04-25T07:59:05Z</time>
      </trkpt>
      <trkpt lat="59.069173336029053" lon="30.028982162475586">
        <time>2026-04-25T07:59:08Z</time>
      </trkpt>
      <trkpt lat="59.069130420684814" lon="30.028982162475586">
        <time>2026-04-25T07:59:10Z</time>
      </trkpt>
      <trkpt lat="59.069173336029053" lon="30.028960704803467">
        <time>2026-04-25T07:59:13Z</time>
      </trkpt>
      <trkpt lat="59.069216251373291" lon="30.028917789459229">
        <time>2026-04-25T07:59:15Z</time>
      </trkpt>
      <trkpt lat="59.069216251373291" lon="30.028917789459229">
        <time>2026-04-25T07:59:18Z</time>
      </trkpt>
      <trkpt lat="59.069216251373291" lon="30.028939247131348">
        <time>2026-04-25T07:59:20Z</time>
      </trkpt>
      <trkpt lat="59.06923770904541" lon="30.028939247131348">
        <time>2026-04-25T07:59:23Z</time>
      </trkpt>
      <trkpt lat="59.069216251373291" lon="30.028960704803467">
        <time>2026-04-25T07:59:25Z</time>
      </trkpt>
      <trkpt lat="59.069216251373291" lon="30.028939247131348">
        <time>2026-04-25T07:59:28Z</time>
      </trkpt>
      <trkpt lat="59.069216251373291" lon="30.028982162475586">
        <time>2026-04-25T07:59:30Z</time>
      </trkpt>
      <trkpt lat="59.069280624389648" lon="30.028982162475586">
        <time>2026-04-25T07:59:33Z</time>
      </trkpt>
      <trkpt lat="59.069409370422363" lon="30.028939247131348">
        <time>2026-04-25T07:59:35Z</time>
      </trkpt>
      <trkpt lat="59.06949520111084" lon="30.028896331787109">
        <time>2026-04-25T07:59:38Z</time>
      </trkpt>
      <trkpt lat="59.069623947143555" lon="30.028831958770752">
        <time>2026-04-25T07:59:40Z</time>
      </trkpt>
      <trkpt lat="59.06975269317627" lon="30.028767585754395">
        <time>2026-04-25T07:59:45Z</time>
      </trkpt>
      <trkpt lat="59.069795608520508" lon="30.028746128082275">
        <time>2026-04-25T07:59:48Z</time>
      </trkpt>
      <trkpt lat="59.069838523864746" lon="30.028746128082275">
        <time>2026-04-25T07:59:50Z</time>
      </trkpt>
      <trkpt lat="59.069859981536865" lon="30.028703212738037">
        <time>2026-04-25T07:59:53Z</time>
      </trkpt>
      <trkpt lat="59.069881439208984" lon="30.028681755065918">
        <time>2026-04-25T07:59:55Z</time>
      </trkpt>
      <trkpt lat="59.069902896881104" lon="30.028660297393799">
        <time>2026-04-25T07:59:58Z</time>
      </trkpt>
      <trkpt lat="59.069902896881104" lon="30.028660297393799">
        <time>2026-04-25T08:00:00Z</time>
      </trkpt>
      <trkpt lat="59.069902896881104" lon="30.028660297393799">
        <time>2026-04-25T08:00:03Z</time>
      </trkpt>
      <trkpt lat="59.069902896881104" lon="30.028660297393799">
        <time>2026-04-25T08:00:05Z</time>
      </trkpt>
      <trkpt lat="59.069902896881104" lon="30.028660297393799">
        <time>2026-04-25T08:00:08Z</time>
      </trkpt>
      <trkpt lat="59.069902896881104" lon="30.028660297393799">
        <time>2026-04-25T08:00:10Z</time>
      </trkpt>
      <trkpt lat="59.069902896881104" lon="30.028660297393799">
        <time>2026-04-25T08:00:13Z</time>
      </trkpt>
      <trkpt lat="59.069945812225342" lon="30.028660297393799">
        <time>2026-04-25T08:00:15Z</time>
      </trkpt>
      <trkpt lat="59.06998872756958" lon="30.028660297393799">
        <time>2026-04-25T08:00:18Z</time>
      </trkpt>
      <trkpt lat="59.070138931274414" lon="30.02863883972168">
        <time>2026-04-25T08:00:20Z</time>
      </trkpt>
      <trkpt lat="59.070267677307129" lon="30.028595924377441">
        <time>2026-04-25T08:00:23Z</time>
      </trkpt>
      <trkpt lat="59.070417881011963" lon="30.028574466705322">
        <time>2026-04-25T08:00:25Z</time>
      </trkpt>
      <trkpt lat="59.070503711700439" lon="30.028553009033203">
        <time>2026-04-25T08:00:28Z</time>
      </trkpt>
      <trkpt lat="59.070396423339844" lon="30.028595924377441">
        <time>2026-04-25T08:00:30Z</time>
      </trkpt>
      <trkpt lat="59.070267677307129" lon="30.02863883972168">
        <time>2026-04-25T08:00:33Z</time>
      </trkpt>
      <trkpt lat="59.070160388946533" lon="30.028681755065918">
        <time>2026-04-25T08:00:35Z</time>
      </trkpt>
      <trkpt lat="59.070117473602295" lon="30.028681755065918">
        <time>2026-04-25T08:00:38Z</time>
      </trkpt>
      <trkpt lat="59.070203304290771" lon="30.028660297393799">
        <time>2026-04-25T08:00:40Z</time>
      </trkpt>
      <trkpt lat="59.070267677307129" lon="30.028660297393799">
        <time>2026-04-25T08:00:43Z</time>
      </trkpt>
      <trkpt lat="59.070332050323486" lon="30.028617382049561">
        <time>2026-04-25T08:00:45Z</time>
      </trkpt>
      <trkpt lat="59.070353507995605" lon="30.028617382049561">
        <time>2026-04-25T08:00:48Z</time>
      </trkpt>
      <trkpt lat="59.070396423339844" lon="30.028595924377441">
        <time>2026-04-25T08:00:50Z</time>
      </trkpt>
      <trkpt lat="59.070417881011963" lon="30.028574466705322">
        <time>2026-04-25T08:00:53Z</time>
      </trkpt>
      <trkpt lat="59.070417881011963" lon="30.028553009033203">
        <time>2026-04-25T08:00:55Z</time>
      </trkpt>
      <trkpt lat="59.070439338684082" lon="30.028553009033203">
        <time>2026-04-25T08:00:58Z</time>
      </trkpt>
      <trkpt lat="59.070503711700439" lon="30.028553009033203">
        <time>2026-04-25T08:01:00Z</time>
      </trkpt>
      <trkpt lat="59.070546627044678" lon="30.028531551361084">
        <time>2026-04-25T08:01:03Z</time>
      </trkpt>
      <trkpt lat="59.070568084716797" lon="30.028553009033203">
        <time>2026-04-25T08:01:05Z</time>
      </trkpt>
      <trkpt lat="59.070632457733154" lon="30.028531551361084">
        <time>2026-04-25T08:01:08Z</time>
      </trkpt>
      <trkpt lat="59.070804119110107" lon="30.028467178344727">
        <time>2026-04-25T08:01:10Z</time>
      </trkpt>
      <trkpt lat="59.070932865142822" lon="30.028402805328369">
        <time>2026-04-25T08:01:13Z</time>
      </trkpt>
      <trkpt lat="59.071147441864014" lon="30.028316974639893">
        <time>2026-04-25T08:01:15Z</time>
      </trkpt>
      <trkpt lat="59.07123327255249" lon="30.028295516967773">
        <time>2026-04-25T08:01:18Z</time>
      </trkpt>
      <trkpt lat="59.071276187896729" lon="30.028252601623535">
        <time>2026-04-25T08:01:20Z</time>
      </trkpt>
      <trkpt lat="59.071211814880371" lon="30.028274059295654">
        <time>2026-04-25T08:01:23Z</time>
      </trkpt>
      <trkpt lat="59.071018695831299" lon="30.028359889984131">
        <time>2026-04-25T08:01:25Z</time>
      </trkpt>
      <trkpt lat="59.070889949798584" lon="30.028402805328369">
        <time>2026-04-25T08:01:28Z</time>
      </trkpt>
      <trkpt lat="59.070804119110107" lon="30.028402805328369">
        <time>2026-04-25T08:01:30Z</time>
      </trkpt>
      <trkpt lat="59.070868492126465" lon="30.028402805328369">
        <time>2026-04-25T08:01:33Z</time>
      </trkpt>
      <trkpt lat="59.070954322814941" lon="30.028359889984131">
        <time>2026-04-25T08:01:35Z</time>
      </trkpt>
      <trkpt lat="59.070954322814941" lon="30.028359889984131">
        <time>2026-04-25T08:01:38Z</time>
      </trkpt>
      <trkpt lat="59.07099723815918" lon="30.028359889984131">
        <time>2026-04-25T08:01:40Z</time>
      </trkpt>
      <trkpt lat="59.07099723815918" lon="30.028359889984131">
        <time>2026-04-25T08:01:43Z</time>
      </trkpt>
      <trkpt lat="59.07099723815918" lon="30.028338432312012">
        <time>2026-04-25T08:01:45Z</time>
      </trkpt>
      <trkpt lat="59.07099723815918" lon="30.028338432312012">
        <time>2026-04-25T08:01:48Z</time>
      </trkpt>
      <trkpt lat="59.07099723815918" lon="30.028338432312012">
        <time>2026-04-25T08:01:50Z</time>
      </trkpt>
      <trkpt lat="59.07099723815918" lon="30.028338432312012">
        <time>2026-04-25T08:01:53Z</time>
      </trkpt>
      <trkpt lat="59.07099723815918" lon="30.028338432312012">
        <time>2026-04-25T08:01:55Z</time>
      </trkpt>
      <trkpt lat="59.071061611175537" lon="30.028316974639893">
        <time>2026-04-25T08:01:58Z</time>
      </trkpt>
      <trkpt lat="59.071147441864014" lon="30.028274059295654">
        <time>2026-04-25T08:02:00Z</time>
      </trkpt>
      <trkpt lat="59.071168899536133" lon="30.028295516967773">
        <time>2026-04-25T08:02:03Z</time>
      </trkpt>
      <trkpt lat="59.071168899536133" lon="30.028274059295654">
        <time>2026-04-25T08:02:05Z</time>
      </trkpt>
      <trkpt lat="59.071168899536133" lon="30.028252601623535">
        <time>2026-04-25T08:02:08Z</time>
      </trkpt>
      <trkpt lat="59.071190357208252" lon="30.028252601623535">
        <time>2026-04-25T08:02:10Z</time>
      </trkpt>
      <trkpt lat="59.071211814880371" lon="30.028252601623535">
        <time>2026-04-25T08:02:13Z</time>
      </trkpt>
      <trkpt lat="59.07123327255249" lon="30.028231143951416">
        <time>2026-04-25T08:02:15Z</time>
      </trkpt>
      <trkpt lat="59.07123327255249" lon="30.028231143951416">
        <time>2026-04-25T08:02:18Z</time>
      </trkpt>
      <trkpt lat="59.071254730224609" lon="30.028231143951416">
        <time>2026-04-25T08:02:20Z</time>
      </trkpt>
      <trkpt lat="59.071276187896729" lon="30.028231143951416">
        <time>2026-04-25T08:02:23Z</time>
      </trkpt>
      <trkpt lat="59.071319103240967" lon="30.028209686279297">
        <time>2026-04-25T08:02:25Z</time>
      </trkpt>
      <trkpt lat="59.071383476257324" lon="30.028209686279297">
        <time>2026-04-25T08:02:28Z</time>
      </trkpt>
      <trkpt lat="59.07149076461792" lon="30.028166770935059">
        <time>2026-04-25T08:02:30Z</time>
      </trkpt>
      <trkpt lat="59.071555137634277" lon="30.028166770935059">
        <time>2026-04-25T08:02:33Z</time>
      </trkpt>
      <trkpt lat="59.071598052978516" lon="30.028145313262939">
        <time>2026-04-25T08:02:35Z</time>
      </trkpt>
      <trkpt lat="59.071619510650635" lon="30.028145313262939">
        <time>2026-04-25T08:02:38Z</time>
      </trkpt>
      <trkpt lat="59.071640968322754" lon="30.02812385559082">
        <time>2026-04-25T08:02:40Z</time>
      </trkpt>
      <trkpt lat="59.071640968322754" lon="30.02812385559082">
        <time>2026-04-25T08:02:43Z</time>
      </trkpt>
      <trkpt lat="59.071662425994873" lon="30.02812385559082">
        <time>2026-04-25T08:02:45Z</time>
      </trkpt>
      <trkpt lat="59.071662425994873" lon="30.02812385559082">
        <time>2026-04-25T08:02:48Z</time>
      </trkpt>
      <trkpt lat="59.071662425994873" lon="30.02812385559082">
        <time>2026-04-25T08:02:50Z</time>
      </trkpt>
      <trkpt lat="59.071662425994873" lon="30.02812385559082">
        <time>2026-04-25T08:02:53Z</time>
      </trkpt>
      <trkpt lat="59.071662425994873" lon="30.02812385559082">
        <time>2026-04-25T08:02:55Z</time>
      </trkpt>
      <trkpt lat="59.071662425994873" lon="30.02812385559082">
        <time>2026-04-25T08:02:58Z</time>
      </trkpt>
      <trkpt lat="59.071683883666992" lon="30.028102397918701">
        <time>2026-04-25T08:03:00Z</time>
      </trkpt>
      <trkpt lat="59.07172679901123" lon="30.028080940246582">
        <time>2026-04-25T08:03:03Z</time>
      </trkpt>
      <trkpt lat="59.071769714355469" lon="30.028059482574463">
        <time>2026-04-25T08:03:05Z</time>
      </trkpt>
      <trkpt lat="59.071791172027588" lon="30.028059482574463">
        <time>2026-04-25T08:03:08Z</time>
      </trkpt>
      <trkpt lat="59.071855545043945" lon="30.028038024902344">
        <time>2026-04-25T08:03:10Z</time>
      </trkpt>
      <trkpt lat="59.071877002716064" lon="30.028016567230225">
        <time>2026-04-25T08:03:13Z</time>
      </trkpt>
      <trkpt lat="59.071919918060303" lon="30.028016567230225">
        <time>2026-04-25T08:03:15Z</time>
      </trkpt>
      <trkpt lat="59.07198429107666" lon="30.027995109558105">
        <time>2026-04-25T08:03:18Z</time>
      </trkpt>
      <trkpt lat="59.072005748748779" lon="30.027995109558105">
        <time>2026-04-25T08:03:20Z</time>
      </trkpt>
      <trkpt lat="59.072027206420898" lon="30.027995109558105">
        <time>2026-04-25T08:03:23Z</time>
      </trkpt>
      <trkpt lat="59.072048664093018" lon="30.027973651885986">
        <time>2026-04-25T08:03:25Z</time>
      </trkpt>
      <trkpt lat="59.072070121765137" lon="30.027973651885986">
        <time>2026-04-25T08:03:28Z</time>
      </trkpt>
      <trkpt lat="59.072113037109375" lon="30.027973651885986">
        <time>2026-04-25T08:03:30Z</time>
      </trkpt>
      <trkpt lat="59.072155952453613" lon="30.028016567230225">
        <time>2026-04-25T08:03:33Z</time>
      </trkpt>
      <trkpt lat="59.072177410125732" lon="30.028016567230225">
        <time>2026-04-25T08:03:35Z</time>
      </trkpt>
      <trkpt lat="59.072198867797852" lon="30.028016567230225">
        <time>2026-04-25T08:03:38Z</time>
      </trkpt>
      <trkpt lat="59.072220325469971" lon="30.028016567230225">
        <time>2026-04-25T08:03:40Z</time>
      </trkpt>
      <trkpt lat="59.072220325469971" lon="30.028016567230225">
        <time>2026-04-25T08:03:43Z</time>
      </trkpt>
      <trkpt lat="59.072220325469971" lon="30.027995109558105">
        <time>2026-04-25T08:03:45Z</time>
      </trkpt>
      <trkpt lat="59.07224178314209" lon="30.027973651885986">
        <time>2026-04-25T08:03:48Z</time>
      </trkpt>
      <trkpt lat="59.072306156158447" lon="30.027930736541748">
        <time>2026-04-25T08:03:50Z</time>
      </trkpt>
      <trkpt lat="59.072306156158447" lon="30.027930736541748">
        <time>2026-04-25T08:03:53Z</time>
      </trkpt>
      <trkpt lat="59.072327613830566" lon="30.027909278869629">
        <time>2026-04-25T08:03:55Z</time>
      </trkpt>
      <trkpt lat="59.072349071502686" lon="30.027909278869629">
        <time>2026-04-25T08:03:58Z</time>
      </trkpt>
      <trkpt lat="59.072349071502686" lon="30.027930736541748">
        <time>2026-04-25T08:04:00Z</time>
      </trkpt>
      <trkpt lat="59.072370529174805" lon="30.027930736541748">
        <time>2026-04-25T08:04:03Z</time>
      </trkpt>
      <trkpt lat="59.072391986846924" lon="30.027930736541748">
        <time>2026-04-25T08:04:05Z</time>
      </trkpt>
      <trkpt lat="59.072413444519043" lon="30.02788782119751">
        <time>2026-04-25T08:04:08Z</time>
      </trkpt>
      <trkpt lat="59.072456359863281" lon="30.027866363525391">
        <time>2026-04-25T08:04:10Z</time>
      </trkpt>
      <trkpt lat="59.07249927520752" lon="30.027823448181152">
        <time>2026-04-25T08:04:13Z</time>
      </trkpt>
      <trkpt lat="59.072520732879639" lon="30.027801990509033">
        <time>2026-04-25T08:04:15Z</time>
      </trkpt>
      <trkpt lat="59.072585105895996" lon="30.027801990509033">
        <time>2026-04-25T08:04:18Z</time>
      </trkpt>
      <trkpt lat="59.072692394256592" lon="30.027737617492676">
        <time>2026-04-25T08:04:20Z</time>
      </trkpt>
      <trkpt lat="59.07273530960083" lon="30.027737617492676">
        <time>2026-04-25T08:04:23Z</time>
      </trkpt>
      <trkpt lat="59.07273530960083" lon="30.027780532836914">
        <time>2026-04-25T08:04:25Z</time>
      </trkpt>
      <trkpt lat="59.07273530960083" lon="30.027801990509033">
        <time>2026-04-25T08:04:28Z</time>
      </trkpt>
      <trkpt lat="59.07273530960083" lon="30.027780532836914">
        <time>2026-04-25T08:04:30Z</time>
      </trkpt>
      <trkpt lat="59.07273530960083" lon="30.027780532836914">
        <time>2026-04-25T08:04:33Z</time>
      </trkpt>
      <trkpt lat="59.072756767272949" lon="30.027801990509033">
        <time>2026-04-25T08:04:35Z</time>
      </trkpt>
      <trkpt lat="59.072756767272949" lon="30.027801990509033">
        <time>2026-04-25T08:04:38Z</time>
      </trkpt>
      <trkpt lat="59.072756767272949" lon="30.027844905853271">
        <time>2026-04-25T08:04:40Z</time>
      </trkpt>
      <trkpt lat="59.072756767272949" lon="30.027844905853271">
        <time>2026-04-25T08:04:43Z</time>
      </trkpt>
      <trkpt lat="59.072756767272949" lon="30.027844905853271">
        <time>2026-04-25T08:04:45Z</time>
      </trkpt>
      <trkpt lat="59.07273530960083" lon="30.027844905853271">
        <time>2026-04-25T08:04:48Z</time>
      </trkpt>
      <trkpt lat="59.072778224945068" lon="30.027801990509033">
        <time>2026-04-25T08:04:50Z</time>
      </trkpt>
      <trkpt lat="59.072821140289307" lon="30.027759075164795">
        <time>2026-04-25T08:04:53Z</time>
      </trkpt>
      <trkpt lat="59.072864055633545" lon="30.027737617492676">
        <time>2026-04-25T08:04:55Z</time>
      </trkpt>
      <trkpt lat="59.072885513305664" lon="30.027737617492676">
        <time>2026-04-25T08:04:58Z</time>
      </trkpt>
      <trkpt lat="59.072885513305664" lon="30.027716159820557">
        <time>2026-04-25T08:05:00Z</time>
      </trkpt>
      <trkpt lat="59.072906970977783" lon="30.027694702148438">
        <time>2026-04-25T08:05:03Z</time>
      </trkpt>
      <trkpt lat="59.072928428649902" lon="30.027694702148438">
        <time>2026-04-25T08:05:05Z</time>
      </trkpt>
      <trkpt lat="59.072949886322021" lon="30.027673244476318">
        <time>2026-04-25T08:05:08Z</time>
      </trkpt>
      <trkpt lat="59.073014259338379" lon="30.02763032913208">
        <time>2026-04-25T08:05:10Z</time>
      </trkpt>
      <trkpt lat="59.073035717010498" lon="30.027587413787842">
        <time>2026-04-25T08:05:13Z</time>
      </trkpt>
      <trkpt lat="59.073057174682617" lon="30.027587413787842">
        <time>2026-04-25T08:05:15Z</time>
      </trkpt>
      <trkpt lat="59.073057174682617" lon="30.027587413787842">
        <time>2026-04-25T08:05:18Z</time>
      </trkpt>
      <trkpt lat="59.073057174682617" lon="30.027587413787842">
        <time>2026-04-25T08:05:20Z</time>
      </trkpt>
      <trkpt lat="59.073057174682617" lon="30.027608871459961">
        <time>2026-04-25T08:05:23Z</time>
      </trkpt>
      <trkpt lat="59.073078632354736" lon="30.02763032913208">
        <time>2026-04-25T08:05:25Z</time>
      </trkpt>
      <trkpt lat="59.073057174682617" lon="30.027651786804199">
        <time>2026-04-25T08:05:28Z</time>
      </trkpt>
      <trkpt lat="59.073035717010498" lon="30.027608871459961">
        <time>2026-04-25T08:05:30Z</time>
      </trkpt>
      <trkpt lat="59.073035717010498" lon="30.027587413787842">
        <time>2026-04-25T08:05:33Z</time>
      </trkpt>
      <trkpt lat="59.073078632354736" lon="30.027544498443604">
        <time>2026-04-25T08:05:35Z</time>
      </trkpt>
      <trkpt lat="59.073078632354736" lon="30.027544498443604">
        <time>2026-04-25T08:05:38Z</time>
      </trkpt>
      <trkpt lat="59.073078632354736" lon="30.027587413787842">
        <time>2026-04-25T08:05:40Z</time>
      </trkpt>
      <trkpt lat="59.073078632354736" lon="30.027587413787842">
        <time>2026-04-25T08:05:43Z</time>
      </trkpt>
      <trkpt lat="59.073078632354736" lon="30.027565956115723">
        <time>2026-04-25T08:05:45Z</time>
      </trkpt>
      <trkpt lat="59.073078632354736" lon="30.027565956115723">
        <time>2026-04-25T08:05:48Z</time>
      </trkpt>
      <trkpt lat="59.073078632354736" lon="30.027565956115723">
        <time>2026-04-25T08:05:50Z</time>
      </trkpt>
      <trkpt lat="59.073078632354736" lon="30.027565956115723">
        <time>2026-04-25T08:05:53Z</time>
      </trkpt>
      <trkpt lat="59.073078632354736" lon="30.027565956115723">
        <time>2026-04-25T08:05:55Z</time>
      </trkpt>
      <trkpt lat="59.073078632354736" lon="30.027565956115723">
        <time>2026-04-25T08:05:58Z</time>
      </trkpt>
      <trkpt lat="59.073078632354736" lon="30.027565956115723">
        <time>2026-04-25T08:06:00Z</time>
      </trkpt>
      <trkpt lat="59.073078632354736" lon="30.027544498443604">
        <time>2026-04-25T08:06:03Z</time>
      </trkpt>
      <trkpt lat="59.073100090026855" lon="30.027523040771484">
        <time>2026-04-25T08:06:05Z</time>
      </trkpt>
      <trkpt lat="59.073100090026855" lon="30.027501583099365">
        <time>2026-04-25T08:06:08Z</time>
      </trkpt>
      <trkpt lat="59.073078632354736" lon="30.027501583099365">
        <time>2026-04-25T08:06:10Z</time>
      </trkpt>
      <trkpt lat="59.073078632354736" lon="30.027480125427246">
        <time>2026-04-25T08:06:13Z</time>
      </trkpt>
      <trkpt lat="59.073078632354736" lon="30.027480125427246">
        <time>2026-04-25T08:06:15Z</time>
      </trkpt>
      <trkpt lat="59.073078632354736" lon="30.027480125427246">
        <time>2026-04-25T08:06:18Z</time>
      </trkpt>
      <trkpt lat="59.073078632354736" lon="30.027458667755127">
        <time>2026-04-25T08:06:20Z</time>
      </trkpt>
      <trkpt lat="59.073078632354736" lon="30.027437210083008">
        <time>2026-04-25T08:06:23Z</time>
      </trkpt>
      <trkpt lat="59.073057174682617" lon="30.02739429473877">
        <time>2026-04-25T08:06:25Z</time>
      </trkpt>
      <trkpt lat="59.073057174682617" lon="30.02739429473877">
        <time>2026-04-25T08:06:28Z</time>
      </trkpt>
      <trkpt lat="59.073057174682617" lon="30.027329921722412">
        <time>2026-04-25T08:06:30Z</time>
      </trkpt>
      <trkpt lat="59.073057174682617" lon="30.027287006378174">
        <time>2026-04-25T08:06:33Z</time>
      </trkpt>
      <trkpt lat="59.073057174682617" lon="30.027244091033936">
        <time>2026-04-25T08:06:35Z</time>
      </trkpt>
      <trkpt lat="59.073057174682617" lon="30.027222633361816">
        <time>2026-04-25T08:06:38Z</time>
      </trkpt>
      <trkpt lat="59.073035717010498" lon="30.02713680267334">
        <time>2026-04-25T08:06:40Z</time>
      </trkpt>
      <trkpt lat="59.073035717010498" lon="30.027093887329102">
        <time>2026-04-25T08:06:43Z</time>
      </trkpt>
      <trkpt lat="59.073035717010498" lon="30.027029514312744">
        <time>2026-04-25T08:06:45Z</time>
      </trkpt>
      <trkpt lat="59.073014259338379" lon="30.026943683624268">
        <time>2026-04-25T08:06:48Z</time>
      </trkpt>
      <trkpt lat="59.073014259338379" lon="30.02687931060791">
        <time>2026-04-25T08:06:50Z</time>
      </trkpt>
      <trkpt lat="59.073014259338379" lon="30.02687931060791">
        <time>2026-04-25T08:06:53Z</time>
      </trkpt>
      <trkpt lat="59.07299280166626" lon="30.026814937591553">
        <time>2026-04-25T08:06:55Z</time>
      </trkpt>
      <trkpt lat="59.07299280166626" lon="30.026772022247314">
        <time>2026-04-25T08:06:58Z</time>
      </trkpt>
      <trkpt lat="59.07299280166626" lon="30.026729106903076">
        <time>2026-04-25T08:07:00Z</time>
      </trkpt>
      <trkpt lat="59.07299280166626" lon="30.026707649230957">
        <time>2026-04-25T08:07:03Z</time>
      </trkpt>
      <trkpt lat="59.07299280166626" lon="30.026600360870361">
        <time>2026-04-25T08:07:05Z</time>
      </trkpt>
      <trkpt lat="59.07299280166626" lon="30.026578903198242">
        <time>2026-04-25T08:07:08Z</time>
      </trkpt>
      <trkpt lat="59.07299280166626" lon="30.026557445526123">
        <time>2026-04-25T08:07:10Z</time>
      </trkpt>
      <trkpt lat="59.07299280166626" lon="30.026535987854004">
        <time>2026-04-25T08:07:13Z</time>
      </trkpt>
      <trkpt lat="59.072971343994141" lon="30.026428699493408">
        <time>2026-04-25T08:07:15Z</time>
      </trkpt>
      <trkpt lat="59.072971343994141" lon="30.02638578414917">
        <time>2026-04-25T08:07:18Z</time>
      </trkpt>
      <trkpt lat="59.07299280166626" lon="30.02638578414917">
        <time>2026-04-25T08:07:20Z</time>
      </trkpt>
      <trkpt lat="59.072971343994141" lon="30.02638578414917">
        <time>2026-04-25T08:07:23Z</time>
      </trkpt>
      <trkpt lat="59.072949886322021" lon="30.026321411132813">
        <time>2026-04-25T08:07:25Z</time>
      </trkpt>
      <trkpt lat="59.072949886322021" lon="30.026214122772217">
        <time>2026-04-25T08:07:28Z</time>
      </trkpt>
      <trkpt lat="59.072949886322021" lon="30.026214122772217">
        <time>2026-04-25T08:07:30Z</time>
      </trkpt>
      <trkpt lat="59.072928428649902" lon="30.026171207427979">
        <time>2026-04-25T08:07:33Z</time>
      </trkpt>
      <trkpt lat="59.072928428649902" lon="30.026063919067383">
        <time>2026-04-25T08:07:35Z</time>
      </trkpt>
      <trkpt lat="59.072928428649902" lon="30.025978088378906">
        <time>2026-04-25T08:07:38Z</time>
      </trkpt>
      <trkpt lat="59.072928428649902" lon="30.02589225769043">
        <time>2026-04-25T08:07:40Z</time>
      </trkpt>
      <trkpt lat="59.072928428649902" lon="30.025849342346191">
        <time>2026-04-25T08:07:43Z</time>
      </trkpt>
      <trkpt lat="59.072928428649902" lon="30.025827884674072">
        <time>2026-04-25T08:07:45Z</time>
      </trkpt>
      <trkpt lat="59.072928428649902" lon="30.025806427001953">
        <time>2026-04-25T08:07:48Z</time>
      </trkpt>
      <trkpt lat="59.072906970977783" lon="30.025720596313477">
        <time>2026-04-25T08:07:50Z</time>
      </trkpt>
      <trkpt lat="59.072906970977783" lon="30.025656223297119">
        <time>2026-04-25T08:07:53Z</time>
      </trkpt>
      <trkpt lat="59.072885513305664" lon="30.025570392608643">
        <time>2026-04-25T08:07:55Z</time>
      </trkpt>
      <trkpt lat="59.072885513305664" lon="30.025527477264404">
        <time>2026-04-25T08:07:58Z</time>
      </trkpt>
      <trkpt lat="59.072885513305664" lon="30.025506019592285">
        <time>2026-04-25T08:08:00Z</time>
      </trkpt>
      <trkpt lat="59.072864055633545" lon="30.025506019592285">
        <time>2026-04-25T08:08:03Z</time>
      </trkpt>
      <trkpt lat="59.072864055633545" lon="30.025441646575928">
        <time>2026-04-25T08:08:05Z</time>
      </trkpt>
      <trkpt lat="59.072864055633545" lon="30.025398731231689">
        <time>2026-04-25T08:08:08Z</time>
      </trkpt>
      <trkpt lat="59.072842597961426" lon="30.025355815887451">
        <time>2026-04-25T08:08:10Z</time>
      </trkpt>
      <trkpt lat="59.072842597961426" lon="30.025334358215332">
        <time>2026-04-25T08:08:13Z</time>
      </trkpt>
      <trkpt lat="59.072821140289307" lon="30.025291442871094">
        <time>2026-04-25T08:08:15Z</time>
      </trkpt>
      <trkpt lat="59.072821140289307" lon="30.025291442871094">
        <time>2026-04-25T08:08:18Z</time>
      </trkpt>
      <trkpt lat="59.072821140289307" lon="30.025269985198975">
        <time>2026-04-25T08:08:20Z</time>
      </trkpt>
      <trkpt lat="59.072821140289307" lon="30.025248527526855">
        <time>2026-04-25T08:08:23Z</time>
      </trkpt>
      <trkpt lat="59.072821140289307" lon="30.025162696838379">
        <time>2026-04-25T08:08:25Z</time>
      </trkpt>
      <trkpt lat="59.072821140289307" lon="30.025119781494141">
        <time>2026-04-25T08:08:28Z</time>
      </trkpt>
      <trkpt lat="59.072799682617187" lon="30.025119781494141">
        <time>2026-04-25T08:08:30Z</time>
      </trkpt>
      <trkpt lat="59.072799682617187" lon="30.025098323822021">
        <time>2026-04-25T08:08:33Z</time>
      </trkpt>
      <trkpt lat="59.072799682617187" lon="30.025012493133545">
        <time>2026-04-25T08:08:35Z</time>
      </trkpt>
      <trkpt lat="59.072799682617187" lon="30.024991035461426">
        <time>2026-04-25T08:08:38Z</time>
      </trkpt>
      <trkpt lat="59.072799682617187" lon="30.024969577789307">
        <time>2026-04-25T08:08:40Z</time>
      </trkpt>
      <trkpt lat="59.072778224945068" lon="30.024969577789307">
        <time>2026-04-25T08:08:43Z</time>
      </trkpt>
      <trkpt lat="59.072756767272949" lon="30.024948120117188">
        <time>2026-04-25T08:08:45Z</time>
      </trkpt>
      <trkpt lat="59.072756767272949" lon="30.024948120117188">
        <time>2026-04-25T08:08:48Z</time>
      </trkpt>
      <trkpt lat="59.072756767272949" lon="30.024926662445068">
        <time>2026-04-25T08:08:50Z</time>
      </trkpt>
      <trkpt lat="59.072756767272949" lon="30.024926662445068">
        <time>2026-04-25T08:08:53Z</time>
      </trkpt>
      <trkpt lat="59.07273530960083" lon="30.024840831756592">
        <time>2026-04-25T08:08:55Z</time>
      </trkpt>
      <trkpt lat="59.07273530960083" lon="30.024776458740234">
        <time>2026-04-25T08:08:58Z</time>
      </trkpt>
      <trkpt lat="59.07273530960083" lon="30.024712085723877">
        <time>2026-04-25T08:09:00Z</time>
      </trkpt>
      <trkpt lat="59.07273530960083" lon="30.024690628051758">
        <time>2026-04-25T08:09:03Z</time>
      </trkpt>
      <trkpt lat="59.072713851928711" lon="30.024604797363281">
        <time>2026-04-25T08:09:05Z</time>
      </trkpt>
      <trkpt lat="59.072692394256592" lon="30.024604797363281">
        <time>2026-04-25T08:09:08Z</time>
      </trkpt>
      <trkpt lat="59.072692394256592" lon="30.024561882019043">
        <time>2026-04-25T08:09:10Z</time>
      </trkpt>
      <trkpt lat="59.072692394256592" lon="30.024518966674805">
        <time>2026-04-25T08:09:13Z</time>
      </trkpt>
      <trkpt lat="59.072692394256592" lon="30.024433135986328">
        <time>2026-04-25T08:09:15Z</time>
      </trkpt>
      <trkpt lat="59.072713851928711" lon="30.024411678314209">
        <time>2026-04-25T08:09:18Z</time>
      </trkpt>
      <trkpt lat="59.072692394256592" lon="30.024411678314209">
        <time>2026-04-25T08:09:20Z</time>
      </trkpt>
      <trkpt lat="59.072692394256592" lon="30.024411678314209">
        <time>2026-04-25T08:09:23Z</time>
      </trkpt>
      <trkpt lat="59.072670936584473" lon="30.024411678314209">
        <time>2026-04-25T08:09:25Z</time>
      </trkpt>
      <trkpt lat="59.072670936584473" lon="30.024411678314209">
        <time>2026-04-25T08:09:28Z</time>
      </trkpt>
      <trkpt lat="59.072670936584473" lon="30.024411678314209">
        <time>2026-04-25T08:09:30Z</time>
      </trkpt>
      <trkpt lat="59.072670936584473" lon="30.024411678314209">
        <time>2026-04-25T08:09:33Z</time>
      </trkpt>
      <trkpt lat="59.072670936584473" lon="30.024411678314209">
        <time>2026-04-25T08:09:35Z</time>
      </trkpt>
      <trkpt lat="59.072670936584473" lon="30.024411678314209">
        <time>2026-04-25T08:09:38Z</time>
      </trkpt>
      <trkpt lat="59.072670936584473" lon="30.024433135986328">
        <time>2026-04-25T08:09:40Z</time>
      </trkpt>
      <trkpt lat="59.072670936584473" lon="30.02439022064209">
        <time>2026-04-25T08:09:43Z</time>
      </trkpt>
      <trkpt lat="59.072670936584473" lon="30.024325847625732">
        <time>2026-04-25T08:09:45Z</time>
      </trkpt>
      <trkpt lat="59.072670936584473" lon="30.024261474609375">
        <time>2026-04-25T08:09:48Z</time>
      </trkpt>
      <trkpt lat="59.072670936584473" lon="30.024175643920898">
        <time>2026-04-25T08:09:50Z</time>
      </trkpt>
      <trkpt lat="59.072670936584473" lon="30.02413272857666">
        <time>2026-04-25T08:09:53Z</time>
      </trkpt>
      <trkpt lat="59.072649478912354" lon="30.024068355560303">
        <time>2026-04-25T08:09:55Z</time>
      </trkpt>
      <trkpt lat="59.072628021240234" lon="30.024003982543945">
        <time>2026-04-25T08:09:58Z</time>
      </trkpt>
      <trkpt lat="59.072628021240234" lon="30.023939609527588">
        <time>2026-04-25T08:10:00Z</time>
      </trkpt>
      <trkpt lat="59.072628021240234" lon="30.02387523651123">
        <time>2026-04-25T08:10:03Z</time>
      </trkpt>
      <trkpt lat="59.072628021240234" lon="30.023810863494873">
        <time>2026-04-25T08:10:05Z</time>
      </trkpt>
      <trkpt lat="59.072628021240234" lon="30.023789405822754">
        <time>2026-04-25T08:10:08Z</time>
      </trkpt>
      <trkpt lat="59.072628021240234" lon="30.023746490478516">
        <time>2026-04-25T08:10:10Z</time>
      </trkpt>
      <trkpt lat="59.072628021240234" lon="30.023703575134277">
        <time>2026-04-25T08:10:13Z</time>
      </trkpt>
      <trkpt lat="59.072606563568115" lon="30.02363920211792">
        <time>2026-04-25T08:10:15Z</time>
      </trkpt>
      <trkpt lat="59.072606563568115" lon="30.023596286773682">
        <time>2026-04-25T08:10:18Z</time>
      </trkpt>
      <trkpt lat="59.072606563568115" lon="30.023596286773682">
        <time>2026-04-25T08:10:20Z</time>
      </trkpt>
      <trkpt lat="59.072606563568115" lon="30.023596286773682">
        <time>2026-04-25T08:10:23Z</time>
      </trkpt>
      <trkpt lat="59.072606563568115" lon="30.023531913757324">
        <time>2026-04-25T08:10:25Z</time>
      </trkpt>
      <trkpt lat="59.072585105895996" lon="30.023446083068848">
        <time>2026-04-25T08:10:28Z</time>
      </trkpt>
      <trkpt lat="59.072585105895996" lon="30.023360252380371">
        <time>2026-04-25T08:10:30Z</time>
      </trkpt>
      <trkpt lat="59.072563648223877" lon="30.023317337036133">
        <time>2026-04-25T08:10:33Z</time>
      </trkpt>
      <trkpt lat="59.072563648223877" lon="30.023274421691895">
        <time>2026-04-25T08:10:35Z</time>
      </trkpt>
      <trkpt lat="59.072563648223877" lon="30.023231506347656">
        <time>2026-04-25T08:10:38Z</time>
      </trkpt>
      <trkpt lat="59.072563648223877" lon="30.023167133331299">
        <time>2026-04-25T08:10:40Z</time>
      </trkpt>
      <trkpt lat="59.072563648223877" lon="30.023102760314941">
        <time>2026-04-25T08:10:43Z</time>
      </trkpt>
      <trkpt lat="59.072585105895996" lon="30.023016929626465">
        <time>2026-04-25T08:10:45Z</time>
      </trkpt>
      <trkpt lat="59.072585105895996" lon="30.022974014282227">
        <time>2026-04-25T08:10:48Z</time>
      </trkpt>
      <trkpt lat="59.072606563568115" lon="30.022909641265869">
        <time>2026-04-25T08:10:50Z</time>
      </trkpt>
      <trkpt lat="59.072606563568115" lon="30.022866725921631">
        <time>2026-04-25T08:10:53Z</time>
      </trkpt>
      <trkpt lat="59.072585105895996" lon="30.02288818359375">
        <time>2026-04-25T08:10:55Z</time>
      </trkpt>
      <trkpt lat="59.072585105895996" lon="30.02288818359375">
        <time>2026-04-25T08:10:58Z</time>
      </trkpt>
      <trkpt lat="59.072585105895996" lon="30.022845268249512">
        <time>2026-04-25T08:11:00Z</time>
      </trkpt>
      <trkpt lat="59.072585105895996" lon="30.022759437561035">
        <time>2026-04-25T08:11:03Z</time>
      </trkpt>
      <trkpt lat="59.072585105895996" lon="30.022673606872559">
        <time>2026-04-25T08:11:05Z</time>
      </trkpt>
      <trkpt lat="59.072585105895996" lon="30.022652149200439">
        <time>2026-04-25T08:11:08Z</time>
      </trkpt>
      <trkpt lat="59.072585105895996" lon="30.022609233856201">
        <time>2026-04-25T08:11:10Z</time>
      </trkpt>
      <trkpt lat="59.072606563568115" lon="30.022566318511963">
        <time>2026-04-25T08:11:13Z</time>
      </trkpt>
      <trkpt lat="59.072606563568115" lon="30.022523403167725">
        <time>2026-04-25T08:11:15Z</time>
      </trkpt>
      <trkpt lat="59.072606563568115" lon="30.022523403167725">
        <time>2026-04-25T08:11:18Z</time>
      </trkpt>
      <trkpt lat="59.072606563568115" lon="30.022523403167725">
        <time>2026-04-25T08:11:20Z</time>
      </trkpt>
      <trkpt lat="59.072585105895996" lon="30.022459030151367">
        <time>2026-04-25T08:11:23Z</time>
      </trkpt>
      <trkpt lat="59.072585105895996" lon="30.02239465713501">
        <time>2026-04-25T08:11:25Z</time>
      </trkpt>
      <trkpt lat="59.072585105895996" lon="30.022373199462891">
        <time>2026-04-25T08:11:28Z</time>
      </trkpt>
      <trkpt lat="59.072585105895996" lon="30.022373199462891">
        <time>2026-04-25T08:11:30Z</time>
      </trkpt>
      <trkpt lat="59.072585105895996" lon="30.022351741790771">
        <time>2026-04-25T08:11:33Z</time>
      </trkpt>
      <trkpt lat="59.072606563568115" lon="30.022308826446533">
        <time>2026-04-25T08:11:35Z</time>
      </trkpt>
      <trkpt lat="59.072606563568115" lon="30.022287368774414">
        <time>2026-04-25T08:11:38Z</time>
      </trkpt>
      <trkpt lat="59.072606563568115" lon="30.022287368774414">
        <time>2026-04-25T08:11:40Z</time>
      </trkpt>
      <trkpt lat="59.072606563568115" lon="30.022287368774414">
        <time>2026-04-25T08:11:43Z</time>
      </trkpt>
      <trkpt lat="59.072585105895996" lon="30.022308826446533">
        <time>2026-04-25T08:11:45Z</time>
      </trkpt>
      <trkpt lat="59.072585105895996" lon="30.022287368774414">
        <time>2026-04-25T08:11:48Z</time>
      </trkpt>
      <trkpt lat="59.072585105895996" lon="30.022244453430176">
        <time>2026-04-25T08:11:50Z</time>
      </trkpt>
      <trkpt lat="59.072585105895996" lon="30.022158622741699">
        <time>2026-04-25T08:11:53Z</time>
      </trkpt>
      <trkpt lat="59.072606563568115" lon="30.022051334381104">
        <time>2026-04-25T08:11:55Z</time>
      </trkpt>
      <trkpt lat="59.072606563568115" lon="30.022008419036865">
        <time>2026-04-25T08:11:58Z</time>
      </trkpt>
      <trkpt lat="59.072628021240234" lon="30.021986961364746">
        <time>2026-04-25T08:12:00Z</time>
      </trkpt>
      <trkpt lat="59.072628021240234" lon="30.021965503692627">
        <time>2026-04-25T08:12:03Z</time>
      </trkpt>
      <trkpt lat="59.072628021240234" lon="30.02187967300415">
        <time>2026-04-25T08:12:05Z</time>
      </trkpt>
      <trkpt lat="59.072628021240234" lon="30.021815299987793">
        <time>2026-04-25T08:12:08Z</time>
      </trkpt>
      <trkpt lat="59.072628021240234" lon="30.021772384643555">
        <time>2026-04-25T08:12:10Z</time>
      </trkpt>
      <trkpt lat="59.072628021240234" lon="30.021750926971436">
        <time>2026-04-25T08:12:13Z</time>
      </trkpt>
      <trkpt lat="59.072628021240234" lon="30.021708011627197">
        <time>2026-04-25T08:12:15Z</time>
      </trkpt>
      <trkpt lat="59.072628021240234" lon="30.021708011627197">
        <time>2026-04-25T08:12:18Z</time>
      </trkpt>
      <trkpt lat="59.072606563568115" lon="30.021686553955078">
        <time>2026-04-25T08:12:20Z</time>
      </trkpt>
      <trkpt lat="59.072628021240234" lon="30.021622180938721">
        <time>2026-04-25T08:12:23Z</time>
      </trkpt>
      <trkpt lat="59.072628021240234" lon="30.021493434906006">
        <time>2026-04-25T08:12:25Z</time>
      </trkpt>
      <trkpt lat="59.072628021240234" lon="30.021429061889648">
        <time>2026-04-25T08:12:28Z</time>
      </trkpt>
      <trkpt lat="59.072628021240234" lon="30.021364688873291">
        <time>2026-04-25T08:12:30Z</time>
      </trkpt>
      <trkpt lat="59.072649478912354" lon="30.021343231201172">
        <time>2026-04-25T08:12:33Z</time>
      </trkpt>
      <trkpt lat="59.072649478912354" lon="30.021343231201172">
        <time>2026-04-25T08:12:35Z</time>
      </trkpt>
      <trkpt lat="59.072649478912354" lon="30.021343231201172">
        <time>2026-04-25T08:12:38Z</time>
      </trkpt>
      <trkpt lat="59.072649478912354" lon="30.021343231201172">
        <time>2026-04-25T08:12:40Z</time>
      </trkpt>
      <trkpt lat="59.072628021240234" lon="30.021321773529053">
        <time>2026-04-25T08:12:43Z</time>
      </trkpt>
      <trkpt lat="59.072628021240234" lon="30.021214485168457">
        <time>2026-04-25T08:12:45Z</time>
      </trkpt>
      <trkpt lat="59.072628021240234" lon="30.021171569824219">
        <time>2026-04-25T08:12:48Z</time>
      </trkpt>
      <trkpt lat="59.072628021240234" lon="30.021107196807861">
        <time>2026-04-25T08:12:50Z</time>
      </trkpt>
      <trkpt lat="59.072649478912354" lon="30.021064281463623">
        <time>2026-04-25T08:12:53Z</time>
      </trkpt>
      <trkpt lat="59.072649478912354" lon="30.020999908447266">
        <time>2026-04-25T08:12:55Z</time>
      </trkpt>
      <trkpt lat="59.072649478912354" lon="30.020956993103027">
        <time>2026-04-25T08:12:58Z</time>
      </trkpt>
      <trkpt lat="59.072649478912354" lon="30.02089262008667">
        <time>2026-04-25T08:13:00Z</time>
      </trkpt>
      <trkpt lat="59.072670936584473" lon="30.020828247070313">
        <time>2026-04-25T08:13:03Z</time>
      </trkpt>
      <trkpt lat="59.072670936584473" lon="30.020742416381836">
        <time>2026-04-25T08:13:05Z</time>
      </trkpt>
      <trkpt lat="59.072670936584473" lon="30.020699501037598">
        <time>2026-04-25T08:13:08Z</time>
      </trkpt>
      <trkpt lat="59.072670936584473" lon="30.020678043365479">
        <time>2026-04-25T08:13:10Z</time>
      </trkpt>
      <trkpt lat="59.072670936584473" lon="30.020678043365479">
        <time>2026-04-25T08:13:13Z</time>
      </trkpt>
      <trkpt lat="59.072649478912354" lon="30.020613670349121">
        <time>2026-04-25T08:13:15Z</time>
      </trkpt>
      <trkpt lat="59.072649478912354" lon="30.020592212677002">
        <time>2026-04-25T08:13:18Z</time>
      </trkpt>
      <trkpt lat="59.072628021240234" lon="30.020592212677002">
        <time>2026-04-25T08:13:20Z</time>
      </trkpt>
      <trkpt lat="59.072628021240234" lon="30.020592212677002">
        <time>2026-04-25T08:13:23Z</time>
      </trkpt>
      <trkpt lat="59.072628021240234" lon="30.020570755004883">
        <time>2026-04-25T08:13:25Z</time>
      </trkpt>
      <trkpt lat="59.072628021240234" lon="30.020570755004883">
        <time>2026-04-25T08:13:28Z</time>
      </trkpt>
      <trkpt lat="59.072649478912354" lon="30.020549297332764">
        <time>2026-04-25T08:13:30Z</time>
      </trkpt>
      <trkpt lat="59.072670936584473" lon="30.020570755004883">
        <time>2026-04-25T08:13:33Z</time>
      </trkpt>
      <trkpt lat="59.072649478912354" lon="30.020592212677002">
        <time>2026-04-25T08:13:35Z</time>
      </trkpt>
      <trkpt lat="59.072649478912354" lon="30.020592212677002">
        <time>2026-04-25T08:13:38Z</time>
      </trkpt>
      <trkpt lat="59.072628021240234" lon="30.020592212677002">
        <time>2026-04-25T08:13:40Z</time>
      </trkpt>
      <trkpt lat="59.072628021240234" lon="30.020592212677002">
        <time>2026-04-25T08:13:43Z</time>
      </trkpt>
      <trkpt lat="59.072628021240234" lon="30.020592212677002">
        <time>2026-04-25T08:13:45Z</time>
      </trkpt>
      <trkpt lat="59.072628021240234" lon="30.020592212677002">
        <time>2026-04-25T08:13:48Z</time>
      </trkpt>
      <trkpt lat="59.072628021240234" lon="30.020592212677002">
        <time>2026-04-25T08:13:50Z</time>
      </trkpt>
      <trkpt lat="59.072628021240234" lon="30.020592212677002">
        <time>2026-04-25T08:13:53Z</time>
      </trkpt>
      <trkpt lat="59.072628021240234" lon="30.020592212677002">
        <time>2026-04-25T08:13:55Z</time>
      </trkpt>
      <trkpt lat="59.072628021240234" lon="30.020592212677002">
        <time>2026-04-25T08:13:58Z</time>
      </trkpt>
      <trkpt lat="59.072628021240234" lon="30.020592212677002">
        <time>2026-04-25T08:14:00Z</time>
      </trkpt>
      <trkpt lat="59.072628021240234" lon="30.020592212677002">
        <time>2026-04-25T08:14:03Z</time>
      </trkpt>
      <trkpt lat="59.072628021240234" lon="30.020592212677002">
        <time>2026-04-25T08:14:05Z</time>
      </trkpt>
      <trkpt lat="59.072628021240234" lon="30.020592212677002">
        <time>2026-04-25T08:14:08Z</time>
      </trkpt>
      <trkpt lat="59.072628021240234" lon="30.020592212677002">
        <time>2026-04-25T08:14:10Z</time>
      </trkpt>
      <trkpt lat="59.072628021240234" lon="30.020592212677002">
        <time>2026-04-25T08:14:13Z</time>
      </trkpt>
      <trkpt lat="59.072628021240234" lon="30.020592212677002">
        <time>2026-04-25T08:14:15Z</time>
      </trkpt>
      <trkpt lat="59.072628021240234" lon="30.020592212677002">
        <time>2026-04-25T08:14:18Z</time>
      </trkpt>
      <trkpt lat="59.072628021240234" lon="30.020592212677002">
        <time>2026-04-25T08:14:20Z</time>
      </trkpt>
      <trkpt lat="59.072628021240234" lon="30.020592212677002">
        <time>2026-04-25T08:14:23Z</time>
      </trkpt>
      <trkpt lat="59.072628021240234" lon="30.020592212677002">
        <time>2026-04-25T08:14:25Z</time>
      </trkpt>
      <trkpt lat="59.072628021240234" lon="30.020592212677002">
        <time>2026-04-25T08:14:28Z</time>
      </trkpt>
      <trkpt lat="59.072628021240234" lon="30.020592212677002">
        <time>2026-04-25T08:14:30Z</time>
      </trkpt>
      <trkpt lat="59.072628021240234" lon="30.020592212677002">
        <time>2026-04-25T08:14:33Z</time>
      </trkpt>
      <trkpt lat="59.072628021240234" lon="30.020592212677002">
        <time>2026-04-25T08:14:35Z</time>
      </trkpt>
      <trkpt lat="59.072628021240234" lon="30.020592212677002">
        <time>2026-04-25T08:14:38Z</time>
      </trkpt>
      <trkpt lat="59.072628021240234" lon="30.020592212677002">
        <time>2026-04-25T08:14:40Z</time>
      </trkpt>
      <trkpt lat="59.072628021240234" lon="30.020592212677002">
        <time>2026-04-25T08:14:43Z</time>
      </trkpt>
      <trkpt lat="59.072628021240234" lon="30.020592212677002">
        <time>2026-04-25T08:14:45Z</time>
      </trkpt>
      <trkpt lat="59.072628021240234" lon="30.020592212677002">
        <time>2026-04-25T08:14:48Z</time>
      </trkpt>
      <trkpt lat="59.072628021240234" lon="30.020592212677002">
        <time>2026-04-25T08:14:50Z</time>
      </trkpt>
      <trkpt lat="59.072628021240234" lon="30.020592212677002">
        <time>2026-04-25T08:14:53Z</time>
      </trkpt>
      <trkpt lat="59.072628021240234" lon="30.020592212677002">
        <time>2026-04-25T08:14:55Z</time>
      </trkpt>
      <trkpt lat="59.072628021240234" lon="30.020592212677002">
        <time>2026-04-25T08:14:58Z</time>
      </trkpt>
      <trkpt lat="59.072628021240234" lon="30.020592212677002">
        <time>2026-04-25T08:15:00Z</time>
      </trkpt>
      <trkpt lat="59.072628021240234" lon="30.020592212677002">
        <time>2026-04-25T08:15:03Z</time>
      </trkpt>
      <trkpt lat="59.072628021240234" lon="30.020592212677002">
        <time>2026-04-25T08:15:05Z</time>
      </trkpt>
      <trkpt lat="59.072628021240234" lon="30.020592212677002">
        <time>2026-04-25T08:15:08Z</time>
      </trkpt>
      <trkpt lat="59.072628021240234" lon="30.020592212677002">
        <time>2026-04-25T08:15:10Z</time>
      </trkpt>
      <trkpt lat="59.072628021240234" lon="30.020592212677002">
        <time>2026-04-25T08:15:13Z</time>
      </trkpt>
      <trkpt lat="59.072628021240234" lon="30.020592212677002">
        <time>2026-04-25T08:15:15Z</time>
      </trkpt>
      <trkpt lat="59.072628021240234" lon="30.020592212677002">
        <time>2026-04-25T08:15:18Z</time>
      </trkpt>
      <trkpt lat="59.072628021240234" lon="30.020592212677002">
        <time>2026-04-25T08:15:20Z</time>
      </trkpt>
      <trkpt lat="59.072628021240234" lon="30.020592212677002">
        <time>2026-04-25T08:15:23Z</time>
      </trkpt>
      <trkpt lat="59.072628021240234" lon="30.020592212677002">
        <time>2026-04-25T08:15:25Z</time>
      </trkpt>
      <trkpt lat="59.072628021240234" lon="30.020592212677002">
        <time>2026-04-25T08:15:28Z</time>
      </trkpt>
      <trkpt lat="59.072628021240234" lon="30.020592212677002">
        <time>2026-04-25T08:15:30Z</time>
      </trkpt>
      <trkpt lat="59.072628021240234" lon="30.020592212677002">
        <time>2026-04-25T08:15:33Z</time>
      </trkpt>
      <trkpt lat="59.072628021240234" lon="30.020592212677002">
        <time>2026-04-25T08:15:35Z</time>
      </trkpt>
      <trkpt lat="59.072628021240234" lon="30.020592212677002">
        <time>2026-04-25T08:15:38Z</time>
      </trkpt>
      <trkpt lat="59.072649478912354" lon="30.020527839660645">
        <time>2026-04-25T08:15:40Z</time>
      </trkpt>
      <trkpt lat="59.072649478912354" lon="30.020527839660645">
        <time>2026-04-25T08:15:43Z</time>
      </trkpt>
      <trkpt lat="59.072628021240234" lon="30.020484924316406">
        <time>2026-04-25T08:15:45Z</time>
      </trkpt>
      <trkpt lat="59.072628021240234" lon="30.020442008972168">
        <time>2026-04-25T08:15:48Z</time>
      </trkpt>
      <trkpt lat="59.072606563568115" lon="30.020377635955811">
        <time>2026-04-25T08:15:50Z</time>
      </trkpt>
      <trkpt lat="59.072606563568115" lon="30.020356178283691">
        <time>2026-04-25T08:15:53Z</time>
      </trkpt>
      <trkpt lat="59.072606563568115" lon="30.020313262939453">
        <time>2026-04-25T08:15:55Z</time>
      </trkpt>
      <trkpt lat="59.072606563568115" lon="30.020270347595215">
        <time>2026-04-25T08:15:58Z</time>
      </trkpt>
      <trkpt lat="59.072606563568115" lon="30.020163059234619">
        <time>2026-04-25T08:16:00Z</time>
      </trkpt>
      <trkpt lat="59.072585105895996" lon="30.0201416015625">
        <time>2026-04-25T08:16:03Z</time>
      </trkpt>
      <trkpt lat="59.072585105895996" lon="30.0201416015625">
        <time>2026-04-25T08:16:05Z</time>
      </trkpt>
      <trkpt lat="59.072563648223877" lon="30.020055770874023">
        <time>2026-04-25T08:16:08Z</time>
      </trkpt>
      <trkpt lat="59.072563648223877" lon="30.019927024841309">
        <time>2026-04-25T08:16:10Z</time>
      </trkpt>
      <trkpt lat="59.072563648223877" lon="30.019862651824951">
        <time>2026-04-25T08:16:13Z</time>
      </trkpt>
      <trkpt lat="59.072542190551758" lon="30.019819736480713">
        <time>2026-04-25T08:16:15Z</time>
      </trkpt>
      <trkpt lat="59.072520732879639" lon="30.019819736480713">
        <time>2026-04-25T08:16:18Z</time>
      </trkpt>
      <trkpt lat="59.072542190551758" lon="30.019776821136475">
        <time>2026-04-25T08:16:20Z</time>
      </trkpt>
      <trkpt lat="59.072542190551758" lon="30.019776821136475">
        <time>2026-04-25T08:16:23Z</time>
      </trkpt>
      <trkpt lat="59.072520732879639" lon="30.019755363464355">
        <time>2026-04-25T08:16:25Z</time>
      </trkpt>
      <trkpt lat="59.072520732879639" lon="30.019733905792236">
        <time>2026-04-25T08:16:28Z</time>
      </trkpt>
      <trkpt lat="59.07249927520752" lon="30.019712448120117">
        <time>2026-04-25T08:16:30Z</time>
      </trkpt>
      <trkpt lat="59.0724778175354" lon="30.019626617431641">
        <time>2026-04-25T08:16:33Z</time>
      </trkpt>
      <trkpt lat="59.072456359863281" lon="30.019519329071045">
        <time>2026-04-25T08:16:35Z</time>
      </trkpt>
      <trkpt lat="59.072434902191162" lon="30.019476413726807">
        <time>2026-04-25T08:16:38Z</time>
      </trkpt>
      <trkpt lat="59.072434902191162" lon="30.019476413726807">
        <time>2026-04-25T08:16:40Z</time>
      </trkpt>
      <trkpt lat="59.072434902191162" lon="30.019476413726807">
        <time>2026-04-25T08:16:43Z</time>
      </trkpt>
      <trkpt lat="59.072434902191162" lon="30.019433498382568">
        <time>2026-04-25T08:16:45Z</time>
      </trkpt>
      <trkpt lat="59.072413444519043" lon="30.019412040710449">
        <time>2026-04-25T08:16:48Z</time>
      </trkpt>
      <trkpt lat="59.072413444519043" lon="30.019347667694092">
        <time>2026-04-25T08:16:50Z</time>
      </trkpt>
      <trkpt lat="59.072391986846924" lon="30.019304752349854">
        <time>2026-04-25T08:16:53Z</time>
      </trkpt>
      <trkpt lat="59.072370529174805" lon="30.019218921661377">
        <time>2026-04-25T08:16:55Z</time>
      </trkpt>
      <trkpt lat="59.072349071502686" lon="30.019176006317139">
        <time>2026-04-25T08:16:58Z</time>
      </trkpt>
      <trkpt lat="59.072349071502686" lon="30.019111633300781">
        <time>2026-04-25T08:17:00Z</time>
      </trkpt>
      <trkpt lat="59.072327613830566" lon="30.019068717956543">
        <time>2026-04-25T08:17:03Z</time>
      </trkpt>
      <trkpt lat="59.072306156158447" lon="30.019004344940186">
        <time>2026-04-25T08:17:05Z</time>
      </trkpt>
      <trkpt lat="59.072284698486328" lon="30.018982887268066">
        <time>2026-04-25T08:17:08Z</time>
      </trkpt>
      <trkpt lat="59.072284698486328" lon="30.018918514251709">
        <time>2026-04-25T08:17:10Z</time>
      </trkpt>
      <trkpt lat="59.072284698486328" lon="30.018875598907471">
        <time>2026-04-25T08:17:13Z</time>
      </trkpt>
      <trkpt lat="59.072263240814209" lon="30.018789768218994">
        <time>2026-04-25T08:17:15Z</time>
      </trkpt>
      <trkpt lat="59.07224178314209" lon="30.018746852874756">
        <time>2026-04-25T08:17:18Z</time>
      </trkpt>
      <trkpt lat="59.072220325469971" lon="30.018682479858398">
        <time>2026-04-25T08:17:20Z</time>
      </trkpt>
      <trkpt lat="59.072220325469971" lon="30.01863956451416">
        <time>2026-04-25T08:17:23Z</time>
      </trkpt>
      <trkpt lat="59.072220325469971" lon="30.018553733825684">
        <time>2026-04-25T08:17:25Z</time>
      </trkpt>
      <trkpt lat="59.072220325469971" lon="30.018489360809326">
        <time>2026-04-25T08:17:28Z</time>
      </trkpt>
      <trkpt lat="59.072220325469971" lon="30.018424987792969">
        <time>2026-04-25T08:17:30Z</time>
      </trkpt>
      <trkpt lat="59.072220325469971" lon="30.01838207244873">
        <time>2026-04-25T08:17:33Z</time>
      </trkpt>
      <trkpt lat="59.072198867797852" lon="30.01838207244873">
        <time>2026-04-25T08:17:35Z</time>
      </trkpt>
      <trkpt lat="59.072177410125732" lon="30.01838207244873">
        <time>2026-04-25T08:17:38Z</time>
      </trkpt>
      <trkpt lat="59.072177410125732" lon="30.01838207244873">
        <time>2026-04-25T08:17:40Z</time>
      </trkpt>
      <trkpt lat="59.072177410125732" lon="30.018339157104492">
        <time>2026-04-25T08:17:43Z</time>
      </trkpt>
      <trkpt lat="59.072177410125732" lon="30.018274784088135">
        <time>2026-04-25T08:17:45Z</time>
      </trkpt>
      <trkpt lat="59.072177410125732" lon="30.018210411071777">
        <time>2026-04-25T08:17:48Z</time>
      </trkpt>
      <trkpt lat="59.072177410125732" lon="30.018124580383301">
        <time>2026-04-25T08:17:50Z</time>
      </trkpt>
      <trkpt lat="59.072177410125732" lon="30.018081665039063">
        <time>2026-04-25T08:17:53Z</time>
      </trkpt>
      <trkpt lat="59.072177410125732" lon="30.018060207366943">
        <time>2026-04-25T08:17:55Z</time>
      </trkpt>
      <trkpt lat="59.072155952453613" lon="30.018017292022705">
        <time>2026-04-25T08:17:58Z</time>
      </trkpt>
      <trkpt lat="59.072155952453613" lon="30.017931461334229">
        <time>2026-04-25T08:18:00Z</time>
      </trkpt>
      <trkpt lat="59.072155952453613" lon="30.017867088317871">
        <time>2026-04-25T08:18:03Z</time>
      </trkpt>
      <trkpt lat="59.072155952453613" lon="30.017867088317871">
        <time>2026-04-25T08:18:05Z</time>
      </trkpt>
      <trkpt lat="59.072155952453613" lon="30.017845630645752">
        <time>2026-04-25T08:18:08Z</time>
      </trkpt>
      <trkpt lat="59.072134494781494" lon="30.017738342285156">
        <time>2026-04-25T08:18:10Z</time>
      </trkpt>
      <trkpt lat="59.072155952453613" lon="30.01765251159668">
        <time>2026-04-25T08:18:13Z</time>
      </trkpt>
      <trkpt lat="59.072155952453613" lon="30.017545223236084">
        <time>2026-04-25T08:18:15Z</time>
      </trkpt>
      <trkpt lat="59.072155952453613" lon="30.017502307891846">
        <time>2026-04-25T08:18:18Z</time>
      </trkpt>
      <trkpt lat="59.072134494781494" lon="30.017416477203369">
        <time>2026-04-25T08:18:20Z</time>
      </trkpt>
      <trkpt lat="59.072134494781494" lon="30.017373561859131">
        <time>2026-04-25T08:18:23Z</time>
      </trkpt>
      <trkpt lat="59.072134494781494" lon="30.017309188842773">
        <time>2026-04-25T08:18:25Z</time>
      </trkpt>
      <trkpt lat="59.072155952453613" lon="30.017244815826416">
        <time>2026-04-25T08:18:28Z</time>
      </trkpt>
      <trkpt lat="59.072134494781494" lon="30.017223358154297">
        <time>2026-04-25T08:18:30Z</time>
      </trkpt>
      <trkpt lat="59.072155952453613" lon="30.017223358154297">
        <time>2026-04-25T08:18:33Z</time>
      </trkpt>
      <trkpt lat="59.072134494781494" lon="30.017158985137939">
        <time>2026-04-25T08:18:35Z</time>
      </trkpt>
      <trkpt lat="59.072134494781494" lon="30.017094612121582">
        <time>2026-04-25T08:18:38Z</time>
      </trkpt>
      <trkpt lat="59.072155952453613" lon="30.017051696777344">
        <time>2026-04-25T08:18:40Z</time>
      </trkpt>
      <trkpt lat="59.072155952453613" lon="30.017051696777344">
        <time>2026-04-25T08:18:43Z</time>
      </trkpt>
      <trkpt lat="59.072155952453613" lon="30.017051696777344">
        <time>2026-04-25T08:18:45Z</time>
      </trkpt>
      <trkpt lat="59.072155952453613" lon="30.017073154449463">
        <time>2026-04-25T08:18:48Z</time>
      </trkpt>
      <trkpt lat="59.072134494781494" lon="30.01713752746582">
        <time>2026-04-25T08:18:50Z</time>
      </trkpt>
      <trkpt lat="59.072134494781494" lon="30.017158985137939">
        <time>2026-04-25T08:18:53Z</time>
      </trkpt>
      <trkpt lat="59.072134494781494" lon="30.017158985137939">
        <time>2026-04-25T08:18:55Z</time>
      </trkpt>
      <trkpt lat="59.072134494781494" lon="30.017158985137939">
        <time>2026-04-25T08:18:58Z</time>
      </trkpt>
      <trkpt lat="59.072134494781494" lon="30.017158985137939">
        <time>2026-04-25T08:19:00Z</time>
      </trkpt>
      <trkpt lat="59.072134494781494" lon="30.017158985137939">
        <time>2026-04-25T08:19:03Z</time>
      </trkpt>
      <trkpt lat="59.072134494781494" lon="30.017158985137939">
        <time>2026-04-25T08:19:05Z</time>
      </trkpt>
      <trkpt lat="59.072134494781494" lon="30.017158985137939">
        <time>2026-04-25T08:19:08Z</time>
      </trkpt>
      <trkpt lat="59.072134494781494" lon="30.017158985137939">
        <time>2026-04-25T08:19:10Z</time>
      </trkpt>
      <trkpt lat="59.072134494781494" lon="30.017158985137939">
        <time>2026-04-25T08:19:13Z</time>
      </trkpt>
      <trkpt lat="59.072134494781494" lon="30.017158985137939">
        <time>2026-04-25T08:19:15Z</time>
      </trkpt>
      <trkpt lat="59.072134494781494" lon="30.017158985137939">
        <time>2026-04-25T08:19:18Z</time>
      </trkpt>
      <trkpt lat="59.072134494781494" lon="30.017158985137939">
        <time>2026-04-25T08:19:20Z</time>
      </trkpt>
      <trkpt lat="59.072134494781494" lon="30.017158985137939">
        <time>2026-04-25T08:19:23Z</time>
      </trkpt>
      <trkpt lat="59.072134494781494" lon="30.017158985137939">
        <time>2026-04-25T08:19:25Z</time>
      </trkpt>
      <trkpt lat="59.072134494781494" lon="30.017158985137939">
        <time>2026-04-25T08:19:28Z</time>
      </trkpt>
      <trkpt lat="59.072134494781494" lon="30.017158985137939">
        <time>2026-04-25T08:19:30Z</time>
      </trkpt>
      <trkpt lat="59.072134494781494" lon="30.017158985137939">
        <time>2026-04-25T08:19:33Z</time>
      </trkpt>
      <trkpt lat="59.072134494781494" lon="30.017158985137939">
        <time>2026-04-25T08:19:35Z</time>
      </trkpt>
      <trkpt lat="59.072134494781494" lon="30.017158985137939">
        <time>2026-04-25T08:19:38Z</time>
      </trkpt>
      <trkpt lat="59.072134494781494" lon="30.017158985137939">
        <time>2026-04-25T08:19:40Z</time>
      </trkpt>
      <trkpt lat="59.072134494781494" lon="30.01713752746582">
        <time>2026-04-25T08:19:43Z</time>
      </trkpt>
      <trkpt lat="59.072134494781494" lon="30.017116069793701">
        <time>2026-04-25T08:19:45Z</time>
      </trkpt>
      <trkpt lat="59.072134494781494" lon="30.017116069793701">
        <time>2026-04-25T08:19:48Z</time>
      </trkpt>
      <trkpt lat="59.072134494781494" lon="30.017116069793701">
        <time>2026-04-25T08:19:50Z</time>
      </trkpt>
      <trkpt lat="59.072134494781494" lon="30.017116069793701">
        <time>2026-04-25T08:19:53Z</time>
      </trkpt>
      <trkpt lat="59.072134494781494" lon="30.017116069793701">
        <time>2026-04-25T08:19:55Z</time>
      </trkpt>
      <trkpt lat="59.072134494781494" lon="30.017116069793701">
        <time>2026-04-25T08:19:58Z</time>
      </trkpt>
      <trkpt lat="59.072134494781494" lon="30.017116069793701">
        <time>2026-04-25T08:20:00Z</time>
      </trkpt>
      <trkpt lat="59.072134494781494" lon="30.017116069793701">
        <time>2026-04-25T08:20:03Z</time>
      </trkpt>
      <trkpt lat="59.072134494781494" lon="30.017116069793701">
        <time>2026-04-25T08:20:05Z</time>
      </trkpt>
      <trkpt lat="59.072134494781494" lon="30.017116069793701">
        <time>2026-04-25T08:20:08Z</time>
      </trkpt>
      <trkpt lat="59.072134494781494" lon="30.017116069793701">
        <time>2026-04-25T08:20:10Z</time>
      </trkpt>
      <trkpt lat="59.072134494781494" lon="30.017116069793701">
        <time>2026-04-25T08:20:13Z</time>
      </trkpt>
      <trkpt lat="59.072134494781494" lon="30.017116069793701">
        <time>2026-04-25T08:20:15Z</time>
      </trkpt>
      <trkpt lat="59.072134494781494" lon="30.017116069793701">
        <time>2026-04-25T08:20:18Z</time>
      </trkpt>
      <trkpt lat="59.072134494781494" lon="30.017116069793701">
        <time>2026-04-25T08:20:20Z</time>
      </trkpt>
      <trkpt lat="59.072134494781494" lon="30.017116069793701">
        <time>2026-04-25T08:20:23Z</time>
      </trkpt>
      <trkpt lat="59.072134494781494" lon="30.017116069793701">
        <time>2026-04-25T08:20:25Z</time>
      </trkpt>
      <trkpt lat="59.072113037109375" lon="30.017116069793701">
        <time>2026-04-25T08:20:28Z</time>
      </trkpt>
      <trkpt lat="59.072113037109375" lon="30.01713752746582">
        <time>2026-04-25T08:20:30Z</time>
      </trkpt>
      <trkpt lat="59.072113037109375" lon="30.01713752746582">
        <time>2026-04-25T08:20:33Z</time>
      </trkpt>
      <trkpt lat="59.072113037109375" lon="30.01713752746582">
        <time>2026-04-25T08:20:35Z</time>
      </trkpt>
      <trkpt lat="59.072113037109375" lon="30.017158985137939">
        <time>2026-04-25T08:20:38Z</time>
      </trkpt>
      <trkpt lat="59.072113037109375" lon="30.017158985137939">
        <time>2026-04-25T08:20:40Z</time>
      </trkpt>
      <trkpt lat="59.072113037109375" lon="30.01713752746582">
        <time>2026-04-25T08:20:43Z</time>
      </trkpt>
      <trkpt lat="59.072113037109375" lon="30.01713752746582">
        <time>2026-04-25T08:20:45Z</time>
      </trkpt>
      <trkpt lat="59.072113037109375" lon="30.01713752746582">
        <time>2026-04-25T08:20:48Z</time>
      </trkpt>
      <trkpt lat="59.072113037109375" lon="30.01713752746582">
        <time>2026-04-25T08:20:50Z</time>
      </trkpt>
      <trkpt lat="59.072113037109375" lon="30.017073154449463">
        <time>2026-04-25T08:20:53Z</time>
      </trkpt>
      <trkpt lat="59.072113037109375" lon="30.017094612121582">
        <time>2026-04-25T08:20:55Z</time>
      </trkpt>
      <trkpt lat="59.072113037109375" lon="30.017094612121582">
        <time>2026-04-25T08:20:58Z</time>
      </trkpt>
      <trkpt lat="59.072113037109375" lon="30.017116069793701">
        <time>2026-04-25T08:21:00Z</time>
      </trkpt>
      <trkpt lat="59.072113037109375" lon="30.017116069793701">
        <time>2026-04-25T08:21:03Z</time>
      </trkpt>
      <trkpt lat="59.072113037109375" lon="30.017116069793701">
        <time>2026-04-25T08:21:05Z</time>
      </trkpt>
      <trkpt lat="59.072113037109375" lon="30.017116069793701">
        <time>2026-04-25T08:21:08Z</time>
      </trkpt>
      <trkpt lat="59.072113037109375" lon="30.017116069793701">
        <time>2026-04-25T08:21:10Z</time>
      </trkpt>
      <trkpt lat="59.072113037109375" lon="30.017073154449463">
        <time>2026-04-25T08:21:13Z</time>
      </trkpt>
      <trkpt lat="59.072134494781494" lon="30.017051696777344">
        <time>2026-04-25T08:21:15Z</time>
      </trkpt>
      <trkpt lat="59.072134494781494" lon="30.017051696777344">
        <time>2026-04-25T08:21:18Z</time>
      </trkpt>
      <trkpt lat="59.072134494781494" lon="30.017051696777344">
        <time>2026-04-25T08:21:20Z</time>
      </trkpt>
      <trkpt lat="59.072134494781494" lon="30.017051696777344">
        <time>2026-04-25T08:21:23Z</time>
      </trkpt>
      <trkpt lat="59.072134494781494" lon="30.017051696777344">
        <time>2026-04-25T08:21:25Z</time>
      </trkpt>
      <trkpt lat="59.072134494781494" lon="30.017051696777344">
        <time>2026-04-25T08:21:28Z</time>
      </trkpt>
      <trkpt lat="59.072134494781494" lon="30.017051696777344">
        <time>2026-04-25T08:21:30Z</time>
      </trkpt>
      <trkpt lat="59.072134494781494" lon="30.017051696777344">
        <time>2026-04-25T08:21:33Z</time>
      </trkpt>
      <trkpt lat="59.072113037109375" lon="30.017051696777344">
        <time>2026-04-25T08:21:35Z</time>
      </trkpt>
      <trkpt lat="59.072113037109375" lon="30.017051696777344">
        <time>2026-04-25T08:21:38Z</time>
      </trkpt>
      <trkpt lat="59.072113037109375" lon="30.017073154449463">
        <time>2026-04-25T08:21:40Z</time>
      </trkpt>
      <trkpt lat="59.072113037109375" lon="30.017094612121582">
        <time>2026-04-25T08:21:43Z</time>
      </trkpt>
      <trkpt lat="59.072113037109375" lon="30.017073154449463">
        <time>2026-04-25T08:21:45Z</time>
      </trkpt>
      <trkpt lat="59.072113037109375" lon="30.017073154449463">
        <time>2026-04-25T08:21:48Z</time>
      </trkpt>
      <trkpt lat="59.072113037109375" lon="30.017073154449463">
        <time>2026-04-25T08:21:50Z</time>
      </trkpt>
      <trkpt lat="59.072113037109375" lon="30.017073154449463">
        <time>2026-04-25T08:21:53Z</time>
      </trkpt>
      <trkpt lat="59.072113037109375" lon="30.017073154449463">
        <time>2026-04-25T08:21:55Z</time>
      </trkpt>
      <trkpt lat="59.072113037109375" lon="30.017094612121582">
        <time>2026-04-25T08:21:58Z</time>
      </trkpt>
      <trkpt lat="59.072113037109375" lon="30.017094612121582">
        <time>2026-04-25T08:22:00Z</time>
      </trkpt>
      <trkpt lat="59.072113037109375" lon="30.017094612121582">
        <time>2026-04-25T08:22:03Z</time>
      </trkpt>
      <trkpt lat="59.072113037109375" lon="30.017094612121582">
        <time>2026-04-25T08:22:05Z</time>
      </trkpt>
      <trkpt lat="59.072113037109375" lon="30.017094612121582">
        <time>2026-04-25T08:22:08Z</time>
      </trkpt>
      <trkpt lat="59.072113037109375" lon="30.017094612121582">
        <time>2026-04-25T08:22:10Z</time>
      </trkpt>
      <trkpt lat="59.072113037109375" lon="30.017073154449463">
        <time>2026-04-25T08:22:13Z</time>
      </trkpt>
      <trkpt lat="59.072113037109375" lon="30.017051696777344">
        <time>2026-04-25T08:22:15Z</time>
      </trkpt>
      <trkpt lat="59.072113037109375" lon="30.017073154449463">
        <time>2026-04-25T08:22:18Z</time>
      </trkpt>
      <trkpt lat="59.072113037109375" lon="30.017073154449463">
        <time>2026-04-25T08:22:20Z</time>
      </trkpt>
      <trkpt lat="59.072113037109375" lon="30.017051696777344">
        <time>2026-04-25T08:22:23Z</time>
      </trkpt>
      <trkpt lat="59.072113037109375" lon="30.017051696777344">
        <time>2026-04-25T08:22:25Z</time>
      </trkpt>
      <trkpt lat="59.072134494781494" lon="30.017051696777344">
        <time>2026-04-25T08:22:28Z</time>
      </trkpt>
      <trkpt lat="59.072134494781494" lon="30.017051696777344">
        <time>2026-04-25T08:22:30Z</time>
      </trkpt>
      <trkpt lat="59.072134494781494" lon="30.017051696777344">
        <time>2026-04-25T08:22:33Z</time>
      </trkpt>
      <trkpt lat="59.072134494781494" lon="30.017051696777344">
        <time>2026-04-25T08:22:35Z</time>
      </trkpt>
      <trkpt lat="59.072134494781494" lon="30.017051696777344">
        <time>2026-04-25T08:22:38Z</time>
      </trkpt>
      <trkpt lat="59.072134494781494" lon="30.017051696777344">
        <time>2026-04-25T08:22:40Z</time>
      </trkpt>
      <trkpt lat="59.072134494781494" lon="30.017073154449463">
        <time>2026-04-25T08:22:43Z</time>
      </trkpt>
      <trkpt lat="59.072134494781494" lon="30.017094612121582">
        <time>2026-04-25T08:22:45Z</time>
      </trkpt>
      <trkpt lat="59.072134494781494" lon="30.017073154449463">
        <time>2026-04-25T08:22:48Z</time>
      </trkpt>
      <trkpt lat="59.072113037109375" lon="30.017073154449463">
        <time>2026-04-25T08:22:50Z</time>
      </trkpt>
      <trkpt lat="59.072113037109375" lon="30.017073154449463">
        <time>2026-04-25T08:22:53Z</time>
      </trkpt>
      <trkpt lat="59.072134494781494" lon="30.017073154449463">
        <time>2026-04-25T08:22:55Z</time>
      </trkpt>
      <trkpt lat="59.072134494781494" lon="30.017094612121582">
        <time>2026-04-25T08:22:58Z</time>
      </trkpt>
      <trkpt lat="59.072134494781494" lon="30.017094612121582">
        <time>2026-04-25T08:23:00Z</time>
      </trkpt>
      <trkpt lat="59.072134494781494" lon="30.017073154449463">
        <time>2026-04-25T08:23:03Z</time>
      </trkpt>
      <trkpt lat="59.072134494781494" lon="30.017073154449463">
        <time>2026-04-25T08:23:05Z</time>
      </trkpt>
      <trkpt lat="59.072134494781494" lon="30.017073154449463">
        <time>2026-04-25T08:23:08Z</time>
      </trkpt>
      <trkpt lat="59.072134494781494" lon="30.017073154449463">
        <time>2026-04-25T08:23:10Z</time>
      </trkpt>
      <trkpt lat="59.072134494781494" lon="30.017073154449463">
        <time>2026-04-25T08:23:13Z</time>
      </trkpt>
      <trkpt lat="59.072134494781494" lon="30.017073154449463">
        <time>2026-04-25T08:23:15Z</time>
      </trkpt>
      <trkpt lat="59.072134494781494" lon="30.017073154449463">
        <time>2026-04-25T08:23:18Z</time>
      </trkpt>
      <trkpt lat="59.072134494781494" lon="30.017073154449463">
        <time>2026-04-25T08:23:20Z</time>
      </trkpt>
      <trkpt lat="59.072134494781494" lon="30.017073154449463">
        <time>2026-04-25T08:23:23Z</time>
      </trkpt>
      <trkpt lat="59.072155952453613" lon="30.017094612121582">
        <time>2026-04-25T08:23:25Z</time>
      </trkpt>
      <trkpt lat="59.072155952453613" lon="30.017116069793701">
        <time>2026-04-25T08:23:28Z</time>
      </trkpt>
      <trkpt lat="59.072155952453613" lon="30.017116069793701">
        <time>2026-04-25T08:23:30Z</time>
      </trkpt>
      <trkpt lat="59.072155952453613" lon="30.017116069793701">
        <time>2026-04-25T08:23:33Z</time>
      </trkpt>
      <trkpt lat="59.072155952453613" lon="30.017116069793701">
        <time>2026-04-25T08:23:35Z</time>
      </trkpt>
      <trkpt lat="59.072155952453613" lon="30.017116069793701">
        <time>2026-04-25T08:23:38Z</time>
      </trkpt>
      <trkpt lat="59.072155952453613" lon="30.017116069793701">
        <time>2026-04-25T08:23:40Z</time>
      </trkpt>
      <trkpt lat="59.072155952453613" lon="30.017116069793701">
        <time>2026-04-25T08:23:43Z</time>
      </trkpt>
      <trkpt lat="59.072134494781494" lon="30.017094612121582">
        <time>2026-04-25T08:23:45Z</time>
      </trkpt>
      <trkpt lat="59.072134494781494" lon="30.017073154449463">
        <time>2026-04-25T08:23:48Z</time>
      </trkpt>
      <trkpt lat="59.072134494781494" lon="30.017094612121582">
        <time>2026-04-25T08:23:50Z</time>
      </trkpt>
      <trkpt lat="59.072134494781494" lon="30.017116069793701">
        <time>2026-04-25T08:23:53Z</time>
      </trkpt>
      <trkpt lat="59.072155952453613" lon="30.017116069793701">
        <time>2026-04-25T08:23:55Z</time>
      </trkpt>
      <trkpt lat="59.072134494781494" lon="30.017116069793701">
        <time>2026-04-25T08:23:58Z</time>
      </trkpt>
      <trkpt lat="59.072134494781494" lon="30.017094612121582">
        <time>2026-04-25T08:24:00Z</time>
      </trkpt>
      <trkpt lat="59.072134494781494" lon="30.017094612121582">
        <time>2026-04-25T08:24:03Z</time>
      </trkpt>
      <trkpt lat="59.072134494781494" lon="30.017094612121582">
        <time>2026-04-25T08:24:05Z</time>
      </trkpt>
      <trkpt lat="59.072134494781494" lon="30.017094612121582">
        <time>2026-04-25T08:24:08Z</time>
      </trkpt>
      <trkpt lat="59.072134494781494" lon="30.017094612121582">
        <time>2026-04-25T08:24:10Z</time>
      </trkpt>
      <trkpt lat="59.072134494781494" lon="30.017094612121582">
        <time>2026-04-25T08:24:13Z</time>
      </trkpt>
      <trkpt lat="59.072134494781494" lon="30.017094612121582">
        <time>2026-04-25T08:24:15Z</time>
      </trkpt>
      <trkpt lat="59.072134494781494" lon="30.017094612121582">
        <time>2026-04-25T08:24:18Z</time>
      </trkpt>
      <trkpt lat="59.072134494781494" lon="30.017094612121582">
        <time>2026-04-25T08:24:20Z</time>
      </trkpt>
      <trkpt lat="59.072134494781494" lon="30.017094612121582">
        <time>2026-04-25T08:24:23Z</time>
      </trkpt>
      <trkpt lat="59.072134494781494" lon="30.017094612121582">
        <time>2026-04-25T08:24:25Z</time>
      </trkpt>
      <trkpt lat="59.072134494781494" lon="30.017094612121582">
        <time>2026-04-25T08:24:28Z</time>
      </trkpt>
      <trkpt lat="59.072134494781494" lon="30.017094612121582">
        <time>2026-04-25T08:24:30Z</time>
      </trkpt>
      <trkpt lat="59.072134494781494" lon="30.017094612121582">
        <time>2026-04-25T08:24:33Z</time>
      </trkpt>
      <trkpt lat="59.072134494781494" lon="30.017094612121582">
        <time>2026-04-25T08:24:35Z</time>
      </trkpt>
      <trkpt lat="59.072134494781494" lon="30.017094612121582">
        <time>2026-04-25T08:24:38Z</time>
      </trkpt>
      <trkpt lat="59.072134494781494" lon="30.017094612121582">
        <time>2026-04-25T08:24:40Z</time>
      </trkpt>
      <trkpt lat="59.072134494781494" lon="30.017094612121582">
        <time>2026-04-25T08:24:43Z</time>
      </trkpt>
      <trkpt lat="59.072134494781494" lon="30.017094612121582">
        <time>2026-04-25T08:24:45Z</time>
      </trkpt>
      <trkpt lat="59.072134494781494" lon="30.017094612121582">
        <time>2026-04-25T08:24:48Z</time>
      </trkpt>
      <trkpt lat="59.072134494781494" lon="30.017094612121582">
        <time>2026-04-25T08:24:50Z</time>
      </trkpt>
      <trkpt lat="59.072134494781494" lon="30.017094612121582">
        <time>2026-04-25T08:24:53Z</time>
      </trkpt>
      <trkpt lat="59.072134494781494" lon="30.017094612121582">
        <time>2026-04-25T08:24:55Z</time>
      </trkpt>
      <trkpt lat="59.072134494781494" lon="30.017094612121582">
        <time>2026-04-25T08:24:58Z</time>
      </trkpt>
      <trkpt lat="59.072134494781494" lon="30.017094612121582">
        <time>2026-04-25T08:25:00Z</time>
      </trkpt>
      <trkpt lat="59.072134494781494" lon="30.017094612121582">
        <time>2026-04-25T08:25:03Z</time>
      </trkpt>
      <trkpt lat="59.072134494781494" lon="30.017094612121582">
        <time>2026-04-25T08:25:05Z</time>
      </trkpt>
      <trkpt lat="59.072134494781494" lon="30.017094612121582">
        <time>2026-04-25T08:25:08Z</time>
      </trkpt>
      <trkpt lat="59.072134494781494" lon="30.017094612121582">
        <time>2026-04-25T08:25:10Z</time>
      </trkpt>
      <trkpt lat="59.072134494781494" lon="30.017094612121582">
        <time>2026-04-25T08:25:13Z</time>
      </trkpt>
      <trkpt lat="59.072134494781494" lon="30.017094612121582">
        <time>2026-04-25T08:25:15Z</time>
      </trkpt>
      <trkpt lat="59.072134494781494" lon="30.017094612121582">
        <time>2026-04-25T08:25:18Z</time>
      </trkpt>
      <trkpt lat="59.072134494781494" lon="30.017094612121582">
        <time>2026-04-25T08:25:20Z</time>
      </trkpt>
      <trkpt lat="59.072134494781494" lon="30.017094612121582">
        <time>2026-04-25T08:25:23Z</time>
      </trkpt>
      <trkpt lat="59.072134494781494" lon="30.017094612121582">
        <time>2026-04-25T08:25:25Z</time>
      </trkpt>
      <trkpt lat="59.072134494781494" lon="30.017094612121582">
        <time>2026-04-25T08:25:28Z</time>
      </trkpt>
      <trkpt lat="59.072134494781494" lon="30.017094612121582">
        <time>2026-04-25T08:25:30Z</time>
      </trkpt>
      <trkpt lat="59.072134494781494" lon="30.017094612121582">
        <time>2026-04-25T08:25:33Z</time>
      </trkpt>
      <trkpt lat="59.072134494781494" lon="30.017094612121582">
        <time>2026-04-25T08:25:35Z</time>
      </trkpt>
      <trkpt lat="59.072134494781494" lon="30.017094612121582">
        <time>2026-04-25T08:25:38Z</time>
      </trkpt>
      <trkpt lat="59.072134494781494" lon="30.017094612121582">
        <time>2026-04-25T08:25:40Z</time>
      </trkpt>
      <trkpt lat="59.072134494781494" lon="30.017094612121582">
        <time>2026-04-25T08:25:43Z</time>
      </trkpt>
      <trkpt lat="59.072134494781494" lon="30.017094612121582">
        <time>2026-04-25T08:25:45Z</time>
      </trkpt>
      <trkpt lat="59.072134494781494" lon="30.017094612121582">
        <time>2026-04-25T08:25:48Z</time>
      </trkpt>
      <trkpt lat="59.072134494781494" lon="30.017094612121582">
        <time>2026-04-25T08:25:50Z</time>
      </trkpt>
      <trkpt lat="59.072134494781494" lon="30.017094612121582">
        <time>2026-04-25T08:25:53Z</time>
      </trkpt>
      <trkpt lat="59.072134494781494" lon="30.017094612121582">
        <time>2026-04-25T08:25:55Z</time>
      </trkpt>
      <trkpt lat="59.072134494781494" lon="30.017094612121582">
        <time>2026-04-25T08:25:58Z</time>
      </trkpt>
      <trkpt lat="59.072134494781494" lon="30.017094612121582">
        <time>2026-04-25T08:26:00Z</time>
      </trkpt>
      <trkpt lat="59.072134494781494" lon="30.017094612121582">
        <time>2026-04-25T08:26:03Z</time>
      </trkpt>
      <trkpt lat="59.072134494781494" lon="30.017094612121582">
        <time>2026-04-25T08:26:05Z</time>
      </trkpt>
      <trkpt lat="59.072134494781494" lon="30.017094612121582">
        <time>2026-04-25T08:26:08Z</time>
      </trkpt>
      <trkpt lat="59.072134494781494" lon="30.017094612121582">
        <time>2026-04-25T08:26:10Z</time>
      </trkpt>
      <trkpt lat="59.072134494781494" lon="30.017094612121582">
        <time>2026-04-25T08:26:13Z</time>
      </trkpt>
      <trkpt lat="59.072134494781494" lon="30.017094612121582">
        <time>2026-04-25T08:26:15Z</time>
      </trkpt>
      <trkpt lat="59.072134494781494" lon="30.017094612121582">
        <time>2026-04-25T08:26:18Z</time>
      </trkpt>
      <trkpt lat="59.072134494781494" lon="30.017094612121582">
        <time>2026-04-25T08:26:20Z</time>
      </trkpt>
      <trkpt lat="59.072134494781494" lon="30.017094612121582">
        <time>2026-04-25T08:26:23Z</time>
      </trkpt>
      <trkpt lat="59.072134494781494" lon="30.017094612121582">
        <time>2026-04-25T08:26:25Z</time>
      </trkpt>
      <trkpt lat="59.072134494781494" lon="30.017094612121582">
        <time>2026-04-25T08:26:28Z</time>
      </trkpt>
      <trkpt lat="59.072134494781494" lon="30.017094612121582">
        <time>2026-04-25T08:26:30Z</time>
      </trkpt>
      <trkpt lat="59.072134494781494" lon="30.017094612121582">
        <time>2026-04-25T08:26:33Z</time>
      </trkpt>
      <trkpt lat="59.072134494781494" lon="30.017094612121582">
        <time>2026-04-25T08:26:35Z</time>
      </trkpt>
      <trkpt lat="59.072134494781494" lon="30.017094612121582">
        <time>2026-04-25T08:26:38Z</time>
      </trkpt>
      <trkpt lat="59.072134494781494" lon="30.017094612121582">
        <time>2026-04-25T08:26:40Z</time>
      </trkpt>
      <trkpt lat="59.072134494781494" lon="30.017094612121582">
        <time>2026-04-25T08:26:43Z</time>
      </trkpt>
      <trkpt lat="59.072134494781494" lon="30.017094612121582">
        <time>2026-04-25T08:26:45Z</time>
      </trkpt>
      <trkpt lat="59.072134494781494" lon="30.017094612121582">
        <time>2026-04-25T08:26:48Z</time>
      </trkpt>
      <trkpt lat="59.072134494781494" lon="30.017094612121582">
        <time>2026-04-25T08:26:50Z</time>
      </trkpt>
      <trkpt lat="59.072155952453613" lon="30.017073154449463">
        <time>2026-04-25T08:26:53Z</time>
      </trkpt>
      <trkpt lat="59.072155952453613" lon="30.017073154449463">
        <time>2026-04-25T08:26:55Z</time>
      </trkpt>
      <trkpt lat="59.072198867797852" lon="30.017051696777344">
        <time>2026-04-25T08:26:58Z</time>
      </trkpt>
      <trkpt lat="59.072198867797852" lon="30.016987323760986">
        <time>2026-04-25T08:27:00Z</time>
      </trkpt>
      <trkpt lat="59.072220325469971" lon="30.016987323760986">
        <time>2026-04-25T08:27:03Z</time>
      </trkpt>
      <trkpt lat="59.072263240814209" lon="30.017008781433105">
        <time>2026-04-25T08:27:05Z</time>
      </trkpt>
      <trkpt lat="59.072263240814209" lon="30.017073154449463">
        <time>2026-04-25T08:27:08Z</time>
      </trkpt>
      <trkpt lat="59.072263240814209" lon="30.017116069793701">
        <time>2026-04-25T08:27:10Z</time>
      </trkpt>
      <trkpt lat="59.072263240814209" lon="30.017116069793701">
        <time>2026-04-25T08:27:13Z</time>
      </trkpt>
      <trkpt lat="59.072284698486328" lon="30.01713752746582">
        <time>2026-04-25T08:27:15Z</time>
      </trkpt>
      <trkpt lat="59.072284698486328" lon="30.01713752746582">
        <time>2026-04-25T08:27:18Z</time>
      </trkpt>
      <trkpt lat="59.072327613830566" lon="30.017158985137939">
        <time>2026-04-25T08:27:20Z</time>
      </trkpt>
      <trkpt lat="59.072349071502686" lon="30.017158985137939">
        <time>2026-04-25T08:27:23Z</time>
      </trkpt>
      <trkpt lat="59.072434902191162" lon="30.017180442810059">
        <time>2026-04-25T08:27:25Z</time>
      </trkpt>
      <trkpt lat="59.07249927520752" lon="30.017116069793701">
        <time>2026-04-25T08:27:28Z</time>
      </trkpt>
      <trkpt lat="59.072542190551758" lon="30.017051696777344">
        <time>2026-04-25T08:27:30Z</time>
      </trkpt>
      <trkpt lat="59.072542190551758" lon="30.016987323760986">
        <time>2026-04-25T08:27:33Z</time>
      </trkpt>
      <trkpt lat="59.07249927520752" lon="30.016858577728271">
        <time>2026-04-25T08:27:35Z</time>
      </trkpt>
      <trkpt lat="59.07249927520752" lon="30.016815662384033">
        <time>2026-04-25T08:27:38Z</time>
      </trkpt>
      <trkpt lat="59.0724778175354" lon="30.016815662384033">
        <time>2026-04-25T08:27:40Z</time>
      </trkpt>
      <trkpt lat="59.0724778175354" lon="30.016815662384033">
        <time>2026-04-25T08:27:43Z</time>
      </trkpt>
      <trkpt lat="59.0724778175354" lon="30.016815662384033">
        <time>2026-04-25T08:27:45Z</time>
      </trkpt>
      <trkpt lat="59.0724778175354" lon="30.016837120056152">
        <time>2026-04-25T08:27:48Z</time>
      </trkpt>
      <trkpt lat="59.0724778175354" lon="30.016837120056152">
        <time>2026-04-25T08:27:50Z</time>
      </trkpt>
      <trkpt lat="59.0724778175354" lon="30.016815662384033">
        <time>2026-04-25T08:27:53Z</time>
      </trkpt>
      <trkpt lat="59.072456359863281" lon="30.016794204711914">
        <time>2026-04-25T08:27:55Z</time>
      </trkpt>
      <trkpt lat="59.072413444519043" lon="30.016751289367676">
        <time>2026-04-25T08:27:58Z</time>
      </trkpt>
      <trkpt lat="59.072413444519043" lon="30.016686916351318">
        <time>2026-04-25T08:28:00Z</time>
      </trkpt>
      <trkpt lat="59.072413444519043" lon="30.01664400100708">
        <time>2026-04-25T08:28:03Z</time>
      </trkpt>
      <trkpt lat="59.072391986846924" lon="30.016622543334961">
        <time>2026-04-25T08:28:05Z</time>
      </trkpt>
      <trkpt lat="59.072391986846924" lon="30.016601085662842">
        <time>2026-04-25T08:28:08Z</time>
      </trkpt>
      <trkpt lat="59.072434902191162" lon="30.016601085662842">
        <time>2026-04-25T08:28:10Z</time>
      </trkpt>
      <trkpt lat="59.07249927520752" lon="30.016622543334961">
        <time>2026-04-25T08:28:13Z</time>
      </trkpt>
      <trkpt lat="59.072542190551758" lon="30.016751289367676">
        <time>2026-04-25T08:28:15Z</time>
      </trkpt>
      <trkpt lat="59.072563648223877" lon="30.016772747039795">
        <time>2026-04-25T08:28:18Z</time>
      </trkpt>
      <trkpt lat="59.072563648223877" lon="30.016772747039795">
        <time>2026-04-25T08:28:20Z</time>
      </trkpt>
      <trkpt lat="59.072563648223877" lon="30.016772747039795">
        <time>2026-04-25T08:28:23Z</time>
      </trkpt>
      <trkpt lat="59.072563648223877" lon="30.016772747039795">
        <time>2026-04-25T08:28:25Z</time>
      </trkpt>
      <trkpt lat="59.072563648223877" lon="30.016751289367676">
        <time>2026-04-25T08:28:28Z</time>
      </trkpt>
      <trkpt lat="59.072563648223877" lon="30.016751289367676">
        <time>2026-04-25T08:28:30Z</time>
      </trkpt>
      <trkpt lat="59.072563648223877" lon="30.016729831695557">
        <time>2026-04-25T08:28:33Z</time>
      </trkpt>
      <trkpt lat="59.072585105895996" lon="30.016772747039795">
        <time>2026-04-25T08:28:35Z</time>
      </trkpt>
      <trkpt lat="59.072585105895996" lon="30.016837120056152">
        <time>2026-04-25T08:28:38Z</time>
      </trkpt>
      <trkpt lat="59.072563648223877" lon="30.01690149307251">
        <time>2026-04-25T08:28:40Z</time>
      </trkpt>
      <trkpt lat="59.072542190551758" lon="30.016944408416748">
        <time>2026-04-25T08:28:43Z</time>
      </trkpt>
      <trkpt lat="59.072563648223877" lon="30.016944408416748">
        <time>2026-04-25T08:28:45Z</time>
      </trkpt>
      <trkpt lat="59.072606563568115" lon="30.016922950744629">
        <time>2026-04-25T08:28:48Z</time>
      </trkpt>
      <trkpt lat="59.072649478912354" lon="30.016880035400391">
        <time>2026-04-25T08:28:50Z</time>
      </trkpt>
      <trkpt lat="59.072692394256592" lon="30.016858577728271">
        <time>2026-04-25T08:28:53Z</time>
      </trkpt>
      <trkpt lat="59.07273530960083" lon="30.01690149307251">
        <time>2026-04-25T08:28:55Z</time>
      </trkpt>
      <trkpt lat="59.072778224945068" lon="30.016880035400391">
        <time>2026-04-25T08:29:00Z</time>
      </trkpt>
      <trkpt lat="59.072799682617187" lon="30.016880035400391">
        <time>2026-04-25T08:29:03Z</time>
      </trkpt>
      <trkpt lat="59.072799682617187" lon="30.016944408416748">
        <time>2026-04-25T08:29:05Z</time>
      </trkpt>
      <trkpt lat="59.072821140289307" lon="30.016965866088867">
        <time>2026-04-25T08:29:08Z</time>
      </trkpt>
      <trkpt lat="59.072885513305664" lon="30.017030239105225">
        <time>2026-04-25T08:29:10Z</time>
      </trkpt>
      <trkpt lat="59.072906970977783" lon="30.017094612121582">
        <time>2026-04-25T08:29:13Z</time>
      </trkpt>
      <trkpt lat="59.072949886322021" lon="30.017180442810059">
        <time>2026-04-25T08:29:15Z</time>
      </trkpt>
      <trkpt lat="59.07299280166626" lon="30.017201900482178">
        <time>2026-04-25T08:29:18Z</time>
      </trkpt>
      <trkpt lat="59.073014259338379" lon="30.017201900482178">
        <time>2026-04-25T08:29:20Z</time>
      </trkpt>
      <trkpt lat="59.073014259338379" lon="30.017180442810059">
        <time>2026-04-25T08:29:23Z</time>
      </trkpt>
      <trkpt lat="59.073014259338379" lon="30.017158985137939">
        <time>2026-04-25T08:29:25Z</time>
      </trkpt>
      <trkpt lat="59.073014259338379" lon="30.01713752746582">
        <time>2026-04-25T08:29:28Z</time>
      </trkpt>
      <trkpt lat="59.073035717010498" lon="30.017008781433105">
        <time>2026-04-25T08:29:30Z</time>
      </trkpt>
      <trkpt lat="59.073035717010498" lon="30.01690149307251">
        <time>2026-04-25T08:29:33Z</time>
      </trkpt>
      <trkpt lat="59.073057174682617" lon="30.016815662384033">
        <time>2026-04-25T08:29:35Z</time>
      </trkpt>
      <trkpt lat="59.073057174682617" lon="30.016815662384033">
        <time>2026-04-25T08:29:38Z</time>
      </trkpt>
      <trkpt lat="59.073057174682617" lon="30.016772747039795">
        <time>2026-04-25T08:29:40Z</time>
      </trkpt>
      <trkpt lat="59.073078632354736" lon="30.016686916351318">
        <time>2026-04-25T08:29:43Z</time>
      </trkpt>
      <trkpt lat="59.073100090026855" lon="30.016493797302246">
        <time>2026-04-25T08:29:45Z</time>
      </trkpt>
      <trkpt lat="59.073078632354736" lon="30.01640796661377">
        <time>2026-04-25T08:29:48Z</time>
      </trkpt>
      <trkpt lat="59.072971343994141" lon="30.01638650894165">
        <time>2026-04-25T08:29:50Z</time>
      </trkpt>
      <trkpt lat="59.072906970977783" lon="30.016365051269531">
        <time>2026-04-25T08:29:53Z</time>
      </trkpt>
      <trkpt lat="59.072864055633545" lon="30.016343593597412">
        <time>2026-04-25T08:29:55Z</time>
      </trkpt>
      <trkpt lat="59.072864055633545" lon="30.016343593597412">
        <time>2026-04-25T08:29:58Z</time>
      </trkpt>
      <trkpt lat="59.072842597961426" lon="30.016365051269531">
        <time>2026-04-25T08:30:00Z</time>
      </trkpt>
      <trkpt lat="59.072842597961426" lon="30.016365051269531">
        <time>2026-04-25T08:30:03Z</time>
      </trkpt>
      <trkpt lat="59.072821140289307" lon="30.016515254974365">
        <time>2026-04-25T08:30:05Z</time>
      </trkpt>
      <trkpt lat="59.072842597961426" lon="30.016622543334961">
        <time>2026-04-25T08:30:08Z</time>
      </trkpt>
      <trkpt lat="59.072864055633545" lon="30.016708374023438">
        <time>2026-04-25T08:30:10Z</time>
      </trkpt>
      <trkpt lat="59.072864055633545" lon="30.016686916351318">
        <time>2026-04-25T08:30:13Z</time>
      </trkpt>
      <trkpt lat="59.072864055633545" lon="30.016665458679199">
        <time>2026-04-25T08:30:15Z</time>
      </trkpt>
      <trkpt lat="59.072864055633545" lon="30.01664400100708">
        <time>2026-04-25T08:30:18Z</time>
      </trkpt>
      <trkpt lat="59.072864055633545" lon="30.01664400100708">
        <time>2026-04-25T08:30:20Z</time>
      </trkpt>
      <trkpt lat="59.072885513305664" lon="30.01664400100708">
        <time>2026-04-25T08:30:23Z</time>
      </trkpt>
      <trkpt lat="59.072949886322021" lon="30.016665458679199">
        <time>2026-04-25T08:30:25Z</time>
      </trkpt>
      <trkpt lat="59.073014259338379" lon="30.016686916351318">
        <time>2026-04-25T08:30:28Z</time>
      </trkpt>
      <trkpt lat="59.073078632354736" lon="30.016837120056152">
        <time>2026-04-25T08:30:30Z</time>
      </trkpt>
      <trkpt lat="59.073121547698975" lon="30.016944408416748">
        <time>2026-04-25T08:30:33Z</time>
      </trkpt>
      <trkpt lat="59.073185920715332" lon="30.016944408416748">
        <time>2026-04-25T08:30:35Z</time>
      </trkpt>
      <trkpt lat="59.073207378387451" lon="30.01690149307251">
        <time>2026-04-25T08:30:38Z</time>
      </trkpt>
      <trkpt lat="59.073250293731689" lon="30.016837120056152">
        <time>2026-04-25T08:30:40Z</time>
      </trkpt>
      <trkpt lat="59.073271751403809" lon="30.016815662384033">
        <time>2026-04-25T08:30:43Z</time>
      </trkpt>
      <trkpt lat="59.073271751403809" lon="30.016751289367676">
        <time>2026-04-25T08:30:45Z</time>
      </trkpt>
      <trkpt lat="59.073250293731689" lon="30.016729831695557">
        <time>2026-04-25T08:30:48Z</time>
      </trkpt>
      <trkpt lat="59.073207378387451" lon="30.016708374023438">
        <time>2026-04-25T08:30:50Z</time>
      </trkpt>
      <trkpt lat="59.073164463043213" lon="30.016686916351318">
        <time>2026-04-25T08:30:53Z</time>
      </trkpt>
      <trkpt lat="59.073121547698975" lon="30.016729831695557">
        <time>2026-04-25T08:30:55Z</time>
      </trkpt>
      <trkpt lat="59.073121547698975" lon="30.016729831695557">
        <time>2026-04-25T08:30:58Z</time>
      </trkpt>
      <trkpt lat="59.073121547698975" lon="30.016708374023438">
        <time>2026-04-25T08:31:00Z</time>
      </trkpt>
      <trkpt lat="59.073121547698975" lon="30.016708374023438">
        <time>2026-04-25T08:31:03Z</time>
      </trkpt>
      <trkpt lat="59.073121547698975" lon="30.016708374023438">
        <time>2026-04-25T08:31:05Z</time>
      </trkpt>
      <trkpt lat="59.073143005371094" lon="30.016686916351318">
        <time>2026-04-25T08:31:08Z</time>
      </trkpt>
      <trkpt lat="59.07322883605957" lon="30.016622543334961">
        <time>2026-04-25T08:31:10Z</time>
      </trkpt>
      <trkpt lat="59.073293209075928" lon="30.016579627990723">
        <time>2026-04-25T08:31:13Z</time>
      </trkpt>
      <trkpt lat="59.073293209075928" lon="30.016601085662842">
        <time>2026-04-25T08:31:15Z</time>
      </trkpt>
      <trkpt lat="59.073314666748047" lon="30.016601085662842">
        <time>2026-04-25T08:31:18Z</time>
      </trkpt>
      <trkpt lat="59.073314666748047" lon="30.016579627990723">
        <time>2026-04-25T08:31:20Z</time>
      </trkpt>
      <trkpt lat="59.073314666748047" lon="30.016579627990723">
        <time>2026-04-25T08:31:23Z</time>
      </trkpt>
      <trkpt lat="59.073314666748047" lon="30.016579627990723">
        <time>2026-04-25T08:31:25Z</time>
      </trkpt>
      <trkpt lat="59.073314666748047" lon="30.016579627990723">
        <time>2026-04-25T08:31:28Z</time>
      </trkpt>
      <trkpt lat="59.073314666748047" lon="30.016579627990723">
        <time>2026-04-25T08:31:30Z</time>
      </trkpt>
      <trkpt lat="59.073336124420166" lon="30.016558170318604">
        <time>2026-04-25T08:31:33Z</time>
      </trkpt>
      <trkpt lat="59.073379039764404" lon="30.016472339630127">
        <time>2026-04-25T08:31:35Z</time>
      </trkpt>
      <trkpt lat="59.073443412780762" lon="30.016429424285889">
        <time>2026-04-25T08:31:38Z</time>
      </trkpt>
      <trkpt lat="59.073507785797119" lon="30.01640796661377">
        <time>2026-04-25T08:31:40Z</time>
      </trkpt>
      <trkpt lat="59.073507785797119" lon="30.01640796661377">
        <time>2026-04-25T08:31:43Z</time>
      </trkpt>
      <trkpt lat="59.073507785797119" lon="30.01638650894165">
        <time>2026-04-25T08:31:45Z</time>
      </trkpt>
      <trkpt lat="59.073507785797119" lon="30.01638650894165">
        <time>2026-04-25T08:31:48Z</time>
      </trkpt>
      <trkpt lat="59.073507785797119" lon="30.01640796661377">
        <time>2026-04-25T08:31:50Z</time>
      </trkpt>
      <trkpt lat="59.073507785797119" lon="30.01638650894165">
        <time>2026-04-25T08:31:53Z</time>
      </trkpt>
      <trkpt lat="59.073486328125" lon="30.01638650894165">
        <time>2026-04-25T08:31:55Z</time>
      </trkpt>
      <trkpt lat="59.073507785797119" lon="30.01638650894165">
        <time>2026-04-25T08:31:58Z</time>
      </trkpt>
      <trkpt lat="59.073529243469238" lon="30.016343593597412">
        <time>2026-04-25T08:32:00Z</time>
      </trkpt>
      <trkpt lat="59.073593616485596" lon="30.016322135925293">
        <time>2026-04-25T08:32:03Z</time>
      </trkpt>
      <trkpt lat="59.073657989501953" lon="30.016300678253174">
        <time>2026-04-25T08:32:05Z</time>
      </trkpt>
      <trkpt lat="59.073679447174072" lon="30.016279220581055">
        <time>2026-04-25T08:32:08Z</time>
      </trkpt>
      <trkpt lat="59.073722362518311" lon="30.016257762908936">
        <time>2026-04-25T08:32:10Z</time>
      </trkpt>
      <trkpt lat="59.073722362518311" lon="30.016236305236816">
        <time>2026-04-25T08:32:13Z</time>
      </trkpt>
      <trkpt lat="59.07374382019043" lon="30.016193389892578">
        <time>2026-04-25T08:32:15Z</time>
      </trkpt>
      <trkpt lat="59.07374382019043" lon="30.01615047454834">
        <time>2026-04-25T08:32:18Z</time>
      </trkpt>
      <trkpt lat="59.073765277862549" lon="30.016129016876221">
        <time>2026-04-25T08:32:20Z</time>
      </trkpt>
      <trkpt lat="59.073765277862549" lon="30.016107559204102">
        <time>2026-04-25T08:32:23Z</time>
      </trkpt>
      <trkpt lat="59.07374382019043" lon="30.016107559204102">
        <time>2026-04-25T08:32:25Z</time>
      </trkpt>
      <trkpt lat="59.07374382019043" lon="30.016086101531982">
        <time>2026-04-25T08:32:28Z</time>
      </trkpt>
      <trkpt lat="59.07374382019043" lon="30.016086101531982">
        <time>2026-04-25T08:32:30Z</time>
      </trkpt>
      <trkpt lat="59.07374382019043" lon="30.016086101531982">
        <time>2026-04-25T08:32:33Z</time>
      </trkpt>
      <trkpt lat="59.073765277862549" lon="30.016086101531982">
        <time>2026-04-25T08:32:35Z</time>
      </trkpt>
      <trkpt lat="59.073765277862549" lon="30.016129016876221">
        <time>2026-04-25T08:32:38Z</time>
      </trkpt>
      <trkpt lat="59.073829650878906" lon="30.016214847564697">
        <time>2026-04-25T08:32:40Z</time>
      </trkpt>
      <trkpt lat="59.073851108551025" lon="30.016214847564697">
        <time>2026-04-25T08:32:43Z</time>
      </trkpt>
      <trkpt lat="59.073872566223145" lon="30.016257762908936">
        <time>2026-04-25T08:32:45Z</time>
      </trkpt>
      <trkpt lat="59.073894023895264" lon="30.016257762908936">
        <time>2026-04-25T08:32:48Z</time>
      </trkpt>
      <trkpt lat="59.073936939239502" lon="30.016214847564697">
        <time>2026-04-25T08:32:50Z</time>
      </trkpt>
      <trkpt lat="59.073958396911621" lon="30.016171932220459">
        <time>2026-04-25T08:32:53Z</time>
      </trkpt>
      <trkpt lat="59.07397985458374" lon="30.016129016876221">
        <time>2026-04-25T08:32:55Z</time>
      </trkpt>
      <trkpt lat="59.074001312255859" lon="30.016086101531982">
        <time>2026-04-25T08:32:58Z</time>
      </trkpt>
      <trkpt lat="59.074044227600098" lon="30.016043186187744">
        <time>2026-04-25T08:33:00Z</time>
      </trkpt>
      <trkpt lat="59.074065685272217" lon="30.016043186187744">
        <time>2026-04-25T08:33:03Z</time>
      </trkpt>
      <trkpt lat="59.074087142944336" lon="30.01615047454834">
        <time>2026-04-25T08:33:05Z</time>
      </trkpt>
      <trkpt lat="59.074087142944336" lon="30.016214847564697">
        <time>2026-04-25T08:33:08Z</time>
      </trkpt>
      <trkpt lat="59.074065685272217" lon="30.016322135925293">
        <time>2026-04-25T08:33:10Z</time>
      </trkpt>
      <trkpt lat="59.074022769927979" lon="30.016343593597412">
        <time>2026-04-25T08:33:13Z</time>
      </trkpt>
      <trkpt lat="59.07397985458374" lon="30.016365051269531">
        <time>2026-04-25T08:33:15Z</time>
      </trkpt>
      <trkpt lat="59.07397985458374" lon="30.016365051269531">
        <time>2026-04-25T08:33:18Z</time>
      </trkpt>
      <trkpt lat="59.073958396911621" lon="30.016365051269531">
        <time>2026-04-25T08:33:20Z</time>
      </trkpt>
      <trkpt lat="59.073936939239502" lon="30.01638650894165">
        <time>2026-04-25T08:33:23Z</time>
      </trkpt>
      <trkpt lat="59.073936939239502" lon="30.016472339630127">
        <time>2026-04-25T08:33:25Z</time>
      </trkpt>
      <trkpt lat="59.073915481567383" lon="30.016515254974365">
        <time>2026-04-25T08:33:28Z</time>
      </trkpt>
      <trkpt lat="59.073915481567383" lon="30.016601085662842">
        <time>2026-04-25T08:33:30Z</time>
      </trkpt>
      <trkpt lat="59.073936939239502" lon="30.016686916351318">
        <time>2026-04-25T08:33:33Z</time>
      </trkpt>
      <trkpt lat="59.073936939239502" lon="30.016815662384033">
        <time>2026-04-25T08:33:35Z</time>
      </trkpt>
      <trkpt lat="59.073958396911621" lon="30.016837120056152">
        <time>2026-04-25T08:33:38Z</time>
      </trkpt>
      <trkpt lat="59.073958396911621" lon="30.016944408416748">
        <time>2026-04-25T08:33:40Z</time>
      </trkpt>
      <trkpt lat="59.073958396911621" lon="30.017030239105225">
        <time>2026-04-25T08:33:43Z</time>
      </trkpt>
      <trkpt lat="59.073915481567383" lon="30.017116069793701">
        <time>2026-04-25T08:33:45Z</time>
      </trkpt>
      <trkpt lat="59.073915481567383" lon="30.017158985137939">
        <time>2026-04-25T08:33:48Z</time>
      </trkpt>
      <trkpt lat="59.073851108551025" lon="30.017223358154297">
        <time>2026-04-25T08:33:50Z</time>
      </trkpt>
      <trkpt lat="59.073808193206787" lon="30.017201900482178">
        <time>2026-04-25T08:33:53Z</time>
      </trkpt>
      <trkpt lat="59.073722362518311" lon="30.017201900482178">
        <time>2026-04-25T08:33:55Z</time>
      </trkpt>
      <trkpt lat="59.073657989501953" lon="30.017223358154297">
        <time>2026-04-25T08:33:58Z</time>
      </trkpt>
      <trkpt lat="59.073593616485596" lon="30.01713752746582">
        <time>2026-04-25T08:34:00Z</time>
      </trkpt>
      <trkpt lat="59.073550701141357" lon="30.01713752746582">
        <time>2026-04-25T08:34:03Z</time>
      </trkpt>
      <trkpt lat="59.073550701141357" lon="30.016944408416748">
        <time>2026-04-25T08:34:05Z</time>
      </trkpt>
      <trkpt lat="59.073593616485596" lon="30.016772747039795">
        <time>2026-04-25T08:34:08Z</time>
      </trkpt>
      <trkpt lat="59.073657989501953" lon="30.016558170318604">
        <time>2026-04-25T08:34:10Z</time>
      </trkpt>
      <trkpt lat="59.073722362518311" lon="30.016472339630127">
        <time>2026-04-25T08:34:13Z</time>
      </trkpt>
      <trkpt lat="59.073808193206787" lon="30.016365051269531">
        <time>2026-04-25T08:34:15Z</time>
      </trkpt>
      <trkpt lat="59.073872566223145" lon="30.016365051269531">
        <time>2026-04-25T08:34:18Z</time>
      </trkpt>
      <trkpt lat="59.073958396911621" lon="30.016365051269531">
        <time>2026-04-25T08:34:20Z</time>
      </trkpt>
      <trkpt lat="59.074022769927979" lon="30.016343593597412">
        <time>2026-04-25T08:34:23Z</time>
      </trkpt>
      <trkpt lat="59.074108600616455" lon="30.016300678253174">
        <time>2026-04-25T08:34:25Z</time>
      </trkpt>
      <trkpt lat="59.074172973632813" lon="30.016279220581055">
        <time>2026-04-25T08:34:28Z</time>
      </trkpt>
      <trkpt lat="59.07423734664917" lon="30.016236305236816">
        <time>2026-04-25T08:34:30Z</time>
      </trkpt>
      <trkpt lat="59.074280261993408" lon="30.016236305236816">
        <time>2026-04-25T08:34:33Z</time>
      </trkpt>
      <trkpt lat="59.074301719665527" lon="30.016300678253174">
        <time>2026-04-25T08:34:35Z</time>
      </trkpt>
      <trkpt lat="59.074323177337646" lon="30.016343593597412">
        <time>2026-04-25T08:34:38Z</time>
      </trkpt>
      <trkpt lat="59.074344635009766" lon="30.016365051269531">
        <time>2026-04-25T08:34:40Z</time>
      </trkpt>
      <trkpt lat="59.074366092681885" lon="30.016322135925293">
        <time>2026-04-25T08:34:43Z</time>
      </trkpt>
      <trkpt lat="59.074366092681885" lon="30.016300678253174">
        <time>2026-04-25T08:34:45Z</time>
      </trkpt>
      <trkpt lat="59.074366092681885" lon="30.016279220581055">
        <time>2026-04-25T08:34:48Z</time>
      </trkpt>
      <trkpt lat="59.074409008026123" lon="30.016279220581055">
        <time>2026-04-25T08:34:50Z</time>
      </trkpt>
      <trkpt lat="59.074409008026123" lon="30.016236305236816">
        <time>2026-04-25T08:34:53Z</time>
      </trkpt>
      <trkpt lat="59.074430465698242" lon="30.016171932220459">
        <time>2026-04-25T08:34:55Z</time>
      </trkpt>
      <trkpt lat="59.074409008026123" lon="30.016171932220459">
        <time>2026-04-25T08:34:58Z</time>
      </trkpt>
      <trkpt lat="59.074409008026123" lon="30.016129016876221">
        <time>2026-04-25T08:35:00Z</time>
      </trkpt>
      <trkpt lat="59.074409008026123" lon="30.016107559204102">
        <time>2026-04-25T08:35:03Z</time>
      </trkpt>
      <trkpt lat="59.074409008026123" lon="30.016086101531982">
        <time>2026-04-25T08:35:05Z</time>
      </trkpt>
      <trkpt lat="59.074409008026123" lon="30.016086101531982">
        <time>2026-04-25T08:35:08Z</time>
      </trkpt>
      <trkpt lat="59.074387550354004" lon="30.016086101531982">
        <time>2026-04-25T08:35:10Z</time>
      </trkpt>
      <trkpt lat="59.074387550354004" lon="30.016129016876221">
        <time>2026-04-25T08:35:13Z</time>
      </trkpt>
      <trkpt lat="59.074366092681885" lon="30.01615047454834">
        <time>2026-04-25T08:35:15Z</time>
      </trkpt>
      <trkpt lat="59.074366092681885" lon="30.016107559204102">
        <time>2026-04-25T08:35:18Z</time>
      </trkpt>
      <trkpt lat="59.074344635009766" lon="30.016107559204102">
        <time>2026-04-25T08:35:20Z</time>
      </trkpt>
      <trkpt lat="59.074323177337646" lon="30.016086101531982">
        <time>2026-04-25T08:35:23Z</time>
      </trkpt>
      <trkpt lat="59.074323177337646" lon="30.016043186187744">
        <time>2026-04-25T08:35:25Z</time>
      </trkpt>
      <trkpt lat="59.074344635009766" lon="30.016043186187744">
        <time>2026-04-25T08:35:28Z</time>
      </trkpt>
      <trkpt lat="59.074366092681885" lon="30.016000270843506">
        <time>2026-04-25T08:35:30Z</time>
      </trkpt>
      <trkpt lat="59.074387550354004" lon="30.016000270843506">
        <time>2026-04-25T08:35:33Z</time>
      </trkpt>
      <trkpt lat="59.074430465698242" lon="30.016000270843506">
        <time>2026-04-25T08:35:35Z</time>
      </trkpt>
      <trkpt lat="59.074451923370361" lon="30.015978813171387">
        <time>2026-04-25T08:35:38Z</time>
      </trkpt>
      <trkpt lat="59.07447338104248" lon="30.016000270843506">
        <time>2026-04-25T08:35:40Z</time>
      </trkpt>
      <trkpt lat="59.0744948387146" lon="30.016000270843506">
        <time>2026-04-25T08:35:43Z</time>
      </trkpt>
      <trkpt lat="59.074516296386719" lon="30.016021728515625">
        <time>2026-04-25T08:35:45Z</time>
      </trkpt>
      <trkpt lat="59.074537754058838" lon="30.016043186187744">
        <time>2026-04-25T08:35:48Z</time>
      </trkpt>
      <trkpt lat="59.074580669403076" lon="30.016064643859863">
        <time>2026-04-25T08:35:50Z</time>
      </trkpt>
      <trkpt lat="59.074580669403076" lon="30.016064643859863">
        <time>2026-04-25T08:35:53Z</time>
      </trkpt>
      <trkpt lat="59.074623584747314" lon="30.016107559204102">
        <time>2026-04-25T08:35:55Z</time>
      </trkpt>
      <trkpt lat="59.074623584747314" lon="30.016129016876221">
        <time>2026-04-25T08:35:58Z</time>
      </trkpt>
      <trkpt lat="59.074645042419434" lon="30.016171932220459">
        <time>2026-04-25T08:36:00Z</time>
      </trkpt>
      <trkpt lat="59.074666500091553" lon="30.016171932220459">
        <time>2026-04-25T08:36:03Z</time>
      </trkpt>
      <trkpt lat="59.074687957763672" lon="30.016214847564697">
        <time>2026-04-25T08:36:05Z</time>
      </trkpt>
      <trkpt lat="59.074687957763672" lon="30.016300678253174">
        <time>2026-04-25T08:36:08Z</time>
      </trkpt>
      <trkpt lat="59.074709415435791" lon="30.016322135925293">
        <time>2026-04-25T08:36:10Z</time>
      </trkpt>
      <trkpt lat="59.074709415435791" lon="30.016322135925293">
        <time>2026-04-25T08:36:13Z</time>
      </trkpt>
      <trkpt lat="59.07473087310791" lon="30.016343593597412">
        <time>2026-04-25T08:36:15Z</time>
      </trkpt>
      <trkpt lat="59.07473087310791" lon="30.016322135925293">
        <time>2026-04-25T08:36:18Z</time>
      </trkpt>
      <trkpt lat="59.07473087310791" lon="30.016300678253174">
        <time>2026-04-25T08:36:20Z</time>
      </trkpt>
      <trkpt lat="59.074752330780029" lon="30.016257762908936">
        <time>2026-04-25T08:36:23Z</time>
      </trkpt>
      <trkpt lat="59.074773788452148" lon="30.016214847564697">
        <time>2026-04-25T08:36:25Z</time>
      </trkpt>
      <trkpt lat="59.074795246124268" lon="30.016214847564697">
        <time>2026-04-25T08:36:28Z</time>
      </trkpt>
      <trkpt lat="59.074838161468506" lon="30.016214847564697">
        <time>2026-04-25T08:36:30Z</time>
      </trkpt>
      <trkpt lat="59.074859619140625" lon="30.016214847564697">
        <time>2026-04-25T08:36:33Z</time>
      </trkpt>
      <trkpt lat="59.074881076812744" lon="30.016236305236816">
        <time>2026-04-25T08:36:35Z</time>
      </trkpt>
      <trkpt lat="59.074881076812744" lon="30.016236305236816">
        <time>2026-04-25T08:36:38Z</time>
      </trkpt>
      <trkpt lat="59.074881076812744" lon="30.016214847564697">
        <time>2026-04-25T08:36:40Z</time>
      </trkpt>
      <trkpt lat="59.074859619140625" lon="30.016193389892578">
        <time>2026-04-25T08:36:43Z</time>
      </trkpt>
      <trkpt lat="59.074881076812744" lon="30.016193389892578">
        <time>2026-04-25T08:36:45Z</time>
      </trkpt>
      <trkpt lat="59.074881076812744" lon="30.016129016876221">
        <time>2026-04-25T08:36:50Z</time>
      </trkpt>
      <trkpt lat="59.074838161468506" lon="30.016086101531982">
        <time>2026-04-25T08:36:53Z</time>
      </trkpt>
      <trkpt lat="59.074773788452148" lon="30.016043186187744">
        <time>2026-04-25T08:36:55Z</time>
      </trkpt>
      <trkpt lat="59.07473087310791" lon="30.016000270843506">
        <time>2026-04-25T08:36:58Z</time>
      </trkpt>
      <trkpt lat="59.074666500091553" lon="30.015914440155029">
        <time>2026-04-25T08:37:00Z</time>
      </trkpt>
      <trkpt lat="59.074602127075195" lon="30.015850067138672">
        <time>2026-04-25T08:37:03Z</time>
      </trkpt>
      <trkpt lat="59.074537754058838" lon="30.015785694122314">
        <time>2026-04-25T08:37:05Z</time>
      </trkpt>
      <trkpt lat="59.074516296386719" lon="30.015871524810791">
        <time>2026-04-25T08:37:08Z</time>
      </trkpt>
      <trkpt lat="59.0744948387146" lon="30.016000270843506">
        <time>2026-04-25T08:37:10Z</time>
      </trkpt>
      <trkpt lat="59.074537754058838" lon="30.016021728515625">
        <time>2026-04-25T08:37:13Z</time>
      </trkpt>
      <trkpt lat="59.074559211730957" lon="30.016021728515625">
        <time>2026-04-25T08:37:15Z</time>
      </trkpt>
      <trkpt lat="59.074559211730957" lon="30.016021728515625">
        <time>2026-04-25T08:37:18Z</time>
      </trkpt>
      <trkpt lat="59.074559211730957" lon="30.016021728515625">
        <time>2026-04-25T08:37:20Z</time>
      </trkpt>
      <trkpt lat="59.074559211730957" lon="30.016021728515625">
        <time>2026-04-25T08:37:23Z</time>
      </trkpt>
      <trkpt lat="59.074580669403076" lon="30.016021728515625">
        <time>2026-04-25T08:37:25Z</time>
      </trkpt>
      <trkpt lat="59.074602127075195" lon="30.016000270843506">
        <time>2026-04-25T08:37:28Z</time>
      </trkpt>
      <trkpt lat="59.074645042419434" lon="30.015978813171387">
        <time>2026-04-25T08:37:30Z</time>
      </trkpt>
      <trkpt lat="59.074687957763672" lon="30.015957355499268">
        <time>2026-04-25T08:37:33Z</time>
      </trkpt>
      <trkpt lat="59.07473087310791" lon="30.015914440155029">
        <time>2026-04-25T08:37:35Z</time>
      </trkpt>
      <trkpt lat="59.074752330780029" lon="30.015935897827148">
        <time>2026-04-25T08:37:38Z</time>
      </trkpt>
      <trkpt lat="59.074816703796387" lon="30.015935897827148">
        <time>2026-04-25T08:37:40Z</time>
      </trkpt>
      <trkpt lat="59.074859619140625" lon="30.015957355499268">
        <time>2026-04-25T08:37:43Z</time>
      </trkpt>
      <trkpt lat="59.074902534484863" lon="30.015978813171387">
        <time>2026-04-25T08:37:45Z</time>
      </trkpt>
      <trkpt lat="59.074902534484863" lon="30.016000270843506">
        <time>2026-04-25T08:37:48Z</time>
      </trkpt>
      <trkpt lat="59.074881076812744" lon="30.016043186187744">
        <time>2026-04-25T08:37:50Z</time>
      </trkpt>
      <trkpt lat="59.074881076812744" lon="30.016043186187744">
        <time>2026-04-25T08:37:53Z</time>
      </trkpt>
      <trkpt lat="59.074859619140625" lon="30.016086101531982">
        <time>2026-04-25T08:37:55Z</time>
      </trkpt>
      <trkpt lat="59.074859619140625" lon="30.016107559204102">
        <time>2026-04-25T08:37:58Z</time>
      </trkpt>
      <trkpt lat="59.074859619140625" lon="30.016107559204102">
        <time>2026-04-25T08:38:00Z</time>
      </trkpt>
      <trkpt lat="59.074881076812744" lon="30.016107559204102">
        <time>2026-04-25T08:38:03Z</time>
      </trkpt>
      <trkpt lat="59.074881076812744" lon="30.016064643859863">
        <time>2026-04-25T08:38:05Z</time>
      </trkpt>
      <trkpt lat="59.074902534484863" lon="30.016000270843506">
        <time>2026-04-25T08:38:08Z</time>
      </trkpt>
      <trkpt lat="59.074923992156982" lon="30.015850067138672">
        <time>2026-04-25T08:38:13Z</time>
      </trkpt>
      <trkpt lat="59.074945449829102" lon="30.015764236450195">
        <time>2026-04-25T08:38:15Z</time>
      </trkpt>
      <trkpt lat="59.074966907501221" lon="30.015742778778076">
        <time>2026-04-25T08:38:18Z</time>
      </trkpt>
      <trkpt lat="59.074966907501221" lon="30.0156569480896">
        <time>2026-04-25T08:38:20Z</time>
      </trkpt>
      <trkpt lat="59.07498836517334" lon="30.015592575073242">
        <time>2026-04-25T08:38:23Z</time>
      </trkpt>
      <trkpt lat="59.07498836517334" lon="30.015571117401123">
        <time>2026-04-25T08:38:25Z</time>
      </trkpt>
      <trkpt lat="59.07498836517334" lon="30.015549659729004">
        <time>2026-04-25T08:38:28Z</time>
      </trkpt>
      <trkpt lat="59.074966907501221" lon="30.015485286712646">
        <time>2026-04-25T08:38:30Z</time>
      </trkpt>
      <trkpt lat="59.074966907501221" lon="30.015420913696289">
        <time>2026-04-25T08:38:33Z</time>
      </trkpt>
      <trkpt lat="59.074945449829102" lon="30.015356540679932">
        <time>2026-04-25T08:38:35Z</time>
      </trkpt>
      <trkpt lat="59.074945449829102" lon="30.015313625335693">
        <time>2026-04-25T08:38:38Z</time>
      </trkpt>
      <trkpt lat="59.074945449829102" lon="30.015249252319336">
        <time>2026-04-25T08:38:40Z</time>
      </trkpt>
      <trkpt lat="59.074945449829102" lon="30.015227794647217">
        <time>2026-04-25T08:38:43Z</time>
      </trkpt>
      <trkpt lat="59.074945449829102" lon="30.015249252319336">
        <time>2026-04-25T08:38:45Z</time>
      </trkpt>
      <trkpt lat="59.074945449829102" lon="30.015249252319336">
        <time>2026-04-25T08:38:48Z</time>
      </trkpt>
      <trkpt lat="59.074945449829102" lon="30.015249252319336">
        <time>2026-04-25T08:38:50Z</time>
      </trkpt>
      <trkpt lat="59.074945449829102" lon="30.015249252319336">
        <time>2026-04-25T08:38:53Z</time>
      </trkpt>
      <trkpt lat="59.074945449829102" lon="30.015335083007812">
        <time>2026-04-25T08:38:55Z</time>
      </trkpt>
      <trkpt lat="59.074966907501221" lon="30.01539945602417">
        <time>2026-04-25T08:38:58Z</time>
      </trkpt>
      <trkpt lat="59.075031280517578" lon="30.015506744384766">
        <time>2026-04-25T08:39:00Z</time>
      </trkpt>
      <trkpt lat="59.075095653533936" lon="30.015549659729004">
        <time>2026-04-25T08:39:03Z</time>
      </trkpt>
      <trkpt lat="59.075160026550293" lon="30.015528202056885">
        <time>2026-04-25T08:39:05Z</time>
      </trkpt>
      <trkpt lat="59.075181484222412" lon="30.015528202056885">
        <time>2026-04-25T08:39:08Z</time>
      </trkpt>
      <trkpt lat="59.075181484222412" lon="30.015614032745361">
        <time>2026-04-25T08:39:10Z</time>
      </trkpt>
      <trkpt lat="59.075181484222412" lon="30.01563549041748">
        <time>2026-04-25T08:39:13Z</time>
      </trkpt>
      <trkpt lat="59.075181484222412" lon="30.01563549041748">
        <time>2026-04-25T08:39:15Z</time>
      </trkpt>
      <trkpt lat="59.075181484222412" lon="30.01563549041748">
        <time>2026-04-25T08:39:18Z</time>
      </trkpt>
      <trkpt lat="59.07522439956665" lon="30.01563549041748">
        <time>2026-04-25T08:39:20Z</time>
      </trkpt>
      <trkpt lat="59.07524585723877" lon="30.015592575073242">
        <time>2026-04-25T08:39:23Z</time>
      </trkpt>
      <trkpt lat="59.075267314910889" lon="30.015592575073242">
        <time>2026-04-25T08:39:25Z</time>
      </trkpt>
      <trkpt lat="59.075288772583008" lon="30.015571117401123">
        <time>2026-04-25T08:39:28Z</time>
      </trkpt>
      <trkpt lat="59.075310230255127" lon="30.015549659729004">
        <time>2026-04-25T08:39:30Z</time>
      </trkpt>
      <trkpt lat="59.075310230255127" lon="30.015506744384766">
        <time>2026-04-25T08:39:33Z</time>
      </trkpt>
      <trkpt lat="59.075310230255127" lon="30.015463829040527">
        <time>2026-04-25T08:39:35Z</time>
      </trkpt>
      <trkpt lat="59.075288772583008" lon="30.015442371368408">
        <time>2026-04-25T08:39:38Z</time>
      </trkpt>
      <trkpt lat="59.075288772583008" lon="30.01539945602417">
        <time>2026-04-25T08:39:40Z</time>
      </trkpt>
      <trkpt lat="59.075288772583008" lon="30.01539945602417">
        <time>2026-04-25T08:39:43Z</time>
      </trkpt>
      <trkpt lat="59.075288772583008" lon="30.01539945602417">
        <time>2026-04-25T08:39:45Z</time>
      </trkpt>
      <trkpt lat="59.075288772583008" lon="30.01539945602417">
        <time>2026-04-25T08:39:48Z</time>
      </trkpt>
      <trkpt lat="59.075288772583008" lon="30.015377998352051">
        <time>2026-04-25T08:39:50Z</time>
      </trkpt>
      <trkpt lat="59.075267314910889" lon="30.015356540679932">
        <time>2026-04-25T08:39:53Z</time>
      </trkpt>
      <trkpt lat="59.075288772583008" lon="30.015377998352051">
        <time>2026-04-25T08:39:55Z</time>
      </trkpt>
      <trkpt lat="59.075331687927246" lon="30.015377998352051">
        <time>2026-04-25T08:39:58Z</time>
      </trkpt>
      <trkpt lat="59.075374603271484" lon="30.015377998352051">
        <time>2026-04-25T08:40:00Z</time>
      </trkpt>
      <trkpt lat="59.075374603271484" lon="30.015356540679932">
        <time>2026-04-25T08:40:03Z</time>
      </trkpt>
      <trkpt lat="59.075353145599365" lon="30.015313625335693">
        <time>2026-04-25T08:40:05Z</time>
      </trkpt>
      <trkpt lat="59.075374603271484" lon="30.015292167663574">
        <time>2026-04-25T08:40:08Z</time>
      </trkpt>
      <trkpt lat="59.075396060943604" lon="30.015227794647217">
        <time>2026-04-25T08:40:10Z</time>
      </trkpt>
      <trkpt lat="59.075396060943604" lon="30.015206336975098">
        <time>2026-04-25T08:40:13Z</time>
      </trkpt>
      <trkpt lat="59.075396060943604" lon="30.01514196395874">
        <time>2026-04-25T08:40:15Z</time>
      </trkpt>
      <trkpt lat="59.075396060943604" lon="30.01514196395874">
        <time>2026-04-25T08:40:18Z</time>
      </trkpt>
      <trkpt lat="59.075396060943604" lon="30.01514196395874">
        <time>2026-04-25T08:40:20Z</time>
      </trkpt>
      <trkpt lat="59.075374603271484" lon="30.01514196395874">
        <time>2026-04-25T08:40:23Z</time>
      </trkpt>
      <trkpt lat="59.075396060943604" lon="30.015099048614502">
        <time>2026-04-25T08:40:25Z</time>
      </trkpt>
      <trkpt lat="59.075374603271484" lon="30.015056133270264">
        <time>2026-04-25T08:40:28Z</time>
      </trkpt>
      <trkpt lat="59.075374603271484" lon="30.015056133270264">
        <time>2026-04-25T08:40:30Z</time>
      </trkpt>
      <trkpt lat="59.075374603271484" lon="30.015034675598145">
        <time>2026-04-25T08:40:33Z</time>
      </trkpt>
      <trkpt lat="59.075353145599365" lon="30.015034675598145">
        <time>2026-04-25T08:40:35Z</time>
      </trkpt>
      <trkpt lat="59.075374603271484" lon="30.015034675598145">
        <time>2026-04-25T08:40:38Z</time>
      </trkpt>
      <trkpt lat="59.075374603271484" lon="30.015034675598145">
        <time>2026-04-25T08:40:40Z</time>
      </trkpt>
      <trkpt lat="59.075374603271484" lon="30.015013217926025">
        <time>2026-04-25T08:40:43Z</time>
      </trkpt>
      <trkpt lat="59.075374603271484" lon="30.015013217926025">
        <time>2026-04-25T08:40:45Z</time>
      </trkpt>
      <trkpt lat="59.075374603271484" lon="30.015013217926025">
        <time>2026-04-25T08:40:48Z</time>
      </trkpt>
      <trkpt lat="59.075374603271484" lon="30.015013217926025">
        <time>2026-04-25T08:40:50Z</time>
      </trkpt>
      <trkpt lat="59.075374603271484" lon="30.015013217926025">
        <time>2026-04-25T08:40:53Z</time>
      </trkpt>
      <trkpt lat="59.075374603271484" lon="30.015013217926025">
        <time>2026-04-25T08:40:55Z</time>
      </trkpt>
      <trkpt lat="59.075374603271484" lon="30.015013217926025">
        <time>2026-04-25T08:40:58Z</time>
      </trkpt>
      <trkpt lat="59.075374603271484" lon="30.015013217926025">
        <time>2026-04-25T08:41:00Z</time>
      </trkpt>
      <trkpt lat="59.075374603271484" lon="30.014991760253906">
        <time>2026-04-25T08:41:03Z</time>
      </trkpt>
      <trkpt lat="59.075396060943604" lon="30.014991760253906">
        <time>2026-04-25T08:41:05Z</time>
      </trkpt>
      <trkpt lat="59.075396060943604" lon="30.014991760253906">
        <time>2026-04-25T08:41:08Z</time>
      </trkpt>
      <trkpt lat="59.075374603271484" lon="30.015013217926025">
        <time>2026-04-25T08:41:10Z</time>
      </trkpt>
      <trkpt lat="59.075374603271484" lon="30.015013217926025">
        <time>2026-04-25T08:41:13Z</time>
      </trkpt>
      <trkpt lat="59.075374603271484" lon="30.015013217926025">
        <time>2026-04-25T08:41:15Z</time>
      </trkpt>
      <trkpt lat="59.075374603271484" lon="30.015013217926025">
        <time>2026-04-25T08:41:18Z</time>
      </trkpt>
      <trkpt lat="59.075374603271484" lon="30.015013217926025">
        <time>2026-04-25T08:41:20Z</time>
      </trkpt>
      <trkpt lat="59.075396060943604" lon="30.015034675598145">
        <time>2026-04-25T08:41:23Z</time>
      </trkpt>
      <trkpt lat="59.075396060943604" lon="30.015034675598145">
        <time>2026-04-25T08:41:25Z</time>
      </trkpt>
      <trkpt lat="59.075396060943604" lon="30.015056133270264">
        <time>2026-04-25T08:41:28Z</time>
      </trkpt>
      <trkpt lat="59.075396060943604" lon="30.015099048614502">
        <time>2026-04-25T08:41:30Z</time>
      </trkpt>
      <trkpt lat="59.075417518615723" lon="30.015099048614502">
        <time>2026-04-25T08:41:33Z</time>
      </trkpt>
      <trkpt lat="59.075417518615723" lon="30.015120506286621">
        <time>2026-04-25T08:41:35Z</time>
      </trkpt>
      <trkpt lat="59.075396060943604" lon="30.015120506286621">
        <time>2026-04-25T08:41:38Z</time>
      </trkpt>
      <trkpt lat="59.075396060943604" lon="30.01514196395874">
        <time>2026-04-25T08:41:40Z</time>
      </trkpt>
      <trkpt lat="59.075396060943604" lon="30.015184879302979">
        <time>2026-04-25T08:41:43Z</time>
      </trkpt>
      <trkpt lat="59.075438976287842" lon="30.015292167663574">
        <time>2026-04-25T08:41:45Z</time>
      </trkpt>
      <trkpt lat="59.075438976287842" lon="30.015356540679932">
        <time>2026-04-25T08:41:48Z</time>
      </trkpt>
      <trkpt lat="59.075460433959961" lon="30.015377998352051">
        <time>2026-04-25T08:41:50Z</time>
      </trkpt>
      <trkpt lat="59.075503349304199" lon="30.015420913696289">
        <time>2026-04-25T08:41:53Z</time>
      </trkpt>
      <trkpt lat="59.075546264648438" lon="30.015377998352051">
        <time>2026-04-25T08:41:55Z</time>
      </trkpt>
      <trkpt lat="59.075610637664795" lon="30.015356540679932">
        <time>2026-04-25T08:41:58Z</time>
      </trkpt>
      <trkpt lat="59.075696468353271" lon="30.015377998352051">
        <time>2026-04-25T08:42:00Z</time>
      </trkpt>
      <trkpt lat="59.07573938369751" lon="30.015377998352051">
        <time>2026-04-25T08:42:03Z</time>
      </trkpt>
      <trkpt lat="59.075782299041748" lon="30.01539945602417">
        <time>2026-04-25T08:42:05Z</time>
      </trkpt>
      <trkpt lat="59.075803756713867" lon="30.015420913696289">
        <time>2026-04-25T08:42:08Z</time>
      </trkpt>
      <trkpt lat="59.075803756713867" lon="30.01539945602417">
        <time>2026-04-25T08:42:10Z</time>
      </trkpt>
      <trkpt lat="59.075825214385986" lon="30.01539945602417">
        <time>2026-04-25T08:42:13Z</time>
      </trkpt>
      <trkpt lat="59.075825214385986" lon="30.015356540679932">
        <time>2026-04-25T08:42:15Z</time>
      </trkpt>
      <trkpt lat="59.075803756713867" lon="30.015335083007812">
        <time>2026-04-25T08:42:18Z</time>
      </trkpt>
      <trkpt lat="59.075803756713867" lon="30.015335083007812">
        <time>2026-04-25T08:42:20Z</time>
      </trkpt>
      <trkpt lat="59.075803756713867" lon="30.015377998352051">
        <time>2026-04-25T08:42:23Z</time>
      </trkpt>
      <trkpt lat="59.075825214385986" lon="30.01539945602417">
        <time>2026-04-25T08:42:25Z</time>
      </trkpt>
      <trkpt lat="59.075825214385986" lon="30.015420913696289">
        <time>2026-04-25T08:42:28Z</time>
      </trkpt>
      <trkpt lat="59.075868129730225" lon="30.01539945602417">
        <time>2026-04-25T08:42:30Z</time>
      </trkpt>
      <trkpt lat="59.075868129730225" lon="30.01539945602417">
        <time>2026-04-25T08:42:33Z</time>
      </trkpt>
      <trkpt lat="59.075868129730225" lon="30.01539945602417">
        <time>2026-04-25T08:42:35Z</time>
      </trkpt>
      <trkpt lat="59.075889587402344" lon="30.015377998352051">
        <time>2026-04-25T08:42:38Z</time>
      </trkpt>
      <trkpt lat="59.075889587402344" lon="30.015377998352051">
        <time>2026-04-25T08:42:40Z</time>
      </trkpt>
      <trkpt lat="59.075889587402344" lon="30.015377998352051">
        <time>2026-04-25T08:42:43Z</time>
      </trkpt>
      <trkpt lat="59.075889587402344" lon="30.015377998352051">
        <time>2026-04-25T08:42:45Z</time>
      </trkpt>
      <trkpt lat="59.075889587402344" lon="30.015377998352051">
        <time>2026-04-25T08:42:48Z</time>
      </trkpt>
      <trkpt lat="59.075889587402344" lon="30.015377998352051">
        <time>2026-04-25T08:42:50Z</time>
      </trkpt>
      <trkpt lat="59.075889587402344" lon="30.015377998352051">
        <time>2026-04-25T08:42:53Z</time>
      </trkpt>
      <trkpt lat="59.075889587402344" lon="30.015356540679932">
        <time>2026-04-25T08:42:55Z</time>
      </trkpt>
      <trkpt lat="59.075911045074463" lon="30.015377998352051">
        <time>2026-04-25T08:42:58Z</time>
      </trkpt>
      <trkpt lat="59.075932502746582" lon="30.015377998352051">
        <time>2026-04-25T08:43:00Z</time>
      </trkpt>
      <trkpt lat="59.075953960418701" lon="30.015377998352051">
        <time>2026-04-25T08:43:03Z</time>
      </trkpt>
      <trkpt lat="59.07597541809082" lon="30.015356540679932">
        <time>2026-04-25T08:43:05Z</time>
      </trkpt>
      <trkpt lat="59.075996875762939" lon="30.015356540679932">
        <time>2026-04-25T08:43:08Z</time>
      </trkpt>
      <trkpt lat="59.075996875762939" lon="30.015335083007812">
        <time>2026-04-25T08:43:10Z</time>
      </trkpt>
      <trkpt lat="59.075996875762939" lon="30.015335083007812">
        <time>2026-04-25T08:43:13Z</time>
      </trkpt>
      <trkpt lat="59.076018333435059" lon="30.015335083007812">
        <time>2026-04-25T08:43:15Z</time>
      </trkpt>
      <trkpt lat="59.076018333435059" lon="30.015335083007812">
        <time>2026-04-25T08:43:18Z</time>
      </trkpt>
      <trkpt lat="59.076039791107178" lon="30.015356540679932">
        <time>2026-04-25T08:43:20Z</time>
      </trkpt>
      <trkpt lat="59.076082706451416" lon="30.015377998352051">
        <time>2026-04-25T08:43:23Z</time>
      </trkpt>
      <trkpt lat="59.076125621795654" lon="30.015377998352051">
        <time>2026-04-25T08:43:25Z</time>
      </trkpt>
      <trkpt lat="59.076147079467773" lon="30.015377998352051">
        <time>2026-04-25T08:43:28Z</time>
      </trkpt>
      <trkpt lat="59.076168537139893" lon="30.01539945602417">
        <time>2026-04-25T08:43:30Z</time>
      </trkpt>
      <trkpt lat="59.076168537139893" lon="30.01539945602417">
        <time>2026-04-25T08:43:33Z</time>
      </trkpt>
      <trkpt lat="59.076168537139893" lon="30.01539945602417">
        <time>2026-04-25T08:43:35Z</time>
      </trkpt>
      <trkpt lat="59.076168537139893" lon="30.01539945602417">
        <time>2026-04-25T08:43:38Z</time>
      </trkpt>
      <trkpt lat="59.076168537139893" lon="30.015377998352051">
        <time>2026-04-25T08:43:40Z</time>
      </trkpt>
      <trkpt lat="59.076189994812012" lon="30.015356540679932">
        <time>2026-04-25T08:43:43Z</time>
      </trkpt>
      <trkpt lat="59.076211452484131" lon="30.015377998352051">
        <time>2026-04-25T08:43:45Z</time>
      </trkpt>
      <trkpt lat="59.076254367828369" lon="30.015356540679932">
        <time>2026-04-25T08:43:48Z</time>
      </trkpt>
      <trkpt lat="59.076275825500488" lon="30.015356540679932">
        <time>2026-04-25T08:43:50Z</time>
      </trkpt>
      <trkpt lat="59.076254367828369" lon="30.015335083007812">
        <time>2026-04-25T08:43:53Z</time>
      </trkpt>
      <trkpt lat="59.076254367828369" lon="30.015335083007812">
        <time>2026-04-25T08:43:55Z</time>
      </trkpt>
      <trkpt lat="59.076275825500488" lon="30.015356540679932">
        <time>2026-04-25T08:43:58Z</time>
      </trkpt>
      <trkpt lat="59.076297283172607" lon="30.015377998352051">
        <time>2026-04-25T08:44:00Z</time>
      </trkpt>
      <trkpt lat="59.076318740844727" lon="30.015420913696289">
        <time>2026-04-25T08:44:03Z</time>
      </trkpt>
      <trkpt lat="59.076361656188965" lon="30.015463829040527">
        <time>2026-04-25T08:44:05Z</time>
      </trkpt>
      <trkpt lat="59.076383113861084" lon="30.015463829040527">
        <time>2026-04-25T08:44:08Z</time>
      </trkpt>
      <trkpt lat="59.076404571533203" lon="30.015442371368408">
        <time>2026-04-25T08:44:10Z</time>
      </trkpt>
      <trkpt lat="59.076426029205322" lon="30.015442371368408">
        <time>2026-04-25T08:44:13Z</time>
      </trkpt>
      <trkpt lat="59.076447486877441" lon="30.01539945602417">
        <time>2026-04-25T08:44:15Z</time>
      </trkpt>
      <trkpt lat="59.076468944549561" lon="30.015377998352051">
        <time>2026-04-25T08:44:18Z</time>
      </trkpt>
      <trkpt lat="59.07649040222168" lon="30.015335083007812">
        <time>2026-04-25T08:44:20Z</time>
      </trkpt>
      <trkpt lat="59.07649040222168" lon="30.015313625335693">
        <time>2026-04-25T08:44:23Z</time>
      </trkpt>
      <trkpt lat="59.076468944549561" lon="30.015292167663574">
        <time>2026-04-25T08:44:25Z</time>
      </trkpt>
      <trkpt lat="59.076447486877441" lon="30.015270709991455">
        <time>2026-04-25T08:44:28Z</time>
      </trkpt>
      <trkpt lat="59.076468944549561" lon="30.015249252319336">
        <time>2026-04-25T08:44:30Z</time>
      </trkpt>
      <trkpt lat="59.076468944549561" lon="30.015227794647217">
        <time>2026-04-25T08:44:33Z</time>
      </trkpt>
      <trkpt lat="59.07649040222168" lon="30.015206336975098">
        <time>2026-04-25T08:44:35Z</time>
      </trkpt>
      <trkpt lat="59.076511859893799" lon="30.015184879302979">
        <time>2026-04-25T08:44:38Z</time>
      </trkpt>
      <trkpt lat="59.07649040222168" lon="30.015184879302979">
        <time>2026-04-25T08:44:40Z</time>
      </trkpt>
      <trkpt lat="59.07649040222168" lon="30.01514196395874">
        <time>2026-04-25T08:44:43Z</time>
      </trkpt>
      <trkpt lat="59.07649040222168" lon="30.015120506286621">
        <time>2026-04-25T08:44:45Z</time>
      </trkpt>
      <trkpt lat="59.07649040222168" lon="30.015099048614502">
        <time>2026-04-25T08:44:48Z</time>
      </trkpt>
      <trkpt lat="59.07649040222168" lon="30.015077590942383">
        <time>2026-04-25T08:44:50Z</time>
      </trkpt>
      <trkpt lat="59.07649040222168" lon="30.015077590942383">
        <time>2026-04-25T08:44:53Z</time>
      </trkpt>
      <trkpt lat="59.07649040222168" lon="30.015099048614502">
        <time>2026-04-25T08:44:55Z</time>
      </trkpt>
      <trkpt lat="59.076468944549561" lon="30.015077590942383">
        <time>2026-04-25T08:44:58Z</time>
      </trkpt>
      <trkpt lat="59.076447486877441" lon="30.015056133270264">
        <time>2026-04-25T08:45:00Z</time>
      </trkpt>
      <trkpt lat="59.076404571533203" lon="30.015034675598145">
        <time>2026-04-25T08:45:03Z</time>
      </trkpt>
      <trkpt lat="59.076383113861084" lon="30.014991760253906">
        <time>2026-04-25T08:45:05Z</time>
      </trkpt>
      <trkpt lat="59.076383113861084" lon="30.014991760253906">
        <time>2026-04-25T08:45:08Z</time>
      </trkpt>
      <trkpt lat="59.076383113861084" lon="30.014970302581787">
        <time>2026-04-25T08:45:10Z</time>
      </trkpt>
      <trkpt lat="59.076361656188965" lon="30.014970302581787">
        <time>2026-04-25T08:45:13Z</time>
      </trkpt>
      <trkpt lat="59.076340198516846" lon="30.014948844909668">
        <time>2026-04-25T08:45:15Z</time>
      </trkpt>
      <trkpt lat="59.076318740844727" lon="30.014948844909668">
        <time>2026-04-25T08:45:18Z</time>
      </trkpt>
      <trkpt lat="59.076275825500488" lon="30.014863014221191">
        <time>2026-04-25T08:45:20Z</time>
      </trkpt>
      <trkpt lat="59.076254367828369" lon="30.014841556549072">
        <time>2026-04-25T08:45:23Z</time>
      </trkpt>
      <trkpt lat="59.076254367828369" lon="30.014820098876953">
        <time>2026-04-25T08:45:25Z</time>
      </trkpt>
      <trkpt lat="59.076254367828369" lon="30.014820098876953">
        <time>2026-04-25T08:45:28Z</time>
      </trkpt>
      <trkpt lat="59.076254367828369" lon="30.014820098876953">
        <time>2026-04-25T08:45:30Z</time>
      </trkpt>
      <trkpt lat="59.07623291015625" lon="30.014820098876953">
        <time>2026-04-25T08:45:33Z</time>
      </trkpt>
      <trkpt lat="59.076189994812012" lon="30.014863014221191">
        <time>2026-04-25T08:45:35Z</time>
      </trkpt>
      <trkpt lat="59.076168537139893" lon="30.014884471893311">
        <time>2026-04-25T08:45:38Z</time>
      </trkpt>
      <trkpt lat="59.076125621795654" lon="30.01490592956543">
        <time>2026-04-25T08:45:40Z</time>
      </trkpt>
      <trkpt lat="59.076125621795654" lon="30.014927387237549">
        <time>2026-04-25T08:45:43Z</time>
      </trkpt>
      <trkpt lat="59.076125621795654" lon="30.015034675598145">
        <time>2026-04-25T08:45:45Z</time>
      </trkpt>
      <trkpt lat="59.076147079467773" lon="30.015120506286621">
        <time>2026-04-25T08:45:48Z</time>
      </trkpt>
      <trkpt lat="59.076189994812012" lon="30.015227794647217">
        <time>2026-04-25T08:45:50Z</time>
      </trkpt>
      <trkpt lat="59.07623291015625" lon="30.015292167663574">
        <time>2026-04-25T08:45:53Z</time>
      </trkpt>
      <trkpt lat="59.076340198516846" lon="30.01539945602417">
        <time>2026-04-25T08:45:58Z</time>
      </trkpt>
      <trkpt lat="59.076383113861084" lon="30.015463829040527">
        <time>2026-04-25T08:46:00Z</time>
      </trkpt>
      <trkpt lat="59.076383113861084" lon="30.015463829040527">
        <time>2026-04-25T08:46:03Z</time>
      </trkpt>
      <trkpt lat="59.076383113861084" lon="30.015463829040527">
        <time>2026-04-25T08:46:05Z</time>
      </trkpt>
      <trkpt lat="59.076383113861084" lon="30.015463829040527">
        <time>2026-04-25T08:46:08Z</time>
      </trkpt>
      <trkpt lat="59.076404571533203" lon="30.015463829040527">
        <time>2026-04-25T08:46:10Z</time>
      </trkpt>
      <trkpt lat="59.076426029205322" lon="30.015463829040527">
        <time>2026-04-25T08:46:13Z</time>
      </trkpt>
      <trkpt lat="59.076426029205322" lon="30.015506744384766">
        <time>2026-04-25T08:46:15Z</time>
      </trkpt>
      <trkpt lat="59.076447486877441" lon="30.015506744384766">
        <time>2026-04-25T08:46:18Z</time>
      </trkpt>
      <trkpt lat="59.076468944549561" lon="30.015528202056885">
        <time>2026-04-25T08:46:20Z</time>
      </trkpt>
      <trkpt lat="59.07649040222168" lon="30.015549659729004">
        <time>2026-04-25T08:46:23Z</time>
      </trkpt>
      <trkpt lat="59.076511859893799" lon="30.015571117401123">
        <time>2026-04-25T08:46:25Z</time>
      </trkpt>
      <trkpt lat="59.076533317565918" lon="30.015571117401123">
        <time>2026-04-25T08:46:28Z</time>
      </trkpt>
      <trkpt lat="59.076576232910156" lon="30.015571117401123">
        <time>2026-04-25T08:46:30Z</time>
      </trkpt>
      <trkpt lat="59.076576232910156" lon="30.015549659729004">
        <time>2026-04-25T08:46:33Z</time>
      </trkpt>
      <trkpt lat="59.076597690582275" lon="30.015549659729004">
        <time>2026-04-25T08:46:35Z</time>
      </trkpt>
      <trkpt lat="59.076619148254395" lon="30.015549659729004">
        <time>2026-04-25T08:46:38Z</time>
      </trkpt>
      <trkpt lat="59.076640605926514" lon="30.015549659729004">
        <time>2026-04-25T08:46:40Z</time>
      </trkpt>
      <trkpt lat="59.076619148254395" lon="30.015528202056885">
        <time>2026-04-25T08:46:43Z</time>
      </trkpt>
      <trkpt lat="59.076619148254395" lon="30.015528202056885">
        <time>2026-04-25T08:46:45Z</time>
      </trkpt>
      <trkpt lat="59.076640605926514" lon="30.015549659729004">
        <time>2026-04-25T08:46:48Z</time>
      </trkpt>
      <trkpt lat="59.076662063598633" lon="30.015592575073242">
        <time>2026-04-25T08:46:50Z</time>
      </trkpt>
      <trkpt lat="59.076662063598633" lon="30.015592575073242">
        <time>2026-04-25T08:46:53Z</time>
      </trkpt>
      <trkpt lat="59.076662063598633" lon="30.015592575073242">
        <time>2026-04-25T08:46:55Z</time>
      </trkpt>
      <trkpt lat="59.076662063598633" lon="30.015614032745361">
        <time>2026-04-25T08:46:58Z</time>
      </trkpt>
      <trkpt lat="59.076662063598633" lon="30.015614032745361">
        <time>2026-04-25T08:47:00Z</time>
      </trkpt>
      <trkpt lat="59.076662063598633" lon="30.015614032745361">
        <time>2026-04-25T08:47:03Z</time>
      </trkpt>
      <trkpt lat="59.076662063598633" lon="30.01563549041748">
        <time>2026-04-25T08:47:05Z</time>
      </trkpt>
      <trkpt lat="59.076662063598633" lon="30.01563549041748">
        <time>2026-04-25T08:47:08Z</time>
      </trkpt>
      <trkpt lat="59.076662063598633" lon="30.01563549041748">
        <time>2026-04-25T08:47:10Z</time>
      </trkpt>
      <trkpt lat="59.076662063598633" lon="30.01563549041748">
        <time>2026-04-25T08:47:13Z</time>
      </trkpt>
      <trkpt lat="59.076704978942871" lon="30.0156569480896">
        <time>2026-04-25T08:47:15Z</time>
      </trkpt>
      <trkpt lat="59.07672643661499" lon="30.01563549041748">
        <time>2026-04-25T08:47:18Z</time>
      </trkpt>
      <trkpt lat="59.076790809631348" lon="30.015592575073242">
        <time>2026-04-25T08:47:20Z</time>
      </trkpt>
      <trkpt lat="59.076812267303467" lon="30.015549659729004">
        <time>2026-04-25T08:47:23Z</time>
      </trkpt>
      <trkpt lat="59.076812267303467" lon="30.015528202056885">
        <time>2026-04-25T08:47:25Z</time>
      </trkpt>
      <trkpt lat="59.076790809631348" lon="30.015485286712646">
        <time>2026-04-25T08:47:28Z</time>
      </trkpt>
      <trkpt lat="59.076790809631348" lon="30.015420913696289">
        <time>2026-04-25T08:47:30Z</time>
      </trkpt>
      <trkpt lat="59.076790809631348" lon="30.015377998352051">
        <time>2026-04-25T08:47:33Z</time>
      </trkpt>
      <trkpt lat="59.076790809631348" lon="30.015335083007812">
        <time>2026-04-25T08:47:35Z</time>
      </trkpt>
      <trkpt lat="59.076812267303467" lon="30.015335083007812">
        <time>2026-04-25T08:47:38Z</time>
      </trkpt>
      <trkpt lat="59.076790809631348" lon="30.015335083007812">
        <time>2026-04-25T08:47:40Z</time>
      </trkpt>
      <trkpt lat="59.076812267303467" lon="30.015335083007812">
        <time>2026-04-25T08:47:43Z</time>
      </trkpt>
      <trkpt lat="59.076812267303467" lon="30.015335083007812">
        <time>2026-04-25T08:47:45Z</time>
      </trkpt>
      <trkpt lat="59.076812267303467" lon="30.015313625335693">
        <time>2026-04-25T08:47:48Z</time>
      </trkpt>
      <trkpt lat="59.076769351959229" lon="30.015227794647217">
        <time>2026-04-25T08:47:50Z</time>
      </trkpt>
      <trkpt lat="59.07672643661499" lon="30.015227794647217">
        <time>2026-04-25T08:47:53Z</time>
      </trkpt>
      <trkpt lat="59.076683521270752" lon="30.015184879302979">
        <time>2026-04-25T08:47:55Z</time>
      </trkpt>
      <trkpt lat="59.076683521270752" lon="30.015206336975098">
        <time>2026-04-25T08:47:58Z</time>
      </trkpt>
      <trkpt lat="59.076662063598633" lon="30.015184879302979">
        <time>2026-04-25T08:48:00Z</time>
      </trkpt>
      <trkpt lat="59.076662063598633" lon="30.015163421630859">
        <time>2026-04-25T08:48:03Z</time>
      </trkpt>
      <trkpt lat="59.076640605926514" lon="30.015120506286621">
        <time>2026-04-25T08:48:05Z</time>
      </trkpt>
      <trkpt lat="59.076619148254395" lon="30.015077590942383">
        <time>2026-04-25T08:48:08Z</time>
      </trkpt>
      <trkpt lat="59.076619148254395" lon="30.015013217926025">
        <time>2026-04-25T08:48:10Z</time>
      </trkpt>
      <trkpt lat="59.076619148254395" lon="30.014991760253906">
        <time>2026-04-25T08:48:13Z</time>
      </trkpt>
      <trkpt lat="59.076619148254395" lon="30.014991760253906">
        <time>2026-04-25T08:48:15Z</time>
      </trkpt>
      <trkpt lat="59.076619148254395" lon="30.015013217926025">
        <time>2026-04-25T08:48:18Z</time>
      </trkpt>
      <trkpt lat="59.076597690582275" lon="30.015056133270264">
        <time>2026-04-25T08:48:20Z</time>
      </trkpt>
      <trkpt lat="59.076597690582275" lon="30.015056133270264">
        <time>2026-04-25T08:48:23Z</time>
      </trkpt>
      <trkpt lat="59.076576232910156" lon="30.015013217926025">
        <time>2026-04-25T08:48:25Z</time>
      </trkpt>
      <trkpt lat="59.076576232910156" lon="30.014991760253906">
        <time>2026-04-25T08:48:28Z</time>
      </trkpt>
      <trkpt lat="59.076576232910156" lon="30.014970302581787">
        <time>2026-04-25T08:48:30Z</time>
      </trkpt>
      <trkpt lat="59.076597690582275" lon="30.014927387237549">
        <time>2026-04-25T08:48:33Z</time>
      </trkpt>
      <trkpt lat="59.076619148254395" lon="30.014884471893311">
        <time>2026-04-25T08:48:35Z</time>
      </trkpt>
      <trkpt lat="59.076640605926514" lon="30.014863014221191">
        <time>2026-04-25T08:48:38Z</time>
      </trkpt>
      <trkpt lat="59.076704978942871" lon="30.014884471893311">
        <time>2026-04-25T08:48:40Z</time>
      </trkpt>
      <trkpt lat="59.076747894287109" lon="30.014884471893311">
        <time>2026-04-25T08:48:43Z</time>
      </trkpt>
      <trkpt lat="59.076747894287109" lon="30.014863014221191">
        <time>2026-04-25T08:48:45Z</time>
      </trkpt>
      <trkpt lat="59.076769351959229" lon="30.014863014221191">
        <time>2026-04-25T08:48:48Z</time>
      </trkpt>
      <trkpt lat="59.076790809631348" lon="30.014841556549072">
        <time>2026-04-25T08:48:50Z</time>
      </trkpt>
      <trkpt lat="59.076790809631348" lon="30.014820098876953">
        <time>2026-04-25T08:48:53Z</time>
      </trkpt>
      <trkpt lat="59.076812267303467" lon="30.014777183532715">
        <time>2026-04-25T08:48:55Z</time>
      </trkpt>
      <trkpt lat="59.076833724975586" lon="30.014755725860596">
        <time>2026-04-25T08:48:58Z</time>
      </trkpt>
      <trkpt lat="59.076833724975586" lon="30.014755725860596">
        <time>2026-04-25T08:49:00Z</time>
      </trkpt>
      <trkpt lat="59.076855182647705" lon="30.014755725860596">
        <time>2026-04-25T08:49:03Z</time>
      </trkpt>
      <trkpt lat="59.076898097991943" lon="30.014755725860596">
        <time>2026-04-25T08:49:05Z</time>
      </trkpt>
      <trkpt lat="59.076941013336182" lon="30.014777183532715">
        <time>2026-04-25T08:49:08Z</time>
      </trkpt>
      <trkpt lat="59.077005386352539" lon="30.014798641204834">
        <time>2026-04-25T08:49:10Z</time>
      </trkpt>
      <trkpt lat="59.077026844024658" lon="30.014798641204834">
        <time>2026-04-25T08:49:13Z</time>
      </trkpt>
      <trkpt lat="59.077069759368896" lon="30.014755725860596">
        <time>2026-04-25T08:49:15Z</time>
      </trkpt>
      <trkpt lat="59.077091217041016" lon="30.014712810516357">
        <time>2026-04-25T08:49:18Z</time>
      </trkpt>
      <trkpt lat="59.077091217041016" lon="30.014691352844238">
        <time>2026-04-25T08:49:20Z</time>
      </trkpt>
      <trkpt lat="59.077091217041016" lon="30.014669895172119">
        <time>2026-04-25T08:49:23Z</time>
      </trkpt>
      <trkpt lat="59.077112674713135" lon="30.014626979827881">
        <time>2026-04-25T08:49:25Z</time>
      </trkpt>
      <trkpt lat="59.077112674713135" lon="30.014626979827881">
        <time>2026-04-25T08:49:28Z</time>
      </trkpt>
      <trkpt lat="59.077134132385254" lon="30.014605522155762">
        <time>2026-04-25T08:49:30Z</time>
      </trkpt>
      <trkpt lat="59.077155590057373" lon="30.014584064483643">
        <time>2026-04-25T08:49:33Z</time>
      </trkpt>
      <trkpt lat="59.077177047729492" lon="30.014562606811523">
        <time>2026-04-25T08:49:35Z</time>
      </trkpt>
      <trkpt lat="59.077177047729492" lon="30.014562606811523">
        <time>2026-04-25T08:49:38Z</time>
      </trkpt>
      <trkpt lat="59.077198505401611" lon="30.014562606811523">
        <time>2026-04-25T08:49:40Z</time>
      </trkpt>
      <trkpt lat="59.077198505401611" lon="30.014562606811523">
        <time>2026-04-25T08:49:43Z</time>
      </trkpt>
      <trkpt lat="59.077198505401611" lon="30.014541149139404">
        <time>2026-04-25T08:49:45Z</time>
      </trkpt>
      <trkpt lat="59.077198505401611" lon="30.014541149139404">
        <time>2026-04-25T08:49:48Z</time>
      </trkpt>
      <trkpt lat="59.077198505401611" lon="30.014541149139404">
        <time>2026-04-25T08:49:50Z</time>
      </trkpt>
      <trkpt lat="59.077198505401611" lon="30.014541149139404">
        <time>2026-04-25T08:49:53Z</time>
      </trkpt>
      <trkpt lat="59.077198505401611" lon="30.014541149139404">
        <time>2026-04-25T08:49:55Z</time>
      </trkpt>
      <trkpt lat="59.077198505401611" lon="30.014541149139404">
        <time>2026-04-25T08:49:58Z</time>
      </trkpt>
      <trkpt lat="59.077198505401611" lon="30.014541149139404">
        <time>2026-04-25T08:50:00Z</time>
      </trkpt>
      <trkpt lat="59.077198505401611" lon="30.014541149139404">
        <time>2026-04-25T08:50:03Z</time>
      </trkpt>
      <trkpt lat="59.077198505401611" lon="30.014541149139404">
        <time>2026-04-25T08:50:05Z</time>
      </trkpt>
      <trkpt lat="59.077198505401611" lon="30.014541149139404">
        <time>2026-04-25T08:50:08Z</time>
      </trkpt>
      <trkpt lat="59.077198505401611" lon="30.014541149139404">
        <time>2026-04-25T08:50:10Z</time>
      </trkpt>
      <trkpt lat="59.077198505401611" lon="30.014541149139404">
        <time>2026-04-25T08:50:13Z</time>
      </trkpt>
      <trkpt lat="59.077198505401611" lon="30.014519691467285">
        <time>2026-04-25T08:50:15Z</time>
      </trkpt>
      <trkpt lat="59.077198505401611" lon="30.014519691467285">
        <time>2026-04-25T08:50:18Z</time>
      </trkpt>
      <trkpt lat="59.077198505401611" lon="30.014519691467285">
        <time>2026-04-25T08:50:20Z</time>
      </trkpt>
      <trkpt lat="59.077198505401611" lon="30.014519691467285">
        <time>2026-04-25T08:50:25Z</time>
      </trkpt>
      <trkpt lat="59.077198505401611" lon="30.014519691467285">
        <time>2026-04-25T08:50:28Z</time>
      </trkpt>
      <trkpt lat="59.077198505401611" lon="30.014519691467285">
        <time>2026-04-25T08:50:30Z</time>
      </trkpt>
      <trkpt lat="59.077198505401611" lon="30.014519691467285">
        <time>2026-04-25T08:50:33Z</time>
      </trkpt>
      <trkpt lat="59.077198505401611" lon="30.014519691467285">
        <time>2026-04-25T08:50:35Z</time>
      </trkpt>
      <trkpt lat="59.077198505401611" lon="30.014519691467285">
        <time>2026-04-25T08:50:38Z</time>
      </trkpt>
      <trkpt lat="59.077198505401611" lon="30.014519691467285">
        <time>2026-04-25T08:50:40Z</time>
      </trkpt>
      <trkpt lat="59.077198505401611" lon="30.014519691467285">
        <time>2026-04-25T08:50:43Z</time>
      </trkpt>
      <trkpt lat="59.077198505401611" lon="30.014519691467285">
        <time>2026-04-25T08:50:45Z</time>
      </trkpt>
      <trkpt lat="59.077198505401611" lon="30.014519691467285">
        <time>2026-04-25T08:50:48Z</time>
      </trkpt>
      <trkpt lat="59.077198505401611" lon="30.014519691467285">
        <time>2026-04-25T08:50:50Z</time>
      </trkpt>
      <trkpt lat="59.077198505401611" lon="30.014519691467285">
        <time>2026-04-25T08:50:53Z</time>
      </trkpt>
      <trkpt lat="59.077198505401611" lon="30.014519691467285">
        <time>2026-04-25T08:50:55Z</time>
      </trkpt>
      <trkpt lat="59.077198505401611" lon="30.014519691467285">
        <time>2026-04-25T08:50:58Z</time>
      </trkpt>
      <trkpt lat="59.077198505401611" lon="30.014519691467285">
        <time>2026-04-25T08:51:00Z</time>
      </trkpt>
      <trkpt lat="59.077198505401611" lon="30.014519691467285">
        <time>2026-04-25T08:51:03Z</time>
      </trkpt>
      <trkpt lat="59.077198505401611" lon="30.014519691467285">
        <time>2026-04-25T08:51:08Z</time>
      </trkpt>
      <trkpt lat="59.077198505401611" lon="30.014519691467285">
        <time>2026-04-25T08:51:10Z</time>
      </trkpt>
      <trkpt lat="59.077198505401611" lon="30.014519691467285">
        <time>2026-04-25T08:51:13Z</time>
      </trkpt>
      <trkpt lat="59.077198505401611" lon="30.014519691467285">
        <time>2026-04-25T08:51:15Z</time>
      </trkpt>
      <trkpt lat="59.077198505401611" lon="30.014519691467285">
        <time>2026-04-25T08:51:18Z</time>
      </trkpt>
      <trkpt lat="59.077177047729492" lon="30.014519691467285">
        <time>2026-04-25T08:51:20Z</time>
      </trkpt>
      <trkpt lat="59.077177047729492" lon="30.014519691467285">
        <time>2026-04-25T08:51:23Z</time>
      </trkpt>
      <trkpt lat="59.077177047729492" lon="30.014498233795166">
        <time>2026-04-25T08:51:25Z</time>
      </trkpt>
      <trkpt lat="59.077177047729492" lon="30.014519691467285">
        <time>2026-04-25T08:51:28Z</time>
      </trkpt>
      <trkpt lat="59.077177047729492" lon="30.014519691467285">
        <time>2026-04-25T08:51:30Z</time>
      </trkpt>
      <trkpt lat="59.077177047729492" lon="30.014519691467285">
        <time>2026-04-25T08:51:33Z</time>
      </trkpt>
      <trkpt lat="59.077177047729492" lon="30.014519691467285">
        <time>2026-04-25T08:51:35Z</time>
      </trkpt>
      <trkpt lat="59.077177047729492" lon="30.014519691467285">
        <time>2026-04-25T08:51:38Z</time>
      </trkpt>
      <trkpt lat="59.077177047729492" lon="30.014519691467285">
        <time>2026-04-25T08:51:40Z</time>
      </trkpt>
      <trkpt lat="59.077177047729492" lon="30.014519691467285">
        <time>2026-04-25T08:51:43Z</time>
      </trkpt>
      <trkpt lat="59.077177047729492" lon="30.014519691467285">
        <time>2026-04-25T08:51:45Z</time>
      </trkpt>
      <trkpt lat="59.077177047729492" lon="30.014519691467285">
        <time>2026-04-25T08:51:48Z</time>
      </trkpt>
      <trkpt lat="59.077177047729492" lon="30.014519691467285">
        <time>2026-04-25T08:51:50Z</time>
      </trkpt>
      <trkpt lat="59.077177047729492" lon="30.014519691467285">
        <time>2026-04-25T08:51:53Z</time>
      </trkpt>
      <trkpt lat="59.077177047729492" lon="30.014519691467285">
        <time>2026-04-25T08:51:55Z</time>
      </trkpt>
      <trkpt lat="59.077177047729492" lon="30.014519691467285">
        <time>2026-04-25T08:51:58Z</time>
      </trkpt>
      <trkpt lat="59.077177047729492" lon="30.014519691467285">
        <time>2026-04-25T08:52:00Z</time>
      </trkpt>
      <trkpt lat="59.077177047729492" lon="30.014519691467285">
        <time>2026-04-25T08:52:03Z</time>
      </trkpt>
      <trkpt lat="59.077177047729492" lon="30.014519691467285">
        <time>2026-04-25T08:52:05Z</time>
      </trkpt>
      <trkpt lat="59.077177047729492" lon="30.014519691467285">
        <time>2026-04-25T08:52:08Z</time>
      </trkpt>
      <trkpt lat="59.077177047729492" lon="30.014519691467285">
        <time>2026-04-25T08:52:10Z</time>
      </trkpt>
      <trkpt lat="59.077177047729492" lon="30.014519691467285">
        <time>2026-04-25T08:52:13Z</time>
      </trkpt>
      <trkpt lat="59.077177047729492" lon="30.014519691467285">
        <time>2026-04-25T08:52:15Z</time>
      </trkpt>
      <trkpt lat="59.077177047729492" lon="30.014519691467285">
        <time>2026-04-25T08:52:18Z</time>
      </trkpt>
      <trkpt lat="59.077198505401611" lon="30.014541149139404">
        <time>2026-04-25T08:52:20Z</time>
      </trkpt>
      <trkpt lat="59.077198505401611" lon="30.014541149139404">
        <time>2026-04-25T08:52:23Z</time>
      </trkpt>
      <trkpt lat="59.077177047729492" lon="30.014541149139404">
        <time>2026-04-25T08:52:25Z</time>
      </trkpt>
      <trkpt lat="59.077177047729492" lon="30.014541149139404">
        <time>2026-04-25T08:52:28Z</time>
      </trkpt>
      <trkpt lat="59.077177047729492" lon="30.014541149139404">
        <time>2026-04-25T08:52:30Z</time>
      </trkpt>
      <trkpt lat="59.077177047729492" lon="30.014541149139404">
        <time>2026-04-25T08:52:33Z</time>
      </trkpt>
      <trkpt lat="59.077177047729492" lon="30.014541149139404">
        <time>2026-04-25T08:52:35Z</time>
      </trkpt>
      <trkpt lat="59.077177047729492" lon="30.014541149139404">
        <time>2026-04-25T08:52:38Z</time>
      </trkpt>
      <trkpt lat="59.077177047729492" lon="30.014541149139404">
        <time>2026-04-25T08:52:40Z</time>
      </trkpt>
      <trkpt lat="59.077177047729492" lon="30.014541149139404">
        <time>2026-04-25T08:52:43Z</time>
      </trkpt>
      <trkpt lat="59.077177047729492" lon="30.014541149139404">
        <time>2026-04-25T08:52:45Z</time>
      </trkpt>
      <trkpt lat="59.077177047729492" lon="30.014541149139404">
        <time>2026-04-25T08:52:48Z</time>
      </trkpt>
      <trkpt lat="59.077198505401611" lon="30.014541149139404">
        <time>2026-04-25T08:52:50Z</time>
      </trkpt>
      <trkpt lat="59.077177047729492" lon="30.014562606811523">
        <time>2026-04-25T08:52:53Z</time>
      </trkpt>
      <trkpt lat="59.077198505401611" lon="30.014562606811523">
        <time>2026-04-25T08:52:55Z</time>
      </trkpt>
      <trkpt lat="59.077198505401611" lon="30.014562606811523">
        <time>2026-04-25T08:52:58Z</time>
      </trkpt>
      <trkpt lat="59.077198505401611" lon="30.014562606811523">
        <time>2026-04-25T08:53:00Z</time>
      </trkpt>
      <trkpt lat="59.077198505401611" lon="30.014562606811523">
        <time>2026-04-25T08:53:03Z</time>
      </trkpt>
      <trkpt lat="59.077198505401611" lon="30.014562606811523">
        <time>2026-04-25T08:53:05Z</time>
      </trkpt>
      <trkpt lat="59.077198505401611" lon="30.014562606811523">
        <time>2026-04-25T08:53:08Z</time>
      </trkpt>
      <trkpt lat="59.077198505401611" lon="30.014562606811523">
        <time>2026-04-25T08:53:10Z</time>
      </trkpt>
      <trkpt lat="59.077198505401611" lon="30.014562606811523">
        <time>2026-04-25T08:53:13Z</time>
      </trkpt>
      <trkpt lat="59.07721996307373" lon="30.014605522155762">
        <time>2026-04-25T08:53:15Z</time>
      </trkpt>
      <trkpt lat="59.077198505401611" lon="30.014626979827881">
        <time>2026-04-25T08:53:18Z</time>
      </trkpt>
      <trkpt lat="59.077198505401611" lon="30.014626979827881">
        <time>2026-04-25T08:53:20Z</time>
      </trkpt>
      <trkpt lat="59.077198505401611" lon="30.014669895172119">
        <time>2026-04-25T08:53:23Z</time>
      </trkpt>
      <trkpt lat="59.077177047729492" lon="30.014734268188477">
        <time>2026-04-25T08:53:25Z</time>
      </trkpt>
      <trkpt lat="59.077177047729492" lon="30.014777183532715">
        <time>2026-04-25T08:53:28Z</time>
      </trkpt>
      <trkpt lat="59.077155590057373" lon="30.014863014221191">
        <time>2026-04-25T08:53:30Z</time>
      </trkpt>
      <trkpt lat="59.077134132385254" lon="30.014927387237549">
        <time>2026-04-25T08:53:33Z</time>
      </trkpt>
      <trkpt lat="59.077069759368896" lon="30.015034675598145">
        <time>2026-04-25T08:53:35Z</time>
      </trkpt>
      <trkpt lat="59.077069759368896" lon="30.015184879302979">
        <time>2026-04-25T08:53:38Z</time>
      </trkpt>
      <trkpt lat="59.077091217041016" lon="30.01539945602417">
        <time>2026-04-25T08:53:40Z</time>
      </trkpt>
      <trkpt lat="59.077091217041016" lon="30.015571117401123">
        <time>2026-04-25T08:53:43Z</time>
      </trkpt>
      <trkpt lat="59.077069759368896" lon="30.01563549041748">
        <time>2026-04-25T08:53:45Z</time>
      </trkpt>
      <trkpt lat="59.077069759368896" lon="30.015614032745361">
        <time>2026-04-25T08:53:48Z</time>
      </trkpt>
      <trkpt lat="59.077091217041016" lon="30.015614032745361">
        <time>2026-04-25T08:53:50Z</time>
      </trkpt>
      <trkpt lat="59.077134132385254" lon="30.015528202056885">
        <time>2026-04-25T08:53:53Z</time>
      </trkpt>
      <trkpt lat="59.07721996307373" lon="30.015420913696289">
        <time>2026-04-25T08:53:55Z</time>
      </trkpt>
      <trkpt lat="59.077262878417969" lon="30.015313625335693">
        <time>2026-04-25T08:53:58Z</time>
      </trkpt>
      <trkpt lat="59.077327251434326" lon="30.015227794647217">
        <time>2026-04-25T08:54:00Z</time>
      </trkpt>
      <trkpt lat="59.077370166778564" lon="30.015184879302979">
        <time>2026-04-25T08:54:03Z</time>
      </trkpt>
      <trkpt lat="59.077434539794922" lon="30.015120506286621">
        <time>2026-04-25T08:54:05Z</time>
      </trkpt>
      <trkpt lat="59.077455997467041" lon="30.015034675598145">
        <time>2026-04-25T08:54:08Z</time>
      </trkpt>
      <trkpt lat="59.07747745513916" lon="30.014970302581787">
        <time>2026-04-25T08:54:10Z</time>
      </trkpt>
      <trkpt lat="59.07747745513916" lon="30.014948844909668">
        <time>2026-04-25T08:54:13Z</time>
      </trkpt>
      <trkpt lat="59.07747745513916" lon="30.014927387237549">
        <time>2026-04-25T08:54:15Z</time>
      </trkpt>
      <trkpt lat="59.07747745513916" lon="30.014927387237549">
        <time>2026-04-25T08:54:18Z</time>
      </trkpt>
      <trkpt lat="59.07747745513916" lon="30.014927387237549">
        <time>2026-04-25T08:54:20Z</time>
      </trkpt>
      <trkpt lat="59.07747745513916" lon="30.014927387237549">
        <time>2026-04-25T08:54:23Z</time>
      </trkpt>
      <trkpt lat="59.077498912811279" lon="30.014927387237549">
        <time>2026-04-25T08:54:25Z</time>
      </trkpt>
      <trkpt lat="59.077498912811279" lon="30.014927387237549">
        <time>2026-04-25T08:54:28Z</time>
      </trkpt>
      <trkpt lat="59.077498912811279" lon="30.014927387237549">
        <time>2026-04-25T08:54:30Z</time>
      </trkpt>
      <trkpt lat="59.077498912811279" lon="30.014927387237549">
        <time>2026-04-25T08:54:33Z</time>
      </trkpt>
      <trkpt lat="59.077498912811279" lon="30.014927387237549">
        <time>2026-04-25T08:54:35Z</time>
      </trkpt>
      <trkpt lat="59.077498912811279" lon="30.014927387237549">
        <time>2026-04-25T08:54:38Z</time>
      </trkpt>
      <trkpt lat="59.077498912811279" lon="30.014927387237549">
        <time>2026-04-25T08:54:40Z</time>
      </trkpt>
      <trkpt lat="59.077498912811279" lon="30.014927387237549">
        <time>2026-04-25T08:54:43Z</time>
      </trkpt>
      <trkpt lat="59.077498912811279" lon="30.014927387237549">
        <time>2026-04-25T08:54:45Z</time>
      </trkpt>
      <trkpt lat="59.077498912811279" lon="30.014927387237549">
        <time>2026-04-25T08:54:48Z</time>
      </trkpt>
      <trkpt lat="59.077498912811279" lon="30.014927387237549">
        <time>2026-04-25T08:54:50Z</time>
      </trkpt>
      <trkpt lat="59.077498912811279" lon="30.014927387237549">
        <time>2026-04-25T08:54:53Z</time>
      </trkpt>
      <trkpt lat="59.077498912811279" lon="30.014927387237549">
        <time>2026-04-25T08:54:55Z</time>
      </trkpt>
      <trkpt lat="59.077498912811279" lon="30.014927387237549">
        <time>2026-04-25T08:54:58Z</time>
      </trkpt>
      <trkpt lat="59.077498912811279" lon="30.014927387237549">
        <time>2026-04-25T08:55:00Z</time>
      </trkpt>
      <trkpt lat="59.077520370483398" lon="30.01490592956543">
        <time>2026-04-25T08:55:03Z</time>
      </trkpt>
      <trkpt lat="59.077563285827637" lon="30.014798641204834">
        <time>2026-04-25T08:55:05Z</time>
      </trkpt>
      <trkpt lat="59.077606201171875" lon="30.014734268188477">
        <time>2026-04-25T08:55:08Z</time>
      </trkpt>
      <trkpt lat="59.077670574188232" lon="30.014691352844238">
        <time>2026-04-25T08:55:10Z</time>
      </trkpt>
      <trkpt lat="59.077713489532471" lon="30.014669895172119">
        <time>2026-04-25T08:55:13Z</time>
      </trkpt>
      <trkpt lat="59.077756404876709" lon="30.014605522155762">
        <time>2026-04-25T08:55:15Z</time>
      </trkpt>
      <trkpt lat="59.077756404876709" lon="30.014584064483643">
        <time>2026-04-25T08:55:18Z</time>
      </trkpt>
      <trkpt lat="59.077777862548828" lon="30.014562606811523">
        <time>2026-04-25T08:55:20Z</time>
      </trkpt>
      <trkpt lat="59.077777862548828" lon="30.014541149139404">
        <time>2026-04-25T08:55:23Z</time>
      </trkpt>
      <trkpt lat="59.077799320220947" lon="30.014519691467285">
        <time>2026-04-25T08:55:25Z</time>
      </trkpt>
      <trkpt lat="59.077799320220947" lon="30.014519691467285">
        <time>2026-04-25T08:55:28Z</time>
      </trkpt>
      <trkpt lat="59.077799320220947" lon="30.014519691467285">
        <time>2026-04-25T08:55:30Z</time>
      </trkpt>
      <trkpt lat="59.077799320220947" lon="30.014519691467285">
        <time>2026-04-25T08:55:33Z</time>
      </trkpt>
      <trkpt lat="59.077820777893066" lon="30.014519691467285">
        <time>2026-04-25T08:55:35Z</time>
      </trkpt>
      <trkpt lat="59.077820777893066" lon="30.014562606811523">
        <time>2026-04-25T08:55:38Z</time>
      </trkpt>
      <trkpt lat="59.077820777893066" lon="30.014584064483643">
        <time>2026-04-25T08:55:40Z</time>
      </trkpt>
      <trkpt lat="59.077842235565186" lon="30.014584064483643">
        <time>2026-04-25T08:55:43Z</time>
      </trkpt>
      <trkpt lat="59.077842235565186" lon="30.014562606811523">
        <time>2026-04-25T08:55:45Z</time>
      </trkpt>
      <trkpt lat="59.077863693237305" lon="30.014562606811523">
        <time>2026-04-25T08:55:48Z</time>
      </trkpt>
      <trkpt lat="59.077885150909424" lon="30.014562606811523">
        <time>2026-04-25T08:55:50Z</time>
      </trkpt>
      <trkpt lat="59.077885150909424" lon="30.014562606811523">
        <time>2026-04-25T08:55:53Z</time>
      </trkpt>
      <trkpt lat="59.077885150909424" lon="30.014584064483643">
        <time>2026-04-25T08:55:55Z</time>
      </trkpt>
      <trkpt lat="59.077906608581543" lon="30.014584064483643">
        <time>2026-04-25T08:55:58Z</time>
      </trkpt>
      <trkpt lat="59.077928066253662" lon="30.014584064483643">
        <time>2026-04-25T08:56:00Z</time>
      </trkpt>
      <trkpt lat="59.077928066253662" lon="30.014584064483643">
        <time>2026-04-25T08:56:03Z</time>
      </trkpt>
      <trkpt lat="59.077928066253662" lon="30.014562606811523">
        <time>2026-04-25T08:56:05Z</time>
      </trkpt>
      <trkpt lat="59.077928066253662" lon="30.014562606811523">
        <time>2026-04-25T08:56:08Z</time>
      </trkpt>
      <trkpt lat="59.077949523925781" lon="30.014584064483643">
        <time>2026-04-25T08:56:10Z</time>
      </trkpt>
      <trkpt lat="59.077949523925781" lon="30.014584064483643">
        <time>2026-04-25T08:56:13Z</time>
      </trkpt>
      <trkpt lat="59.077949523925781" lon="30.014584064483643">
        <time>2026-04-25T08:56:15Z</time>
      </trkpt>
      <trkpt lat="59.0779709815979" lon="30.014562606811523">
        <time>2026-04-25T08:56:18Z</time>
      </trkpt>
      <trkpt lat="59.07799243927002" lon="30.014584064483643">
        <time>2026-04-25T08:56:20Z</time>
      </trkpt>
      <trkpt lat="59.078013896942139" lon="30.014605522155762">
        <time>2026-04-25T08:56:23Z</time>
      </trkpt>
      <trkpt lat="59.078013896942139" lon="30.014626979827881">
        <time>2026-04-25T08:56:25Z</time>
      </trkpt>
      <trkpt lat="59.078013896942139" lon="30.0146484375">
        <time>2026-04-25T08:56:28Z</time>
      </trkpt>
      <trkpt lat="59.078013896942139" lon="30.014712810516357">
        <time>2026-04-25T08:56:30Z</time>
      </trkpt>
      <trkpt lat="59.078035354614258" lon="30.014755725860596">
        <time>2026-04-25T08:56:33Z</time>
      </trkpt>
      <trkpt lat="59.078035354614258" lon="30.014884471893311">
        <time>2026-04-25T08:56:35Z</time>
      </trkpt>
      <trkpt lat="59.078035354614258" lon="30.014927387237549">
        <time>2026-04-25T08:56:38Z</time>
      </trkpt>
      <trkpt lat="59.078035354614258" lon="30.014991760253906">
        <time>2026-04-25T08:56:40Z</time>
      </trkpt>
      <trkpt lat="59.078035354614258" lon="30.015013217926025">
        <time>2026-04-25T08:56:43Z</time>
      </trkpt>
      <trkpt lat="59.078035354614258" lon="30.015056133270264">
        <time>2026-04-25T08:56:45Z</time>
      </trkpt>
      <trkpt lat="59.078035354614258" lon="30.015077590942383">
        <time>2026-04-25T08:56:48Z</time>
      </trkpt>
      <trkpt lat="59.078013896942139" lon="30.015056133270264">
        <time>2026-04-25T08:56:50Z</time>
      </trkpt>
      <trkpt lat="59.078013896942139" lon="30.015056133270264">
        <time>2026-04-25T08:56:53Z</time>
      </trkpt>
      <trkpt lat="59.078035354614258" lon="30.015013217926025">
        <time>2026-04-25T08:56:55Z</time>
      </trkpt>
      <trkpt lat="59.078035354614258" lon="30.015013217926025">
        <time>2026-04-25T08:56:58Z</time>
      </trkpt>
      <trkpt lat="59.078035354614258" lon="30.014948844909668">
        <time>2026-04-25T08:57:00Z</time>
      </trkpt>
      <trkpt lat="59.078035354614258" lon="30.014884471893311">
        <time>2026-04-25T08:57:03Z</time>
      </trkpt>
      <trkpt lat="59.078078269958496" lon="30.014841556549072">
        <time>2026-04-25T08:57:05Z</time>
      </trkpt>
      <trkpt lat="59.078121185302734" lon="30.014820098876953">
        <time>2026-04-25T08:57:08Z</time>
      </trkpt>
      <trkpt lat="59.078164100646973" lon="30.014777183532715">
        <time>2026-04-25T08:57:10Z</time>
      </trkpt>
      <trkpt lat="59.078207015991211" lon="30.014734268188477">
        <time>2026-04-25T08:57:13Z</time>
      </trkpt>
      <trkpt lat="59.078249931335449" lon="30.014669895172119">
        <time>2026-04-25T08:57:15Z</time>
      </trkpt>
      <trkpt lat="59.078271389007568" lon="30.014605522155762">
        <time>2026-04-25T08:57:18Z</time>
      </trkpt>
      <trkpt lat="59.078314304351807" lon="30.014584064483643">
        <time>2026-04-25T08:57:20Z</time>
      </trkpt>
      <trkpt lat="59.078314304351807" lon="30.014541149139404">
        <time>2026-04-25T08:57:23Z</time>
      </trkpt>
      <trkpt lat="59.078314304351807" lon="30.014455318450928">
        <time>2026-04-25T08:57:25Z</time>
      </trkpt>
      <trkpt lat="59.078314304351807" lon="30.01439094543457">
        <time>2026-04-25T08:57:28Z</time>
      </trkpt>
      <trkpt lat="59.078314304351807" lon="30.014369487762451">
        <time>2026-04-25T08:57:30Z</time>
      </trkpt>
      <trkpt lat="59.078292846679688" lon="30.014369487762451">
        <time>2026-04-25T08:57:33Z</time>
      </trkpt>
      <trkpt lat="59.078292846679688" lon="30.014369487762451">
        <time>2026-04-25T08:57:35Z</time>
      </trkpt>
      <trkpt lat="59.078292846679688" lon="30.01439094543457">
        <time>2026-04-25T08:57:38Z</time>
      </trkpt>
      <trkpt lat="59.078292846679688" lon="30.01439094543457">
        <time>2026-04-25T08:57:40Z</time>
      </trkpt>
      <trkpt lat="59.078292846679688" lon="30.014369487762451">
        <time>2026-04-25T08:57:43Z</time>
      </trkpt>
      <trkpt lat="59.078314304351807" lon="30.014412403106689">
        <time>2026-04-25T08:57:45Z</time>
      </trkpt>
      <trkpt lat="59.078335762023926" lon="30.014498233795166">
        <time>2026-04-25T08:57:48Z</time>
      </trkpt>
      <trkpt lat="59.078314304351807" lon="30.014562606811523">
        <time>2026-04-25T08:57:50Z</time>
      </trkpt>
      <trkpt lat="59.078335762023926" lon="30.014584064483643">
        <time>2026-04-25T08:57:53Z</time>
      </trkpt>
      <trkpt lat="59.078335762023926" lon="30.014626979827881">
        <time>2026-04-25T08:57:55Z</time>
      </trkpt>
      <trkpt lat="59.078335762023926" lon="30.0146484375">
        <time>2026-04-25T08:57:58Z</time>
      </trkpt>
      <trkpt lat="59.078378677368164" lon="30.014691352844238">
        <time>2026-04-25T08:58:00Z</time>
      </trkpt>
      <trkpt lat="59.078378677368164" lon="30.014734268188477">
        <time>2026-04-25T08:58:03Z</time>
      </trkpt>
      <trkpt lat="59.078400135040283" lon="30.014798641204834">
        <time>2026-04-25T08:58:05Z</time>
      </trkpt>
      <trkpt lat="59.078400135040283" lon="30.014820098876953">
        <time>2026-04-25T08:58:08Z</time>
      </trkpt>
      <trkpt lat="59.078421592712402" lon="30.014970302581787">
        <time>2026-04-25T08:58:13Z</time>
      </trkpt>
      <trkpt lat="59.078421592712402" lon="30.015056133270264">
        <time>2026-04-25T08:58:15Z</time>
      </trkpt>
      <trkpt lat="59.078443050384521" lon="30.015099048614502">
        <time>2026-04-25T08:58:18Z</time>
      </trkpt>
      <trkpt lat="59.078464508056641" lon="30.01514196395874">
        <time>2026-04-25T08:58:20Z</time>
      </trkpt>
      <trkpt lat="59.078464508056641" lon="30.015184879302979">
        <time>2026-04-25T08:58:23Z</time>
      </trkpt>
      <trkpt lat="59.078464508056641" lon="30.015249252319336">
        <time>2026-04-25T08:58:25Z</time>
      </trkpt>
      <trkpt lat="59.07848596572876" lon="30.015292167663574">
        <time>2026-04-25T08:58:28Z</time>
      </trkpt>
      <trkpt lat="59.078528881072998" lon="30.015335083007812">
        <time>2026-04-25T08:58:30Z</time>
      </trkpt>
      <trkpt lat="59.078528881072998" lon="30.015356540679932">
        <time>2026-04-25T08:58:33Z</time>
      </trkpt>
      <trkpt lat="59.078571796417236" lon="30.015335083007812">
        <time>2026-04-25T08:58:35Z</time>
      </trkpt>
      <trkpt lat="59.078593254089355" lon="30.015313625335693">
        <time>2026-04-25T08:58:38Z</time>
      </trkpt>
      <trkpt lat="59.078614711761475" lon="30.015184879302979">
        <time>2026-04-25T08:58:40Z</time>
      </trkpt>
      <trkpt lat="59.078636169433594" lon="30.015120506286621">
        <time>2026-04-25T08:58:43Z</time>
      </trkpt>
      <trkpt lat="59.078679084777832" lon="30.015056133270264">
        <time>2026-04-25T08:58:45Z</time>
      </trkpt>
      <trkpt lat="59.078679084777832" lon="30.015034675598145">
        <time>2026-04-25T08:58:48Z</time>
      </trkpt>
      <trkpt lat="59.078700542449951" lon="30.015034675598145">
        <time>2026-04-25T08:58:50Z</time>
      </trkpt>
      <trkpt lat="59.078700542449951" lon="30.015013217926025">
        <time>2026-04-25T08:58:53Z</time>
      </trkpt>
      <trkpt lat="59.078700542449951" lon="30.014991760253906">
        <time>2026-04-25T08:58:55Z</time>
      </trkpt>
      <trkpt lat="59.078700542449951" lon="30.014970302581787">
        <time>2026-04-25T08:58:58Z</time>
      </trkpt>
      <trkpt lat="59.078700542449951" lon="30.014970302581787">
        <time>2026-04-25T08:59:00Z</time>
      </trkpt>
      <trkpt lat="59.078700542449951" lon="30.014970302581787">
        <time>2026-04-25T08:59:03Z</time>
      </trkpt>
      <trkpt lat="59.078700542449951" lon="30.014970302581787">
        <time>2026-04-25T08:59:05Z</time>
      </trkpt>
      <trkpt lat="59.078700542449951" lon="30.014927387237549">
        <time>2026-04-25T08:59:08Z</time>
      </trkpt>
      <trkpt lat="59.07872200012207" lon="30.014841556549072">
        <time>2026-04-25T08:59:10Z</time>
      </trkpt>
      <trkpt lat="59.078764915466309" lon="30.014798641204834">
        <time>2026-04-25T08:59:13Z</time>
      </trkpt>
      <trkpt lat="59.078829288482666" lon="30.014755725860596">
        <time>2026-04-25T08:59:15Z</time>
      </trkpt>
      <trkpt lat="59.078872203826904" lon="30.014734268188477">
        <time>2026-04-25T08:59:18Z</time>
      </trkpt>
      <trkpt lat="59.078936576843262" lon="30.014691352844238">
        <time>2026-04-25T08:59:20Z</time>
      </trkpt>
      <trkpt lat="59.0789794921875" lon="30.014669895172119">
        <time>2026-04-25T08:59:23Z</time>
      </trkpt>
      <trkpt lat="59.079022407531738" lon="30.0146484375">
        <time>2026-04-25T08:59:25Z</time>
      </trkpt>
      <trkpt lat="59.079043865203857" lon="30.0146484375">
        <time>2026-04-25T08:59:28Z</time>
      </trkpt>
      <trkpt lat="59.079086780548096" lon="30.0146484375">
        <time>2026-04-25T08:59:30Z</time>
      </trkpt>
      <trkpt lat="59.079108238220215" lon="30.014605522155762">
        <time>2026-04-25T08:59:33Z</time>
      </trkpt>
      <trkpt lat="59.079151153564453" lon="30.014519691467285">
        <time>2026-04-25T08:59:35Z</time>
      </trkpt>
      <trkpt lat="59.079172611236572" lon="30.014455318450928">
        <time>2026-04-25T08:59:38Z</time>
      </trkpt>
      <trkpt lat="59.079172611236572" lon="30.01439094543457">
        <time>2026-04-25T08:59:40Z</time>
      </trkpt>
      <trkpt lat="59.079194068908691" lon="30.014305114746094">
        <time>2026-04-25T08:59:43Z</time>
      </trkpt>
      <trkpt lat="59.079194068908691" lon="30.014240741729736">
        <time>2026-04-25T08:59:45Z</time>
      </trkpt>
      <trkpt lat="59.079194068908691" lon="30.014176368713379">
        <time>2026-04-25T08:59:48Z</time>
      </trkpt>
      <trkpt lat="59.079215526580811" lon="30.014111995697021">
        <time>2026-04-25T08:59:50Z</time>
      </trkpt>
      <trkpt lat="59.079215526580811" lon="30.014111995697021">
        <time>2026-04-25T08:59:53Z</time>
      </trkpt>
      <trkpt lat="59.079215526580811" lon="30.014111995697021">
        <time>2026-04-25T08:59:55Z</time>
      </trkpt>
      <trkpt lat="59.079215526580811" lon="30.014111995697021">
        <time>2026-04-25T08:59:58Z</time>
      </trkpt>
      <trkpt lat="59.07923698425293" lon="30.014111995697021">
        <time>2026-04-25T09:00:00Z</time>
      </trkpt>
      <trkpt lat="59.079215526580811" lon="30.014111995697021">
        <time>2026-04-25T09:00:03Z</time>
      </trkpt>
      <trkpt lat="59.079215526580811" lon="30.014111995697021">
        <time>2026-04-25T09:00:05Z</time>
      </trkpt>
      <trkpt lat="59.07923698425293" lon="30.014111995697021">
        <time>2026-04-25T09:00:08Z</time>
      </trkpt>
      <trkpt lat="59.079258441925049" lon="30.014090538024902">
        <time>2026-04-25T09:00:10Z</time>
      </trkpt>
      <trkpt lat="59.079258441925049" lon="30.014069080352783">
        <time>2026-04-25T09:00:13Z</time>
      </trkpt>
      <trkpt lat="59.079258441925049" lon="30.014069080352783">
        <time>2026-04-25T09:00:15Z</time>
      </trkpt>
      <trkpt lat="59.079258441925049" lon="30.014047622680664">
        <time>2026-04-25T09:00:18Z</time>
      </trkpt>
      <trkpt lat="59.079258441925049" lon="30.013983249664307">
        <time>2026-04-25T09:00:20Z</time>
      </trkpt>
      <trkpt lat="59.079258441925049" lon="30.013961791992188">
        <time>2026-04-25T09:00:23Z</time>
      </trkpt>
      <trkpt lat="59.079279899597168" lon="30.013940334320068">
        <time>2026-04-25T09:00:25Z</time>
      </trkpt>
      <trkpt lat="59.079279899597168" lon="30.013918876647949">
        <time>2026-04-25T09:00:28Z</time>
      </trkpt>
      <trkpt lat="59.079279899597168" lon="30.013918876647949">
        <time>2026-04-25T09:00:30Z</time>
      </trkpt>
      <trkpt lat="59.079279899597168" lon="30.013918876647949">
        <time>2026-04-25T09:00:33Z</time>
      </trkpt>
      <trkpt lat="59.079279899597168" lon="30.013940334320068">
        <time>2026-04-25T09:00:35Z</time>
      </trkpt>
      <trkpt lat="59.079279899597168" lon="30.013940334320068">
        <time>2026-04-25T09:00:38Z</time>
      </trkpt>
      <trkpt lat="59.079279899597168" lon="30.013961791992188">
        <time>2026-04-25T09:00:40Z</time>
      </trkpt>
      <trkpt lat="59.079279899597168" lon="30.013961791992188">
        <time>2026-04-25T09:00:43Z</time>
      </trkpt>
      <trkpt lat="59.079279899597168" lon="30.013983249664307">
        <time>2026-04-25T09:00:45Z</time>
      </trkpt>
      <trkpt lat="59.079279899597168" lon="30.013983249664307">
        <time>2026-04-25T09:00:48Z</time>
      </trkpt>
      <trkpt lat="59.079322814941406" lon="30.013961791992188">
        <time>2026-04-25T09:00:50Z</time>
      </trkpt>
      <trkpt lat="59.079344272613525" lon="30.013961791992188">
        <time>2026-04-25T09:00:53Z</time>
      </trkpt>
      <trkpt lat="59.079365730285645" lon="30.013983249664307">
        <time>2026-04-25T09:00:55Z</time>
      </trkpt>
      <trkpt lat="59.079408645629883" lon="30.013961791992188">
        <time>2026-04-25T09:00:58Z</time>
      </trkpt>
      <trkpt lat="59.079430103302002" lon="30.013918876647949">
        <time>2026-04-25T09:01:00Z</time>
      </trkpt>
      <trkpt lat="59.07947301864624" lon="30.013875961303711">
        <time>2026-04-25T09:01:03Z</time>
      </trkpt>
      <trkpt lat="59.07947301864624" lon="30.013875961303711">
        <time>2026-04-25T09:01:05Z</time>
      </trkpt>
      <trkpt lat="59.079494476318359" lon="30.013833045959473">
        <time>2026-04-25T09:01:08Z</time>
      </trkpt>
      <trkpt lat="59.079494476318359" lon="30.013768672943115">
        <time>2026-04-25T09:01:10Z</time>
      </trkpt>
      <trkpt lat="59.079515933990479" lon="30.013725757598877">
        <time>2026-04-25T09:01:13Z</time>
      </trkpt>
      <trkpt lat="59.079515933990479" lon="30.013725757598877">
        <time>2026-04-25T09:01:15Z</time>
      </trkpt>
      <trkpt lat="59.079515933990479" lon="30.013725757598877">
        <time>2026-04-25T09:01:18Z</time>
      </trkpt>
      <trkpt lat="59.079537391662598" lon="30.013682842254639">
        <time>2026-04-25T09:01:20Z</time>
      </trkpt>
      <trkpt lat="59.079537391662598" lon="30.01366138458252">
        <time>2026-04-25T09:01:23Z</time>
      </trkpt>
      <trkpt lat="59.079558849334717" lon="30.0136399269104">
        <time>2026-04-25T09:01:25Z</time>
      </trkpt>
      <trkpt lat="59.079580307006836" lon="30.0136399269104">
        <time>2026-04-25T09:01:28Z</time>
      </trkpt>
      <trkpt lat="59.079580307006836" lon="30.0136399269104">
        <time>2026-04-25T09:01:30Z</time>
      </trkpt>
      <trkpt lat="59.079558849334717" lon="30.0136399269104">
        <time>2026-04-25T09:01:33Z</time>
      </trkpt>
      <trkpt lat="59.079558849334717" lon="30.013554096221924">
        <time>2026-04-25T09:01:35Z</time>
      </trkpt>
      <trkpt lat="59.079580307006836" lon="30.013468265533447">
        <time>2026-04-25T09:01:38Z</time>
      </trkpt>
      <trkpt lat="59.079623222351074" lon="30.01340389251709">
        <time>2026-04-25T09:01:40Z</time>
      </trkpt>
      <trkpt lat="59.079666137695312" lon="30.013360977172852">
        <time>2026-04-25T09:01:43Z</time>
      </trkpt>
      <trkpt lat="59.079687595367432" lon="30.013339519500732">
        <time>2026-04-25T09:01:45Z</time>
      </trkpt>
      <trkpt lat="59.079687595367432" lon="30.013318061828613">
        <time>2026-04-25T09:01:48Z</time>
      </trkpt>
      <trkpt lat="59.079687595367432" lon="30.013296604156494">
        <time>2026-04-25T09:01:50Z</time>
      </trkpt>
      <trkpt lat="59.079687595367432" lon="30.013296604156494">
        <time>2026-04-25T09:01:53Z</time>
      </trkpt>
      <trkpt lat="59.079687595367432" lon="30.013318061828613">
        <time>2026-04-25T09:01:55Z</time>
      </trkpt>
      <trkpt lat="59.079687595367432" lon="30.013318061828613">
        <time>2026-04-25T09:01:58Z</time>
      </trkpt>
      <trkpt lat="59.079687595367432" lon="30.013339519500732">
        <time>2026-04-25T09:02:00Z</time>
      </trkpt>
      <trkpt lat="59.079687595367432" lon="30.013360977172852">
        <time>2026-04-25T09:02:03Z</time>
      </trkpt>
      <trkpt lat="59.079687595367432" lon="30.01340389251709">
        <time>2026-04-25T09:02:05Z</time>
      </trkpt>
      <trkpt lat="59.079687595367432" lon="30.013425350189209">
        <time>2026-04-25T09:02:08Z</time>
      </trkpt>
      <trkpt lat="59.079709053039551" lon="30.013489723205566">
        <time>2026-04-25T09:02:10Z</time>
      </trkpt>
      <trkpt lat="59.07973051071167" lon="30.013532638549805">
        <time>2026-04-25T09:02:13Z</time>
      </trkpt>
      <trkpt lat="59.079794883728027" lon="30.0136399269104">
        <time>2026-04-25T09:02:15Z</time>
      </trkpt>
      <trkpt lat="59.079794883728027" lon="30.01366138458252">
        <time>2026-04-25T09:02:18Z</time>
      </trkpt>
      <trkpt lat="59.079794883728027" lon="30.013704299926758">
        <time>2026-04-25T09:02:20Z</time>
      </trkpt>
      <trkpt lat="59.079816341400146" lon="30.013725757598877">
        <time>2026-04-25T09:02:23Z</time>
      </trkpt>
      <trkpt lat="59.079816341400146" lon="30.013790130615234">
        <time>2026-04-25T09:02:25Z</time>
      </trkpt>
      <trkpt lat="59.079837799072266" lon="30.013833045959473">
        <time>2026-04-25T09:02:28Z</time>
      </trkpt>
      <trkpt lat="59.079859256744385" lon="30.013875961303711">
        <time>2026-04-25T09:02:30Z</time>
      </trkpt>
      <trkpt lat="59.079880714416504" lon="30.01389741897583">
        <time>2026-04-25T09:02:33Z</time>
      </trkpt>
      <trkpt lat="59.079902172088623" lon="30.013983249664307">
        <time>2026-04-25T09:02:35Z</time>
      </trkpt>
      <trkpt lat="59.079923629760742" lon="30.014026165008545">
        <time>2026-04-25T09:02:38Z</time>
      </trkpt>
      <trkpt lat="59.0799880027771" lon="30.014111995697021">
        <time>2026-04-25T09:02:40Z</time>
      </trkpt>
      <trkpt lat="59.080030918121338" lon="30.014111995697021">
        <time>2026-04-25T09:02:43Z</time>
      </trkpt>
      <trkpt lat="59.080030918121338" lon="30.014219284057617">
        <time>2026-04-25T09:02:45Z</time>
      </trkpt>
      <trkpt lat="59.080009460449219" lon="30.014369487762451">
        <time>2026-04-25T09:02:48Z</time>
      </trkpt>
      <trkpt lat="59.0799880027771" lon="30.014519691467285">
        <time>2026-04-25T09:02:50Z</time>
      </trkpt>
      <trkpt lat="59.080009460449219" lon="30.014605522155762">
        <time>2026-04-25T09:02:53Z</time>
      </trkpt>
      <trkpt lat="59.080052375793457" lon="30.014691352844238">
        <time>2026-04-25T09:02:55Z</time>
      </trkpt>
      <trkpt lat="59.080073833465576" lon="30.014777183532715">
        <time>2026-04-25T09:02:58Z</time>
      </trkpt>
      <trkpt lat="59.080095291137695" lon="30.01490592956543">
        <time>2026-04-25T09:03:00Z</time>
      </trkpt>
      <trkpt lat="59.080138206481934" lon="30.014991760253906">
        <time>2026-04-25T09:03:03Z</time>
      </trkpt>
      <trkpt lat="59.080181121826172" lon="30.015099048614502">
        <time>2026-04-25T09:03:05Z</time>
      </trkpt>
      <trkpt lat="59.08022403717041" lon="30.01514196395874">
        <time>2026-04-25T09:03:08Z</time>
      </trkpt>
      <trkpt lat="59.080266952514648" lon="30.015249252319336">
        <time>2026-04-25T09:03:10Z</time>
      </trkpt>
      <trkpt lat="59.080288410186768" lon="30.015292167663574">
        <time>2026-04-25T09:03:13Z</time>
      </trkpt>
      <trkpt lat="59.080352783203125" lon="30.015356540679932">
        <time>2026-04-25T09:03:15Z</time>
      </trkpt>
      <trkpt lat="59.080352783203125" lon="30.015377998352051">
        <time>2026-04-25T09:03:18Z</time>
      </trkpt>
      <trkpt lat="59.080395698547363" lon="30.015442371368408">
        <time>2026-04-25T09:03:20Z</time>
      </trkpt>
      <trkpt lat="59.080395698547363" lon="30.015485286712646">
        <time>2026-04-25T09:03:23Z</time>
      </trkpt>
      <trkpt lat="59.080417156219482" lon="30.015592575073242">
        <time>2026-04-25T09:03:25Z</time>
      </trkpt>
      <trkpt lat="59.080438613891602" lon="30.015614032745361">
        <time>2026-04-25T09:03:28Z</time>
      </trkpt>
      <trkpt lat="59.080438613891602" lon="30.015678405761719">
        <time>2026-04-25T09:03:30Z</time>
      </trkpt>
      <trkpt lat="59.080438613891602" lon="30.015742778778076">
        <time>2026-04-25T09:03:33Z</time>
      </trkpt>
      <trkpt lat="59.080417156219482" lon="30.015807151794434">
        <time>2026-04-25T09:03:35Z</time>
      </trkpt>
      <trkpt lat="59.080417156219482" lon="30.01589298248291">
        <time>2026-04-25T09:03:38Z</time>
      </trkpt>
      <trkpt lat="59.080438613891602" lon="30.016043186187744">
        <time>2026-04-25T09:03:40Z</time>
      </trkpt>
      <trkpt lat="59.080438613891602" lon="30.016129016876221">
        <time>2026-04-25T09:03:43Z</time>
      </trkpt>
      <trkpt lat="59.080438613891602" lon="30.016107559204102">
        <time>2026-04-25T09:03:45Z</time>
      </trkpt>
      <trkpt lat="59.080438613891602" lon="30.016043186187744">
        <time>2026-04-25T09:03:48Z</time>
      </trkpt>
      <trkpt lat="59.080460071563721" lon="30.015914440155029">
        <time>2026-04-25T09:03:50Z</time>
      </trkpt>
      <trkpt lat="59.080417156219482" lon="30.015850067138672">
        <time>2026-04-25T09:03:55Z</time>
      </trkpt>
      <trkpt lat="59.080417156219482" lon="30.015742778778076">
        <time>2026-04-25T09:03:58Z</time>
      </trkpt>
      <trkpt lat="59.080438613891602" lon="30.015592575073242">
        <time>2026-04-25T09:04:00Z</time>
      </trkpt>
      <trkpt lat="59.080438613891602" lon="30.015528202056885">
        <time>2026-04-25T09:04:03Z</time>
      </trkpt>
      <trkpt lat="59.080438613891602" lon="30.015485286712646">
        <time>2026-04-25T09:04:05Z</time>
      </trkpt>
      <trkpt lat="59.080438613891602" lon="30.015485286712646">
        <time>2026-04-25T09:04:08Z</time>
      </trkpt>
      <trkpt lat="59.080438613891602" lon="30.015485286712646">
        <time>2026-04-25T09:04:10Z</time>
      </trkpt>
      <trkpt lat="59.080417156219482" lon="30.015442371368408">
        <time>2026-04-25T09:04:13Z</time>
      </trkpt>
      <trkpt lat="59.080395698547363" lon="30.015292167663574">
        <time>2026-04-25T09:04:15Z</time>
      </trkpt>
      <trkpt lat="59.080395698547363" lon="30.015227794647217">
        <time>2026-04-25T09:04:18Z</time>
      </trkpt>
      <trkpt lat="59.080395698547363" lon="30.015227794647217">
        <time>2026-04-25T09:04:20Z</time>
      </trkpt>
      <trkpt lat="59.080374240875244" lon="30.015184879302979">
        <time>2026-04-25T09:04:23Z</time>
      </trkpt>
      <trkpt lat="59.080374240875244" lon="30.01514196395874">
        <time>2026-04-25T09:04:25Z</time>
      </trkpt>
      <trkpt lat="59.080352783203125" lon="30.015099048614502">
        <time>2026-04-25T09:04:28Z</time>
      </trkpt>
      <trkpt lat="59.080288410186768" lon="30.015013217926025">
        <time>2026-04-25T09:04:30Z</time>
      </trkpt>
      <trkpt lat="59.080266952514648" lon="30.014927387237549">
        <time>2026-04-25T09:04:33Z</time>
      </trkpt>
      <trkpt lat="59.080181121826172" lon="30.014777183532715">
        <time>2026-04-25T09:04:35Z</time>
      </trkpt>
      <trkpt lat="59.080138206481934" lon="30.0146484375">
        <time>2026-04-25T09:04:38Z</time>
      </trkpt>
      <trkpt lat="59.080116748809814" lon="30.014412403106689">
        <time>2026-04-25T09:04:40Z</time>
      </trkpt>
      <trkpt lat="59.080116748809814" lon="30.014283657073975">
        <time>2026-04-25T09:04:43Z</time>
      </trkpt>
      <trkpt lat="59.080138206481934" lon="30.014240741729736">
        <time>2026-04-25T09:04:45Z</time>
      </trkpt>
      <trkpt lat="59.080116748809814" lon="30.014219284057617">
        <time>2026-04-25T09:04:48Z</time>
      </trkpt>
      <trkpt lat="59.080116748809814" lon="30.014197826385498">
        <time>2026-04-25T09:04:50Z</time>
      </trkpt>
      <trkpt lat="59.080116748809814" lon="30.014197826385498">
        <time>2026-04-25T09:04:53Z</time>
      </trkpt>
      <trkpt lat="59.080116748809814" lon="30.014197826385498">
        <time>2026-04-25T09:04:55Z</time>
      </trkpt>
      <trkpt lat="59.080116748809814" lon="30.014197826385498">
        <time>2026-04-25T09:04:58Z</time>
      </trkpt>
      <trkpt lat="59.080116748809814" lon="30.014197826385498">
        <time>2026-04-25T09:05:00Z</time>
      </trkpt>
      <trkpt lat="59.080116748809814" lon="30.014197826385498">
        <time>2026-04-25T09:05:03Z</time>
      </trkpt>
      <trkpt lat="59.080095291137695" lon="30.014197826385498">
        <time>2026-04-25T09:05:05Z</time>
      </trkpt>
      <trkpt lat="59.080095291137695" lon="30.014197826385498">
        <time>2026-04-25T09:05:08Z</time>
      </trkpt>
      <trkpt lat="59.080095291137695" lon="30.014197826385498">
        <time>2026-04-25T09:05:10Z</time>
      </trkpt>
      <trkpt lat="59.080095291137695" lon="30.014197826385498">
        <time>2026-04-25T09:05:13Z</time>
      </trkpt>
      <trkpt lat="59.080095291137695" lon="30.014197826385498">
        <time>2026-04-25T09:05:15Z</time>
      </trkpt>
      <trkpt lat="59.080095291137695" lon="30.014197826385498">
        <time>2026-04-25T09:05:18Z</time>
      </trkpt>
      <trkpt lat="59.080095291137695" lon="30.014197826385498">
        <time>2026-04-25T09:05:20Z</time>
      </trkpt>
      <trkpt lat="59.080095291137695" lon="30.01415491104126">
        <time>2026-04-25T09:05:23Z</time>
      </trkpt>
      <trkpt lat="59.080116748809814" lon="30.014026165008545">
        <time>2026-04-25T09:05:25Z</time>
      </trkpt>
      <trkpt lat="59.080116748809814" lon="30.013940334320068">
        <time>2026-04-25T09:05:28Z</time>
      </trkpt>
      <trkpt lat="59.080116748809814" lon="30.01389741897583">
        <time>2026-04-25T09:05:30Z</time>
      </trkpt>
      <trkpt lat="59.080116748809814" lon="30.013854503631592">
        <time>2026-04-25T09:05:33Z</time>
      </trkpt>
      <trkpt lat="59.080116748809814" lon="30.013811588287354">
        <time>2026-04-25T09:05:35Z</time>
      </trkpt>
      <trkpt lat="59.080095291137695" lon="30.013790130615234">
        <time>2026-04-25T09:05:38Z</time>
      </trkpt>
      <trkpt lat="59.080073833465576" lon="30.013811588287354">
        <time>2026-04-25T09:05:40Z</time>
      </trkpt>
      <trkpt lat="59.080052375793457" lon="30.013854503631592">
        <time>2026-04-25T09:05:43Z</time>
      </trkpt>
      <trkpt lat="59.0799880027771" lon="30.013811588287354">
        <time>2026-04-25T09:05:45Z</time>
      </trkpt>
      <trkpt lat="59.07996654510498" lon="30.013747215270996">
        <time>2026-04-25T09:05:48Z</time>
      </trkpt>
      <trkpt lat="59.079945087432861" lon="30.013704299926758">
        <time>2026-04-25T09:05:50Z</time>
      </trkpt>
      <trkpt lat="59.079945087432861" lon="30.013704299926758">
        <time>2026-04-25T09:05:53Z</time>
      </trkpt>
      <trkpt lat="59.079923629760742" lon="30.013682842254639">
        <time>2026-04-25T09:05:55Z</time>
      </trkpt>
      <trkpt lat="59.079923629760742" lon="30.013704299926758">
        <time>2026-04-25T09:05:58Z</time>
      </trkpt>
      <trkpt lat="59.079902172088623" lon="30.013682842254639">
        <time>2026-04-25T09:06:00Z</time>
      </trkpt>
      <trkpt lat="59.079902172088623" lon="30.013682842254639">
        <time>2026-04-25T09:06:03Z</time>
      </trkpt>
      <trkpt lat="59.079902172088623" lon="30.013704299926758">
        <time>2026-04-25T09:06:05Z</time>
      </trkpt>
      <trkpt lat="59.079923629760742" lon="30.013725757598877">
        <time>2026-04-25T09:06:08Z</time>
      </trkpt>
      <trkpt lat="59.07996654510498" lon="30.013790130615234">
        <time>2026-04-25T09:06:10Z</time>
      </trkpt>
      <trkpt lat="59.080009460449219" lon="30.013854503631592">
        <time>2026-04-25T09:06:13Z</time>
      </trkpt>
      <trkpt lat="59.080095291137695" lon="30.01389741897583">
        <time>2026-04-25T09:06:15Z</time>
      </trkpt>
      <trkpt lat="59.080138206481934" lon="30.013918876647949">
        <time>2026-04-25T09:06:18Z</time>
      </trkpt>
      <trkpt lat="59.080202579498291" lon="30.013940334320068">
        <time>2026-04-25T09:06:20Z</time>
      </trkpt>
      <trkpt lat="59.080245494842529" lon="30.013961791992188">
        <time>2026-04-25T09:06:23Z</time>
      </trkpt>
      <trkpt lat="59.080288410186768" lon="30.013983249664307">
        <time>2026-04-25T09:06:25Z</time>
      </trkpt>
      <trkpt lat="59.080331325531006" lon="30.013961791992188">
        <time>2026-04-25T09:06:28Z</time>
      </trkpt>
      <trkpt lat="59.080374240875244" lon="30.013940334320068">
        <time>2026-04-25T09:06:30Z</time>
      </trkpt>
      <trkpt lat="59.080395698547363" lon="30.013918876647949">
        <time>2026-04-25T09:06:33Z</time>
      </trkpt>
      <trkpt lat="59.080460071563721" lon="30.01389741897583">
        <time>2026-04-25T09:06:35Z</time>
      </trkpt>
      <trkpt lat="59.08048152923584" lon="30.013854503631592">
        <time>2026-04-25T09:06:38Z</time>
      </trkpt>
      <trkpt lat="59.080524444580078" lon="30.013875961303711">
        <time>2026-04-25T09:06:40Z</time>
      </trkpt>
      <trkpt lat="59.080545902252197" lon="30.013875961303711">
        <time>2026-04-25T09:06:43Z</time>
      </trkpt>
      <trkpt lat="59.080588817596436" lon="30.013854503631592">
        <time>2026-04-25T09:06:45Z</time>
      </trkpt>
      <trkpt lat="59.080631732940674" lon="30.013854503631592">
        <time>2026-04-25T09:06:48Z</time>
      </trkpt>
      <trkpt lat="59.080696105957031" lon="30.013875961303711">
        <time>2026-04-25T09:06:50Z</time>
      </trkpt>
      <trkpt lat="59.08071756362915" lon="30.013875961303711">
        <time>2026-04-25T09:06:53Z</time>
      </trkpt>
      <trkpt lat="59.080781936645508" lon="30.013875961303711">
        <time>2026-04-25T09:06:55Z</time>
      </trkpt>
      <trkpt lat="59.080803394317627" lon="30.013854503631592">
        <time>2026-04-25T09:06:58Z</time>
      </trkpt>
      <trkpt lat="59.080867767333984" lon="30.013854503631592">
        <time>2026-04-25T09:07:00Z</time>
      </trkpt>
      <trkpt lat="59.080889225006104" lon="30.013875961303711">
        <time>2026-04-25T09:07:03Z</time>
      </trkpt>
      <trkpt lat="59.080910682678223" lon="30.013918876647949">
        <time>2026-04-25T09:07:05Z</time>
      </trkpt>
      <trkpt lat="59.080932140350342" lon="30.013961791992188">
        <time>2026-04-25T09:07:08Z</time>
      </trkpt>
      <trkpt lat="59.080932140350342" lon="30.014026165008545">
        <time>2026-04-25T09:07:10Z</time>
      </trkpt>
      <trkpt lat="59.080932140350342" lon="30.014090538024902">
        <time>2026-04-25T09:07:13Z</time>
      </trkpt>
      <trkpt lat="59.08097505569458" lon="30.014176368713379">
        <time>2026-04-25T09:07:15Z</time>
      </trkpt>
      <trkpt lat="59.080996513366699" lon="30.014240741729736">
        <time>2026-04-25T09:07:18Z</time>
      </trkpt>
      <trkpt lat="59.081017971038818" lon="30.014326572418213">
        <time>2026-04-25T09:07:20Z</time>
      </trkpt>
      <trkpt lat="59.081017971038818" lon="30.014412403106689">
        <time>2026-04-25T09:07:23Z</time>
      </trkpt>
      <trkpt lat="59.081017971038818" lon="30.014541149139404">
        <time>2026-04-25T09:07:25Z</time>
      </trkpt>
      <trkpt lat="59.080996513366699" lon="30.014605522155762">
        <time>2026-04-25T09:07:28Z</time>
      </trkpt>
      <trkpt lat="59.080932140350342" lon="30.014734268188477">
        <time>2026-04-25T09:07:30Z</time>
      </trkpt>
      <trkpt lat="59.080889225006104" lon="30.014863014221191">
        <time>2026-04-25T09:07:33Z</time>
      </trkpt>
      <trkpt lat="59.080846309661865" lon="30.014970302581787">
        <time>2026-04-25T09:07:35Z</time>
      </trkpt>
      <trkpt lat="59.080803394317627" lon="30.014991760253906">
        <time>2026-04-25T09:07:38Z</time>
      </trkpt>
      <trkpt lat="59.08073902130127" lon="30.014991760253906">
        <time>2026-04-25T09:07:40Z</time>
      </trkpt>
      <trkpt lat="59.080696105957031" lon="30.014970302581787">
        <time>2026-04-25T09:07:43Z</time>
      </trkpt>
      <trkpt lat="59.080631732940674" lon="30.014927387237549">
        <time>2026-04-25T09:07:45Z</time>
      </trkpt>
      <trkpt lat="59.080588817596436" lon="30.014884471893311">
        <time>2026-04-25T09:07:48Z</time>
      </trkpt>
      <trkpt lat="59.080545902252197" lon="30.014798641204834">
        <time>2026-04-25T09:07:50Z</time>
      </trkpt>
      <trkpt lat="59.080524444580078" lon="30.014734268188477">
        <time>2026-04-25T09:07:53Z</time>
      </trkpt>
      <trkpt lat="59.080460071563721" lon="30.014734268188477">
        <time>2026-04-25T09:07:55Z</time>
      </trkpt>
      <trkpt lat="59.080438613891602" lon="30.014755725860596">
        <time>2026-04-25T09:07:58Z</time>
      </trkpt>
      <trkpt lat="59.080438613891602" lon="30.014755725860596">
        <time>2026-04-25T09:08:00Z</time>
      </trkpt>
      <trkpt lat="59.080460071563721" lon="30.014712810516357">
        <time>2026-04-25T09:08:03Z</time>
      </trkpt>
      <trkpt lat="59.080438613891602" lon="30.014691352844238">
        <time>2026-04-25T09:08:05Z</time>
      </trkpt>
      <trkpt lat="59.080417156219482" lon="30.014691352844238">
        <time>2026-04-25T09:08:08Z</time>
      </trkpt>
      <trkpt lat="59.080417156219482" lon="30.014691352844238">
        <time>2026-04-25T09:08:10Z</time>
      </trkpt>
      <trkpt lat="59.080417156219482" lon="30.014669895172119">
        <time>2026-04-25T09:08:13Z</time>
      </trkpt>
      <trkpt lat="59.080374240875244" lon="30.014626979827881">
        <time>2026-04-25T09:08:15Z</time>
      </trkpt>
      <trkpt lat="59.080352783203125" lon="30.014584064483643">
        <time>2026-04-25T09:08:18Z</time>
      </trkpt>
      <trkpt lat="59.080352783203125" lon="30.014476776123047">
        <time>2026-04-25T09:08:20Z</time>
      </trkpt>
      <trkpt lat="59.080352783203125" lon="30.014412403106689">
        <time>2026-04-25T09:08:23Z</time>
      </trkpt>
      <trkpt lat="59.080331325531006" lon="30.014262199401855">
        <time>2026-04-25T09:08:25Z</time>
      </trkpt>
      <trkpt lat="59.080309867858887" lon="30.01415491104126">
        <time>2026-04-25T09:08:28Z</time>
      </trkpt>
      <trkpt lat="59.080352783203125" lon="30.014090538024902">
        <time>2026-04-25T09:08:30Z</time>
      </trkpt>
      <trkpt lat="59.080395698547363" lon="30.014069080352783">
        <time>2026-04-25T09:08:33Z</time>
      </trkpt>
      <trkpt lat="59.080460071563721" lon="30.014004707336426">
        <time>2026-04-25T09:08:35Z</time>
      </trkpt>
      <trkpt lat="59.080524444580078" lon="30.014004707336426">
        <time>2026-04-25T09:08:38Z</time>
      </trkpt>
      <trkpt lat="59.080545902252197" lon="30.013961791992188">
        <time>2026-04-25T09:08:40Z</time>
      </trkpt>
      <trkpt lat="59.080567359924316" lon="30.013961791992188">
        <time>2026-04-25T09:08:43Z</time>
      </trkpt>
      <trkpt lat="59.080567359924316" lon="30.013918876647949">
        <time>2026-04-25T09:08:45Z</time>
      </trkpt>
      <trkpt lat="59.080567359924316" lon="30.013918876647949">
        <time>2026-04-25T09:08:48Z</time>
      </trkpt>
      <trkpt lat="59.080567359924316" lon="30.013918876647949">
        <time>2026-04-25T09:08:50Z</time>
      </trkpt>
      <trkpt lat="59.080567359924316" lon="30.013918876647949">
        <time>2026-04-25T09:08:53Z</time>
      </trkpt>
      <trkpt lat="59.080567359924316" lon="30.013918876647949">
        <time>2026-04-25T09:08:55Z</time>
      </trkpt>
      <trkpt lat="59.080567359924316" lon="30.013918876647949">
        <time>2026-04-25T09:08:58Z</time>
      </trkpt>
      <trkpt lat="59.080567359924316" lon="30.01389741897583">
        <time>2026-04-25T09:09:00Z</time>
      </trkpt>
      <trkpt lat="59.080567359924316" lon="30.01389741897583">
        <time>2026-04-25T09:09:03Z</time>
      </trkpt>
      <trkpt lat="59.080567359924316" lon="30.01389741897583">
        <time>2026-04-25T09:09:05Z</time>
      </trkpt>
      <trkpt lat="59.080567359924316" lon="30.01389741897583">
        <time>2026-04-25T09:09:08Z</time>
      </trkpt>
      <trkpt lat="59.080567359924316" lon="30.013918876647949">
        <time>2026-04-25T09:09:10Z</time>
      </trkpt>
      <trkpt lat="59.080567359924316" lon="30.013918876647949">
        <time>2026-04-25T09:09:13Z</time>
      </trkpt>
      <trkpt lat="59.080588817596436" lon="30.01389741897583">
        <time>2026-04-25T09:09:15Z</time>
      </trkpt>
      <trkpt lat="59.080588817596436" lon="30.01389741897583">
        <time>2026-04-25T09:09:18Z</time>
      </trkpt>
      <trkpt lat="59.080588817596436" lon="30.01389741897583">
        <time>2026-04-25T09:09:20Z</time>
      </trkpt>
      <trkpt lat="59.080610275268555" lon="30.01389741897583">
        <time>2026-04-25T09:09:23Z</time>
      </trkpt>
      <trkpt lat="59.080653190612793" lon="30.01389741897583">
        <time>2026-04-25T09:09:25Z</time>
      </trkpt>
      <trkpt lat="59.080674648284912" lon="30.013918876647949">
        <time>2026-04-25T09:09:28Z</time>
      </trkpt>
      <trkpt lat="59.08071756362915" lon="30.013940334320068">
        <time>2026-04-25T09:09:30Z</time>
      </trkpt>
      <trkpt lat="59.08073902130127" lon="30.013940334320068">
        <time>2026-04-25T09:09:33Z</time>
      </trkpt>
      <trkpt lat="59.080760478973389" lon="30.013961791992188">
        <time>2026-04-25T09:09:35Z</time>
      </trkpt>
      <trkpt lat="59.080781936645508" lon="30.013961791992188">
        <time>2026-04-25T09:09:38Z</time>
      </trkpt>
      <trkpt lat="59.080803394317627" lon="30.013983249664307">
        <time>2026-04-25T09:09:40Z</time>
      </trkpt>
      <trkpt lat="59.080803394317627" lon="30.014026165008545">
        <time>2026-04-25T09:09:43Z</time>
      </trkpt>
      <trkpt lat="59.080846309661865" lon="30.014069080352783">
        <time>2026-04-25T09:09:45Z</time>
      </trkpt>
      <trkpt lat="59.080867767333984" lon="30.014090538024902">
        <time>2026-04-25T09:09:48Z</time>
      </trkpt>
      <trkpt lat="59.080889225006104" lon="30.014111995697021">
        <time>2026-04-25T09:09:50Z</time>
      </trkpt>
      <trkpt lat="59.080910682678223" lon="30.014111995697021">
        <time>2026-04-25T09:09:53Z</time>
      </trkpt>
      <trkpt lat="59.08097505569458" lon="30.014047622680664">
        <time>2026-04-25T09:09:55Z</time>
      </trkpt>
      <trkpt lat="59.080996513366699" lon="30.014047622680664">
        <time>2026-04-25T09:09:58Z</time>
      </trkpt>
      <trkpt lat="59.081017971038818" lon="30.014047622680664">
        <time>2026-04-25T09:10:00Z</time>
      </trkpt>
      <trkpt lat="59.081039428710938" lon="30.014069080352783">
        <time>2026-04-25T09:10:03Z</time>
      </trkpt>
      <trkpt lat="59.081103801727295" lon="30.014090538024902">
        <time>2026-04-25T09:10:05Z</time>
      </trkpt>
      <trkpt lat="59.081146717071533" lon="30.014090538024902">
        <time>2026-04-25T09:10:08Z</time>
      </trkpt>
      <trkpt lat="59.081211090087891" lon="30.014090538024902">
        <time>2026-04-25T09:10:10Z</time>
      </trkpt>
      <trkpt lat="59.081254005432129" lon="30.014090538024902">
        <time>2026-04-25T09:10:13Z</time>
      </trkpt>
      <trkpt lat="59.081318378448486" lon="30.014111995697021">
        <time>2026-04-25T09:10:15Z</time>
      </trkpt>
      <trkpt lat="59.081339836120605" lon="30.014133453369141">
        <time>2026-04-25T09:10:18Z</time>
      </trkpt>
      <trkpt lat="59.081382751464844" lon="30.014176368713379">
        <time>2026-04-25T09:10:20Z</time>
      </trkpt>
      <trkpt lat="59.081425666809082" lon="30.014197826385498">
        <time>2026-04-25T09:10:23Z</time>
      </trkpt>
      <trkpt lat="59.081447124481201" lon="30.014176368713379">
        <time>2026-04-25T09:10:25Z</time>
      </trkpt>
      <trkpt lat="59.081425666809082" lon="30.014176368713379">
        <time>2026-04-25T09:10:28Z</time>
      </trkpt>
      <trkpt lat="59.081382751464844" lon="30.014133453369141">
        <time>2026-04-25T09:10:30Z</time>
      </trkpt>
      <trkpt lat="59.081361293792725" lon="30.014069080352783">
        <time>2026-04-25T09:10:33Z</time>
      </trkpt>
      <trkpt lat="59.081318378448486" lon="30.013961791992188">
        <time>2026-04-25T09:10:35Z</time>
      </trkpt>
      <trkpt lat="59.081296920776367" lon="30.013918876647949">
        <time>2026-04-25T09:10:38Z</time>
      </trkpt>
      <trkpt lat="59.081275463104248" lon="30.013833045959473">
        <time>2026-04-25T09:10:40Z</time>
      </trkpt>
      <trkpt lat="59.081275463104248" lon="30.013833045959473">
        <time>2026-04-25T09:10:43Z</time>
      </trkpt>
      <trkpt lat="59.081275463104248" lon="30.013811588287354">
        <time>2026-04-25T09:10:45Z</time>
      </trkpt>
      <trkpt lat="59.081275463104248" lon="30.013811588287354">
        <time>2026-04-25T09:10:48Z</time>
      </trkpt>
      <trkpt lat="59.081275463104248" lon="30.013811588287354">
        <time>2026-04-25T09:10:50Z</time>
      </trkpt>
      <trkpt lat="59.081275463104248" lon="30.013811588287354">
        <time>2026-04-25T09:10:53Z</time>
      </trkpt>
      <trkpt lat="59.081275463104248" lon="30.013811588287354">
        <time>2026-04-25T09:10:55Z</time>
      </trkpt>
      <trkpt lat="59.081275463104248" lon="30.013811588287354">
        <time>2026-04-25T09:10:58Z</time>
      </trkpt>
      <trkpt lat="59.081275463104248" lon="30.013811588287354">
        <time>2026-04-25T09:11:00Z</time>
      </trkpt>
      <trkpt lat="59.081275463104248" lon="30.013811588287354">
        <time>2026-04-25T09:11:03Z</time>
      </trkpt>
      <trkpt lat="59.081275463104248" lon="30.013811588287354">
        <time>2026-04-25T09:11:05Z</time>
      </trkpt>
      <trkpt lat="59.081275463104248" lon="30.013811588287354">
        <time>2026-04-25T09:11:08Z</time>
      </trkpt>
      <trkpt lat="59.081275463104248" lon="30.013790130615234">
        <time>2026-04-25T09:11:10Z</time>
      </trkpt>
      <trkpt lat="59.081275463104248" lon="30.013790130615234">
        <time>2026-04-25T09:11:13Z</time>
      </trkpt>
      <trkpt lat="59.081296920776367" lon="30.013790130615234">
        <time>2026-04-25T09:11:15Z</time>
      </trkpt>
      <trkpt lat="59.081275463104248" lon="30.013790130615234">
        <time>2026-04-25T09:11:18Z</time>
      </trkpt>
      <trkpt lat="59.081275463104248" lon="30.013811588287354">
        <time>2026-04-25T09:11:20Z</time>
      </trkpt>
      <trkpt lat="59.081275463104248" lon="30.013811588287354">
        <time>2026-04-25T09:11:23Z</time>
      </trkpt>
      <trkpt lat="59.081254005432129" lon="30.013811588287354">
        <time>2026-04-25T09:11:25Z</time>
      </trkpt>
      <trkpt lat="59.081254005432129" lon="30.013811588287354">
        <time>2026-04-25T09:11:28Z</time>
      </trkpt>
      <trkpt lat="59.081254005432129" lon="30.013811588287354">
        <time>2026-04-25T09:11:30Z</time>
      </trkpt>
      <trkpt lat="59.081275463104248" lon="30.013811588287354">
        <time>2026-04-25T09:11:33Z</time>
      </trkpt>
      <trkpt lat="59.081296920776367" lon="30.013811588287354">
        <time>2026-04-25T09:11:35Z</time>
      </trkpt>
      <trkpt lat="59.081318378448486" lon="30.013790130615234">
        <time>2026-04-25T09:11:38Z</time>
      </trkpt>
      <trkpt lat="59.081339836120605" lon="30.013747215270996">
        <time>2026-04-25T09:11:40Z</time>
      </trkpt>
      <trkpt lat="59.081361293792725" lon="30.013725757598877">
        <time>2026-04-25T09:11:43Z</time>
      </trkpt>
      <trkpt lat="59.081361293792725" lon="30.013704299926758">
        <time>2026-04-25T09:11:45Z</time>
      </trkpt>
      <trkpt lat="59.081361293792725" lon="30.013725757598877">
        <time>2026-04-25T09:11:48Z</time>
      </trkpt>
      <trkpt lat="59.081382751464844" lon="30.013768672943115">
        <time>2026-04-25T09:11:50Z</time>
      </trkpt>
      <trkpt lat="59.081404209136963" lon="30.013768672943115">
        <time>2026-04-25T09:11:53Z</time>
      </trkpt>
      <trkpt lat="59.081447124481201" lon="30.013790130615234">
        <time>2026-04-25T09:11:55Z</time>
      </trkpt>
      <trkpt lat="59.08146858215332" lon="30.013768672943115">
        <time>2026-04-25T09:11:58Z</time>
      </trkpt>
      <trkpt lat="59.081532955169678" lon="30.013725757598877">
        <time>2026-04-25T09:12:03Z</time>
      </trkpt>
      <trkpt lat="59.081575870513916" lon="30.013747215270996">
        <time>2026-04-25T09:12:05Z</time>
      </trkpt>
      <trkpt lat="59.081618785858154" lon="30.013768672943115">
        <time>2026-04-25T09:12:08Z</time>
      </trkpt>
      <trkpt lat="59.081661701202393" lon="30.013790130615234">
        <time>2026-04-25T09:12:10Z</time>
      </trkpt>
      <trkpt lat="59.081683158874512" lon="30.013833045959473">
        <time>2026-04-25T09:12:13Z</time>
      </trkpt>
      <trkpt lat="59.081704616546631" lon="30.013875961303711">
        <time>2026-04-25T09:12:15Z</time>
      </trkpt>
      <trkpt lat="59.081704616546631" lon="30.013918876647949">
        <time>2026-04-25T09:12:18Z</time>
      </trkpt>
      <trkpt lat="59.081683158874512" lon="30.013961791992188">
        <time>2026-04-25T09:12:20Z</time>
      </trkpt>
      <trkpt lat="59.081683158874512" lon="30.014004707336426">
        <time>2026-04-25T09:12:23Z</time>
      </trkpt>
      <trkpt lat="59.081661701202393" lon="30.014026165008545">
        <time>2026-04-25T09:12:25Z</time>
      </trkpt>
      <trkpt lat="59.081661701202393" lon="30.014004707336426">
        <time>2026-04-25T09:12:28Z</time>
      </trkpt>
      <trkpt lat="59.081661701202393" lon="30.014026165008545">
        <time>2026-04-25T09:12:30Z</time>
      </trkpt>
      <trkpt lat="59.081661701202393" lon="30.014026165008545">
        <time>2026-04-25T09:12:33Z</time>
      </trkpt>
      <trkpt lat="59.081661701202393" lon="30.014026165008545">
        <time>2026-04-25T09:12:35Z</time>
      </trkpt>
      <trkpt lat="59.081640243530273" lon="30.014047622680664">
        <time>2026-04-25T09:12:38Z</time>
      </trkpt>
      <trkpt lat="59.081640243530273" lon="30.014047622680664">
        <time>2026-04-25T09:12:40Z</time>
      </trkpt>
      <trkpt lat="59.081640243530273" lon="30.014047622680664">
        <time>2026-04-25T09:12:43Z</time>
      </trkpt>
      <trkpt lat="59.081618785858154" lon="30.014069080352783">
        <time>2026-04-25T09:12:45Z</time>
      </trkpt>
      <trkpt lat="59.081597328186035" lon="30.014111995697021">
        <time>2026-04-25T09:12:48Z</time>
      </trkpt>
      <trkpt lat="59.081554412841797" lon="30.01415491104126">
        <time>2026-04-25T09:12:50Z</time>
      </trkpt>
      <trkpt lat="59.081532955169678" lon="30.01415491104126">
        <time>2026-04-25T09:12:53Z</time>
      </trkpt>
      <trkpt lat="59.081532955169678" lon="30.01415491104126">
        <time>2026-04-25T09:12:55Z</time>
      </trkpt>
      <trkpt lat="59.081532955169678" lon="30.01415491104126">
        <time>2026-04-25T09:12:58Z</time>
      </trkpt>
      <trkpt lat="59.081532955169678" lon="30.014176368713379">
        <time>2026-04-25T09:13:00Z</time>
      </trkpt>
      <trkpt lat="59.081532955169678" lon="30.014176368713379">
        <time>2026-04-25T09:13:03Z</time>
      </trkpt>
      <trkpt lat="59.081532955169678" lon="30.014176368713379">
        <time>2026-04-25T09:13:05Z</time>
      </trkpt>
      <trkpt lat="59.081532955169678" lon="30.014176368713379">
        <time>2026-04-25T09:13:08Z</time>
      </trkpt>
      <trkpt lat="59.081532955169678" lon="30.014176368713379">
        <time>2026-04-25T09:13:10Z</time>
      </trkpt>
      <trkpt lat="59.081511497497559" lon="30.014176368713379">
        <time>2026-04-25T09:13:13Z</time>
      </trkpt>
      <trkpt lat="59.081511497497559" lon="30.014197826385498">
        <time>2026-04-25T09:13:15Z</time>
      </trkpt>
      <trkpt lat="59.081511497497559" lon="30.014197826385498">
        <time>2026-04-25T09:13:18Z</time>
      </trkpt>
      <trkpt lat="59.08146858215332" lon="30.014219284057617">
        <time>2026-04-25T09:13:20Z</time>
      </trkpt>
      <trkpt lat="59.081447124481201" lon="30.014240741729736">
        <time>2026-04-25T09:13:23Z</time>
      </trkpt>
      <trkpt lat="59.081425666809082" lon="30.014240741729736">
        <time>2026-04-25T09:13:25Z</time>
      </trkpt>
      <trkpt lat="59.081404209136963" lon="30.014240741729736">
        <time>2026-04-25T09:13:28Z</time>
      </trkpt>
      <trkpt lat="59.081382751464844" lon="30.014240741729736">
        <time>2026-04-25T09:13:30Z</time>
      </trkpt>
      <trkpt lat="59.081382751464844" lon="30.014219284057617">
        <time>2026-04-25T09:13:33Z</time>
      </trkpt>
      <trkpt lat="59.081361293792725" lon="30.014197826385498">
        <time>2026-04-25T09:13:35Z</time>
      </trkpt>
      <trkpt lat="59.081339836120605" lon="30.014197826385498">
        <time>2026-04-25T09:13:38Z</time>
      </trkpt>
      <trkpt lat="59.081296920776367" lon="30.014176368713379">
        <time>2026-04-25T09:13:40Z</time>
      </trkpt>
      <trkpt lat="59.081296920776367" lon="30.014133453369141">
        <time>2026-04-25T09:13:43Z</time>
      </trkpt>
      <trkpt lat="59.081275463104248" lon="30.014133453369141">
        <time>2026-04-25T09:13:45Z</time>
      </trkpt>
      <trkpt lat="59.081254005432129" lon="30.01415491104126">
        <time>2026-04-25T09:13:48Z</time>
      </trkpt>
      <trkpt lat="59.081254005432129" lon="30.014176368713379">
        <time>2026-04-25T09:13:50Z</time>
      </trkpt>
      <trkpt lat="59.081254005432129" lon="30.01415491104126">
        <time>2026-04-25T09:13:53Z</time>
      </trkpt>
      <trkpt lat="59.08123254776001" lon="30.014111995697021">
        <time>2026-04-25T09:13:55Z</time>
      </trkpt>
      <trkpt lat="59.08123254776001" lon="30.014090538024902">
        <time>2026-04-25T09:13:58Z</time>
      </trkpt>
      <trkpt lat="59.081211090087891" lon="30.014069080352783">
        <time>2026-04-25T09:14:00Z</time>
      </trkpt>
      <trkpt lat="59.081211090087891" lon="30.014047622680664">
        <time>2026-04-25T09:14:03Z</time>
      </trkpt>
      <trkpt lat="59.081211090087891" lon="30.014047622680664">
        <time>2026-04-25T09:14:05Z</time>
      </trkpt>
      <trkpt lat="59.081211090087891" lon="30.014026165008545">
        <time>2026-04-25T09:14:08Z</time>
      </trkpt>
      <trkpt lat="59.081189632415771" lon="30.013961791992188">
        <time>2026-04-25T09:14:10Z</time>
      </trkpt>
      <trkpt lat="59.081168174743652" lon="30.013940334320068">
        <time>2026-04-25T09:14:13Z</time>
      </trkpt>
      <trkpt lat="59.081146717071533" lon="30.013875961303711">
        <time>2026-04-25T09:14:15Z</time>
      </trkpt>
      <trkpt lat="59.081125259399414" lon="30.013833045959473">
        <time>2026-04-25T09:14:18Z</time>
      </trkpt>
      <trkpt lat="59.081103801727295" lon="30.013790130615234">
        <time>2026-04-25T09:14:20Z</time>
      </trkpt>
      <trkpt lat="59.081082344055176" lon="30.013725757598877">
        <time>2026-04-25T09:14:23Z</time>
      </trkpt>
      <trkpt lat="59.081060886383057" lon="30.01366138458252">
        <time>2026-04-25T09:14:25Z</time>
      </trkpt>
      <trkpt lat="59.081039428710938" lon="30.013618469238281">
        <time>2026-04-25T09:14:28Z</time>
      </trkpt>
      <trkpt lat="59.081039428710938" lon="30.013575553894043">
        <time>2026-04-25T09:14:30Z</time>
      </trkpt>
      <trkpt lat="59.081039428710938" lon="30.013554096221924">
        <time>2026-04-25T09:14:33Z</time>
      </trkpt>
      <trkpt lat="59.081039428710938" lon="30.013575553894043">
        <time>2026-04-25T09:14:35Z</time>
      </trkpt>
      <trkpt lat="59.081039428710938" lon="30.013597011566162">
        <time>2026-04-25T09:14:38Z</time>
      </trkpt>
      <trkpt lat="59.081039428710938" lon="30.013597011566162">
        <time>2026-04-25T09:14:40Z</time>
      </trkpt>
      <trkpt lat="59.081039428710938" lon="30.013597011566162">
        <time>2026-04-25T09:14:43Z</time>
      </trkpt>
      <trkpt lat="59.081039428710938" lon="30.013575553894043">
        <time>2026-04-25T09:14:45Z</time>
      </trkpt>
      <trkpt lat="59.081039428710938" lon="30.013554096221924">
        <time>2026-04-25T09:14:48Z</time>
      </trkpt>
      <trkpt lat="59.081017971038818" lon="30.013554096221924">
        <time>2026-04-25T09:14:50Z</time>
      </trkpt>
      <trkpt lat="59.081017971038818" lon="30.013554096221924">
        <time>2026-04-25T09:14:53Z</time>
      </trkpt>
      <trkpt lat="59.081017971038818" lon="30.013597011566162">
        <time>2026-04-25T09:14:55Z</time>
      </trkpt>
      <trkpt lat="59.081017971038818" lon="30.013597011566162">
        <time>2026-04-25T09:14:58Z</time>
      </trkpt>
      <trkpt lat="59.081039428710938" lon="30.013618469238281">
        <time>2026-04-25T09:15:00Z</time>
      </trkpt>
      <trkpt lat="59.081082344055176" lon="30.013618469238281">
        <time>2026-04-25T09:15:03Z</time>
      </trkpt>
      <trkpt lat="59.081146717071533" lon="30.013575553894043">
        <time>2026-04-25T09:15:05Z</time>
      </trkpt>
      <trkpt lat="59.081168174743652" lon="30.013532638549805">
        <time>2026-04-25T09:15:08Z</time>
      </trkpt>
      <trkpt lat="59.081189632415771" lon="30.013425350189209">
        <time>2026-04-25T09:15:10Z</time>
      </trkpt>
      <trkpt lat="59.081189632415771" lon="30.013360977172852">
        <time>2026-04-25T09:15:13Z</time>
      </trkpt>
      <trkpt lat="59.081189632415771" lon="30.013275146484375">
        <time>2026-04-25T09:15:15Z</time>
      </trkpt>
      <trkpt lat="59.081189632415771" lon="30.013232231140137">
        <time>2026-04-25T09:15:18Z</time>
      </trkpt>
      <trkpt lat="59.081211090087891" lon="30.013167858123779">
        <time>2026-04-25T09:15:20Z</time>
      </trkpt>
      <trkpt lat="59.08123254776001" lon="30.013124942779541">
        <time>2026-04-25T09:15:23Z</time>
      </trkpt>
      <trkpt lat="59.081254005432129" lon="30.013060569763184">
        <time>2026-04-25T09:15:25Z</time>
      </trkpt>
      <trkpt lat="59.081296920776367" lon="30.012996196746826">
        <time>2026-04-25T09:15:28Z</time>
      </trkpt>
      <trkpt lat="59.081318378448486" lon="30.012953281402588">
        <time>2026-04-25T09:15:30Z</time>
      </trkpt>
      <trkpt lat="59.081361293792725" lon="30.01291036605835">
        <time>2026-04-25T09:15:33Z</time>
      </trkpt>
      <trkpt lat="59.081382751464844" lon="30.01288890838623">
        <time>2026-04-25T09:15:35Z</time>
      </trkpt>
      <trkpt lat="59.081425666809082" lon="30.012867450714111">
        <time>2026-04-25T09:15:38Z</time>
      </trkpt>
      <trkpt lat="59.081447124481201" lon="30.012867450714111">
        <time>2026-04-25T09:15:40Z</time>
      </trkpt>
      <trkpt lat="59.081447124481201" lon="30.012867450714111">
        <time>2026-04-25T09:15:43Z</time>
      </trkpt>
      <trkpt lat="59.08146858215332" lon="30.012867450714111">
        <time>2026-04-25T09:15:45Z</time>
      </trkpt>
      <trkpt lat="59.08146858215332" lon="30.012845993041992">
        <time>2026-04-25T09:15:48Z</time>
      </trkpt>
      <trkpt lat="59.081511497497559" lon="30.012845993041992">
        <time>2026-04-25T09:15:50Z</time>
      </trkpt>
      <trkpt lat="59.081532955169678" lon="30.012845993041992">
        <time>2026-04-25T09:15:53Z</time>
      </trkpt>
      <trkpt lat="59.081597328186035" lon="30.012781620025635">
        <time>2026-04-25T09:15:55Z</time>
      </trkpt>
      <trkpt lat="59.081640243530273" lon="30.012760162353516">
        <time>2026-04-25T09:15:58Z</time>
      </trkpt>
      <trkpt lat="59.081661701202393" lon="30.012803077697754">
        <time>2026-04-25T09:16:00Z</time>
      </trkpt>
      <trkpt lat="59.081704616546631" lon="30.012824535369873">
        <time>2026-04-25T09:16:03Z</time>
      </trkpt>
      <trkpt lat="59.081747531890869" lon="30.012867450714111">
        <time>2026-04-25T09:16:05Z</time>
      </trkpt>
      <trkpt lat="59.081768989562988" lon="30.01291036605835">
        <time>2026-04-25T09:16:08Z</time>
      </trkpt>
      <trkpt lat="59.081790447235107" lon="30.012974739074707">
        <time>2026-04-25T09:16:10Z</time>
      </trkpt>
      <trkpt lat="59.081768989562988" lon="30.013039112091064">
        <time>2026-04-25T09:16:13Z</time>
      </trkpt>
      <trkpt lat="59.081768989562988" lon="30.013124942779541">
        <time>2026-04-25T09:16:15Z</time>
      </trkpt>
      <trkpt lat="59.081747531890869" lon="30.013189315795898">
        <time>2026-04-25T09:16:18Z</time>
      </trkpt>
      <trkpt lat="59.08172607421875" lon="30.013275146484375">
        <time>2026-04-25T09:16:20Z</time>
      </trkpt>
      <trkpt lat="59.08172607421875" lon="30.013339519500732">
        <time>2026-04-25T09:16:23Z</time>
      </trkpt>
      <trkpt lat="59.081747531890869" lon="30.013425350189209">
        <time>2026-04-25T09:16:25Z</time>
      </trkpt>
      <trkpt lat="59.081768989562988" lon="30.013468265533447">
        <time>2026-04-25T09:16:28Z</time>
      </trkpt>
      <trkpt lat="59.081768989562988" lon="30.013532638549805">
        <time>2026-04-25T09:16:30Z</time>
      </trkpt>
      <trkpt lat="59.081790447235107" lon="30.013575553894043">
        <time>2026-04-25T09:16:33Z</time>
      </trkpt>
      <trkpt lat="59.081833362579346" lon="30.013618469238281">
        <time>2026-04-25T09:16:35Z</time>
      </trkpt>
      <trkpt lat="59.081833362579346" lon="30.0136399269104">
        <time>2026-04-25T09:16:38Z</time>
      </trkpt>
      <trkpt lat="59.081833362579346" lon="30.01366138458252">
        <time>2026-04-25T09:16:40Z</time>
      </trkpt>
      <trkpt lat="59.081833362579346" lon="30.01366138458252">
        <time>2026-04-25T09:16:43Z</time>
      </trkpt>
      <trkpt lat="59.081854820251465" lon="30.013682842254639">
        <time>2026-04-25T09:16:45Z</time>
      </trkpt>
      <trkpt lat="59.081854820251465" lon="30.013704299926758">
        <time>2026-04-25T09:16:48Z</time>
      </trkpt>
      <trkpt lat="59.081897735595703" lon="30.013747215270996">
        <time>2026-04-25T09:16:50Z</time>
      </trkpt>
      <trkpt lat="59.081919193267822" lon="30.013768672943115">
        <time>2026-04-25T09:16:53Z</time>
      </trkpt>
      <trkpt lat="59.081940650939941" lon="30.013854503631592">
        <time>2026-04-25T09:16:55Z</time>
      </trkpt>
      <trkpt lat="59.081962108612061" lon="30.013875961303711">
        <time>2026-04-25T09:16:58Z</time>
      </trkpt>
      <trkpt lat="59.08198356628418" lon="30.013854503631592">
        <time>2026-04-25T09:17:00Z</time>
      </trkpt>
      <trkpt lat="59.082005023956299" lon="30.013875961303711">
        <time>2026-04-25T09:17:03Z</time>
      </trkpt>
      <trkpt lat="59.082026481628418" lon="30.013875961303711">
        <time>2026-04-25T09:17:05Z</time>
      </trkpt>
      <trkpt lat="59.082026481628418" lon="30.013854503631592">
        <time>2026-04-25T09:17:08Z</time>
      </trkpt>
      <trkpt lat="59.082026481628418" lon="30.013811588287354">
        <time>2026-04-25T09:17:10Z</time>
      </trkpt>
      <trkpt lat="59.082026481628418" lon="30.013747215270996">
        <time>2026-04-25T09:17:13Z</time>
      </trkpt>
      <trkpt lat="59.082047939300537" lon="30.013682842254639">
        <time>2026-04-25T09:17:15Z</time>
      </trkpt>
      <trkpt lat="59.082069396972656" lon="30.013618469238281">
        <time>2026-04-25T09:17:18Z</time>
      </trkpt>
      <trkpt lat="59.082090854644775" lon="30.013489723205566">
        <time>2026-04-25T09:17:20Z</time>
      </trkpt>
      <trkpt lat="59.082112312316895" lon="30.01340389251709">
        <time>2026-04-25T09:17:23Z</time>
      </trkpt>
      <trkpt lat="59.082133769989014" lon="30.013275146484375">
        <time>2026-04-25T09:17:25Z</time>
      </trkpt>
      <trkpt lat="59.082155227661133" lon="30.013210773468018">
        <time>2026-04-25T09:17:28Z</time>
      </trkpt>
      <trkpt lat="59.082176685333252" lon="30.01314640045166">
        <time>2026-04-25T09:17:30Z</time>
      </trkpt>
      <trkpt lat="59.082176685333252" lon="30.013124942779541">
        <time>2026-04-25T09:17:33Z</time>
      </trkpt>
      <trkpt lat="59.082198143005371" lon="30.013082027435303">
        <time>2026-04-25T09:17:35Z</time>
      </trkpt>
      <trkpt lat="59.08221960067749" lon="30.013039112091064">
        <time>2026-04-25T09:17:38Z</time>
      </trkpt>
      <trkpt lat="59.08221960067749" lon="30.012953281402588">
        <time>2026-04-25T09:17:40Z</time>
      </trkpt>
      <trkpt lat="59.082241058349609" lon="30.01291036605835">
        <time>2026-04-25T09:17:43Z</time>
      </trkpt>
      <trkpt lat="59.08221960067749" lon="30.012781620025635">
        <time>2026-04-25T09:17:48Z</time>
      </trkpt>
      <trkpt lat="59.082176685333252" lon="30.012695789337158">
        <time>2026-04-25T09:17:50Z</time>
      </trkpt>
      <trkpt lat="59.082155227661133" lon="30.012717247009277">
        <time>2026-04-25T09:17:53Z</time>
      </trkpt>
      <trkpt lat="59.082112312316895" lon="30.012738704681396">
        <time>2026-04-25T09:17:55Z</time>
      </trkpt>
      <trkpt lat="59.082090854644775" lon="30.012738704681396">
        <time>2026-04-25T09:17:58Z</time>
      </trkpt>
      <trkpt lat="59.082090854644775" lon="30.012738704681396">
        <time>2026-04-25T09:18:00Z</time>
      </trkpt>
      <trkpt lat="59.082090854644775" lon="30.012803077697754">
        <time>2026-04-25T09:18:03Z</time>
      </trkpt>
      <trkpt lat="59.082047939300537" lon="30.01291036605835">
        <time>2026-04-25T09:18:05Z</time>
      </trkpt>
      <trkpt lat="59.082047939300537" lon="30.013017654418945">
        <time>2026-04-25T09:18:08Z</time>
      </trkpt>
      <trkpt lat="59.082069396972656" lon="30.01314640045166">
        <time>2026-04-25T09:18:10Z</time>
      </trkpt>
      <trkpt lat="59.082112312316895" lon="30.013232231140137">
        <time>2026-04-25T09:18:13Z</time>
      </trkpt>
      <trkpt lat="59.082176685333252" lon="30.013275146484375">
        <time>2026-04-25T09:18:15Z</time>
      </trkpt>
      <trkpt lat="59.08221960067749" lon="30.013296604156494">
        <time>2026-04-25T09:18:18Z</time>
      </trkpt>
      <trkpt lat="59.082262516021729" lon="30.013360977172852">
        <time>2026-04-25T09:18:20Z</time>
      </trkpt>
      <trkpt lat="59.082283973693848" lon="30.013339519500732">
        <time>2026-04-25T09:18:23Z</time>
      </trkpt>
      <trkpt lat="59.082305431365967" lon="30.013339519500732">
        <time>2026-04-25T09:18:25Z</time>
      </trkpt>
      <trkpt lat="59.082326889038086" lon="30.013296604156494">
        <time>2026-04-25T09:18:28Z</time>
      </trkpt>
      <trkpt lat="59.082391262054443" lon="30.013253688812256">
        <time>2026-04-25T09:18:30Z</time>
      </trkpt>
      <trkpt lat="59.082455635070801" lon="30.013296604156494">
        <time>2026-04-25T09:18:33Z</time>
      </trkpt>
      <trkpt lat="59.082541465759277" lon="30.013318061828613">
        <time>2026-04-25T09:18:35Z</time>
      </trkpt>
      <trkpt lat="59.082584381103516" lon="30.013318061828613">
        <time>2026-04-25T09:18:38Z</time>
      </trkpt>
      <trkpt lat="59.082605838775635" lon="30.013339519500732">
        <time>2026-04-25T09:18:40Z</time>
      </trkpt>
      <trkpt lat="59.082648754119873" lon="30.013339519500732">
        <time>2026-04-25T09:18:43Z</time>
      </trkpt>
      <trkpt lat="59.08271312713623" lon="30.013318061828613">
        <time>2026-04-25T09:18:45Z</time>
      </trkpt>
      <trkpt lat="59.08273458480835" lon="30.013275146484375">
        <time>2026-04-25T09:18:48Z</time>
      </trkpt>
      <trkpt lat="59.082777500152588" lon="30.013253688812256">
        <time>2026-04-25T09:18:50Z</time>
      </trkpt>
      <trkpt lat="59.082798957824707" lon="30.013232231140137">
        <time>2026-04-25T09:18:53Z</time>
      </trkpt>
      <trkpt lat="59.082820415496826" lon="30.013210773468018">
        <time>2026-04-25T09:18:55Z</time>
      </trkpt>
      <trkpt lat="59.082884788513184" lon="30.013189315795898">
        <time>2026-04-25T09:18:58Z</time>
      </trkpt>
      <trkpt lat="59.082949161529541" lon="30.013124942779541">
        <time>2026-04-25T09:19:00Z</time>
      </trkpt>
      <trkpt lat="59.083013534545898" lon="30.013103485107422">
        <time>2026-04-25T09:19:03Z</time>
      </trkpt>
      <trkpt lat="59.083034992218018" lon="30.013103485107422">
        <time>2026-04-25T09:19:05Z</time>
      </trkpt>
      <trkpt lat="59.083056449890137" lon="30.013103485107422">
        <time>2026-04-25T09:19:08Z</time>
      </trkpt>
      <trkpt lat="59.083099365234375" lon="30.013103485107422">
        <time>2026-04-25T09:19:10Z</time>
      </trkpt>
      <trkpt lat="59.083120822906494" lon="30.013103485107422">
        <time>2026-04-25T09:19:13Z</time>
      </trkpt>
      <trkpt lat="59.083142280578613" lon="30.013103485107422">
        <time>2026-04-25T09:19:15Z</time>
      </trkpt>
      <trkpt lat="59.083142280578613" lon="30.013103485107422">
        <time>2026-04-25T09:19:18Z</time>
      </trkpt>
      <trkpt lat="59.083142280578613" lon="30.013103485107422">
        <time>2026-04-25T09:19:20Z</time>
      </trkpt>
      <trkpt lat="59.083163738250732" lon="30.013060569763184">
        <time>2026-04-25T09:19:23Z</time>
      </trkpt>
      <trkpt lat="59.083206653594971" lon="30.013017654418945">
        <time>2026-04-25T09:19:25Z</time>
      </trkpt>
      <trkpt lat="59.08322811126709" lon="30.012974739074707">
        <time>2026-04-25T09:19:28Z</time>
      </trkpt>
      <trkpt lat="59.083249568939209" lon="30.012974739074707">
        <time>2026-04-25T09:19:30Z</time>
      </trkpt>
      <trkpt lat="59.083249568939209" lon="30.012974739074707">
        <time>2026-04-25T09:19:33Z</time>
      </trkpt>
      <trkpt lat="59.083249568939209" lon="30.012953281402588">
        <time>2026-04-25T09:19:35Z</time>
      </trkpt>
      <trkpt lat="59.083249568939209" lon="30.012953281402588">
        <time>2026-04-25T09:19:38Z</time>
      </trkpt>
      <trkpt lat="59.083249568939209" lon="30.012953281402588">
        <time>2026-04-25T09:19:40Z</time>
      </trkpt>
      <trkpt lat="59.083249568939209" lon="30.012953281402588">
        <time>2026-04-25T09:19:43Z</time>
      </trkpt>
      <trkpt lat="59.083249568939209" lon="30.012953281402588">
        <time>2026-04-25T09:19:45Z</time>
      </trkpt>
      <trkpt lat="59.083249568939209" lon="30.012953281402588">
        <time>2026-04-25T09:19:48Z</time>
      </trkpt>
      <trkpt lat="59.083249568939209" lon="30.012953281402588">
        <time>2026-04-25T09:19:50Z</time>
      </trkpt>
      <trkpt lat="59.083249568939209" lon="30.012953281402588">
        <time>2026-04-25T09:19:53Z</time>
      </trkpt>
      <trkpt lat="59.083249568939209" lon="30.012953281402588">
        <time>2026-04-25T09:19:55Z</time>
      </trkpt>
      <trkpt lat="59.083249568939209" lon="30.012953281402588">
        <time>2026-04-25T09:19:58Z</time>
      </trkpt>
      <trkpt lat="59.083249568939209" lon="30.012953281402588">
        <time>2026-04-25T09:20:00Z</time>
      </trkpt>
      <trkpt lat="59.083249568939209" lon="30.012953281402588">
        <time>2026-04-25T09:20:03Z</time>
      </trkpt>
      <trkpt lat="59.083249568939209" lon="30.012953281402588">
        <time>2026-04-25T09:20:05Z</time>
      </trkpt>
      <trkpt lat="59.083249568939209" lon="30.012953281402588">
        <time>2026-04-25T09:20:08Z</time>
      </trkpt>
      <trkpt lat="59.083249568939209" lon="30.012953281402588">
        <time>2026-04-25T09:20:10Z</time>
      </trkpt>
      <trkpt lat="59.083249568939209" lon="30.012953281402588">
        <time>2026-04-25T09:20:13Z</time>
      </trkpt>
      <trkpt lat="59.083249568939209" lon="30.012953281402588">
        <time>2026-04-25T09:20:15Z</time>
      </trkpt>
      <trkpt lat="59.083249568939209" lon="30.012953281402588">
        <time>2026-04-25T09:20:18Z</time>
      </trkpt>
      <trkpt lat="59.083249568939209" lon="30.012953281402588">
        <time>2026-04-25T09:20:20Z</time>
      </trkpt>
      <trkpt lat="59.083249568939209" lon="30.012953281402588">
        <time>2026-04-25T09:20:23Z</time>
      </trkpt>
      <trkpt lat="59.083249568939209" lon="30.012953281402588">
        <time>2026-04-25T09:20:25Z</time>
      </trkpt>
      <trkpt lat="59.083249568939209" lon="30.012953281402588">
        <time>2026-04-25T09:20:28Z</time>
      </trkpt>
      <trkpt lat="59.083249568939209" lon="30.012953281402588">
        <time>2026-04-25T09:20:30Z</time>
      </trkpt>
      <trkpt lat="59.083249568939209" lon="30.012953281402588">
        <time>2026-04-25T09:20:33Z</time>
      </trkpt>
      <trkpt lat="59.083249568939209" lon="30.012953281402588">
        <time>2026-04-25T09:20:35Z</time>
      </trkpt>
      <trkpt lat="59.083249568939209" lon="30.012953281402588">
        <time>2026-04-25T09:20:38Z</time>
      </trkpt>
      <trkpt lat="59.083249568939209" lon="30.012953281402588">
        <time>2026-04-25T09:20:40Z</time>
      </trkpt>
      <trkpt lat="59.083249568939209" lon="30.012953281402588">
        <time>2026-04-25T09:20:43Z</time>
      </trkpt>
      <trkpt lat="59.083249568939209" lon="30.012953281402588">
        <time>2026-04-25T09:20:45Z</time>
      </trkpt>
      <trkpt lat="59.083249568939209" lon="30.012953281402588">
        <time>2026-04-25T09:20:48Z</time>
      </trkpt>
      <trkpt lat="59.083249568939209" lon="30.012953281402588">
        <time>2026-04-25T09:20:50Z</time>
      </trkpt>
      <trkpt lat="59.083249568939209" lon="30.012953281402588">
        <time>2026-04-25T09:20:53Z</time>
      </trkpt>
      <trkpt lat="59.083249568939209" lon="30.012953281402588">
        <time>2026-04-25T09:20:55Z</time>
      </trkpt>
      <trkpt lat="59.083249568939209" lon="30.012953281402588">
        <time>2026-04-25T09:20:58Z</time>
      </trkpt>
      <trkpt lat="59.083249568939209" lon="30.012953281402588">
        <time>2026-04-25T09:21:00Z</time>
      </trkpt>
      <trkpt lat="59.083249568939209" lon="30.012953281402588">
        <time>2026-04-25T09:21:03Z</time>
      </trkpt>
      <trkpt lat="59.083249568939209" lon="30.012953281402588">
        <time>2026-04-25T09:21:05Z</time>
      </trkpt>
      <trkpt lat="59.083249568939209" lon="30.012953281402588">
        <time>2026-04-25T09:21:08Z</time>
      </trkpt>
      <trkpt lat="59.083249568939209" lon="30.012953281402588">
        <time>2026-04-25T09:21:10Z</time>
      </trkpt>
      <trkpt lat="59.083249568939209" lon="30.012953281402588">
        <time>2026-04-25T09:21:13Z</time>
      </trkpt>
      <trkpt lat="59.083249568939209" lon="30.012953281402588">
        <time>2026-04-25T09:21:15Z</time>
      </trkpt>
      <trkpt lat="59.083249568939209" lon="30.012931823730469">
        <time>2026-04-25T09:21:18Z</time>
      </trkpt>
      <trkpt lat="59.083249568939209" lon="30.012953281402588">
        <time>2026-04-25T09:21:20Z</time>
      </trkpt>
      <trkpt lat="59.083271026611328" lon="30.012953281402588">
        <time>2026-04-25T09:21:23Z</time>
      </trkpt>
      <trkpt lat="59.083271026611328" lon="30.012953281402588">
        <time>2026-04-25T09:21:25Z</time>
      </trkpt>
      <trkpt lat="59.083271026611328" lon="30.012953281402588">
        <time>2026-04-25T09:21:28Z</time>
      </trkpt>
      <trkpt lat="59.083292484283447" lon="30.012974739074707">
        <time>2026-04-25T09:21:30Z</time>
      </trkpt>
      <trkpt lat="59.083292484283447" lon="30.012974739074707">
        <time>2026-04-25T09:21:33Z</time>
      </trkpt>
      <trkpt lat="59.083313941955566" lon="30.012974739074707">
        <time>2026-04-25T09:21:35Z</time>
      </trkpt>
      <trkpt lat="59.083313941955566" lon="30.012974739074707">
        <time>2026-04-25T09:21:38Z</time>
      </trkpt>
      <trkpt lat="59.083313941955566" lon="30.012996196746826">
        <time>2026-04-25T09:21:40Z</time>
      </trkpt>
      <trkpt lat="59.083313941955566" lon="30.012953281402588">
        <time>2026-04-25T09:21:43Z</time>
      </trkpt>
      <trkpt lat="59.083313941955566" lon="30.01288890838623">
        <time>2026-04-25T09:21:45Z</time>
      </trkpt>
      <trkpt lat="59.083292484283447" lon="30.01288890838623">
        <time>2026-04-25T09:21:48Z</time>
      </trkpt>
      <trkpt lat="59.083292484283447" lon="30.012845993041992">
        <time>2026-04-25T09:21:50Z</time>
      </trkpt>
      <trkpt lat="59.083292484283447" lon="30.012824535369873">
        <time>2026-04-25T09:21:53Z</time>
      </trkpt>
      <trkpt lat="59.083271026611328" lon="30.012803077697754">
        <time>2026-04-25T09:21:55Z</time>
      </trkpt>
      <trkpt lat="59.083271026611328" lon="30.012803077697754">
        <time>2026-04-25T09:21:58Z</time>
      </trkpt>
      <trkpt lat="59.083249568939209" lon="30.012803077697754">
        <time>2026-04-25T09:22:00Z</time>
      </trkpt>
      <trkpt lat="59.083249568939209" lon="30.012803077697754">
        <time>2026-04-25T09:22:03Z</time>
      </trkpt>
      <trkpt lat="59.083249568939209" lon="30.012824535369873">
        <time>2026-04-25T09:22:05Z</time>
      </trkpt>
      <trkpt lat="59.083249568939209" lon="30.012867450714111">
        <time>2026-04-25T09:22:08Z</time>
      </trkpt>
      <trkpt lat="59.08322811126709" lon="30.01291036605835">
        <time>2026-04-25T09:22:10Z</time>
      </trkpt>
      <trkpt lat="59.08322811126709" lon="30.012931823730469">
        <time>2026-04-25T09:22:13Z</time>
      </trkpt>
      <trkpt lat="59.08322811126709" lon="30.012953281402588">
        <time>2026-04-25T09:22:15Z</time>
      </trkpt>
      <trkpt lat="59.083206653594971" lon="30.012953281402588">
        <time>2026-04-25T09:22:18Z</time>
      </trkpt>
      <trkpt lat="59.083206653594971" lon="30.012953281402588">
        <time>2026-04-25T09:22:20Z</time>
      </trkpt>
      <trkpt lat="59.083206653594971" lon="30.012953281402588">
        <time>2026-04-25T09:22:23Z</time>
      </trkpt>
      <trkpt lat="59.083206653594971" lon="30.012974739074707">
        <time>2026-04-25T09:22:25Z</time>
      </trkpt>
      <trkpt lat="59.083206653594971" lon="30.012974739074707">
        <time>2026-04-25T09:22:28Z</time>
      </trkpt>
      <trkpt lat="59.083206653594971" lon="30.012974739074707">
        <time>2026-04-25T09:22:30Z</time>
      </trkpt>
      <trkpt lat="59.083206653594971" lon="30.012974739074707">
        <time>2026-04-25T09:22:33Z</time>
      </trkpt>
      <trkpt lat="59.083206653594971" lon="30.012974739074707">
        <time>2026-04-25T09:22:35Z</time>
      </trkpt>
      <trkpt lat="59.083206653594971" lon="30.012974739074707">
        <time>2026-04-25T09:22:38Z</time>
      </trkpt>
      <trkpt lat="59.083206653594971" lon="30.012974739074707">
        <time>2026-04-25T09:22:40Z</time>
      </trkpt>
      <trkpt lat="59.083206653594971" lon="30.012974739074707">
        <time>2026-04-25T09:22:43Z</time>
      </trkpt>
      <trkpt lat="59.083206653594971" lon="30.012974739074707">
        <time>2026-04-25T09:22:45Z</time>
      </trkpt>
      <trkpt lat="59.083163738250732" lon="30.012974739074707">
        <time>2026-04-25T09:22:50Z</time>
      </trkpt>
      <trkpt lat="59.083142280578613" lon="30.012974739074707">
        <time>2026-04-25T09:22:53Z</time>
      </trkpt>
      <trkpt lat="59.083120822906494" lon="30.012996196746826">
        <time>2026-04-25T09:22:55Z</time>
      </trkpt>
      <trkpt lat="59.083099365234375" lon="30.013017654418945">
        <time>2026-04-25T09:22:58Z</time>
      </trkpt>
      <trkpt lat="59.083077907562256" lon="30.013039112091064">
        <time>2026-04-25T09:23:00Z</time>
      </trkpt>
      <trkpt lat="59.083077907562256" lon="30.013060569763184">
        <time>2026-04-25T09:23:03Z</time>
      </trkpt>
      <trkpt lat="59.083056449890137" lon="30.013060569763184">
        <time>2026-04-25T09:23:05Z</time>
      </trkpt>
      <trkpt lat="59.083056449890137" lon="30.013039112091064">
        <time>2026-04-25T09:23:08Z</time>
      </trkpt>
      <trkpt lat="59.083034992218018" lon="30.013039112091064">
        <time>2026-04-25T09:23:10Z</time>
      </trkpt>
      <trkpt lat="59.083034992218018" lon="30.013060569763184">
        <time>2026-04-25T09:23:13Z</time>
      </trkpt>
      <trkpt lat="59.083013534545898" lon="30.013039112091064">
        <time>2026-04-25T09:23:15Z</time>
      </trkpt>
      <trkpt lat="59.083013534545898" lon="30.013017654418945">
        <time>2026-04-25T09:23:18Z</time>
      </trkpt>
      <trkpt lat="59.083013534545898" lon="30.012996196746826">
        <time>2026-04-25T09:23:23Z</time>
      </trkpt>
      <trkpt lat="59.083013534545898" lon="30.012996196746826">
        <time>2026-04-25T09:23:25Z</time>
      </trkpt>
      <trkpt lat="59.083013534545898" lon="30.012974739074707">
        <time>2026-04-25T09:23:28Z</time>
      </trkpt>
      <trkpt lat="59.082992076873779" lon="30.01291036605835">
        <time>2026-04-25T09:23:30Z</time>
      </trkpt>
      <trkpt lat="59.082949161529541" lon="30.01288890838623">
        <time>2026-04-25T09:23:33Z</time>
      </trkpt>
      <trkpt lat="59.082884788513184" lon="30.012867450714111">
        <time>2026-04-25T09:23:35Z</time>
      </trkpt>
      <trkpt lat="59.082863330841064" lon="30.012845993041992">
        <time>2026-04-25T09:23:38Z</time>
      </trkpt>
      <trkpt lat="59.082841873168945" lon="30.012845993041992">
        <time>2026-04-25T09:23:40Z</time>
      </trkpt>
      <trkpt lat="59.082820415496826" lon="30.012845993041992">
        <time>2026-04-25T09:23:43Z</time>
      </trkpt>
      <trkpt lat="59.082798957824707" lon="30.012845993041992">
        <time>2026-04-25T09:23:45Z</time>
      </trkpt>
      <trkpt lat="59.082756042480469" lon="30.012867450714111">
        <time>2026-04-25T09:23:48Z</time>
      </trkpt>
      <trkpt lat="59.08271312713623" lon="30.012931823730469">
        <time>2026-04-25T09:23:50Z</time>
      </trkpt>
      <trkpt lat="59.082648754119873" lon="30.012996196746826">
        <time>2026-04-25T09:23:53Z</time>
      </trkpt>
      <trkpt lat="59.082584381103516" lon="30.013017654418945">
        <time>2026-04-25T09:23:55Z</time>
      </trkpt>
      <trkpt lat="59.082562923431396" lon="30.013039112091064">
        <time>2026-04-25T09:23:58Z</time>
      </trkpt>
      <trkpt lat="59.082541465759277" lon="30.013082027435303">
        <time>2026-04-25T09:24:00Z</time>
      </trkpt>
      <trkpt lat="59.082369804382324" lon="30.013210773468018">
        <time>2026-04-25T09:24:05Z</time>
      </trkpt>
      <trkpt lat="59.082283973693848" lon="30.013189315795898">
        <time>2026-04-25T09:24:08Z</time>
      </trkpt>
      <trkpt lat="59.082176685333252" lon="30.013275146484375">
        <time>2026-04-25T09:24:10Z</time>
      </trkpt>
      <trkpt lat="59.082176685333252" lon="30.013275146484375">
        <time>2026-04-25T09:24:13Z</time>
      </trkpt>
      <trkpt lat="59.082155227661133" lon="30.013275146484375">
        <time>2026-04-25T09:24:15Z</time>
      </trkpt>
      <trkpt lat="59.082155227661133" lon="30.013318061828613">
        <time>2026-04-25T09:24:18Z</time>
      </trkpt>
      <trkpt lat="59.082112312316895" lon="30.013360977172852">
        <time>2026-04-25T09:24:20Z</time>
      </trkpt>
      <trkpt lat="59.082090854644775" lon="30.013360977172852">
        <time>2026-04-25T09:24:23Z</time>
      </trkpt>
      <trkpt lat="59.082005023956299" lon="30.013296604156494">
        <time>2026-04-25T09:24:30Z</time>
      </trkpt>
      <trkpt lat="59.082026481628418" lon="30.013296604156494">
        <time>2026-04-25T09:24:33Z</time>
      </trkpt>
      <trkpt lat="59.082026481628418" lon="30.013318061828613">
        <time>2026-04-25T09:24:35Z</time>
      </trkpt>
      <trkpt lat="59.082005023956299" lon="30.013318061828613">
        <time>2026-04-25T09:24:38Z</time>
      </trkpt>
      <trkpt lat="59.082047939300537" lon="30.013318061828613">
        <time>2026-04-25T09:24:40Z</time>
      </trkpt>
      <trkpt lat="59.082133769989014" lon="30.013318061828613">
        <time>2026-04-25T09:24:43Z</time>
      </trkpt>
      <trkpt lat="59.082198143005371" lon="30.013360977172852">
        <time>2026-04-25T09:24:45Z</time>
      </trkpt>
      <trkpt lat="59.082434177398682" lon="30.013210773468018">
        <time>2026-04-25T09:24:53Z</time>
      </trkpt>
      <trkpt lat="59.08247709274292" lon="30.013210773468018">
        <time>2026-04-25T09:24:55Z</time>
      </trkpt>
      <trkpt lat="59.082498550415039" lon="30.013210773468018">
        <time>2026-04-25T09:24:58Z</time>
      </trkpt>
      <trkpt lat="59.082520008087158" lon="30.013210773468018">
        <time>2026-04-25T09:25:00Z</time>
      </trkpt>
      <trkpt lat="59.082520008087158" lon="30.013210773468018">
        <time>2026-04-25T09:25:03Z</time>
      </trkpt>
      <trkpt lat="59.082520008087158" lon="30.013210773468018">
        <time>2026-04-25T09:25:05Z</time>
      </trkpt>
      <trkpt lat="59.082584381103516" lon="30.013275146484375">
        <time>2026-04-25T09:25:08Z</time>
      </trkpt>
      <trkpt lat="59.082648754119873" lon="30.013382434844971">
        <time>2026-04-25T09:25:10Z</time>
      </trkpt>
      <trkpt lat="59.082691669464111" lon="30.013468265533447">
        <time>2026-04-25T09:25:13Z</time>
      </trkpt>
      <trkpt lat="59.082756042480469" lon="30.013575553894043">
        <time>2026-04-25T09:25:15Z</time>
      </trkpt>
      <trkpt lat="59.082777500152588" lon="30.013597011566162">
        <time>2026-04-25T09:25:18Z</time>
      </trkpt>
      <trkpt lat="59.082798957824707" lon="30.013597011566162">
        <time>2026-04-25T09:25:20Z</time>
      </trkpt>
      <trkpt lat="59.082820415496826" lon="30.013575553894043">
        <time>2026-04-25T09:25:25Z</time>
      </trkpt>
      <trkpt lat="59.082863330841064" lon="30.013511180877686">
        <time>2026-04-25T09:25:28Z</time>
      </trkpt>
      <trkpt lat="59.082949161529541" lon="30.013382434844971">
        <time>2026-04-25T09:25:30Z</time>
      </trkpt>
      <trkpt lat="59.08297061920166" lon="30.013275146484375">
        <time>2026-04-25T09:25:33Z</time>
      </trkpt>
      <trkpt lat="59.082992076873779" lon="30.013210773468018">
        <time>2026-04-25T09:25:35Z</time>
      </trkpt>
      <trkpt lat="59.083013534545898" lon="30.013167858123779">
        <time>2026-04-25T09:25:38Z</time>
      </trkpt>
      <trkpt lat="59.083056449890137" lon="30.013124942779541">
        <time>2026-04-25T09:25:40Z</time>
      </trkpt>
      <trkpt lat="59.083077907562256" lon="30.013039112091064">
        <time>2026-04-25T09:25:43Z</time>
      </trkpt>
      <trkpt lat="59.083163738250732" lon="30.01291036605835">
        <time>2026-04-25T09:25:45Z</time>
      </trkpt>
      <trkpt lat="59.083185195922852" lon="30.012803077697754">
        <time>2026-04-25T09:25:48Z</time>
      </trkpt>
      <trkpt lat="59.08322811126709" lon="30.012695789337158">
        <time>2026-04-25T09:25:50Z</time>
      </trkpt>
      <trkpt lat="59.083249568939209" lon="30.012674331665039">
        <time>2026-04-25T09:25:53Z</time>
      </trkpt>
      <trkpt lat="59.083271026611328" lon="30.012502670288086">
        <time>2026-04-25T09:25:55Z</time>
      </trkpt>
      <trkpt lat="59.083292484283447" lon="30.012373924255371">
        <time>2026-04-25T09:25:58Z</time>
      </trkpt>
      <trkpt lat="59.083313941955566" lon="30.012309551239014">
        <time>2026-04-25T09:26:00Z</time>
      </trkpt>
      <trkpt lat="59.083313941955566" lon="30.012331008911133">
        <time>2026-04-25T09:26:03Z</time>
      </trkpt>
      <trkpt lat="59.083335399627686" lon="30.012331008911133">
        <time>2026-04-25T09:26:05Z</time>
      </trkpt>
      <trkpt lat="59.083335399627686" lon="30.012331008911133">
        <time>2026-04-25T09:26:08Z</time>
      </trkpt>
      <trkpt lat="59.083335399627686" lon="30.012331008911133">
        <time>2026-04-25T09:26:10Z</time>
      </trkpt>
      <trkpt lat="59.083335399627686" lon="30.012331008911133">
        <time>2026-04-25T09:26:13Z</time>
      </trkpt>
      <trkpt lat="59.083335399627686" lon="30.012331008911133">
        <time>2026-04-25T09:26:15Z</time>
      </trkpt>
      <trkpt lat="59.083335399627686" lon="30.012331008911133">
        <time>2026-04-25T09:26:18Z</time>
      </trkpt>
      <trkpt lat="59.083335399627686" lon="30.012331008911133">
        <time>2026-04-25T09:26:20Z</time>
      </trkpt>
      <trkpt lat="59.083335399627686" lon="30.012331008911133">
        <time>2026-04-25T09:26:23Z</time>
      </trkpt>
      <trkpt lat="59.083335399627686" lon="30.012331008911133">
        <time>2026-04-25T09:26:25Z</time>
      </trkpt>
      <trkpt lat="59.083335399627686" lon="30.012331008911133">
        <time>2026-04-25T09:26:28Z</time>
      </trkpt>
      <trkpt lat="59.083335399627686" lon="30.012331008911133">
        <time>2026-04-25T09:26:30Z</time>
      </trkpt>
      <trkpt lat="59.083335399627686" lon="30.012331008911133">
        <time>2026-04-25T09:26:33Z</time>
      </trkpt>
      <trkpt lat="59.083335399627686" lon="30.012331008911133">
        <time>2026-04-25T09:26:35Z</time>
      </trkpt>
      <trkpt lat="59.083335399627686" lon="30.012331008911133">
        <time>2026-04-25T09:26:38Z</time>
      </trkpt>
      <trkpt lat="59.083335399627686" lon="30.012331008911133">
        <time>2026-04-25T09:26:40Z</time>
      </trkpt>
      <trkpt lat="59.083335399627686" lon="30.012331008911133">
        <time>2026-04-25T09:26:43Z</time>
      </trkpt>
      <trkpt lat="59.083335399627686" lon="30.012331008911133">
        <time>2026-04-25T09:26:45Z</time>
      </trkpt>
      <trkpt lat="59.083335399627686" lon="30.012331008911133">
        <time>2026-04-25T09:26:48Z</time>
      </trkpt>
      <trkpt lat="59.083335399627686" lon="30.012331008911133">
        <time>2026-04-25T09:26:50Z</time>
      </trkpt>
      <trkpt lat="59.083335399627686" lon="30.012331008911133">
        <time>2026-04-25T09:26:53Z</time>
      </trkpt>
      <trkpt lat="59.083335399627686" lon="30.012331008911133">
        <time>2026-04-25T09:26:55Z</time>
      </trkpt>
      <trkpt lat="59.083335399627686" lon="30.012331008911133">
        <time>2026-04-25T09:26:58Z</time>
      </trkpt>
      <trkpt lat="59.083335399627686" lon="30.012331008911133">
        <time>2026-04-25T09:27:00Z</time>
      </trkpt>
      <trkpt lat="59.083335399627686" lon="30.012331008911133">
        <time>2026-04-25T09:27:03Z</time>
      </trkpt>
      <trkpt lat="59.083335399627686" lon="30.012331008911133">
        <time>2026-04-25T09:27:05Z</time>
      </trkpt>
      <trkpt lat="59.083335399627686" lon="30.012331008911133">
        <time>2026-04-25T09:27:08Z</time>
      </trkpt>
      <trkpt lat="59.083335399627686" lon="30.012331008911133">
        <time>2026-04-25T09:27:10Z</time>
      </trkpt>
      <trkpt lat="59.083335399627686" lon="30.012331008911133">
        <time>2026-04-25T09:27:13Z</time>
      </trkpt>
      <trkpt lat="59.083335399627686" lon="30.012331008911133">
        <time>2026-04-25T09:27:15Z</time>
      </trkpt>
      <trkpt lat="59.083335399627686" lon="30.012331008911133">
        <time>2026-04-25T09:27:18Z</time>
      </trkpt>
      <trkpt lat="59.083335399627686" lon="30.012331008911133">
        <time>2026-04-25T09:27:20Z</time>
      </trkpt>
      <trkpt lat="59.083335399627686" lon="30.012331008911133">
        <time>2026-04-25T09:27:23Z</time>
      </trkpt>
      <trkpt lat="59.083313941955566" lon="30.012309551239014">
        <time>2026-04-25T09:27:25Z</time>
      </trkpt>
      <trkpt lat="59.083313941955566" lon="30.012309551239014">
        <time>2026-04-25T09:27:28Z</time>
      </trkpt>
      <trkpt lat="59.083313941955566" lon="30.012309551239014">
        <time>2026-04-25T09:27:30Z</time>
      </trkpt>
      <trkpt lat="59.083313941955566" lon="30.012309551239014">
        <time>2026-04-25T09:27:33Z</time>
      </trkpt>
      <trkpt lat="59.083313941955566" lon="30.012331008911133">
        <time>2026-04-25T09:27:35Z</time>
      </trkpt>
      <trkpt lat="59.083335399627686" lon="30.012331008911133">
        <time>2026-04-25T09:27:38Z</time>
      </trkpt>
      <trkpt lat="59.083335399627686" lon="30.012331008911133">
        <time>2026-04-25T09:27:40Z</time>
      </trkpt>
      <trkpt lat="59.083335399627686" lon="30.012331008911133">
        <time>2026-04-25T09:27:43Z</time>
      </trkpt>
      <trkpt lat="59.083335399627686" lon="30.012352466583252">
        <time>2026-04-25T09:27:45Z</time>
      </trkpt>
      <trkpt lat="59.083378314971924" lon="30.012331008911133">
        <time>2026-04-25T09:27:48Z</time>
      </trkpt>
      <trkpt lat="59.083399772644043" lon="30.012288093566895">
        <time>2026-04-25T09:27:50Z</time>
      </trkpt>
      <trkpt lat="59.083442687988281" lon="30.012288093566895">
        <time>2026-04-25T09:27:53Z</time>
      </trkpt>
      <trkpt lat="59.0834641456604" lon="30.012245178222656">
        <time>2026-04-25T09:27:55Z</time>
      </trkpt>
      <trkpt lat="59.08348560333252" lon="30.012223720550537">
        <time>2026-04-25T09:27:58Z</time>
      </trkpt>
      <trkpt lat="59.083507061004639" lon="30.012223720550537">
        <time>2026-04-25T09:28:00Z</time>
      </trkpt>
      <trkpt lat="59.083507061004639" lon="30.012180805206299">
        <time>2026-04-25T09:28:03Z</time>
      </trkpt>
      <trkpt lat="59.083528518676758" lon="30.012116432189941">
        <time>2026-04-25T09:28:05Z</time>
      </trkpt>
      <trkpt lat="59.083528518676758" lon="30.012116432189941">
        <time>2026-04-25T09:28:08Z</time>
      </trkpt>
      <trkpt lat="59.083528518676758" lon="30.012116432189941">
        <time>2026-04-25T09:28:10Z</time>
      </trkpt>
      <trkpt lat="59.083549976348877" lon="30.012116432189941">
        <time>2026-04-25T09:28:13Z</time>
      </trkpt>
      <trkpt lat="59.083549976348877" lon="30.012094974517822">
        <time>2026-04-25T09:28:15Z</time>
      </trkpt>
      <trkpt lat="59.083549976348877" lon="30.012073516845703">
        <time>2026-04-25T09:28:18Z</time>
      </trkpt>
      <trkpt lat="59.083549976348877" lon="30.011944770812988">
        <time>2026-04-25T09:28:20Z</time>
      </trkpt>
      <trkpt lat="59.083528518676758" lon="30.011816024780273">
        <time>2026-04-25T09:28:23Z</time>
      </trkpt>
      <trkpt lat="59.083528518676758" lon="30.011687278747559">
        <time>2026-04-25T09:28:25Z</time>
      </trkpt>
      <trkpt lat="59.083528518676758" lon="30.011665821075439">
        <time>2026-04-25T09:28:28Z</time>
      </trkpt>
      <trkpt lat="59.083507061004639" lon="30.01164436340332">
        <time>2026-04-25T09:28:30Z</time>
      </trkpt>
      <trkpt lat="59.083507061004639" lon="30.01164436340332">
        <time>2026-04-25T09:28:33Z</time>
      </trkpt>
      <trkpt lat="59.083507061004639" lon="30.01164436340332">
        <time>2026-04-25T09:28:35Z</time>
      </trkpt>
      <trkpt lat="59.083507061004639" lon="30.01164436340332">
        <time>2026-04-25T09:28:38Z</time>
      </trkpt>
      <trkpt lat="59.083507061004639" lon="30.01164436340332">
        <time>2026-04-25T09:28:40Z</time>
      </trkpt>
      <trkpt lat="59.083507061004639" lon="30.01164436340332">
        <time>2026-04-25T09:28:43Z</time>
      </trkpt>
      <trkpt lat="59.083507061004639" lon="30.01164436340332">
        <time>2026-04-25T09:28:45Z</time>
      </trkpt>
      <trkpt lat="59.083507061004639" lon="30.01164436340332">
        <time>2026-04-25T09:28:48Z</time>
      </trkpt>
      <trkpt lat="59.083507061004639" lon="30.011622905731201">
        <time>2026-04-25T09:28:50Z</time>
      </trkpt>
      <trkpt lat="59.083507061004639" lon="30.011622905731201">
        <time>2026-04-25T09:28:53Z</time>
      </trkpt>
      <trkpt lat="59.083507061004639" lon="30.011601448059082">
        <time>2026-04-25T09:28:55Z</time>
      </trkpt>
      <trkpt lat="59.083507061004639" lon="30.011601448059082">
        <time>2026-04-25T09:28:58Z</time>
      </trkpt>
      <trkpt lat="59.08348560333252" lon="30.011579990386963">
        <time>2026-04-25T09:29:00Z</time>
      </trkpt>
      <trkpt lat="59.08348560333252" lon="30.011579990386963">
        <time>2026-04-25T09:29:03Z</time>
      </trkpt>
      <trkpt lat="59.08348560333252" lon="30.011579990386963">
        <time>2026-04-25T09:29:05Z</time>
      </trkpt>
      <trkpt lat="59.08348560333252" lon="30.011579990386963">
        <time>2026-04-25T09:29:08Z</time>
      </trkpt>
      <trkpt lat="59.08348560333252" lon="30.011579990386963">
        <time>2026-04-25T09:29:10Z</time>
      </trkpt>
      <trkpt lat="59.08348560333252" lon="30.011601448059082">
        <time>2026-04-25T09:29:13Z</time>
      </trkpt>
      <trkpt lat="59.08348560333252" lon="30.011601448059082">
        <time>2026-04-25T09:29:15Z</time>
      </trkpt>
      <trkpt lat="59.08348560333252" lon="30.011601448059082">
        <time>2026-04-25T09:29:18Z</time>
      </trkpt>
      <trkpt lat="59.08348560333252" lon="30.011601448059082">
        <time>2026-04-25T09:29:20Z</time>
      </trkpt>
      <trkpt lat="59.08348560333252" lon="30.011601448059082">
        <time>2026-04-25T09:29:23Z</time>
      </trkpt>
      <trkpt lat="59.08348560333252" lon="30.011601448059082">
        <time>2026-04-25T09:29:25Z</time>
      </trkpt>
      <trkpt lat="59.08348560333252" lon="30.011601448059082">
        <time>2026-04-25T09:29:28Z</time>
      </trkpt>
      <trkpt lat="59.08348560333252" lon="30.011601448059082">
        <time>2026-04-25T09:29:30Z</time>
      </trkpt>
      <trkpt lat="59.08348560333252" lon="30.011579990386963">
        <time>2026-04-25T09:29:33Z</time>
      </trkpt>
      <trkpt lat="59.08348560333252" lon="30.011579990386963">
        <time>2026-04-25T09:29:35Z</time>
      </trkpt>
      <trkpt lat="59.08348560333252" lon="30.011601448059082">
        <time>2026-04-25T09:29:38Z</time>
      </trkpt>
      <trkpt lat="59.0834641456604" lon="30.011579990386963">
        <time>2026-04-25T09:29:40Z</time>
      </trkpt>
      <trkpt lat="59.083442687988281" lon="30.011579990386963">
        <time>2026-04-25T09:29:43Z</time>
      </trkpt>
      <trkpt lat="59.083421230316162" lon="30.011579990386963">
        <time>2026-04-25T09:29:45Z</time>
      </trkpt>
      <trkpt lat="59.083399772644043" lon="30.011601448059082">
        <time>2026-04-25T09:29:48Z</time>
      </trkpt>
      <trkpt lat="59.083378314971924" lon="30.011687278747559">
        <time>2026-04-25T09:29:50Z</time>
      </trkpt>
      <trkpt lat="59.083356857299805" lon="30.011751651763916">
        <time>2026-04-25T09:29:53Z</time>
      </trkpt>
      <trkpt lat="59.083292484283447" lon="30.011708736419678">
        <time>2026-04-25T09:29:55Z</time>
      </trkpt>
      <trkpt lat="59.083271026611328" lon="30.011665821075439">
        <time>2026-04-25T09:29:58Z</time>
      </trkpt>
      <trkpt lat="59.083249568939209" lon="30.011622905731201">
        <time>2026-04-25T09:30:00Z</time>
      </trkpt>
      <trkpt lat="59.083249568939209" lon="30.011601448059082">
        <time>2026-04-25T09:30:03Z</time>
      </trkpt>
      <trkpt lat="59.083271026611328" lon="30.011515617370605">
        <time>2026-04-25T09:30:05Z</time>
      </trkpt>
      <trkpt lat="59.083271026611328" lon="30.011472702026367">
        <time>2026-04-25T09:30:08Z</time>
      </trkpt>
      <trkpt lat="59.083271026611328" lon="30.011429786682129">
        <time>2026-04-25T09:30:10Z</time>
      </trkpt>
      <trkpt lat="59.083271026611328" lon="30.011365413665771">
        <time>2026-04-25T09:30:13Z</time>
      </trkpt>
      <trkpt lat="59.083271026611328" lon="30.011322498321533">
        <time>2026-04-25T09:30:15Z</time>
      </trkpt>
      <trkpt lat="59.083292484283447" lon="30.011258125305176">
        <time>2026-04-25T09:30:18Z</time>
      </trkpt>
      <trkpt lat="59.083292484283447" lon="30.011172294616699">
        <time>2026-04-25T09:30:20Z</time>
      </trkpt>
      <trkpt lat="59.083292484283447" lon="30.01115083694458">
        <time>2026-04-25T09:30:23Z</time>
      </trkpt>
      <trkpt lat="59.083271026611328" lon="30.011107921600342">
        <time>2026-04-25T09:30:25Z</time>
      </trkpt>
      <trkpt lat="59.083271026611328" lon="30.011065006256104">
        <time>2026-04-25T09:30:28Z</time>
      </trkpt>
      <trkpt lat="59.083271026611328" lon="30.010979175567627">
        <time>2026-04-25T09:30:30Z</time>
      </trkpt>
      <trkpt lat="59.083271026611328" lon="30.01091480255127">
        <time>2026-04-25T09:30:33Z</time>
      </trkpt>
      <trkpt lat="59.083292484283447" lon="30.010828971862793">
        <time>2026-04-25T09:30:35Z</time>
      </trkpt>
      <trkpt lat="59.083313941955566" lon="30.010786056518555">
        <time>2026-04-25T09:30:38Z</time>
      </trkpt>
      <trkpt lat="59.083313941955566" lon="30.010743141174316">
        <time>2026-04-25T09:30:40Z</time>
      </trkpt>
      <trkpt lat="59.083313941955566" lon="30.010721683502197">
        <time>2026-04-25T09:30:43Z</time>
      </trkpt>
      <trkpt lat="59.083313941955566" lon="30.010678768157959">
        <time>2026-04-25T09:30:45Z</time>
      </trkpt>
      <trkpt lat="59.083292484283447" lon="30.01065731048584">
        <time>2026-04-25T09:30:48Z</time>
      </trkpt>
      <trkpt lat="59.083292484283447" lon="30.010614395141602">
        <time>2026-04-25T09:30:50Z</time>
      </trkpt>
      <trkpt lat="59.083292484283447" lon="30.010614395141602">
        <time>2026-04-25T09:30:53Z</time>
      </trkpt>
      <trkpt lat="59.083292484283447" lon="30.010614395141602">
        <time>2026-04-25T09:30:55Z</time>
      </trkpt>
      <trkpt lat="59.083271026611328" lon="30.010592937469482">
        <time>2026-04-25T09:30:58Z</time>
      </trkpt>
      <trkpt lat="59.083292484283447" lon="30.010550022125244">
        <time>2026-04-25T09:31:00Z</time>
      </trkpt>
      <trkpt lat="59.083292484283447" lon="30.010528564453125">
        <time>2026-04-25T09:31:03Z</time>
      </trkpt>
      <trkpt lat="59.083292484283447" lon="30.010528564453125">
        <time>2026-04-25T09:31:05Z</time>
      </trkpt>
      <trkpt lat="59.083271026611328" lon="30.010507106781006">
        <time>2026-04-25T09:31:08Z</time>
      </trkpt>
      <trkpt lat="59.083271026611328" lon="30.010464191436768">
        <time>2026-04-25T09:31:10Z</time>
      </trkpt>
      <trkpt lat="59.083249568939209" lon="30.010485649108887">
        <time>2026-04-25T09:31:13Z</time>
      </trkpt>
      <trkpt lat="59.083249568939209" lon="30.010464191436768">
        <time>2026-04-25T09:31:15Z</time>
      </trkpt>
      <trkpt lat="59.083249568939209" lon="30.010464191436768">
        <time>2026-04-25T09:31:18Z</time>
      </trkpt>
      <trkpt lat="59.08322811126709" lon="30.010485649108887">
        <time>2026-04-25T09:31:20Z</time>
      </trkpt>
      <trkpt lat="59.083206653594971" lon="30.010485649108887">
        <time>2026-04-25T09:31:23Z</time>
      </trkpt>
      <trkpt lat="59.083185195922852" lon="30.010464191436768">
        <time>2026-04-25T09:31:25Z</time>
      </trkpt>
      <trkpt lat="59.083185195922852" lon="30.010464191436768">
        <time>2026-04-25T09:31:28Z</time>
      </trkpt>
      <trkpt lat="59.083206653594971" lon="30.010485649108887">
        <time>2026-04-25T09:31:30Z</time>
      </trkpt>
      <trkpt lat="59.083206653594971" lon="30.010485649108887">
        <time>2026-04-25T09:31:33Z</time>
      </trkpt>
      <trkpt lat="59.083206653594971" lon="30.010485649108887">
        <time>2026-04-25T09:31:35Z</time>
      </trkpt>
      <trkpt lat="59.083206653594971" lon="30.010485649108887">
        <time>2026-04-25T09:31:38Z</time>
      </trkpt>
      <trkpt lat="59.083206653594971" lon="30.010485649108887">
        <time>2026-04-25T09:31:40Z</time>
      </trkpt>
      <trkpt lat="59.083206653594971" lon="30.010485649108887">
        <time>2026-04-25T09:31:43Z</time>
      </trkpt>
      <trkpt lat="59.083185195922852" lon="30.010507106781006">
        <time>2026-04-25T09:31:45Z</time>
      </trkpt>
      <trkpt lat="59.083185195922852" lon="30.010528564453125">
        <time>2026-04-25T09:31:48Z</time>
      </trkpt>
      <trkpt lat="59.083185195922852" lon="30.010571479797363">
        <time>2026-04-25T09:31:50Z</time>
      </trkpt>
      <trkpt lat="59.083185195922852" lon="30.010592937469482">
        <time>2026-04-25T09:31:53Z</time>
      </trkpt>
      <trkpt lat="59.083185195922852" lon="30.01065731048584">
        <time>2026-04-25T09:31:55Z</time>
      </trkpt>
      <trkpt lat="59.083163738250732" lon="30.01065731048584">
        <time>2026-04-25T09:31:58Z</time>
      </trkpt>
      <trkpt lat="59.083142280578613" lon="30.01065731048584">
        <time>2026-04-25T09:32:00Z</time>
      </trkpt>
      <trkpt lat="59.083120822906494" lon="30.010678768157959">
        <time>2026-04-25T09:32:03Z</time>
      </trkpt>
      <trkpt lat="59.083120822906494" lon="30.010700225830078">
        <time>2026-04-25T09:32:05Z</time>
      </trkpt>
      <trkpt lat="59.083142280578613" lon="30.010721683502197">
        <time>2026-04-25T09:32:08Z</time>
      </trkpt>
      <trkpt lat="59.083185195922852" lon="30.010721683502197">
        <time>2026-04-25T09:32:10Z</time>
      </trkpt>
      <trkpt lat="59.083206653594971" lon="30.010721683502197">
        <time>2026-04-25T09:32:13Z</time>
      </trkpt>
      <trkpt lat="59.08322811126709" lon="30.010743141174316">
        <time>2026-04-25T09:32:15Z</time>
      </trkpt>
      <trkpt lat="59.08322811126709" lon="30.010743141174316">
        <time>2026-04-25T09:32:18Z</time>
      </trkpt>
      <trkpt lat="59.083271026611328" lon="30.010764598846436">
        <time>2026-04-25T09:32:20Z</time>
      </trkpt>
      <trkpt lat="59.083292484283447" lon="30.010743141174316">
        <time>2026-04-25T09:32:23Z</time>
      </trkpt>
      <trkpt lat="59.083292484283447" lon="30.010764598846436">
        <time>2026-04-25T09:32:25Z</time>
      </trkpt>
      <trkpt lat="59.083292484283447" lon="30.010850429534912">
        <time>2026-04-25T09:32:30Z</time>
      </trkpt>
      <trkpt lat="59.083292484283447" lon="30.010936260223389">
        <time>2026-04-25T09:32:33Z</time>
      </trkpt>
      <trkpt lat="59.083292484283447" lon="30.011043548583984">
        <time>2026-04-25T09:32:35Z</time>
      </trkpt>
      <trkpt lat="59.083271026611328" lon="30.011043548583984">
        <time>2026-04-25T09:32:38Z</time>
      </trkpt>
      <trkpt lat="59.08322811126709" lon="30.011043548583984">
        <time>2026-04-25T09:32:40Z</time>
      </trkpt>
      <trkpt lat="59.083185195922852" lon="30.011043548583984">
        <time>2026-04-25T09:32:43Z</time>
      </trkpt>
      <trkpt lat="59.083120822906494" lon="30.011022090911865">
        <time>2026-04-25T09:32:45Z</time>
      </trkpt>
      <trkpt lat="59.083077907562256" lon="30.011043548583984">
        <time>2026-04-25T09:32:48Z</time>
      </trkpt>
      <trkpt lat="59.082992076873779" lon="30.011000633239746">
        <time>2026-04-25T09:32:50Z</time>
      </trkpt>
      <trkpt lat="59.082949161529541" lon="30.010957717895508">
        <time>2026-04-25T09:32:53Z</time>
      </trkpt>
      <trkpt lat="59.082927703857422" lon="30.010871887207031">
        <time>2026-04-25T09:32:55Z</time>
      </trkpt>
      <trkpt lat="59.082906246185303" lon="30.010807514190674">
        <time>2026-04-25T09:32:58Z</time>
      </trkpt>
      <trkpt lat="59.082927703857422" lon="30.010700225830078">
        <time>2026-04-25T09:33:00Z</time>
      </trkpt>
      <trkpt lat="59.082949161529541" lon="30.010635852813721">
        <time>2026-04-25T09:33:03Z</time>
      </trkpt>
      <trkpt lat="59.08297061920166" lon="30.010528564453125">
        <time>2026-04-25T09:33:05Z</time>
      </trkpt>
      <trkpt lat="59.082992076873779" lon="30.010464191436768">
        <time>2026-04-25T09:33:08Z</time>
      </trkpt>
      <trkpt lat="59.082992076873779" lon="30.01039981842041">
        <time>2026-04-25T09:33:10Z</time>
      </trkpt>
      <trkpt lat="59.083013534545898" lon="30.010378360748291">
        <time>2026-04-25T09:33:13Z</time>
      </trkpt>
      <trkpt lat="59.083013534545898" lon="30.010335445404053">
        <time>2026-04-25T09:33:15Z</time>
      </trkpt>
      <trkpt lat="59.083013534545898" lon="30.010313987731934">
        <time>2026-04-25T09:33:18Z</time>
      </trkpt>
      <trkpt lat="59.083013534545898" lon="30.010313987731934">
        <time>2026-04-25T09:33:20Z</time>
      </trkpt>
      <trkpt lat="59.083034992218018" lon="30.010313987731934">
        <time>2026-04-25T09:33:23Z</time>
      </trkpt>
      <trkpt lat="59.083034992218018" lon="30.010292530059814">
        <time>2026-04-25T09:33:25Z</time>
      </trkpt>
      <trkpt lat="59.083034992218018" lon="30.010292530059814">
        <time>2026-04-25T09:33:28Z</time>
      </trkpt>
      <trkpt lat="59.083034992218018" lon="30.010271072387695">
        <time>2026-04-25T09:33:30Z</time>
      </trkpt>
      <trkpt lat="59.083056449890137" lon="30.010249614715576">
        <time>2026-04-25T09:33:33Z</time>
      </trkpt>
      <trkpt lat="59.083077907562256" lon="30.010228157043457">
        <time>2026-04-25T09:33:35Z</time>
      </trkpt>
      <trkpt lat="59.083099365234375" lon="30.010185241699219">
        <time>2026-04-25T09:33:38Z</time>
      </trkpt>
      <trkpt lat="59.083120822906494" lon="30.01014232635498">
        <time>2026-04-25T09:33:40Z</time>
      </trkpt>
      <trkpt lat="59.083142280578613" lon="30.010099411010742">
        <time>2026-04-25T09:33:43Z</time>
      </trkpt>
      <trkpt lat="59.083142280578613" lon="30.010056495666504">
        <time>2026-04-25T09:33:45Z</time>
      </trkpt>
      <trkpt lat="59.083142280578613" lon="30.010013580322266">
        <time>2026-04-25T09:33:48Z</time>
      </trkpt>
      <trkpt lat="59.083142280578613" lon="30.009970664978027">
        <time>2026-04-25T09:33:50Z</time>
      </trkpt>
      <trkpt lat="59.083142280578613" lon="30.009970664978027">
        <time>2026-04-25T09:33:53Z</time>
      </trkpt>
      <trkpt lat="59.083120822906494" lon="30.009992122650146">
        <time>2026-04-25T09:33:55Z</time>
      </trkpt>
      <trkpt lat="59.083142280578613" lon="30.009992122650146">
        <time>2026-04-25T09:33:58Z</time>
      </trkpt>
      <trkpt lat="59.083142280578613" lon="30.009970664978027">
        <time>2026-04-25T09:34:00Z</time>
      </trkpt>
      <trkpt lat="59.083142280578613" lon="30.009970664978027">
        <time>2026-04-25T09:34:03Z</time>
      </trkpt>
      <trkpt lat="59.083142280578613" lon="30.009992122650146">
        <time>2026-04-25T09:34:05Z</time>
      </trkpt>
      <trkpt lat="59.083163738250732" lon="30.009992122650146">
        <time>2026-04-25T09:34:08Z</time>
      </trkpt>
      <trkpt lat="59.083185195922852" lon="30.010013580322266">
        <time>2026-04-25T09:34:10Z</time>
      </trkpt>
      <trkpt lat="59.083206653594971" lon="30.010013580322266">
        <time>2026-04-25T09:34:13Z</time>
      </trkpt>
      <trkpt lat="59.083249568939209" lon="30.010013580322266">
        <time>2026-04-25T09:34:15Z</time>
      </trkpt>
      <trkpt lat="59.083271026611328" lon="30.009970664978027">
        <time>2026-04-25T09:34:18Z</time>
      </trkpt>
      <trkpt lat="59.083271026611328" lon="30.009927749633789">
        <time>2026-04-25T09:34:20Z</time>
      </trkpt>
      <trkpt lat="59.083271026611328" lon="30.009884834289551">
        <time>2026-04-25T09:34:23Z</time>
      </trkpt>
      <trkpt lat="59.083271026611328" lon="30.009863376617432">
        <time>2026-04-25T09:34:25Z</time>
      </trkpt>
      <trkpt lat="59.083271026611328" lon="30.009863376617432">
        <time>2026-04-25T09:34:28Z</time>
      </trkpt>
      <trkpt lat="59.083249568939209" lon="30.009841918945313">
        <time>2026-04-25T09:34:30Z</time>
      </trkpt>
      <trkpt lat="59.083249568939209" lon="30.009841918945313">
        <time>2026-04-25T09:34:33Z</time>
      </trkpt>
      <trkpt lat="59.083249568939209" lon="30.009841918945313">
        <time>2026-04-25T09:34:35Z</time>
      </trkpt>
      <trkpt lat="59.083249568939209" lon="30.009841918945313">
        <time>2026-04-25T09:34:38Z</time>
      </trkpt>
      <trkpt lat="59.083271026611328" lon="30.009799003601074">
        <time>2026-04-25T09:34:40Z</time>
      </trkpt>
      <trkpt lat="59.083271026611328" lon="30.009777545928955">
        <time>2026-04-25T09:34:43Z</time>
      </trkpt>
      <trkpt lat="59.083271026611328" lon="30.009777545928955">
        <time>2026-04-25T09:34:45Z</time>
      </trkpt>
      <trkpt lat="59.083271026611328" lon="30.009799003601074">
        <time>2026-04-25T09:34:48Z</time>
      </trkpt>
      <trkpt lat="59.083271026611328" lon="30.009799003601074">
        <time>2026-04-25T09:34:50Z</time>
      </trkpt>
      <trkpt lat="59.083271026611328" lon="30.009799003601074">
        <time>2026-04-25T09:34:53Z</time>
      </trkpt>
      <trkpt lat="59.083271026611328" lon="30.009799003601074">
        <time>2026-04-25T09:34:55Z</time>
      </trkpt>
      <trkpt lat="59.083271026611328" lon="30.009799003601074">
        <time>2026-04-25T09:34:58Z</time>
      </trkpt>
      <trkpt lat="59.083271026611328" lon="30.009799003601074">
        <time>2026-04-25T09:35:00Z</time>
      </trkpt>
      <trkpt lat="59.083271026611328" lon="30.009799003601074">
        <time>2026-04-25T09:35:03Z</time>
      </trkpt>
      <trkpt lat="59.083271026611328" lon="30.009799003601074">
        <time>2026-04-25T09:35:05Z</time>
      </trkpt>
      <trkpt lat="59.083271026611328" lon="30.009756088256836">
        <time>2026-04-25T09:35:08Z</time>
      </trkpt>
      <trkpt lat="59.083271026611328" lon="30.009691715240479">
        <time>2026-04-25T09:35:10Z</time>
      </trkpt>
      <trkpt lat="59.083249568939209" lon="30.009670257568359">
        <time>2026-04-25T09:35:13Z</time>
      </trkpt>
      <trkpt lat="59.083249568939209" lon="30.00964879989624">
        <time>2026-04-25T09:35:15Z</time>
      </trkpt>
      <trkpt lat="59.083271026611328" lon="30.00964879989624">
        <time>2026-04-25T09:35:18Z</time>
      </trkpt>
      <trkpt lat="59.083271026611328" lon="30.009627342224121">
        <time>2026-04-25T09:35:20Z</time>
      </trkpt>
      <trkpt lat="59.083271026611328" lon="30.009627342224121">
        <time>2026-04-25T09:35:23Z</time>
      </trkpt>
      <trkpt lat="59.083271026611328" lon="30.00964879989624">
        <time>2026-04-25T09:35:25Z</time>
      </trkpt>
      <trkpt lat="59.083271026611328" lon="30.00964879989624">
        <time>2026-04-25T09:35:28Z</time>
      </trkpt>
      <trkpt lat="59.083249568939209" lon="30.009627342224121">
        <time>2026-04-25T09:35:30Z</time>
      </trkpt>
      <trkpt lat="59.083249568939209" lon="30.009605884552002">
        <time>2026-04-25T09:35:33Z</time>
      </trkpt>
      <trkpt lat="59.083249568939209" lon="30.009562969207764">
        <time>2026-04-25T09:35:35Z</time>
      </trkpt>
      <trkpt lat="59.083249568939209" lon="30.009541511535645">
        <time>2026-04-25T09:35:38Z</time>
      </trkpt>
      <trkpt lat="59.08322811126709" lon="30.009520053863525">
        <time>2026-04-25T09:35:40Z</time>
      </trkpt>
      <trkpt lat="59.08322811126709" lon="30.009498596191406">
        <time>2026-04-25T09:35:43Z</time>
      </trkpt>
      <trkpt lat="59.08322811126709" lon="30.00941276550293">
        <time>2026-04-25T09:35:45Z</time>
      </trkpt>
      <trkpt lat="59.08322811126709" lon="30.009369850158691">
        <time>2026-04-25T09:35:48Z</time>
      </trkpt>
      <trkpt lat="59.083206653594971" lon="30.009284019470215">
        <time>2026-04-25T09:35:53Z</time>
      </trkpt>
      <trkpt lat="59.083206653594971" lon="30.009219646453857">
        <time>2026-04-25T09:35:55Z</time>
      </trkpt>
      <trkpt lat="59.083206653594971" lon="30.009176731109619">
        <time>2026-04-25T09:35:58Z</time>
      </trkpt>
      <trkpt lat="59.083206653594971" lon="30.009133815765381">
        <time>2026-04-25T09:36:00Z</time>
      </trkpt>
      <trkpt lat="59.083206653594971" lon="30.009133815765381">
        <time>2026-04-25T09:36:03Z</time>
      </trkpt>
      <trkpt lat="59.083185195922852" lon="30.0091552734375">
        <time>2026-04-25T09:36:05Z</time>
      </trkpt>
      <trkpt lat="59.083185195922852" lon="30.009176731109619">
        <time>2026-04-25T09:36:08Z</time>
      </trkpt>
      <trkpt lat="59.083163738250732" lon="30.009219646453857">
        <time>2026-04-25T09:36:10Z</time>
      </trkpt>
      <trkpt lat="59.083163738250732" lon="30.009241104125977">
        <time>2026-04-25T09:36:13Z</time>
      </trkpt>
      <trkpt lat="59.083163738250732" lon="30.009262561798096">
        <time>2026-04-25T09:36:15Z</time>
      </trkpt>
      <trkpt lat="59.083163738250732" lon="30.009305477142334">
        <time>2026-04-25T09:36:18Z</time>
      </trkpt>
      <trkpt lat="59.083142280578613" lon="30.009369850158691">
        <time>2026-04-25T09:36:20Z</time>
      </trkpt>
      <trkpt lat="59.083142280578613" lon="30.009434223175049">
        <time>2026-04-25T09:36:23Z</time>
      </trkpt>
      <trkpt lat="59.083120822906494" lon="30.009562969207764">
        <time>2026-04-25T09:36:25Z</time>
      </trkpt>
      <trkpt lat="59.083120822906494" lon="30.00964879989624">
        <time>2026-04-25T09:36:28Z</time>
      </trkpt>
      <trkpt lat="59.083120822906494" lon="30.009734630584717">
        <time>2026-04-25T09:36:30Z</time>
      </trkpt>
      <trkpt lat="59.083099365234375" lon="30.009799003601074">
        <time>2026-04-25T09:36:33Z</time>
      </trkpt>
      <trkpt lat="59.083056449890137" lon="30.009841918945313">
        <time>2026-04-25T09:36:35Z</time>
      </trkpt>
      <trkpt lat="59.083034992218018" lon="30.009841918945313">
        <time>2026-04-25T09:36:38Z</time>
      </trkpt>
      <trkpt lat="59.082992076873779" lon="30.009841918945313">
        <time>2026-04-25T09:36:40Z</time>
      </trkpt>
      <trkpt lat="59.08297061920166" lon="30.009820461273193">
        <time>2026-04-25T09:36:43Z</time>
      </trkpt>
      <trkpt lat="59.082949161529541" lon="30.009863376617432">
        <time>2026-04-25T09:36:45Z</time>
      </trkpt>
      <trkpt lat="59.082927703857422" lon="30.009884834289551">
        <time>2026-04-25T09:36:48Z</time>
      </trkpt>
      <trkpt lat="59.082927703857422" lon="30.009927749633789">
        <time>2026-04-25T09:36:50Z</time>
      </trkpt>
      <trkpt lat="59.082927703857422" lon="30.009949207305908">
        <time>2026-04-25T09:36:53Z</time>
      </trkpt>
      <trkpt lat="59.082906246185303" lon="30.009992122650146">
        <time>2026-04-25T09:36:55Z</time>
      </trkpt>
      <trkpt lat="59.082906246185303" lon="30.009992122650146">
        <time>2026-04-25T09:36:58Z</time>
      </trkpt>
      <trkpt lat="59.082906246185303" lon="30.009992122650146">
        <time>2026-04-25T09:37:00Z</time>
      </trkpt>
      <trkpt lat="59.082906246185303" lon="30.009992122650146">
        <time>2026-04-25T09:37:03Z</time>
      </trkpt>
      <trkpt lat="59.082906246185303" lon="30.009992122650146">
        <time>2026-04-25T09:37:05Z</time>
      </trkpt>
      <trkpt lat="59.082906246185303" lon="30.010013580322266">
        <time>2026-04-25T09:37:08Z</time>
      </trkpt>
      <trkpt lat="59.082906246185303" lon="30.010013580322266">
        <time>2026-04-25T09:37:10Z</time>
      </trkpt>
      <trkpt lat="59.082927703857422" lon="30.009992122650146">
        <time>2026-04-25T09:37:13Z</time>
      </trkpt>
      <trkpt lat="59.082927703857422" lon="30.009992122650146">
        <time>2026-04-25T09:37:15Z</time>
      </trkpt>
      <trkpt lat="59.082927703857422" lon="30.009992122650146">
        <time>2026-04-25T09:37:18Z</time>
      </trkpt>
      <trkpt lat="59.082949161529541" lon="30.009992122650146">
        <time>2026-04-25T09:37:20Z</time>
      </trkpt>
      <trkpt lat="59.082949161529541" lon="30.009992122650146">
        <time>2026-04-25T09:37:23Z</time>
      </trkpt>
      <trkpt lat="59.082949161529541" lon="30.009992122650146">
        <time>2026-04-25T09:37:25Z</time>
      </trkpt>
      <trkpt lat="59.082949161529541" lon="30.009992122650146">
        <time>2026-04-25T09:37:28Z</time>
      </trkpt>
      <trkpt lat="59.082949161529541" lon="30.009992122650146">
        <time>2026-04-25T09:37:30Z</time>
      </trkpt>
      <trkpt lat="59.082949161529541" lon="30.009992122650146">
        <time>2026-04-25T09:37:33Z</time>
      </trkpt>
      <trkpt lat="59.082949161529541" lon="30.009992122650146">
        <time>2026-04-25T09:37:35Z</time>
      </trkpt>
      <trkpt lat="59.082949161529541" lon="30.009992122650146">
        <time>2026-04-25T09:37:38Z</time>
      </trkpt>
      <trkpt lat="59.082949161529541" lon="30.009992122650146">
        <time>2026-04-25T09:37:40Z</time>
      </trkpt>
      <trkpt lat="59.082949161529541" lon="30.009992122650146">
        <time>2026-04-25T09:37:43Z</time>
      </trkpt>
      <trkpt lat="59.082949161529541" lon="30.009992122650146">
        <time>2026-04-25T09:37:45Z</time>
      </trkpt>
      <trkpt lat="59.082949161529541" lon="30.009992122650146">
        <time>2026-04-25T09:37:48Z</time>
      </trkpt>
      <trkpt lat="59.082949161529541" lon="30.009992122650146">
        <time>2026-04-25T09:37:50Z</time>
      </trkpt>
      <trkpt lat="59.082949161529541" lon="30.009992122650146">
        <time>2026-04-25T09:37:53Z</time>
      </trkpt>
      <trkpt lat="59.082927703857422" lon="30.009992122650146">
        <time>2026-04-25T09:37:55Z</time>
      </trkpt>
      <trkpt lat="59.082927703857422" lon="30.009992122650146">
        <time>2026-04-25T09:37:58Z</time>
      </trkpt>
      <trkpt lat="59.082906246185303" lon="30.009970664978027">
        <time>2026-04-25T09:38:00Z</time>
      </trkpt>
      <trkpt lat="59.082884788513184" lon="30.009992122650146">
        <time>2026-04-25T09:38:03Z</time>
      </trkpt>
      <trkpt lat="59.082863330841064" lon="30.009992122650146">
        <time>2026-04-25T09:38:05Z</time>
      </trkpt>
      <trkpt lat="59.082841873168945" lon="30.009970664978027">
        <time>2026-04-25T09:38:08Z</time>
      </trkpt>
      <trkpt lat="59.082798957824707" lon="30.009949207305908">
        <time>2026-04-25T09:38:10Z</time>
      </trkpt>
      <trkpt lat="59.082777500152588" lon="30.00990629196167">
        <time>2026-04-25T09:38:13Z</time>
      </trkpt>
      <trkpt lat="59.082756042480469" lon="30.009841918945313">
        <time>2026-04-25T09:38:15Z</time>
      </trkpt>
      <trkpt lat="59.082756042480469" lon="30.009799003601074">
        <time>2026-04-25T09:38:18Z</time>
      </trkpt>
      <trkpt lat="59.082756042480469" lon="30.009713172912598">
        <time>2026-04-25T09:38:20Z</time>
      </trkpt>
      <trkpt lat="59.082777500152588" lon="30.009670257568359">
        <time>2026-04-25T09:38:23Z</time>
      </trkpt>
      <trkpt lat="59.082798957824707" lon="30.009584426879883">
        <time>2026-04-25T09:38:25Z</time>
      </trkpt>
      <trkpt lat="59.082820415496826" lon="30.009520053863525">
        <time>2026-04-25T09:38:28Z</time>
      </trkpt>
      <trkpt lat="59.082841873168945" lon="30.009455680847168">
        <time>2026-04-25T09:38:30Z</time>
      </trkpt>
      <trkpt lat="59.082841873168945" lon="30.009434223175049">
        <time>2026-04-25T09:38:33Z</time>
      </trkpt>
      <trkpt lat="59.082863330841064" lon="30.00941276550293">
        <time>2026-04-25T09:38:35Z</time>
      </trkpt>
      <trkpt lat="59.082863330841064" lon="30.00941276550293">
        <time>2026-04-25T09:38:38Z</time>
      </trkpt>
      <trkpt lat="59.082884788513184" lon="30.009391307830811">
        <time>2026-04-25T09:38:40Z</time>
      </trkpt>
      <trkpt lat="59.082906246185303" lon="30.009369850158691">
        <time>2026-04-25T09:38:43Z</time>
      </trkpt>
      <trkpt lat="59.082884788513184" lon="30.00941276550293">
        <time>2026-04-25T09:38:45Z</time>
      </trkpt>
      <trkpt lat="59.082863330841064" lon="30.009434223175049">
        <time>2026-04-25T09:38:48Z</time>
      </trkpt>
      <trkpt lat="59.082841873168945" lon="30.009434223175049">
        <time>2026-04-25T09:38:50Z</time>
      </trkpt>
      <trkpt lat="59.082820415496826" lon="30.009455680847168">
        <time>2026-04-25T09:38:53Z</time>
      </trkpt>
      <trkpt lat="59.082798957824707" lon="30.009434223175049">
        <time>2026-04-25T09:38:55Z</time>
      </trkpt>
      <trkpt lat="59.082777500152588" lon="30.009369850158691">
        <time>2026-04-25T09:38:58Z</time>
      </trkpt>
      <trkpt lat="59.082756042480469" lon="30.009391307830811">
        <time>2026-04-25T09:39:00Z</time>
      </trkpt>
      <trkpt lat="59.08273458480835" lon="30.009434223175049">
        <time>2026-04-25T09:39:03Z</time>
      </trkpt>
      <trkpt lat="59.08271312713623" lon="30.009498596191406">
        <time>2026-04-25T09:39:05Z</time>
      </trkpt>
      <trkpt lat="59.082670211791992" lon="30.009541511535645">
        <time>2026-04-25T09:39:08Z</time>
      </trkpt>
      <trkpt lat="59.082648754119873" lon="30.009584426879883">
        <time>2026-04-25T09:39:10Z</time>
      </trkpt>
      <trkpt lat="59.082605838775635" lon="30.009562969207764">
        <time>2026-04-25T09:39:13Z</time>
      </trkpt>
      <trkpt lat="59.082584381103516" lon="30.009605884552002">
        <time>2026-04-25T09:39:15Z</time>
      </trkpt>
      <trkpt lat="59.082541465759277" lon="30.00964879989624">
        <time>2026-04-25T09:39:18Z</time>
      </trkpt>
      <trkpt lat="59.082520008087158" lon="30.009691715240479">
        <time>2026-04-25T09:39:20Z</time>
      </trkpt>
      <trkpt lat="59.08247709274292" lon="30.009713172912598">
        <time>2026-04-25T09:39:23Z</time>
      </trkpt>
      <trkpt lat="59.082434177398682" lon="30.009734630584717">
        <time>2026-04-25T09:39:25Z</time>
      </trkpt>
      <trkpt lat="59.082412719726563" lon="30.009756088256836">
        <time>2026-04-25T09:39:28Z</time>
      </trkpt>
      <trkpt lat="59.082348346710205" lon="30.009863376617432">
        <time>2026-04-25T09:39:30Z</time>
      </trkpt>
      <trkpt lat="59.082326889038086" lon="30.009970664978027">
        <time>2026-04-25T09:39:33Z</time>
      </trkpt>
      <trkpt lat="59.082283973693848" lon="30.010077953338623">
        <time>2026-04-25T09:39:35Z</time>
      </trkpt>
      <trkpt lat="59.082262516021729" lon="30.01014232635498">
        <time>2026-04-25T09:39:38Z</time>
      </trkpt>
      <trkpt lat="59.082262516021729" lon="30.010206699371338">
        <time>2026-04-25T09:39:40Z</time>
      </trkpt>
      <trkpt lat="59.082241058349609" lon="30.010249614715576">
        <time>2026-04-25T09:39:43Z</time>
      </trkpt>
      <trkpt lat="59.08221960067749" lon="30.010313987731934">
        <time>2026-04-25T09:39:45Z</time>
      </trkpt>
      <trkpt lat="59.08221960067749" lon="30.010335445404053">
        <time>2026-04-25T09:39:48Z</time>
      </trkpt>
      <trkpt lat="59.08221960067749" lon="30.010335445404053">
        <time>2026-04-25T09:39:50Z</time>
      </trkpt>
      <trkpt lat="59.082241058349609" lon="30.010356903076172">
        <time>2026-04-25T09:39:53Z</time>
      </trkpt>
      <trkpt lat="59.082262516021729" lon="30.01039981842041">
        <time>2026-04-25T09:39:55Z</time>
      </trkpt>
      <trkpt lat="59.082283973693848" lon="30.010378360748291">
        <time>2026-04-25T09:39:58Z</time>
      </trkpt>
      <trkpt lat="59.082305431365967" lon="30.010335445404053">
        <time>2026-04-25T09:40:00Z</time>
      </trkpt>
      <trkpt lat="59.082348346710205" lon="30.010292530059814">
        <time>2026-04-25T09:40:03Z</time>
      </trkpt>
      <trkpt lat="59.082391262054443" lon="30.010271072387695">
        <time>2026-04-25T09:40:05Z</time>
      </trkpt>
      <trkpt lat="59.082434177398682" lon="30.010271072387695">
        <time>2026-04-25T09:40:08Z</time>
      </trkpt>
      <trkpt lat="59.082455635070801" lon="30.010292530059814">
        <time>2026-04-25T09:40:10Z</time>
      </trkpt>
      <trkpt lat="59.082455635070801" lon="30.010292530059814">
        <time>2026-04-25T09:40:13Z</time>
      </trkpt>
      <trkpt lat="59.082434177398682" lon="30.010292530059814">
        <time>2026-04-25T09:40:15Z</time>
      </trkpt>
      <trkpt lat="59.082434177398682" lon="30.010292530059814">
        <time>2026-04-25T09:40:18Z</time>
      </trkpt>
      <trkpt lat="59.082455635070801" lon="30.010313987731934">
        <time>2026-04-25T09:40:20Z</time>
      </trkpt>
      <trkpt lat="59.082455635070801" lon="30.010335445404053">
        <time>2026-04-25T09:40:23Z</time>
      </trkpt>
      <trkpt lat="59.082455635070801" lon="30.010356903076172">
        <time>2026-04-25T09:40:25Z</time>
      </trkpt>
      <trkpt lat="59.082455635070801" lon="30.010378360748291">
        <time>2026-04-25T09:40:28Z</time>
      </trkpt>
      <trkpt lat="59.08247709274292" lon="30.01039981842041">
        <time>2026-04-25T09:40:30Z</time>
      </trkpt>
      <trkpt lat="59.08247709274292" lon="30.01039981842041">
        <time>2026-04-25T09:40:33Z</time>
      </trkpt>
      <trkpt lat="59.082498550415039" lon="30.010421276092529">
        <time>2026-04-25T09:40:35Z</time>
      </trkpt>
      <trkpt lat="59.082498550415039" lon="30.010442733764648">
        <time>2026-04-25T09:40:38Z</time>
      </trkpt>
      <trkpt lat="59.082520008087158" lon="30.010464191436768">
        <time>2026-04-25T09:40:40Z</time>
      </trkpt>
      <trkpt lat="59.082520008087158" lon="30.010464191436768">
        <time>2026-04-25T09:40:43Z</time>
      </trkpt>
      <trkpt lat="59.082520008087158" lon="30.010464191436768">
        <time>2026-04-25T09:40:45Z</time>
      </trkpt>
      <trkpt lat="59.082520008087158" lon="30.010464191436768">
        <time>2026-04-25T09:40:48Z</time>
      </trkpt>
      <trkpt lat="59.082498550415039" lon="30.010464191436768">
        <time>2026-04-25T09:40:50Z</time>
      </trkpt>
      <trkpt lat="59.082498550415039" lon="30.010464191436768">
        <time>2026-04-25T09:40:53Z</time>
      </trkpt>
      <trkpt lat="59.082498550415039" lon="30.010464191436768">
        <time>2026-04-25T09:40:55Z</time>
      </trkpt>
      <trkpt lat="59.082498550415039" lon="30.010464191436768">
        <time>2026-04-25T09:40:58Z</time>
      </trkpt>
      <trkpt lat="59.082498550415039" lon="30.010464191436768">
        <time>2026-04-25T09:41:00Z</time>
      </trkpt>
      <trkpt lat="59.082498550415039" lon="30.010464191436768">
        <time>2026-04-25T09:41:03Z</time>
      </trkpt>
      <trkpt lat="59.082498550415039" lon="30.010464191436768">
        <time>2026-04-25T09:41:05Z</time>
      </trkpt>
      <trkpt lat="59.082498550415039" lon="30.010464191436768">
        <time>2026-04-25T09:41:08Z</time>
      </trkpt>
      <trkpt lat="59.082498550415039" lon="30.010442733764648">
        <time>2026-04-25T09:41:10Z</time>
      </trkpt>
      <trkpt lat="59.082498550415039" lon="30.010442733764648">
        <time>2026-04-25T09:41:13Z</time>
      </trkpt>
      <trkpt lat="59.082498550415039" lon="30.010442733764648">
        <time>2026-04-25T09:41:15Z</time>
      </trkpt>
      <trkpt lat="59.082498550415039" lon="30.010442733764648">
        <time>2026-04-25T09:41:18Z</time>
      </trkpt>
      <trkpt lat="59.082498550415039" lon="30.010442733764648">
        <time>2026-04-25T09:41:20Z</time>
      </trkpt>
      <trkpt lat="59.082498550415039" lon="30.010442733764648">
        <time>2026-04-25T09:41:23Z</time>
      </trkpt>
      <trkpt lat="59.082498550415039" lon="30.010442733764648">
        <time>2026-04-25T09:41:25Z</time>
      </trkpt>
      <trkpt lat="59.082498550415039" lon="30.010442733764648">
        <time>2026-04-25T09:41:28Z</time>
      </trkpt>
      <trkpt lat="59.082498550415039" lon="30.010442733764648">
        <time>2026-04-25T09:41:30Z</time>
      </trkpt>
      <trkpt lat="59.082498550415039" lon="30.010442733764648">
        <time>2026-04-25T09:41:33Z</time>
      </trkpt>
      <trkpt lat="59.082498550415039" lon="30.010485649108887">
        <time>2026-04-25T09:41:35Z</time>
      </trkpt>
      <trkpt lat="59.08247709274292" lon="30.010507106781006">
        <time>2026-04-25T09:41:38Z</time>
      </trkpt>
      <trkpt lat="59.082455635070801" lon="30.010528564453125">
        <time>2026-04-25T09:41:40Z</time>
      </trkpt>
      <trkpt lat="59.082455635070801" lon="30.010528564453125">
        <time>2026-04-25T09:41:43Z</time>
      </trkpt>
      <trkpt lat="59.082455635070801" lon="30.010528564453125">
        <time>2026-04-25T09:41:45Z</time>
      </trkpt>
      <trkpt lat="59.082455635070801" lon="30.010507106781006">
        <time>2026-04-25T09:41:48Z</time>
      </trkpt>
      <trkpt lat="59.082455635070801" lon="30.010528564453125">
        <time>2026-04-25T09:41:50Z</time>
      </trkpt>
      <trkpt lat="59.082455635070801" lon="30.010528564453125">
        <time>2026-04-25T09:41:53Z</time>
      </trkpt>
      <trkpt lat="59.082455635070801" lon="30.010550022125244">
        <time>2026-04-25T09:41:55Z</time>
      </trkpt>
      <trkpt lat="59.08247709274292" lon="30.010571479797363">
        <time>2026-04-25T09:41:58Z</time>
      </trkpt>
      <trkpt lat="59.08247709274292" lon="30.010592937469482">
        <time>2026-04-25T09:42:00Z</time>
      </trkpt>
      <trkpt lat="59.08247709274292" lon="30.010614395141602">
        <time>2026-04-25T09:42:03Z</time>
      </trkpt>
      <trkpt lat="59.08247709274292" lon="30.010614395141602">
        <time>2026-04-25T09:42:05Z</time>
      </trkpt>
      <trkpt lat="59.08247709274292" lon="30.010614395141602">
        <time>2026-04-25T09:42:08Z</time>
      </trkpt>
      <trkpt lat="59.08247709274292" lon="30.010614395141602">
        <time>2026-04-25T09:42:10Z</time>
      </trkpt>
      <trkpt lat="59.08247709274292" lon="30.010635852813721">
        <time>2026-04-25T09:42:13Z</time>
      </trkpt>
      <trkpt lat="59.08247709274292" lon="30.01065731048584">
        <time>2026-04-25T09:42:15Z</time>
      </trkpt>
      <trkpt lat="59.08247709274292" lon="30.01065731048584">
        <time>2026-04-25T09:42:18Z</time>
      </trkpt>
      <trkpt lat="59.08247709274292" lon="30.01065731048584">
        <time>2026-04-25T09:42:20Z</time>
      </trkpt>
      <trkpt lat="59.08247709274292" lon="30.01065731048584">
        <time>2026-04-25T09:42:23Z</time>
      </trkpt>
      <trkpt lat="59.082455635070801" lon="30.01065731048584">
        <time>2026-04-25T09:42:25Z</time>
      </trkpt>
      <trkpt lat="59.08247709274292" lon="30.01065731048584">
        <time>2026-04-25T09:42:28Z</time>
      </trkpt>
      <trkpt lat="59.08247709274292" lon="30.010678768157959">
        <time>2026-04-25T09:42:30Z</time>
      </trkpt>
      <trkpt lat="59.08247709274292" lon="30.010678768157959">
        <time>2026-04-25T09:42:33Z</time>
      </trkpt>
      <trkpt lat="59.08247709274292" lon="30.010700225830078">
        <time>2026-04-25T09:42:35Z</time>
      </trkpt>
      <trkpt lat="59.082455635070801" lon="30.010700225830078">
        <time>2026-04-25T09:42:38Z</time>
      </trkpt>
      <trkpt lat="59.082434177398682" lon="30.010721683502197">
        <time>2026-04-25T09:42:40Z</time>
      </trkpt>
      <trkpt lat="59.082434177398682" lon="30.010743141174316">
        <time>2026-04-25T09:42:43Z</time>
      </trkpt>
      <trkpt lat="59.082434177398682" lon="30.010764598846436">
        <time>2026-04-25T09:42:45Z</time>
      </trkpt>
      <trkpt lat="59.082434177398682" lon="30.010764598846436">
        <time>2026-04-25T09:42:48Z</time>
      </trkpt>
      <trkpt lat="59.082434177398682" lon="30.010721683502197">
        <time>2026-04-25T09:42:50Z</time>
      </trkpt>
      <trkpt lat="59.082434177398682" lon="30.010678768157959">
        <time>2026-04-25T09:42:53Z</time>
      </trkpt>
      <trkpt lat="59.08247709274292" lon="30.010635852813721">
        <time>2026-04-25T09:42:55Z</time>
      </trkpt>
      <trkpt lat="59.082520008087158" lon="30.010614395141602">
        <time>2026-04-25T09:43:00Z</time>
      </trkpt>
      <trkpt lat="59.082520008087158" lon="30.010592937469482">
        <time>2026-04-25T09:43:03Z</time>
      </trkpt>
      <trkpt lat="59.082562923431396" lon="30.010592937469482">
        <time>2026-04-25T09:43:05Z</time>
      </trkpt>
      <trkpt lat="59.082562923431396" lon="30.010592937469482">
        <time>2026-04-25T09:43:08Z</time>
      </trkpt>
      <trkpt lat="59.082562923431396" lon="30.010635852813721">
        <time>2026-04-25T09:43:10Z</time>
      </trkpt>
      <trkpt lat="59.082562923431396" lon="30.010678768157959">
        <time>2026-04-25T09:43:13Z</time>
      </trkpt>
      <trkpt lat="59.082562923431396" lon="30.010764598846436">
        <time>2026-04-25T09:43:15Z</time>
      </trkpt>
      <trkpt lat="59.082562923431396" lon="30.010828971862793">
        <time>2026-04-25T09:43:18Z</time>
      </trkpt>
      <trkpt lat="59.082584381103516" lon="30.01091480255127">
        <time>2026-04-25T09:43:20Z</time>
      </trkpt>
      <trkpt lat="59.082605838775635" lon="30.010979175567627">
        <time>2026-04-25T09:43:23Z</time>
      </trkpt>
      <trkpt lat="59.082605838775635" lon="30.011000633239746">
        <time>2026-04-25T09:43:25Z</time>
      </trkpt>
      <trkpt lat="59.082605838775635" lon="30.011022090911865">
        <time>2026-04-25T09:43:28Z</time>
      </trkpt>
      <trkpt lat="59.082605838775635" lon="30.011043548583984">
        <time>2026-04-25T09:43:30Z</time>
      </trkpt>
      <trkpt lat="59.082605838775635" lon="30.011065006256104">
        <time>2026-04-25T09:43:33Z</time>
      </trkpt>
      <trkpt lat="59.082584381103516" lon="30.011043548583984">
        <time>2026-04-25T09:43:35Z</time>
      </trkpt>
      <trkpt lat="59.082584381103516" lon="30.011043548583984">
        <time>2026-04-25T09:43:38Z</time>
      </trkpt>
      <trkpt lat="59.082584381103516" lon="30.011022090911865">
        <time>2026-04-25T09:43:40Z</time>
      </trkpt>
      <trkpt lat="59.082584381103516" lon="30.011000633239746">
        <time>2026-04-25T09:43:43Z</time>
      </trkpt>
      <trkpt lat="59.082584381103516" lon="30.010957717895508">
        <time>2026-04-25T09:43:45Z</time>
      </trkpt>
      <trkpt lat="59.082584381103516" lon="30.010957717895508">
        <time>2026-04-25T09:43:48Z</time>
      </trkpt>
      <trkpt lat="59.082584381103516" lon="30.010957717895508">
        <time>2026-04-25T09:43:50Z</time>
      </trkpt>
      <trkpt lat="59.082584381103516" lon="30.010936260223389">
        <time>2026-04-25T09:43:53Z</time>
      </trkpt>
      <trkpt lat="59.082584381103516" lon="30.010979175567627">
        <time>2026-04-25T09:43:55Z</time>
      </trkpt>
      <trkpt lat="59.082584381103516" lon="30.011065006256104">
        <time>2026-04-25T09:43:58Z</time>
      </trkpt>
      <trkpt lat="59.082541465759277" lon="30.011193752288818">
        <time>2026-04-25T09:44:00Z</time>
      </trkpt>
      <trkpt lat="59.082541465759277" lon="30.011279582977295">
        <time>2026-04-25T09:44:03Z</time>
      </trkpt>
      <trkpt lat="59.082562923431396" lon="30.011386871337891">
        <time>2026-04-25T09:44:05Z</time>
      </trkpt>
      <trkpt lat="59.082562923431396" lon="30.011451244354248">
        <time>2026-04-25T09:44:08Z</time>
      </trkpt>
      <trkpt lat="59.082584381103516" lon="30.011472702026367">
        <time>2026-04-25T09:44:10Z</time>
      </trkpt>
      <trkpt lat="59.082627296447754" lon="30.011537075042725">
        <time>2026-04-25T09:44:13Z</time>
      </trkpt>
      <trkpt lat="59.082648754119873" lon="30.011601448059082">
        <time>2026-04-25T09:44:15Z</time>
      </trkpt>
      <trkpt lat="59.082648754119873" lon="30.01164436340332">
        <time>2026-04-25T09:44:18Z</time>
      </trkpt>
      <trkpt lat="59.082670211791992" lon="30.011751651763916">
        <time>2026-04-25T09:44:20Z</time>
      </trkpt>
      <trkpt lat="59.082691669464111" lon="30.011837482452393">
        <time>2026-04-25T09:44:23Z</time>
      </trkpt>
      <trkpt lat="59.08271312713623" lon="30.011944770812988">
        <time>2026-04-25T09:44:25Z</time>
      </trkpt>
      <trkpt lat="59.08273458480835" lon="30.012009143829346">
        <time>2026-04-25T09:44:28Z</time>
      </trkpt>
      <trkpt lat="59.082756042480469" lon="30.012094974517822">
        <time>2026-04-25T09:44:30Z</time>
      </trkpt>
      <trkpt lat="59.082756042480469" lon="30.01215934753418">
        <time>2026-04-25T09:44:33Z</time>
      </trkpt>
      <trkpt lat="59.082777500152588" lon="30.012223720550537">
        <time>2026-04-25T09:44:35Z</time>
      </trkpt>
      <trkpt lat="59.082798957824707" lon="30.012288093566895">
        <time>2026-04-25T09:44:38Z</time>
      </trkpt>
      <trkpt lat="59.082798957824707" lon="30.012352466583252">
        <time>2026-04-25T09:44:40Z</time>
      </trkpt>
      <trkpt lat="59.082798957824707" lon="30.012373924255371">
        <time>2026-04-25T09:44:43Z</time>
      </trkpt>
      <trkpt lat="59.082798957824707" lon="30.012416839599609">
        <time>2026-04-25T09:44:45Z</time>
      </trkpt>
      <trkpt lat="59.082820415496826" lon="30.012416839599609">
        <time>2026-04-25T09:44:48Z</time>
      </trkpt>
      <trkpt lat="59.082798957824707" lon="30.012438297271729">
        <time>2026-04-25T09:44:50Z</time>
      </trkpt>
      <trkpt lat="59.082820415496826" lon="30.012459754943848">
        <time>2026-04-25T09:44:53Z</time>
      </trkpt>
      <trkpt lat="59.082863330841064" lon="30.01239538192749">
        <time>2026-04-25T09:44:55Z</time>
      </trkpt>
      <trkpt lat="59.082906246185303" lon="30.012373924255371">
        <time>2026-04-25T09:44:58Z</time>
      </trkpt>
      <trkpt lat="59.08297061920166" lon="30.012373924255371">
        <time>2026-04-25T09:45:00Z</time>
      </trkpt>
      <trkpt lat="59.082992076873779" lon="30.01239538192749">
        <time>2026-04-25T09:45:03Z</time>
      </trkpt>
      <trkpt lat="59.083056449890137" lon="30.012416839599609">
        <time>2026-04-25T09:45:05Z</time>
      </trkpt>
      <trkpt lat="59.083056449890137" lon="30.012438297271729">
        <time>2026-04-25T09:45:08Z</time>
      </trkpt>
      <trkpt lat="59.083056449890137" lon="30.012481212615967">
        <time>2026-04-25T09:45:10Z</time>
      </trkpt>
      <trkpt lat="59.083056449890137" lon="30.012524127960205">
        <time>2026-04-25T09:45:13Z</time>
      </trkpt>
      <trkpt lat="59.083034992218018" lon="30.012588500976563">
        <time>2026-04-25T09:45:15Z</time>
      </trkpt>
      <trkpt lat="59.083013534545898" lon="30.012609958648682">
        <time>2026-04-25T09:45:18Z</time>
      </trkpt>
      <trkpt lat="59.08297061920166" lon="30.01265287399292">
        <time>2026-04-25T09:45:20Z</time>
      </trkpt>
      <trkpt lat="59.082949161529541" lon="30.012695789337158">
        <time>2026-04-25T09:45:23Z</time>
      </trkpt>
      <trkpt lat="59.082884788513184" lon="30.012803077697754">
        <time>2026-04-25T09:45:25Z</time>
      </trkpt>
      <trkpt lat="59.082841873168945" lon="30.01288890838623">
        <time>2026-04-25T09:45:28Z</time>
      </trkpt>
      <trkpt lat="59.082820415496826" lon="30.012974739074707">
        <time>2026-04-25T09:45:30Z</time>
      </trkpt>
      <trkpt lat="59.08273458480835" lon="30.01314640045166">
        <time>2026-04-25T09:45:35Z</time>
      </trkpt>
      <trkpt lat="59.08271312713623" lon="30.013232231140137">
        <time>2026-04-25T09:45:38Z</time>
      </trkpt>
      <trkpt lat="59.082691669464111" lon="30.013296604156494">
        <time>2026-04-25T09:45:40Z</time>
      </trkpt>
      <trkpt lat="59.082670211791992" lon="30.013339519500732">
        <time>2026-04-25T09:45:43Z</time>
      </trkpt>
      <trkpt lat="59.082627296447754" lon="30.013382434844971">
        <time>2026-04-25T09:45:45Z</time>
      </trkpt>
      <trkpt lat="59.082584381103516" lon="30.013425350189209">
        <time>2026-04-25T09:45:50Z</time>
      </trkpt>
      <trkpt lat="59.082605838775635" lon="30.013425350189209">
        <time>2026-04-25T09:45:53Z</time>
      </trkpt>
      <trkpt lat="59.082627296447754" lon="30.013318061828613">
        <time>2026-04-25T09:45:55Z</time>
      </trkpt>
      <trkpt lat="59.082648754119873" lon="30.013210773468018">
        <time>2026-04-25T09:45:58Z</time>
      </trkpt>
      <trkpt lat="59.082670211791992" lon="30.013060569763184">
        <time>2026-04-25T09:46:00Z</time>
      </trkpt>
      <trkpt lat="59.082691669464111" lon="30.012953281402588">
        <time>2026-04-25T09:46:03Z</time>
      </trkpt>
      <trkpt lat="59.082691669464111" lon="30.012824535369873">
        <time>2026-04-25T09:46:05Z</time>
      </trkpt>
      <trkpt lat="59.08273458480835" lon="30.012717247009277">
        <time>2026-04-25T09:46:08Z</time>
      </trkpt>
      <trkpt lat="59.082756042480469" lon="30.012588500976563">
        <time>2026-04-25T09:46:10Z</time>
      </trkpt>
      <trkpt lat="59.082777500152588" lon="30.012481212615967">
        <time>2026-04-25T09:46:13Z</time>
      </trkpt>
      <trkpt lat="59.082798957824707" lon="30.012416839599609">
        <time>2026-04-25T09:46:15Z</time>
      </trkpt>
      <trkpt lat="59.082798957824707" lon="30.01239538192749">
        <time>2026-04-25T09:46:18Z</time>
      </trkpt>
      <trkpt lat="59.082820415496826" lon="30.012373924255371">
        <time>2026-04-25T09:46:20Z</time>
      </trkpt>
      <trkpt lat="59.082820415496826" lon="30.012373924255371">
        <time>2026-04-25T09:46:23Z</time>
      </trkpt>
      <trkpt lat="59.082820415496826" lon="30.012373924255371">
        <time>2026-04-25T09:46:25Z</time>
      </trkpt>
      <trkpt lat="59.082820415496826" lon="30.012373924255371">
        <time>2026-04-25T09:46:28Z</time>
      </trkpt>
      <trkpt lat="59.082820415496826" lon="30.012373924255371">
        <time>2026-04-25T09:46:30Z</time>
      </trkpt>
      <trkpt lat="59.082820415496826" lon="30.012352466583252">
        <time>2026-04-25T09:46:33Z</time>
      </trkpt>
      <trkpt lat="59.082777500152588" lon="30.012373924255371">
        <time>2026-04-25T09:46:35Z</time>
      </trkpt>
      <trkpt lat="59.082756042480469" lon="30.012373924255371">
        <time>2026-04-25T09:46:38Z</time>
      </trkpt>
      <trkpt lat="59.08273458480835" lon="30.012416839599609">
        <time>2026-04-25T09:46:40Z</time>
      </trkpt>
      <trkpt lat="59.082691669464111" lon="30.012459754943848">
        <time>2026-04-25T09:46:43Z</time>
      </trkpt>
      <trkpt lat="59.082648754119873" lon="30.012545585632324">
        <time>2026-04-25T09:46:45Z</time>
      </trkpt>
      <trkpt lat="59.082627296447754" lon="30.012567043304443">
        <time>2026-04-25T09:46:48Z</time>
      </trkpt>
      <trkpt lat="59.082584381103516" lon="30.012545585632324">
        <time>2026-04-25T09:46:50Z</time>
      </trkpt>
      <trkpt lat="59.082562923431396" lon="30.012545585632324">
        <time>2026-04-25T09:46:53Z</time>
      </trkpt>
      <trkpt lat="59.082520008087158" lon="30.012545585632324">
        <time>2026-04-25T09:46:55Z</time>
      </trkpt>
      <trkpt lat="59.08247709274292" lon="30.012567043304443">
        <time>2026-04-25T09:46:58Z</time>
      </trkpt>
      <trkpt lat="59.082455635070801" lon="30.012631416320801">
        <time>2026-04-25T09:47:00Z</time>
      </trkpt>
      <trkpt lat="59.082434177398682" lon="30.01265287399292">
        <time>2026-04-25T09:47:03Z</time>
      </trkpt>
      <trkpt lat="59.082412719726563" lon="30.012738704681396">
        <time>2026-04-25T09:47:05Z</time>
      </trkpt>
      <trkpt lat="59.082391262054443" lon="30.012803077697754">
        <time>2026-04-25T09:47:08Z</time>
      </trkpt>
      <trkpt lat="59.082348346710205" lon="30.01291036605835">
        <time>2026-04-25T09:47:10Z</time>
      </trkpt>
      <trkpt lat="59.082326889038086" lon="30.012974739074707">
        <time>2026-04-25T09:47:13Z</time>
      </trkpt>
      <trkpt lat="59.082305431365967" lon="30.013017654418945">
        <time>2026-04-25T09:47:15Z</time>
      </trkpt>
      <trkpt lat="59.082283973693848" lon="30.013039112091064">
        <time>2026-04-25T09:47:18Z</time>
      </trkpt>
      <trkpt lat="59.082283973693848" lon="30.013082027435303">
        <time>2026-04-25T09:47:20Z</time>
      </trkpt>
      <trkpt lat="59.082283973693848" lon="30.013124942779541">
        <time>2026-04-25T09:47:23Z</time>
      </trkpt>
      <trkpt lat="59.082283973693848" lon="30.013210773468018">
        <time>2026-04-25T09:47:25Z</time>
      </trkpt>
      <trkpt lat="59.082262516021729" lon="30.013232231140137">
        <time>2026-04-25T09:47:28Z</time>
      </trkpt>
      <trkpt lat="59.08221960067749" lon="30.013296604156494">
        <time>2026-04-25T09:47:30Z</time>
      </trkpt>
      <trkpt lat="59.082198143005371" lon="30.013253688812256">
        <time>2026-04-25T09:47:33Z</time>
      </trkpt>
      <trkpt lat="59.082155227661133" lon="30.013275146484375">
        <time>2026-04-25T09:47:35Z</time>
      </trkpt>
      <trkpt lat="59.082155227661133" lon="30.013296604156494">
        <time>2026-04-25T09:47:38Z</time>
      </trkpt>
      <trkpt lat="59.082155227661133" lon="30.013210773468018">
        <time>2026-04-25T09:47:40Z</time>
      </trkpt>
      <trkpt lat="59.082155227661133" lon="30.013082027435303">
        <time>2026-04-25T09:47:43Z</time>
      </trkpt>
      <trkpt lat="59.082198143005371" lon="30.013017654418945">
        <time>2026-04-25T09:47:45Z</time>
      </trkpt>
      <trkpt lat="59.08221960067749" lon="30.012996196746826">
        <time>2026-04-25T09:47:48Z</time>
      </trkpt>
      <trkpt lat="59.082262516021729" lon="30.012931823730469">
        <time>2026-04-25T09:47:50Z</time>
      </trkpt>
      <trkpt lat="59.082283973693848" lon="30.01288890838623">
        <time>2026-04-25T09:47:53Z</time>
      </trkpt>
      <trkpt lat="59.082348346710205" lon="30.012781620025635">
        <time>2026-04-25T09:47:55Z</time>
      </trkpt>
      <trkpt lat="59.082391262054443" lon="30.012717247009277">
        <time>2026-04-25T09:47:58Z</time>
      </trkpt>
      <trkpt lat="59.082412719726563" lon="30.012717247009277">
        <time>2026-04-25T09:48:00Z</time>
      </trkpt>
      <trkpt lat="59.082412719726563" lon="30.012695789337158">
        <time>2026-04-25T09:48:03Z</time>
      </trkpt>
      <trkpt lat="59.082434177398682" lon="30.012695789337158">
        <time>2026-04-25T09:48:05Z</time>
      </trkpt>
      <trkpt lat="59.082434177398682" lon="30.012695789337158">
        <time>2026-04-25T09:48:08Z</time>
      </trkpt>
      <trkpt lat="59.082434177398682" lon="30.012695789337158">
        <time>2026-04-25T09:48:10Z</time>
      </trkpt>
      <trkpt lat="59.082434177398682" lon="30.012695789337158">
        <time>2026-04-25T09:48:13Z</time>
      </trkpt>
      <trkpt lat="59.082434177398682" lon="30.012695789337158">
        <time>2026-04-25T09:48:15Z</time>
      </trkpt>
      <trkpt lat="59.082434177398682" lon="30.012695789337158">
        <time>2026-04-25T09:48:18Z</time>
      </trkpt>
      <trkpt lat="59.082434177398682" lon="30.012695789337158">
        <time>2026-04-25T09:48:20Z</time>
      </trkpt>
      <trkpt lat="59.082434177398682" lon="30.012695789337158">
        <time>2026-04-25T09:48:23Z</time>
      </trkpt>
      <trkpt lat="59.082434177398682" lon="30.012695789337158">
        <time>2026-04-25T09:48:25Z</time>
      </trkpt>
      <trkpt lat="59.082434177398682" lon="30.012695789337158">
        <time>2026-04-25T09:48:28Z</time>
      </trkpt>
      <trkpt lat="59.082434177398682" lon="30.012695789337158">
        <time>2026-04-25T09:48:30Z</time>
      </trkpt>
      <trkpt lat="59.082434177398682" lon="30.012695789337158">
        <time>2026-04-25T09:48:33Z</time>
      </trkpt>
      <trkpt lat="59.082434177398682" lon="30.012695789337158">
        <time>2026-04-25T09:48:35Z</time>
      </trkpt>
      <trkpt lat="59.082434177398682" lon="30.012695789337158">
        <time>2026-04-25T09:48:38Z</time>
      </trkpt>
      <trkpt lat="59.082434177398682" lon="30.012695789337158">
        <time>2026-04-25T09:48:40Z</time>
      </trkpt>
      <trkpt lat="59.082434177398682" lon="30.012674331665039">
        <time>2026-04-25T09:48:43Z</time>
      </trkpt>
      <trkpt lat="59.082412719726563" lon="30.012631416320801">
        <time>2026-04-25T09:48:45Z</time>
      </trkpt>
      <trkpt lat="59.082412719726563" lon="30.012631416320801">
        <time>2026-04-25T09:48:48Z</time>
      </trkpt>
      <trkpt lat="59.082412719726563" lon="30.012588500976563">
        <time>2026-04-25T09:48:50Z</time>
      </trkpt>
      <trkpt lat="59.082412719726563" lon="30.012588500976563">
        <time>2026-04-25T09:48:53Z</time>
      </trkpt>
      <trkpt lat="59.082391262054443" lon="30.012567043304443">
        <time>2026-04-25T09:48:55Z</time>
      </trkpt>
      <trkpt lat="59.082369804382324" lon="30.012524127960205">
        <time>2026-04-25T09:48:58Z</time>
      </trkpt>
      <trkpt lat="59.082369804382324" lon="30.012438297271729">
        <time>2026-04-25T09:49:00Z</time>
      </trkpt>
      <trkpt lat="59.082369804382324" lon="30.01239538192749">
        <time>2026-04-25T09:49:03Z</time>
      </trkpt>
      <trkpt lat="59.082348346710205" lon="30.012309551239014">
        <time>2026-04-25T09:49:05Z</time>
      </trkpt>
      <trkpt lat="59.082348346710205" lon="30.012266635894775">
        <time>2026-04-25T09:49:08Z</time>
      </trkpt>
      <trkpt lat="59.082348346710205" lon="30.012180805206299">
        <time>2026-04-25T09:49:10Z</time>
      </trkpt>
      <trkpt lat="59.082326889038086" lon="30.012137889862061">
        <time>2026-04-25T09:49:13Z</time>
      </trkpt>
      <trkpt lat="59.082326889038086" lon="30.012094974517822">
        <time>2026-04-25T09:49:15Z</time>
      </trkpt>
      <trkpt lat="59.082326889038086" lon="30.012073516845703">
        <time>2026-04-25T09:49:18Z</time>
      </trkpt>
      <trkpt lat="59.082348346710205" lon="30.012030601501465">
        <time>2026-04-25T09:49:20Z</time>
      </trkpt>
      <trkpt lat="59.082326889038086" lon="30.011987686157227">
        <time>2026-04-25T09:49:23Z</time>
      </trkpt>
      <trkpt lat="59.082305431365967" lon="30.011944770812988">
        <time>2026-04-25T09:49:25Z</time>
      </trkpt>
      <trkpt lat="59.082283973693848" lon="30.01190185546875">
        <time>2026-04-25T09:49:28Z</time>
      </trkpt>
      <trkpt lat="59.082262516021729" lon="30.011858940124512">
        <time>2026-04-25T09:49:30Z</time>
      </trkpt>
      <trkpt lat="59.082241058349609" lon="30.011794567108154">
        <time>2026-04-25T09:49:33Z</time>
      </trkpt>
      <trkpt lat="59.082241058349609" lon="30.011708736419678">
        <time>2026-04-25T09:49:35Z</time>
      </trkpt>
      <trkpt lat="59.08221960067749" lon="30.011687278747559">
        <time>2026-04-25T09:49:38Z</time>
      </trkpt>
      <trkpt lat="59.08221960067749" lon="30.01164436340332">
        <time>2026-04-25T09:49:40Z</time>
      </trkpt>
      <trkpt lat="59.082198143005371" lon="30.011622905731201">
        <time>2026-04-25T09:49:43Z</time>
      </trkpt>
      <trkpt lat="59.082198143005371" lon="30.011579990386963">
        <time>2026-04-25T09:49:45Z</time>
      </trkpt>
      <trkpt lat="59.082198143005371" lon="30.011537075042725">
        <time>2026-04-25T09:49:48Z</time>
      </trkpt>
      <trkpt lat="59.082176685333252" lon="30.011494159698486">
        <time>2026-04-25T09:49:50Z</time>
      </trkpt>
      <trkpt lat="59.082176685333252" lon="30.011472702026367">
        <time>2026-04-25T09:49:53Z</time>
      </trkpt>
      <trkpt lat="59.082176685333252" lon="30.011472702026367">
        <time>2026-04-25T09:49:55Z</time>
      </trkpt>
      <trkpt lat="59.082176685333252" lon="30.011451244354248">
        <time>2026-04-25T09:49:58Z</time>
      </trkpt>
      <trkpt lat="59.082198143005371" lon="30.011429786682129">
        <time>2026-04-25T09:50:00Z</time>
      </trkpt>
      <trkpt lat="59.08221960067749" lon="30.01140832901001">
        <time>2026-04-25T09:50:03Z</time>
      </trkpt>
      <trkpt lat="59.082241058349609" lon="30.011429786682129">
        <time>2026-04-25T09:50:05Z</time>
      </trkpt>
      <trkpt lat="59.082262516021729" lon="30.011451244354248">
        <time>2026-04-25T09:50:08Z</time>
      </trkpt>
      <trkpt lat="59.082262516021729" lon="30.011451244354248">
        <time>2026-04-25T09:50:10Z</time>
      </trkpt>
      <trkpt lat="59.082262516021729" lon="30.011451244354248">
        <time>2026-04-25T09:50:13Z</time>
      </trkpt>
      <trkpt lat="59.082241058349609" lon="30.011451244354248">
        <time>2026-04-25T09:50:15Z</time>
      </trkpt>
      <trkpt lat="59.082241058349609" lon="30.011429786682129">
        <time>2026-04-25T09:50:18Z</time>
      </trkpt>
      <trkpt lat="59.08221960067749" lon="30.011429786682129">
        <time>2026-04-25T09:50:20Z</time>
      </trkpt>
      <trkpt lat="59.08221960067749" lon="30.01140832901001">
        <time>2026-04-25T09:50:23Z</time>
      </trkpt>
      <trkpt lat="59.082198143005371" lon="30.01140832901001">
        <time>2026-04-25T09:50:25Z</time>
      </trkpt>
      <trkpt lat="59.082198143005371" lon="30.01140832901001">
        <time>2026-04-25T09:50:28Z</time>
      </trkpt>
      <trkpt lat="59.082198143005371" lon="30.011429786682129">
        <time>2026-04-25T09:50:30Z</time>
      </trkpt>
      <trkpt lat="59.082198143005371" lon="30.011429786682129">
        <time>2026-04-25T09:50:33Z</time>
      </trkpt>
      <trkpt lat="59.082198143005371" lon="30.011429786682129">
        <time>2026-04-25T09:50:35Z</time>
      </trkpt>
      <trkpt lat="59.082198143005371" lon="30.011451244354248">
        <time>2026-04-25T09:50:38Z</time>
      </trkpt>
      <trkpt lat="59.082198143005371" lon="30.011451244354248">
        <time>2026-04-25T09:50:40Z</time>
      </trkpt>
      <trkpt lat="59.082198143005371" lon="30.011472702026367">
        <time>2026-04-25T09:50:43Z</time>
      </trkpt>
      <trkpt lat="59.082198143005371" lon="30.011472702026367">
        <time>2026-04-25T09:50:45Z</time>
      </trkpt>
      <trkpt lat="59.082198143005371" lon="30.011472702026367">
        <time>2026-04-25T09:50:48Z</time>
      </trkpt>
      <trkpt lat="59.08221960067749" lon="30.011472702026367">
        <time>2026-04-25T09:50:50Z</time>
      </trkpt>
      <trkpt lat="59.082241058349609" lon="30.011472702026367">
        <time>2026-04-25T09:50:53Z</time>
      </trkpt>
      <trkpt lat="59.082262516021729" lon="30.011472702026367">
        <time>2026-04-25T09:50:55Z</time>
      </trkpt>
      <trkpt lat="59.082305431365967" lon="30.011472702026367">
        <time>2026-04-25T09:50:58Z</time>
      </trkpt>
      <trkpt lat="59.082326889038086" lon="30.011472702026367">
        <time>2026-04-25T09:51:00Z</time>
      </trkpt>
      <trkpt lat="59.082348346710205" lon="30.011451244354248">
        <time>2026-04-25T09:51:03Z</time>
      </trkpt>
      <trkpt lat="59.082369804382324" lon="30.011429786682129">
        <time>2026-04-25T09:51:05Z</time>
      </trkpt>
      <trkpt lat="59.082391262054443" lon="30.011429786682129">
        <time>2026-04-25T09:51:08Z</time>
      </trkpt>
      <trkpt lat="59.082412719726563" lon="30.011386871337891">
        <time>2026-04-25T09:51:10Z</time>
      </trkpt>
      <trkpt lat="59.082412719726563" lon="30.011386871337891">
        <time>2026-04-25T09:51:13Z</time>
      </trkpt>
      <trkpt lat="59.082434177398682" lon="30.011386871337891">
        <time>2026-04-25T09:51:15Z</time>
      </trkpt>
      <trkpt lat="59.082434177398682" lon="30.011365413665771">
        <time>2026-04-25T09:51:18Z</time>
      </trkpt>
      <trkpt lat="59.082434177398682" lon="30.011343955993652">
        <time>2026-04-25T09:51:20Z</time>
      </trkpt>
      <trkpt lat="59.082434177398682" lon="30.011322498321533">
        <time>2026-04-25T09:51:23Z</time>
      </trkpt>
      <trkpt lat="59.082434177398682" lon="30.011279582977295">
        <time>2026-04-25T09:51:25Z</time>
      </trkpt>
      <trkpt lat="59.082412719726563" lon="30.011236667633057">
        <time>2026-04-25T09:51:28Z</time>
      </trkpt>
      <trkpt lat="59.082391262054443" lon="30.011172294616699">
        <time>2026-04-25T09:51:30Z</time>
      </trkpt>
      <trkpt lat="59.082391262054443" lon="30.01115083694458">
        <time>2026-04-25T09:51:33Z</time>
      </trkpt>
      <trkpt lat="59.082369804382324" lon="30.011107921600342">
        <time>2026-04-25T09:51:35Z</time>
      </trkpt>
      <trkpt lat="59.082348346710205" lon="30.011065006256104">
        <time>2026-04-25T09:51:38Z</time>
      </trkpt>
      <trkpt lat="59.082326889038086" lon="30.011000633239746">
        <time>2026-04-25T09:51:40Z</time>
      </trkpt>
      <trkpt lat="59.082326889038086" lon="30.010979175567627">
        <time>2026-04-25T09:51:43Z</time>
      </trkpt>
      <trkpt lat="59.082305431365967" lon="30.010957717895508">
        <time>2026-04-25T09:51:45Z</time>
      </trkpt>
      <trkpt lat="59.082305431365967" lon="30.010957717895508">
        <time>2026-04-25T09:51:48Z</time>
      </trkpt>
      <trkpt lat="59.082305431365967" lon="30.01091480255127">
        <time>2026-04-25T09:51:50Z</time>
      </trkpt>
      <trkpt lat="59.082283973693848" lon="30.01091480255127">
        <time>2026-04-25T09:51:53Z</time>
      </trkpt>
      <trkpt lat="59.082262516021729" lon="30.010871887207031">
        <time>2026-04-25T09:51:55Z</time>
      </trkpt>
      <trkpt lat="59.082262516021729" lon="30.010871887207031">
        <time>2026-04-25T09:51:58Z</time>
      </trkpt>
      <trkpt lat="59.082262516021729" lon="30.010871887207031">
        <time>2026-04-25T09:52:00Z</time>
      </trkpt>
      <trkpt lat="59.082241058349609" lon="30.010871887207031">
        <time>2026-04-25T09:52:03Z</time>
      </trkpt>
      <trkpt lat="59.082241058349609" lon="30.01089334487915">
        <time>2026-04-25T09:52:05Z</time>
      </trkpt>
      <trkpt lat="59.082241058349609" lon="30.010871887207031">
        <time>2026-04-25T09:52:08Z</time>
      </trkpt>
      <trkpt lat="59.08221960067749" lon="30.010828971862793">
        <time>2026-04-25T09:52:10Z</time>
      </trkpt>
      <trkpt lat="59.08221960067749" lon="30.010807514190674">
        <time>2026-04-25T09:52:13Z</time>
      </trkpt>
      <trkpt lat="59.082198143005371" lon="30.010786056518555">
        <time>2026-04-25T09:52:15Z</time>
      </trkpt>
      <trkpt lat="59.082198143005371" lon="30.010764598846436">
        <time>2026-04-25T09:52:18Z</time>
      </trkpt>
      <trkpt lat="59.082176685333252" lon="30.010764598846436">
        <time>2026-04-25T09:52:20Z</time>
      </trkpt>
      <trkpt lat="59.082176685333252" lon="30.010786056518555">
        <time>2026-04-25T09:52:23Z</time>
      </trkpt>
      <trkpt lat="59.082176685333252" lon="30.010786056518555">
        <time>2026-04-25T09:52:25Z</time>
      </trkpt>
      <trkpt lat="59.082155227661133" lon="30.010807514190674">
        <time>2026-04-25T09:52:28Z</time>
      </trkpt>
      <trkpt lat="59.082155227661133" lon="30.010828971862793">
        <time>2026-04-25T09:52:30Z</time>
      </trkpt>
      <trkpt lat="59.082176685333252" lon="30.010807514190674">
        <time>2026-04-25T09:52:33Z</time>
      </trkpt>
      <trkpt lat="59.082176685333252" lon="30.010764598846436">
        <time>2026-04-25T09:52:35Z</time>
      </trkpt>
      <trkpt lat="59.082176685333252" lon="30.010764598846436">
        <time>2026-04-25T09:52:38Z</time>
      </trkpt>
      <trkpt lat="59.082155227661133" lon="30.010786056518555">
        <time>2026-04-25T09:52:40Z</time>
      </trkpt>
      <trkpt lat="59.082155227661133" lon="30.010786056518555">
        <time>2026-04-25T09:52:43Z</time>
      </trkpt>
      <trkpt lat="59.082155227661133" lon="30.010828971862793">
        <time>2026-04-25T09:52:45Z</time>
      </trkpt>
      <trkpt lat="59.082133769989014" lon="30.010828971862793">
        <time>2026-04-25T09:52:48Z</time>
      </trkpt>
      <trkpt lat="59.082133769989014" lon="30.010828971862793">
        <time>2026-04-25T09:52:50Z</time>
      </trkpt>
      <trkpt lat="59.082155227661133" lon="30.010850429534912">
        <time>2026-04-25T09:52:53Z</time>
      </trkpt>
      <trkpt lat="59.082155227661133" lon="30.010850429534912">
        <time>2026-04-25T09:52:55Z</time>
      </trkpt>
      <trkpt lat="59.082155227661133" lon="30.010850429534912">
        <time>2026-04-25T09:52:58Z</time>
      </trkpt>
      <trkpt lat="59.082155227661133" lon="30.010850429534912">
        <time>2026-04-25T09:53:00Z</time>
      </trkpt>
      <trkpt lat="59.082155227661133" lon="30.010850429534912">
        <time>2026-04-25T09:53:03Z</time>
      </trkpt>
      <trkpt lat="59.082133769989014" lon="30.010828971862793">
        <time>2026-04-25T09:53:05Z</time>
      </trkpt>
      <trkpt lat="59.082133769989014" lon="30.010828971862793">
        <time>2026-04-25T09:53:08Z</time>
      </trkpt>
      <trkpt lat="59.082133769989014" lon="30.010828971862793">
        <time>2026-04-25T09:53:10Z</time>
      </trkpt>
      <trkpt lat="59.082112312316895" lon="30.010786056518555">
        <time>2026-04-25T09:53:13Z</time>
      </trkpt>
      <trkpt lat="59.082090854644775" lon="30.010743141174316">
        <time>2026-04-25T09:53:15Z</time>
      </trkpt>
      <trkpt lat="59.082090854644775" lon="30.010700225830078">
        <time>2026-04-25T09:53:18Z</time>
      </trkpt>
      <trkpt lat="59.082090854644775" lon="30.01065731048584">
        <time>2026-04-25T09:53:20Z</time>
      </trkpt>
      <trkpt lat="59.082090854644775" lon="30.010614395141602">
        <time>2026-04-25T09:53:23Z</time>
      </trkpt>
      <trkpt lat="59.082069396972656" lon="30.010571479797363">
        <time>2026-04-25T09:53:25Z</time>
      </trkpt>
      <trkpt lat="59.082069396972656" lon="30.010571479797363">
        <time>2026-04-25T09:53:28Z</time>
      </trkpt>
      <trkpt lat="59.082047939300537" lon="30.010571479797363">
        <time>2026-04-25T09:53:30Z</time>
      </trkpt>
      <trkpt lat="59.082026481628418" lon="30.010550022125244">
        <time>2026-04-25T09:53:33Z</time>
      </trkpt>
      <trkpt lat="59.082005023956299" lon="30.010571479797363">
        <time>2026-04-25T09:53:35Z</time>
      </trkpt>
      <trkpt lat="59.082005023956299" lon="30.010571479797363">
        <time>2026-04-25T09:53:38Z</time>
      </trkpt>
      <trkpt lat="59.082005023956299" lon="30.010571479797363">
        <time>2026-04-25T09:53:40Z</time>
      </trkpt>
      <trkpt lat="59.082005023956299" lon="30.010571479797363">
        <time>2026-04-25T09:53:43Z</time>
      </trkpt>
      <trkpt lat="59.082005023956299" lon="30.010571479797363">
        <time>2026-04-25T09:53:45Z</time>
      </trkpt>
      <trkpt lat="59.08198356628418" lon="30.010571479797363">
        <time>2026-04-25T09:53:48Z</time>
      </trkpt>
      <trkpt lat="59.08198356628418" lon="30.010550022125244">
        <time>2026-04-25T09:53:50Z</time>
      </trkpt>
      <trkpt lat="59.08198356628418" lon="30.010550022125244">
        <time>2026-04-25T09:53:53Z</time>
      </trkpt>
      <trkpt lat="59.082005023956299" lon="30.010528564453125">
        <time>2026-04-25T09:53:55Z</time>
      </trkpt>
      <trkpt lat="59.082005023956299" lon="30.010528564453125">
        <time>2026-04-25T09:53:58Z</time>
      </trkpt>
      <trkpt lat="59.082005023956299" lon="30.010550022125244">
        <time>2026-04-25T09:54:00Z</time>
      </trkpt>
      <trkpt lat="59.082005023956299" lon="30.010571479797363">
        <time>2026-04-25T09:54:03Z</time>
      </trkpt>
      <trkpt lat="59.082026481628418" lon="30.010592937469482">
        <time>2026-04-25T09:54:05Z</time>
      </trkpt>
      <trkpt lat="59.082026481628418" lon="30.010592937469482">
        <time>2026-04-25T09:54:08Z</time>
      </trkpt>
      <trkpt lat="59.082026481628418" lon="30.010592937469482">
        <time>2026-04-25T09:54:10Z</time>
      </trkpt>
      <trkpt lat="59.082026481628418" lon="30.010592937469482">
        <time>2026-04-25T09:54:13Z</time>
      </trkpt>
      <trkpt lat="59.082026481628418" lon="30.010571479797363">
        <time>2026-04-25T09:54:15Z</time>
      </trkpt>
      <trkpt lat="59.082005023956299" lon="30.010571479797363">
        <time>2026-04-25T09:54:18Z</time>
      </trkpt>
      <trkpt lat="59.082005023956299" lon="30.010592937469482">
        <time>2026-04-25T09:54:20Z</time>
      </trkpt>
      <trkpt lat="59.082005023956299" lon="30.010571479797363">
        <time>2026-04-25T09:54:23Z</time>
      </trkpt>
      <trkpt lat="59.08198356628418" lon="30.010571479797363">
        <time>2026-04-25T09:54:25Z</time>
      </trkpt>
      <trkpt lat="59.08198356628418" lon="30.010571479797363">
        <time>2026-04-25T09:54:28Z</time>
      </trkpt>
      <trkpt lat="59.08198356628418" lon="30.010571479797363">
        <time>2026-04-25T09:54:30Z</time>
      </trkpt>
      <trkpt lat="59.08198356628418" lon="30.010571479797363">
        <time>2026-04-25T09:54:33Z</time>
      </trkpt>
      <trkpt lat="59.081962108612061" lon="30.010571479797363">
        <time>2026-04-25T09:54:35Z</time>
      </trkpt>
      <trkpt lat="59.081962108612061" lon="30.010571479797363">
        <time>2026-04-25T09:54:38Z</time>
      </trkpt>
      <trkpt lat="59.081940650939941" lon="30.010571479797363">
        <time>2026-04-25T09:54:40Z</time>
      </trkpt>
      <trkpt lat="59.081940650939941" lon="30.010571479797363">
        <time>2026-04-25T09:54:43Z</time>
      </trkpt>
      <trkpt lat="59.081919193267822" lon="30.010571479797363">
        <time>2026-04-25T09:54:45Z</time>
      </trkpt>
      <trkpt lat="59.081919193267822" lon="30.010571479797363">
        <time>2026-04-25T09:54:48Z</time>
      </trkpt>
      <trkpt lat="59.081919193267822" lon="30.010550022125244">
        <time>2026-04-25T09:54:50Z</time>
      </trkpt>
      <trkpt lat="59.081919193267822" lon="30.010528564453125">
        <time>2026-04-25T09:54:53Z</time>
      </trkpt>
      <trkpt lat="59.081919193267822" lon="30.010507106781006">
        <time>2026-04-25T09:54:55Z</time>
      </trkpt>
      <trkpt lat="59.081897735595703" lon="30.010485649108887">
        <time>2026-04-25T09:54:58Z</time>
      </trkpt>
      <trkpt lat="59.081876277923584" lon="30.010464191436768">
        <time>2026-04-25T09:55:00Z</time>
      </trkpt>
      <trkpt lat="59.081876277923584" lon="30.010421276092529">
        <time>2026-04-25T09:55:03Z</time>
      </trkpt>
      <trkpt lat="59.081833362579346" lon="30.010378360748291">
        <time>2026-04-25T09:55:05Z</time>
      </trkpt>
      <trkpt lat="59.081833362579346" lon="30.010378360748291">
        <time>2026-04-25T09:55:08Z</time>
      </trkpt>
      <trkpt lat="59.081811904907227" lon="30.010335445404053">
        <time>2026-04-25T09:55:10Z</time>
      </trkpt>
      <trkpt lat="59.081790447235107" lon="30.010313987731934">
        <time>2026-04-25T09:55:13Z</time>
      </trkpt>
      <trkpt lat="59.081747531890869" lon="30.010292530059814">
        <time>2026-04-25T09:55:15Z</time>
      </trkpt>
      <trkpt lat="59.08172607421875" lon="30.010271072387695">
        <time>2026-04-25T09:55:18Z</time>
      </trkpt>
      <trkpt lat="59.081704616546631" lon="30.010228157043457">
        <time>2026-04-25T09:55:20Z</time>
      </trkpt>
      <trkpt lat="59.081683158874512" lon="30.010206699371338">
        <time>2026-04-25T09:55:23Z</time>
      </trkpt>
      <trkpt lat="59.081661701202393" lon="30.010185241699219">
        <time>2026-04-25T09:55:25Z</time>
      </trkpt>
      <trkpt lat="59.081661701202393" lon="30.010185241699219">
        <time>2026-04-25T09:55:28Z</time>
      </trkpt>
      <trkpt lat="59.081640243530273" lon="30.0101637840271">
        <time>2026-04-25T09:55:30Z</time>
      </trkpt>
      <trkpt lat="59.081640243530273" lon="30.01014232635498">
        <time>2026-04-25T09:55:33Z</time>
      </trkpt>
      <trkpt lat="59.081618785858154" lon="30.0101637840271">
        <time>2026-04-25T09:55:35Z</time>
      </trkpt>
      <trkpt lat="59.081597328186035" lon="30.010206699371338">
        <time>2026-04-25T09:55:38Z</time>
      </trkpt>
      <trkpt lat="59.081575870513916" lon="30.010228157043457">
        <time>2026-04-25T09:55:40Z</time>
      </trkpt>
      <trkpt lat="59.081575870513916" lon="30.010249614715576">
        <time>2026-04-25T09:55:43Z</time>
      </trkpt>
      <trkpt lat="59.081554412841797" lon="30.010292530059814">
        <time>2026-04-25T09:55:45Z</time>
      </trkpt>
      <trkpt lat="59.081554412841797" lon="30.010313987731934">
        <time>2026-04-25T09:55:48Z</time>
      </trkpt>
      <trkpt lat="59.081532955169678" lon="30.010378360748291">
        <time>2026-04-25T09:55:50Z</time>
      </trkpt>
      <trkpt lat="59.081511497497559" lon="30.010421276092529">
        <time>2026-04-25T09:55:53Z</time>
      </trkpt>
      <trkpt lat="59.081511497497559" lon="30.010442733764648">
        <time>2026-04-25T09:55:55Z</time>
      </trkpt>
      <trkpt lat="59.081490039825439" lon="30.010464191436768">
        <time>2026-04-25T09:55:58Z</time>
      </trkpt>
      <trkpt lat="59.08146858215332" lon="30.010528564453125">
        <time>2026-04-25T09:56:00Z</time>
      </trkpt>
      <trkpt lat="59.08146858215332" lon="30.010550022125244">
        <time>2026-04-25T09:56:03Z</time>
      </trkpt>
      <trkpt lat="59.081447124481201" lon="30.010635852813721">
        <time>2026-04-25T09:56:05Z</time>
      </trkpt>
      <trkpt lat="59.081447124481201" lon="30.010678768157959">
        <time>2026-04-25T09:56:08Z</time>
      </trkpt>
      <trkpt lat="59.081425666809082" lon="30.010764598846436">
        <time>2026-04-25T09:56:10Z</time>
      </trkpt>
      <trkpt lat="59.081425666809082" lon="30.010828971862793">
        <time>2026-04-25T09:56:13Z</time>
      </trkpt>
      <trkpt lat="59.081404209136963" lon="30.010936260223389">
        <time>2026-04-25T09:56:15Z</time>
      </trkpt>
      <trkpt lat="59.081425666809082" lon="30.011022090911865">
        <time>2026-04-25T09:56:18Z</time>
      </trkpt>
      <trkpt lat="59.081447124481201" lon="30.01115083694458">
        <time>2026-04-25T09:56:20Z</time>
      </trkpt>
      <trkpt lat="59.081447124481201" lon="30.011236667633057">
        <time>2026-04-25T09:56:23Z</time>
      </trkpt>
      <trkpt lat="59.08146858215332" lon="30.011343955993652">
        <time>2026-04-25T09:56:25Z</time>
      </trkpt>
      <trkpt lat="59.08146858215332" lon="30.011429786682129">
        <time>2026-04-25T09:56:28Z</time>
      </trkpt>
      <trkpt lat="59.08146858215332" lon="30.011558532714844">
        <time>2026-04-25T09:56:30Z</time>
      </trkpt>
      <trkpt lat="59.081511497497559" lon="30.011622905731201">
        <time>2026-04-25T09:56:33Z</time>
      </trkpt>
      <trkpt lat="59.081554412841797" lon="30.011708736419678">
        <time>2026-04-25T09:56:35Z</time>
      </trkpt>
      <trkpt lat="59.081618785858154" lon="30.011773109436035">
        <time>2026-04-25T09:56:38Z</time>
      </trkpt>
      <trkpt lat="59.081683158874512" lon="30.011773109436035">
        <time>2026-04-25T09:56:40Z</time>
      </trkpt>
      <trkpt lat="59.08172607421875" lon="30.011751651763916">
        <time>2026-04-25T09:56:43Z</time>
      </trkpt>
      <trkpt lat="59.081790447235107" lon="30.011687278747559">
        <time>2026-04-25T09:56:45Z</time>
      </trkpt>
      <trkpt lat="59.081833362579346" lon="30.01164436340332">
        <time>2026-04-25T09:56:48Z</time>
      </trkpt>
      <trkpt lat="59.081876277923584" lon="30.011579990386963">
        <time>2026-04-25T09:56:50Z</time>
      </trkpt>
      <trkpt lat="59.081897735595703" lon="30.011558532714844">
        <time>2026-04-25T09:56:53Z</time>
      </trkpt>
      <trkpt lat="59.081919193267822" lon="30.011558532714844">
        <time>2026-04-25T09:56:55Z</time>
      </trkpt>
      <trkpt lat="59.081940650939941" lon="30.011515617370605">
        <time>2026-04-25T09:56:58Z</time>
      </trkpt>
      <trkpt lat="59.08198356628418" lon="30.011472702026367">
        <time>2026-04-25T09:57:00Z</time>
      </trkpt>
      <trkpt lat="59.08198356628418" lon="30.011365413665771">
        <time>2026-04-25T09:57:03Z</time>
      </trkpt>
      <trkpt lat="59.08198356628418" lon="30.011193752288818">
        <time>2026-04-25T09:57:05Z</time>
      </trkpt>
      <trkpt lat="59.081962108612061" lon="30.011107921600342">
        <time>2026-04-25T09:57:08Z</time>
      </trkpt>
      <trkpt lat="59.081962108612061" lon="30.010957717895508">
        <time>2026-04-25T09:57:10Z</time>
      </trkpt>
      <trkpt lat="59.081919193267822" lon="30.010871887207031">
        <time>2026-04-25T09:57:13Z</time>
      </trkpt>
      <trkpt lat="59.081897735595703" lon="30.010764598846436">
        <time>2026-04-25T09:57:15Z</time>
      </trkpt>
      <trkpt lat="59.081876277923584" lon="30.010764598846436">
        <time>2026-04-25T09:57:18Z</time>
      </trkpt>
      <trkpt lat="59.081876277923584" lon="30.010764598846436">
        <time>2026-04-25T09:57:20Z</time>
      </trkpt>
      <trkpt lat="59.081876277923584" lon="30.010764598846436">
        <time>2026-04-25T09:57:23Z</time>
      </trkpt>
      <trkpt lat="59.081876277923584" lon="30.010764598846436">
        <time>2026-04-25T09:57:25Z</time>
      </trkpt>
      <trkpt lat="59.081876277923584" lon="30.010786056518555">
        <time>2026-04-25T09:57:28Z</time>
      </trkpt>
      <trkpt lat="59.081876277923584" lon="30.010828971862793">
        <time>2026-04-25T09:57:30Z</time>
      </trkpt>
      <trkpt lat="59.081833362579346" lon="30.010828971862793">
        <time>2026-04-25T09:57:33Z</time>
      </trkpt>
      <trkpt lat="59.081811904907227" lon="30.010807514190674">
        <time>2026-04-25T09:57:35Z</time>
      </trkpt>
      <trkpt lat="59.081768989562988" lon="30.010828971862793">
        <time>2026-04-25T09:57:38Z</time>
      </trkpt>
      <trkpt lat="59.08172607421875" lon="30.010871887207031">
        <time>2026-04-25T09:57:40Z</time>
      </trkpt>
      <trkpt lat="59.081683158874512" lon="30.010936260223389">
        <time>2026-04-25T09:57:43Z</time>
      </trkpt>
      <trkpt lat="59.081640243530273" lon="30.011022090911865">
        <time>2026-04-25T09:57:45Z</time>
      </trkpt>
      <trkpt lat="59.081597328186035" lon="30.011065006256104">
        <time>2026-04-25T09:57:48Z</time>
      </trkpt>
      <trkpt lat="59.081597328186035" lon="30.01115083694458">
        <time>2026-04-25T09:57:50Z</time>
      </trkpt>
      <trkpt lat="59.081597328186035" lon="30.011172294616699">
        <time>2026-04-25T09:57:53Z</time>
      </trkpt>
      <trkpt lat="59.081597328186035" lon="30.011215209960938">
        <time>2026-04-25T09:57:55Z</time>
      </trkpt>
      <trkpt lat="59.081575870513916" lon="30.011279582977295">
        <time>2026-04-25T09:57:58Z</time>
      </trkpt>
      <trkpt lat="59.081575870513916" lon="30.011322498321533">
        <time>2026-04-25T09:58:00Z</time>
      </trkpt>
      <trkpt lat="59.081575870513916" lon="30.011322498321533">
        <time>2026-04-25T09:58:03Z</time>
      </trkpt>
      <trkpt lat="59.081575870513916" lon="30.011322498321533">
        <time>2026-04-25T09:58:05Z</time>
      </trkpt>
      <trkpt lat="59.081597328186035" lon="30.011322498321533">
        <time>2026-04-25T09:58:08Z</time>
      </trkpt>
      <trkpt lat="59.081597328186035" lon="30.011322498321533">
        <time>2026-04-25T09:58:10Z</time>
      </trkpt>
      <trkpt lat="59.081597328186035" lon="30.011322498321533">
        <time>2026-04-25T09:58:13Z</time>
      </trkpt>
      <trkpt lat="59.081597328186035" lon="30.011343955993652">
        <time>2026-04-25T09:58:15Z</time>
      </trkpt>
      <trkpt lat="59.081597328186035" lon="30.011365413665771">
        <time>2026-04-25T09:58:18Z</time>
      </trkpt>
      <trkpt lat="59.081597328186035" lon="30.011365413665771">
        <time>2026-04-25T09:58:20Z</time>
      </trkpt>
      <trkpt lat="59.081597328186035" lon="30.011386871337891">
        <time>2026-04-25T09:58:23Z</time>
      </trkpt>
      <trkpt lat="59.081597328186035" lon="30.01140832901001">
        <time>2026-04-25T09:58:25Z</time>
      </trkpt>
      <trkpt lat="59.081597328186035" lon="30.01140832901001">
        <time>2026-04-25T09:58:28Z</time>
      </trkpt>
      <trkpt lat="59.081575870513916" lon="30.011429786682129">
        <time>2026-04-25T09:58:30Z</time>
      </trkpt>
      <trkpt lat="59.081575870513916" lon="30.011451244354248">
        <time>2026-04-25T09:58:33Z</time>
      </trkpt>
      <trkpt lat="59.081554412841797" lon="30.011451244354248">
        <time>2026-04-25T09:58:35Z</time>
      </trkpt>
      <trkpt lat="59.081554412841797" lon="30.011451244354248">
        <time>2026-04-25T09:58:38Z</time>
      </trkpt>
      <trkpt lat="59.081554412841797" lon="30.011472702026367">
        <time>2026-04-25T09:58:40Z</time>
      </trkpt>
      <trkpt lat="59.081532955169678" lon="30.011472702026367">
        <time>2026-04-25T09:58:43Z</time>
      </trkpt>
      <trkpt lat="59.081532955169678" lon="30.011472702026367">
        <time>2026-04-25T09:58:45Z</time>
      </trkpt>
      <trkpt lat="59.081532955169678" lon="30.011494159698486">
        <time>2026-04-25T09:58:48Z</time>
      </trkpt>
      <trkpt lat="59.081532955169678" lon="30.011472702026367">
        <time>2026-04-25T09:58:50Z</time>
      </trkpt>
      <trkpt lat="59.081532955169678" lon="30.011472702026367">
        <time>2026-04-25T09:58:53Z</time>
      </trkpt>
      <trkpt lat="59.081532955169678" lon="30.011472702026367">
        <time>2026-04-25T09:58:55Z</time>
      </trkpt>
      <trkpt lat="59.081532955169678" lon="30.011472702026367">
        <time>2026-04-25T09:58:58Z</time>
      </trkpt>
      <trkpt lat="59.081532955169678" lon="30.011472702026367">
        <time>2026-04-25T09:59:00Z</time>
      </trkpt>
      <trkpt lat="59.081532955169678" lon="30.011494159698486">
        <time>2026-04-25T09:59:03Z</time>
      </trkpt>
      <trkpt lat="59.081511497497559" lon="30.011494159698486">
        <time>2026-04-25T09:59:05Z</time>
      </trkpt>
      <trkpt lat="59.081511497497559" lon="30.011558532714844">
        <time>2026-04-25T09:59:08Z</time>
      </trkpt>
      <trkpt lat="59.081532955169678" lon="30.011622905731201">
        <time>2026-04-25T09:59:10Z</time>
      </trkpt>
      <trkpt lat="59.081554412841797" lon="30.01164436340332">
        <time>2026-04-25T09:59:13Z</time>
      </trkpt>
      <trkpt lat="59.081575870513916" lon="30.011708736419678">
        <time>2026-04-25T09:59:15Z</time>
      </trkpt>
      <trkpt lat="59.081597328186035" lon="30.011730194091797">
        <time>2026-04-25T09:59:18Z</time>
      </trkpt>
      <trkpt lat="59.081640243530273" lon="30.011773109436035">
        <time>2026-04-25T09:59:20Z</time>
      </trkpt>
      <trkpt lat="59.081661701202393" lon="30.011773109436035">
        <time>2026-04-25T09:59:23Z</time>
      </trkpt>
      <trkpt lat="59.081683158874512" lon="30.011816024780273">
        <time>2026-04-25T09:59:25Z</time>
      </trkpt>
      <trkpt lat="59.081704616546631" lon="30.011837482452393">
        <time>2026-04-25T09:59:28Z</time>
      </trkpt>
      <trkpt lat="59.081747531890869" lon="30.011944770812988">
        <time>2026-04-25T09:59:30Z</time>
      </trkpt>
      <trkpt lat="59.081747531890869" lon="30.011987686157227">
        <time>2026-04-25T09:59:33Z</time>
      </trkpt>
      <trkpt lat="59.081768989562988" lon="30.012030601501465">
        <time>2026-04-25T09:59:35Z</time>
      </trkpt>
      <trkpt lat="59.081790447235107" lon="30.012073516845703">
        <time>2026-04-25T09:59:38Z</time>
      </trkpt>
      <trkpt lat="59.081833362579346" lon="30.01215934753418">
        <time>2026-04-25T09:59:40Z</time>
      </trkpt>
      <trkpt lat="59.081876277923584" lon="30.012180805206299">
        <time>2026-04-25T09:59:43Z</time>
      </trkpt>
      <trkpt lat="59.081919193267822" lon="30.012245178222656">
        <time>2026-04-25T09:59:45Z</time>
      </trkpt>
      <trkpt lat="59.081940650939941" lon="30.012266635894775">
        <time>2026-04-25T09:59:48Z</time>
      </trkpt>
      <trkpt lat="59.08198356628418" lon="30.012245178222656">
        <time>2026-04-25T09:59:50Z</time>
      </trkpt>
      <trkpt lat="59.08198356628418" lon="30.012202262878418">
        <time>2026-04-25T09:59:53Z</time>
      </trkpt>
      <trkpt lat="59.082026481628418" lon="30.012202262878418">
        <time>2026-04-25T09:59:55Z</time>
      </trkpt>
      <trkpt lat="59.082026481628418" lon="30.012223720550537">
        <time>2026-04-25T09:59:58Z</time>
      </trkpt>
      <trkpt lat="59.082047939300537" lon="30.012223720550537">
        <time>2026-04-25T10:00:00Z</time>
      </trkpt>
      <trkpt lat="59.082047939300537" lon="30.012223720550537">
        <time>2026-04-25T10:00:03Z</time>
      </trkpt>
      <trkpt lat="59.082069396972656" lon="30.012180805206299">
        <time>2026-04-25T10:00:05Z</time>
      </trkpt>
      <trkpt lat="59.082069396972656" lon="30.01215934753418">
        <time>2026-04-25T10:00:08Z</time>
      </trkpt>
      <trkpt lat="59.082090854644775" lon="30.012116432189941">
        <time>2026-04-25T10:00:10Z</time>
      </trkpt>
      <trkpt lat="59.082090854644775" lon="30.012116432189941">
        <time>2026-04-25T10:00:13Z</time>
      </trkpt>
      <trkpt lat="59.082090854644775" lon="30.01215934753418">
        <time>2026-04-25T10:00:15Z</time>
      </trkpt>
      <trkpt lat="59.082090854644775" lon="30.012180805206299">
        <time>2026-04-25T10:00:18Z</time>
      </trkpt>
      <trkpt lat="59.082112312316895" lon="30.012245178222656">
        <time>2026-04-25T10:00:20Z</time>
      </trkpt>
      <trkpt lat="59.082090854644775" lon="30.012288093566895">
        <time>2026-04-25T10:00:23Z</time>
      </trkpt>
      <trkpt lat="59.082047939300537" lon="30.012331008911133">
        <time>2026-04-25T10:00:25Z</time>
      </trkpt>
      <trkpt lat="59.082047939300537" lon="30.012373924255371">
        <time>2026-04-25T10:00:28Z</time>
      </trkpt>
      <trkpt lat="59.082026481628418" lon="30.012459754943848">
        <time>2026-04-25T10:00:30Z</time>
      </trkpt>
      <trkpt lat="59.082005023956299" lon="30.012481212615967">
        <time>2026-04-25T10:00:33Z</time>
      </trkpt>
      <trkpt lat="59.082005023956299" lon="30.012502670288086">
        <time>2026-04-25T10:00:35Z</time>
      </trkpt>
      <trkpt lat="59.08198356628418" lon="30.012524127960205">
        <time>2026-04-25T10:00:38Z</time>
      </trkpt>
      <trkpt lat="59.08198356628418" lon="30.012524127960205">
        <time>2026-04-25T10:00:40Z</time>
      </trkpt>
      <trkpt lat="59.08198356628418" lon="30.012524127960205">
        <time>2026-04-25T10:00:43Z</time>
      </trkpt>
      <trkpt lat="59.08198356628418" lon="30.012545585632324">
        <time>2026-04-25T10:00:45Z</time>
      </trkpt>
      <trkpt lat="59.081962108612061" lon="30.012545585632324">
        <time>2026-04-25T10:00:48Z</time>
      </trkpt>
      <trkpt lat="59.081962108612061" lon="30.012545585632324">
        <time>2026-04-25T10:00:50Z</time>
      </trkpt>
      <trkpt lat="59.081962108612061" lon="30.012545585632324">
        <time>2026-04-25T10:00:53Z</time>
      </trkpt>
      <trkpt lat="59.081962108612061" lon="30.012545585632324">
        <time>2026-04-25T10:00:55Z</time>
      </trkpt>
      <trkpt lat="59.081962108612061" lon="30.012545585632324">
        <time>2026-04-25T10:00:58Z</time>
      </trkpt>
      <trkpt lat="59.081962108612061" lon="30.012545585632324">
        <time>2026-04-25T10:01:00Z</time>
      </trkpt>
      <trkpt lat="59.081962108612061" lon="30.012545585632324">
        <time>2026-04-25T10:01:03Z</time>
      </trkpt>
      <trkpt lat="59.081962108612061" lon="30.012545585632324">
        <time>2026-04-25T10:01:05Z</time>
      </trkpt>
      <trkpt lat="59.081940650939941" lon="30.012567043304443">
        <time>2026-04-25T10:01:08Z</time>
      </trkpt>
      <trkpt lat="59.081919193267822" lon="30.012609958648682">
        <time>2026-04-25T10:01:10Z</time>
      </trkpt>
      <trkpt lat="59.081897735595703" lon="30.012631416320801">
        <time>2026-04-25T10:01:13Z</time>
      </trkpt>
      <trkpt lat="59.081876277923584" lon="30.01265287399292">
        <time>2026-04-25T10:01:15Z</time>
      </trkpt>
      <trkpt lat="59.081876277923584" lon="30.01265287399292">
        <time>2026-04-25T10:01:18Z</time>
      </trkpt>
      <trkpt lat="59.081876277923584" lon="30.012674331665039">
        <time>2026-04-25T10:01:20Z</time>
      </trkpt>
      <trkpt lat="59.081876277923584" lon="30.012674331665039">
        <time>2026-04-25T10:01:23Z</time>
      </trkpt>
      <trkpt lat="59.081876277923584" lon="30.012674331665039">
        <time>2026-04-25T10:01:25Z</time>
      </trkpt>
      <trkpt lat="59.081876277923584" lon="30.012674331665039">
        <time>2026-04-25T10:01:28Z</time>
      </trkpt>
      <trkpt lat="59.081876277923584" lon="30.012674331665039">
        <time>2026-04-25T10:01:30Z</time>
      </trkpt>
      <trkpt lat="59.081876277923584" lon="30.012674331665039">
        <time>2026-04-25T10:01:33Z</time>
      </trkpt>
      <trkpt lat="59.081876277923584" lon="30.012674331665039">
        <time>2026-04-25T10:01:35Z</time>
      </trkpt>
      <trkpt lat="59.081876277923584" lon="30.012674331665039">
        <time>2026-04-25T10:01:38Z</time>
      </trkpt>
      <trkpt lat="59.081876277923584" lon="30.012674331665039">
        <time>2026-04-25T10:01:40Z</time>
      </trkpt>
      <trkpt lat="59.081854820251465" lon="30.012674331665039">
        <time>2026-04-25T10:01:43Z</time>
      </trkpt>
      <trkpt lat="59.081854820251465" lon="30.012674331665039">
        <time>2026-04-25T10:01:45Z</time>
      </trkpt>
      <trkpt lat="59.081833362579346" lon="30.012674331665039">
        <time>2026-04-25T10:01:48Z</time>
      </trkpt>
      <trkpt lat="59.081833362579346" lon="30.012695789337158">
        <time>2026-04-25T10:01:50Z</time>
      </trkpt>
      <trkpt lat="59.081833362579346" lon="30.012717247009277">
        <time>2026-04-25T10:01:53Z</time>
      </trkpt>
      <trkpt lat="59.081833362579346" lon="30.012717247009277">
        <time>2026-04-25T10:01:55Z</time>
      </trkpt>
      <trkpt lat="59.081833362579346" lon="30.012717247009277">
        <time>2026-04-25T10:01:58Z</time>
      </trkpt>
      <trkpt lat="59.081833362579346" lon="30.012717247009277">
        <time>2026-04-25T10:02:00Z</time>
      </trkpt>
      <trkpt lat="59.081833362579346" lon="30.012717247009277">
        <time>2026-04-25T10:02:03Z</time>
      </trkpt>
      <trkpt lat="59.081833362579346" lon="30.012717247009277">
        <time>2026-04-25T10:02:05Z</time>
      </trkpt>
      <trkpt lat="59.081833362579346" lon="30.012717247009277">
        <time>2026-04-25T10:02:08Z</time>
      </trkpt>
      <trkpt lat="59.081811904907227" lon="30.012717247009277">
        <time>2026-04-25T10:02:10Z</time>
      </trkpt>
      <trkpt lat="59.081811904907227" lon="30.012717247009277">
        <time>2026-04-25T10:02:13Z</time>
      </trkpt>
      <trkpt lat="59.081790447235107" lon="30.012695789337158">
        <time>2026-04-25T10:02:15Z</time>
      </trkpt>
      <trkpt lat="59.081768989562988" lon="30.012674331665039">
        <time>2026-04-25T10:02:18Z</time>
      </trkpt>
      <trkpt lat="59.08172607421875" lon="30.01265287399292">
        <time>2026-04-25T10:02:20Z</time>
      </trkpt>
      <trkpt lat="59.081704616546631" lon="30.012631416320801">
        <time>2026-04-25T10:02:23Z</time>
      </trkpt>
      <trkpt lat="59.081661701202393" lon="30.01265287399292">
        <time>2026-04-25T10:02:25Z</time>
      </trkpt>
      <trkpt lat="59.081661701202393" lon="30.01265287399292">
        <time>2026-04-25T10:02:28Z</time>
      </trkpt>
      <trkpt lat="59.081618785858154" lon="30.012695789337158">
        <time>2026-04-25T10:02:30Z</time>
      </trkpt>
      <trkpt lat="59.081618785858154" lon="30.012695789337158">
        <time>2026-04-25T10:02:33Z</time>
      </trkpt>
      <trkpt lat="59.081575870513916" lon="30.012695789337158">
        <time>2026-04-25T10:02:35Z</time>
      </trkpt>
      <trkpt lat="59.081554412841797" lon="30.012695789337158">
        <time>2026-04-25T10:02:38Z</time>
      </trkpt>
      <trkpt lat="59.081532955169678" lon="30.012695789337158">
        <time>2026-04-25T10:02:40Z</time>
      </trkpt>
      <trkpt lat="59.081511497497559" lon="30.012674331665039">
        <time>2026-04-25T10:02:43Z</time>
      </trkpt>
      <trkpt lat="59.081490039825439" lon="30.012631416320801">
        <time>2026-04-25T10:02:45Z</time>
      </trkpt>
      <trkpt lat="59.081490039825439" lon="30.012609958648682">
        <time>2026-04-25T10:02:48Z</time>
      </trkpt>
      <trkpt lat="59.081490039825439" lon="30.012588500976563">
        <time>2026-04-25T10:02:50Z</time>
      </trkpt>
      <trkpt lat="59.08146858215332" lon="30.012588500976563">
        <time>2026-04-25T10:02:53Z</time>
      </trkpt>
      <trkpt lat="59.081425666809082" lon="30.012588500976563">
        <time>2026-04-25T10:02:55Z</time>
      </trkpt>
      <trkpt lat="59.081404209136963" lon="30.012631416320801">
        <time>2026-04-25T10:02:58Z</time>
      </trkpt>
      <trkpt lat="59.081361293792725" lon="30.012695789337158">
        <time>2026-04-25T10:03:00Z</time>
      </trkpt>
      <trkpt lat="59.081318378448486" lon="30.012717247009277">
        <time>2026-04-25T10:03:03Z</time>
      </trkpt>
      <trkpt lat="59.081296920776367" lon="30.012738704681396">
        <time>2026-04-25T10:03:05Z</time>
      </trkpt>
      <trkpt lat="59.081275463104248" lon="30.012760162353516">
        <time>2026-04-25T10:03:08Z</time>
      </trkpt>
      <trkpt lat="59.081275463104248" lon="30.012781620025635">
        <time>2026-04-25T10:03:10Z</time>
      </trkpt>
      <trkpt lat="59.081275463104248" lon="30.012781620025635">
        <time>2026-04-25T10:03:13Z</time>
      </trkpt>
      <trkpt lat="59.08123254776001" lon="30.012845993041992">
        <time>2026-04-25T10:03:15Z</time>
      </trkpt>
      <trkpt lat="59.081211090087891" lon="30.01288890838623">
        <time>2026-04-25T10:03:18Z</time>
      </trkpt>
      <trkpt lat="59.081168174743652" lon="30.01291036605835">
        <time>2026-04-25T10:03:20Z</time>
      </trkpt>
      <trkpt lat="59.081125259399414" lon="30.012867450714111">
        <time>2026-04-25T10:03:23Z</time>
      </trkpt>
      <trkpt lat="59.081082344055176" lon="30.012845993041992">
        <time>2026-04-25T10:03:25Z</time>
      </trkpt>
      <trkpt lat="59.081060886383057" lon="30.012845993041992">
        <time>2026-04-25T10:03:28Z</time>
      </trkpt>
      <trkpt lat="59.081060886383057" lon="30.012867450714111">
        <time>2026-04-25T10:03:30Z</time>
      </trkpt>
      <trkpt lat="59.081060886383057" lon="30.012867450714111">
        <time>2026-04-25T10:03:33Z</time>
      </trkpt>
      <trkpt lat="59.081060886383057" lon="30.012781620025635">
        <time>2026-04-25T10:03:35Z</time>
      </trkpt>
      <trkpt lat="59.081060886383057" lon="30.012695789337158">
        <time>2026-04-25T10:03:38Z</time>
      </trkpt>
      <trkpt lat="59.081039428710938" lon="30.012631416320801">
        <time>2026-04-25T10:03:40Z</time>
      </trkpt>
      <trkpt lat="59.081039428710938" lon="30.012631416320801">
        <time>2026-04-25T10:03:43Z</time>
      </trkpt>
      <trkpt lat="59.081039428710938" lon="30.012631416320801">
        <time>2026-04-25T10:03:45Z</time>
      </trkpt>
      <trkpt lat="59.081039428710938" lon="30.012631416320801">
        <time>2026-04-25T10:03:48Z</time>
      </trkpt>
      <trkpt lat="59.081039428710938" lon="30.012631416320801">
        <time>2026-04-25T10:03:50Z</time>
      </trkpt>
      <trkpt lat="59.081039428710938" lon="30.012631416320801">
        <time>2026-04-25T10:03:53Z</time>
      </trkpt>
      <trkpt lat="59.081039428710938" lon="30.01265287399292">
        <time>2026-04-25T10:03:55Z</time>
      </trkpt>
      <trkpt lat="59.081039428710938" lon="30.012717247009277">
        <time>2026-04-25T10:03:58Z</time>
      </trkpt>
      <trkpt lat="59.081017971038818" lon="30.012867450714111">
        <time>2026-04-25T10:04:00Z</time>
      </trkpt>
      <trkpt lat="59.080996513366699" lon="30.012953281402588">
        <time>2026-04-25T10:04:03Z</time>
      </trkpt>
      <trkpt lat="59.08097505569458" lon="30.013082027435303">
        <time>2026-04-25T10:04:05Z</time>
      </trkpt>
      <trkpt lat="59.080953598022461" lon="30.013167858123779">
        <time>2026-04-25T10:04:08Z</time>
      </trkpt>
      <trkpt lat="59.080953598022461" lon="30.013167858123779">
        <time>2026-04-25T10:04:10Z</time>
      </trkpt>
      <trkpt lat="59.080953598022461" lon="30.013189315795898">
        <time>2026-04-25T10:04:13Z</time>
      </trkpt>
      <trkpt lat="59.08097505569458" lon="30.013210773468018">
        <time>2026-04-25T10:04:15Z</time>
      </trkpt>
      <trkpt lat="59.08097505569458" lon="30.013210773468018">
        <time>2026-04-25T10:04:18Z</time>
      </trkpt>
      <trkpt lat="59.080953598022461" lon="30.013210773468018">
        <time>2026-04-25T10:04:20Z</time>
      </trkpt>
      <trkpt lat="59.08097505569458" lon="30.013210773468018">
        <time>2026-04-25T10:04:23Z</time>
      </trkpt>
      <trkpt lat="59.080953598022461" lon="30.013210773468018">
        <time>2026-04-25T10:04:25Z</time>
      </trkpt>
      <trkpt lat="59.080953598022461" lon="30.013210773468018">
        <time>2026-04-25T10:04:28Z</time>
      </trkpt>
      <trkpt lat="59.080953598022461" lon="30.013275146484375">
        <time>2026-04-25T10:04:30Z</time>
      </trkpt>
      <trkpt lat="59.080932140350342" lon="30.013339519500732">
        <time>2026-04-25T10:04:33Z</time>
      </trkpt>
      <trkpt lat="59.080803394317627" lon="30.013532638549805">
        <time>2026-04-25T10:04:38Z</time>
      </trkpt>
      <trkpt lat="59.080760478973389" lon="30.01366138458252">
        <time>2026-04-25T10:04:40Z</time>
      </trkpt>
      <trkpt lat="59.08073902130127" lon="30.013725757598877">
        <time>2026-04-25T10:04:43Z</time>
      </trkpt>
      <trkpt lat="59.08073902130127" lon="30.013790130615234">
        <time>2026-04-25T10:04:45Z</time>
      </trkpt>
      <trkpt lat="59.08073902130127" lon="30.013811588287354">
        <time>2026-04-25T10:04:48Z</time>
      </trkpt>
      <trkpt lat="59.080696105957031" lon="30.013833045959473">
        <time>2026-04-25T10:04:50Z</time>
      </trkpt>
      <trkpt lat="59.080674648284912" lon="30.013854503631592">
        <time>2026-04-25T10:04:53Z</time>
      </trkpt>
      <trkpt lat="59.080653190612793" lon="30.013875961303711">
        <time>2026-04-25T10:04:55Z</time>
      </trkpt>
      <trkpt lat="59.080631732940674" lon="30.01389741897583">
        <time>2026-04-25T10:04:58Z</time>
      </trkpt>
      <trkpt lat="59.080588817596436" lon="30.013961791992188">
        <time>2026-04-25T10:05:00Z</time>
      </trkpt>
      <trkpt lat="59.080588817596436" lon="30.013983249664307">
        <time>2026-04-25T10:05:03Z</time>
      </trkpt>
      <trkpt lat="59.080545902252197" lon="30.014069080352783">
        <time>2026-04-25T10:05:05Z</time>
      </trkpt>
      <trkpt lat="59.080545902252197" lon="30.014111995697021">
        <time>2026-04-25T10:05:08Z</time>
      </trkpt>
      <trkpt lat="59.080545902252197" lon="30.014133453369141">
        <time>2026-04-25T10:05:10Z</time>
      </trkpt>
      <trkpt lat="59.080545902252197" lon="30.014133453369141">
        <time>2026-04-25T10:05:13Z</time>
      </trkpt>
      <trkpt lat="59.080545902252197" lon="30.01415491104126">
        <time>2026-04-25T10:05:15Z</time>
      </trkpt>
      <trkpt lat="59.080545902252197" lon="30.01415491104126">
        <time>2026-04-25T10:05:20Z</time>
      </trkpt>
      <trkpt lat="59.080545902252197" lon="30.01415491104126">
        <time>2026-04-25T10:05:23Z</time>
      </trkpt>
      <trkpt lat="59.080545902252197" lon="30.014133453369141">
        <time>2026-04-25T10:05:25Z</time>
      </trkpt>
      <trkpt lat="59.080545902252197" lon="30.014133453369141">
        <time>2026-04-25T10:05:28Z</time>
      </trkpt>
      <trkpt lat="59.080567359924316" lon="30.014069080352783">
        <time>2026-04-25T10:05:30Z</time>
      </trkpt>
      <trkpt lat="59.080588817596436" lon="30.014047622680664">
        <time>2026-04-25T10:05:33Z</time>
      </trkpt>
      <trkpt lat="59.080631732940674" lon="30.013983249664307">
        <time>2026-04-25T10:05:35Z</time>
      </trkpt>
      <trkpt lat="59.080674648284912" lon="30.013918876647949">
        <time>2026-04-25T10:05:38Z</time>
      </trkpt>
      <trkpt lat="59.080760478973389" lon="30.013875961303711">
        <time>2026-04-25T10:05:40Z</time>
      </trkpt>
      <trkpt lat="59.080846309661865" lon="30.013833045959473">
        <time>2026-04-25T10:05:43Z</time>
      </trkpt>
      <trkpt lat="59.08097505569458" lon="30.013725757598877">
        <time>2026-04-25T10:05:45Z</time>
      </trkpt>
      <trkpt lat="59.081039428710938" lon="30.013725757598877">
        <time>2026-04-25T10:05:48Z</time>
      </trkpt>
      <trkpt lat="59.081060886383057" lon="30.013704299926758">
        <time>2026-04-25T10:05:50Z</time>
      </trkpt>
      <trkpt lat="59.081060886383057" lon="30.013682842254639">
        <time>2026-04-25T10:05:53Z</time>
      </trkpt>
      <trkpt lat="59.081125259399414" lon="30.013682842254639">
        <time>2026-04-25T10:05:55Z</time>
      </trkpt>
      <trkpt lat="59.081189632415771" lon="30.01366138458252">
        <time>2026-04-25T10:05:58Z</time>
      </trkpt>
      <trkpt lat="59.081275463104248" lon="30.013575553894043">
        <time>2026-04-25T10:06:00Z</time>
      </trkpt>
      <trkpt lat="59.081339836120605" lon="30.013489723205566">
        <time>2026-04-25T10:06:03Z</time>
      </trkpt>
      <trkpt lat="59.081382751464844" lon="30.013360977172852">
        <time>2026-04-25T10:06:05Z</time>
      </trkpt>
      <trkpt lat="59.081425666809082" lon="30.013253688812256">
        <time>2026-04-25T10:06:08Z</time>
      </trkpt>
      <trkpt lat="59.08146858215332" lon="30.013103485107422">
        <time>2026-04-25T10:06:10Z</time>
      </trkpt>
      <trkpt lat="59.08146858215332" lon="30.013060569763184">
        <time>2026-04-25T10:06:13Z</time>
      </trkpt>
      <trkpt lat="59.081490039825439" lon="30.012974739074707">
        <time>2026-04-25T10:06:15Z</time>
      </trkpt>
      <trkpt lat="59.081490039825439" lon="30.012953281402588">
        <time>2026-04-25T10:06:18Z</time>
      </trkpt>
      <trkpt lat="59.081490039825439" lon="30.012953281402588">
        <time>2026-04-25T10:06:20Z</time>
      </trkpt>
      <trkpt lat="59.081490039825439" lon="30.012953281402588">
        <time>2026-04-25T10:06:23Z</time>
      </trkpt>
      <trkpt lat="59.081490039825439" lon="30.012953281402588">
        <time>2026-04-25T10:06:25Z</time>
      </trkpt>
      <trkpt lat="59.081490039825439" lon="30.012953281402588">
        <time>2026-04-25T10:06:28Z</time>
      </trkpt>
      <trkpt lat="59.081490039825439" lon="30.012953281402588">
        <time>2026-04-25T10:06:30Z</time>
      </trkpt>
      <trkpt lat="59.081490039825439" lon="30.012953281402588">
        <time>2026-04-25T10:06:33Z</time>
      </trkpt>
      <trkpt lat="59.081490039825439" lon="30.012953281402588">
        <time>2026-04-25T10:06:35Z</time>
      </trkpt>
      <trkpt lat="59.081490039825439" lon="30.012953281402588">
        <time>2026-04-25T10:06:38Z</time>
      </trkpt>
      <trkpt lat="59.081490039825439" lon="30.012953281402588">
        <time>2026-04-25T10:06:40Z</time>
      </trkpt>
      <trkpt lat="59.081490039825439" lon="30.012953281402588">
        <time>2026-04-25T10:06:43Z</time>
      </trkpt>
      <trkpt lat="59.081490039825439" lon="30.012953281402588">
        <time>2026-04-25T10:06:45Z</time>
      </trkpt>
      <trkpt lat="59.081490039825439" lon="30.012953281402588">
        <time>2026-04-25T10:06:48Z</time>
      </trkpt>
      <trkpt lat="59.081490039825439" lon="30.012953281402588">
        <time>2026-04-25T10:06:50Z</time>
      </trkpt>
      <trkpt lat="59.081490039825439" lon="30.012953281402588">
        <time>2026-04-25T10:06:53Z</time>
      </trkpt>
      <trkpt lat="59.081490039825439" lon="30.012953281402588">
        <time>2026-04-25T10:06:55Z</time>
      </trkpt>
      <trkpt lat="59.081490039825439" lon="30.012953281402588">
        <time>2026-04-25T10:06:58Z</time>
      </trkpt>
      <trkpt lat="59.081490039825439" lon="30.012953281402588">
        <time>2026-04-25T10:07:00Z</time>
      </trkpt>
      <trkpt lat="59.081490039825439" lon="30.012953281402588">
        <time>2026-04-25T10:07:03Z</time>
      </trkpt>
      <trkpt lat="59.081490039825439" lon="30.012953281402588">
        <time>2026-04-25T10:07:05Z</time>
      </trkpt>
      <trkpt lat="59.081490039825439" lon="30.012953281402588">
        <time>2026-04-25T10:07:08Z</time>
      </trkpt>
      <trkpt lat="59.081490039825439" lon="30.012953281402588">
        <time>2026-04-25T10:07:10Z</time>
      </trkpt>
      <trkpt lat="59.081490039825439" lon="30.012953281402588">
        <time>2026-04-25T10:07:13Z</time>
      </trkpt>
      <trkpt lat="59.081490039825439" lon="30.012953281402588">
        <time>2026-04-25T10:07:15Z</time>
      </trkpt>
      <trkpt lat="59.081490039825439" lon="30.012953281402588">
        <time>2026-04-25T10:07:18Z</time>
      </trkpt>
      <trkpt lat="59.081490039825439" lon="30.012953281402588">
        <time>2026-04-25T10:07:20Z</time>
      </trkpt>
      <trkpt lat="59.081490039825439" lon="30.012953281402588">
        <time>2026-04-25T10:07:23Z</time>
      </trkpt>
      <trkpt lat="59.081490039825439" lon="30.012953281402588">
        <time>2026-04-25T10:07:25Z</time>
      </trkpt>
      <trkpt lat="59.081490039825439" lon="30.012953281402588">
        <time>2026-04-25T10:07:28Z</time>
      </trkpt>
      <trkpt lat="59.081490039825439" lon="30.012953281402588">
        <time>2026-04-25T10:07:30Z</time>
      </trkpt>
      <trkpt lat="59.081490039825439" lon="30.012953281402588">
        <time>2026-04-25T10:07:33Z</time>
      </trkpt>
      <trkpt lat="59.081490039825439" lon="30.012953281402588">
        <time>2026-04-25T10:07:35Z</time>
      </trkpt>
      <trkpt lat="59.081490039825439" lon="30.012953281402588">
        <time>2026-04-25T10:07:38Z</time>
      </trkpt>
      <trkpt lat="59.081490039825439" lon="30.012953281402588">
        <time>2026-04-25T10:07:40Z</time>
      </trkpt>
      <trkpt lat="59.081490039825439" lon="30.012953281402588">
        <time>2026-04-25T10:07:43Z</time>
      </trkpt>
      <trkpt lat="59.081490039825439" lon="30.012953281402588">
        <time>2026-04-25T10:07:45Z</time>
      </trkpt>
      <trkpt lat="59.081490039825439" lon="30.012953281402588">
        <time>2026-04-25T10:07:48Z</time>
      </trkpt>
      <trkpt lat="59.081490039825439" lon="30.012953281402588">
        <time>2026-04-25T10:07:50Z</time>
      </trkpt>
      <trkpt lat="59.081490039825439" lon="30.012953281402588">
        <time>2026-04-25T10:07:53Z</time>
      </trkpt>
      <trkpt lat="59.081490039825439" lon="30.012953281402588">
        <time>2026-04-25T10:07:55Z</time>
      </trkpt>
      <trkpt lat="59.081490039825439" lon="30.012953281402588">
        <time>2026-04-25T10:07:58Z</time>
      </trkpt>
      <trkpt lat="59.081490039825439" lon="30.012953281402588">
        <time>2026-04-25T10:08:00Z</time>
      </trkpt>
      <trkpt lat="59.081490039825439" lon="30.012953281402588">
        <time>2026-04-25T10:08:03Z</time>
      </trkpt>
      <trkpt lat="59.081490039825439" lon="30.012953281402588">
        <time>2026-04-25T10:08:05Z</time>
      </trkpt>
      <trkpt lat="59.081490039825439" lon="30.012953281402588">
        <time>2026-04-25T10:08:08Z</time>
      </trkpt>
      <trkpt lat="59.081490039825439" lon="30.012953281402588">
        <time>2026-04-25T10:08:10Z</time>
      </trkpt>
      <trkpt lat="59.081490039825439" lon="30.012953281402588">
        <time>2026-04-25T10:08:13Z</time>
      </trkpt>
      <trkpt lat="59.081490039825439" lon="30.012953281402588">
        <time>2026-04-25T10:08:15Z</time>
      </trkpt>
      <trkpt lat="59.081490039825439" lon="30.012953281402588">
        <time>2026-04-25T10:08:18Z</time>
      </trkpt>
      <trkpt lat="59.081490039825439" lon="30.012953281402588">
        <time>2026-04-25T10:08:20Z</time>
      </trkpt>
      <trkpt lat="59.081490039825439" lon="30.012953281402588">
        <time>2026-04-25T10:08:23Z</time>
      </trkpt>
      <trkpt lat="59.081490039825439" lon="30.012953281402588">
        <time>2026-04-25T10:08:25Z</time>
      </trkpt>
      <trkpt lat="59.081490039825439" lon="30.012953281402588">
        <time>2026-04-25T10:08:28Z</time>
      </trkpt>
      <trkpt lat="59.081490039825439" lon="30.012953281402588">
        <time>2026-04-25T10:08:30Z</time>
      </trkpt>
      <trkpt lat="59.081490039825439" lon="30.012953281402588">
        <time>2026-04-25T10:08:33Z</time>
      </trkpt>
      <trkpt lat="59.081490039825439" lon="30.012953281402588">
        <time>2026-04-25T10:08:35Z</time>
      </trkpt>
      <trkpt lat="59.081490039825439" lon="30.012953281402588">
        <time>2026-04-25T10:08:38Z</time>
      </trkpt>
      <trkpt lat="59.081490039825439" lon="30.012953281402588">
        <time>2026-04-25T10:08:40Z</time>
      </trkpt>
      <trkpt lat="59.081490039825439" lon="30.012953281402588">
        <time>2026-04-25T10:08:43Z</time>
      </trkpt>
      <trkpt lat="59.081490039825439" lon="30.012953281402588">
        <time>2026-04-25T10:08:45Z</time>
      </trkpt>
      <trkpt lat="59.081490039825439" lon="30.012953281402588">
        <time>2026-04-25T10:08:48Z</time>
      </trkpt>
      <trkpt lat="59.081490039825439" lon="30.012953281402588">
        <time>2026-04-25T10:08:50Z</time>
      </trkpt>
      <trkpt lat="59.081490039825439" lon="30.012953281402588">
        <time>2026-04-25T10:08:53Z</time>
      </trkpt>
      <trkpt lat="59.081490039825439" lon="30.012953281402588">
        <time>2026-04-25T10:08:55Z</time>
      </trkpt>
      <trkpt lat="59.081490039825439" lon="30.012953281402588">
        <time>2026-04-25T10:08:58Z</time>
      </trkpt>
      <trkpt lat="59.081490039825439" lon="30.012953281402588">
        <time>2026-04-25T10:09:00Z</time>
      </trkpt>
      <trkpt lat="59.081490039825439" lon="30.012953281402588">
        <time>2026-04-25T10:09:03Z</time>
      </trkpt>
      <trkpt lat="59.081490039825439" lon="30.012953281402588">
        <time>2026-04-25T10:09:05Z</time>
      </trkpt>
      <trkpt lat="59.081490039825439" lon="30.012953281402588">
        <time>2026-04-25T10:09:08Z</time>
      </trkpt>
      <trkpt lat="59.081490039825439" lon="30.012953281402588">
        <time>2026-04-25T10:09:10Z</time>
      </trkpt>
      <trkpt lat="59.081490039825439" lon="30.012953281402588">
        <time>2026-04-25T10:09:13Z</time>
      </trkpt>
      <trkpt lat="59.081490039825439" lon="30.012953281402588">
        <time>2026-04-25T10:09:15Z</time>
      </trkpt>
      <trkpt lat="59.081490039825439" lon="30.012953281402588">
        <time>2026-04-25T10:09:18Z</time>
      </trkpt>
      <trkpt lat="59.081490039825439" lon="30.012953281402588">
        <time>2026-04-25T10:09:20Z</time>
      </trkpt>
      <trkpt lat="59.081490039825439" lon="30.012953281402588">
        <time>2026-04-25T10:09:23Z</time>
      </trkpt>
      <trkpt lat="59.081490039825439" lon="30.012953281402588">
        <time>2026-04-25T10:09:25Z</time>
      </trkpt>
      <trkpt lat="59.081490039825439" lon="30.012953281402588">
        <time>2026-04-25T10:09:28Z</time>
      </trkpt>
      <trkpt lat="59.081490039825439" lon="30.012953281402588">
        <time>2026-04-25T10:09:30Z</time>
      </trkpt>
      <trkpt lat="59.081490039825439" lon="30.012953281402588">
        <time>2026-04-25T10:09:33Z</time>
      </trkpt>
      <trkpt lat="59.081490039825439" lon="30.012953281402588">
        <time>2026-04-25T10:09:35Z</time>
      </trkpt>
      <trkpt lat="59.081490039825439" lon="30.012953281402588">
        <time>2026-04-25T10:09:38Z</time>
      </trkpt>
      <trkpt lat="59.081490039825439" lon="30.012953281402588">
        <time>2026-04-25T10:09:40Z</time>
      </trkpt>
      <trkpt lat="59.081490039825439" lon="30.012953281402588">
        <time>2026-04-25T10:09:43Z</time>
      </trkpt>
      <trkpt lat="59.081490039825439" lon="30.012953281402588">
        <time>2026-04-25T10:09:45Z</time>
      </trkpt>
      <trkpt lat="59.081490039825439" lon="30.012953281402588">
        <time>2026-04-25T10:09:48Z</time>
      </trkpt>
      <trkpt lat="59.081490039825439" lon="30.012953281402588">
        <time>2026-04-25T10:09:50Z</time>
      </trkpt>
      <trkpt lat="59.081490039825439" lon="30.012953281402588">
        <time>2026-04-25T10:09:53Z</time>
      </trkpt>
      <trkpt lat="59.081490039825439" lon="30.012953281402588">
        <time>2026-04-25T10:09:55Z</time>
      </trkpt>
      <trkpt lat="59.081490039825439" lon="30.012953281402588">
        <time>2026-04-25T10:09:58Z</time>
      </trkpt>
      <trkpt lat="59.081490039825439" lon="30.012953281402588">
        <time>2026-04-25T10:10:00Z</time>
      </trkpt>
      <trkpt lat="59.081490039825439" lon="30.012953281402588">
        <time>2026-04-25T10:10:03Z</time>
      </trkpt>
      <trkpt lat="59.081490039825439" lon="30.012953281402588">
        <time>2026-04-25T10:10:05Z</time>
      </trkpt>
      <trkpt lat="59.081490039825439" lon="30.012953281402588">
        <time>2026-04-25T10:10:08Z</time>
      </trkpt>
      <trkpt lat="59.081490039825439" lon="30.012953281402588">
        <time>2026-04-25T10:10:10Z</time>
      </trkpt>
      <trkpt lat="59.081490039825439" lon="30.012953281402588">
        <time>2026-04-25T10:10:13Z</time>
      </trkpt>
      <trkpt lat="59.081490039825439" lon="30.012953281402588">
        <time>2026-04-25T10:10:15Z</time>
      </trkpt>
      <trkpt lat="59.081490039825439" lon="30.012953281402588">
        <time>2026-04-25T10:10:18Z</time>
      </trkpt>
      <trkpt lat="59.081490039825439" lon="30.012953281402588">
        <time>2026-04-25T10:10:20Z</time>
      </trkpt>
      <trkpt lat="59.081490039825439" lon="30.012953281402588">
        <time>2026-04-25T10:10:23Z</time>
      </trkpt>
      <trkpt lat="59.081490039825439" lon="30.012931823730469">
        <time>2026-04-25T10:10:25Z</time>
      </trkpt>
      <trkpt lat="59.081490039825439" lon="30.012931823730469">
        <time>2026-04-25T10:10:28Z</time>
      </trkpt>
      <trkpt lat="59.081490039825439" lon="30.012931823730469">
        <time>2026-04-25T10:10:30Z</time>
      </trkpt>
      <trkpt lat="59.081490039825439" lon="30.012931823730469">
        <time>2026-04-25T10:10:33Z</time>
      </trkpt>
      <trkpt lat="59.08146858215332" lon="30.01291036605835">
        <time>2026-04-25T10:10:35Z</time>
      </trkpt>
      <trkpt lat="59.081447124481201" lon="30.012867450714111">
        <time>2026-04-25T10:10:38Z</time>
      </trkpt>
      <trkpt lat="59.081425666809082" lon="30.012781620025635">
        <time>2026-04-25T10:10:40Z</time>
      </trkpt>
      <trkpt lat="59.081425666809082" lon="30.012717247009277">
        <time>2026-04-25T10:10:43Z</time>
      </trkpt>
      <trkpt lat="59.081404209136963" lon="30.012609958648682">
        <time>2026-04-25T10:10:45Z</time>
      </trkpt>
      <trkpt lat="59.081404209136963" lon="30.012588500976563">
        <time>2026-04-25T10:10:48Z</time>
      </trkpt>
      <trkpt lat="59.081404209136963" lon="30.012567043304443">
        <time>2026-04-25T10:10:50Z</time>
      </trkpt>
      <trkpt lat="59.081404209136963" lon="30.012567043304443">
        <time>2026-04-25T10:10:53Z</time>
      </trkpt>
      <trkpt lat="59.081404209136963" lon="30.012545585632324">
        <time>2026-04-25T10:10:55Z</time>
      </trkpt>
      <trkpt lat="59.081404209136963" lon="30.012524127960205">
        <time>2026-04-25T10:10:58Z</time>
      </trkpt>
      <trkpt lat="59.081404209136963" lon="30.012438297271729">
        <time>2026-04-25T10:11:00Z</time>
      </trkpt>
      <trkpt lat="59.081382751464844" lon="30.01239538192749">
        <time>2026-04-25T10:11:03Z</time>
      </trkpt>
      <trkpt lat="59.081382751464844" lon="30.012309551239014">
        <time>2026-04-25T10:11:05Z</time>
      </trkpt>
      <trkpt lat="59.081404209136963" lon="30.012266635894775">
        <time>2026-04-25T10:11:08Z</time>
      </trkpt>
      <trkpt lat="59.081425666809082" lon="30.012180805206299">
        <time>2026-04-25T10:11:10Z</time>
      </trkpt>
      <trkpt lat="59.081447124481201" lon="30.012180805206299">
        <time>2026-04-25T10:11:13Z</time>
      </trkpt>
      <trkpt lat="59.08146858215332" lon="30.012137889862061">
        <time>2026-04-25T10:11:15Z</time>
      </trkpt>
      <trkpt lat="59.08146858215332" lon="30.012116432189941">
        <time>2026-04-25T10:11:18Z</time>
      </trkpt>
      <trkpt lat="59.081490039825439" lon="30.012030601501465">
        <time>2026-04-25T10:11:20Z</time>
      </trkpt>
      <trkpt lat="59.081490039825439" lon="30.011966228485107">
        <time>2026-04-25T10:11:23Z</time>
      </trkpt>
      <trkpt lat="59.081490039825439" lon="30.01190185546875">
        <time>2026-04-25T10:11:25Z</time>
      </trkpt>
      <trkpt lat="59.081490039825439" lon="30.011858940124512">
        <time>2026-04-25T10:11:28Z</time>
      </trkpt>
      <trkpt lat="59.081490039825439" lon="30.011794567108154">
        <time>2026-04-25T10:11:30Z</time>
      </trkpt>
      <trkpt lat="59.08146858215332" lon="30.011751651763916">
        <time>2026-04-25T10:11:33Z</time>
      </trkpt>
      <trkpt lat="59.08146858215332" lon="30.011708736419678">
        <time>2026-04-25T10:11:35Z</time>
      </trkpt>
      <trkpt lat="59.081447124481201" lon="30.011708736419678">
        <time>2026-04-25T10:11:38Z</time>
      </trkpt>
      <trkpt lat="59.081447124481201" lon="30.011665821075439">
        <time>2026-04-25T10:11:40Z</time>
      </trkpt>
      <trkpt lat="59.081447124481201" lon="30.01164436340332">
        <time>2026-04-25T10:11:43Z</time>
      </trkpt>
      <trkpt lat="59.081404209136963" lon="30.01164436340332">
        <time>2026-04-25T10:11:45Z</time>
      </trkpt>
      <trkpt lat="59.081382751464844" lon="30.01164436340332">
        <time>2026-04-25T10:11:48Z</time>
      </trkpt>
      <trkpt lat="59.081318378448486" lon="30.01164436340332">
        <time>2026-04-25T10:11:50Z</time>
      </trkpt>
      <trkpt lat="59.081275463104248" lon="30.011622905731201">
        <time>2026-04-25T10:11:53Z</time>
      </trkpt>
      <trkpt lat="59.081254005432129" lon="30.01164436340332">
        <time>2026-04-25T10:11:55Z</time>
      </trkpt>
      <trkpt lat="59.081254005432129" lon="30.01164436340332">
        <time>2026-04-25T10:11:58Z</time>
      </trkpt>
      <trkpt lat="59.08123254776001" lon="30.01164436340332">
        <time>2026-04-25T10:12:00Z</time>
      </trkpt>
      <trkpt lat="59.08123254776001" lon="30.01164436340332">
        <time>2026-04-25T10:12:03Z</time>
      </trkpt>
      <trkpt lat="59.08123254776001" lon="30.01164436340332">
        <time>2026-04-25T10:12:05Z</time>
      </trkpt>
      <trkpt lat="59.081211090087891" lon="30.01164436340332">
        <time>2026-04-25T10:12:08Z</time>
      </trkpt>
      <trkpt lat="59.081189632415771" lon="30.011622905731201">
        <time>2026-04-25T10:12:10Z</time>
      </trkpt>
      <trkpt lat="59.081168174743652" lon="30.011622905731201">
        <time>2026-04-25T10:12:13Z</time>
      </trkpt>
      <trkpt lat="59.081125259399414" lon="30.011601448059082">
        <time>2026-04-25T10:12:15Z</time>
      </trkpt>
      <trkpt lat="59.081125259399414" lon="30.011601448059082">
        <time>2026-04-25T10:12:18Z</time>
      </trkpt>
      <trkpt lat="59.081125259399414" lon="30.011601448059082">
        <time>2026-04-25T10:12:20Z</time>
      </trkpt>
      <trkpt lat="59.081125259399414" lon="30.011579990386963">
        <time>2026-04-25T10:12:23Z</time>
      </trkpt>
      <trkpt lat="59.081103801727295" lon="30.011579990386963">
        <time>2026-04-25T10:12:25Z</time>
      </trkpt>
      <trkpt lat="59.081082344055176" lon="30.011579990386963">
        <time>2026-04-25T10:12:28Z</time>
      </trkpt>
      <trkpt lat="59.081039428710938" lon="30.011558532714844">
        <time>2026-04-25T10:12:30Z</time>
      </trkpt>
      <trkpt lat="59.080996513366699" lon="30.011558532714844">
        <time>2026-04-25T10:12:33Z</time>
      </trkpt>
      <trkpt lat="59.080953598022461" lon="30.011537075042725">
        <time>2026-04-25T10:12:35Z</time>
      </trkpt>
      <trkpt lat="59.080910682678223" lon="30.011537075042725">
        <time>2026-04-25T10:12:38Z</time>
      </trkpt>
      <trkpt lat="59.080867767333984" lon="30.011537075042725">
        <time>2026-04-25T10:12:40Z</time>
      </trkpt>
      <trkpt lat="59.080867767333984" lon="30.011537075042725">
        <time>2026-04-25T10:12:43Z</time>
      </trkpt>
      <trkpt lat="59.080846309661865" lon="30.011558532714844">
        <time>2026-04-25T10:12:45Z</time>
      </trkpt>
      <trkpt lat="59.080824851989746" lon="30.011537075042725">
        <time>2026-04-25T10:12:48Z</time>
      </trkpt>
      <trkpt lat="59.080803394317627" lon="30.011515617370605">
        <time>2026-04-25T10:12:50Z</time>
      </trkpt>
      <trkpt lat="59.080781936645508" lon="30.011494159698486">
        <time>2026-04-25T10:12:53Z</time>
      </trkpt>
      <trkpt lat="59.08073902130127" lon="30.011494159698486">
        <time>2026-04-25T10:12:55Z</time>
      </trkpt>
      <trkpt lat="59.08071756362915" lon="30.011537075042725">
        <time>2026-04-25T10:12:58Z</time>
      </trkpt>
      <trkpt lat="59.080696105957031" lon="30.011579990386963">
        <time>2026-04-25T10:13:00Z</time>
      </trkpt>
      <trkpt lat="59.080674648284912" lon="30.011622905731201">
        <time>2026-04-25T10:13:03Z</time>
      </trkpt>
      <trkpt lat="59.080631732940674" lon="30.011687278747559">
        <time>2026-04-25T10:13:05Z</time>
      </trkpt>
      <trkpt lat="59.080631732940674" lon="30.011665821075439">
        <time>2026-04-25T10:13:08Z</time>
      </trkpt>
      <trkpt lat="59.080631732940674" lon="30.01164436340332">
        <time>2026-04-25T10:13:10Z</time>
      </trkpt>
      <trkpt lat="59.080631732940674" lon="30.011665821075439">
        <time>2026-04-25T10:13:13Z</time>
      </trkpt>
      <trkpt lat="59.080631732940674" lon="30.011708736419678">
        <time>2026-04-25T10:13:15Z</time>
      </trkpt>
      <trkpt lat="59.080610275268555" lon="30.01164436340332">
        <time>2026-04-25T10:13:20Z</time>
      </trkpt>
      <trkpt lat="59.080588817596436" lon="30.011622905731201">
        <time>2026-04-25T10:13:23Z</time>
      </trkpt>
      <trkpt lat="59.080588817596436" lon="30.011601448059082">
        <time>2026-04-25T10:13:25Z</time>
      </trkpt>
      <trkpt lat="59.080588817596436" lon="30.011579990386963">
        <time>2026-04-25T10:13:28Z</time>
      </trkpt>
      <trkpt lat="59.080588817596436" lon="30.011579990386963">
        <time>2026-04-25T10:13:30Z</time>
      </trkpt>
      <trkpt lat="59.080610275268555" lon="30.011579990386963">
        <time>2026-04-25T10:13:33Z</time>
      </trkpt>
      <trkpt lat="59.080631732940674" lon="30.011622905731201">
        <time>2026-04-25T10:13:35Z</time>
      </trkpt>
      <trkpt lat="59.080674648284912" lon="30.011665821075439">
        <time>2026-04-25T10:13:38Z</time>
      </trkpt>
      <trkpt lat="59.080696105957031" lon="30.011687278747559">
        <time>2026-04-25T10:13:40Z</time>
      </trkpt>
      <trkpt lat="59.08073902130127" lon="30.011687278747559">
        <time>2026-04-25T10:13:43Z</time>
      </trkpt>
      <trkpt lat="59.080781936645508" lon="30.011730194091797">
        <time>2026-04-25T10:13:45Z</time>
      </trkpt>
      <trkpt lat="59.080803394317627" lon="30.011794567108154">
        <time>2026-04-25T10:13:48Z</time>
      </trkpt>
      <trkpt lat="59.080824851989746" lon="30.01190185546875">
        <time>2026-04-25T10:13:50Z</time>
      </trkpt>
      <trkpt lat="59.080824851989746" lon="30.011944770812988">
        <time>2026-04-25T10:13:53Z</time>
      </trkpt>
      <trkpt lat="59.080846309661865" lon="30.012030601501465">
        <time>2026-04-25T10:13:55Z</time>
      </trkpt>
      <trkpt lat="59.080846309661865" lon="30.012073516845703">
        <time>2026-04-25T10:13:58Z</time>
      </trkpt>
      <trkpt lat="59.080846309661865" lon="30.012116432189941">
        <time>2026-04-25T10:14:00Z</time>
      </trkpt>
      <trkpt lat="59.080867767333984" lon="30.012116432189941">
        <time>2026-04-25T10:14:03Z</time>
      </trkpt>
      <trkpt lat="59.080889225006104" lon="30.012137889862061">
        <time>2026-04-25T10:14:05Z</time>
      </trkpt>
      <trkpt lat="59.080910682678223" lon="30.012116432189941">
        <time>2026-04-25T10:14:08Z</time>
      </trkpt>
      <trkpt lat="59.08097505569458" lon="30.012073516845703">
        <time>2026-04-25T10:14:10Z</time>
      </trkpt>
      <trkpt lat="59.081017971038818" lon="30.012009143829346">
        <time>2026-04-25T10:14:13Z</time>
      </trkpt>
      <trkpt lat="59.081060886383057" lon="30.011880397796631">
        <time>2026-04-25T10:14:15Z</time>
      </trkpt>
      <trkpt lat="59.081082344055176" lon="30.011816024780273">
        <time>2026-04-25T10:14:18Z</time>
      </trkpt>
      <trkpt lat="59.081125259399414" lon="30.011687278747559">
        <time>2026-04-25T10:14:20Z</time>
      </trkpt>
      <trkpt lat="59.081125259399414" lon="30.011622905731201">
        <time>2026-04-25T10:14:23Z</time>
      </trkpt>
      <trkpt lat="59.081103801727295" lon="30.011494159698486">
        <time>2026-04-25T10:14:25Z</time>
      </trkpt>
      <trkpt lat="59.081082344055176" lon="30.01140832901001">
        <time>2026-04-25T10:14:28Z</time>
      </trkpt>
      <trkpt lat="59.081060886383057" lon="30.011322498321533">
        <time>2026-04-25T10:14:30Z</time>
      </trkpt>
      <trkpt lat="59.081082344055176" lon="30.011279582977295">
        <time>2026-04-25T10:14:33Z</time>
      </trkpt>
      <trkpt lat="59.081082344055176" lon="30.011236667633057">
        <time>2026-04-25T10:14:35Z</time>
      </trkpt>
      <trkpt lat="59.081060886383057" lon="30.011193752288818">
        <time>2026-04-25T10:14:38Z</time>
      </trkpt>
      <trkpt lat="59.081039428710938" lon="30.01115083694458">
        <time>2026-04-25T10:14:40Z</time>
      </trkpt>
      <trkpt lat="59.081017971038818" lon="30.011107921600342">
        <time>2026-04-25T10:14:43Z</time>
      </trkpt>
      <trkpt lat="59.080996513366699" lon="30.011043548583984">
        <time>2026-04-25T10:14:45Z</time>
      </trkpt>
      <trkpt lat="59.080996513366699" lon="30.011022090911865">
        <time>2026-04-25T10:14:48Z</time>
      </trkpt>
      <trkpt lat="59.08097505569458" lon="30.010979175567627">
        <time>2026-04-25T10:14:50Z</time>
      </trkpt>
      <trkpt lat="59.08097505569458" lon="30.010979175567627">
        <time>2026-04-25T10:14:53Z</time>
      </trkpt>
      <trkpt lat="59.08097505569458" lon="30.010957717895508">
        <time>2026-04-25T10:14:55Z</time>
      </trkpt>
      <trkpt lat="59.08097505569458" lon="30.010957717895508">
        <time>2026-04-25T10:14:58Z</time>
      </trkpt>
      <trkpt lat="59.08097505569458" lon="30.010957717895508">
        <time>2026-04-25T10:15:00Z</time>
      </trkpt>
      <trkpt lat="59.080953598022461" lon="30.010957717895508">
        <time>2026-04-25T10:15:03Z</time>
      </trkpt>
      <trkpt lat="59.080932140350342" lon="30.010936260223389">
        <time>2026-04-25T10:15:05Z</time>
      </trkpt>
      <trkpt lat="59.080932140350342" lon="30.010936260223389">
        <time>2026-04-25T10:15:08Z</time>
      </trkpt>
      <trkpt lat="59.080889225006104" lon="30.01091480255127">
        <time>2026-04-25T10:15:10Z</time>
      </trkpt>
      <trkpt lat="59.080867767333984" lon="30.01091480255127">
        <time>2026-04-25T10:15:13Z</time>
      </trkpt>
      <trkpt lat="59.080846309661865" lon="30.01089334487915">
        <time>2026-04-25T10:15:15Z</time>
      </trkpt>
      <trkpt lat="59.080803394317627" lon="30.01089334487915">
        <time>2026-04-25T10:15:18Z</time>
      </trkpt>
      <trkpt lat="59.080781936645508" lon="30.01089334487915">
        <time>2026-04-25T10:15:20Z</time>
      </trkpt>
      <trkpt lat="59.080781936645508" lon="30.010871887207031">
        <time>2026-04-25T10:15:23Z</time>
      </trkpt>
      <trkpt lat="59.080781936645508" lon="30.010850429534912">
        <time>2026-04-25T10:15:25Z</time>
      </trkpt>
      <trkpt lat="59.080781936645508" lon="30.010807514190674">
        <time>2026-04-25T10:15:28Z</time>
      </trkpt>
      <trkpt lat="59.08073902130127" lon="30.010721683502197">
        <time>2026-04-25T10:15:30Z</time>
      </trkpt>
      <trkpt lat="59.08071756362915" lon="30.010678768157959">
        <time>2026-04-25T10:15:33Z</time>
      </trkpt>
      <trkpt lat="59.08071756362915" lon="30.010635852813721">
        <time>2026-04-25T10:15:35Z</time>
      </trkpt>
      <trkpt lat="59.08073902130127" lon="30.010592937469482">
        <time>2026-04-25T10:15:38Z</time>
      </trkpt>
      <trkpt lat="59.08073902130127" lon="30.010550022125244">
        <time>2026-04-25T10:15:40Z</time>
      </trkpt>
      <trkpt lat="59.08073902130127" lon="30.010528564453125">
        <time>2026-04-25T10:15:43Z</time>
      </trkpt>
      <trkpt lat="59.080781936645508" lon="30.010528564453125">
        <time>2026-04-25T10:15:45Z</time>
      </trkpt>
      <trkpt lat="59.080781936645508" lon="30.010507106781006">
        <time>2026-04-25T10:15:48Z</time>
      </trkpt>
      <trkpt lat="59.080760478973389" lon="30.010442733764648">
        <time>2026-04-25T10:15:50Z</time>
      </trkpt>
      <trkpt lat="59.080760478973389" lon="30.010356903076172">
        <time>2026-04-25T10:15:53Z</time>
      </trkpt>
      <trkpt lat="59.08073902130127" lon="30.010271072387695">
        <time>2026-04-25T10:15:55Z</time>
      </trkpt>
      <trkpt lat="59.08073902130127" lon="30.010228157043457">
        <time>2026-04-25T10:15:58Z</time>
      </trkpt>
      <trkpt lat="59.08073902130127" lon="30.0101637840271">
        <time>2026-04-25T10:16:00Z</time>
      </trkpt>
      <trkpt lat="59.08071756362915" lon="30.01014232635498">
        <time>2026-04-25T10:16:03Z</time>
      </trkpt>
      <trkpt lat="59.080696105957031" lon="30.010120868682861">
        <time>2026-04-25T10:16:05Z</time>
      </trkpt>
      <trkpt lat="59.080674648284912" lon="30.010099411010742">
        <time>2026-04-25T10:16:08Z</time>
      </trkpt>
      <trkpt lat="59.080674648284912" lon="30.010077953338623">
        <time>2026-04-25T10:16:10Z</time>
      </trkpt>
      <trkpt lat="59.080653190612793" lon="30.010077953338623">
        <time>2026-04-25T10:16:13Z</time>
      </trkpt>
      <trkpt lat="59.080653190612793" lon="30.010056495666504">
        <time>2026-04-25T10:16:15Z</time>
      </trkpt>
      <trkpt lat="59.080653190612793" lon="30.010035037994385">
        <time>2026-04-25T10:16:18Z</time>
      </trkpt>
      <trkpt lat="59.080631732940674" lon="30.009992122650146">
        <time>2026-04-25T10:16:20Z</time>
      </trkpt>
      <trkpt lat="59.080610275268555" lon="30.009927749633789">
        <time>2026-04-25T10:16:23Z</time>
      </trkpt>
      <trkpt lat="59.080588817596436" lon="30.009841918945313">
        <time>2026-04-25T10:16:25Z</time>
      </trkpt>
      <trkpt lat="59.080567359924316" lon="30.009799003601074">
        <time>2026-04-25T10:16:28Z</time>
      </trkpt>
      <trkpt lat="59.080502986907959" lon="30.009713172912598">
        <time>2026-04-25T10:16:30Z</time>
      </trkpt>
      <trkpt lat="59.080502986907959" lon="30.009670257568359">
        <time>2026-04-25T10:16:33Z</time>
      </trkpt>
      <trkpt lat="59.080502986907959" lon="30.009605884552002">
        <time>2026-04-25T10:16:35Z</time>
      </trkpt>
      <trkpt lat="59.08048152923584" lon="30.009562969207764">
        <time>2026-04-25T10:16:38Z</time>
      </trkpt>
      <trkpt lat="59.080460071563721" lon="30.009562969207764">
        <time>2026-04-25T10:16:40Z</time>
      </trkpt>
      <trkpt lat="59.080460071563721" lon="30.009562969207764">
        <time>2026-04-25T10:16:43Z</time>
      </trkpt>
      <trkpt lat="59.080460071563721" lon="30.009584426879883">
        <time>2026-04-25T10:16:45Z</time>
      </trkpt>
      <trkpt lat="59.080460071563721" lon="30.009562969207764">
        <time>2026-04-25T10:16:48Z</time>
      </trkpt>
      <trkpt lat="59.080460071563721" lon="30.009562969207764">
        <time>2026-04-25T10:16:50Z</time>
      </trkpt>
      <trkpt lat="59.080460071563721" lon="30.009541511535645">
        <time>2026-04-25T10:16:53Z</time>
      </trkpt>
      <trkpt lat="59.08048152923584" lon="30.009520053863525">
        <time>2026-04-25T10:16:55Z</time>
      </trkpt>
      <trkpt lat="59.080502986907959" lon="30.009520053863525">
        <time>2026-04-25T10:16:58Z</time>
      </trkpt>
      <trkpt lat="59.080524444580078" lon="30.009584426879883">
        <time>2026-04-25T10:17:00Z</time>
      </trkpt>
      <trkpt lat="59.080524444580078" lon="30.009605884552002">
        <time>2026-04-25T10:17:03Z</time>
      </trkpt>
      <trkpt lat="59.080502986907959" lon="30.009670257568359">
        <time>2026-04-25T10:17:05Z</time>
      </trkpt>
      <trkpt lat="59.08048152923584" lon="30.009713172912598">
        <time>2026-04-25T10:17:08Z</time>
      </trkpt>
      <trkpt lat="59.080460071563721" lon="30.009777545928955">
        <time>2026-04-25T10:17:10Z</time>
      </trkpt>
      <trkpt lat="59.080460071563721" lon="30.009799003601074">
        <time>2026-04-25T10:17:13Z</time>
      </trkpt>
      <trkpt lat="59.080395698547363" lon="30.009841918945313">
        <time>2026-04-25T10:17:15Z</time>
      </trkpt>
      <trkpt lat="59.080374240875244" lon="30.009884834289551">
        <time>2026-04-25T10:17:18Z</time>
      </trkpt>
      <trkpt lat="59.080331325531006" lon="30.010013580322266">
        <time>2026-04-25T10:17:20Z</time>
      </trkpt>
      <trkpt lat="59.080309867858887" lon="30.010120868682861">
        <time>2026-04-25T10:17:23Z</time>
      </trkpt>
      <trkpt lat="59.080309867858887" lon="30.010228157043457">
        <time>2026-04-25T10:17:25Z</time>
      </trkpt>
      <trkpt lat="59.080331325531006" lon="30.010271072387695">
        <time>2026-04-25T10:17:28Z</time>
      </trkpt>
      <trkpt lat="59.080309867858887" lon="30.010292530059814">
        <time>2026-04-25T10:17:30Z</time>
      </trkpt>
      <trkpt lat="59.080331325531006" lon="30.010335445404053">
        <time>2026-04-25T10:17:33Z</time>
      </trkpt>
      <trkpt lat="59.080352783203125" lon="30.010421276092529">
        <time>2026-04-25T10:17:35Z</time>
      </trkpt>
      <trkpt lat="59.080374240875244" lon="30.010442733764648">
        <time>2026-04-25T10:17:38Z</time>
      </trkpt>
      <trkpt lat="59.080374240875244" lon="30.010442733764648">
        <time>2026-04-25T10:17:40Z</time>
      </trkpt>
      <trkpt lat="59.080395698547363" lon="30.010442733764648">
        <time>2026-04-25T10:17:43Z</time>
      </trkpt>
      <trkpt lat="59.080395698547363" lon="30.010464191436768">
        <time>2026-04-25T10:17:45Z</time>
      </trkpt>
      <trkpt lat="59.080395698547363" lon="30.010464191436768">
        <time>2026-04-25T10:17:48Z</time>
      </trkpt>
      <trkpt lat="59.080395698547363" lon="30.010464191436768">
        <time>2026-04-25T10:17:50Z</time>
      </trkpt>
      <trkpt lat="59.080395698547363" lon="30.010464191436768">
        <time>2026-04-25T10:17:53Z</time>
      </trkpt>
      <trkpt lat="59.080395698547363" lon="30.010464191436768">
        <time>2026-04-25T10:17:55Z</time>
      </trkpt>
      <trkpt lat="59.080395698547363" lon="30.010485649108887">
        <time>2026-04-25T10:17:58Z</time>
      </trkpt>
      <trkpt lat="59.080374240875244" lon="30.010507106781006">
        <time>2026-04-25T10:18:00Z</time>
      </trkpt>
      <trkpt lat="59.080374240875244" lon="30.010507106781006">
        <time>2026-04-25T10:18:03Z</time>
      </trkpt>
      <trkpt lat="59.080374240875244" lon="30.010507106781006">
        <time>2026-04-25T10:18:05Z</time>
      </trkpt>
      <trkpt lat="59.080374240875244" lon="30.010485649108887">
        <time>2026-04-25T10:18:08Z</time>
      </trkpt>
      <trkpt lat="59.080438613891602" lon="30.010442733764648">
        <time>2026-04-25T10:18:10Z</time>
      </trkpt>
      <trkpt lat="59.080460071563721" lon="30.010421276092529">
        <time>2026-04-25T10:18:13Z</time>
      </trkpt>
      <trkpt lat="59.080502986907959" lon="30.010442733764648">
        <time>2026-04-25T10:18:15Z</time>
      </trkpt>
      <trkpt lat="59.080502986907959" lon="30.010464191436768">
        <time>2026-04-25T10:18:18Z</time>
      </trkpt>
      <trkpt lat="59.080502986907959" lon="30.010485649108887">
        <time>2026-04-25T10:18:20Z</time>
      </trkpt>
      <trkpt lat="59.080502986907959" lon="30.010485649108887">
        <time>2026-04-25T10:18:23Z</time>
      </trkpt>
      <trkpt lat="59.080502986907959" lon="30.010485649108887">
        <time>2026-04-25T10:18:25Z</time>
      </trkpt>
      <trkpt lat="59.080524444580078" lon="30.010528564453125">
        <time>2026-04-25T10:18:28Z</time>
      </trkpt>
      <trkpt lat="59.080502986907959" lon="30.010678768157959">
        <time>2026-04-25T10:18:30Z</time>
      </trkpt>
      <trkpt lat="59.080502986907959" lon="30.010807514190674">
        <time>2026-04-25T10:18:33Z</time>
      </trkpt>
      <trkpt lat="59.080545902252197" lon="30.010957717895508">
        <time>2026-04-25T10:18:35Z</time>
      </trkpt>
      <trkpt lat="59.080567359924316" lon="30.011086463928223">
        <time>2026-04-25T10:18:38Z</time>
      </trkpt>
      <trkpt lat="59.080631732940674" lon="30.011279582977295">
        <time>2026-04-25T10:18:40Z</time>
      </trkpt>
      <trkpt lat="59.080674648284912" lon="30.011386871337891">
        <time>2026-04-25T10:18:43Z</time>
      </trkpt>
      <trkpt lat="59.08071756362915" lon="30.011579990386963">
        <time>2026-04-25T10:18:45Z</time>
      </trkpt>
      <trkpt lat="59.08073902130127" lon="30.011708736419678">
        <time>2026-04-25T10:18:48Z</time>
      </trkpt>
      <trkpt lat="59.080760478973389" lon="30.011816024780273">
        <time>2026-04-25T10:18:50Z</time>
      </trkpt>
      <trkpt lat="59.080781936645508" lon="30.011880397796631">
        <time>2026-04-25T10:18:53Z</time>
      </trkpt>
      <trkpt lat="59.080803394317627" lon="30.01190185546875">
        <time>2026-04-25T10:18:55Z</time>
      </trkpt>
      <trkpt lat="59.080803394317627" lon="30.01190185546875">
        <time>2026-04-25T10:18:58Z</time>
      </trkpt>
      <trkpt lat="59.080803394317627" lon="30.011966228485107">
        <time>2026-04-25T10:19:00Z</time>
      </trkpt>
      <trkpt lat="59.080803394317627" lon="30.012052059173584">
        <time>2026-04-25T10:19:03Z</time>
      </trkpt>
      <trkpt lat="59.080824851989746" lon="30.012180805206299">
        <time>2026-04-25T10:19:05Z</time>
      </trkpt>
      <trkpt lat="59.080846309661865" lon="30.012288093566895">
        <time>2026-04-25T10:19:08Z</time>
      </trkpt>
      <trkpt lat="59.080867767333984" lon="30.012352466583252">
        <time>2026-04-25T10:19:10Z</time>
      </trkpt>
      <trkpt lat="59.080889225006104" lon="30.01239538192749">
        <time>2026-04-25T10:19:13Z</time>
      </trkpt>
      <trkpt lat="59.080910682678223" lon="30.012438297271729">
        <time>2026-04-25T10:19:15Z</time>
      </trkpt>
      <trkpt lat="59.080910682678223" lon="30.012481212615967">
        <time>2026-04-25T10:19:18Z</time>
      </trkpt>
      <trkpt lat="59.080953598022461" lon="30.012567043304443">
        <time>2026-04-25T10:19:20Z</time>
      </trkpt>
      <trkpt lat="59.08097505569458" lon="30.012588500976563">
        <time>2026-04-25T10:19:23Z</time>
      </trkpt>
      <trkpt lat="59.08097505569458" lon="30.012631416320801">
        <time>2026-04-25T10:19:25Z</time>
      </trkpt>
      <trkpt lat="59.08097505569458" lon="30.012674331665039">
        <time>2026-04-25T10:19:28Z</time>
      </trkpt>
      <trkpt lat="59.080996513366699" lon="30.012738704681396">
        <time>2026-04-25T10:19:30Z</time>
      </trkpt>
      <trkpt lat="59.081017971038818" lon="30.012738704681396">
        <time>2026-04-25T10:19:33Z</time>
      </trkpt>
      <trkpt lat="59.081017971038818" lon="30.012781620025635">
        <time>2026-04-25T10:19:35Z</time>
      </trkpt>
      <trkpt lat="59.081017971038818" lon="30.012781620025635">
        <time>2026-04-25T10:19:38Z</time>
      </trkpt>
      <trkpt lat="59.080996513366699" lon="30.012845993041992">
        <time>2026-04-25T10:19:40Z</time>
      </trkpt>
      <trkpt lat="59.080996513366699" lon="30.01291036605835">
        <time>2026-04-25T10:19:43Z</time>
      </trkpt>
      <trkpt lat="59.080996513366699" lon="30.012931823730469">
        <time>2026-04-25T10:19:45Z</time>
      </trkpt>
      <trkpt lat="59.080996513366699" lon="30.012953281402588">
        <time>2026-04-25T10:19:48Z</time>
      </trkpt>
      <trkpt lat="59.080996513366699" lon="30.012974739074707">
        <time>2026-04-25T10:19:50Z</time>
      </trkpt>
      <trkpt lat="59.080996513366699" lon="30.012996196746826">
        <time>2026-04-25T10:19:53Z</time>
      </trkpt>
      <trkpt lat="59.081017971038818" lon="30.012974739074707">
        <time>2026-04-25T10:19:55Z</time>
      </trkpt>
      <trkpt lat="59.081017971038818" lon="30.012974739074707">
        <time>2026-04-25T10:19:58Z</time>
      </trkpt>
      <trkpt lat="59.081017971038818" lon="30.012953281402588">
        <time>2026-04-25T10:20:00Z</time>
      </trkpt>
      <trkpt lat="59.081039428710938" lon="30.012953281402588">
        <time>2026-04-25T10:20:03Z</time>
      </trkpt>
      <trkpt lat="59.081039428710938" lon="30.012996196746826">
        <time>2026-04-25T10:20:05Z</time>
      </trkpt>
      <trkpt lat="59.081039428710938" lon="30.013017654418945">
        <time>2026-04-25T10:20:08Z</time>
      </trkpt>
      <trkpt lat="59.081039428710938" lon="30.013039112091064">
        <time>2026-04-25T10:20:10Z</time>
      </trkpt>
      <trkpt lat="59.081039428710938" lon="30.013039112091064">
        <time>2026-04-25T10:20:13Z</time>
      </trkpt>
      <trkpt lat="59.081060886383057" lon="30.013039112091064">
        <time>2026-04-25T10:20:15Z</time>
      </trkpt>
      <trkpt lat="59.081060886383057" lon="30.013060569763184">
        <time>2026-04-25T10:20:18Z</time>
      </trkpt>
      <trkpt lat="59.081060886383057" lon="30.013039112091064">
        <time>2026-04-25T10:20:20Z</time>
      </trkpt>
      <trkpt lat="59.081060886383057" lon="30.013060569763184">
        <time>2026-04-25T10:20:23Z</time>
      </trkpt>
      <trkpt lat="59.081039428710938" lon="30.013060569763184">
        <time>2026-04-25T10:20:25Z</time>
      </trkpt>
      <trkpt lat="59.081039428710938" lon="30.013039112091064">
        <time>2026-04-25T10:20:28Z</time>
      </trkpt>
      <trkpt lat="59.081039428710938" lon="30.012996196746826">
        <time>2026-04-25T10:20:30Z</time>
      </trkpt>
      <trkpt lat="59.081017971038818" lon="30.012931823730469">
        <time>2026-04-25T10:20:33Z</time>
      </trkpt>
      <trkpt lat="59.08097505569458" lon="30.01291036605835">
        <time>2026-04-25T10:20:35Z</time>
      </trkpt>
      <trkpt lat="59.080953598022461" lon="30.012931823730469">
        <time>2026-04-25T10:20:38Z</time>
      </trkpt>
      <trkpt lat="59.080910682678223" lon="30.012996196746826">
        <time>2026-04-25T10:20:40Z</time>
      </trkpt>
      <trkpt lat="59.080867767333984" lon="30.013039112091064">
        <time>2026-04-25T10:20:43Z</time>
      </trkpt>
      <trkpt lat="59.080867767333984" lon="30.013082027435303">
        <time>2026-04-25T10:20:45Z</time>
      </trkpt>
      <trkpt lat="59.080846309661865" lon="30.013103485107422">
        <time>2026-04-25T10:20:48Z</time>
      </trkpt>
      <trkpt lat="59.080824851989746" lon="30.013103485107422">
        <time>2026-04-25T10:20:50Z</time>
      </trkpt>
      <trkpt lat="59.080803394317627" lon="30.013082027435303">
        <time>2026-04-25T10:20:53Z</time>
      </trkpt>
      <trkpt lat="59.080760478973389" lon="30.013017654418945">
        <time>2026-04-25T10:20:55Z</time>
      </trkpt>
      <trkpt lat="59.080760478973389" lon="30.012953281402588">
        <time>2026-04-25T10:20:58Z</time>
      </trkpt>
      <trkpt lat="59.08073902130127" lon="30.012845993041992">
        <time>2026-04-25T10:21:00Z</time>
      </trkpt>
      <trkpt lat="59.08073902130127" lon="30.012781620025635">
        <time>2026-04-25T10:21:03Z</time>
      </trkpt>
      <trkpt lat="59.08073902130127" lon="30.012738704681396">
        <time>2026-04-25T10:21:05Z</time>
      </trkpt>
      <trkpt lat="59.08071756362915" lon="30.012674331665039">
        <time>2026-04-25T10:21:08Z</time>
      </trkpt>
      <trkpt lat="59.080696105957031" lon="30.012631416320801">
        <time>2026-04-25T10:21:10Z</time>
      </trkpt>
      <trkpt lat="59.080674648284912" lon="30.012609958648682">
        <time>2026-04-25T10:21:13Z</time>
      </trkpt>
      <trkpt lat="59.080653190612793" lon="30.012609958648682">
        <time>2026-04-25T10:21:18Z</time>
      </trkpt>
      <trkpt lat="59.080674648284912" lon="30.012567043304443">
        <time>2026-04-25T10:21:20Z</time>
      </trkpt>
      <trkpt lat="59.080696105957031" lon="30.012567043304443">
        <time>2026-04-25T10:21:23Z</time>
      </trkpt>
      <trkpt lat="59.08071756362915" lon="30.012588500976563">
        <time>2026-04-25T10:21:25Z</time>
      </trkpt>
      <trkpt lat="59.08071756362915" lon="30.012609958648682">
        <time>2026-04-25T10:21:28Z</time>
      </trkpt>
      <trkpt lat="59.08073902130127" lon="30.01265287399292">
        <time>2026-04-25T10:21:30Z</time>
      </trkpt>
      <trkpt lat="59.080760478973389" lon="30.01265287399292">
        <time>2026-04-25T10:21:33Z</time>
      </trkpt>
      <trkpt lat="59.080824851989746" lon="30.012674331665039">
        <time>2026-04-25T10:21:35Z</time>
      </trkpt>
      <trkpt lat="59.080867767333984" lon="30.012695789337158">
        <time>2026-04-25T10:21:38Z</time>
      </trkpt>
      <trkpt lat="59.080932140350342" lon="30.012738704681396">
        <time>2026-04-25T10:21:40Z</time>
      </trkpt>
      <trkpt lat="59.080953598022461" lon="30.012760162353516">
        <time>2026-04-25T10:21:43Z</time>
      </trkpt>
      <trkpt lat="59.080953598022461" lon="30.012824535369873">
        <time>2026-04-25T10:21:45Z</time>
      </trkpt>
      <trkpt lat="59.080953598022461" lon="30.012931823730469">
        <time>2026-04-25T10:21:48Z</time>
      </trkpt>
      <trkpt lat="59.080932140350342" lon="30.013124942779541">
        <time>2026-04-25T10:21:50Z</time>
      </trkpt>
      <trkpt lat="59.080910682678223" lon="30.013232231140137">
        <time>2026-04-25T10:21:53Z</time>
      </trkpt>
      <trkpt lat="59.080910682678223" lon="30.013382434844971">
        <time>2026-04-25T10:21:55Z</time>
      </trkpt>
      <trkpt lat="59.080910682678223" lon="30.013425350189209">
        <time>2026-04-25T10:21:58Z</time>
      </trkpt>
      <trkpt lat="59.080910682678223" lon="30.013468265533447">
        <time>2026-04-25T10:22:00Z</time>
      </trkpt>
      <trkpt lat="59.080889225006104" lon="30.013468265533447">
        <time>2026-04-25T10:22:03Z</time>
      </trkpt>
      <trkpt lat="59.080910682678223" lon="30.013554096221924">
        <time>2026-04-25T10:22:05Z</time>
      </trkpt>
      <trkpt lat="59.080932140350342" lon="30.013618469238281">
        <time>2026-04-25T10:22:08Z</time>
      </trkpt>
      <trkpt lat="59.080996513366699" lon="30.013554096221924">
        <time>2026-04-25T10:22:10Z</time>
      </trkpt>
      <trkpt lat="59.081039428710938" lon="30.013489723205566">
        <time>2026-04-25T10:22:13Z</time>
      </trkpt>
      <trkpt lat="59.081060886383057" lon="30.013360977172852">
        <time>2026-04-25T10:22:15Z</time>
      </trkpt>
      <trkpt lat="59.081060886383057" lon="30.013275146484375">
        <time>2026-04-25T10:22:18Z</time>
      </trkpt>
      <trkpt lat="59.081039428710938" lon="30.013167858123779">
        <time>2026-04-25T10:22:20Z</time>
      </trkpt>
      <trkpt lat="59.081017971038818" lon="30.013082027435303">
        <time>2026-04-25T10:22:23Z</time>
      </trkpt>
      <trkpt lat="59.080953598022461" lon="30.013039112091064">
        <time>2026-04-25T10:22:25Z</time>
      </trkpt>
      <trkpt lat="59.080910682678223" lon="30.013082027435303">
        <time>2026-04-25T10:22:28Z</time>
      </trkpt>
      <trkpt lat="59.080824851989746" lon="30.01314640045166">
        <time>2026-04-25T10:22:30Z</time>
      </trkpt>
      <trkpt lat="59.080781936645508" lon="30.013124942779541">
        <time>2026-04-25T10:22:33Z</time>
      </trkpt>
      <trkpt lat="59.08071756362915" lon="30.013082027435303">
        <time>2026-04-25T10:22:35Z</time>
      </trkpt>
      <trkpt lat="59.080674648284912" lon="30.013082027435303">
        <time>2026-04-25T10:22:38Z</time>
      </trkpt>
      <trkpt lat="59.080653190612793" lon="30.013060569763184">
        <time>2026-04-25T10:22:40Z</time>
      </trkpt>
      <trkpt lat="59.080631732940674" lon="30.013082027435303">
        <time>2026-04-25T10:22:43Z</time>
      </trkpt>
      <trkpt lat="59.080631732940674" lon="30.013082027435303">
        <time>2026-04-25T10:22:45Z</time>
      </trkpt>
      <trkpt lat="59.080610275268555" lon="30.013103485107422">
        <time>2026-04-25T10:22:48Z</time>
      </trkpt>
      <trkpt lat="59.080588817596436" lon="30.013167858123779">
        <time>2026-04-25T10:22:50Z</time>
      </trkpt>
      <trkpt lat="59.080588817596436" lon="30.013167858123779">
        <time>2026-04-25T10:22:53Z</time>
      </trkpt>
      <trkpt lat="59.080588817596436" lon="30.013167858123779">
        <time>2026-04-25T10:22:55Z</time>
      </trkpt>
      <trkpt lat="59.080588817596436" lon="30.013167858123779">
        <time>2026-04-25T10:22:58Z</time>
      </trkpt>
      <trkpt lat="59.080567359924316" lon="30.01314640045166">
        <time>2026-04-25T10:23:00Z</time>
      </trkpt>
      <trkpt lat="59.080545902252197" lon="30.01314640045166">
        <time>2026-04-25T10:23:03Z</time>
      </trkpt>
      <trkpt lat="59.080545902252197" lon="30.013124942779541">
        <time>2026-04-25T10:23:05Z</time>
      </trkpt>
      <trkpt lat="59.080545902252197" lon="30.013124942779541">
        <time>2026-04-25T10:23:08Z</time>
      </trkpt>
      <trkpt lat="59.080545902252197" lon="30.013082027435303">
        <time>2026-04-25T10:23:10Z</time>
      </trkpt>
      <trkpt lat="59.080545902252197" lon="30.013039112091064">
        <time>2026-04-25T10:23:13Z</time>
      </trkpt>
      <trkpt lat="59.080545902252197" lon="30.012974739074707">
        <time>2026-04-25T10:23:15Z</time>
      </trkpt>
      <trkpt lat="59.080545902252197" lon="30.012953281402588">
        <time>2026-04-25T10:23:18Z</time>
      </trkpt>
      <trkpt lat="59.080545902252197" lon="30.012931823730469">
        <time>2026-04-25T10:23:20Z</time>
      </trkpt>
      <trkpt lat="59.080545902252197" lon="30.012931823730469">
        <time>2026-04-25T10:23:23Z</time>
      </trkpt>
      <trkpt lat="59.080524444580078" lon="30.01288890838623">
        <time>2026-04-25T10:23:25Z</time>
      </trkpt>
      <trkpt lat="59.080524444580078" lon="30.012845993041992">
        <time>2026-04-25T10:23:28Z</time>
      </trkpt>
      <trkpt lat="59.080502986907959" lon="30.012803077697754">
        <time>2026-04-25T10:23:30Z</time>
      </trkpt>
      <trkpt lat="59.08048152923584" lon="30.012781620025635">
        <time>2026-04-25T10:23:33Z</time>
      </trkpt>
      <trkpt lat="59.080438613891602" lon="30.012738704681396">
        <time>2026-04-25T10:23:35Z</time>
      </trkpt>
      <trkpt lat="59.080417156219482" lon="30.012717247009277">
        <time>2026-04-25T10:23:38Z</time>
      </trkpt>
      <trkpt lat="59.080395698547363" lon="30.012674331665039">
        <time>2026-04-25T10:23:40Z</time>
      </trkpt>
      <trkpt lat="59.080374240875244" lon="30.012609958648682">
        <time>2026-04-25T10:23:43Z</time>
      </trkpt>
      <trkpt lat="59.080331325531006" lon="30.012567043304443">
        <time>2026-04-25T10:23:45Z</time>
      </trkpt>
      <trkpt lat="59.080288410186768" lon="30.012567043304443">
        <time>2026-04-25T10:23:48Z</time>
      </trkpt>
      <trkpt lat="59.080245494842529" lon="30.012459754943848">
        <time>2026-04-25T10:23:50Z</time>
      </trkpt>
      <trkpt lat="59.08022403717041" lon="30.01239538192749">
        <time>2026-04-25T10:23:53Z</time>
      </trkpt>
      <trkpt lat="59.08022403717041" lon="30.01239538192749">
        <time>2026-04-25T10:23:55Z</time>
      </trkpt>
      <trkpt lat="59.080245494842529" lon="30.012373924255371">
        <time>2026-04-25T10:23:58Z</time>
      </trkpt>
      <trkpt lat="59.080266952514648" lon="30.012373924255371">
        <time>2026-04-25T10:24:00Z</time>
      </trkpt>
      <trkpt lat="59.080288410186768" lon="30.012352466583252">
        <time>2026-04-25T10:24:03Z</time>
      </trkpt>
      <trkpt lat="59.080331325531006" lon="30.012352466583252">
        <time>2026-04-25T10:24:05Z</time>
      </trkpt>
      <trkpt lat="59.080352783203125" lon="30.012331008911133">
        <time>2026-04-25T10:24:08Z</time>
      </trkpt>
      <trkpt lat="59.080374240875244" lon="30.012288093566895">
        <time>2026-04-25T10:24:10Z</time>
      </trkpt>
      <trkpt lat="59.080374240875244" lon="30.012266635894775">
        <time>2026-04-25T10:24:13Z</time>
      </trkpt>
      <trkpt lat="59.080374240875244" lon="30.012202262878418">
        <time>2026-04-25T10:24:15Z</time>
      </trkpt>
      <trkpt lat="59.080374240875244" lon="30.012180805206299">
        <time>2026-04-25T10:24:18Z</time>
      </trkpt>
      <trkpt lat="59.080374240875244" lon="30.012094974517822">
        <time>2026-04-25T10:24:20Z</time>
      </trkpt>
      <trkpt lat="59.080374240875244" lon="30.012030601501465">
        <time>2026-04-25T10:24:23Z</time>
      </trkpt>
      <trkpt lat="59.080438613891602" lon="30.011923313140869">
        <time>2026-04-25T10:24:25Z</time>
      </trkpt>
      <trkpt lat="59.08048152923584" lon="30.011858940124512">
        <time>2026-04-25T10:24:28Z</time>
      </trkpt>
      <trkpt lat="59.080502986907959" lon="30.011794567108154">
        <time>2026-04-25T10:24:30Z</time>
      </trkpt>
      <trkpt lat="59.080502986907959" lon="30.011730194091797">
        <time>2026-04-25T10:24:33Z</time>
      </trkpt>
      <trkpt lat="59.080502986907959" lon="30.011665821075439">
        <time>2026-04-25T10:24:35Z</time>
      </trkpt>
      <trkpt lat="59.080502986907959" lon="30.011622905731201">
        <time>2026-04-25T10:24:38Z</time>
      </trkpt>
      <trkpt lat="59.08048152923584" lon="30.011537075042725">
        <time>2026-04-25T10:24:40Z</time>
      </trkpt>
      <trkpt lat="59.08048152923584" lon="30.011515617370605">
        <time>2026-04-25T10:24:43Z</time>
      </trkpt>
      <trkpt lat="59.080460071563721" lon="30.011494159698486">
        <time>2026-04-25T10:24:45Z</time>
      </trkpt>
      <trkpt lat="59.080438613891602" lon="30.011472702026367">
        <time>2026-04-25T10:24:48Z</time>
      </trkpt>
      <trkpt lat="59.080417156219482" lon="30.011429786682129">
        <time>2026-04-25T10:24:50Z</time>
      </trkpt>
      <trkpt lat="59.080395698547363" lon="30.011365413665771">
        <time>2026-04-25T10:24:53Z</time>
      </trkpt>
      <trkpt lat="59.080374240875244" lon="30.011279582977295">
        <time>2026-04-25T10:24:55Z</time>
      </trkpt>
      <trkpt lat="59.080352783203125" lon="30.011215209960938">
        <time>2026-04-25T10:24:58Z</time>
      </trkpt>
      <trkpt lat="59.080309867858887" lon="30.011129379272461">
        <time>2026-04-25T10:25:00Z</time>
      </trkpt>
      <trkpt lat="59.080288410186768" lon="30.011086463928223">
        <time>2026-04-25T10:25:03Z</time>
      </trkpt>
      <trkpt lat="59.080266952514648" lon="30.011129379272461">
        <time>2026-04-25T10:25:05Z</time>
      </trkpt>
      <trkpt lat="59.080245494842529" lon="30.011129379272461">
        <time>2026-04-25T10:25:08Z</time>
      </trkpt>
      <trkpt lat="59.080202579498291" lon="30.011129379272461">
        <time>2026-04-25T10:25:10Z</time>
      </trkpt>
      <trkpt lat="59.080202579498291" lon="30.01115083694458">
        <time>2026-04-25T10:25:13Z</time>
      </trkpt>
      <trkpt lat="59.080159664154053" lon="30.011172294616699">
        <time>2026-04-25T10:25:15Z</time>
      </trkpt>
      <trkpt lat="59.080138206481934" lon="30.011193752288818">
        <time>2026-04-25T10:25:18Z</time>
      </trkpt>
      <trkpt lat="59.080116748809814" lon="30.011215209960938">
        <time>2026-04-25T10:25:20Z</time>
      </trkpt>
      <trkpt lat="59.080116748809814" lon="30.011258125305176">
        <time>2026-04-25T10:25:23Z</time>
      </trkpt>
      <trkpt lat="59.080073833465576" lon="30.011301040649414">
        <time>2026-04-25T10:25:25Z</time>
      </trkpt>
      <trkpt lat="59.080052375793457" lon="30.011322498321533">
        <time>2026-04-25T10:25:28Z</time>
      </trkpt>
      <trkpt lat="59.080009460449219" lon="30.011365413665771">
        <time>2026-04-25T10:25:30Z</time>
      </trkpt>
      <trkpt lat="59.07996654510498" lon="30.011386871337891">
        <time>2026-04-25T10:25:33Z</time>
      </trkpt>
      <trkpt lat="59.07996654510498" lon="30.011386871337891">
        <time>2026-04-25T10:25:35Z</time>
      </trkpt>
      <trkpt lat="59.07996654510498" lon="30.01140832901001">
        <time>2026-04-25T10:25:38Z</time>
      </trkpt>
      <trkpt lat="59.07996654510498" lon="30.011472702026367">
        <time>2026-04-25T10:25:40Z</time>
      </trkpt>
      <trkpt lat="59.0799880027771" lon="30.011537075042725">
        <time>2026-04-25T10:25:43Z</time>
      </trkpt>
      <trkpt lat="59.080009460449219" lon="30.011622905731201">
        <time>2026-04-25T10:25:45Z</time>
      </trkpt>
      <trkpt lat="59.080030918121338" lon="30.01164436340332">
        <time>2026-04-25T10:25:48Z</time>
      </trkpt>
      <trkpt lat="59.080073833465576" lon="30.011708736419678">
        <time>2026-04-25T10:25:50Z</time>
      </trkpt>
      <trkpt lat="59.080073833465576" lon="30.011730194091797">
        <time>2026-04-25T10:25:53Z</time>
      </trkpt>
      <trkpt lat="59.080095291137695" lon="30.011751651763916">
        <time>2026-04-25T10:25:55Z</time>
      </trkpt>
      <trkpt lat="59.080116748809814" lon="30.011751651763916">
        <time>2026-04-25T10:25:58Z</time>
      </trkpt>
      <trkpt lat="59.080116748809814" lon="30.011730194091797">
        <time>2026-04-25T10:26:00Z</time>
      </trkpt>
      <trkpt lat="59.080138206481934" lon="30.011730194091797">
        <time>2026-04-25T10:26:03Z</time>
      </trkpt>
      <trkpt lat="59.080159664154053" lon="30.011751651763916">
        <time>2026-04-25T10:26:05Z</time>
      </trkpt>
      <trkpt lat="59.080159664154053" lon="30.011751651763916">
        <time>2026-04-25T10:26:08Z</time>
      </trkpt>
      <trkpt lat="59.080159664154053" lon="30.011751651763916">
        <time>2026-04-25T10:26:10Z</time>
      </trkpt>
      <trkpt lat="59.080159664154053" lon="30.011751651763916">
        <time>2026-04-25T10:26:13Z</time>
      </trkpt>
      <trkpt lat="59.080159664154053" lon="30.011730194091797">
        <time>2026-04-25T10:26:15Z</time>
      </trkpt>
      <trkpt lat="59.080159664154053" lon="30.011730194091797">
        <time>2026-04-25T10:26:18Z</time>
      </trkpt>
      <trkpt lat="59.080159664154053" lon="30.011708736419678">
        <time>2026-04-25T10:26:20Z</time>
      </trkpt>
      <trkpt lat="59.080159664154053" lon="30.011687278747559">
        <time>2026-04-25T10:26:23Z</time>
      </trkpt>
      <trkpt lat="59.080159664154053" lon="30.01164436340332">
        <time>2026-04-25T10:26:25Z</time>
      </trkpt>
      <trkpt lat="59.080159664154053" lon="30.011622905731201">
        <time>2026-04-25T10:26:28Z</time>
      </trkpt>
      <trkpt lat="59.080159664154053" lon="30.011558532714844">
        <time>2026-04-25T10:26:30Z</time>
      </trkpt>
      <trkpt lat="59.080138206481934" lon="30.011537075042725">
        <time>2026-04-25T10:26:33Z</time>
      </trkpt>
      <trkpt lat="59.080095291137695" lon="30.011494159698486">
        <time>2026-04-25T10:26:35Z</time>
      </trkpt>
      <trkpt lat="59.080009460449219" lon="30.011472702026367">
        <time>2026-04-25T10:26:40Z</time>
      </trkpt>
      <trkpt lat="59.0799880027771" lon="30.011472702026367">
        <time>2026-04-25T10:26:43Z</time>
      </trkpt>
      <trkpt lat="59.079923629760742" lon="30.011429786682129">
        <time>2026-04-25T10:26:45Z</time>
      </trkpt>
      <trkpt lat="59.079902172088623" lon="30.01140832901001">
        <time>2026-04-25T10:26:48Z</time>
      </trkpt>
      <trkpt lat="59.079880714416504" lon="30.011429786682129">
        <time>2026-04-25T10:26:50Z</time>
      </trkpt>
      <trkpt lat="59.079859256744385" lon="30.011451244354248">
        <time>2026-04-25T10:26:53Z</time>
      </trkpt>
      <trkpt lat="59.079837799072266" lon="30.011451244354248">
        <time>2026-04-25T10:26:55Z</time>
      </trkpt>
      <trkpt lat="59.079816341400146" lon="30.011472702026367">
        <time>2026-04-25T10:26:58Z</time>
      </trkpt>
      <trkpt lat="59.079794883728027" lon="30.011515617370605">
        <time>2026-04-25T10:27:00Z</time>
      </trkpt>
      <trkpt lat="59.079794883728027" lon="30.011537075042725">
        <time>2026-04-25T10:27:03Z</time>
      </trkpt>
      <trkpt lat="59.079751968383789" lon="30.011537075042725">
        <time>2026-04-25T10:27:05Z</time>
      </trkpt>
      <trkpt lat="59.07973051071167" lon="30.011558532714844">
        <time>2026-04-25T10:27:08Z</time>
      </trkpt>
      <trkpt lat="59.07973051071167" lon="30.011579990386963">
        <time>2026-04-25T10:27:10Z</time>
      </trkpt>
      <trkpt lat="59.079709053039551" lon="30.011601448059082">
        <time>2026-04-25T10:27:13Z</time>
      </trkpt>
      <trkpt lat="59.079709053039551" lon="30.011622905731201">
        <time>2026-04-25T10:27:15Z</time>
      </trkpt>
      <trkpt lat="59.079687595367432" lon="30.01164436340332">
        <time>2026-04-25T10:27:18Z</time>
      </trkpt>
      <trkpt lat="59.079666137695312" lon="30.011687278747559">
        <time>2026-04-25T10:27:20Z</time>
      </trkpt>
      <trkpt lat="59.079644680023193" lon="30.011730194091797">
        <time>2026-04-25T10:27:23Z</time>
      </trkpt>
      <trkpt lat="59.079644680023193" lon="30.011773109436035">
        <time>2026-04-25T10:27:25Z</time>
      </trkpt>
      <trkpt lat="59.079623222351074" lon="30.011794567108154">
        <time>2026-04-25T10:27:28Z</time>
      </trkpt>
      <trkpt lat="59.079623222351074" lon="30.011858940124512">
        <time>2026-04-25T10:27:30Z</time>
      </trkpt>
      <trkpt lat="59.079601764678955" lon="30.01190185546875">
        <time>2026-04-25T10:27:33Z</time>
      </trkpt>
      <trkpt lat="59.079580307006836" lon="30.011966228485107">
        <time>2026-04-25T10:27:35Z</time>
      </trkpt>
      <trkpt lat="59.079558849334717" lon="30.012009143829346">
        <time>2026-04-25T10:27:38Z</time>
      </trkpt>
      <trkpt lat="59.079537391662598" lon="30.012030601501465">
        <time>2026-04-25T10:27:40Z</time>
      </trkpt>
      <trkpt lat="59.079537391662598" lon="30.012052059173584">
        <time>2026-04-25T10:27:43Z</time>
      </trkpt>
      <trkpt lat="59.079537391662598" lon="30.012052059173584">
        <time>2026-04-25T10:27:45Z</time>
      </trkpt>
      <trkpt lat="59.079494476318359" lon="30.012052059173584">
        <time>2026-04-25T10:27:48Z</time>
      </trkpt>
      <trkpt lat="59.079494476318359" lon="30.012073516845703">
        <time>2026-04-25T10:27:50Z</time>
      </trkpt>
      <trkpt lat="59.07947301864624" lon="30.012052059173584">
        <time>2026-04-25T10:27:53Z</time>
      </trkpt>
      <trkpt lat="59.079451560974121" lon="30.012030601501465">
        <time>2026-04-25T10:27:55Z</time>
      </trkpt>
      <trkpt lat="59.079430103302002" lon="30.012009143829346">
        <time>2026-04-25T10:27:58Z</time>
      </trkpt>
      <trkpt lat="59.079408645629883" lon="30.011966228485107">
        <time>2026-04-25T10:28:00Z</time>
      </trkpt>
      <trkpt lat="59.079408645629883" lon="30.011944770812988">
        <time>2026-04-25T10:28:03Z</time>
      </trkpt>
      <trkpt lat="59.079408645629883" lon="30.011923313140869">
        <time>2026-04-25T10:28:05Z</time>
      </trkpt>
      <trkpt lat="59.079408645629883" lon="30.01190185546875">
        <time>2026-04-25T10:28:08Z</time>
      </trkpt>
      <trkpt lat="59.079408645629883" lon="30.01190185546875">
        <time>2026-04-25T10:28:10Z</time>
      </trkpt>
      <trkpt lat="59.079408645629883" lon="30.01190185546875">
        <time>2026-04-25T10:28:13Z</time>
      </trkpt>
      <trkpt lat="59.079408645629883" lon="30.01190185546875">
        <time>2026-04-25T10:28:15Z</time>
      </trkpt>
      <trkpt lat="59.079387187957764" lon="30.01190185546875">
        <time>2026-04-25T10:28:18Z</time>
      </trkpt>
      <trkpt lat="59.079387187957764" lon="30.01190185546875">
        <time>2026-04-25T10:28:20Z</time>
      </trkpt>
      <trkpt lat="59.079387187957764" lon="30.011923313140869">
        <time>2026-04-25T10:28:23Z</time>
      </trkpt>
      <trkpt lat="59.079387187957764" lon="30.011966228485107">
        <time>2026-04-25T10:28:25Z</time>
      </trkpt>
      <trkpt lat="59.079387187957764" lon="30.012030601501465">
        <time>2026-04-25T10:28:28Z</time>
      </trkpt>
      <trkpt lat="59.079387187957764" lon="30.012094974517822">
        <time>2026-04-25T10:28:30Z</time>
      </trkpt>
      <trkpt lat="59.079365730285645" lon="30.012116432189941">
        <time>2026-04-25T10:28:33Z</time>
      </trkpt>
      <trkpt lat="59.079344272613525" lon="30.01215934753418">
        <time>2026-04-25T10:28:35Z</time>
      </trkpt>
      <trkpt lat="59.079322814941406" lon="30.01215934753418">
        <time>2026-04-25T10:28:38Z</time>
      </trkpt>
      <trkpt lat="59.079322814941406" lon="30.012180805206299">
        <time>2026-04-25T10:28:40Z</time>
      </trkpt>
      <trkpt lat="59.079322814941406" lon="30.012180805206299">
        <time>2026-04-25T10:28:43Z</time>
      </trkpt>
      <trkpt lat="59.079344272613525" lon="30.012180805206299">
        <time>2026-04-25T10:28:45Z</time>
      </trkpt>
      <trkpt lat="59.079344272613525" lon="30.012180805206299">
        <time>2026-04-25T10:28:48Z</time>
      </trkpt>
      <trkpt lat="59.079344272613525" lon="30.012180805206299">
        <time>2026-04-25T10:28:50Z</time>
      </trkpt>
      <trkpt lat="59.079365730285645" lon="30.01215934753418">
        <time>2026-04-25T10:28:53Z</time>
      </trkpt>
      <trkpt lat="59.079365730285645" lon="30.012180805206299">
        <time>2026-04-25T10:28:55Z</time>
      </trkpt>
      <trkpt lat="59.079387187957764" lon="30.012223720550537">
        <time>2026-04-25T10:28:58Z</time>
      </trkpt>
      <trkpt lat="59.079451560974121" lon="30.012245178222656">
        <time>2026-04-25T10:29:00Z</time>
      </trkpt>
      <trkpt lat="59.07947301864624" lon="30.012245178222656">
        <time>2026-04-25T10:29:03Z</time>
      </trkpt>
      <trkpt lat="59.079537391662598" lon="30.012245178222656">
        <time>2026-04-25T10:29:05Z</time>
      </trkpt>
      <trkpt lat="59.079558849334717" lon="30.012202262878418">
        <time>2026-04-25T10:29:08Z</time>
      </trkpt>
      <trkpt lat="59.079644680023193" lon="30.012180805206299">
        <time>2026-04-25T10:29:10Z</time>
      </trkpt>
      <trkpt lat="59.079666137695312" lon="30.01215934753418">
        <time>2026-04-25T10:29:13Z</time>
      </trkpt>
      <trkpt lat="59.07973051071167" lon="30.012137889862061">
        <time>2026-04-25T10:29:15Z</time>
      </trkpt>
      <trkpt lat="59.079751968383789" lon="30.012094974517822">
        <time>2026-04-25T10:29:18Z</time>
      </trkpt>
      <trkpt lat="59.079773426055908" lon="30.012030601501465">
        <time>2026-04-25T10:29:20Z</time>
      </trkpt>
      <trkpt lat="59.079794883728027" lon="30.011944770812988">
        <time>2026-04-25T10:29:23Z</time>
      </trkpt>
      <trkpt lat="59.079816341400146" lon="30.011816024780273">
        <time>2026-04-25T10:29:25Z</time>
      </trkpt>
      <trkpt lat="59.079837799072266" lon="30.011708736419678">
        <time>2026-04-25T10:29:28Z</time>
      </trkpt>
      <trkpt lat="59.079816341400146" lon="30.01164436340332">
        <time>2026-04-25T10:29:30Z</time>
      </trkpt>
      <trkpt lat="59.079816341400146" lon="30.011601448059082">
        <time>2026-04-25T10:29:33Z</time>
      </trkpt>
      <trkpt lat="59.079794883728027" lon="30.011579990386963">
        <time>2026-04-25T10:29:35Z</time>
      </trkpt>
      <trkpt lat="59.079773426055908" lon="30.011622905731201">
        <time>2026-04-25T10:29:38Z</time>
      </trkpt>
      <trkpt lat="59.079751968383789" lon="30.011708736419678">
        <time>2026-04-25T10:29:40Z</time>
      </trkpt>
      <trkpt lat="59.07973051071167" lon="30.011773109436035">
        <time>2026-04-25T10:29:43Z</time>
      </trkpt>
      <trkpt lat="59.07973051071167" lon="30.011837482452393">
        <time>2026-04-25T10:29:45Z</time>
      </trkpt>
      <trkpt lat="59.079709053039551" lon="30.011858940124512">
        <time>2026-04-25T10:29:48Z</time>
      </trkpt>
      <trkpt lat="59.079709053039551" lon="30.011858940124512">
        <time>2026-04-25T10:29:50Z</time>
      </trkpt>
      <trkpt lat="59.079709053039551" lon="30.011880397796631">
        <time>2026-04-25T10:29:53Z</time>
      </trkpt>
      <trkpt lat="59.079709053039551" lon="30.01190185546875">
        <time>2026-04-25T10:29:55Z</time>
      </trkpt>
      <trkpt lat="59.07973051071167" lon="30.01190185546875">
        <time>2026-04-25T10:29:58Z</time>
      </trkpt>
      <trkpt lat="59.07973051071167" lon="30.011923313140869">
        <time>2026-04-25T10:30:00Z</time>
      </trkpt>
      <trkpt lat="59.079751968383789" lon="30.011944770812988">
        <time>2026-04-25T10:30:03Z</time>
      </trkpt>
      <trkpt lat="59.079773426055908" lon="30.011944770812988">
        <time>2026-04-25T10:30:05Z</time>
      </trkpt>
      <trkpt lat="59.079794883728027" lon="30.011944770812988">
        <time>2026-04-25T10:30:08Z</time>
      </trkpt>
      <trkpt lat="59.079794883728027" lon="30.011944770812988">
        <time>2026-04-25T10:30:10Z</time>
      </trkpt>
      <trkpt lat="59.079816341400146" lon="30.011966228485107">
        <time>2026-04-25T10:30:13Z</time>
      </trkpt>
      <trkpt lat="59.079837799072266" lon="30.011966228485107">
        <time>2026-04-25T10:30:15Z</time>
      </trkpt>
      <trkpt lat="59.079859256744385" lon="30.011944770812988">
        <time>2026-04-25T10:30:18Z</time>
      </trkpt>
      <trkpt lat="59.079880714416504" lon="30.011944770812988">
        <time>2026-04-25T10:30:20Z</time>
      </trkpt>
      <trkpt lat="59.079880714416504" lon="30.011944770812988">
        <time>2026-04-25T10:30:23Z</time>
      </trkpt>
      <trkpt lat="59.079902172088623" lon="30.011944770812988">
        <time>2026-04-25T10:30:25Z</time>
      </trkpt>
      <trkpt lat="59.079923629760742" lon="30.011966228485107">
        <time>2026-04-25T10:30:28Z</time>
      </trkpt>
      <trkpt lat="59.079945087432861" lon="30.012009143829346">
        <time>2026-04-25T10:30:30Z</time>
      </trkpt>
      <trkpt lat="59.079945087432861" lon="30.012030601501465">
        <time>2026-04-25T10:30:33Z</time>
      </trkpt>
      <trkpt lat="59.079945087432861" lon="30.012009143829346">
        <time>2026-04-25T10:30:35Z</time>
      </trkpt>
      <trkpt lat="59.079945087432861" lon="30.012030601501465">
        <time>2026-04-25T10:30:38Z</time>
      </trkpt>
      <trkpt lat="59.079945087432861" lon="30.012094974517822">
        <time>2026-04-25T10:30:40Z</time>
      </trkpt>
      <trkpt lat="59.079945087432861" lon="30.012116432189941">
        <time>2026-04-25T10:30:43Z</time>
      </trkpt>
      <trkpt lat="59.079945087432861" lon="30.012116432189941">
        <time>2026-04-25T10:30:45Z</time>
      </trkpt>
      <trkpt lat="59.079945087432861" lon="30.012137889862061">
        <time>2026-04-25T10:30:48Z</time>
      </trkpt>
      <trkpt lat="59.07996654510498" lon="30.012137889862061">
        <time>2026-04-25T10:30:50Z</time>
      </trkpt>
      <trkpt lat="59.07996654510498" lon="30.012137889862061">
        <time>2026-04-25T10:30:53Z</time>
      </trkpt>
      <trkpt lat="59.07996654510498" lon="30.01215934753418">
        <time>2026-04-25T10:30:55Z</time>
      </trkpt>
      <trkpt lat="59.0799880027771" lon="30.012180805206299">
        <time>2026-04-25T10:30:58Z</time>
      </trkpt>
      <trkpt lat="59.080009460449219" lon="30.012223720550537">
        <time>2026-04-25T10:31:00Z</time>
      </trkpt>
      <trkpt lat="59.080009460449219" lon="30.012245178222656">
        <time>2026-04-25T10:31:03Z</time>
      </trkpt>
      <trkpt lat="59.080009460449219" lon="30.012331008911133">
        <time>2026-04-25T10:31:05Z</time>
      </trkpt>
      <trkpt lat="59.080030918121338" lon="30.012373924255371">
        <time>2026-04-25T10:31:08Z</time>
      </trkpt>
      <trkpt lat="59.080095291137695" lon="30.012438297271729">
        <time>2026-04-25T10:31:13Z</time>
      </trkpt>
      <trkpt lat="59.080138206481934" lon="30.012481212615967">
        <time>2026-04-25T10:31:15Z</time>
      </trkpt>
      <trkpt lat="59.080159664154053" lon="30.012481212615967">
        <time>2026-04-25T10:31:18Z</time>
      </trkpt>
      <trkpt lat="59.080159664154053" lon="30.012502670288086">
        <time>2026-04-25T10:31:20Z</time>
      </trkpt>
      <trkpt lat="59.080181121826172" lon="30.012502670288086">
        <time>2026-04-25T10:31:23Z</time>
      </trkpt>
      <trkpt lat="59.080181121826172" lon="30.012481212615967">
        <time>2026-04-25T10:31:25Z</time>
      </trkpt>
      <trkpt lat="59.080202579498291" lon="30.012481212615967">
        <time>2026-04-25T10:31:28Z</time>
      </trkpt>
      <trkpt lat="59.080202579498291" lon="30.012481212615967">
        <time>2026-04-25T10:31:30Z</time>
      </trkpt>
      <trkpt lat="59.080181121826172" lon="30.012481212615967">
        <time>2026-04-25T10:31:33Z</time>
      </trkpt>
      <trkpt lat="59.080159664154053" lon="30.012502670288086">
        <time>2026-04-25T10:31:35Z</time>
      </trkpt>
      <trkpt lat="59.080138206481934" lon="30.012524127960205">
        <time>2026-04-25T10:31:38Z</time>
      </trkpt>
      <trkpt lat="59.080095291137695" lon="30.012567043304443">
        <time>2026-04-25T10:31:40Z</time>
      </trkpt>
      <trkpt lat="59.080073833465576" lon="30.012567043304443">
        <time>2026-04-25T10:31:43Z</time>
      </trkpt>
      <trkpt lat="59.080052375793457" lon="30.012609958648682">
        <time>2026-04-25T10:31:45Z</time>
      </trkpt>
      <trkpt lat="59.080030918121338" lon="30.012674331665039">
        <time>2026-04-25T10:31:48Z</time>
      </trkpt>
      <trkpt lat="59.0799880027771" lon="30.012717247009277">
        <time>2026-04-25T10:31:50Z</time>
      </trkpt>
      <trkpt lat="59.07996654510498" lon="30.012760162353516">
        <time>2026-04-25T10:31:53Z</time>
      </trkpt>
      <trkpt lat="59.07996654510498" lon="30.012845993041992">
        <time>2026-04-25T10:31:55Z</time>
      </trkpt>
      <trkpt lat="59.07996654510498" lon="30.01291036605835">
        <time>2026-04-25T10:31:58Z</time>
      </trkpt>
      <trkpt lat="59.0799880027771" lon="30.012974739074707">
        <time>2026-04-25T10:32:00Z</time>
      </trkpt>
      <trkpt lat="59.0799880027771" lon="30.013039112091064">
        <time>2026-04-25T10:32:03Z</time>
      </trkpt>
      <trkpt lat="59.0799880027771" lon="30.013103485107422">
        <time>2026-04-25T10:32:05Z</time>
      </trkpt>
      <trkpt lat="59.0799880027771" lon="30.013124942779541">
        <time>2026-04-25T10:32:08Z</time>
      </trkpt>
      <trkpt lat="59.080030918121338" lon="30.01314640045166">
        <time>2026-04-25T10:32:10Z</time>
      </trkpt>
      <trkpt lat="59.080030918121338" lon="30.013167858123779">
        <time>2026-04-25T10:32:13Z</time>
      </trkpt>
      <trkpt lat="59.080030918121338" lon="30.013167858123779">
        <time>2026-04-25T10:32:15Z</time>
      </trkpt>
      <trkpt lat="59.080030918121338" lon="30.013167858123779">
        <time>2026-04-25T10:32:18Z</time>
      </trkpt>
      <trkpt lat="59.080030918121338" lon="30.013167858123779">
        <time>2026-04-25T10:32:20Z</time>
      </trkpt>
      <trkpt lat="59.080030918121338" lon="30.013167858123779">
        <time>2026-04-25T10:32:23Z</time>
      </trkpt>
      <trkpt lat="59.080030918121338" lon="30.013167858123779">
        <time>2026-04-25T10:32:25Z</time>
      </trkpt>
      <trkpt lat="59.080030918121338" lon="30.013189315795898">
        <time>2026-04-25T10:32:28Z</time>
      </trkpt>
      <trkpt lat="59.080030918121338" lon="30.013232231140137">
        <time>2026-04-25T10:32:30Z</time>
      </trkpt>
      <trkpt lat="59.080052375793457" lon="30.013296604156494">
        <time>2026-04-25T10:32:33Z</time>
      </trkpt>
      <trkpt lat="59.080052375793457" lon="30.013382434844971">
        <time>2026-04-25T10:32:35Z</time>
      </trkpt>
      <trkpt lat="59.080052375793457" lon="30.013446807861328">
        <time>2026-04-25T10:32:38Z</time>
      </trkpt>
      <trkpt lat="59.080052375793457" lon="30.013532638549805">
        <time>2026-04-25T10:32:40Z</time>
      </trkpt>
      <trkpt lat="59.080052375793457" lon="30.013575553894043">
        <time>2026-04-25T10:32:43Z</time>
      </trkpt>
      <trkpt lat="59.080052375793457" lon="30.0136399269104">
        <time>2026-04-25T10:32:45Z</time>
      </trkpt>
      <trkpt lat="59.080052375793457" lon="30.0136399269104">
        <time>2026-04-25T10:32:48Z</time>
      </trkpt>
      <trkpt lat="59.080052375793457" lon="30.013597011566162">
        <time>2026-04-25T10:32:50Z</time>
      </trkpt>
      <trkpt lat="59.080030918121338" lon="30.013597011566162">
        <time>2026-04-25T10:32:53Z</time>
      </trkpt>
      <trkpt lat="59.080030918121338" lon="30.013618469238281">
        <time>2026-04-25T10:32:55Z</time>
      </trkpt>
      <trkpt lat="59.080009460449219" lon="30.0136399269104">
        <time>2026-04-25T10:32:58Z</time>
      </trkpt>
      <trkpt lat="59.07996654510498" lon="30.013704299926758">
        <time>2026-04-25T10:33:00Z</time>
      </trkpt>
      <trkpt lat="59.079945087432861" lon="30.013725757598877">
        <time>2026-04-25T10:33:03Z</time>
      </trkpt>
      <trkpt lat="59.079923629760742" lon="30.013725757598877">
        <time>2026-04-25T10:33:05Z</time>
      </trkpt>
      <trkpt lat="59.079902172088623" lon="30.013725757598877">
        <time>2026-04-25T10:33:08Z</time>
      </trkpt>
      <trkpt lat="59.079902172088623" lon="30.013704299926758">
        <time>2026-04-25T10:33:10Z</time>
      </trkpt>
      <trkpt lat="59.079880714416504" lon="30.013682842254639">
        <time>2026-04-25T10:33:13Z</time>
      </trkpt>
      <trkpt lat="59.079859256744385" lon="30.013704299926758">
        <time>2026-04-25T10:33:15Z</time>
      </trkpt>
      <trkpt lat="59.079837799072266" lon="30.013747215270996">
        <time>2026-04-25T10:33:18Z</time>
      </trkpt>
      <trkpt lat="59.079837799072266" lon="30.013811588287354">
        <time>2026-04-25T10:33:20Z</time>
      </trkpt>
      <trkpt lat="59.079837799072266" lon="30.01389741897583">
        <time>2026-04-25T10:33:23Z</time>
      </trkpt>
      <trkpt lat="59.079816341400146" lon="30.014004707336426">
        <time>2026-04-25T10:33:25Z</time>
      </trkpt>
      <trkpt lat="59.079794883728027" lon="30.014133453369141">
        <time>2026-04-25T10:33:33Z</time>
      </trkpt>
      <trkpt lat="59.079794883728027" lon="30.014176368713379">
        <time>2026-04-25T10:33:35Z</time>
      </trkpt>
      <trkpt lat="59.079794883728027" lon="30.014197826385498">
        <time>2026-04-25T10:33:38Z</time>
      </trkpt>
      <trkpt lat="59.079751968383789" lon="30.014305114746094">
        <time>2026-04-25T10:33:40Z</time>
      </trkpt>
      <trkpt lat="59.079709053039551" lon="30.014348030090332">
        <time>2026-04-25T10:33:43Z</time>
      </trkpt>
      <trkpt lat="59.079687595367432" lon="30.014326572418213">
        <time>2026-04-25T10:33:45Z</time>
      </trkpt>
      <trkpt lat="59.079666137695312" lon="30.014369487762451">
        <time>2026-04-25T10:33:48Z</time>
      </trkpt>
      <trkpt lat="59.079666137695312" lon="30.014305114746094">
        <time>2026-04-25T10:33:50Z</time>
      </trkpt>
      <trkpt lat="59.079644680023193" lon="30.014262199401855">
        <time>2026-04-25T10:33:53Z</time>
      </trkpt>
      <trkpt lat="59.079623222351074" lon="30.014240741729736">
        <time>2026-04-25T10:33:55Z</time>
      </trkpt>
      <trkpt lat="59.079601764678955" lon="30.014219284057617">
        <time>2026-04-25T10:33:58Z</time>
      </trkpt>
      <trkpt lat="59.079580307006836" lon="30.014197826385498">
        <time>2026-04-25T10:34:00Z</time>
      </trkpt>
      <trkpt lat="59.079580307006836" lon="30.014197826385498">
        <time>2026-04-25T10:34:03Z</time>
      </trkpt>
      <trkpt lat="59.079580307006836" lon="30.014176368713379">
        <time>2026-04-25T10:34:05Z</time>
      </trkpt>
      <trkpt lat="59.079601764678955" lon="30.014133453369141">
        <time>2026-04-25T10:34:08Z</time>
      </trkpt>
      <trkpt lat="59.079623222351074" lon="30.014047622680664">
        <time>2026-04-25T10:34:10Z</time>
      </trkpt>
      <trkpt lat="59.079623222351074" lon="30.014004707336426">
        <time>2026-04-25T10:34:13Z</time>
      </trkpt>
      <trkpt lat="59.079623222351074" lon="30.013961791992188">
        <time>2026-04-25T10:34:15Z</time>
      </trkpt>
      <trkpt lat="59.079623222351074" lon="30.013961791992188">
        <time>2026-04-25T10:34:18Z</time>
      </trkpt>
      <trkpt lat="59.079601764678955" lon="30.013940334320068">
        <time>2026-04-25T10:34:20Z</time>
      </trkpt>
      <trkpt lat="59.079623222351074" lon="30.013940334320068">
        <time>2026-04-25T10:34:23Z</time>
      </trkpt>
      <trkpt lat="59.079601764678955" lon="30.01389741897583">
        <time>2026-04-25T10:34:25Z</time>
      </trkpt>
      <trkpt lat="59.079601764678955" lon="30.013833045959473">
        <time>2026-04-25T10:34:28Z</time>
      </trkpt>
      <trkpt lat="59.079580307006836" lon="30.013768672943115">
        <time>2026-04-25T10:34:30Z</time>
      </trkpt>
      <trkpt lat="59.079558849334717" lon="30.013725757598877">
        <time>2026-04-25T10:34:33Z</time>
      </trkpt>
      <trkpt lat="59.079537391662598" lon="30.013682842254639">
        <time>2026-04-25T10:34:35Z</time>
      </trkpt>
      <trkpt lat="59.079515933990479" lon="30.01366138458252">
        <time>2026-04-25T10:34:38Z</time>
      </trkpt>
      <trkpt lat="59.079494476318359" lon="30.013618469238281">
        <time>2026-04-25T10:34:40Z</time>
      </trkpt>
      <trkpt lat="59.07947301864624" lon="30.013618469238281">
        <time>2026-04-25T10:34:43Z</time>
      </trkpt>
      <trkpt lat="59.07947301864624" lon="30.013618469238281">
        <time>2026-04-25T10:34:45Z</time>
      </trkpt>
      <trkpt lat="59.07947301864624" lon="30.013618469238281">
        <time>2026-04-25T10:34:48Z</time>
      </trkpt>
      <trkpt lat="59.07947301864624" lon="30.013618469238281">
        <time>2026-04-25T10:34:50Z</time>
      </trkpt>
      <trkpt lat="59.07947301864624" lon="30.013618469238281">
        <time>2026-04-25T10:34:53Z</time>
      </trkpt>
      <trkpt lat="59.079494476318359" lon="30.013575553894043">
        <time>2026-04-25T10:34:55Z</time>
      </trkpt>
      <trkpt lat="59.079515933990479" lon="30.013554096221924">
        <time>2026-04-25T10:34:58Z</time>
      </trkpt>
      <trkpt lat="59.079558849334717" lon="30.013468265533447">
        <time>2026-04-25T10:35:00Z</time>
      </trkpt>
      <trkpt lat="59.079580307006836" lon="30.013425350189209">
        <time>2026-04-25T10:35:03Z</time>
      </trkpt>
      <trkpt lat="59.079623222351074" lon="30.01340389251709">
        <time>2026-04-25T10:35:05Z</time>
      </trkpt>
      <trkpt lat="59.079623222351074" lon="30.013425350189209">
        <time>2026-04-25T10:35:08Z</time>
      </trkpt>
      <trkpt lat="59.079623222351074" lon="30.013446807861328">
        <time>2026-04-25T10:35:10Z</time>
      </trkpt>
      <trkpt lat="59.079623222351074" lon="30.013425350189209">
        <time>2026-04-25T10:35:13Z</time>
      </trkpt>
      <trkpt lat="59.079623222351074" lon="30.013425350189209">
        <time>2026-04-25T10:35:15Z</time>
      </trkpt>
      <trkpt lat="59.079623222351074" lon="30.013425350189209">
        <time>2026-04-25T10:35:18Z</time>
      </trkpt>
      <trkpt lat="59.079623222351074" lon="30.013446807861328">
        <time>2026-04-25T10:35:20Z</time>
      </trkpt>
      <trkpt lat="59.079623222351074" lon="30.013446807861328">
        <time>2026-04-25T10:35:23Z</time>
      </trkpt>
      <trkpt lat="59.079623222351074" lon="30.013446807861328">
        <time>2026-04-25T10:35:25Z</time>
      </trkpt>
      <trkpt lat="59.079623222351074" lon="30.013468265533447">
        <time>2026-04-25T10:35:28Z</time>
      </trkpt>
      <trkpt lat="59.079601764678955" lon="30.013468265533447">
        <time>2026-04-25T10:35:30Z</time>
      </trkpt>
      <trkpt lat="59.079601764678955" lon="30.013468265533447">
        <time>2026-04-25T10:35:33Z</time>
      </trkpt>
      <trkpt lat="59.079601764678955" lon="30.013468265533447">
        <time>2026-04-25T10:35:35Z</time>
      </trkpt>
      <trkpt lat="59.079601764678955" lon="30.013468265533447">
        <time>2026-04-25T10:35:38Z</time>
      </trkpt>
      <trkpt lat="59.079601764678955" lon="30.013468265533447">
        <time>2026-04-25T10:35:40Z</time>
      </trkpt>
      <trkpt lat="59.079601764678955" lon="30.013468265533447">
        <time>2026-04-25T10:35:43Z</time>
      </trkpt>
      <trkpt lat="59.079601764678955" lon="30.013468265533447">
        <time>2026-04-25T10:35:45Z</time>
      </trkpt>
      <trkpt lat="59.079601764678955" lon="30.013468265533447">
        <time>2026-04-25T10:35:48Z</time>
      </trkpt>
      <trkpt lat="59.079601764678955" lon="30.013468265533447">
        <time>2026-04-25T10:35:50Z</time>
      </trkpt>
      <trkpt lat="59.079601764678955" lon="30.013468265533447">
        <time>2026-04-25T10:35:53Z</time>
      </trkpt>
      <trkpt lat="59.079601764678955" lon="30.013468265533447">
        <time>2026-04-25T10:35:55Z</time>
      </trkpt>
      <trkpt lat="59.079601764678955" lon="30.013468265533447">
        <time>2026-04-25T10:35:58Z</time>
      </trkpt>
      <trkpt lat="59.079623222351074" lon="30.013468265533447">
        <time>2026-04-25T10:36:00Z</time>
      </trkpt>
      <trkpt lat="59.079623222351074" lon="30.013468265533447">
        <time>2026-04-25T10:36:03Z</time>
      </trkpt>
      <trkpt lat="59.079623222351074" lon="30.013468265533447">
        <time>2026-04-25T10:36:05Z</time>
      </trkpt>
      <trkpt lat="59.079623222351074" lon="30.013468265533447">
        <time>2026-04-25T10:36:08Z</time>
      </trkpt>
      <trkpt lat="59.079623222351074" lon="30.013468265533447">
        <time>2026-04-25T10:36:10Z</time>
      </trkpt>
      <trkpt lat="59.079623222351074" lon="30.013468265533447">
        <time>2026-04-25T10:36:13Z</time>
      </trkpt>
      <trkpt lat="59.079623222351074" lon="30.013468265533447">
        <time>2026-04-25T10:36:15Z</time>
      </trkpt>
      <trkpt lat="59.079623222351074" lon="30.013468265533447">
        <time>2026-04-25T10:36:18Z</time>
      </trkpt>
      <trkpt lat="59.079623222351074" lon="30.013468265533447">
        <time>2026-04-25T10:36:20Z</time>
      </trkpt>
      <trkpt lat="59.079623222351074" lon="30.013468265533447">
        <time>2026-04-25T10:36:23Z</time>
      </trkpt>
      <trkpt lat="59.079623222351074" lon="30.013468265533447">
        <time>2026-04-25T10:36:25Z</time>
      </trkpt>
      <trkpt lat="59.079623222351074" lon="30.013468265533447">
        <time>2026-04-25T10:36:28Z</time>
      </trkpt>
      <trkpt lat="59.079623222351074" lon="30.013468265533447">
        <time>2026-04-25T10:36:30Z</time>
      </trkpt>
      <trkpt lat="59.079601764678955" lon="30.013446807861328">
        <time>2026-04-25T10:36:33Z</time>
      </trkpt>
      <trkpt lat="59.079601764678955" lon="30.013468265533447">
        <time>2026-04-25T10:36:35Z</time>
      </trkpt>
      <trkpt lat="59.079601764678955" lon="30.013446807861328">
        <time>2026-04-25T10:36:38Z</time>
      </trkpt>
      <trkpt lat="59.079601764678955" lon="30.013425350189209">
        <time>2026-04-25T10:36:40Z</time>
      </trkpt>
      <trkpt lat="59.079601764678955" lon="30.01340389251709">
        <time>2026-04-25T10:36:43Z</time>
      </trkpt>
      <trkpt lat="59.079601764678955" lon="30.013382434844971">
        <time>2026-04-25T10:36:45Z</time>
      </trkpt>
      <trkpt lat="59.079601764678955" lon="30.013360977172852">
        <time>2026-04-25T10:36:48Z</time>
      </trkpt>
      <trkpt lat="59.079601764678955" lon="30.013318061828613">
        <time>2026-04-25T10:36:50Z</time>
      </trkpt>
      <trkpt lat="59.079601764678955" lon="30.013318061828613">
        <time>2026-04-25T10:36:53Z</time>
      </trkpt>
      <trkpt lat="59.079580307006836" lon="30.013318061828613">
        <time>2026-04-25T10:36:55Z</time>
      </trkpt>
      <trkpt lat="59.079580307006836" lon="30.013296604156494">
        <time>2026-04-25T10:36:58Z</time>
      </trkpt>
      <trkpt lat="59.079580307006836" lon="30.013232231140137">
        <time>2026-04-25T10:37:00Z</time>
      </trkpt>
      <trkpt lat="59.079580307006836" lon="30.013189315795898">
        <time>2026-04-25T10:37:03Z</time>
      </trkpt>
      <trkpt lat="59.079580307006836" lon="30.013124942779541">
        <time>2026-04-25T10:37:05Z</time>
      </trkpt>
      <trkpt lat="59.079580307006836" lon="30.013103485107422">
        <time>2026-04-25T10:37:08Z</time>
      </trkpt>
      <trkpt lat="59.079580307006836" lon="30.013082027435303">
        <time>2026-04-25T10:37:10Z</time>
      </trkpt>
      <trkpt lat="59.079580307006836" lon="30.013082027435303">
        <time>2026-04-25T10:37:13Z</time>
      </trkpt>
      <trkpt lat="59.079580307006836" lon="30.013039112091064">
        <time>2026-04-25T10:37:15Z</time>
      </trkpt>
      <trkpt lat="59.079580307006836" lon="30.012996196746826">
        <time>2026-04-25T10:37:18Z</time>
      </trkpt>
      <trkpt lat="59.079580307006836" lon="30.012953281402588">
        <time>2026-04-25T10:37:20Z</time>
      </trkpt>
      <trkpt lat="59.079580307006836" lon="30.012931823730469">
        <time>2026-04-25T10:37:23Z</time>
      </trkpt>
      <trkpt lat="59.079558849334717" lon="30.012931823730469">
        <time>2026-04-25T10:37:25Z</time>
      </trkpt>
      <trkpt lat="59.079558849334717" lon="30.01291036605835">
        <time>2026-04-25T10:37:28Z</time>
      </trkpt>
      <trkpt lat="59.079558849334717" lon="30.01291036605835">
        <time>2026-04-25T10:37:30Z</time>
      </trkpt>
      <trkpt lat="59.079558849334717" lon="30.01291036605835">
        <time>2026-04-25T10:37:33Z</time>
      </trkpt>
      <trkpt lat="59.079537391662598" lon="30.01288890838623">
        <time>2026-04-25T10:37:35Z</time>
      </trkpt>
      <trkpt lat="59.079537391662598" lon="30.012867450714111">
        <time>2026-04-25T10:37:38Z</time>
      </trkpt>
      <trkpt lat="59.079537391662598" lon="30.012845993041992">
        <time>2026-04-25T10:37:40Z</time>
      </trkpt>
      <trkpt lat="59.079537391662598" lon="30.012867450714111">
        <time>2026-04-25T10:37:43Z</time>
      </trkpt>
      <trkpt lat="59.079537391662598" lon="30.012867450714111">
        <time>2026-04-25T10:37:45Z</time>
      </trkpt>
      <trkpt lat="59.079537391662598" lon="30.012867450714111">
        <time>2026-04-25T10:37:48Z</time>
      </trkpt>
      <trkpt lat="59.079537391662598" lon="30.012845993041992">
        <time>2026-04-25T10:37:50Z</time>
      </trkpt>
      <trkpt lat="59.079558849334717" lon="30.012803077697754">
        <time>2026-04-25T10:37:53Z</time>
      </trkpt>
      <trkpt lat="59.079558849334717" lon="30.012738704681396">
        <time>2026-04-25T10:37:55Z</time>
      </trkpt>
      <trkpt lat="59.079558849334717" lon="30.012674331665039">
        <time>2026-04-25T10:37:58Z</time>
      </trkpt>
      <trkpt lat="59.079558849334717" lon="30.012609958648682">
        <time>2026-04-25T10:38:00Z</time>
      </trkpt>
      <trkpt lat="59.079537391662598" lon="30.012567043304443">
        <time>2026-04-25T10:38:03Z</time>
      </trkpt>
      <trkpt lat="59.079537391662598" lon="30.012481212615967">
        <time>2026-04-25T10:38:05Z</time>
      </trkpt>
      <trkpt lat="59.079515933990479" lon="30.012416839599609">
        <time>2026-04-25T10:38:08Z</time>
      </trkpt>
      <trkpt lat="59.07947301864624" lon="30.012373924255371">
        <time>2026-04-25T10:38:10Z</time>
      </trkpt>
      <trkpt lat="59.079451560974121" lon="30.012373924255371">
        <time>2026-04-25T10:38:13Z</time>
      </trkpt>
      <trkpt lat="59.079408645629883" lon="30.01239538192749">
        <time>2026-04-25T10:38:15Z</time>
      </trkpt>
      <trkpt lat="59.079387187957764" lon="30.01239538192749">
        <time>2026-04-25T10:38:18Z</time>
      </trkpt>
      <trkpt lat="59.079344272613525" lon="30.012438297271729">
        <time>2026-04-25T10:38:20Z</time>
      </trkpt>
      <trkpt lat="59.079322814941406" lon="30.012438297271729">
        <time>2026-04-25T10:38:23Z</time>
      </trkpt>
      <trkpt lat="59.079301357269287" lon="30.012416839599609">
        <time>2026-04-25T10:38:25Z</time>
      </trkpt>
      <trkpt lat="59.079301357269287" lon="30.012459754943848">
        <time>2026-04-25T10:38:28Z</time>
      </trkpt>
      <trkpt lat="59.079301357269287" lon="30.012502670288086">
        <time>2026-04-25T10:38:30Z</time>
      </trkpt>
      <trkpt lat="59.079279899597168" lon="30.012588500976563">
        <time>2026-04-25T10:38:33Z</time>
      </trkpt>
      <trkpt lat="59.079279899597168" lon="30.012695789337158">
        <time>2026-04-25T10:38:35Z</time>
      </trkpt>
      <trkpt lat="59.079279899597168" lon="30.012803077697754">
        <time>2026-04-25T10:38:38Z</time>
      </trkpt>
      <trkpt lat="59.079258441925049" lon="30.01288890838623">
        <time>2026-04-25T10:38:40Z</time>
      </trkpt>
      <trkpt lat="59.079258441925049" lon="30.012931823730469">
        <time>2026-04-25T10:38:43Z</time>
      </trkpt>
      <trkpt lat="59.079215526580811" lon="30.012974739074707">
        <time>2026-04-25T10:38:45Z</time>
      </trkpt>
      <trkpt lat="59.079194068908691" lon="30.013017654418945">
        <time>2026-04-25T10:38:48Z</time>
      </trkpt>
      <trkpt lat="59.079172611236572" lon="30.013060569763184">
        <time>2026-04-25T10:38:50Z</time>
      </trkpt>
      <trkpt lat="59.079151153564453" lon="30.013082027435303">
        <time>2026-04-25T10:38:53Z</time>
      </trkpt>
      <trkpt lat="59.079151153564453" lon="30.013124942779541">
        <time>2026-04-25T10:38:55Z</time>
      </trkpt>
      <trkpt lat="59.079129695892334" lon="30.013124942779541">
        <time>2026-04-25T10:38:58Z</time>
      </trkpt>
      <trkpt lat="59.079108238220215" lon="30.01314640045166">
        <time>2026-04-25T10:39:00Z</time>
      </trkpt>
      <trkpt lat="59.079086780548096" lon="30.01314640045166">
        <time>2026-04-25T10:39:03Z</time>
      </trkpt>
      <trkpt lat="59.079065322875977" lon="30.01314640045166">
        <time>2026-04-25T10:39:05Z</time>
      </trkpt>
      <trkpt lat="59.079043865203857" lon="30.013167858123779">
        <time>2026-04-25T10:39:08Z</time>
      </trkpt>
      <trkpt lat="59.079043865203857" lon="30.013167858123779">
        <time>2026-04-25T10:39:10Z</time>
      </trkpt>
      <trkpt lat="59.079043865203857" lon="30.01314640045166">
        <time>2026-04-25T10:39:13Z</time>
      </trkpt>
      <trkpt lat="59.079043865203857" lon="30.013103485107422">
        <time>2026-04-25T10:39:15Z</time>
      </trkpt>
      <trkpt lat="59.079022407531738" lon="30.013060569763184">
        <time>2026-04-25T10:39:18Z</time>
      </trkpt>
      <trkpt lat="59.079000949859619" lon="30.012996196746826">
        <time>2026-04-25T10:39:20Z</time>
      </trkpt>
      <trkpt lat="59.079000949859619" lon="30.012974739074707">
        <time>2026-04-25T10:39:23Z</time>
      </trkpt>
      <trkpt lat="59.079000949859619" lon="30.012953281402588">
        <time>2026-04-25T10:39:25Z</time>
      </trkpt>
      <trkpt lat="59.079000949859619" lon="30.012953281402588">
        <time>2026-04-25T10:39:28Z</time>
      </trkpt>
      <trkpt lat="59.079022407531738" lon="30.012953281402588">
        <time>2026-04-25T10:39:30Z</time>
      </trkpt>
      <trkpt lat="59.079022407531738" lon="30.012974739074707">
        <time>2026-04-25T10:39:33Z</time>
      </trkpt>
      <trkpt lat="59.079086780548096" lon="30.012974739074707">
        <time>2026-04-25T10:39:35Z</time>
      </trkpt>
      <trkpt lat="59.079108238220215" lon="30.012996196746826">
        <time>2026-04-25T10:39:38Z</time>
      </trkpt>
      <trkpt lat="59.079151153564453" lon="30.012974739074707">
        <time>2026-04-25T10:39:40Z</time>
      </trkpt>
      <trkpt lat="59.079194068908691" lon="30.012974739074707">
        <time>2026-04-25T10:39:43Z</time>
      </trkpt>
      <trkpt lat="59.079215526580811" lon="30.012974739074707">
        <time>2026-04-25T10:39:45Z</time>
      </trkpt>
      <trkpt lat="59.07923698425293" lon="30.01291036605835">
        <time>2026-04-25T10:39:48Z</time>
      </trkpt>
      <trkpt lat="59.079215526580811" lon="30.012781620025635">
        <time>2026-04-25T10:39:50Z</time>
      </trkpt>
      <trkpt lat="59.07923698425293" lon="30.012695789337158">
        <time>2026-04-25T10:39:53Z</time>
      </trkpt>
      <trkpt lat="59.07923698425293" lon="30.012567043304443">
        <time>2026-04-25T10:39:55Z</time>
      </trkpt>
      <trkpt lat="59.079215526580811" lon="30.012481212615967">
        <time>2026-04-25T10:39:58Z</time>
      </trkpt>
      <trkpt lat="59.079215526580811" lon="30.012352466583252">
        <time>2026-04-25T10:40:00Z</time>
      </trkpt>
      <trkpt lat="59.079215526580811" lon="30.012266635894775">
        <time>2026-04-25T10:40:03Z</time>
      </trkpt>
      <trkpt lat="59.079215526580811" lon="30.012180805206299">
        <time>2026-04-25T10:40:05Z</time>
      </trkpt>
      <trkpt lat="59.079194068908691" lon="30.012137889862061">
        <time>2026-04-25T10:40:08Z</time>
      </trkpt>
      <trkpt lat="59.079194068908691" lon="30.012052059173584">
        <time>2026-04-25T10:40:10Z</time>
      </trkpt>
      <trkpt lat="59.079172611236572" lon="30.011966228485107">
        <time>2026-04-25T10:40:13Z</time>
      </trkpt>
      <trkpt lat="59.079172611236572" lon="30.011816024780273">
        <time>2026-04-25T10:40:15Z</time>
      </trkpt>
      <trkpt lat="59.079172611236572" lon="30.011751651763916">
        <time>2026-04-25T10:40:18Z</time>
      </trkpt>
      <trkpt lat="59.079172611236572" lon="30.01164436340332">
        <time>2026-04-25T10:40:20Z</time>
      </trkpt>
      <trkpt lat="59.079172611236572" lon="30.011601448059082">
        <time>2026-04-25T10:40:23Z</time>
      </trkpt>
      <trkpt lat="59.079194068908691" lon="30.011537075042725">
        <time>2026-04-25T10:40:25Z</time>
      </trkpt>
      <trkpt lat="59.079194068908691" lon="30.011494159698486">
        <time>2026-04-25T10:40:28Z</time>
      </trkpt>
      <trkpt lat="59.079215526580811" lon="30.011451244354248">
        <time>2026-04-25T10:40:30Z</time>
      </trkpt>
      <trkpt lat="59.079215526580811" lon="30.011386871337891">
        <time>2026-04-25T10:40:33Z</time>
      </trkpt>
      <trkpt lat="59.07923698425293" lon="30.011322498321533">
        <time>2026-04-25T10:40:35Z</time>
      </trkpt>
      <trkpt lat="59.07923698425293" lon="30.011279582977295">
        <time>2026-04-25T10:40:38Z</time>
      </trkpt>
      <trkpt lat="59.079258441925049" lon="30.011258125305176">
        <time>2026-04-25T10:40:40Z</time>
      </trkpt>
      <trkpt lat="59.079258441925049" lon="30.011236667633057">
        <time>2026-04-25T10:40:43Z</time>
      </trkpt>
      <trkpt lat="59.079279899597168" lon="30.011215209960938">
        <time>2026-04-25T10:40:45Z</time>
      </trkpt>
      <trkpt lat="59.079279899597168" lon="30.011215209960938">
        <time>2026-04-25T10:40:48Z</time>
      </trkpt>
      <trkpt lat="59.079279899597168" lon="30.011215209960938">
        <time>2026-04-25T10:40:50Z</time>
      </trkpt>
      <trkpt lat="59.079279899597168" lon="30.011215209960938">
        <time>2026-04-25T10:40:53Z</time>
      </trkpt>
      <trkpt lat="59.079258441925049" lon="30.011193752288818">
        <time>2026-04-25T10:40:55Z</time>
      </trkpt>
      <trkpt lat="59.079258441925049" lon="30.011172294616699">
        <time>2026-04-25T10:40:58Z</time>
      </trkpt>
      <trkpt lat="59.07923698425293" lon="30.01115083694458">
        <time>2026-04-25T10:41:00Z</time>
      </trkpt>
      <trkpt lat="59.079215526580811" lon="30.011172294616699">
        <time>2026-04-25T10:41:03Z</time>
      </trkpt>
      <trkpt lat="59.079172611236572" lon="30.011172294616699">
        <time>2026-04-25T10:41:05Z</time>
      </trkpt>
      <trkpt lat="59.079151153564453" lon="30.011193752288818">
        <time>2026-04-25T10:41:08Z</time>
      </trkpt>
      <trkpt lat="59.079108238220215" lon="30.011215209960938">
        <time>2026-04-25T10:41:10Z</time>
      </trkpt>
      <trkpt lat="59.079065322875977" lon="30.011236667633057">
        <time>2026-04-25T10:41:13Z</time>
      </trkpt>
      <trkpt lat="59.079022407531738" lon="30.011258125305176">
        <time>2026-04-25T10:41:15Z</time>
      </trkpt>
      <trkpt lat="59.079000949859619" lon="30.011258125305176">
        <time>2026-04-25T10:41:18Z</time>
      </trkpt>
      <trkpt lat="59.0789794921875" lon="30.011279582977295">
        <time>2026-04-25T10:41:20Z</time>
      </trkpt>
      <trkpt lat="59.078958034515381" lon="30.011301040649414">
        <time>2026-04-25T10:41:23Z</time>
      </trkpt>
      <trkpt lat="59.078936576843262" lon="30.011279582977295">
        <time>2026-04-25T10:41:25Z</time>
      </trkpt>
      <trkpt lat="59.078915119171143" lon="30.011258125305176">
        <time>2026-04-25T10:41:28Z</time>
      </trkpt>
      <trkpt lat="59.078893661499023" lon="30.011258125305176">
        <time>2026-04-25T10:41:30Z</time>
      </trkpt>
      <trkpt lat="59.078893661499023" lon="30.011258125305176">
        <time>2026-04-25T10:41:33Z</time>
      </trkpt>
      <trkpt lat="59.078850746154785" lon="30.011301040649414">
        <time>2026-04-25T10:41:35Z</time>
      </trkpt>
      <trkpt lat="59.078850746154785" lon="30.011343955993652">
        <time>2026-04-25T10:41:38Z</time>
      </trkpt>
      <trkpt lat="59.078807830810547" lon="30.011429786682129">
        <time>2026-04-25T10:41:40Z</time>
      </trkpt>
      <trkpt lat="59.078786373138428" lon="30.011494159698486">
        <time>2026-04-25T10:41:43Z</time>
      </trkpt>
      <trkpt lat="59.078764915466309" lon="30.011579990386963">
        <time>2026-04-25T10:41:45Z</time>
      </trkpt>
      <trkpt lat="59.078764915466309" lon="30.011665821075439">
        <time>2026-04-25T10:41:48Z</time>
      </trkpt>
      <trkpt lat="59.078743457794189" lon="30.011751651763916">
        <time>2026-04-25T10:41:50Z</time>
      </trkpt>
      <trkpt lat="59.07872200012207" lon="30.011858940124512">
        <time>2026-04-25T10:41:53Z</time>
      </trkpt>
      <trkpt lat="59.078700542449951" lon="30.011987686157227">
        <time>2026-04-25T10:41:55Z</time>
      </trkpt>
      <trkpt lat="59.078700542449951" lon="30.012094974517822">
        <time>2026-04-25T10:41:58Z</time>
      </trkpt>
      <trkpt lat="59.078679084777832" lon="30.012223720550537">
        <time>2026-04-25T10:42:00Z</time>
      </trkpt>
      <trkpt lat="59.078679084777832" lon="30.012288093566895">
        <time>2026-04-25T10:42:03Z</time>
      </trkpt>
      <trkpt lat="59.078700542449951" lon="30.012373924255371">
        <time>2026-04-25T10:42:05Z</time>
      </trkpt>
      <trkpt lat="59.078700542449951" lon="30.012459754943848">
        <time>2026-04-25T10:42:08Z</time>
      </trkpt>
      <trkpt lat="59.07872200012207" lon="30.012588500976563">
        <time>2026-04-25T10:42:10Z</time>
      </trkpt>
      <trkpt lat="59.078743457794189" lon="30.01265287399292">
        <time>2026-04-25T10:42:13Z</time>
      </trkpt>
      <trkpt lat="59.078764915466309" lon="30.012717247009277">
        <time>2026-04-25T10:42:15Z</time>
      </trkpt>
      <trkpt lat="59.078786373138428" lon="30.012781620025635">
        <time>2026-04-25T10:42:18Z</time>
      </trkpt>
      <trkpt lat="59.078807830810547" lon="30.012845993041992">
        <time>2026-04-25T10:42:20Z</time>
      </trkpt>
      <trkpt lat="59.078829288482666" lon="30.01288890838623">
        <time>2026-04-25T10:42:23Z</time>
      </trkpt>
      <trkpt lat="59.078850746154785" lon="30.012953281402588">
        <time>2026-04-25T10:42:25Z</time>
      </trkpt>
      <trkpt lat="59.078872203826904" lon="30.012996196746826">
        <time>2026-04-25T10:42:28Z</time>
      </trkpt>
      <trkpt lat="59.078893661499023" lon="30.013060569763184">
        <time>2026-04-25T10:42:30Z</time>
      </trkpt>
      <trkpt lat="59.078915119171143" lon="30.013060569763184">
        <time>2026-04-25T10:42:33Z</time>
      </trkpt>
      <trkpt lat="59.078915119171143" lon="30.013060569763184">
        <time>2026-04-25T10:42:35Z</time>
      </trkpt>
      <trkpt lat="59.078915119171143" lon="30.013060569763184">
        <time>2026-04-25T10:42:38Z</time>
      </trkpt>
      <trkpt lat="59.078915119171143" lon="30.013060569763184">
        <time>2026-04-25T10:42:40Z</time>
      </trkpt>
      <trkpt lat="59.078915119171143" lon="30.013060569763184">
        <time>2026-04-25T10:42:43Z</time>
      </trkpt>
      <trkpt lat="59.078936576843262" lon="30.013082027435303">
        <time>2026-04-25T10:42:45Z</time>
      </trkpt>
      <trkpt lat="59.078936576843262" lon="30.013124942779541">
        <time>2026-04-25T10:42:48Z</time>
      </trkpt>
      <trkpt lat="59.078936576843262" lon="30.013210773468018">
        <time>2026-04-25T10:42:50Z</time>
      </trkpt>
      <trkpt lat="59.078958034515381" lon="30.013275146484375">
        <time>2026-04-25T10:42:53Z</time>
      </trkpt>
      <trkpt lat="59.078958034515381" lon="30.013318061828613">
        <time>2026-04-25T10:42:55Z</time>
      </trkpt>
      <trkpt lat="59.0789794921875" lon="30.013339519500732">
        <time>2026-04-25T10:42:58Z</time>
      </trkpt>
      <trkpt lat="59.079043865203857" lon="30.01340389251709">
        <time>2026-04-25T10:43:00Z</time>
      </trkpt>
      <trkpt lat="59.079065322875977" lon="30.013425350189209">
        <time>2026-04-25T10:43:03Z</time>
      </trkpt>
      <trkpt lat="59.079086780548096" lon="30.013468265533447">
        <time>2026-04-25T10:43:05Z</time>
      </trkpt>
      <trkpt lat="59.079086780548096" lon="30.013489723205566">
        <time>2026-04-25T10:43:08Z</time>
      </trkpt>
      <trkpt lat="59.079129695892334" lon="30.013489723205566">
        <time>2026-04-25T10:43:10Z</time>
      </trkpt>
      <trkpt lat="59.079151153564453" lon="30.013468265533447">
        <time>2026-04-25T10:43:13Z</time>
      </trkpt>
      <trkpt lat="59.079151153564453" lon="30.01340389251709">
        <time>2026-04-25T10:43:15Z</time>
      </trkpt>
      <trkpt lat="59.079151153564453" lon="30.013318061828613">
        <time>2026-04-25T10:43:18Z</time>
      </trkpt>
      <trkpt lat="59.079194068908691" lon="30.013189315795898">
        <time>2026-04-25T10:43:20Z</time>
      </trkpt>
      <trkpt lat="59.079215526580811" lon="30.01314640045166">
        <time>2026-04-25T10:43:23Z</time>
      </trkpt>
      <trkpt lat="59.07923698425293" lon="30.012996196746826">
        <time>2026-04-25T10:43:25Z</time>
      </trkpt>
      <trkpt lat="59.07923698425293" lon="30.012845993041992">
        <time>2026-04-25T10:43:28Z</time>
      </trkpt>
      <trkpt lat="59.079258441925049" lon="30.01265287399292">
        <time>2026-04-25T10:43:30Z</time>
      </trkpt>
      <trkpt lat="59.079258441925049" lon="30.012545585632324">
        <time>2026-04-25T10:43:33Z</time>
      </trkpt>
      <trkpt lat="59.07923698425293" lon="30.012373924255371">
        <time>2026-04-25T10:43:35Z</time>
      </trkpt>
      <trkpt lat="59.07923698425293" lon="30.012288093566895">
        <time>2026-04-25T10:43:38Z</time>
      </trkpt>
      <trkpt lat="59.079194068908691" lon="30.01215934753418">
        <time>2026-04-25T10:43:40Z</time>
      </trkpt>
      <trkpt lat="59.079172611236572" lon="30.012052059173584">
        <time>2026-04-25T10:43:43Z</time>
      </trkpt>
      <trkpt lat="59.079129695892334" lon="30.011944770812988">
        <time>2026-04-25T10:43:45Z</time>
      </trkpt>
      <trkpt lat="59.079108238220215" lon="30.011858940124512">
        <time>2026-04-25T10:43:48Z</time>
      </trkpt>
      <trkpt lat="59.079022407531738" lon="30.011794567108154">
        <time>2026-04-25T10:43:50Z</time>
      </trkpt>
      <trkpt lat="59.079000949859619" lon="30.011751651763916">
        <time>2026-04-25T10:43:53Z</time>
      </trkpt>
      <trkpt lat="59.079000949859619" lon="30.011730194091797">
        <time>2026-04-25T10:43:55Z</time>
      </trkpt>
      <trkpt lat="59.079000949859619" lon="30.011751651763916">
        <time>2026-04-25T10:43:58Z</time>
      </trkpt>
      <trkpt lat="59.0789794921875" lon="30.011816024780273">
        <time>2026-04-25T10:44:00Z</time>
      </trkpt>
      <trkpt lat="59.078936576843262" lon="30.01190185546875">
        <time>2026-04-25T10:44:03Z</time>
      </trkpt>
      <trkpt lat="59.078893661499023" lon="30.011944770812988">
        <time>2026-04-25T10:44:05Z</time>
      </trkpt>
      <trkpt lat="59.078872203826904" lon="30.011966228485107">
        <time>2026-04-25T10:44:08Z</time>
      </trkpt>
      <trkpt lat="59.078807830810547" lon="30.012052059173584">
        <time>2026-04-25T10:44:10Z</time>
      </trkpt>
      <trkpt lat="59.078764915466309" lon="30.012137889862061">
        <time>2026-04-25T10:44:13Z</time>
      </trkpt>
      <trkpt lat="59.078743457794189" lon="30.012266635894775">
        <time>2026-04-25T10:44:15Z</time>
      </trkpt>
      <trkpt lat="59.078700542449951" lon="30.012352466583252">
        <time>2026-04-25T10:44:18Z</time>
      </trkpt>
      <trkpt lat="59.078657627105713" lon="30.012438297271729">
        <time>2026-04-25T10:44:20Z</time>
      </trkpt>
      <trkpt lat="59.078657627105713" lon="30.012502670288086">
        <time>2026-04-25T10:44:23Z</time>
      </trkpt>
      <trkpt lat="59.078614711761475" lon="30.012609958648682">
        <time>2026-04-25T10:44:25Z</time>
      </trkpt>
      <trkpt lat="59.078593254089355" lon="30.012695789337158">
        <time>2026-04-25T10:44:28Z</time>
      </trkpt>
      <trkpt lat="59.078571796417236" lon="30.012781620025635">
        <time>2026-04-25T10:44:30Z</time>
      </trkpt>
      <trkpt lat="59.078528881072998" lon="30.012845993041992">
        <time>2026-04-25T10:44:33Z</time>
      </trkpt>
      <trkpt lat="59.078507423400879" lon="30.012953281402588">
        <time>2026-04-25T10:44:35Z</time>
      </trkpt>
      <trkpt lat="59.07848596572876" lon="30.013039112091064">
        <time>2026-04-25T10:44:38Z</time>
      </trkpt>
      <trkpt lat="59.07848596572876" lon="30.01314640045166">
        <time>2026-04-25T10:44:40Z</time>
      </trkpt>
      <trkpt lat="59.07848596572876" lon="30.013232231140137">
        <time>2026-04-25T10:44:43Z</time>
      </trkpt>
      <trkpt lat="59.07848596572876" lon="30.013339519500732">
        <time>2026-04-25T10:44:45Z</time>
      </trkpt>
      <trkpt lat="59.07848596572876" lon="30.013425350189209">
        <time>2026-04-25T10:44:48Z</time>
      </trkpt>
      <trkpt lat="59.07848596572876" lon="30.013532638549805">
        <time>2026-04-25T10:44:50Z</time>
      </trkpt>
      <trkpt lat="59.07848596572876" lon="30.013597011566162">
        <time>2026-04-25T10:44:53Z</time>
      </trkpt>
      <trkpt lat="59.078507423400879" lon="30.013704299926758">
        <time>2026-04-25T10:44:55Z</time>
      </trkpt>
      <trkpt lat="59.078507423400879" lon="30.013725757598877">
        <time>2026-04-25T10:44:58Z</time>
      </trkpt>
      <trkpt lat="59.078507423400879" lon="30.013768672943115">
        <time>2026-04-25T10:45:00Z</time>
      </trkpt>
      <trkpt lat="59.078507423400879" lon="30.013790130615234">
        <time>2026-04-25T10:45:03Z</time>
      </trkpt>
      <trkpt lat="59.078528881072998" lon="30.013811588287354">
        <time>2026-04-25T10:45:05Z</time>
      </trkpt>
      <trkpt lat="59.078528881072998" lon="30.013811588287354">
        <time>2026-04-25T10:45:08Z</time>
      </trkpt>
      <trkpt lat="59.078528881072998" lon="30.013811588287354">
        <time>2026-04-25T10:45:10Z</time>
      </trkpt>
      <trkpt lat="59.078528881072998" lon="30.013811588287354">
        <time>2026-04-25T10:45:13Z</time>
      </trkpt>
      <trkpt lat="59.078528881072998" lon="30.013790130615234">
        <time>2026-04-25T10:45:15Z</time>
      </trkpt>
      <trkpt lat="59.078550338745117" lon="30.013790130615234">
        <time>2026-04-25T10:45:18Z</time>
      </trkpt>
      <trkpt lat="59.078571796417236" lon="30.013790130615234">
        <time>2026-04-25T10:45:20Z</time>
      </trkpt>
      <trkpt lat="59.078593254089355" lon="30.013790130615234">
        <time>2026-04-25T10:45:23Z</time>
      </trkpt>
      <trkpt lat="59.078614711761475" lon="30.013811588287354">
        <time>2026-04-25T10:45:25Z</time>
      </trkpt>
      <trkpt lat="59.078657627105713" lon="30.013811588287354">
        <time>2026-04-25T10:45:28Z</time>
      </trkpt>
      <trkpt lat="59.078700542449951" lon="30.013768672943115">
        <time>2026-04-25T10:45:30Z</time>
      </trkpt>
      <trkpt lat="59.07872200012207" lon="30.013747215270996">
        <time>2026-04-25T10:45:33Z</time>
      </trkpt>
      <trkpt lat="59.078743457794189" lon="30.013704299926758">
        <time>2026-04-25T10:45:35Z</time>
      </trkpt>
      <trkpt lat="59.078743457794189" lon="30.013682842254639">
        <time>2026-04-25T10:45:38Z</time>
      </trkpt>
      <trkpt lat="59.078764915466309" lon="30.0136399269104">
        <time>2026-04-25T10:45:40Z</time>
      </trkpt>
      <trkpt lat="59.078764915466309" lon="30.013618469238281">
        <time>2026-04-25T10:45:43Z</time>
      </trkpt>
      <trkpt lat="59.078786373138428" lon="30.013597011566162">
        <time>2026-04-25T10:45:45Z</time>
      </trkpt>
      <trkpt lat="59.078786373138428" lon="30.013597011566162">
        <time>2026-04-25T10:45:48Z</time>
      </trkpt>
      <trkpt lat="59.078807830810547" lon="30.013575553894043">
        <time>2026-04-25T10:45:50Z</time>
      </trkpt>
      <trkpt lat="59.078807830810547" lon="30.013575553894043">
        <time>2026-04-25T10:45:53Z</time>
      </trkpt>
      <trkpt lat="59.078807830810547" lon="30.013554096221924">
        <time>2026-04-25T10:45:55Z</time>
      </trkpt>
      <trkpt lat="59.078807830810547" lon="30.013554096221924">
        <time>2026-04-25T10:45:58Z</time>
      </trkpt>
      <trkpt lat="59.078807830810547" lon="30.013554096221924">
        <time>2026-04-25T10:46:00Z</time>
      </trkpt>
      <trkpt lat="59.078807830810547" lon="30.013554096221924">
        <time>2026-04-25T10:46:03Z</time>
      </trkpt>
      <trkpt lat="59.078829288482666" lon="30.013554096221924">
        <time>2026-04-25T10:46:05Z</time>
      </trkpt>
      <trkpt lat="59.078850746154785" lon="30.013554096221924">
        <time>2026-04-25T10:46:08Z</time>
      </trkpt>
      <trkpt lat="59.078850746154785" lon="30.013575553894043">
        <time>2026-04-25T10:46:10Z</time>
      </trkpt>
      <trkpt lat="59.078850746154785" lon="30.013597011566162">
        <time>2026-04-25T10:46:13Z</time>
      </trkpt>
      <trkpt lat="59.078850746154785" lon="30.013532638549805">
        <time>2026-04-25T10:46:15Z</time>
      </trkpt>
      <trkpt lat="59.078829288482666" lon="30.013511180877686">
        <time>2026-04-25T10:46:18Z</time>
      </trkpt>
      <trkpt lat="59.078829288482666" lon="30.013532638549805">
        <time>2026-04-25T10:46:20Z</time>
      </trkpt>
      <trkpt lat="59.078829288482666" lon="30.013532638549805">
        <time>2026-04-25T10:46:23Z</time>
      </trkpt>
      <trkpt lat="59.078807830810547" lon="30.013511180877686">
        <time>2026-04-25T10:46:25Z</time>
      </trkpt>
      <trkpt lat="59.078829288482666" lon="30.013511180877686">
        <time>2026-04-25T10:46:28Z</time>
      </trkpt>
      <trkpt lat="59.078850746154785" lon="30.013511180877686">
        <time>2026-04-25T10:46:30Z</time>
      </trkpt>
      <trkpt lat="59.078850746154785" lon="30.013489723205566">
        <time>2026-04-25T10:46:33Z</time>
      </trkpt>
      <trkpt lat="59.078872203826904" lon="30.013446807861328">
        <time>2026-04-25T10:46:35Z</time>
      </trkpt>
      <trkpt lat="59.078893661499023" lon="30.013446807861328">
        <time>2026-04-25T10:46:38Z</time>
      </trkpt>
      <trkpt lat="59.078915119171143" lon="30.01340389251709">
        <time>2026-04-25T10:46:40Z</time>
      </trkpt>
      <trkpt lat="59.078936576843262" lon="30.01340389251709">
        <time>2026-04-25T10:46:43Z</time>
      </trkpt>
      <trkpt lat="59.078958034515381" lon="30.013360977172852">
        <time>2026-04-25T10:46:45Z</time>
      </trkpt>
      <trkpt lat="59.0789794921875" lon="30.013360977172852">
        <time>2026-04-25T10:46:48Z</time>
      </trkpt>
      <trkpt lat="59.079000949859619" lon="30.013360977172852">
        <time>2026-04-25T10:46:50Z</time>
      </trkpt>
      <trkpt lat="59.079000949859619" lon="30.013382434844971">
        <time>2026-04-25T10:46:53Z</time>
      </trkpt>
      <trkpt lat="59.079000949859619" lon="30.013382434844971">
        <time>2026-04-25T10:46:55Z</time>
      </trkpt>
      <trkpt lat="59.079022407531738" lon="30.013382434844971">
        <time>2026-04-25T10:46:58Z</time>
      </trkpt>
      <trkpt lat="59.079000949859619" lon="30.01340389251709">
        <time>2026-04-25T10:47:00Z</time>
      </trkpt>
      <trkpt lat="59.079000949859619" lon="30.01340389251709">
        <time>2026-04-25T10:47:03Z</time>
      </trkpt>
      <trkpt lat="59.0789794921875" lon="30.013446807861328">
        <time>2026-04-25T10:47:05Z</time>
      </trkpt>
      <trkpt lat="59.0789794921875" lon="30.013489723205566">
        <time>2026-04-25T10:47:08Z</time>
      </trkpt>
      <trkpt lat="59.0789794921875" lon="30.013554096221924">
        <time>2026-04-25T10:47:10Z</time>
      </trkpt>
      <trkpt lat="59.0789794921875" lon="30.013618469238281">
        <time>2026-04-25T10:47:13Z</time>
      </trkpt>
      <trkpt lat="59.0789794921875" lon="30.013704299926758">
        <time>2026-04-25T10:47:15Z</time>
      </trkpt>
      <trkpt lat="59.079000949859619" lon="30.013747215270996">
        <time>2026-04-25T10:47:18Z</time>
      </trkpt>
      <trkpt lat="59.079022407531738" lon="30.013790130615234">
        <time>2026-04-25T10:47:20Z</time>
      </trkpt>
      <trkpt lat="59.079043865203857" lon="30.013833045959473">
        <time>2026-04-25T10:47:23Z</time>
      </trkpt>
      <trkpt lat="59.079043865203857" lon="30.013918876647949">
        <time>2026-04-25T10:47:25Z</time>
      </trkpt>
      <trkpt lat="59.079043865203857" lon="30.013961791992188">
        <time>2026-04-25T10:47:28Z</time>
      </trkpt>
      <trkpt lat="59.079022407531738" lon="30.014026165008545">
        <time>2026-04-25T10:47:30Z</time>
      </trkpt>
      <trkpt lat="59.079022407531738" lon="30.014026165008545">
        <time>2026-04-25T10:47:33Z</time>
      </trkpt>
      <trkpt lat="59.079022407531738" lon="30.014026165008545">
        <time>2026-04-25T10:47:35Z</time>
      </trkpt>
      <trkpt lat="59.079000949859619" lon="30.014004707336426">
        <time>2026-04-25T10:47:38Z</time>
      </trkpt>
      <trkpt lat="59.079000949859619" lon="30.014004707336426">
        <time>2026-04-25T10:47:40Z</time>
      </trkpt>
      <trkpt lat="59.0789794921875" lon="30.014004707336426">
        <time>2026-04-25T10:47:43Z</time>
      </trkpt>
      <trkpt lat="59.078958034515381" lon="30.014069080352783">
        <time>2026-04-25T10:47:45Z</time>
      </trkpt>
      <trkpt lat="59.078958034515381" lon="30.014133453369141">
        <time>2026-04-25T10:47:48Z</time>
      </trkpt>
      <trkpt lat="59.078915119171143" lon="30.014176368713379">
        <time>2026-04-25T10:47:50Z</time>
      </trkpt>
      <trkpt lat="59.078915119171143" lon="30.014219284057617">
        <time>2026-04-25T10:47:53Z</time>
      </trkpt>
      <trkpt lat="59.078893661499023" lon="30.014262199401855">
        <time>2026-04-25T10:47:55Z</time>
      </trkpt>
      <trkpt lat="59.078872203826904" lon="30.014305114746094">
        <time>2026-04-25T10:47:58Z</time>
      </trkpt>
      <trkpt lat="59.078850746154785" lon="30.014348030090332">
        <time>2026-04-25T10:48:00Z</time>
      </trkpt>
      <trkpt lat="59.078872203826904" lon="30.014369487762451">
        <time>2026-04-25T10:48:03Z</time>
      </trkpt>
      <trkpt lat="59.078872203826904" lon="30.014412403106689">
        <time>2026-04-25T10:48:05Z</time>
      </trkpt>
      <trkpt lat="59.078872203826904" lon="30.014455318450928">
        <time>2026-04-25T10:48:08Z</time>
      </trkpt>
      <trkpt lat="59.078893661499023" lon="30.014519691467285">
        <time>2026-04-25T10:48:10Z</time>
      </trkpt>
      <trkpt lat="59.078915119171143" lon="30.014562606811523">
        <time>2026-04-25T10:48:13Z</time>
      </trkpt>
      <trkpt lat="59.078936576843262" lon="30.014562606811523">
        <time>2026-04-25T10:48:15Z</time>
      </trkpt>
      <trkpt lat="59.078936576843262" lon="30.014562606811523">
        <time>2026-04-25T10:48:18Z</time>
      </trkpt>
      <trkpt lat="59.078958034515381" lon="30.014584064483643">
        <time>2026-04-25T10:48:20Z</time>
      </trkpt>
      <trkpt lat="59.079000949859619" lon="30.014605522155762">
        <time>2026-04-25T10:48:23Z</time>
      </trkpt>
      <trkpt lat="59.079022407531738" lon="30.014605522155762">
        <time>2026-04-25T10:48:25Z</time>
      </trkpt>
      <trkpt lat="59.079043865203857" lon="30.014605522155762">
        <time>2026-04-25T10:48:28Z</time>
      </trkpt>
      <trkpt lat="59.079065322875977" lon="30.014605522155762">
        <time>2026-04-25T10:48:30Z</time>
      </trkpt>
      <trkpt lat="59.079065322875977" lon="30.0146484375">
        <time>2026-04-25T10:48:33Z</time>
      </trkpt>
      <trkpt lat="59.079043865203857" lon="30.014691352844238">
        <time>2026-04-25T10:48:35Z</time>
      </trkpt>
      <trkpt lat="59.079000949859619" lon="30.014712810516357">
        <time>2026-04-25T10:48:38Z</time>
      </trkpt>
      <trkpt lat="59.078958034515381" lon="30.014691352844238">
        <time>2026-04-25T10:48:40Z</time>
      </trkpt>
      <trkpt lat="59.078915119171143" lon="30.014691352844238">
        <time>2026-04-25T10:48:43Z</time>
      </trkpt>
      <trkpt lat="59.078872203826904" lon="30.014712810516357">
        <time>2026-04-25T10:48:45Z</time>
      </trkpt>
      <trkpt lat="59.078829288482666" lon="30.014734268188477">
        <time>2026-04-25T10:48:48Z</time>
      </trkpt>
      <trkpt lat="59.078764915466309" lon="30.014755725860596">
        <time>2026-04-25T10:48:50Z</time>
      </trkpt>
      <trkpt lat="59.078700542449951" lon="30.014777183532715">
        <time>2026-04-25T10:48:53Z</time>
      </trkpt>
      <trkpt lat="59.078657627105713" lon="30.014755725860596">
        <time>2026-04-25T10:48:55Z</time>
      </trkpt>
      <trkpt lat="59.078657627105713" lon="30.014755725860596">
        <time>2026-04-25T10:48:58Z</time>
      </trkpt>
      <trkpt lat="59.078636169433594" lon="30.014712810516357">
        <time>2026-04-25T10:49:00Z</time>
      </trkpt>
      <trkpt lat="59.078614711761475" lon="30.014669895172119">
        <time>2026-04-25T10:49:03Z</time>
      </trkpt>
      <trkpt lat="59.078614711761475" lon="30.014562606811523">
        <time>2026-04-25T10:49:05Z</time>
      </trkpt>
      <trkpt lat="59.078614711761475" lon="30.014476776123047">
        <time>2026-04-25T10:49:08Z</time>
      </trkpt>
      <trkpt lat="59.078636169433594" lon="30.014369487762451">
        <time>2026-04-25T10:49:10Z</time>
      </trkpt>
      <trkpt lat="59.078636169433594" lon="30.014326572418213">
        <time>2026-04-25T10:49:13Z</time>
      </trkpt>
      <trkpt lat="59.078636169433594" lon="30.014283657073975">
        <time>2026-04-25T10:49:15Z</time>
      </trkpt>
      <trkpt lat="59.078636169433594" lon="30.014262199401855">
        <time>2026-04-25T10:49:18Z</time>
      </trkpt>
      <trkpt lat="59.078657627105713" lon="30.014240741729736">
        <time>2026-04-25T10:49:20Z</time>
      </trkpt>
      <trkpt lat="59.078657627105713" lon="30.014219284057617">
        <time>2026-04-25T10:49:23Z</time>
      </trkpt>
      <trkpt lat="59.078636169433594" lon="30.014219284057617">
        <time>2026-04-25T10:49:25Z</time>
      </trkpt>
      <trkpt lat="59.078636169433594" lon="30.014219284057617">
        <time>2026-04-25T10:49:28Z</time>
      </trkpt>
      <trkpt lat="59.078636169433594" lon="30.014219284057617">
        <time>2026-04-25T10:49:30Z</time>
      </trkpt>
      <trkpt lat="59.078636169433594" lon="30.014197826385498">
        <time>2026-04-25T10:49:33Z</time>
      </trkpt>
      <trkpt lat="59.078614711761475" lon="30.014197826385498">
        <time>2026-04-25T10:49:35Z</time>
      </trkpt>
      <trkpt lat="59.078614711761475" lon="30.014197826385498">
        <time>2026-04-25T10:49:38Z</time>
      </trkpt>
      <trkpt lat="59.078614711761475" lon="30.014197826385498">
        <time>2026-04-25T10:49:40Z</time>
      </trkpt>
      <trkpt lat="59.078614711761475" lon="30.014197826385498">
        <time>2026-04-25T10:49:43Z</time>
      </trkpt>
      <trkpt lat="59.078614711761475" lon="30.014197826385498">
        <time>2026-04-25T10:49:45Z</time>
      </trkpt>
      <trkpt lat="59.078614711761475" lon="30.014197826385498">
        <time>2026-04-25T10:49:48Z</time>
      </trkpt>
      <trkpt lat="59.078614711761475" lon="30.014197826385498">
        <time>2026-04-25T10:49:50Z</time>
      </trkpt>
      <trkpt lat="59.078614711761475" lon="30.014176368713379">
        <time>2026-04-25T10:49:53Z</time>
      </trkpt>
      <trkpt lat="59.078614711761475" lon="30.01415491104126">
        <time>2026-04-25T10:49:55Z</time>
      </trkpt>
      <trkpt lat="59.078614711761475" lon="30.01415491104126">
        <time>2026-04-25T10:49:58Z</time>
      </trkpt>
      <trkpt lat="59.078614711761475" lon="30.014111995697021">
        <time>2026-04-25T10:50:00Z</time>
      </trkpt>
      <trkpt lat="59.078614711761475" lon="30.014069080352783">
        <time>2026-04-25T10:50:03Z</time>
      </trkpt>
      <trkpt lat="59.078636169433594" lon="30.014047622680664">
        <time>2026-04-25T10:50:05Z</time>
      </trkpt>
      <trkpt lat="59.078614711761475" lon="30.014047622680664">
        <time>2026-04-25T10:50:08Z</time>
      </trkpt>
      <trkpt lat="59.078614711761475" lon="30.014026165008545">
        <time>2026-04-25T10:50:10Z</time>
      </trkpt>
      <trkpt lat="59.078614711761475" lon="30.014026165008545">
        <time>2026-04-25T10:50:13Z</time>
      </trkpt>
      <trkpt lat="59.078614711761475" lon="30.014026165008545">
        <time>2026-04-25T10:50:15Z</time>
      </trkpt>
      <trkpt lat="59.078614711761475" lon="30.014026165008545">
        <time>2026-04-25T10:50:18Z</time>
      </trkpt>
      <trkpt lat="59.078614711761475" lon="30.014026165008545">
        <time>2026-04-25T10:50:20Z</time>
      </trkpt>
      <trkpt lat="59.078614711761475" lon="30.014026165008545">
        <time>2026-04-25T10:50:23Z</time>
      </trkpt>
      <trkpt lat="59.078614711761475" lon="30.013961791992188">
        <time>2026-04-25T10:50:25Z</time>
      </trkpt>
      <trkpt lat="59.078593254089355" lon="30.013940334320068">
        <time>2026-04-25T10:50:28Z</time>
      </trkpt>
      <trkpt lat="59.078593254089355" lon="30.013918876647949">
        <time>2026-04-25T10:50:30Z</time>
      </trkpt>
      <trkpt lat="59.078571796417236" lon="30.013918876647949">
        <time>2026-04-25T10:50:33Z</time>
      </trkpt>
      <trkpt lat="59.078550338745117" lon="30.013918876647949">
        <time>2026-04-25T10:50:35Z</time>
      </trkpt>
      <trkpt lat="59.078550338745117" lon="30.013918876647949">
        <time>2026-04-25T10:50:38Z</time>
      </trkpt>
      <trkpt lat="59.078550338745117" lon="30.013918876647949">
        <time>2026-04-25T10:50:40Z</time>
      </trkpt>
      <trkpt lat="59.078550338745117" lon="30.01389741897583">
        <time>2026-04-25T10:50:43Z</time>
      </trkpt>
      <trkpt lat="59.078550338745117" lon="30.013833045959473">
        <time>2026-04-25T10:50:45Z</time>
      </trkpt>
      <trkpt lat="59.078550338745117" lon="30.013811588287354">
        <time>2026-04-25T10:50:48Z</time>
      </trkpt>
      <trkpt lat="59.078507423400879" lon="30.013768672943115">
        <time>2026-04-25T10:50:50Z</time>
      </trkpt>
      <trkpt lat="59.07848596572876" lon="30.013768672943115">
        <time>2026-04-25T10:50:53Z</time>
      </trkpt>
      <trkpt lat="59.078464508056641" lon="30.013747215270996">
        <time>2026-04-25T10:50:55Z</time>
      </trkpt>
      <trkpt lat="59.078443050384521" lon="30.013725757598877">
        <time>2026-04-25T10:50:58Z</time>
      </trkpt>
      <trkpt lat="59.078421592712402" lon="30.013682842254639">
        <time>2026-04-25T10:51:00Z</time>
      </trkpt>
      <trkpt lat="59.078421592712402" lon="30.0136399269104">
        <time>2026-04-25T10:51:03Z</time>
      </trkpt>
      <trkpt lat="59.078421592712402" lon="30.013511180877686">
        <time>2026-04-25T10:51:05Z</time>
      </trkpt>
      <trkpt lat="59.078421592712402" lon="30.013425350189209">
        <time>2026-04-25T10:51:08Z</time>
      </trkpt>
      <trkpt lat="59.078421592712402" lon="30.013339519500732">
        <time>2026-04-25T10:51:10Z</time>
      </trkpt>
      <trkpt lat="59.078400135040283" lon="30.013275146484375">
        <time>2026-04-25T10:51:13Z</time>
      </trkpt>
      <trkpt lat="59.078400135040283" lon="30.013189315795898">
        <time>2026-04-25T10:51:15Z</time>
      </trkpt>
      <trkpt lat="59.078400135040283" lon="30.01314640045166">
        <time>2026-04-25T10:51:18Z</time>
      </trkpt>
      <trkpt lat="59.078378677368164" lon="30.013082027435303">
        <time>2026-04-25T10:51:20Z</time>
      </trkpt>
      <trkpt lat="59.078378677368164" lon="30.013060569763184">
        <time>2026-04-25T10:51:23Z</time>
      </trkpt>
      <trkpt lat="59.078335762023926" lon="30.013103485107422">
        <time>2026-04-25T10:51:25Z</time>
      </trkpt>
      <trkpt lat="59.078314304351807" lon="30.013124942779541">
        <time>2026-04-25T10:51:28Z</time>
      </trkpt>
      <trkpt lat="59.078292846679688" lon="30.01314640045166">
        <time>2026-04-25T10:51:30Z</time>
      </trkpt>
      <trkpt lat="59.078271389007568" lon="30.013189315795898">
        <time>2026-04-25T10:51:33Z</time>
      </trkpt>
      <trkpt lat="59.07822847366333" lon="30.013253688812256">
        <time>2026-04-25T10:51:35Z</time>
      </trkpt>
      <trkpt lat="59.078207015991211" lon="30.013318061828613">
        <time>2026-04-25T10:51:38Z</time>
      </trkpt>
      <trkpt lat="59.078164100646973" lon="30.013382434844971">
        <time>2026-04-25T10:51:40Z</time>
      </trkpt>
      <trkpt lat="59.078142642974854" lon="30.013425350189209">
        <time>2026-04-25T10:51:43Z</time>
      </trkpt>
      <trkpt lat="59.078142642974854" lon="30.013489723205566">
        <time>2026-04-25T10:51:45Z</time>
      </trkpt>
      <trkpt lat="59.078142642974854" lon="30.013489723205566">
        <time>2026-04-25T10:51:48Z</time>
      </trkpt>
      <trkpt lat="59.078164100646973" lon="30.013489723205566">
        <time>2026-04-25T10:51:50Z</time>
      </trkpt>
      <trkpt lat="59.078164100646973" lon="30.013511180877686">
        <time>2026-04-25T10:51:53Z</time>
      </trkpt>
      <trkpt lat="59.078142642974854" lon="30.013511180877686">
        <time>2026-04-25T10:51:55Z</time>
      </trkpt>
      <trkpt lat="59.078121185302734" lon="30.013554096221924">
        <time>2026-04-25T10:51:58Z</time>
      </trkpt>
      <trkpt lat="59.078099727630615" lon="30.013618469238281">
        <time>2026-04-25T10:52:00Z</time>
      </trkpt>
      <trkpt lat="59.078078269958496" lon="30.013704299926758">
        <time>2026-04-25T10:52:03Z</time>
      </trkpt>
      <trkpt lat="59.078035354614258" lon="30.013811588287354">
        <time>2026-04-25T10:52:05Z</time>
      </trkpt>
      <trkpt lat="59.078035354614258" lon="30.013875961303711">
        <time>2026-04-25T10:52:08Z</time>
      </trkpt>
      <trkpt lat="59.078013896942139" lon="30.013983249664307">
        <time>2026-04-25T10:52:10Z</time>
      </trkpt>
      <trkpt lat="59.07799243927002" lon="30.014026165008545">
        <time>2026-04-25T10:52:13Z</time>
      </trkpt>
      <trkpt lat="59.07799243927002" lon="30.014069080352783">
        <time>2026-04-25T10:52:15Z</time>
      </trkpt>
      <trkpt lat="59.07799243927002" lon="30.014090538024902">
        <time>2026-04-25T10:52:18Z</time>
      </trkpt>
      <trkpt lat="59.07799243927002" lon="30.014133453369141">
        <time>2026-04-25T10:52:20Z</time>
      </trkpt>
      <trkpt lat="59.07799243927002" lon="30.014176368713379">
        <time>2026-04-25T10:52:23Z</time>
      </trkpt>
      <trkpt lat="59.07799243927002" lon="30.014219284057617">
        <time>2026-04-25T10:52:25Z</time>
      </trkpt>
      <trkpt lat="59.07799243927002" lon="30.014240741729736">
        <time>2026-04-25T10:52:28Z</time>
      </trkpt>
      <trkpt lat="59.077949523925781" lon="30.014240741729736">
        <time>2026-04-25T10:52:30Z</time>
      </trkpt>
      <trkpt lat="59.077928066253662" lon="30.014262199401855">
        <time>2026-04-25T10:52:33Z</time>
      </trkpt>
      <trkpt lat="59.077906608581543" lon="30.014283657073975">
        <time>2026-04-25T10:52:35Z</time>
      </trkpt>
      <trkpt lat="59.077885150909424" lon="30.014305114746094">
        <time>2026-04-25T10:52:38Z</time>
      </trkpt>
      <trkpt lat="59.077863693237305" lon="30.014326572418213">
        <time>2026-04-25T10:52:43Z</time>
      </trkpt>
      <trkpt lat="59.077842235565186" lon="30.014348030090332">
        <time>2026-04-25T10:52:45Z</time>
      </trkpt>
      <trkpt lat="59.077820777893066" lon="30.014369487762451">
        <time>2026-04-25T10:52:48Z</time>
      </trkpt>
      <trkpt lat="59.077820777893066" lon="30.014455318450928">
        <time>2026-04-25T10:52:50Z</time>
      </trkpt>
      <trkpt lat="59.077820777893066" lon="30.014455318450928">
        <time>2026-04-25T10:52:53Z</time>
      </trkpt>
      <trkpt lat="59.077799320220947" lon="30.014498233795166">
        <time>2026-04-25T10:52:55Z</time>
      </trkpt>
      <trkpt lat="59.077777862548828" lon="30.014519691467285">
        <time>2026-04-25T10:52:58Z</time>
      </trkpt>
      <trkpt lat="59.077777862548828" lon="30.014541149139404">
        <time>2026-04-25T10:53:00Z</time>
      </trkpt>
      <trkpt lat="59.077756404876709" lon="30.014541149139404">
        <time>2026-04-25T10:53:03Z</time>
      </trkpt>
      <trkpt lat="59.077756404876709" lon="30.014541149139404">
        <time>2026-04-25T10:53:05Z</time>
      </trkpt>
      <trkpt lat="59.077756404876709" lon="30.014562606811523">
        <time>2026-04-25T10:53:08Z</time>
      </trkpt>
      <trkpt lat="59.07773494720459" lon="30.014562606811523">
        <time>2026-04-25T10:53:10Z</time>
      </trkpt>
      <trkpt lat="59.077756404876709" lon="30.014541149139404">
        <time>2026-04-25T10:53:13Z</time>
      </trkpt>
      <trkpt lat="59.077777862548828" lon="30.014519691467285">
        <time>2026-04-25T10:53:15Z</time>
      </trkpt>
      <trkpt lat="59.077799320220947" lon="30.014476776123047">
        <time>2026-04-25T10:53:18Z</time>
      </trkpt>
      <trkpt lat="59.077820777893066" lon="30.014369487762451">
        <time>2026-04-25T10:53:20Z</time>
      </trkpt>
      <trkpt lat="59.077820777893066" lon="30.014240741729736">
        <time>2026-04-25T10:53:23Z</time>
      </trkpt>
      <trkpt lat="59.077842235565186" lon="30.014090538024902">
        <time>2026-04-25T10:53:25Z</time>
      </trkpt>
      <trkpt lat="59.077842235565186" lon="30.014004707336426">
        <time>2026-04-25T10:53:28Z</time>
      </trkpt>
      <trkpt lat="59.077820777893066" lon="30.013854503631592">
        <time>2026-04-25T10:53:30Z</time>
      </trkpt>
      <trkpt lat="59.077820777893066" lon="30.013704299926758">
        <time>2026-04-25T10:53:33Z</time>
      </trkpt>
      <trkpt lat="59.077842235565186" lon="30.013532638549805">
        <time>2026-04-25T10:53:35Z</time>
      </trkpt>
      <trkpt lat="59.077799320220947" lon="30.013425350189209">
        <time>2026-04-25T10:53:38Z</time>
      </trkpt>
      <trkpt lat="59.07773494720459" lon="30.013296604156494">
        <time>2026-04-25T10:53:40Z</time>
      </trkpt>
      <trkpt lat="59.077692031860352" lon="30.013232231140137">
        <time>2026-04-25T10:53:43Z</time>
      </trkpt>
      <trkpt lat="59.077649116516113" lon="30.013060569763184">
        <time>2026-04-25T10:53:45Z</time>
      </trkpt>
      <trkpt lat="59.077606201171875" lon="30.012931823730469">
        <time>2026-04-25T10:53:48Z</time>
      </trkpt>
      <trkpt lat="59.077584743499756" lon="30.012803077697754">
        <time>2026-04-25T10:53:50Z</time>
      </trkpt>
      <trkpt lat="59.077584743499756" lon="30.012760162353516">
        <time>2026-04-25T10:53:53Z</time>
      </trkpt>
      <trkpt lat="59.077584743499756" lon="30.012760162353516">
        <time>2026-04-25T10:53:55Z</time>
      </trkpt>
      <trkpt lat="59.077563285827637" lon="30.012738704681396">
        <time>2026-04-25T10:53:58Z</time>
      </trkpt>
      <trkpt lat="59.077498912811279" lon="30.012717247009277">
        <time>2026-04-25T10:54:00Z</time>
      </trkpt>
      <trkpt lat="59.07747745513916" lon="30.01265287399292">
        <time>2026-04-25T10:54:03Z</time>
      </trkpt>
      <trkpt lat="59.077455997467041" lon="30.012545585632324">
        <time>2026-04-25T10:54:05Z</time>
      </trkpt>
      <trkpt lat="59.077455997467041" lon="30.012524127960205">
        <time>2026-04-25T10:54:08Z</time>
      </trkpt>
      <trkpt lat="59.077455997467041" lon="30.012567043304443">
        <time>2026-04-25T10:54:10Z</time>
      </trkpt>
      <trkpt lat="59.07747745513916" lon="30.012588500976563">
        <time>2026-04-25T10:54:13Z</time>
      </trkpt>
      <trkpt lat="59.077498912811279" lon="30.012545585632324">
        <time>2026-04-25T10:54:15Z</time>
      </trkpt>
      <trkpt lat="59.077498912811279" lon="30.012481212615967">
        <time>2026-04-25T10:54:18Z</time>
      </trkpt>
      <trkpt lat="59.077520370483398" lon="30.01239538192749">
        <time>2026-04-25T10:54:20Z</time>
      </trkpt>
      <trkpt lat="59.077541828155518" lon="30.012373924255371">
        <time>2026-04-25T10:54:23Z</time>
      </trkpt>
      <trkpt lat="59.077563285827637" lon="30.012352466583252">
        <time>2026-04-25T10:54:25Z</time>
      </trkpt>
      <trkpt lat="59.077563285827637" lon="30.012352466583252">
        <time>2026-04-25T10:54:28Z</time>
      </trkpt>
      <trkpt lat="59.077649116516113" lon="30.012352466583252">
        <time>2026-04-25T10:54:30Z</time>
      </trkpt>
      <trkpt lat="59.077692031860352" lon="30.012352466583252">
        <time>2026-04-25T10:54:33Z</time>
      </trkpt>
      <trkpt lat="59.077756404876709" lon="30.012309551239014">
        <time>2026-04-25T10:54:35Z</time>
      </trkpt>
      <trkpt lat="59.077799320220947" lon="30.012266635894775">
        <time>2026-04-25T10:54:38Z</time>
      </trkpt>
      <trkpt lat="59.077842235565186" lon="30.012245178222656">
        <time>2026-04-25T10:54:40Z</time>
      </trkpt>
      <trkpt lat="59.077885150909424" lon="30.012223720550537">
        <time>2026-04-25T10:54:43Z</time>
      </trkpt>
      <trkpt lat="59.077949523925781" lon="30.012245178222656">
        <time>2026-04-25T10:54:45Z</time>
      </trkpt>
      <trkpt lat="59.0779709815979" lon="30.012223720550537">
        <time>2026-04-25T10:54:48Z</time>
      </trkpt>
      <trkpt lat="59.07799243927002" lon="30.012202262878418">
        <time>2026-04-25T10:54:50Z</time>
      </trkpt>
      <trkpt lat="59.078013896942139" lon="30.012202262878418">
        <time>2026-04-25T10:54:53Z</time>
      </trkpt>
      <trkpt lat="59.078013896942139" lon="30.012180805206299">
        <time>2026-04-25T10:54:55Z</time>
      </trkpt>
      <trkpt lat="59.078013896942139" lon="30.012180805206299">
        <time>2026-04-25T10:54:58Z</time>
      </trkpt>
      <trkpt lat="59.078013896942139" lon="30.012180805206299">
        <time>2026-04-25T10:55:00Z</time>
      </trkpt>
      <trkpt lat="59.078013896942139" lon="30.012180805206299">
        <time>2026-04-25T10:55:03Z</time>
      </trkpt>
      <trkpt lat="59.078013896942139" lon="30.012180805206299">
        <time>2026-04-25T10:55:05Z</time>
      </trkpt>
      <trkpt lat="59.078013896942139" lon="30.012180805206299">
        <time>2026-04-25T10:55:08Z</time>
      </trkpt>
      <trkpt lat="59.078013896942139" lon="30.012180805206299">
        <time>2026-04-25T10:55:10Z</time>
      </trkpt>
      <trkpt lat="59.078013896942139" lon="30.012180805206299">
        <time>2026-04-25T10:55:13Z</time>
      </trkpt>
      <trkpt lat="59.078013896942139" lon="30.012180805206299">
        <time>2026-04-25T10:55:15Z</time>
      </trkpt>
      <trkpt lat="59.078013896942139" lon="30.012180805206299">
        <time>2026-04-25T10:55:18Z</time>
      </trkpt>
      <trkpt lat="59.078013896942139" lon="30.012180805206299">
        <time>2026-04-25T10:55:20Z</time>
      </trkpt>
      <trkpt lat="59.078013896942139" lon="30.012180805206299">
        <time>2026-04-25T10:55:23Z</time>
      </trkpt>
      <trkpt lat="59.078013896942139" lon="30.012180805206299">
        <time>2026-04-25T10:55:25Z</time>
      </trkpt>
      <trkpt lat="59.078013896942139" lon="30.012180805206299">
        <time>2026-04-25T10:55:28Z</time>
      </trkpt>
      <trkpt lat="59.078013896942139" lon="30.012180805206299">
        <time>2026-04-25T10:55:30Z</time>
      </trkpt>
      <trkpt lat="59.078013896942139" lon="30.012180805206299">
        <time>2026-04-25T10:55:33Z</time>
      </trkpt>
      <trkpt lat="59.078013896942139" lon="30.01215934753418">
        <time>2026-04-25T10:55:35Z</time>
      </trkpt>
      <trkpt lat="59.078035354614258" lon="30.012137889862061">
        <time>2026-04-25T10:55:38Z</time>
      </trkpt>
      <trkpt lat="59.078035354614258" lon="30.012116432189941">
        <time>2026-04-25T10:55:40Z</time>
      </trkpt>
      <trkpt lat="59.078056812286377" lon="30.012116432189941">
        <time>2026-04-25T10:55:43Z</time>
      </trkpt>
      <trkpt lat="59.078078269958496" lon="30.012094974517822">
        <time>2026-04-25T10:55:45Z</time>
      </trkpt>
      <trkpt lat="59.078078269958496" lon="30.012116432189941">
        <time>2026-04-25T10:55:48Z</time>
      </trkpt>
      <trkpt lat="59.078056812286377" lon="30.012116432189941">
        <time>2026-04-25T10:55:50Z</time>
      </trkpt>
      <trkpt lat="59.078056812286377" lon="30.012116432189941">
        <time>2026-04-25T10:55:53Z</time>
      </trkpt>
      <trkpt lat="59.078056812286377" lon="30.012116432189941">
        <time>2026-04-25T10:55:55Z</time>
      </trkpt>
      <trkpt lat="59.078056812286377" lon="30.012116432189941">
        <time>2026-04-25T10:55:58Z</time>
      </trkpt>
      <trkpt lat="59.078056812286377" lon="30.012116432189941">
        <time>2026-04-25T10:56:00Z</time>
      </trkpt>
      <trkpt lat="59.078056812286377" lon="30.012116432189941">
        <time>2026-04-25T10:56:03Z</time>
      </trkpt>
      <trkpt lat="59.078056812286377" lon="30.012116432189941">
        <time>2026-04-25T10:56:05Z</time>
      </trkpt>
      <trkpt lat="59.078056812286377" lon="30.012116432189941">
        <time>2026-04-25T10:56:08Z</time>
      </trkpt>
      <trkpt lat="59.078056812286377" lon="30.012116432189941">
        <time>2026-04-25T10:56:10Z</time>
      </trkpt>
      <trkpt lat="59.078056812286377" lon="30.012116432189941">
        <time>2026-04-25T10:56:13Z</time>
      </trkpt>
      <trkpt lat="59.078056812286377" lon="30.012116432189941">
        <time>2026-04-25T10:56:15Z</time>
      </trkpt>
      <trkpt lat="59.078056812286377" lon="30.012116432189941">
        <time>2026-04-25T10:56:18Z</time>
      </trkpt>
      <trkpt lat="59.078056812286377" lon="30.012116432189941">
        <time>2026-04-25T10:56:20Z</time>
      </trkpt>
      <trkpt lat="59.078056812286377" lon="30.012116432189941">
        <time>2026-04-25T10:56:23Z</time>
      </trkpt>
      <trkpt lat="59.078056812286377" lon="30.012116432189941">
        <time>2026-04-25T10:56:25Z</time>
      </trkpt>
      <trkpt lat="59.078056812286377" lon="30.012116432189941">
        <time>2026-04-25T10:56:28Z</time>
      </trkpt>
      <trkpt lat="59.078056812286377" lon="30.012116432189941">
        <time>2026-04-25T10:56:30Z</time>
      </trkpt>
      <trkpt lat="59.078056812286377" lon="30.012116432189941">
        <time>2026-04-25T10:56:33Z</time>
      </trkpt>
      <trkpt lat="59.078056812286377" lon="30.012116432189941">
        <time>2026-04-25T10:56:35Z</time>
      </trkpt>
      <trkpt lat="59.078056812286377" lon="30.012116432189941">
        <time>2026-04-25T10:56:38Z</time>
      </trkpt>
      <trkpt lat="59.078056812286377" lon="30.012116432189941">
        <time>2026-04-25T10:56:40Z</time>
      </trkpt>
      <trkpt lat="59.078056812286377" lon="30.012116432189941">
        <time>2026-04-25T10:56:43Z</time>
      </trkpt>
      <trkpt lat="59.078056812286377" lon="30.012116432189941">
        <time>2026-04-25T10:56:45Z</time>
      </trkpt>
      <trkpt lat="59.078078269958496" lon="30.012116432189941">
        <time>2026-04-25T10:56:48Z</time>
      </trkpt>
      <trkpt lat="59.078056812286377" lon="30.012094974517822">
        <time>2026-04-25T10:56:50Z</time>
      </trkpt>
      <trkpt lat="59.078056812286377" lon="30.012094974517822">
        <time>2026-04-25T10:56:53Z</time>
      </trkpt>
      <trkpt lat="59.078056812286377" lon="30.012094974517822">
        <time>2026-04-25T10:56:55Z</time>
      </trkpt>
      <trkpt lat="59.078056812286377" lon="30.012094974517822">
        <time>2026-04-25T10:56:58Z</time>
      </trkpt>
      <trkpt lat="59.078056812286377" lon="30.012094974517822">
        <time>2026-04-25T10:57:00Z</time>
      </trkpt>
      <trkpt lat="59.078056812286377" lon="30.012094974517822">
        <time>2026-04-25T10:57:03Z</time>
      </trkpt>
      <trkpt lat="59.078056812286377" lon="30.012094974517822">
        <time>2026-04-25T10:57:05Z</time>
      </trkpt>
      <trkpt lat="59.078056812286377" lon="30.012094974517822">
        <time>2026-04-25T10:57:08Z</time>
      </trkpt>
      <trkpt lat="59.078056812286377" lon="30.012094974517822">
        <time>2026-04-25T10:57:10Z</time>
      </trkpt>
      <trkpt lat="59.078056812286377" lon="30.012094974517822">
        <time>2026-04-25T10:57:13Z</time>
      </trkpt>
      <trkpt lat="59.078056812286377" lon="30.012094974517822">
        <time>2026-04-25T10:57:15Z</time>
      </trkpt>
      <trkpt lat="59.078056812286377" lon="30.012094974517822">
        <time>2026-04-25T10:57:18Z</time>
      </trkpt>
      <trkpt lat="59.078056812286377" lon="30.012094974517822">
        <time>2026-04-25T10:57:20Z</time>
      </trkpt>
      <trkpt lat="59.078056812286377" lon="30.012094974517822">
        <time>2026-04-25T10:57:23Z</time>
      </trkpt>
      <trkpt lat="59.078056812286377" lon="30.012094974517822">
        <time>2026-04-25T10:57:25Z</time>
      </trkpt>
      <trkpt lat="59.078056812286377" lon="30.012073516845703">
        <time>2026-04-25T10:57:28Z</time>
      </trkpt>
      <trkpt lat="59.078056812286377" lon="30.012073516845703">
        <time>2026-04-25T10:57:30Z</time>
      </trkpt>
      <trkpt lat="59.078056812286377" lon="30.012073516845703">
        <time>2026-04-25T10:57:33Z</time>
      </trkpt>
      <trkpt lat="59.078056812286377" lon="30.012073516845703">
        <time>2026-04-25T10:57:35Z</time>
      </trkpt>
      <trkpt lat="59.078056812286377" lon="30.012073516845703">
        <time>2026-04-25T10:57:38Z</time>
      </trkpt>
      <trkpt lat="59.078056812286377" lon="30.012094974517822">
        <time>2026-04-25T10:57:40Z</time>
      </trkpt>
      <trkpt lat="59.078056812286377" lon="30.012094974517822">
        <time>2026-04-25T10:57:43Z</time>
      </trkpt>
      <trkpt lat="59.078056812286377" lon="30.012094974517822">
        <time>2026-04-25T10:57:45Z</time>
      </trkpt>
      <trkpt lat="59.078056812286377" lon="30.012094974517822">
        <time>2026-04-25T10:57:48Z</time>
      </trkpt>
      <trkpt lat="59.078056812286377" lon="30.012094974517822">
        <time>2026-04-25T10:57:50Z</time>
      </trkpt>
      <trkpt lat="59.078056812286377" lon="30.012094974517822">
        <time>2026-04-25T10:57:53Z</time>
      </trkpt>
      <trkpt lat="59.078056812286377" lon="30.012094974517822">
        <time>2026-04-25T10:57:55Z</time>
      </trkpt>
      <trkpt lat="59.078056812286377" lon="30.012094974517822">
        <time>2026-04-25T10:57:58Z</time>
      </trkpt>
      <trkpt lat="59.078056812286377" lon="30.012116432189941">
        <time>2026-04-25T10:58:00Z</time>
      </trkpt>
      <trkpt lat="59.078056812286377" lon="30.012116432189941">
        <time>2026-04-25T10:58:03Z</time>
      </trkpt>
      <trkpt lat="59.078035354614258" lon="30.01215934753418">
        <time>2026-04-25T10:58:05Z</time>
      </trkpt>
      <trkpt lat="59.078035354614258" lon="30.012202262878418">
        <time>2026-04-25T10:58:08Z</time>
      </trkpt>
      <trkpt lat="59.07799243927002" lon="30.012223720550537">
        <time>2026-04-25T10:58:10Z</time>
      </trkpt>
      <trkpt lat="59.07799243927002" lon="30.012266635894775">
        <time>2026-04-25T10:58:13Z</time>
      </trkpt>
      <trkpt lat="59.0779709815979" lon="30.012309551239014">
        <time>2026-04-25T10:58:15Z</time>
      </trkpt>
      <trkpt lat="59.077949523925781" lon="30.012309551239014">
        <time>2026-04-25T10:58:18Z</time>
      </trkpt>
      <trkpt lat="59.077949523925781" lon="30.012309551239014">
        <time>2026-04-25T10:58:20Z</time>
      </trkpt>
      <trkpt lat="59.077928066253662" lon="30.012266635894775">
        <time>2026-04-25T10:58:23Z</time>
      </trkpt>
      <trkpt lat="59.077928066253662" lon="30.012266635894775">
        <time>2026-04-25T10:58:25Z</time>
      </trkpt>
      <trkpt lat="59.077906608581543" lon="30.012266635894775">
        <time>2026-04-25T10:58:28Z</time>
      </trkpt>
      <trkpt lat="59.077885150909424" lon="30.012266635894775">
        <time>2026-04-25T10:58:30Z</time>
      </trkpt>
      <trkpt lat="59.077863693237305" lon="30.012245178222656">
        <time>2026-04-25T10:58:33Z</time>
      </trkpt>
      <trkpt lat="59.077842235565186" lon="30.012245178222656">
        <time>2026-04-25T10:58:35Z</time>
      </trkpt>
      <trkpt lat="59.077820777893066" lon="30.012266635894775">
        <time>2026-04-25T10:58:38Z</time>
      </trkpt>
      <trkpt lat="59.077777862548828" lon="30.012288093566895">
        <time>2026-04-25T10:58:40Z</time>
      </trkpt>
      <trkpt lat="59.077756404876709" lon="30.012266635894775">
        <time>2026-04-25T10:58:43Z</time>
      </trkpt>
      <trkpt lat="59.07773494720459" lon="30.012266635894775">
        <time>2026-04-25T10:58:45Z</time>
      </trkpt>
      <trkpt lat="59.077713489532471" lon="30.012266635894775">
        <time>2026-04-25T10:58:48Z</time>
      </trkpt>
      <trkpt lat="59.077692031860352" lon="30.012266635894775">
        <time>2026-04-25T10:58:50Z</time>
      </trkpt>
      <trkpt lat="59.077692031860352" lon="30.012266635894775">
        <time>2026-04-25T10:58:53Z</time>
      </trkpt>
      <trkpt lat="59.077692031860352" lon="30.012245178222656">
        <time>2026-04-25T10:58:55Z</time>
      </trkpt>
      <trkpt lat="59.077692031860352" lon="30.012245178222656">
        <time>2026-04-25T10:58:58Z</time>
      </trkpt>
      <trkpt lat="59.077670574188232" lon="30.012223720550537">
        <time>2026-04-25T10:59:00Z</time>
      </trkpt>
      <trkpt lat="59.077670574188232" lon="30.012223720550537">
        <time>2026-04-25T10:59:03Z</time>
      </trkpt>
      <trkpt lat="59.077670574188232" lon="30.012223720550537">
        <time>2026-04-25T10:59:05Z</time>
      </trkpt>
      <trkpt lat="59.077670574188232" lon="30.012202262878418">
        <time>2026-04-25T10:59:08Z</time>
      </trkpt>
      <trkpt lat="59.077649116516113" lon="30.01215934753418">
        <time>2026-04-25T10:59:10Z</time>
      </trkpt>
      <trkpt lat="59.077627658843994" lon="30.012116432189941">
        <time>2026-04-25T10:59:13Z</time>
      </trkpt>
      <trkpt lat="59.077606201171875" lon="30.012030601501465">
        <time>2026-04-25T10:59:15Z</time>
      </trkpt>
      <trkpt lat="59.077606201171875" lon="30.011987686157227">
        <time>2026-04-25T10:59:18Z</time>
      </trkpt>
      <trkpt lat="59.077606201171875" lon="30.011987686157227">
        <time>2026-04-25T10:59:20Z</time>
      </trkpt>
      <trkpt lat="59.077606201171875" lon="30.011987686157227">
        <time>2026-04-25T10:59:23Z</time>
      </trkpt>
      <trkpt lat="59.077584743499756" lon="30.011966228485107">
        <time>2026-04-25T10:59:25Z</time>
      </trkpt>
      <trkpt lat="59.077563285827637" lon="30.011923313140869">
        <time>2026-04-25T10:59:28Z</time>
      </trkpt>
      <trkpt lat="59.077541828155518" lon="30.011923313140869">
        <time>2026-04-25T10:59:30Z</time>
      </trkpt>
      <trkpt lat="59.077520370483398" lon="30.011987686157227">
        <time>2026-04-25T10:59:33Z</time>
      </trkpt>
      <trkpt lat="59.07747745513916" lon="30.012052059173584">
        <time>2026-04-25T10:59:35Z</time>
      </trkpt>
      <trkpt lat="59.07747745513916" lon="30.012073516845703">
        <time>2026-04-25T10:59:38Z</time>
      </trkpt>
      <trkpt lat="59.077455997467041" lon="30.012116432189941">
        <time>2026-04-25T10:59:40Z</time>
      </trkpt>
      <trkpt lat="59.077413082122803" lon="30.012137889862061">
        <time>2026-04-25T10:59:43Z</time>
      </trkpt>
      <trkpt lat="59.077370166778564" lon="30.012223720550537">
        <time>2026-04-25T10:59:45Z</time>
      </trkpt>
      <trkpt lat="59.077348709106445" lon="30.012245178222656">
        <time>2026-04-25T10:59:48Z</time>
      </trkpt>
      <trkpt lat="59.077284336090088" lon="30.012266635894775">
        <time>2026-04-25T10:59:50Z</time>
      </trkpt>
      <trkpt lat="59.077284336090088" lon="30.012266635894775">
        <time>2026-04-25T10:59:53Z</time>
      </trkpt>
      <trkpt lat="59.077262878417969" lon="30.012288093566895">
        <time>2026-04-25T10:59:55Z</time>
      </trkpt>
      <trkpt lat="59.07724142074585" lon="30.012288093566895">
        <time>2026-04-25T10:59:58Z</time>
      </trkpt>
      <trkpt lat="59.07721996307373" lon="30.012309551239014">
        <time>2026-04-25T11:00:00Z</time>
      </trkpt>
      <trkpt lat="59.077198505401611" lon="30.012309551239014">
        <time>2026-04-25T11:00:03Z</time>
      </trkpt>
      <trkpt lat="59.077177047729492" lon="30.012373924255371">
        <time>2026-04-25T11:00:05Z</time>
      </trkpt>
      <trkpt lat="59.077177047729492" lon="30.012438297271729">
        <time>2026-04-25T11:00:08Z</time>
      </trkpt>
      <trkpt lat="59.077155590057373" lon="30.012481212615967">
        <time>2026-04-25T11:00:10Z</time>
      </trkpt>
      <trkpt lat="59.077177047729492" lon="30.012481212615967">
        <time>2026-04-25T11:00:13Z</time>
      </trkpt>
      <trkpt lat="59.077177047729492" lon="30.012567043304443">
        <time>2026-04-25T11:00:15Z</time>
      </trkpt>
      <trkpt lat="59.077198505401611" lon="30.012609958648682">
        <time>2026-04-25T11:00:18Z</time>
      </trkpt>
      <trkpt lat="59.077198505401611" lon="30.012717247009277">
        <time>2026-04-25T11:00:20Z</time>
      </trkpt>
      <trkpt lat="59.077198505401611" lon="30.012781620025635">
        <time>2026-04-25T11:00:23Z</time>
      </trkpt>
      <trkpt lat="59.07721996307373" lon="30.012867450714111">
        <time>2026-04-25T11:00:25Z</time>
      </trkpt>
      <trkpt lat="59.07721996307373" lon="30.012867450714111">
        <time>2026-04-25T11:00:28Z</time>
      </trkpt>
      <trkpt lat="59.07721996307373" lon="30.012931823730469">
        <time>2026-04-25T11:00:30Z</time>
      </trkpt>
      <trkpt lat="59.077198505401611" lon="30.012996196746826">
        <time>2026-04-25T11:00:33Z</time>
      </trkpt>
      <trkpt lat="59.077198505401611" lon="30.013039112091064">
        <time>2026-04-25T11:00:35Z</time>
      </trkpt>
      <trkpt lat="59.077198505401611" lon="30.013017654418945">
        <time>2026-04-25T11:00:38Z</time>
      </trkpt>
      <trkpt lat="59.07724142074585" lon="30.013017654418945">
        <time>2026-04-25T11:00:40Z</time>
      </trkpt>
      <trkpt lat="59.07724142074585" lon="30.013060569763184">
        <time>2026-04-25T11:00:43Z</time>
      </trkpt>
      <trkpt lat="59.077262878417969" lon="30.013124942779541">
        <time>2026-04-25T11:00:45Z</time>
      </trkpt>
      <trkpt lat="59.077262878417969" lon="30.013189315795898">
        <time>2026-04-25T11:00:48Z</time>
      </trkpt>
      <trkpt lat="59.077262878417969" lon="30.013210773468018">
        <time>2026-04-25T11:00:50Z</time>
      </trkpt>
      <trkpt lat="59.077262878417969" lon="30.013210773468018">
        <time>2026-04-25T11:00:53Z</time>
      </trkpt>
      <trkpt lat="59.07724142074585" lon="30.013189315795898">
        <time>2026-04-25T11:00:55Z</time>
      </trkpt>
      <trkpt lat="59.077262878417969" lon="30.013210773468018">
        <time>2026-04-25T11:00:58Z</time>
      </trkpt>
      <trkpt lat="59.07724142074585" lon="30.013253688812256">
        <time>2026-04-25T11:01:00Z</time>
      </trkpt>
      <trkpt lat="59.07724142074585" lon="30.013275146484375">
        <time>2026-04-25T11:01:03Z</time>
      </trkpt>
      <trkpt lat="59.07724142074585" lon="30.013296604156494">
        <time>2026-04-25T11:01:05Z</time>
      </trkpt>
      <trkpt lat="59.07724142074585" lon="30.013318061828613">
        <time>2026-04-25T11:01:08Z</time>
      </trkpt>
      <trkpt lat="59.07721996307373" lon="30.013360977172852">
        <time>2026-04-25T11:01:10Z</time>
      </trkpt>
      <trkpt lat="59.077198505401611" lon="30.013360977172852">
        <time>2026-04-25T11:01:13Z</time>
      </trkpt>
      <trkpt lat="59.077198505401611" lon="30.01340389251709">
        <time>2026-04-25T11:01:15Z</time>
      </trkpt>
      <trkpt lat="59.07721996307373" lon="30.013425350189209">
        <time>2026-04-25T11:01:18Z</time>
      </trkpt>
      <trkpt lat="59.07721996307373" lon="30.013489723205566">
        <time>2026-04-25T11:01:20Z</time>
      </trkpt>
      <trkpt lat="59.07721996307373" lon="30.013532638549805">
        <time>2026-04-25T11:01:23Z</time>
      </trkpt>
      <trkpt lat="59.07721996307373" lon="30.013575553894043">
        <time>2026-04-25T11:01:25Z</time>
      </trkpt>
      <trkpt lat="59.07721996307373" lon="30.013618469238281">
        <time>2026-04-25T11:01:28Z</time>
      </trkpt>
      <trkpt lat="59.07721996307373" lon="30.013682842254639">
        <time>2026-04-25T11:01:30Z</time>
      </trkpt>
      <trkpt lat="59.07721996307373" lon="30.013768672943115">
        <time>2026-04-25T11:01:35Z</time>
      </trkpt>
      <trkpt lat="59.07721996307373" lon="30.013790130615234">
        <time>2026-04-25T11:01:38Z</time>
      </trkpt>
      <trkpt lat="59.077198505401611" lon="30.013790130615234">
        <time>2026-04-25T11:01:40Z</time>
      </trkpt>
      <trkpt lat="59.077198505401611" lon="30.013811588287354">
        <time>2026-04-25T11:01:43Z</time>
      </trkpt>
      <trkpt lat="59.077198505401611" lon="30.013811588287354">
        <time>2026-04-25T11:01:45Z</time>
      </trkpt>
      <trkpt lat="59.07721996307373" lon="30.013833045959473">
        <time>2026-04-25T11:01:48Z</time>
      </trkpt>
      <trkpt lat="59.07724142074585" lon="30.013875961303711">
        <time>2026-04-25T11:01:50Z</time>
      </trkpt>
      <trkpt lat="59.077262878417969" lon="30.01389741897583">
        <time>2026-04-25T11:01:53Z</time>
      </trkpt>
      <trkpt lat="59.077284336090088" lon="30.013918876647949">
        <time>2026-04-25T11:01:55Z</time>
      </trkpt>
      <trkpt lat="59.077284336090088" lon="30.013918876647949">
        <time>2026-04-25T11:01:58Z</time>
      </trkpt>
      <trkpt lat="59.077284336090088" lon="30.013983249664307">
        <time>2026-04-25T11:02:00Z</time>
      </trkpt>
      <trkpt lat="59.077284336090088" lon="30.014176368713379">
        <time>2026-04-25T11:02:05Z</time>
      </trkpt>
      <trkpt lat="59.077284336090088" lon="30.014219284057617">
        <time>2026-04-25T11:02:08Z</time>
      </trkpt>
      <trkpt lat="59.077284336090088" lon="30.014262199401855">
        <time>2026-04-25T11:02:10Z</time>
      </trkpt>
      <trkpt lat="59.077284336090088" lon="30.014283657073975">
        <time>2026-04-25T11:02:13Z</time>
      </trkpt>
      <trkpt lat="59.077284336090088" lon="30.014283657073975">
        <time>2026-04-25T11:02:15Z</time>
      </trkpt>
      <trkpt lat="59.077284336090088" lon="30.014283657073975">
        <time>2026-04-25T11:02:18Z</time>
      </trkpt>
      <trkpt lat="59.077262878417969" lon="30.014283657073975">
        <time>2026-04-25T11:02:20Z</time>
      </trkpt>
      <trkpt lat="59.07724142074585" lon="30.014305114746094">
        <time>2026-04-25T11:02:23Z</time>
      </trkpt>
      <trkpt lat="59.077262878417969" lon="30.014326572418213">
        <time>2026-04-25T11:02:25Z</time>
      </trkpt>
      <trkpt lat="59.077262878417969" lon="30.014348030090332">
        <time>2026-04-25T11:02:28Z</time>
      </trkpt>
      <trkpt lat="59.077305793762207" lon="30.014412403106689">
        <time>2026-04-25T11:02:30Z</time>
      </trkpt>
      <trkpt lat="59.077348709106445" lon="30.014476776123047">
        <time>2026-04-25T11:02:33Z</time>
      </trkpt>
      <trkpt lat="59.077391624450684" lon="30.014541149139404">
        <time>2026-04-25T11:02:35Z</time>
      </trkpt>
      <trkpt lat="59.077434539794922" lon="30.014562606811523">
        <time>2026-04-25T11:02:38Z</time>
      </trkpt>
      <trkpt lat="59.07747745513916" lon="30.0146484375">
        <time>2026-04-25T11:02:40Z</time>
      </trkpt>
      <trkpt lat="59.07747745513916" lon="30.014712810516357">
        <time>2026-04-25T11:02:43Z</time>
      </trkpt>
      <trkpt lat="59.07747745513916" lon="30.014734268188477">
        <time>2026-04-25T11:02:45Z</time>
      </trkpt>
      <trkpt lat="59.07747745513916" lon="30.014755725860596">
        <time>2026-04-25T11:02:48Z</time>
      </trkpt>
      <trkpt lat="59.077498912811279" lon="30.014755725860596">
        <time>2026-04-25T11:02:50Z</time>
      </trkpt>
      <trkpt lat="59.077498912811279" lon="30.014798641204834">
        <time>2026-04-25T11:02:53Z</time>
      </trkpt>
      <trkpt lat="59.077498912811279" lon="30.014841556549072">
        <time>2026-04-25T11:02:55Z</time>
      </trkpt>
      <trkpt lat="59.077498912811279" lon="30.014884471893311">
        <time>2026-04-25T11:02:58Z</time>
      </trkpt>
      <trkpt lat="59.07747745513916" lon="30.014927387237549">
        <time>2026-04-25T11:03:00Z</time>
      </trkpt>
      <trkpt lat="59.07747745513916" lon="30.014970302581787">
        <time>2026-04-25T11:03:03Z</time>
      </trkpt>
      <trkpt lat="59.077434539794922" lon="30.014991760253906">
        <time>2026-04-25T11:03:05Z</time>
      </trkpt>
      <trkpt lat="59.077413082122803" lon="30.015013217926025">
        <time>2026-04-25T11:03:08Z</time>
      </trkpt>
      <trkpt lat="59.077370166778564" lon="30.014991760253906">
        <time>2026-04-25T11:03:10Z</time>
      </trkpt>
      <trkpt lat="59.077370166778564" lon="30.014991760253906">
        <time>2026-04-25T11:03:13Z</time>
      </trkpt>
      <trkpt lat="59.077370166778564" lon="30.015013217926025">
        <time>2026-04-25T11:03:15Z</time>
      </trkpt>
      <trkpt lat="59.077370166778564" lon="30.015013217926025">
        <time>2026-04-25T11:03:18Z</time>
      </trkpt>
      <trkpt lat="59.077391624450684" lon="30.014991760253906">
        <time>2026-04-25T11:03:20Z</time>
      </trkpt>
      <trkpt lat="59.077413082122803" lon="30.014970302581787">
        <time>2026-04-25T11:03:23Z</time>
      </trkpt>
      <trkpt lat="59.077455997467041" lon="30.014927387237549">
        <time>2026-04-25T11:03:25Z</time>
      </trkpt>
      <trkpt lat="59.07747745513916" lon="30.014863014221191">
        <time>2026-04-25T11:03:28Z</time>
      </trkpt>
      <trkpt lat="59.077541828155518" lon="30.014820098876953">
        <time>2026-04-25T11:03:30Z</time>
      </trkpt>
      <trkpt lat="59.077541828155518" lon="30.014820098876953">
        <time>2026-04-25T11:03:33Z</time>
      </trkpt>
      <trkpt lat="59.077584743499756" lon="30.014798641204834">
        <time>2026-04-25T11:03:35Z</time>
      </trkpt>
      <trkpt lat="59.077627658843994" lon="30.014777183532715">
        <time>2026-04-25T11:03:38Z</time>
      </trkpt>
      <trkpt lat="59.077692031860352" lon="30.014734268188477">
        <time>2026-04-25T11:03:40Z</time>
      </trkpt>
      <trkpt lat="59.07773494720459" lon="30.014669895172119">
        <time>2026-04-25T11:03:43Z</time>
      </trkpt>
      <trkpt lat="59.077777862548828" lon="30.014562606811523">
        <time>2026-04-25T11:03:45Z</time>
      </trkpt>
      <trkpt lat="59.077799320220947" lon="30.014519691467285">
        <time>2026-04-25T11:03:48Z</time>
      </trkpt>
      <trkpt lat="59.077820777893066" lon="30.014455318450928">
        <time>2026-04-25T11:03:50Z</time>
      </trkpt>
      <trkpt lat="59.077842235565186" lon="30.014433860778809">
        <time>2026-04-25T11:03:53Z</time>
      </trkpt>
      <trkpt lat="59.077885150909424" lon="30.014412403106689">
        <time>2026-04-25T11:03:55Z</time>
      </trkpt>
      <trkpt lat="59.077928066253662" lon="30.014433860778809">
        <time>2026-04-25T11:03:58Z</time>
      </trkpt>
      <trkpt lat="59.07799243927002" lon="30.014433860778809">
        <time>2026-04-25T11:04:00Z</time>
      </trkpt>
      <trkpt lat="59.078035354614258" lon="30.014433860778809">
        <time>2026-04-25T11:04:03Z</time>
      </trkpt>
      <trkpt lat="59.078099727630615" lon="30.014433860778809">
        <time>2026-04-25T11:04:05Z</time>
      </trkpt>
      <trkpt lat="59.078121185302734" lon="30.014433860778809">
        <time>2026-04-25T11:04:08Z</time>
      </trkpt>
      <trkpt lat="59.078142642974854" lon="30.014433860778809">
        <time>2026-04-25T11:04:10Z</time>
      </trkpt>
      <trkpt lat="59.078164100646973" lon="30.014455318450928">
        <time>2026-04-25T11:04:13Z</time>
      </trkpt>
      <trkpt lat="59.078164100646973" lon="30.014455318450928">
        <time>2026-04-25T11:04:15Z</time>
      </trkpt>
      <trkpt lat="59.078164100646973" lon="30.014455318450928">
        <time>2026-04-25T11:04:18Z</time>
      </trkpt>
      <trkpt lat="59.078164100646973" lon="30.014369487762451">
        <time>2026-04-25T11:04:20Z</time>
      </trkpt>
      <trkpt lat="59.078185558319092" lon="30.014326572418213">
        <time>2026-04-25T11:04:23Z</time>
      </trkpt>
      <trkpt lat="59.078185558319092" lon="30.014305114746094">
        <time>2026-04-25T11:04:25Z</time>
      </trkpt>
      <trkpt lat="59.078185558319092" lon="30.014283657073975">
        <time>2026-04-25T11:04:28Z</time>
      </trkpt>
      <trkpt lat="59.078207015991211" lon="30.014240741729736">
        <time>2026-04-25T11:04:30Z</time>
      </trkpt>
      <trkpt lat="59.078207015991211" lon="30.014240741729736">
        <time>2026-04-25T11:04:33Z</time>
      </trkpt>
      <trkpt lat="59.07822847366333" lon="30.014219284057617">
        <time>2026-04-25T11:04:35Z</time>
      </trkpt>
      <trkpt lat="59.07822847366333" lon="30.014219284057617">
        <time>2026-04-25T11:04:38Z</time>
      </trkpt>
      <trkpt lat="59.07822847366333" lon="30.014219284057617">
        <time>2026-04-25T11:04:40Z</time>
      </trkpt>
      <trkpt lat="59.07822847366333" lon="30.014176368713379">
        <time>2026-04-25T11:04:43Z</time>
      </trkpt>
      <trkpt lat="59.078207015991211" lon="30.014176368713379">
        <time>2026-04-25T11:04:45Z</time>
      </trkpt>
      <trkpt lat="59.078207015991211" lon="30.01415491104126">
        <time>2026-04-25T11:04:48Z</time>
      </trkpt>
      <trkpt lat="59.078164100646973" lon="30.01415491104126">
        <time>2026-04-25T11:04:50Z</time>
      </trkpt>
      <trkpt lat="59.078164100646973" lon="30.01415491104126">
        <time>2026-04-25T11:04:53Z</time>
      </trkpt>
      <trkpt lat="59.078142642974854" lon="30.014133453369141">
        <time>2026-04-25T11:04:55Z</time>
      </trkpt>
      <trkpt lat="59.078121185302734" lon="30.014133453369141">
        <time>2026-04-25T11:04:58Z</time>
      </trkpt>
      <trkpt lat="59.078099727630615" lon="30.014133453369141">
        <time>2026-04-25T11:05:00Z</time>
      </trkpt>
      <trkpt lat="59.078078269958496" lon="30.01415491104126">
        <time>2026-04-25T11:05:03Z</time>
      </trkpt>
      <trkpt lat="59.078056812286377" lon="30.014262199401855">
        <time>2026-04-25T11:05:05Z</time>
      </trkpt>
      <trkpt lat="59.078035354614258" lon="30.014326572418213">
        <time>2026-04-25T11:05:08Z</time>
      </trkpt>
      <trkpt lat="59.078056812286377" lon="30.014433860778809">
        <time>2026-04-25T11:05:10Z</time>
      </trkpt>
      <trkpt lat="59.078056812286377" lon="30.014476776123047">
        <time>2026-04-25T11:05:13Z</time>
      </trkpt>
      <trkpt lat="59.078035354614258" lon="30.014541149139404">
        <time>2026-04-25T11:05:15Z</time>
      </trkpt>
      <trkpt lat="59.078013896942139" lon="30.014584064483643">
        <time>2026-04-25T11:05:18Z</time>
      </trkpt>
      <trkpt lat="59.078013896942139" lon="30.014669895172119">
        <time>2026-04-25T11:05:20Z</time>
      </trkpt>
      <trkpt lat="59.07799243927002" lon="30.014734268188477">
        <time>2026-04-25T11:05:23Z</time>
      </trkpt>
      <trkpt lat="59.0779709815979" lon="30.014820098876953">
        <time>2026-04-25T11:05:25Z</time>
      </trkpt>
      <trkpt lat="59.077928066253662" lon="30.014863014221191">
        <time>2026-04-25T11:05:28Z</time>
      </trkpt>
      <trkpt lat="59.077906608581543" lon="30.01490592956543">
        <time>2026-04-25T11:05:30Z</time>
      </trkpt>
      <trkpt lat="59.077885150909424" lon="30.014927387237549">
        <time>2026-04-25T11:05:33Z</time>
      </trkpt>
      <trkpt lat="59.077842235565186" lon="30.014927387237549">
        <time>2026-04-25T11:05:35Z</time>
      </trkpt>
      <trkpt lat="59.077799320220947" lon="30.014927387237549">
        <time>2026-04-25T11:05:38Z</time>
      </trkpt>
      <trkpt lat="59.077756404876709" lon="30.014948844909668">
        <time>2026-04-25T11:05:40Z</time>
      </trkpt>
      <trkpt lat="59.07773494720459" lon="30.014970302581787">
        <time>2026-04-25T11:05:43Z</time>
      </trkpt>
      <trkpt lat="59.077692031860352" lon="30.015056133270264">
        <time>2026-04-25T11:05:45Z</time>
      </trkpt>
      <trkpt lat="59.077670574188232" lon="30.015099048614502">
        <time>2026-04-25T11:05:48Z</time>
      </trkpt>
      <trkpt lat="59.077606201171875" lon="30.015120506286621">
        <time>2026-04-25T11:05:50Z</time>
      </trkpt>
      <trkpt lat="59.077563285827637" lon="30.01514196395874">
        <time>2026-04-25T11:05:53Z</time>
      </trkpt>
      <trkpt lat="59.077498912811279" lon="30.015249252319336">
        <time>2026-04-25T11:05:55Z</time>
      </trkpt>
      <trkpt lat="59.07747745513916" lon="30.015270709991455">
        <time>2026-04-25T11:05:58Z</time>
      </trkpt>
      <trkpt lat="59.077434539794922" lon="30.015313625335693">
        <time>2026-04-25T11:06:00Z</time>
      </trkpt>
      <trkpt lat="59.077391624450684" lon="30.015335083007812">
        <time>2026-04-25T11:06:03Z</time>
      </trkpt>
      <trkpt lat="59.077327251434326" lon="30.015356540679932">
        <time>2026-04-25T11:06:05Z</time>
      </trkpt>
      <trkpt lat="59.077305793762207" lon="30.01539945602417">
        <time>2026-04-25T11:06:08Z</time>
      </trkpt>
      <trkpt lat="59.077284336090088" lon="30.015506744384766">
        <time>2026-04-25T11:06:10Z</time>
      </trkpt>
      <trkpt lat="59.07724142074585" lon="30.015571117401123">
        <time>2026-04-25T11:06:13Z</time>
      </trkpt>
      <trkpt lat="59.077198505401611" lon="30.015699863433838">
        <time>2026-04-25T11:06:15Z</time>
      </trkpt>
      <trkpt lat="59.077177047729492" lon="30.015721321105957">
        <time>2026-04-25T11:06:18Z</time>
      </trkpt>
      <trkpt lat="59.077177047729492" lon="30.015742778778076">
        <time>2026-04-25T11:06:20Z</time>
      </trkpt>
      <trkpt lat="59.077155590057373" lon="30.015742778778076">
        <time>2026-04-25T11:06:23Z</time>
      </trkpt>
      <trkpt lat="59.077155590057373" lon="30.015764236450195">
        <time>2026-04-25T11:06:25Z</time>
      </trkpt>
      <trkpt lat="59.077134132385254" lon="30.015785694122314">
        <time>2026-04-25T11:06:28Z</time>
      </trkpt>
      <trkpt lat="59.077134132385254" lon="30.015785694122314">
        <time>2026-04-25T11:06:30Z</time>
      </trkpt>
      <trkpt lat="59.077134132385254" lon="30.015785694122314">
        <time>2026-04-25T11:06:33Z</time>
      </trkpt>
      <trkpt lat="59.077134132385254" lon="30.015785694122314">
        <time>2026-04-25T11:06:35Z</time>
      </trkpt>
      <trkpt lat="59.077112674713135" lon="30.015807151794434">
        <time>2026-04-25T11:06:40Z</time>
      </trkpt>
      <trkpt lat="59.077112674713135" lon="30.015807151794434">
        <time>2026-04-25T11:06:43Z</time>
      </trkpt>
      <trkpt lat="59.077112674713135" lon="30.015828609466553">
        <time>2026-04-25T11:06:45Z</time>
      </trkpt>
      <trkpt lat="59.077112674713135" lon="30.015828609466553">
        <time>2026-04-25T11:06:48Z</time>
      </trkpt>
      <trkpt lat="59.077134132385254" lon="30.015850067138672">
        <time>2026-04-25T11:06:50Z</time>
      </trkpt>
      <trkpt lat="59.077112674713135" lon="30.01589298248291">
        <time>2026-04-25T11:06:53Z</time>
      </trkpt>
      <trkpt lat="59.077091217041016" lon="30.01589298248291">
        <time>2026-04-25T11:06:55Z</time>
      </trkpt>
      <trkpt lat="59.077091217041016" lon="30.01589298248291">
        <time>2026-04-25T11:06:58Z</time>
      </trkpt>
      <trkpt lat="59.077091217041016" lon="30.01589298248291">
        <time>2026-04-25T11:07:00Z</time>
      </trkpt>
      <trkpt lat="59.077091217041016" lon="30.01589298248291">
        <time>2026-04-25T11:07:03Z</time>
      </trkpt>
      <trkpt lat="59.077091217041016" lon="30.01589298248291">
        <time>2026-04-25T11:07:05Z</time>
      </trkpt>
      <trkpt lat="59.077091217041016" lon="30.015914440155029">
        <time>2026-04-25T11:07:08Z</time>
      </trkpt>
      <trkpt lat="59.077091217041016" lon="30.015957355499268">
        <time>2026-04-25T11:07:10Z</time>
      </trkpt>
      <trkpt lat="59.077091217041016" lon="30.015978813171387">
        <time>2026-04-25T11:07:13Z</time>
      </trkpt>
      <trkpt lat="59.077069759368896" lon="30.016000270843506">
        <time>2026-04-25T11:07:15Z</time>
      </trkpt>
      <trkpt lat="59.077069759368896" lon="30.016000270843506">
        <time>2026-04-25T11:07:18Z</time>
      </trkpt>
      <trkpt lat="59.077069759368896" lon="30.016021728515625">
        <time>2026-04-25T11:07:20Z</time>
      </trkpt>
      <trkpt lat="59.077048301696777" lon="30.016043186187744">
        <time>2026-04-25T11:07:23Z</time>
      </trkpt>
      <trkpt lat="59.077005386352539" lon="30.016086101531982">
        <time>2026-04-25T11:07:25Z</time>
      </trkpt>
      <trkpt lat="59.07698392868042" lon="30.016129016876221">
        <time>2026-04-25T11:07:28Z</time>
      </trkpt>
      <trkpt lat="59.076962471008301" lon="30.016086101531982">
        <time>2026-04-25T11:07:30Z</time>
      </trkpt>
      <trkpt lat="59.07698392868042" lon="30.016064643859863">
        <time>2026-04-25T11:07:33Z</time>
      </trkpt>
      <trkpt lat="59.077005386352539" lon="30.015957355499268">
        <time>2026-04-25T11:07:35Z</time>
      </trkpt>
      <trkpt lat="59.077026844024658" lon="30.015914440155029">
        <time>2026-04-25T11:07:38Z</time>
      </trkpt>
      <trkpt lat="59.077091217041016" lon="30.015850067138672">
        <time>2026-04-25T11:07:40Z</time>
      </trkpt>
      <trkpt lat="59.077134132385254" lon="30.015828609466553">
        <time>2026-04-25T11:07:43Z</time>
      </trkpt>
      <trkpt lat="59.077177047729492" lon="30.015785694122314">
        <time>2026-04-25T11:07:45Z</time>
      </trkpt>
      <trkpt lat="59.077198505401611" lon="30.015764236450195">
        <time>2026-04-25T11:07:48Z</time>
      </trkpt>
      <trkpt lat="59.07721996307373" lon="30.015785694122314">
        <time>2026-04-25T11:07:50Z</time>
      </trkpt>
      <trkpt lat="59.077198505401611" lon="30.015785694122314">
        <time>2026-04-25T11:07:53Z</time>
      </trkpt>
      <trkpt lat="59.07721996307373" lon="30.015785694122314">
        <time>2026-04-25T11:07:55Z</time>
      </trkpt>
      <trkpt lat="59.07721996307373" lon="30.015785694122314">
        <time>2026-04-25T11:07:58Z</time>
      </trkpt>
      <trkpt lat="59.07721996307373" lon="30.015764236450195">
        <time>2026-04-25T11:08:00Z</time>
      </trkpt>
      <trkpt lat="59.07721996307373" lon="30.015764236450195">
        <time>2026-04-25T11:08:03Z</time>
      </trkpt>
      <trkpt lat="59.07724142074585" lon="30.015742778778076">
        <time>2026-04-25T11:08:05Z</time>
      </trkpt>
      <trkpt lat="59.07724142074585" lon="30.015742778778076">
        <time>2026-04-25T11:08:08Z</time>
      </trkpt>
      <trkpt lat="59.077262878417969" lon="30.015721321105957">
        <time>2026-04-25T11:08:10Z</time>
      </trkpt>
      <trkpt lat="59.07724142074585" lon="30.015742778778076">
        <time>2026-04-25T11:08:13Z</time>
      </trkpt>
      <trkpt lat="59.07724142074585" lon="30.015721321105957">
        <time>2026-04-25T11:08:15Z</time>
      </trkpt>
      <trkpt lat="59.077262878417969" lon="30.015721321105957">
        <time>2026-04-25T11:08:18Z</time>
      </trkpt>
      <trkpt lat="59.077305793762207" lon="30.015721321105957">
        <time>2026-04-25T11:08:20Z</time>
      </trkpt>
      <trkpt lat="59.077305793762207" lon="30.015699863433838">
        <time>2026-04-25T11:08:23Z</time>
      </trkpt>
      <trkpt lat="59.077305793762207" lon="30.015721321105957">
        <time>2026-04-25T11:08:25Z</time>
      </trkpt>
      <trkpt lat="59.077327251434326" lon="30.015742778778076">
        <time>2026-04-25T11:08:28Z</time>
      </trkpt>
      <trkpt lat="59.077348709106445" lon="30.01589298248291">
        <time>2026-04-25T11:08:30Z</time>
      </trkpt>
      <trkpt lat="59.077391624450684" lon="30.016000270843506">
        <time>2026-04-25T11:08:33Z</time>
      </trkpt>
      <trkpt lat="59.077413082122803" lon="30.016043186187744">
        <time>2026-04-25T11:08:35Z</time>
      </trkpt>
      <trkpt lat="59.077455997467041" lon="30.016021728515625">
        <time>2026-04-25T11:08:38Z</time>
      </trkpt>
      <trkpt lat="59.077498912811279" lon="30.016000270843506">
        <time>2026-04-25T11:08:40Z</time>
      </trkpt>
      <trkpt lat="59.077520370483398" lon="30.016000270843506">
        <time>2026-04-25T11:08:43Z</time>
      </trkpt>
      <trkpt lat="59.077541828155518" lon="30.016000270843506">
        <time>2026-04-25T11:08:45Z</time>
      </trkpt>
      <trkpt lat="59.077563285827637" lon="30.015978813171387">
        <time>2026-04-25T11:08:48Z</time>
      </trkpt>
      <trkpt lat="59.077563285827637" lon="30.015978813171387">
        <time>2026-04-25T11:08:50Z</time>
      </trkpt>
      <trkpt lat="59.077563285827637" lon="30.015978813171387">
        <time>2026-04-25T11:08:53Z</time>
      </trkpt>
      <trkpt lat="59.077584743499756" lon="30.016021728515625">
        <time>2026-04-25T11:08:58Z</time>
      </trkpt>
      <trkpt lat="59.077584743499756" lon="30.016064643859863">
        <time>2026-04-25T11:09:00Z</time>
      </trkpt>
      <trkpt lat="59.077584743499756" lon="30.016064643859863">
        <time>2026-04-25T11:09:03Z</time>
      </trkpt>
      <trkpt lat="59.077584743499756" lon="30.016086101531982">
        <time>2026-04-25T11:09:05Z</time>
      </trkpt>
      <trkpt lat="59.077606201171875" lon="30.016107559204102">
        <time>2026-04-25T11:09:10Z</time>
      </trkpt>
      <trkpt lat="59.077606201171875" lon="30.016107559204102">
        <time>2026-04-25T11:09:13Z</time>
      </trkpt>
      <trkpt lat="59.077627658843994" lon="30.016129016876221">
        <time>2026-04-25T11:09:15Z</time>
      </trkpt>
      <trkpt lat="59.077627658843994" lon="30.016129016876221">
        <time>2026-04-25T11:09:18Z</time>
      </trkpt>
      <trkpt lat="59.077649116516113" lon="30.016129016876221">
        <time>2026-04-25T11:09:20Z</time>
      </trkpt>
      <trkpt lat="59.077670574188232" lon="30.016107559204102">
        <time>2026-04-25T11:09:23Z</time>
      </trkpt>
      <trkpt lat="59.077713489532471" lon="30.016064643859863">
        <time>2026-04-25T11:09:25Z</time>
      </trkpt>
      <trkpt lat="59.077713489532471" lon="30.016021728515625">
        <time>2026-04-25T11:09:28Z</time>
      </trkpt>
      <trkpt lat="59.077713489532471" lon="30.015935897827148">
        <time>2026-04-25T11:09:33Z</time>
      </trkpt>
      <trkpt lat="59.077713489532471" lon="30.015914440155029">
        <time>2026-04-25T11:09:35Z</time>
      </trkpt>
      <trkpt lat="59.07773494720459" lon="30.015914440155029">
        <time>2026-04-25T11:09:38Z</time>
      </trkpt>
      <trkpt lat="59.07773494720459" lon="30.015935897827148">
        <time>2026-04-25T11:09:40Z</time>
      </trkpt>
      <trkpt lat="59.077713489532471" lon="30.015935897827148">
        <time>2026-04-25T11:09:43Z</time>
      </trkpt>
      <trkpt lat="59.077713489532471" lon="30.015935897827148">
        <time>2026-04-25T11:09:45Z</time>
      </trkpt>
      <trkpt lat="59.077713489532471" lon="30.015935897827148">
        <time>2026-04-25T11:09:48Z</time>
      </trkpt>
      <trkpt lat="59.07773494720459" lon="30.015935897827148">
        <time>2026-04-25T11:09:50Z</time>
      </trkpt>
      <trkpt lat="59.07773494720459" lon="30.015935897827148">
        <time>2026-04-25T11:09:53Z</time>
      </trkpt>
      <trkpt lat="59.07773494720459" lon="30.015957355499268">
        <time>2026-04-25T11:09:55Z</time>
      </trkpt>
      <trkpt lat="59.07773494720459" lon="30.015935897827148">
        <time>2026-04-25T11:09:58Z</time>
      </trkpt>
      <trkpt lat="59.07773494720459" lon="30.015914440155029">
        <time>2026-04-25T11:10:00Z</time>
      </trkpt>
      <trkpt lat="59.07773494720459" lon="30.015935897827148">
        <time>2026-04-25T11:10:03Z</time>
      </trkpt>
      <trkpt lat="59.077756404876709" lon="30.015957355499268">
        <time>2026-04-25T11:10:05Z</time>
      </trkpt>
      <trkpt lat="59.077756404876709" lon="30.015978813171387">
        <time>2026-04-25T11:10:08Z</time>
      </trkpt>
      <trkpt lat="59.077756404876709" lon="30.016000270843506">
        <time>2026-04-25T11:10:10Z</time>
      </trkpt>
      <trkpt lat="59.077756404876709" lon="30.016021728515625">
        <time>2026-04-25T11:10:15Z</time>
      </trkpt>
      <trkpt lat="59.077777862548828" lon="30.016064643859863">
        <time>2026-04-25T11:10:18Z</time>
      </trkpt>
      <trkpt lat="59.077756404876709" lon="30.016129016876221">
        <time>2026-04-25T11:10:20Z</time>
      </trkpt>
      <trkpt lat="59.077756404876709" lon="30.016171932220459">
        <time>2026-04-25T11:10:23Z</time>
      </trkpt>
      <trkpt lat="59.077756404876709" lon="30.016214847564697">
        <time>2026-04-25T11:10:25Z</time>
      </trkpt>
      <trkpt lat="59.077756404876709" lon="30.016236305236816">
        <time>2026-04-25T11:10:28Z</time>
      </trkpt>
      <trkpt lat="59.077756404876709" lon="30.016257762908936">
        <time>2026-04-25T11:10:30Z</time>
      </trkpt>
      <trkpt lat="59.077756404876709" lon="30.016279220581055">
        <time>2026-04-25T11:10:33Z</time>
      </trkpt>
      <trkpt lat="59.07773494720459" lon="30.016343593597412">
        <time>2026-04-25T11:10:35Z</time>
      </trkpt>
      <trkpt lat="59.07773494720459" lon="30.01638650894165">
        <time>2026-04-25T11:10:38Z</time>
      </trkpt>
      <trkpt lat="59.07773494720459" lon="30.016429424285889">
        <time>2026-04-25T11:10:40Z</time>
      </trkpt>
      <trkpt lat="59.07773494720459" lon="30.016472339630127">
        <time>2026-04-25T11:10:43Z</time>
      </trkpt>
      <trkpt lat="59.07773494720459" lon="30.016536712646484">
        <time>2026-04-25T11:10:45Z</time>
      </trkpt>
      <trkpt lat="59.07773494720459" lon="30.016558170318604">
        <time>2026-04-25T11:10:48Z</time>
      </trkpt>
      <trkpt lat="59.07773494720459" lon="30.016579627990723">
        <time>2026-04-25T11:10:50Z</time>
      </trkpt>
      <trkpt lat="59.07773494720459" lon="30.016601085662842">
        <time>2026-04-25T11:10:53Z</time>
      </trkpt>
      <trkpt lat="59.07773494720459" lon="30.016579627990723">
        <time>2026-04-25T11:10:55Z</time>
      </trkpt>
      <trkpt lat="59.077756404876709" lon="30.016579627990723">
        <time>2026-04-25T11:10:58Z</time>
      </trkpt>
      <trkpt lat="59.07773494720459" lon="30.016579627990723">
        <time>2026-04-25T11:11:03Z</time>
      </trkpt>
      <trkpt lat="59.07773494720459" lon="30.016579627990723">
        <time>2026-04-25T11:11:05Z</time>
      </trkpt>
      <trkpt lat="59.07773494720459" lon="30.016579627990723">
        <time>2026-04-25T11:11:08Z</time>
      </trkpt>
      <trkpt lat="59.077756404876709" lon="30.016622543334961">
        <time>2026-04-25T11:11:10Z</time>
      </trkpt>
      <trkpt lat="59.077756404876709" lon="30.016622543334961">
        <time>2026-04-25T11:11:13Z</time>
      </trkpt>
      <trkpt lat="59.077756404876709" lon="30.016622543334961">
        <time>2026-04-25T11:11:15Z</time>
      </trkpt>
      <trkpt lat="59.077777862548828" lon="30.016622543334961">
        <time>2026-04-25T11:11:18Z</time>
      </trkpt>
      <trkpt lat="59.077799320220947" lon="30.016622543334961">
        <time>2026-04-25T11:11:20Z</time>
      </trkpt>
      <trkpt lat="59.077799320220947" lon="30.01664400100708">
        <time>2026-04-25T11:11:23Z</time>
      </trkpt>
      <trkpt lat="59.077820777893066" lon="30.016665458679199">
        <time>2026-04-25T11:11:25Z</time>
      </trkpt>
      <trkpt lat="59.077842235565186" lon="30.016665458679199">
        <time>2026-04-25T11:11:28Z</time>
      </trkpt>
      <trkpt lat="59.077863693237305" lon="30.01664400100708">
        <time>2026-04-25T11:11:33Z</time>
      </trkpt>
      <trkpt lat="59.077906608581543" lon="30.01664400100708">
        <time>2026-04-25T11:11:35Z</time>
      </trkpt>
      <trkpt lat="59.077928066253662" lon="30.01664400100708">
        <time>2026-04-25T11:11:38Z</time>
      </trkpt>
      <trkpt lat="59.077949523925781" lon="30.016601085662842">
        <time>2026-04-25T11:11:40Z</time>
      </trkpt>
      <trkpt lat="59.077949523925781" lon="30.016601085662842">
        <time>2026-04-25T11:11:43Z</time>
      </trkpt>
      <trkpt lat="59.077949523925781" lon="30.016579627990723">
        <time>2026-04-25T11:11:45Z</time>
      </trkpt>
      <trkpt lat="59.0779709815979" lon="30.016536712646484">
        <time>2026-04-25T11:11:48Z</time>
      </trkpt>
      <trkpt lat="59.0779709815979" lon="30.016515254974365">
        <time>2026-04-25T11:11:50Z</time>
      </trkpt>
      <trkpt lat="59.0779709815979" lon="30.016493797302246">
        <time>2026-04-25T11:11:53Z</time>
      </trkpt>
      <trkpt lat="59.0779709815979" lon="30.016472339630127">
        <time>2026-04-25T11:11:55Z</time>
      </trkpt>
      <trkpt lat="59.07799243927002" lon="30.016429424285889">
        <time>2026-04-25T11:11:58Z</time>
      </trkpt>
      <trkpt lat="59.07799243927002" lon="30.016343593597412">
        <time>2026-04-25T11:12:00Z</time>
      </trkpt>
      <trkpt lat="59.078013896942139" lon="30.016300678253174">
        <time>2026-04-25T11:12:03Z</time>
      </trkpt>
      <trkpt lat="59.078013896942139" lon="30.016214847564697">
        <time>2026-04-25T11:12:05Z</time>
      </trkpt>
      <trkpt lat="59.078013896942139" lon="30.01615047454834">
        <time>2026-04-25T11:12:08Z</time>
      </trkpt>
      <trkpt lat="59.07799243927002" lon="30.016064643859863">
        <time>2026-04-25T11:12:13Z</time>
      </trkpt>
      <trkpt lat="59.07799243927002" lon="30.016043186187744">
        <time>2026-04-25T11:12:15Z</time>
      </trkpt>
      <trkpt lat="59.07799243927002" lon="30.016043186187744">
        <time>2026-04-25T11:12:18Z</time>
      </trkpt>
      <trkpt lat="59.07799243927002" lon="30.016000270843506">
        <time>2026-04-25T11:12:20Z</time>
      </trkpt>
      <trkpt lat="59.078013896942139" lon="30.015957355499268">
        <time>2026-04-25T11:12:23Z</time>
      </trkpt>
      <trkpt lat="59.07799243927002" lon="30.01589298248291">
        <time>2026-04-25T11:12:25Z</time>
      </trkpt>
      <trkpt lat="59.07799243927002" lon="30.015850067138672">
        <time>2026-04-25T11:12:28Z</time>
      </trkpt>
      <trkpt lat="59.0779709815979" lon="30.015785694122314">
        <time>2026-04-25T11:12:30Z</time>
      </trkpt>
      <trkpt lat="59.077949523925781" lon="30.015742778778076">
        <time>2026-04-25T11:12:33Z</time>
      </trkpt>
      <trkpt lat="59.077949523925781" lon="30.015678405761719">
        <time>2026-04-25T11:12:35Z</time>
      </trkpt>
      <trkpt lat="59.077949523925781" lon="30.01563549041748">
        <time>2026-04-25T11:12:38Z</time>
      </trkpt>
      <trkpt lat="59.077949523925781" lon="30.015592575073242">
        <time>2026-04-25T11:12:40Z</time>
      </trkpt>
      <trkpt lat="59.077949523925781" lon="30.015571117401123">
        <time>2026-04-25T11:12:43Z</time>
      </trkpt>
      <trkpt lat="59.077928066253662" lon="30.015528202056885">
        <time>2026-04-25T11:12:45Z</time>
      </trkpt>
      <trkpt lat="59.077928066253662" lon="30.015506744384766">
        <time>2026-04-25T11:12:48Z</time>
      </trkpt>
      <trkpt lat="59.077928066253662" lon="30.015485286712646">
        <time>2026-04-25T11:12:50Z</time>
      </trkpt>
      <trkpt lat="59.077928066253662" lon="30.015463829040527">
        <time>2026-04-25T11:12:53Z</time>
      </trkpt>
      <trkpt lat="59.077928066253662" lon="30.015463829040527">
        <time>2026-04-25T11:12:55Z</time>
      </trkpt>
      <trkpt lat="59.077928066253662" lon="30.015442371368408">
        <time>2026-04-25T11:12:58Z</time>
      </trkpt>
      <trkpt lat="59.077928066253662" lon="30.01539945602417">
        <time>2026-04-25T11:13:00Z</time>
      </trkpt>
      <trkpt lat="59.077928066253662" lon="30.015377998352051">
        <time>2026-04-25T11:13:03Z</time>
      </trkpt>
      <trkpt lat="59.077928066253662" lon="30.015356540679932">
        <time>2026-04-25T11:13:05Z</time>
      </trkpt>
      <trkpt lat="59.077928066253662" lon="30.015292167663574">
        <time>2026-04-25T11:13:08Z</time>
      </trkpt>
      <trkpt lat="59.077949523925781" lon="30.015206336975098">
        <time>2026-04-25T11:13:10Z</time>
      </trkpt>
      <trkpt lat="59.077949523925781" lon="30.015163421630859">
        <time>2026-04-25T11:13:13Z</time>
      </trkpt>
      <trkpt lat="59.077949523925781" lon="30.015163421630859">
        <time>2026-04-25T11:13:15Z</time>
      </trkpt>
      <trkpt lat="59.077949523925781" lon="30.01514196395874">
        <time>2026-04-25T11:13:18Z</time>
      </trkpt>
      <trkpt lat="59.077949523925781" lon="30.015120506286621">
        <time>2026-04-25T11:13:20Z</time>
      </trkpt>
      <trkpt lat="59.077949523925781" lon="30.015120506286621">
        <time>2026-04-25T11:13:23Z</time>
      </trkpt>
      <trkpt lat="59.077949523925781" lon="30.015099048614502">
        <time>2026-04-25T11:13:25Z</time>
      </trkpt>
      <trkpt lat="59.077949523925781" lon="30.015120506286621">
        <time>2026-04-25T11:13:28Z</time>
      </trkpt>
      <trkpt lat="59.077949523925781" lon="30.015120506286621">
        <time>2026-04-25T11:13:30Z</time>
      </trkpt>
      <trkpt lat="59.077928066253662" lon="30.015163421630859">
        <time>2026-04-25T11:13:33Z</time>
      </trkpt>
      <trkpt lat="59.077885150909424" lon="30.015120506286621">
        <time>2026-04-25T11:13:35Z</time>
      </trkpt>
      <trkpt lat="59.077842235565186" lon="30.015099048614502">
        <time>2026-04-25T11:13:38Z</time>
      </trkpt>
      <trkpt lat="59.077777862548828" lon="30.015056133270264">
        <time>2026-04-25T11:13:40Z</time>
      </trkpt>
      <trkpt lat="59.077756404876709" lon="30.015056133270264">
        <time>2026-04-25T11:13:43Z</time>
      </trkpt>
      <trkpt lat="59.077713489532471" lon="30.015099048614502">
        <time>2026-04-25T11:13:45Z</time>
      </trkpt>
      <trkpt lat="59.077713489532471" lon="30.015099048614502">
        <time>2026-04-25T11:13:48Z</time>
      </trkpt>
      <trkpt lat="59.077713489532471" lon="30.015099048614502">
        <time>2026-04-25T11:13:50Z</time>
      </trkpt>
      <trkpt lat="59.077713489532471" lon="30.015120506286621">
        <time>2026-04-25T11:13:53Z</time>
      </trkpt>
      <trkpt lat="59.077713489532471" lon="30.015120506286621">
        <time>2026-04-25T11:13:55Z</time>
      </trkpt>
      <trkpt lat="59.077713489532471" lon="30.015120506286621">
        <time>2026-04-25T11:13:58Z</time>
      </trkpt>
      <trkpt lat="59.077713489532471" lon="30.015120506286621">
        <time>2026-04-25T11:14:00Z</time>
      </trkpt>
      <trkpt lat="59.077713489532471" lon="30.015120506286621">
        <time>2026-04-25T11:14:03Z</time>
      </trkpt>
      <trkpt lat="59.077713489532471" lon="30.015120506286621">
        <time>2026-04-25T11:14:05Z</time>
      </trkpt>
      <trkpt lat="59.077713489532471" lon="30.015120506286621">
        <time>2026-04-25T11:14:08Z</time>
      </trkpt>
      <trkpt lat="59.077713489532471" lon="30.015099048614502">
        <time>2026-04-25T11:14:10Z</time>
      </trkpt>
      <trkpt lat="59.077692031860352" lon="30.015034675598145">
        <time>2026-04-25T11:14:13Z</time>
      </trkpt>
      <trkpt lat="59.077649116516113" lon="30.014884471893311">
        <time>2026-04-25T11:14:15Z</time>
      </trkpt>
      <trkpt lat="59.077627658843994" lon="30.014820098876953">
        <time>2026-04-25T11:14:18Z</time>
      </trkpt>
      <trkpt lat="59.077584743499756" lon="30.014712810516357">
        <time>2026-04-25T11:14:20Z</time>
      </trkpt>
      <trkpt lat="59.077584743499756" lon="30.014605522155762">
        <time>2026-04-25T11:14:23Z</time>
      </trkpt>
      <trkpt lat="59.077520370483398" lon="30.014455318450928">
        <time>2026-04-25T11:14:25Z</time>
      </trkpt>
      <trkpt lat="59.07747745513916" lon="30.014369487762451">
        <time>2026-04-25T11:14:28Z</time>
      </trkpt>
      <trkpt lat="59.077434539794922" lon="30.014283657073975">
        <time>2026-04-25T11:14:30Z</time>
      </trkpt>
      <trkpt lat="59.077413082122803" lon="30.014240741729736">
        <time>2026-04-25T11:14:33Z</time>
      </trkpt>
      <trkpt lat="59.077413082122803" lon="30.014240741729736">
        <time>2026-04-25T11:14:35Z</time>
      </trkpt>
      <trkpt lat="59.077391624450684" lon="30.014219284057617">
        <time>2026-04-25T11:14:38Z</time>
      </trkpt>
      <trkpt lat="59.077391624450684" lon="30.014219284057617">
        <time>2026-04-25T11:14:40Z</time>
      </trkpt>
      <trkpt lat="59.077391624450684" lon="30.014219284057617">
        <time>2026-04-25T11:14:43Z</time>
      </trkpt>
      <trkpt lat="59.077391624450684" lon="30.014219284057617">
        <time>2026-04-25T11:14:45Z</time>
      </trkpt>
      <trkpt lat="59.077391624450684" lon="30.014219284057617">
        <time>2026-04-25T11:14:48Z</time>
      </trkpt>
      <trkpt lat="59.077391624450684" lon="30.014219284057617">
        <time>2026-04-25T11:14:50Z</time>
      </trkpt>
      <trkpt lat="59.077391624450684" lon="30.014219284057617">
        <time>2026-04-25T11:14:53Z</time>
      </trkpt>
      <trkpt lat="59.077391624450684" lon="30.014219284057617">
        <time>2026-04-25T11:14:55Z</time>
      </trkpt>
      <trkpt lat="59.077391624450684" lon="30.014219284057617">
        <time>2026-04-25T11:14:58Z</time>
      </trkpt>
      <trkpt lat="59.077391624450684" lon="30.014219284057617">
        <time>2026-04-25T11:15:00Z</time>
      </trkpt>
      <trkpt lat="59.077391624450684" lon="30.014219284057617">
        <time>2026-04-25T11:15:03Z</time>
      </trkpt>
      <trkpt lat="59.077391624450684" lon="30.014219284057617">
        <time>2026-04-25T11:15:05Z</time>
      </trkpt>
      <trkpt lat="59.077391624450684" lon="30.014219284057617">
        <time>2026-04-25T11:15:08Z</time>
      </trkpt>
      <trkpt lat="59.077391624450684" lon="30.014197826385498">
        <time>2026-04-25T11:15:10Z</time>
      </trkpt>
      <trkpt lat="59.077391624450684" lon="30.014176368713379">
        <time>2026-04-25T11:15:13Z</time>
      </trkpt>
      <trkpt lat="59.077370166778564" lon="30.014133453369141">
        <time>2026-04-25T11:15:15Z</time>
      </trkpt>
      <trkpt lat="59.077348709106445" lon="30.014111995697021">
        <time>2026-04-25T11:15:18Z</time>
      </trkpt>
      <trkpt lat="59.077348709106445" lon="30.014090538024902">
        <time>2026-04-25T11:15:20Z</time>
      </trkpt>
      <trkpt lat="59.077327251434326" lon="30.014069080352783">
        <time>2026-04-25T11:15:23Z</time>
      </trkpt>
      <trkpt lat="59.077327251434326" lon="30.014047622680664">
        <time>2026-04-25T11:15:25Z</time>
      </trkpt>
      <trkpt lat="59.077305793762207" lon="30.014047622680664">
        <time>2026-04-25T11:15:28Z</time>
      </trkpt>
      <trkpt lat="59.077305793762207" lon="30.014047622680664">
        <time>2026-04-25T11:15:30Z</time>
      </trkpt>
      <trkpt lat="59.077305793762207" lon="30.014047622680664">
        <time>2026-04-25T11:15:33Z</time>
      </trkpt>
      <trkpt lat="59.077305793762207" lon="30.014047622680664">
        <time>2026-04-25T11:15:35Z</time>
      </trkpt>
      <trkpt lat="59.077305793762207" lon="30.014069080352783">
        <time>2026-04-25T11:15:38Z</time>
      </trkpt>
      <trkpt lat="59.077327251434326" lon="30.014069080352783">
        <time>2026-04-25T11:15:40Z</time>
      </trkpt>
      <trkpt lat="59.077327251434326" lon="30.014069080352783">
        <time>2026-04-25T11:15:43Z</time>
      </trkpt>
      <trkpt lat="59.077327251434326" lon="30.014069080352783">
        <time>2026-04-25T11:15:45Z</time>
      </trkpt>
      <trkpt lat="59.077327251434326" lon="30.014069080352783">
        <time>2026-04-25T11:15:48Z</time>
      </trkpt>
      <trkpt lat="59.077305793762207" lon="30.014069080352783">
        <time>2026-04-25T11:15:50Z</time>
      </trkpt>
      <trkpt lat="59.077305793762207" lon="30.014069080352783">
        <time>2026-04-25T11:15:53Z</time>
      </trkpt>
      <trkpt lat="59.077305793762207" lon="30.014069080352783">
        <time>2026-04-25T11:15:55Z</time>
      </trkpt>
      <trkpt lat="59.077305793762207" lon="30.014069080352783">
        <time>2026-04-25T11:15:58Z</time>
      </trkpt>
      <trkpt lat="59.077327251434326" lon="30.014069080352783">
        <time>2026-04-25T11:16:00Z</time>
      </trkpt>
      <trkpt lat="59.077327251434326" lon="30.014069080352783">
        <time>2026-04-25T11:16:03Z</time>
      </trkpt>
      <trkpt lat="59.077327251434326" lon="30.014047622680664">
        <time>2026-04-25T11:16:05Z</time>
      </trkpt>
      <trkpt lat="59.077327251434326" lon="30.014047622680664">
        <time>2026-04-25T11:16:08Z</time>
      </trkpt>
      <trkpt lat="59.077327251434326" lon="30.014069080352783">
        <time>2026-04-25T11:16:10Z</time>
      </trkpt>
      <trkpt lat="59.077327251434326" lon="30.014069080352783">
        <time>2026-04-25T11:16:13Z</time>
      </trkpt>
      <trkpt lat="59.077327251434326" lon="30.014047622680664">
        <time>2026-04-25T11:16:15Z</time>
      </trkpt>
      <trkpt lat="59.077327251434326" lon="30.014047622680664">
        <time>2026-04-25T11:16:18Z</time>
      </trkpt>
      <trkpt lat="59.077327251434326" lon="30.014047622680664">
        <time>2026-04-25T11:16:20Z</time>
      </trkpt>
      <trkpt lat="59.077327251434326" lon="30.014026165008545">
        <time>2026-04-25T11:16:23Z</time>
      </trkpt>
      <trkpt lat="59.077327251434326" lon="30.014026165008545">
        <time>2026-04-25T11:16:25Z</time>
      </trkpt>
      <trkpt lat="59.077327251434326" lon="30.014026165008545">
        <time>2026-04-25T11:16:28Z</time>
      </trkpt>
      <trkpt lat="59.077327251434326" lon="30.014004707336426">
        <time>2026-04-25T11:16:30Z</time>
      </trkpt>
      <trkpt lat="59.077327251434326" lon="30.013983249664307">
        <time>2026-04-25T11:16:33Z</time>
      </trkpt>
      <trkpt lat="59.077327251434326" lon="30.013983249664307">
        <time>2026-04-25T11:16:35Z</time>
      </trkpt>
      <trkpt lat="59.077327251434326" lon="30.013983249664307">
        <time>2026-04-25T11:16:38Z</time>
      </trkpt>
      <trkpt lat="59.077327251434326" lon="30.013983249664307">
        <time>2026-04-25T11:16:40Z</time>
      </trkpt>
      <trkpt lat="59.077327251434326" lon="30.013983249664307">
        <time>2026-04-25T11:16:43Z</time>
      </trkpt>
      <trkpt lat="59.077327251434326" lon="30.013983249664307">
        <time>2026-04-25T11:16:45Z</time>
      </trkpt>
      <trkpt lat="59.077327251434326" lon="30.013983249664307">
        <time>2026-04-25T11:16:48Z</time>
      </trkpt>
      <trkpt lat="59.077327251434326" lon="30.013983249664307">
        <time>2026-04-25T11:16:50Z</time>
      </trkpt>
      <trkpt lat="59.077327251434326" lon="30.013983249664307">
        <time>2026-04-25T11:16:53Z</time>
      </trkpt>
      <trkpt lat="59.077327251434326" lon="30.013983249664307">
        <time>2026-04-25T11:16:55Z</time>
      </trkpt>
      <trkpt lat="59.077327251434326" lon="30.013983249664307">
        <time>2026-04-25T11:16:58Z</time>
      </trkpt>
      <trkpt lat="59.077327251434326" lon="30.013983249664307">
        <time>2026-04-25T11:17:00Z</time>
      </trkpt>
      <trkpt lat="59.077327251434326" lon="30.013983249664307">
        <time>2026-04-25T11:17:03Z</time>
      </trkpt>
      <trkpt lat="59.077327251434326" lon="30.013983249664307">
        <time>2026-04-25T11:17:05Z</time>
      </trkpt>
      <trkpt lat="59.077327251434326" lon="30.013983249664307">
        <time>2026-04-25T11:17:08Z</time>
      </trkpt>
      <trkpt lat="59.077327251434326" lon="30.013983249664307">
        <time>2026-04-25T11:17:10Z</time>
      </trkpt>
      <trkpt lat="59.077327251434326" lon="30.013983249664307">
        <time>2026-04-25T11:17:13Z</time>
      </trkpt>
      <trkpt lat="59.077327251434326" lon="30.013983249664307">
        <time>2026-04-25T11:17:15Z</time>
      </trkpt>
      <trkpt lat="59.077327251434326" lon="30.013983249664307">
        <time>2026-04-25T11:17:18Z</time>
      </trkpt>
      <trkpt lat="59.077327251434326" lon="30.013983249664307">
        <time>2026-04-25T11:17:20Z</time>
      </trkpt>
      <trkpt lat="59.077327251434326" lon="30.013983249664307">
        <time>2026-04-25T11:17:23Z</time>
      </trkpt>
      <trkpt lat="59.077327251434326" lon="30.013983249664307">
        <time>2026-04-25T11:17:25Z</time>
      </trkpt>
      <trkpt lat="59.077327251434326" lon="30.013983249664307">
        <time>2026-04-25T11:17:28Z</time>
      </trkpt>
      <trkpt lat="59.077327251434326" lon="30.013983249664307">
        <time>2026-04-25T11:17:30Z</time>
      </trkpt>
      <trkpt lat="59.077327251434326" lon="30.013983249664307">
        <time>2026-04-25T11:17:33Z</time>
      </trkpt>
      <trkpt lat="59.077327251434326" lon="30.013983249664307">
        <time>2026-04-25T11:17:35Z</time>
      </trkpt>
      <trkpt lat="59.077327251434326" lon="30.013983249664307">
        <time>2026-04-25T11:17:38Z</time>
      </trkpt>
      <trkpt lat="59.077327251434326" lon="30.013983249664307">
        <time>2026-04-25T11:17:40Z</time>
      </trkpt>
      <trkpt lat="59.077327251434326" lon="30.013983249664307">
        <time>2026-04-25T11:17:43Z</time>
      </trkpt>
      <trkpt lat="59.077327251434326" lon="30.013983249664307">
        <time>2026-04-25T11:17:45Z</time>
      </trkpt>
      <trkpt lat="59.077327251434326" lon="30.013983249664307">
        <time>2026-04-25T11:17:48Z</time>
      </trkpt>
      <trkpt lat="59.077327251434326" lon="30.013983249664307">
        <time>2026-04-25T11:17:50Z</time>
      </trkpt>
      <trkpt lat="59.077327251434326" lon="30.013983249664307">
        <time>2026-04-25T11:17:53Z</time>
      </trkpt>
      <trkpt lat="59.077327251434326" lon="30.013983249664307">
        <time>2026-04-25T11:17:55Z</time>
      </trkpt>
      <trkpt lat="59.077327251434326" lon="30.013983249664307">
        <time>2026-04-25T11:17:58Z</time>
      </trkpt>
      <trkpt lat="59.077327251434326" lon="30.013983249664307">
        <time>2026-04-25T11:18:00Z</time>
      </trkpt>
      <trkpt lat="59.077327251434326" lon="30.013983249664307">
        <time>2026-04-25T11:18:03Z</time>
      </trkpt>
      <trkpt lat="59.077327251434326" lon="30.013983249664307">
        <time>2026-04-25T11:18:05Z</time>
      </trkpt>
      <trkpt lat="59.077327251434326" lon="30.013983249664307">
        <time>2026-04-25T11:18:08Z</time>
      </trkpt>
      <trkpt lat="59.077327251434326" lon="30.013983249664307">
        <time>2026-04-25T11:18:10Z</time>
      </trkpt>
      <trkpt lat="59.077327251434326" lon="30.013983249664307">
        <time>2026-04-25T11:18:13Z</time>
      </trkpt>
      <trkpt lat="59.077327251434326" lon="30.013983249664307">
        <time>2026-04-25T11:18:15Z</time>
      </trkpt>
      <trkpt lat="59.077327251434326" lon="30.013983249664307">
        <time>2026-04-25T11:18:18Z</time>
      </trkpt>
      <trkpt lat="59.077327251434326" lon="30.013983249664307">
        <time>2026-04-25T11:18:20Z</time>
      </trkpt>
      <trkpt lat="59.077327251434326" lon="30.013983249664307">
        <time>2026-04-25T11:18:23Z</time>
      </trkpt>
      <trkpt lat="59.077327251434326" lon="30.013983249664307">
        <time>2026-04-25T11:18:25Z</time>
      </trkpt>
      <trkpt lat="59.077327251434326" lon="30.013983249664307">
        <time>2026-04-25T11:18:28Z</time>
      </trkpt>
      <trkpt lat="59.077327251434326" lon="30.013983249664307">
        <time>2026-04-25T11:18:30Z</time>
      </trkpt>
      <trkpt lat="59.077327251434326" lon="30.013983249664307">
        <time>2026-04-25T11:18:33Z</time>
      </trkpt>
      <trkpt lat="59.077327251434326" lon="30.013983249664307">
        <time>2026-04-25T11:18:35Z</time>
      </trkpt>
      <trkpt lat="59.077327251434326" lon="30.013983249664307">
        <time>2026-04-25T11:18:38Z</time>
      </trkpt>
      <trkpt lat="59.077327251434326" lon="30.013983249664307">
        <time>2026-04-25T11:18:40Z</time>
      </trkpt>
      <trkpt lat="59.077327251434326" lon="30.013983249664307">
        <time>2026-04-25T11:18:43Z</time>
      </trkpt>
      <trkpt lat="59.077327251434326" lon="30.013983249664307">
        <time>2026-04-25T11:18:45Z</time>
      </trkpt>
      <trkpt lat="59.077327251434326" lon="30.013983249664307">
        <time>2026-04-25T11:18:48Z</time>
      </trkpt>
      <trkpt lat="59.077327251434326" lon="30.013983249664307">
        <time>2026-04-25T11:18:50Z</time>
      </trkpt>
      <trkpt lat="59.077327251434326" lon="30.013983249664307">
        <time>2026-04-25T11:18:53Z</time>
      </trkpt>
      <trkpt lat="59.077327251434326" lon="30.013983249664307">
        <time>2026-04-25T11:18:55Z</time>
      </trkpt>
      <trkpt lat="59.077327251434326" lon="30.013983249664307">
        <time>2026-04-25T11:18:58Z</time>
      </trkpt>
      <trkpt lat="59.077327251434326" lon="30.013983249664307">
        <time>2026-04-25T11:19:00Z</time>
      </trkpt>
      <trkpt lat="59.077327251434326" lon="30.014004707336426">
        <time>2026-04-25T11:19:03Z</time>
      </trkpt>
      <trkpt lat="59.077327251434326" lon="30.014004707336426">
        <time>2026-04-25T11:19:05Z</time>
      </trkpt>
      <trkpt lat="59.077327251434326" lon="30.014004707336426">
        <time>2026-04-25T11:19:08Z</time>
      </trkpt>
      <trkpt lat="59.077327251434326" lon="30.014026165008545">
        <time>2026-04-25T11:19:10Z</time>
      </trkpt>
      <trkpt lat="59.077348709106445" lon="30.014026165008545">
        <time>2026-04-25T11:19:13Z</time>
      </trkpt>
      <trkpt lat="59.077348709106445" lon="30.014026165008545">
        <time>2026-04-25T11:19:15Z</time>
      </trkpt>
      <trkpt lat="59.077348709106445" lon="30.014026165008545">
        <time>2026-04-25T11:19:18Z</time>
      </trkpt>
      <trkpt lat="59.077348709106445" lon="30.014026165008545">
        <time>2026-04-25T11:19:20Z</time>
      </trkpt>
      <trkpt lat="59.077348709106445" lon="30.014026165008545">
        <time>2026-04-25T11:19:23Z</time>
      </trkpt>
      <trkpt lat="59.077348709106445" lon="30.014026165008545">
        <time>2026-04-25T11:19:25Z</time>
      </trkpt>
      <trkpt lat="59.077348709106445" lon="30.014026165008545">
        <time>2026-04-25T11:19:28Z</time>
      </trkpt>
      <trkpt lat="59.077348709106445" lon="30.014026165008545">
        <time>2026-04-25T11:19:30Z</time>
      </trkpt>
      <trkpt lat="59.077348709106445" lon="30.014047622680664">
        <time>2026-04-25T11:19:33Z</time>
      </trkpt>
      <trkpt lat="59.077370166778564" lon="30.014069080352783">
        <time>2026-04-25T11:19:35Z</time>
      </trkpt>
      <trkpt lat="59.077370166778564" lon="30.014069080352783">
        <time>2026-04-25T11:19:38Z</time>
      </trkpt>
      <trkpt lat="59.077370166778564" lon="30.014069080352783">
        <time>2026-04-25T11:19:40Z</time>
      </trkpt>
      <trkpt lat="59.077370166778564" lon="30.014069080352783">
        <time>2026-04-25T11:19:43Z</time>
      </trkpt>
      <trkpt lat="59.077370166778564" lon="30.014069080352783">
        <time>2026-04-25T11:19:45Z</time>
      </trkpt>
      <trkpt lat="59.077391624450684" lon="30.014090538024902">
        <time>2026-04-25T11:19:48Z</time>
      </trkpt>
      <trkpt lat="59.077391624450684" lon="30.014090538024902">
        <time>2026-04-25T11:19:50Z</time>
      </trkpt>
      <trkpt lat="59.077391624450684" lon="30.014090538024902">
        <time>2026-04-25T11:19:53Z</time>
      </trkpt>
      <trkpt lat="59.077413082122803" lon="30.014090538024902">
        <time>2026-04-25T11:19:55Z</time>
      </trkpt>
      <trkpt lat="59.077413082122803" lon="30.014090538024902">
        <time>2026-04-25T11:19:58Z</time>
      </trkpt>
      <trkpt lat="59.077413082122803" lon="30.014090538024902">
        <time>2026-04-25T11:20:00Z</time>
      </trkpt>
      <trkpt lat="59.077413082122803" lon="30.014090538024902">
        <time>2026-04-25T11:20:03Z</time>
      </trkpt>
      <trkpt lat="59.077413082122803" lon="30.014090538024902">
        <time>2026-04-25T11:20:05Z</time>
      </trkpt>
      <trkpt lat="59.077413082122803" lon="30.014090538024902">
        <time>2026-04-25T11:20:08Z</time>
      </trkpt>
      <trkpt lat="59.077413082122803" lon="30.014090538024902">
        <time>2026-04-25T11:20:10Z</time>
      </trkpt>
      <trkpt lat="59.077413082122803" lon="30.014090538024902">
        <time>2026-04-25T11:20:13Z</time>
      </trkpt>
      <trkpt lat="59.077413082122803" lon="30.014090538024902">
        <time>2026-04-25T11:20:15Z</time>
      </trkpt>
      <trkpt lat="59.077413082122803" lon="30.014090538024902">
        <time>2026-04-25T11:20:18Z</time>
      </trkpt>
      <trkpt lat="59.077413082122803" lon="30.014090538024902">
        <time>2026-04-25T11:20:20Z</time>
      </trkpt>
      <trkpt lat="59.077413082122803" lon="30.014069080352783">
        <time>2026-04-25T11:20:23Z</time>
      </trkpt>
      <trkpt lat="59.077413082122803" lon="30.014069080352783">
        <time>2026-04-25T11:20:25Z</time>
      </trkpt>
      <trkpt lat="59.077413082122803" lon="30.014069080352783">
        <time>2026-04-25T11:20:28Z</time>
      </trkpt>
      <trkpt lat="59.077413082122803" lon="30.014069080352783">
        <time>2026-04-25T11:20:30Z</time>
      </trkpt>
      <trkpt lat="59.077413082122803" lon="30.014069080352783">
        <time>2026-04-25T11:20:33Z</time>
      </trkpt>
      <trkpt lat="59.077413082122803" lon="30.014069080352783">
        <time>2026-04-25T11:20:35Z</time>
      </trkpt>
      <trkpt lat="59.077413082122803" lon="30.014069080352783">
        <time>2026-04-25T11:20:38Z</time>
      </trkpt>
      <trkpt lat="59.077413082122803" lon="30.014069080352783">
        <time>2026-04-25T11:20:40Z</time>
      </trkpt>
      <trkpt lat="59.077413082122803" lon="30.014069080352783">
        <time>2026-04-25T11:20:43Z</time>
      </trkpt>
      <trkpt lat="59.077413082122803" lon="30.014069080352783">
        <time>2026-04-25T11:20:45Z</time>
      </trkpt>
      <trkpt lat="59.077413082122803" lon="30.014069080352783">
        <time>2026-04-25T11:20:48Z</time>
      </trkpt>
      <trkpt lat="59.077413082122803" lon="30.014069080352783">
        <time>2026-04-25T11:20:50Z</time>
      </trkpt>
      <trkpt lat="59.077413082122803" lon="30.014069080352783">
        <time>2026-04-25T11:20:53Z</time>
      </trkpt>
      <trkpt lat="59.077413082122803" lon="30.014069080352783">
        <time>2026-04-25T11:20:55Z</time>
      </trkpt>
      <trkpt lat="59.077413082122803" lon="30.014069080352783">
        <time>2026-04-25T11:20:58Z</time>
      </trkpt>
      <trkpt lat="59.077413082122803" lon="30.014069080352783">
        <time>2026-04-25T11:21:00Z</time>
      </trkpt>
      <trkpt lat="59.077413082122803" lon="30.014069080352783">
        <time>2026-04-25T11:21:03Z</time>
      </trkpt>
      <trkpt lat="59.077413082122803" lon="30.014069080352783">
        <time>2026-04-25T11:21:05Z</time>
      </trkpt>
      <trkpt lat="59.077413082122803" lon="30.014069080352783">
        <time>2026-04-25T11:21:08Z</time>
      </trkpt>
      <trkpt lat="59.077413082122803" lon="30.014069080352783">
        <time>2026-04-25T11:21:10Z</time>
      </trkpt>
      <trkpt lat="59.077413082122803" lon="30.014090538024902">
        <time>2026-04-25T11:21:13Z</time>
      </trkpt>
      <trkpt lat="59.077434539794922" lon="30.014111995697021">
        <time>2026-04-25T11:21:15Z</time>
      </trkpt>
      <trkpt lat="59.077434539794922" lon="30.014111995697021">
        <time>2026-04-25T11:21:18Z</time>
      </trkpt>
      <trkpt lat="59.077434539794922" lon="30.014133453369141">
        <time>2026-04-25T11:21:20Z</time>
      </trkpt>
      <trkpt lat="59.077434539794922" lon="30.01415491104126">
        <time>2026-04-25T11:21:23Z</time>
      </trkpt>
      <trkpt lat="59.077413082122803" lon="30.014176368713379">
        <time>2026-04-25T11:21:25Z</time>
      </trkpt>
      <trkpt lat="59.077413082122803" lon="30.014197826385498">
        <time>2026-04-25T11:21:28Z</time>
      </trkpt>
      <trkpt lat="59.077413082122803" lon="30.014219284057617">
        <time>2026-04-25T11:21:30Z</time>
      </trkpt>
      <trkpt lat="59.077413082122803" lon="30.014219284057617">
        <time>2026-04-25T11:21:33Z</time>
      </trkpt>
      <trkpt lat="59.077413082122803" lon="30.014197826385498">
        <time>2026-04-25T11:21:35Z</time>
      </trkpt>
      <trkpt lat="59.077391624450684" lon="30.014197826385498">
        <time>2026-04-25T11:21:38Z</time>
      </trkpt>
      <trkpt lat="59.077391624450684" lon="30.014197826385498">
        <time>2026-04-25T11:21:40Z</time>
      </trkpt>
      <trkpt lat="59.077391624450684" lon="30.014197826385498">
        <time>2026-04-25T11:21:43Z</time>
      </trkpt>
      <trkpt lat="59.077391624450684" lon="30.014197826385498">
        <time>2026-04-25T11:21:45Z</time>
      </trkpt>
      <trkpt lat="59.077391624450684" lon="30.014197826385498">
        <time>2026-04-25T11:21:48Z</time>
      </trkpt>
      <trkpt lat="59.077391624450684" lon="30.014197826385498">
        <time>2026-04-25T11:21:50Z</time>
      </trkpt>
      <trkpt lat="59.077391624450684" lon="30.014197826385498">
        <time>2026-04-25T11:21:53Z</time>
      </trkpt>
      <trkpt lat="59.077391624450684" lon="30.014197826385498">
        <time>2026-04-25T11:21:55Z</time>
      </trkpt>
      <trkpt lat="59.077391624450684" lon="30.014197826385498">
        <time>2026-04-25T11:21:58Z</time>
      </trkpt>
      <trkpt lat="59.077391624450684" lon="30.014197826385498">
        <time>2026-04-25T11:22:00Z</time>
      </trkpt>
      <trkpt lat="59.077391624450684" lon="30.014197826385498">
        <time>2026-04-25T11:22:03Z</time>
      </trkpt>
      <trkpt lat="59.077391624450684" lon="30.014197826385498">
        <time>2026-04-25T11:22:05Z</time>
      </trkpt>
      <trkpt lat="59.077391624450684" lon="30.014197826385498">
        <time>2026-04-25T11:22:08Z</time>
      </trkpt>
      <trkpt lat="59.077413082122803" lon="30.014240741729736">
        <time>2026-04-25T11:22:10Z</time>
      </trkpt>
      <trkpt lat="59.077413082122803" lon="30.014262199401855">
        <time>2026-04-25T11:22:13Z</time>
      </trkpt>
      <trkpt lat="59.077434539794922" lon="30.014305114746094">
        <time>2026-04-25T11:22:18Z</time>
      </trkpt>
      <trkpt lat="59.077434539794922" lon="30.014369487762451">
        <time>2026-04-25T11:22:20Z</time>
      </trkpt>
      <trkpt lat="59.077455997467041" lon="30.01439094543457">
        <time>2026-04-25T11:22:23Z</time>
      </trkpt>
      <trkpt lat="59.077455997467041" lon="30.01439094543457">
        <time>2026-04-25T11:22:25Z</time>
      </trkpt>
      <trkpt lat="59.07747745513916" lon="30.01439094543457">
        <time>2026-04-25T11:22:28Z</time>
      </trkpt>
      <trkpt lat="59.07747745513916" lon="30.014412403106689">
        <time>2026-04-25T11:22:30Z</time>
      </trkpt>
      <trkpt lat="59.07747745513916" lon="30.014455318450928">
        <time>2026-04-25T11:22:33Z</time>
      </trkpt>
      <trkpt lat="59.07747745513916" lon="30.014498233795166">
        <time>2026-04-25T11:22:35Z</time>
      </trkpt>
      <trkpt lat="59.077455997467041" lon="30.014519691467285">
        <time>2026-04-25T11:22:38Z</time>
      </trkpt>
      <trkpt lat="59.077434539794922" lon="30.014541149139404">
        <time>2026-04-25T11:22:40Z</time>
      </trkpt>
      <trkpt lat="59.077434539794922" lon="30.014584064483643">
        <time>2026-04-25T11:22:43Z</time>
      </trkpt>
      <trkpt lat="59.077434539794922" lon="30.014626979827881">
        <time>2026-04-25T11:22:45Z</time>
      </trkpt>
      <trkpt lat="59.077434539794922" lon="30.014669895172119">
        <time>2026-04-25T11:22:48Z</time>
      </trkpt>
      <trkpt lat="59.077434539794922" lon="30.014755725860596">
        <time>2026-04-25T11:22:50Z</time>
      </trkpt>
      <trkpt lat="59.077413082122803" lon="30.014820098876953">
        <time>2026-04-25T11:22:53Z</time>
      </trkpt>
      <trkpt lat="59.077391624450684" lon="30.014863014221191">
        <time>2026-04-25T11:22:55Z</time>
      </trkpt>
      <trkpt lat="59.077391624450684" lon="30.014884471893311">
        <time>2026-04-25T11:22:58Z</time>
      </trkpt>
      <trkpt lat="59.077348709106445" lon="30.014927387237549">
        <time>2026-04-25T11:23:00Z</time>
      </trkpt>
      <trkpt lat="59.077327251434326" lon="30.014970302581787">
        <time>2026-04-25T11:23:03Z</time>
      </trkpt>
      <trkpt lat="59.077305793762207" lon="30.014991760253906">
        <time>2026-04-25T11:23:05Z</time>
      </trkpt>
      <trkpt lat="59.077305793762207" lon="30.015013217926025">
        <time>2026-04-25T11:23:08Z</time>
      </trkpt>
      <trkpt lat="59.077284336090088" lon="30.015056133270264">
        <time>2026-04-25T11:23:10Z</time>
      </trkpt>
      <trkpt lat="59.077284336090088" lon="30.015056133270264">
        <time>2026-04-25T11:23:13Z</time>
      </trkpt>
      <trkpt lat="59.077262878417969" lon="30.015056133270264">
        <time>2026-04-25T11:23:15Z</time>
      </trkpt>
      <trkpt lat="59.077262878417969" lon="30.015056133270264">
        <time>2026-04-25T11:23:18Z</time>
      </trkpt>
      <trkpt lat="59.077262878417969" lon="30.015056133270264">
        <time>2026-04-25T11:23:20Z</time>
      </trkpt>
      <trkpt lat="59.077262878417969" lon="30.015056133270264">
        <time>2026-04-25T11:23:23Z</time>
      </trkpt>
      <trkpt lat="59.077262878417969" lon="30.015056133270264">
        <time>2026-04-25T11:23:25Z</time>
      </trkpt>
      <trkpt lat="59.07724142074585" lon="30.015077590942383">
        <time>2026-04-25T11:23:28Z</time>
      </trkpt>
      <trkpt lat="59.07724142074585" lon="30.015077590942383">
        <time>2026-04-25T11:23:30Z</time>
      </trkpt>
      <trkpt lat="59.07721996307373" lon="30.015099048614502">
        <time>2026-04-25T11:23:33Z</time>
      </trkpt>
      <trkpt lat="59.077198505401611" lon="30.015099048614502">
        <time>2026-04-25T11:23:35Z</time>
      </trkpt>
      <trkpt lat="59.077177047729492" lon="30.015120506286621">
        <time>2026-04-25T11:23:38Z</time>
      </trkpt>
      <trkpt lat="59.077155590057373" lon="30.01514196395874">
        <time>2026-04-25T11:23:40Z</time>
      </trkpt>
      <trkpt lat="59.077155590057373" lon="30.01514196395874">
        <time>2026-04-25T11:23:43Z</time>
      </trkpt>
      <trkpt lat="59.077134132385254" lon="30.015120506286621">
        <time>2026-04-25T11:23:45Z</time>
      </trkpt>
      <trkpt lat="59.077134132385254" lon="30.01514196395874">
        <time>2026-04-25T11:23:48Z</time>
      </trkpt>
      <trkpt lat="59.077112674713135" lon="30.015120506286621">
        <time>2026-04-25T11:23:50Z</time>
      </trkpt>
      <trkpt lat="59.077091217041016" lon="30.015120506286621">
        <time>2026-04-25T11:23:53Z</time>
      </trkpt>
      <trkpt lat="59.077091217041016" lon="30.015120506286621">
        <time>2026-04-25T11:23:55Z</time>
      </trkpt>
      <trkpt lat="59.077069759368896" lon="30.015120506286621">
        <time>2026-04-25T11:23:58Z</time>
      </trkpt>
      <trkpt lat="59.077069759368896" lon="30.015099048614502">
        <time>2026-04-25T11:24:00Z</time>
      </trkpt>
      <trkpt lat="59.077048301696777" lon="30.015120506286621">
        <time>2026-04-25T11:24:03Z</time>
      </trkpt>
      <trkpt lat="59.077026844024658" lon="30.01514196395874">
        <time>2026-04-25T11:24:05Z</time>
      </trkpt>
      <trkpt lat="59.077026844024658" lon="30.015163421630859">
        <time>2026-04-25T11:24:08Z</time>
      </trkpt>
      <trkpt lat="59.077005386352539" lon="30.015206336975098">
        <time>2026-04-25T11:24:10Z</time>
      </trkpt>
      <trkpt lat="59.077026844024658" lon="30.015249252319336">
        <time>2026-04-25T11:24:13Z</time>
      </trkpt>
      <trkpt lat="59.077026844024658" lon="30.015292167663574">
        <time>2026-04-25T11:24:15Z</time>
      </trkpt>
      <trkpt lat="59.077048301696777" lon="30.015292167663574">
        <time>2026-04-25T11:24:18Z</time>
      </trkpt>
      <trkpt lat="59.077005386352539" lon="30.015249252319336">
        <time>2026-04-25T11:24:20Z</time>
      </trkpt>
      <trkpt lat="59.077005386352539" lon="30.015184879302979">
        <time>2026-04-25T11:24:23Z</time>
      </trkpt>
      <trkpt lat="59.07698392868042" lon="30.01514196395874">
        <time>2026-04-25T11:24:25Z</time>
      </trkpt>
      <trkpt lat="59.076962471008301" lon="30.01514196395874">
        <time>2026-04-25T11:24:28Z</time>
      </trkpt>
      <trkpt lat="59.076941013336182" lon="30.01514196395874">
        <time>2026-04-25T11:24:30Z</time>
      </trkpt>
      <trkpt lat="59.076919555664063" lon="30.015184879302979">
        <time>2026-04-25T11:24:33Z</time>
      </trkpt>
      <trkpt lat="59.076898097991943" lon="30.015227794647217">
        <time>2026-04-25T11:24:35Z</time>
      </trkpt>
      <trkpt lat="59.076898097991943" lon="30.015227794647217">
        <time>2026-04-25T11:24:38Z</time>
      </trkpt>
      <trkpt lat="59.076898097991943" lon="30.015206336975098">
        <time>2026-04-25T11:24:40Z</time>
      </trkpt>
      <trkpt lat="59.076919555664063" lon="30.015206336975098">
        <time>2026-04-25T11:24:43Z</time>
      </trkpt>
      <trkpt lat="59.076941013336182" lon="30.015227794647217">
        <time>2026-04-25T11:24:45Z</time>
      </trkpt>
      <trkpt lat="59.076941013336182" lon="30.015206336975098">
        <time>2026-04-25T11:24:48Z</time>
      </trkpt>
      <trkpt lat="59.076941013336182" lon="30.015184879302979">
        <time>2026-04-25T11:24:50Z</time>
      </trkpt>
      <trkpt lat="59.076941013336182" lon="30.015163421630859">
        <time>2026-04-25T11:24:53Z</time>
      </trkpt>
      <trkpt lat="59.076898097991943" lon="30.015184879302979">
        <time>2026-04-25T11:24:55Z</time>
      </trkpt>
      <trkpt lat="59.076876640319824" lon="30.015184879302979">
        <time>2026-04-25T11:24:58Z</time>
      </trkpt>
      <trkpt lat="59.076855182647705" lon="30.015184879302979">
        <time>2026-04-25T11:25:00Z</time>
      </trkpt>
      <trkpt lat="59.076833724975586" lon="30.015184879302979">
        <time>2026-04-25T11:25:03Z</time>
      </trkpt>
      <trkpt lat="59.076833724975586" lon="30.01514196395874">
        <time>2026-04-25T11:25:05Z</time>
      </trkpt>
      <trkpt lat="59.076833724975586" lon="30.015099048614502">
        <time>2026-04-25T11:25:08Z</time>
      </trkpt>
      <trkpt lat="59.076812267303467" lon="30.015077590942383">
        <time>2026-04-25T11:25:10Z</time>
      </trkpt>
      <trkpt lat="59.076833724975586" lon="30.015077590942383">
        <time>2026-04-25T11:25:13Z</time>
      </trkpt>
      <trkpt lat="59.076833724975586" lon="30.015077590942383">
        <time>2026-04-25T11:25:15Z</time>
      </trkpt>
      <trkpt lat="59.076833724975586" lon="30.015099048614502">
        <time>2026-04-25T11:25:18Z</time>
      </trkpt>
      <trkpt lat="59.076812267303467" lon="30.015099048614502">
        <time>2026-04-25T11:25:20Z</time>
      </trkpt>
      <trkpt lat="59.076790809631348" lon="30.015120506286621">
        <time>2026-04-25T11:25:23Z</time>
      </trkpt>
      <trkpt lat="59.076747894287109" lon="30.015163421630859">
        <time>2026-04-25T11:25:25Z</time>
      </trkpt>
      <trkpt lat="59.076747894287109" lon="30.015184879302979">
        <time>2026-04-25T11:25:28Z</time>
      </trkpt>
      <trkpt lat="59.07672643661499" lon="30.015206336975098">
        <time>2026-04-25T11:25:30Z</time>
      </trkpt>
      <trkpt lat="59.076704978942871" lon="30.015206336975098">
        <time>2026-04-25T11:25:33Z</time>
      </trkpt>
      <trkpt lat="59.076683521270752" lon="30.015184879302979">
        <time>2026-04-25T11:25:35Z</time>
      </trkpt>
      <trkpt lat="59.076683521270752" lon="30.015163421630859">
        <time>2026-04-25T11:25:38Z</time>
      </trkpt>
      <trkpt lat="59.076683521270752" lon="30.015163421630859">
        <time>2026-04-25T11:25:40Z</time>
      </trkpt>
      <trkpt lat="59.076683521270752" lon="30.015163421630859">
        <time>2026-04-25T11:25:43Z</time>
      </trkpt>
      <trkpt lat="59.076662063598633" lon="30.015206336975098">
        <time>2026-04-25T11:25:45Z</time>
      </trkpt>
      <trkpt lat="59.076640605926514" lon="30.015227794647217">
        <time>2026-04-25T11:25:48Z</time>
      </trkpt>
      <trkpt lat="59.076640605926514" lon="30.015249252319336">
        <time>2026-04-25T11:25:50Z</time>
      </trkpt>
      <trkpt lat="59.076619148254395" lon="30.015249252319336">
        <time>2026-04-25T11:25:53Z</time>
      </trkpt>
      <trkpt lat="59.076640605926514" lon="30.015249252319336">
        <time>2026-04-25T11:25:55Z</time>
      </trkpt>
      <trkpt lat="59.076619148254395" lon="30.015270709991455">
        <time>2026-04-25T11:25:58Z</time>
      </trkpt>
      <trkpt lat="59.076597690582275" lon="30.015270709991455">
        <time>2026-04-25T11:26:00Z</time>
      </trkpt>
      <trkpt lat="59.076576232910156" lon="30.015292167663574">
        <time>2026-04-25T11:26:03Z</time>
      </trkpt>
      <trkpt lat="59.076554775238037" lon="30.015313625335693">
        <time>2026-04-25T11:26:05Z</time>
      </trkpt>
      <trkpt lat="59.076554775238037" lon="30.015313625335693">
        <time>2026-04-25T11:26:08Z</time>
      </trkpt>
      <trkpt lat="59.076533317565918" lon="30.015335083007812">
        <time>2026-04-25T11:26:10Z</time>
      </trkpt>
      <trkpt lat="59.076533317565918" lon="30.015335083007812">
        <time>2026-04-25T11:26:13Z</time>
      </trkpt>
      <trkpt lat="59.076533317565918" lon="30.015356540679932">
        <time>2026-04-25T11:26:15Z</time>
      </trkpt>
      <trkpt lat="59.076533317565918" lon="30.015377998352051">
        <time>2026-04-25T11:26:18Z</time>
      </trkpt>
      <trkpt lat="59.076533317565918" lon="30.015420913696289">
        <time>2026-04-25T11:26:20Z</time>
      </trkpt>
      <trkpt lat="59.076533317565918" lon="30.015463829040527">
        <time>2026-04-25T11:26:23Z</time>
      </trkpt>
      <trkpt lat="59.076511859893799" lon="30.015528202056885">
        <time>2026-04-25T11:26:25Z</time>
      </trkpt>
      <trkpt lat="59.076511859893799" lon="30.015571117401123">
        <time>2026-04-25T11:26:28Z</time>
      </trkpt>
      <trkpt lat="59.07649040222168" lon="30.015614032745361">
        <time>2026-04-25T11:26:30Z</time>
      </trkpt>
      <trkpt lat="59.076511859893799" lon="30.01563549041748">
        <time>2026-04-25T11:26:33Z</time>
      </trkpt>
      <trkpt lat="59.07649040222168" lon="30.015678405761719">
        <time>2026-04-25T11:26:35Z</time>
      </trkpt>
      <trkpt lat="59.07649040222168" lon="30.015721321105957">
        <time>2026-04-25T11:26:38Z</time>
      </trkpt>
      <trkpt lat="59.076511859893799" lon="30.015764236450195">
        <time>2026-04-25T11:26:40Z</time>
      </trkpt>
      <trkpt lat="59.07649040222168" lon="30.015807151794434">
        <time>2026-04-25T11:26:43Z</time>
      </trkpt>
      <trkpt lat="59.076511859893799" lon="30.01589298248291">
        <time>2026-04-25T11:26:45Z</time>
      </trkpt>
      <trkpt lat="59.076511859893799" lon="30.015935897827148">
        <time>2026-04-25T11:26:48Z</time>
      </trkpt>
      <trkpt lat="59.076511859893799" lon="30.016000270843506">
        <time>2026-04-25T11:26:50Z</time>
      </trkpt>
      <trkpt lat="59.07649040222168" lon="30.016021728515625">
        <time>2026-04-25T11:26:53Z</time>
      </trkpt>
      <trkpt lat="59.07649040222168" lon="30.016043186187744">
        <time>2026-04-25T11:26:55Z</time>
      </trkpt>
      <trkpt lat="59.07649040222168" lon="30.016043186187744">
        <time>2026-04-25T11:26:58Z</time>
      </trkpt>
      <trkpt lat="59.076468944549561" lon="30.016064643859863">
        <time>2026-04-25T11:27:00Z</time>
      </trkpt>
      <trkpt lat="59.076447486877441" lon="30.016086101531982">
        <time>2026-04-25T11:27:03Z</time>
      </trkpt>
      <trkpt lat="59.076426029205322" lon="30.016171932220459">
        <time>2026-04-25T11:27:05Z</time>
      </trkpt>
      <trkpt lat="59.076404571533203" lon="30.016214847564697">
        <time>2026-04-25T11:27:08Z</time>
      </trkpt>
      <trkpt lat="59.076404571533203" lon="30.016300678253174">
        <time>2026-04-25T11:27:10Z</time>
      </trkpt>
      <trkpt lat="59.076383113861084" lon="30.016343593597412">
        <time>2026-04-25T11:27:13Z</time>
      </trkpt>
      <trkpt lat="59.076383113861084" lon="30.016322135925293">
        <time>2026-04-25T11:27:15Z</time>
      </trkpt>
      <trkpt lat="59.076383113861084" lon="30.016322135925293">
        <time>2026-04-25T11:27:20Z</time>
      </trkpt>
      <trkpt lat="59.076383113861084" lon="30.016322135925293">
        <time>2026-04-25T11:27:23Z</time>
      </trkpt>
      <trkpt lat="59.076383113861084" lon="30.016322135925293">
        <time>2026-04-25T11:27:25Z</time>
      </trkpt>
      <trkpt lat="59.076383113861084" lon="30.016300678253174">
        <time>2026-04-25T11:27:28Z</time>
      </trkpt>
      <trkpt lat="59.076383113861084" lon="30.016300678253174">
        <time>2026-04-25T11:27:30Z</time>
      </trkpt>
      <trkpt lat="59.076383113861084" lon="30.016300678253174">
        <time>2026-04-25T11:27:33Z</time>
      </trkpt>
      <trkpt lat="59.076404571533203" lon="30.016279220581055">
        <time>2026-04-25T11:27:35Z</time>
      </trkpt>
      <trkpt lat="59.076404571533203" lon="30.016193389892578">
        <time>2026-04-25T11:27:38Z</time>
      </trkpt>
      <trkpt lat="59.076404571533203" lon="30.016043186187744">
        <time>2026-04-25T11:27:40Z</time>
      </trkpt>
      <trkpt lat="59.076383113861084" lon="30.015914440155029">
        <time>2026-04-25T11:27:43Z</time>
      </trkpt>
      <trkpt lat="59.076361656188965" lon="30.015785694122314">
        <time>2026-04-25T11:27:45Z</time>
      </trkpt>
      <trkpt lat="59.076340198516846" lon="30.015699863433838">
        <time>2026-04-25T11:27:48Z</time>
      </trkpt>
      <trkpt lat="59.076340198516846" lon="30.015592575073242">
        <time>2026-04-25T11:27:50Z</time>
      </trkpt>
      <trkpt lat="59.076318740844727" lon="30.015549659729004">
        <time>2026-04-25T11:27:53Z</time>
      </trkpt>
      <trkpt lat="59.076318740844727" lon="30.01539945602417">
        <time>2026-04-25T11:27:55Z</time>
      </trkpt>
      <trkpt lat="59.076297283172607" lon="30.015356540679932">
        <time>2026-04-25T11:27:58Z</time>
      </trkpt>
      <trkpt lat="59.076275825500488" lon="30.015292167663574">
        <time>2026-04-25T11:28:00Z</time>
      </trkpt>
      <trkpt lat="59.076254367828369" lon="30.015356540679932">
        <time>2026-04-25T11:28:03Z</time>
      </trkpt>
      <trkpt lat="59.07623291015625" lon="30.015377998352051">
        <time>2026-04-25T11:28:05Z</time>
      </trkpt>
      <trkpt lat="59.07623291015625" lon="30.015377998352051">
        <time>2026-04-25T11:28:08Z</time>
      </trkpt>
      <trkpt lat="59.07623291015625" lon="30.015377998352051">
        <time>2026-04-25T11:28:10Z</time>
      </trkpt>
      <trkpt lat="59.07623291015625" lon="30.015377998352051">
        <time>2026-04-25T11:28:13Z</time>
      </trkpt>
      <trkpt lat="59.07623291015625" lon="30.015377998352051">
        <time>2026-04-25T11:28:15Z</time>
      </trkpt>
      <trkpt lat="59.076211452484131" lon="30.015377998352051">
        <time>2026-04-25T11:28:18Z</time>
      </trkpt>
      <trkpt lat="59.076189994812012" lon="30.015356540679932">
        <time>2026-04-25T11:28:20Z</time>
      </trkpt>
      <trkpt lat="59.076168537139893" lon="30.015356540679932">
        <time>2026-04-25T11:28:23Z</time>
      </trkpt>
      <trkpt lat="59.076147079467773" lon="30.015335083007812">
        <time>2026-04-25T11:28:25Z</time>
      </trkpt>
      <trkpt lat="59.076125621795654" lon="30.015335083007812">
        <time>2026-04-25T11:28:28Z</time>
      </trkpt>
      <trkpt lat="59.076104164123535" lon="30.015356540679932">
        <time>2026-04-25T11:28:30Z</time>
      </trkpt>
      <trkpt lat="59.076104164123535" lon="30.01539945602417">
        <time>2026-04-25T11:28:33Z</time>
      </trkpt>
      <trkpt lat="59.076104164123535" lon="30.015463829040527">
        <time>2026-04-25T11:28:35Z</time>
      </trkpt>
      <trkpt lat="59.076082706451416" lon="30.015506744384766">
        <time>2026-04-25T11:28:38Z</time>
      </trkpt>
      <trkpt lat="59.076082706451416" lon="30.015549659729004">
        <time>2026-04-25T11:28:40Z</time>
      </trkpt>
      <trkpt lat="59.076082706451416" lon="30.015592575073242">
        <time>2026-04-25T11:28:43Z</time>
      </trkpt>
      <trkpt lat="59.076039791107178" lon="30.01563549041748">
        <time>2026-04-25T11:28:45Z</time>
      </trkpt>
      <trkpt lat="59.076039791107178" lon="30.015614032745361">
        <time>2026-04-25T11:28:48Z</time>
      </trkpt>
      <trkpt lat="59.076039791107178" lon="30.015614032745361">
        <time>2026-04-25T11:28:50Z</time>
      </trkpt>
      <trkpt lat="59.076039791107178" lon="30.015614032745361">
        <time>2026-04-25T11:28:53Z</time>
      </trkpt>
      <trkpt lat="59.076039791107178" lon="30.015614032745361">
        <time>2026-04-25T11:28:55Z</time>
      </trkpt>
      <trkpt lat="59.076039791107178" lon="30.015614032745361">
        <time>2026-04-25T11:28:58Z</time>
      </trkpt>
      <trkpt lat="59.076039791107178" lon="30.015614032745361">
        <time>2026-04-25T11:29:00Z</time>
      </trkpt>
      <trkpt lat="59.076039791107178" lon="30.015614032745361">
        <time>2026-04-25T11:29:03Z</time>
      </trkpt>
      <trkpt lat="59.075996875762939" lon="30.015571117401123">
        <time>2026-04-25T11:29:05Z</time>
      </trkpt>
      <trkpt lat="59.07597541809082" lon="30.015485286712646">
        <time>2026-04-25T11:29:08Z</time>
      </trkpt>
      <trkpt lat="59.075932502746582" lon="30.015420913696289">
        <time>2026-04-25T11:29:10Z</time>
      </trkpt>
      <trkpt lat="59.075911045074463" lon="30.01539945602417">
        <time>2026-04-25T11:29:13Z</time>
      </trkpt>
      <trkpt lat="59.075868129730225" lon="30.015377998352051">
        <time>2026-04-25T11:29:15Z</time>
      </trkpt>
      <trkpt lat="59.075846672058105" lon="30.015377998352051">
        <time>2026-04-25T11:29:18Z</time>
      </trkpt>
      <trkpt lat="59.075803756713867" lon="30.015377998352051">
        <time>2026-04-25T11:29:20Z</time>
      </trkpt>
      <trkpt lat="59.075803756713867" lon="30.01539945602417">
        <time>2026-04-25T11:29:23Z</time>
      </trkpt>
      <trkpt lat="59.075803756713867" lon="30.01539945602417">
        <time>2026-04-25T11:29:25Z</time>
      </trkpt>
      <trkpt lat="59.075782299041748" lon="30.015377998352051">
        <time>2026-04-25T11:29:28Z</time>
      </trkpt>
      <trkpt lat="59.075782299041748" lon="30.015335083007812">
        <time>2026-04-25T11:29:30Z</time>
      </trkpt>
      <trkpt lat="59.075782299041748" lon="30.015335083007812">
        <time>2026-04-25T11:29:33Z</time>
      </trkpt>
      <trkpt lat="59.075782299041748" lon="30.015356540679932">
        <time>2026-04-25T11:29:35Z</time>
      </trkpt>
      <trkpt lat="59.075760841369629" lon="30.015377998352051">
        <time>2026-04-25T11:29:38Z</time>
      </trkpt>
      <trkpt lat="59.07573938369751" lon="30.015442371368408">
        <time>2026-04-25T11:29:40Z</time>
      </trkpt>
      <trkpt lat="59.07573938369751" lon="30.015528202056885">
        <time>2026-04-25T11:29:43Z</time>
      </trkpt>
      <trkpt lat="59.075717926025391" lon="30.015528202056885">
        <time>2026-04-25T11:29:45Z</time>
      </trkpt>
      <trkpt lat="59.075675010681152" lon="30.015485286712646">
        <time>2026-04-25T11:29:48Z</time>
      </trkpt>
      <trkpt lat="59.075610637664795" lon="30.015463829040527">
        <time>2026-04-25T11:29:50Z</time>
      </trkpt>
      <trkpt lat="59.075610637664795" lon="30.015463829040527">
        <time>2026-04-25T11:29:53Z</time>
      </trkpt>
      <trkpt lat="59.075589179992676" lon="30.015485286712646">
        <time>2026-04-25T11:29:55Z</time>
      </trkpt>
      <trkpt lat="59.075589179992676" lon="30.015528202056885">
        <time>2026-04-25T11:29:58Z</time>
      </trkpt>
      <trkpt lat="59.075567722320557" lon="30.01563549041748">
        <time>2026-04-25T11:30:00Z</time>
      </trkpt>
      <trkpt lat="59.075546264648438" lon="30.0156569480896">
        <time>2026-04-25T11:30:03Z</time>
      </trkpt>
      <trkpt lat="59.075503349304199" lon="30.015699863433838">
        <time>2026-04-25T11:30:05Z</time>
      </trkpt>
      <trkpt lat="59.075460433959961" lon="30.015764236450195">
        <time>2026-04-25T11:30:08Z</time>
      </trkpt>
      <trkpt lat="59.075460433959961" lon="30.01589298248291">
        <time>2026-04-25T11:30:10Z</time>
      </trkpt>
      <trkpt lat="59.075438976287842" lon="30.015957355499268">
        <time>2026-04-25T11:30:13Z</time>
      </trkpt>
      <trkpt lat="59.075417518615723" lon="30.016000270843506">
        <time>2026-04-25T11:30:15Z</time>
      </trkpt>
      <trkpt lat="59.075374603271484" lon="30.016000270843506">
        <time>2026-04-25T11:30:18Z</time>
      </trkpt>
      <trkpt lat="59.075353145599365" lon="30.016086101531982">
        <time>2026-04-25T11:30:20Z</time>
      </trkpt>
      <trkpt lat="59.075310230255127" lon="30.016107559204102">
        <time>2026-04-25T11:30:23Z</time>
      </trkpt>
      <trkpt lat="59.075310230255127" lon="30.016193389892578">
        <time>2026-04-25T11:30:25Z</time>
      </trkpt>
      <trkpt lat="59.075288772583008" lon="30.016236305236816">
        <time>2026-04-25T11:30:28Z</time>
      </trkpt>
      <trkpt lat="59.075267314910889" lon="30.016279220581055">
        <time>2026-04-25T11:30:30Z</time>
      </trkpt>
      <trkpt lat="59.07524585723877" lon="30.016300678253174">
        <time>2026-04-25T11:30:33Z</time>
      </trkpt>
      <trkpt lat="59.07524585723877" lon="30.016322135925293">
        <time>2026-04-25T11:30:35Z</time>
      </trkpt>
      <trkpt lat="59.07524585723877" lon="30.016322135925293">
        <time>2026-04-25T11:30:38Z</time>
      </trkpt>
      <trkpt lat="59.07524585723877" lon="30.016322135925293">
        <time>2026-04-25T11:30:40Z</time>
      </trkpt>
      <trkpt lat="59.07524585723877" lon="30.016322135925293">
        <time>2026-04-25T11:30:43Z</time>
      </trkpt>
      <trkpt lat="59.07524585723877" lon="30.016322135925293">
        <time>2026-04-25T11:30:45Z</time>
      </trkpt>
      <trkpt lat="59.07524585723877" lon="30.016322135925293">
        <time>2026-04-25T11:30:48Z</time>
      </trkpt>
      <trkpt lat="59.075267314910889" lon="30.016322135925293">
        <time>2026-04-25T11:30:50Z</time>
      </trkpt>
      <trkpt lat="59.075288772583008" lon="30.016343593597412">
        <time>2026-04-25T11:30:53Z</time>
      </trkpt>
      <trkpt lat="59.075331687927246" lon="30.01638650894165">
        <time>2026-04-25T11:30:55Z</time>
      </trkpt>
      <trkpt lat="59.075353145599365" lon="30.01640796661377">
        <time>2026-04-25T11:30:58Z</time>
      </trkpt>
      <trkpt lat="59.075396060943604" lon="30.016472339630127">
        <time>2026-04-25T11:31:00Z</time>
      </trkpt>
      <trkpt lat="59.075438976287842" lon="30.016493797302246">
        <time>2026-04-25T11:31:03Z</time>
      </trkpt>
      <trkpt lat="59.075503349304199" lon="30.016515254974365">
        <time>2026-04-25T11:31:05Z</time>
      </trkpt>
      <trkpt lat="59.075546264648438" lon="30.016515254974365">
        <time>2026-04-25T11:31:08Z</time>
      </trkpt>
      <trkpt lat="59.075589179992676" lon="30.016493797302246">
        <time>2026-04-25T11:31:10Z</time>
      </trkpt>
      <trkpt lat="59.075632095336914" lon="30.016493797302246">
        <time>2026-04-25T11:31:13Z</time>
      </trkpt>
      <trkpt lat="59.075653553009033" lon="30.016515254974365">
        <time>2026-04-25T11:31:15Z</time>
      </trkpt>
      <trkpt lat="59.075675010681152" lon="30.016515254974365">
        <time>2026-04-25T11:31:18Z</time>
      </trkpt>
      <trkpt lat="59.075717926025391" lon="30.016515254974365">
        <time>2026-04-25T11:31:20Z</time>
      </trkpt>
      <trkpt lat="59.075760841369629" lon="30.016536712646484">
        <time>2026-04-25T11:31:23Z</time>
      </trkpt>
      <trkpt lat="59.075782299041748" lon="30.016579627990723">
        <time>2026-04-25T11:31:25Z</time>
      </trkpt>
      <trkpt lat="59.075803756713867" lon="30.016622543334961">
        <time>2026-04-25T11:31:28Z</time>
      </trkpt>
      <trkpt lat="59.075825214385986" lon="30.016708374023438">
        <time>2026-04-25T11:31:30Z</time>
      </trkpt>
      <trkpt lat="59.075846672058105" lon="30.016751289367676">
        <time>2026-04-25T11:31:33Z</time>
      </trkpt>
      <trkpt lat="59.075889587402344" lon="30.016751289367676">
        <time>2026-04-25T11:31:35Z</time>
      </trkpt>
      <trkpt lat="59.075932502746582" lon="30.016729831695557">
        <time>2026-04-25T11:31:38Z</time>
      </trkpt>
      <trkpt lat="59.07597541809082" lon="30.016729831695557">
        <time>2026-04-25T11:31:40Z</time>
      </trkpt>
      <trkpt lat="59.075996875762939" lon="30.016729831695557">
        <time>2026-04-25T11:31:43Z</time>
      </trkpt>
      <trkpt lat="59.076039791107178" lon="30.016665458679199">
        <time>2026-04-25T11:31:45Z</time>
      </trkpt>
      <trkpt lat="59.076061248779297" lon="30.016601085662842">
        <time>2026-04-25T11:31:48Z</time>
      </trkpt>
      <trkpt lat="59.076104164123535" lon="30.016515254974365">
        <time>2026-04-25T11:31:50Z</time>
      </trkpt>
      <trkpt lat="59.076125621795654" lon="30.016450881958008">
        <time>2026-04-25T11:31:53Z</time>
      </trkpt>
      <trkpt lat="59.076147079467773" lon="30.01638650894165">
        <time>2026-04-25T11:31:58Z</time>
      </trkpt>
      <trkpt lat="59.076189994812012" lon="30.01640796661377">
        <time>2026-04-25T11:32:00Z</time>
      </trkpt>
      <trkpt lat="59.07623291015625" lon="30.01638650894165">
        <time>2026-04-25T11:32:03Z</time>
      </trkpt>
      <trkpt lat="59.076275825500488" lon="30.016365051269531">
        <time>2026-04-25T11:32:05Z</time>
      </trkpt>
      <trkpt lat="59.076297283172607" lon="30.016365051269531">
        <time>2026-04-25T11:32:08Z</time>
      </trkpt>
      <trkpt lat="59.076318740844727" lon="30.016343593597412">
        <time>2026-04-25T11:32:10Z</time>
      </trkpt>
      <trkpt lat="59.076361656188965" lon="30.016343593597412">
        <time>2026-04-25T11:32:13Z</time>
      </trkpt>
      <trkpt lat="59.076361656188965" lon="30.016365051269531">
        <time>2026-04-25T11:32:15Z</time>
      </trkpt>
      <trkpt lat="59.076361656188965" lon="30.016365051269531">
        <time>2026-04-25T11:32:18Z</time>
      </trkpt>
      <trkpt lat="59.076361656188965" lon="30.016365051269531">
        <time>2026-04-25T11:32:20Z</time>
      </trkpt>
      <trkpt lat="59.076361656188965" lon="30.016343593597412">
        <time>2026-04-25T11:32:23Z</time>
      </trkpt>
      <trkpt lat="59.076383113861084" lon="30.016257762908936">
        <time>2026-04-25T11:32:25Z</time>
      </trkpt>
      <trkpt lat="59.076361656188965" lon="30.01615047454834">
        <time>2026-04-25T11:32:28Z</time>
      </trkpt>
      <trkpt lat="59.076297283172607" lon="30.016043186187744">
        <time>2026-04-25T11:32:30Z</time>
      </trkpt>
      <trkpt lat="59.076275825500488" lon="30.015935897827148">
        <time>2026-04-25T11:32:33Z</time>
      </trkpt>
      <trkpt lat="59.076189994812012" lon="30.015871524810791">
        <time>2026-04-25T11:32:35Z</time>
      </trkpt>
      <trkpt lat="59.076147079467773" lon="30.01589298248291">
        <time>2026-04-25T11:32:38Z</time>
      </trkpt>
      <trkpt lat="59.076061248779297" lon="30.015914440155029">
        <time>2026-04-25T11:32:40Z</time>
      </trkpt>
      <trkpt lat="59.075996875762939" lon="30.015935897827148">
        <time>2026-04-25T11:32:43Z</time>
      </trkpt>
      <trkpt lat="59.075932502746582" lon="30.015978813171387">
        <time>2026-04-25T11:32:45Z</time>
      </trkpt>
      <trkpt lat="59.075889587402344" lon="30.015978813171387">
        <time>2026-04-25T11:32:48Z</time>
      </trkpt>
      <trkpt lat="59.075803756713867" lon="30.016000270843506">
        <time>2026-04-25T11:32:50Z</time>
      </trkpt>
      <trkpt lat="59.075760841369629" lon="30.015978813171387">
        <time>2026-04-25T11:32:53Z</time>
      </trkpt>
      <trkpt lat="59.075696468353271" lon="30.015935897827148">
        <time>2026-04-25T11:32:55Z</time>
      </trkpt>
      <trkpt lat="59.075675010681152" lon="30.015871524810791">
        <time>2026-04-25T11:32:58Z</time>
      </trkpt>
      <trkpt lat="59.075675010681152" lon="30.015764236450195">
        <time>2026-04-25T11:33:00Z</time>
      </trkpt>
      <trkpt lat="59.075653553009033" lon="30.015699863433838">
        <time>2026-04-25T11:33:03Z</time>
      </trkpt>
      <trkpt lat="59.075653553009033" lon="30.0156569480896">
        <time>2026-04-25T11:33:05Z</time>
      </trkpt>
      <trkpt lat="59.075632095336914" lon="30.01563549041748">
        <time>2026-04-25T11:33:08Z</time>
      </trkpt>
      <trkpt lat="59.075589179992676" lon="30.015592575073242">
        <time>2026-04-25T11:33:10Z</time>
      </trkpt>
      <trkpt lat="59.075546264648438" lon="30.015571117401123">
        <time>2026-04-25T11:33:13Z</time>
      </trkpt>
      <trkpt lat="59.075546264648438" lon="30.015549659729004">
        <time>2026-04-25T11:33:15Z</time>
      </trkpt>
      <trkpt lat="59.075546264648438" lon="30.015506744384766">
        <time>2026-04-25T11:33:18Z</time>
      </trkpt>
      <trkpt lat="59.075524806976318" lon="30.015485286712646">
        <time>2026-04-25T11:33:20Z</time>
      </trkpt>
      <trkpt lat="59.075503349304199" lon="30.015485286712646">
        <time>2026-04-25T11:33:23Z</time>
      </trkpt>
      <trkpt lat="59.07548189163208" lon="30.015485286712646">
        <time>2026-04-25T11:33:25Z</time>
      </trkpt>
      <trkpt lat="59.075460433959961" lon="30.015420913696289">
        <time>2026-04-25T11:33:28Z</time>
      </trkpt>
      <trkpt lat="59.075417518615723" lon="30.01539945602417">
        <time>2026-04-25T11:33:30Z</time>
      </trkpt>
      <trkpt lat="59.075374603271484" lon="30.015377998352051">
        <time>2026-04-25T11:33:33Z</time>
      </trkpt>
      <trkpt lat="59.075310230255127" lon="30.015356540679932">
        <time>2026-04-25T11:33:35Z</time>
      </trkpt>
      <trkpt lat="59.075288772583008" lon="30.015335083007812">
        <time>2026-04-25T11:33:38Z</time>
      </trkpt>
      <trkpt lat="59.075267314910889" lon="30.015377998352051">
        <time>2026-04-25T11:33:40Z</time>
      </trkpt>
      <trkpt lat="59.075267314910889" lon="30.015377998352051">
        <time>2026-04-25T11:33:43Z</time>
      </trkpt>
      <trkpt lat="59.07522439956665" lon="30.015420913696289">
        <time>2026-04-25T11:33:45Z</time>
      </trkpt>
      <trkpt lat="59.075202941894531" lon="30.015463829040527">
        <time>2026-04-25T11:33:48Z</time>
      </trkpt>
      <trkpt lat="59.075202941894531" lon="30.015549659729004">
        <time>2026-04-25T11:33:50Z</time>
      </trkpt>
      <trkpt lat="59.075202941894531" lon="30.015614032745361">
        <time>2026-04-25T11:33:53Z</time>
      </trkpt>
      <trkpt lat="59.075202941894531" lon="30.01563549041748">
        <time>2026-04-25T11:33:55Z</time>
      </trkpt>
      <trkpt lat="59.075202941894531" lon="30.015678405761719">
        <time>2026-04-25T11:33:58Z</time>
      </trkpt>
      <trkpt lat="59.07522439956665" lon="30.015721321105957">
        <time>2026-04-25T11:34:00Z</time>
      </trkpt>
      <trkpt lat="59.07524585723877" lon="30.015764236450195">
        <time>2026-04-25T11:34:03Z</time>
      </trkpt>
      <trkpt lat="59.075267314910889" lon="30.01589298248291">
        <time>2026-04-25T11:34:05Z</time>
      </trkpt>
      <trkpt lat="59.075267314910889" lon="30.015957355499268">
        <time>2026-04-25T11:34:08Z</time>
      </trkpt>
      <trkpt lat="59.075267314910889" lon="30.016043186187744">
        <time>2026-04-25T11:34:10Z</time>
      </trkpt>
      <trkpt lat="59.075267314910889" lon="30.016129016876221">
        <time>2026-04-25T11:34:13Z</time>
      </trkpt>
      <trkpt lat="59.075267314910889" lon="30.016193389892578">
        <time>2026-04-25T11:34:15Z</time>
      </trkpt>
      <trkpt lat="59.07524585723877" lon="30.016193389892578">
        <time>2026-04-25T11:34:18Z</time>
      </trkpt>
      <trkpt lat="59.075267314910889" lon="30.016193389892578">
        <time>2026-04-25T11:34:20Z</time>
      </trkpt>
      <trkpt lat="59.075267314910889" lon="30.016193389892578">
        <time>2026-04-25T11:34:23Z</time>
      </trkpt>
      <trkpt lat="59.07524585723877" lon="30.016214847564697">
        <time>2026-04-25T11:34:25Z</time>
      </trkpt>
      <trkpt lat="59.075202941894531" lon="30.016236305236816">
        <time>2026-04-25T11:34:28Z</time>
      </trkpt>
      <trkpt lat="59.075160026550293" lon="30.016300678253174">
        <time>2026-04-25T11:34:30Z</time>
      </trkpt>
      <trkpt lat="59.075138568878174" lon="30.016343593597412">
        <time>2026-04-25T11:34:33Z</time>
      </trkpt>
      <trkpt lat="59.075095653533936" lon="30.016343593597412">
        <time>2026-04-25T11:34:35Z</time>
      </trkpt>
      <trkpt lat="59.075074195861816" lon="30.016343593597412">
        <time>2026-04-25T11:34:38Z</time>
      </trkpt>
      <trkpt lat="59.075031280517578" lon="30.01640796661377">
        <time>2026-04-25T11:34:40Z</time>
      </trkpt>
      <trkpt lat="59.075009822845459" lon="30.01638650894165">
        <time>2026-04-25T11:34:43Z</time>
      </trkpt>
      <trkpt lat="59.075009822845459" lon="30.016343593597412">
        <time>2026-04-25T11:34:45Z</time>
      </trkpt>
      <trkpt lat="59.07498836517334" lon="30.016279220581055">
        <time>2026-04-25T11:34:48Z</time>
      </trkpt>
      <trkpt lat="59.074945449829102" lon="30.016171932220459">
        <time>2026-04-25T11:34:50Z</time>
      </trkpt>
      <trkpt lat="59.074923992156982" lon="30.016107559204102">
        <time>2026-04-25T11:34:53Z</time>
      </trkpt>
      <trkpt lat="59.074881076812744" lon="30.016021728515625">
        <time>2026-04-25T11:34:55Z</time>
      </trkpt>
      <trkpt lat="59.074902534484863" lon="30.015957355499268">
        <time>2026-04-25T11:34:58Z</time>
      </trkpt>
      <trkpt lat="59.074902534484863" lon="30.015914440155029">
        <time>2026-04-25T11:35:00Z</time>
      </trkpt>
      <trkpt lat="59.074902534484863" lon="30.01589298248291">
        <time>2026-04-25T11:35:03Z</time>
      </trkpt>
      <trkpt lat="59.074923992156982" lon="30.01589298248291">
        <time>2026-04-25T11:35:05Z</time>
      </trkpt>
      <trkpt lat="59.074923992156982" lon="30.01589298248291">
        <time>2026-04-25T11:35:08Z</time>
      </trkpt>
      <trkpt lat="59.074923992156982" lon="30.015871524810791">
        <time>2026-04-25T11:35:10Z</time>
      </trkpt>
      <trkpt lat="59.074945449829102" lon="30.015807151794434">
        <time>2026-04-25T11:35:13Z</time>
      </trkpt>
      <trkpt lat="59.074966907501221" lon="30.015742778778076">
        <time>2026-04-25T11:35:15Z</time>
      </trkpt>
      <trkpt lat="59.074966907501221" lon="30.015721321105957">
        <time>2026-04-25T11:35:18Z</time>
      </trkpt>
      <trkpt lat="59.074966907501221" lon="30.015699863433838">
        <time>2026-04-25T11:35:20Z</time>
      </trkpt>
      <trkpt lat="59.074966907501221" lon="30.015699863433838">
        <time>2026-04-25T11:35:23Z</time>
      </trkpt>
      <trkpt lat="59.074966907501221" lon="30.015699863433838">
        <time>2026-04-25T11:35:25Z</time>
      </trkpt>
      <trkpt lat="59.074966907501221" lon="30.015678405761719">
        <time>2026-04-25T11:35:28Z</time>
      </trkpt>
      <trkpt lat="59.074945449829102" lon="30.015592575073242">
        <time>2026-04-25T11:35:30Z</time>
      </trkpt>
      <trkpt lat="59.074902534484863" lon="30.015571117401123">
        <time>2026-04-25T11:35:33Z</time>
      </trkpt>
      <trkpt lat="59.074881076812744" lon="30.015528202056885">
        <time>2026-04-25T11:35:35Z</time>
      </trkpt>
      <trkpt lat="59.074881076812744" lon="30.015549659729004">
        <time>2026-04-25T11:35:38Z</time>
      </trkpt>
      <trkpt lat="59.074881076812744" lon="30.015592575073242">
        <time>2026-04-25T11:35:40Z</time>
      </trkpt>
      <trkpt lat="59.074881076812744" lon="30.015592575073242">
        <time>2026-04-25T11:35:43Z</time>
      </trkpt>
      <trkpt lat="59.074881076812744" lon="30.015592575073242">
        <time>2026-04-25T11:35:45Z</time>
      </trkpt>
      <trkpt lat="59.074881076812744" lon="30.015592575073242">
        <time>2026-04-25T11:35:48Z</time>
      </trkpt>
      <trkpt lat="59.074881076812744" lon="30.015528202056885">
        <time>2026-04-25T11:35:50Z</time>
      </trkpt>
      <trkpt lat="59.074881076812744" lon="30.015442371368408">
        <time>2026-04-25T11:35:53Z</time>
      </trkpt>
      <trkpt lat="59.074859619140625" lon="30.015377998352051">
        <time>2026-04-25T11:35:55Z</time>
      </trkpt>
      <trkpt lat="59.074859619140625" lon="30.015356540679932">
        <time>2026-04-25T11:35:58Z</time>
      </trkpt>
      <trkpt lat="59.074859619140625" lon="30.015356540679932">
        <time>2026-04-25T11:36:00Z</time>
      </trkpt>
      <trkpt lat="59.074838161468506" lon="30.015292167663574">
        <time>2026-04-25T11:36:03Z</time>
      </trkpt>
      <trkpt lat="59.074838161468506" lon="30.015270709991455">
        <time>2026-04-25T11:36:05Z</time>
      </trkpt>
      <trkpt lat="59.074838161468506" lon="30.015270709991455">
        <time>2026-04-25T11:36:08Z</time>
      </trkpt>
      <trkpt lat="59.074795246124268" lon="30.015292167663574">
        <time>2026-04-25T11:36:10Z</time>
      </trkpt>
      <trkpt lat="59.074752330780029" lon="30.015270709991455">
        <time>2026-04-25T11:36:13Z</time>
      </trkpt>
      <trkpt lat="59.07473087310791" lon="30.015184879302979">
        <time>2026-04-25T11:36:15Z</time>
      </trkpt>
      <trkpt lat="59.07473087310791" lon="30.015120506286621">
        <time>2026-04-25T11:36:18Z</time>
      </trkpt>
      <trkpt lat="59.07473087310791" lon="30.015013217926025">
        <time>2026-04-25T11:36:20Z</time>
      </trkpt>
      <trkpt lat="59.07473087310791" lon="30.015013217926025">
        <time>2026-04-25T11:36:23Z</time>
      </trkpt>
      <trkpt lat="59.074709415435791" lon="30.014970302581787">
        <time>2026-04-25T11:36:25Z</time>
      </trkpt>
      <trkpt lat="59.07473087310791" lon="30.01490592956543">
        <time>2026-04-25T11:36:28Z</time>
      </trkpt>
      <trkpt lat="59.074752330780029" lon="30.014820098876953">
        <time>2026-04-25T11:36:30Z</time>
      </trkpt>
      <trkpt lat="59.074752330780029" lon="30.014755725860596">
        <time>2026-04-25T11:36:33Z</time>
      </trkpt>
      <trkpt lat="59.074752330780029" lon="30.014755725860596">
        <time>2026-04-25T11:36:35Z</time>
      </trkpt>
      <trkpt lat="59.074752330780029" lon="30.014712810516357">
        <time>2026-04-25T11:36:38Z</time>
      </trkpt>
      <trkpt lat="59.074752330780029" lon="30.014712810516357">
        <time>2026-04-25T11:36:40Z</time>
      </trkpt>
      <trkpt lat="59.074752330780029" lon="30.014712810516357">
        <time>2026-04-25T11:36:43Z</time>
      </trkpt>
      <trkpt lat="59.074752330780029" lon="30.014712810516357">
        <time>2026-04-25T11:36:45Z</time>
      </trkpt>
      <trkpt lat="59.074773788452148" lon="30.014734268188477">
        <time>2026-04-25T11:36:48Z</time>
      </trkpt>
      <trkpt lat="59.074773788452148" lon="30.014734268188477">
        <time>2026-04-25T11:36:50Z</time>
      </trkpt>
      <trkpt lat="59.074773788452148" lon="30.014734268188477">
        <time>2026-04-25T11:36:53Z</time>
      </trkpt>
      <trkpt lat="59.07473087310791" lon="30.014691352844238">
        <time>2026-04-25T11:36:55Z</time>
      </trkpt>
      <trkpt lat="59.074666500091553" lon="30.0146484375">
        <time>2026-04-25T11:36:58Z</time>
      </trkpt>
      <trkpt lat="59.074580669403076" lon="30.014605522155762">
        <time>2026-04-25T11:37:00Z</time>
      </trkpt>
      <trkpt lat="59.074516296386719" lon="30.014669895172119">
        <time>2026-04-25T11:37:03Z</time>
      </trkpt>
      <trkpt lat="59.074430465698242" lon="30.014777183532715">
        <time>2026-04-25T11:37:05Z</time>
      </trkpt>
      <trkpt lat="59.074387550354004" lon="30.014798641204834">
        <time>2026-04-25T11:37:08Z</time>
      </trkpt>
      <trkpt lat="59.074323177337646" lon="30.014820098876953">
        <time>2026-04-25T11:37:10Z</time>
      </trkpt>
      <trkpt lat="59.074258804321289" lon="30.014863014221191">
        <time>2026-04-25T11:37:13Z</time>
      </trkpt>
      <trkpt lat="59.074194431304932" lon="30.01490592956543">
        <time>2026-04-25T11:37:15Z</time>
      </trkpt>
      <trkpt lat="59.074151515960693" lon="30.014948844909668">
        <time>2026-04-25T11:37:18Z</time>
      </trkpt>
      <trkpt lat="59.074087142944336" lon="30.014991760253906">
        <time>2026-04-25T11:37:20Z</time>
      </trkpt>
      <trkpt lat="59.074087142944336" lon="30.014991760253906">
        <time>2026-04-25T11:37:23Z</time>
      </trkpt>
      <trkpt lat="59.074108600616455" lon="30.014970302581787">
        <time>2026-04-25T11:37:25Z</time>
      </trkpt>
      <trkpt lat="59.074087142944336" lon="30.014970302581787">
        <time>2026-04-25T11:37:28Z</time>
      </trkpt>
      <trkpt lat="59.074087142944336" lon="30.014948844909668">
        <time>2026-04-25T11:37:30Z</time>
      </trkpt>
      <trkpt lat="59.074087142944336" lon="30.014948844909668">
        <time>2026-04-25T11:37:33Z</time>
      </trkpt>
      <trkpt lat="59.074087142944336" lon="30.014948844909668">
        <time>2026-04-25T11:37:35Z</time>
      </trkpt>
      <trkpt lat="59.074087142944336" lon="30.014948844909668">
        <time>2026-04-25T11:37:38Z</time>
      </trkpt>
      <trkpt lat="59.074087142944336" lon="30.014948844909668">
        <time>2026-04-25T11:37:40Z</time>
      </trkpt>
      <trkpt lat="59.074087142944336" lon="30.014948844909668">
        <time>2026-04-25T11:37:43Z</time>
      </trkpt>
      <trkpt lat="59.074087142944336" lon="30.014948844909668">
        <time>2026-04-25T11:37:45Z</time>
      </trkpt>
      <trkpt lat="59.074087142944336" lon="30.014948844909668">
        <time>2026-04-25T11:37:48Z</time>
      </trkpt>
      <trkpt lat="59.074087142944336" lon="30.014948844909668">
        <time>2026-04-25T11:37:50Z</time>
      </trkpt>
      <trkpt lat="59.074087142944336" lon="30.014948844909668">
        <time>2026-04-25T11:37:53Z</time>
      </trkpt>
      <trkpt lat="59.074087142944336" lon="30.014948844909668">
        <time>2026-04-25T11:37:55Z</time>
      </trkpt>
      <trkpt lat="59.074087142944336" lon="30.014970302581787">
        <time>2026-04-25T11:37:58Z</time>
      </trkpt>
      <trkpt lat="59.074087142944336" lon="30.015034675598145">
        <time>2026-04-25T11:38:00Z</time>
      </trkpt>
      <trkpt lat="59.074087142944336" lon="30.015077590942383">
        <time>2026-04-25T11:38:03Z</time>
      </trkpt>
      <trkpt lat="59.074087142944336" lon="30.015099048614502">
        <time>2026-04-25T11:38:05Z</time>
      </trkpt>
      <trkpt lat="59.074087142944336" lon="30.015099048614502">
        <time>2026-04-25T11:38:08Z</time>
      </trkpt>
      <trkpt lat="59.074087142944336" lon="30.015120506286621">
        <time>2026-04-25T11:38:10Z</time>
      </trkpt>
      <trkpt lat="59.074065685272217" lon="30.015099048614502">
        <time>2026-04-25T11:38:13Z</time>
      </trkpt>
      <trkpt lat="59.074065685272217" lon="30.015077590942383">
        <time>2026-04-25T11:38:15Z</time>
      </trkpt>
      <trkpt lat="59.074065685272217" lon="30.015034675598145">
        <time>2026-04-25T11:38:18Z</time>
      </trkpt>
      <trkpt lat="59.074065685272217" lon="30.014970302581787">
        <time>2026-04-25T11:38:20Z</time>
      </trkpt>
      <trkpt lat="59.074044227600098" lon="30.014948844909668">
        <time>2026-04-25T11:38:23Z</time>
      </trkpt>
      <trkpt lat="59.074022769927979" lon="30.014948844909668">
        <time>2026-04-25T11:38:25Z</time>
      </trkpt>
      <trkpt lat="59.074022769927979" lon="30.014948844909668">
        <time>2026-04-25T11:38:28Z</time>
      </trkpt>
      <trkpt lat="59.074001312255859" lon="30.014948844909668">
        <time>2026-04-25T11:38:30Z</time>
      </trkpt>
      <trkpt lat="59.074001312255859" lon="30.014948844909668">
        <time>2026-04-25T11:38:33Z</time>
      </trkpt>
      <trkpt lat="59.074022769927979" lon="30.015013217926025">
        <time>2026-04-25T11:38:35Z</time>
      </trkpt>
      <trkpt lat="59.074044227600098" lon="30.015077590942383">
        <time>2026-04-25T11:38:38Z</time>
      </trkpt>
      <trkpt lat="59.074087142944336" lon="30.015184879302979">
        <time>2026-04-25T11:38:40Z</time>
      </trkpt>
      <trkpt lat="59.074130058288574" lon="30.015249252319336">
        <time>2026-04-25T11:38:43Z</time>
      </trkpt>
      <trkpt lat="59.074151515960693" lon="30.015249252319336">
        <time>2026-04-25T11:38:45Z</time>
      </trkpt>
      <trkpt lat="59.074151515960693" lon="30.015249252319336">
        <time>2026-04-25T11:38:48Z</time>
      </trkpt>
      <trkpt lat="59.074151515960693" lon="30.015249252319336">
        <time>2026-04-25T11:38:50Z</time>
      </trkpt>
      <trkpt lat="59.074151515960693" lon="30.015227794647217">
        <time>2026-04-25T11:38:53Z</time>
      </trkpt>
      <trkpt lat="59.074151515960693" lon="30.015227794647217">
        <time>2026-04-25T11:38:55Z</time>
      </trkpt>
      <trkpt lat="59.074151515960693" lon="30.015206336975098">
        <time>2026-04-25T11:38:58Z</time>
      </trkpt>
      <trkpt lat="59.074151515960693" lon="30.015227794647217">
        <time>2026-04-25T11:39:00Z</time>
      </trkpt>
      <trkpt lat="59.074151515960693" lon="30.015270709991455">
        <time>2026-04-25T11:39:03Z</time>
      </trkpt>
      <trkpt lat="59.074172973632813" lon="30.015270709991455">
        <time>2026-04-25T11:39:05Z</time>
      </trkpt>
      <trkpt lat="59.074172973632813" lon="30.015270709991455">
        <time>2026-04-25T11:39:08Z</time>
      </trkpt>
      <trkpt lat="59.074172973632813" lon="30.015270709991455">
        <time>2026-04-25T11:39:10Z</time>
      </trkpt>
      <trkpt lat="59.074151515960693" lon="30.015270709991455">
        <time>2026-04-25T11:39:13Z</time>
      </trkpt>
      <trkpt lat="59.074130058288574" lon="30.015249252319336">
        <time>2026-04-25T11:39:15Z</time>
      </trkpt>
      <trkpt lat="59.074130058288574" lon="30.015249252319336">
        <time>2026-04-25T11:39:18Z</time>
      </trkpt>
      <trkpt lat="59.074108600616455" lon="30.015270709991455">
        <time>2026-04-25T11:39:20Z</time>
      </trkpt>
      <trkpt lat="59.074108600616455" lon="30.015292167663574">
        <time>2026-04-25T11:39:23Z</time>
      </trkpt>
      <trkpt lat="59.074108600616455" lon="30.015313625335693">
        <time>2026-04-25T11:39:25Z</time>
      </trkpt>
      <trkpt lat="59.074087142944336" lon="30.015313625335693">
        <time>2026-04-25T11:39:28Z</time>
      </trkpt>
      <trkpt lat="59.074065685272217" lon="30.015270709991455">
        <time>2026-04-25T11:39:30Z</time>
      </trkpt>
      <trkpt lat="59.074065685272217" lon="30.015227794647217">
        <time>2026-04-25T11:39:33Z</time>
      </trkpt>
      <trkpt lat="59.074044227600098" lon="30.015184879302979">
        <time>2026-04-25T11:39:35Z</time>
      </trkpt>
      <trkpt lat="59.074044227600098" lon="30.015184879302979">
        <time>2026-04-25T11:39:38Z</time>
      </trkpt>
      <trkpt lat="59.074044227600098" lon="30.015163421630859">
        <time>2026-04-25T11:39:40Z</time>
      </trkpt>
      <trkpt lat="59.074044227600098" lon="30.01514196395874">
        <time>2026-04-25T11:39:43Z</time>
      </trkpt>
      <trkpt lat="59.074044227600098" lon="30.01514196395874">
        <time>2026-04-25T11:39:45Z</time>
      </trkpt>
      <trkpt lat="59.074044227600098" lon="30.015120506286621">
        <time>2026-04-25T11:39:48Z</time>
      </trkpt>
      <trkpt lat="59.074065685272217" lon="30.015099048614502">
        <time>2026-04-25T11:39:50Z</time>
      </trkpt>
      <trkpt lat="59.074087142944336" lon="30.015120506286621">
        <time>2026-04-25T11:39:53Z</time>
      </trkpt>
      <trkpt lat="59.074108600616455" lon="30.01514196395874">
        <time>2026-04-25T11:39:55Z</time>
      </trkpt>
      <trkpt lat="59.074108600616455" lon="30.01514196395874">
        <time>2026-04-25T11:39:58Z</time>
      </trkpt>
      <trkpt lat="59.074108600616455" lon="30.015163421630859">
        <time>2026-04-25T11:40:00Z</time>
      </trkpt>
      <trkpt lat="59.074130058288574" lon="30.01514196395874">
        <time>2026-04-25T11:40:03Z</time>
      </trkpt>
      <trkpt lat="59.074130058288574" lon="30.015206336975098">
        <time>2026-04-25T11:40:05Z</time>
      </trkpt>
      <trkpt lat="59.074130058288574" lon="30.015270709991455">
        <time>2026-04-25T11:40:08Z</time>
      </trkpt>
      <trkpt lat="59.074130058288574" lon="30.015356540679932">
        <time>2026-04-25T11:40:10Z</time>
      </trkpt>
      <trkpt lat="59.074108600616455" lon="30.01539945602417">
        <time>2026-04-25T11:40:13Z</time>
      </trkpt>
      <trkpt lat="59.074087142944336" lon="30.015485286712646">
        <time>2026-04-25T11:40:15Z</time>
      </trkpt>
      <trkpt lat="59.074065685272217" lon="30.015485286712646">
        <time>2026-04-25T11:40:18Z</time>
      </trkpt>
      <trkpt lat="59.074044227600098" lon="30.015485286712646">
        <time>2026-04-25T11:40:20Z</time>
      </trkpt>
      <trkpt lat="59.07397985458374" lon="30.015463829040527">
        <time>2026-04-25T11:40:23Z</time>
      </trkpt>
      <trkpt lat="59.073915481567383" lon="30.015356540679932">
        <time>2026-04-25T11:40:25Z</time>
      </trkpt>
      <trkpt lat="59.073915481567383" lon="30.015335083007812">
        <time>2026-04-25T11:40:28Z</time>
      </trkpt>
      <trkpt lat="59.073915481567383" lon="30.015270709991455">
        <time>2026-04-25T11:40:30Z</time>
      </trkpt>
      <trkpt lat="59.073915481567383" lon="30.015184879302979">
        <time>2026-04-25T11:40:33Z</time>
      </trkpt>
      <trkpt lat="59.073894023895264" lon="30.015056133270264">
        <time>2026-04-25T11:40:35Z</time>
      </trkpt>
      <trkpt lat="59.073915481567383" lon="30.014970302581787">
        <time>2026-04-25T11:40:38Z</time>
      </trkpt>
      <trkpt lat="59.073915481567383" lon="30.014841556549072">
        <time>2026-04-25T11:40:40Z</time>
      </trkpt>
      <trkpt lat="59.073894023895264" lon="30.014777183532715">
        <time>2026-04-25T11:40:43Z</time>
      </trkpt>
      <trkpt lat="59.073872566223145" lon="30.014755725860596">
        <time>2026-04-25T11:40:45Z</time>
      </trkpt>
      <trkpt lat="59.073872566223145" lon="30.014734268188477">
        <time>2026-04-25T11:40:48Z</time>
      </trkpt>
      <trkpt lat="59.073872566223145" lon="30.014734268188477">
        <time>2026-04-25T11:40:50Z</time>
      </trkpt>
      <trkpt lat="59.073872566223145" lon="30.014734268188477">
        <time>2026-04-25T11:40:53Z</time>
      </trkpt>
      <trkpt lat="59.073851108551025" lon="30.014669895172119">
        <time>2026-04-25T11:40:55Z</time>
      </trkpt>
      <trkpt lat="59.073829650878906" lon="30.014669895172119">
        <time>2026-04-25T11:40:58Z</time>
      </trkpt>
      <trkpt lat="59.073765277862549" lon="30.014691352844238">
        <time>2026-04-25T11:41:00Z</time>
      </trkpt>
      <trkpt lat="59.073700904846191" lon="30.014691352844238">
        <time>2026-04-25T11:41:03Z</time>
      </trkpt>
      <trkpt lat="59.073679447174072" lon="30.014712810516357">
        <time>2026-04-25T11:41:05Z</time>
      </trkpt>
      <trkpt lat="59.073679447174072" lon="30.014712810516357">
        <time>2026-04-25T11:41:08Z</time>
      </trkpt>
      <trkpt lat="59.073679447174072" lon="30.014712810516357">
        <time>2026-04-25T11:41:10Z</time>
      </trkpt>
      <trkpt lat="59.073679447174072" lon="30.014712810516357">
        <time>2026-04-25T11:41:13Z</time>
      </trkpt>
      <trkpt lat="59.073679447174072" lon="30.014712810516357">
        <time>2026-04-25T11:41:15Z</time>
      </trkpt>
      <trkpt lat="59.073679447174072" lon="30.014712810516357">
        <time>2026-04-25T11:41:18Z</time>
      </trkpt>
      <trkpt lat="59.073679447174072" lon="30.014712810516357">
        <time>2026-04-25T11:41:20Z</time>
      </trkpt>
      <trkpt lat="59.073679447174072" lon="30.014712810516357">
        <time>2026-04-25T11:41:23Z</time>
      </trkpt>
      <trkpt lat="59.073679447174072" lon="30.014712810516357">
        <time>2026-04-25T11:41:25Z</time>
      </trkpt>
      <trkpt lat="59.073679447174072" lon="30.014712810516357">
        <time>2026-04-25T11:41:28Z</time>
      </trkpt>
      <trkpt lat="59.073657989501953" lon="30.014777183532715">
        <time>2026-04-25T11:41:30Z</time>
      </trkpt>
      <trkpt lat="59.073657989501953" lon="30.014884471893311">
        <time>2026-04-25T11:41:33Z</time>
      </trkpt>
      <trkpt lat="59.073636531829834" lon="30.015034675598145">
        <time>2026-04-25T11:41:35Z</time>
      </trkpt>
      <trkpt lat="59.073636531829834" lon="30.015056133270264">
        <time>2026-04-25T11:41:38Z</time>
      </trkpt>
      <trkpt lat="59.073636531829834" lon="30.015056133270264">
        <time>2026-04-25T11:41:40Z</time>
      </trkpt>
      <trkpt lat="59.073615074157715" lon="30.015056133270264">
        <time>2026-04-25T11:41:43Z</time>
      </trkpt>
      <trkpt lat="59.073615074157715" lon="30.015077590942383">
        <time>2026-04-25T11:41:45Z</time>
      </trkpt>
      <trkpt lat="59.073615074157715" lon="30.015077590942383">
        <time>2026-04-25T11:41:48Z</time>
      </trkpt>
      <trkpt lat="59.073615074157715" lon="30.015056133270264">
        <time>2026-04-25T11:41:50Z</time>
      </trkpt>
      <trkpt lat="59.073615074157715" lon="30.015056133270264">
        <time>2026-04-25T11:41:53Z</time>
      </trkpt>
      <trkpt lat="59.073615074157715" lon="30.015034675598145">
        <time>2026-04-25T11:41:55Z</time>
      </trkpt>
      <trkpt lat="59.073615074157715" lon="30.015034675598145">
        <time>2026-04-25T11:41:58Z</time>
      </trkpt>
      <trkpt lat="59.073636531829834" lon="30.015120506286621">
        <time>2026-04-25T11:42:00Z</time>
      </trkpt>
      <trkpt lat="59.073636531829834" lon="30.015184879302979">
        <time>2026-04-25T11:42:03Z</time>
      </trkpt>
      <trkpt lat="59.073636531829834" lon="30.015292167663574">
        <time>2026-04-25T11:42:05Z</time>
      </trkpt>
      <trkpt lat="59.073636531829834" lon="30.015313625335693">
        <time>2026-04-25T11:42:08Z</time>
      </trkpt>
      <trkpt lat="59.073615074157715" lon="30.015313625335693">
        <time>2026-04-25T11:42:10Z</time>
      </trkpt>
      <trkpt lat="59.073593616485596" lon="30.015356540679932">
        <time>2026-04-25T11:42:13Z</time>
      </trkpt>
      <trkpt lat="59.073550701141357" lon="30.015506744384766">
        <time>2026-04-25T11:42:15Z</time>
      </trkpt>
      <trkpt lat="59.073486328125" lon="30.015742778778076">
        <time>2026-04-25T11:42:30Z</time>
      </trkpt>
      <trkpt lat="59.073550701141357" lon="30.015935897827148">
        <time>2026-04-25T11:42:35Z</time>
      </trkpt>
      <trkpt lat="59.073486328125" lon="30.016064643859863">
        <time>2026-04-25T11:42:40Z</time>
      </trkpt>
      <trkpt lat="59.073443412780762" lon="30.016129016876221">
        <time>2026-04-25T11:42:43Z</time>
      </trkpt>
      <trkpt lat="59.073357582092285" lon="30.016214847564697">
        <time>2026-04-25T11:42:45Z</time>
      </trkpt>
      <trkpt lat="59.073314666748047" lon="30.016214847564697">
        <time>2026-04-25T11:42:48Z</time>
      </trkpt>
      <trkpt lat="59.073314666748047" lon="30.016322135925293">
        <time>2026-04-25T11:42:50Z</time>
      </trkpt>
      <trkpt lat="59.073293209075928" lon="30.01640796661377">
        <time>2026-04-25T11:42:53Z</time>
      </trkpt>
      <trkpt lat="59.073207378387451" lon="30.016558170318604">
        <time>2026-04-25T11:42:55Z</time>
      </trkpt>
      <trkpt lat="59.073185920715332" lon="30.016622543334961">
        <time>2026-04-25T11:42:58Z</time>
      </trkpt>
      <trkpt lat="59.073164463043213" lon="30.01664400100708">
        <time>2026-04-25T11:43:00Z</time>
      </trkpt>
      <trkpt lat="59.073164463043213" lon="30.016665458679199">
        <time>2026-04-25T11:43:03Z</time>
      </trkpt>
      <trkpt lat="59.073121547698975" lon="30.016708374023438">
        <time>2026-04-25T11:43:05Z</time>
      </trkpt>
      <trkpt lat="59.073035717010498" lon="30.016751289367676">
        <time>2026-04-25T11:43:08Z</time>
      </trkpt>
      <trkpt lat="59.072949886322021" lon="30.016815662384033">
        <time>2026-04-25T11:43:10Z</time>
      </trkpt>
      <trkpt lat="59.072928428649902" lon="30.016837120056152">
        <time>2026-04-25T11:43:13Z</time>
      </trkpt>
      <trkpt lat="59.072864055633545" lon="30.016965866088867">
        <time>2026-04-25T11:43:15Z</time>
      </trkpt>
      <trkpt lat="59.072842597961426" lon="30.017116069793701">
        <time>2026-04-25T11:43:18Z</time>
      </trkpt>
      <trkpt lat="59.072799682617187" lon="30.017266273498535">
        <time>2026-04-25T11:43:20Z</time>
      </trkpt>
      <trkpt lat="59.072756767272949" lon="30.017352104187012">
        <time>2026-04-25T11:43:23Z</time>
      </trkpt>
      <trkpt lat="59.072692394256592" lon="30.01739501953125">
        <time>2026-04-25T11:43:25Z</time>
      </trkpt>
      <trkpt lat="59.072649478912354" lon="30.017459392547607">
        <time>2026-04-25T11:43:28Z</time>
      </trkpt>
      <trkpt lat="59.072563648223877" lon="30.017459392547607">
        <time>2026-04-25T11:43:30Z</time>
      </trkpt>
      <trkpt lat="59.07249927520752" lon="30.01739501953125">
        <time>2026-04-25T11:43:33Z</time>
      </trkpt>
      <trkpt lat="59.072434902191162" lon="30.017352104187012">
        <time>2026-04-25T11:43:35Z</time>
      </trkpt>
      <trkpt lat="59.072413444519043" lon="30.017352104187012">
        <time>2026-04-25T11:43:38Z</time>
      </trkpt>
      <trkpt lat="59.072391986846924" lon="30.017437934875488">
        <time>2026-04-25T11:43:40Z</time>
      </trkpt>
      <trkpt lat="59.072349071502686" lon="30.017502307891846">
        <time>2026-04-25T11:43:43Z</time>
      </trkpt>
      <trkpt lat="59.072327613830566" lon="30.017566680908203">
        <time>2026-04-25T11:43:45Z</time>
      </trkpt>
      <trkpt lat="59.072306156158447" lon="30.017545223236084">
        <time>2026-04-25T11:43:48Z</time>
      </trkpt>
      <trkpt lat="59.07224178314209" lon="30.017566680908203">
        <time>2026-04-25T11:43:50Z</time>
      </trkpt>
      <trkpt lat="59.072198867797852" lon="30.017523765563965">
        <time>2026-04-25T11:43:53Z</time>
      </trkpt>
      <trkpt lat="59.072155952453613" lon="30.017480850219727">
        <time>2026-04-25T11:43:55Z</time>
      </trkpt>
      <trkpt lat="59.072155952453613" lon="30.017480850219727">
        <time>2026-04-25T11:43:58Z</time>
      </trkpt>
      <trkpt lat="59.072155952453613" lon="30.017480850219727">
        <time>2026-04-25T11:44:00Z</time>
      </trkpt>
      <trkpt lat="59.072155952453613" lon="30.017480850219727">
        <time>2026-04-25T11:44:03Z</time>
      </trkpt>
      <trkpt lat="59.072155952453613" lon="30.017480850219727">
        <time>2026-04-25T11:44:05Z</time>
      </trkpt>
      <trkpt lat="59.072155952453613" lon="30.017502307891846">
        <time>2026-04-25T11:44:08Z</time>
      </trkpt>
      <trkpt lat="59.072155952453613" lon="30.017502307891846">
        <time>2026-04-25T11:44:10Z</time>
      </trkpt>
      <trkpt lat="59.072155952453613" lon="30.017545223236084">
        <time>2026-04-25T11:44:13Z</time>
      </trkpt>
      <trkpt lat="59.072155952453613" lon="30.017673969268799">
        <time>2026-04-25T11:44:15Z</time>
      </trkpt>
      <trkpt lat="59.072155952453613" lon="30.017759799957275">
        <time>2026-04-25T11:44:18Z</time>
      </trkpt>
      <trkpt lat="59.072155952453613" lon="30.01788854598999">
        <time>2026-04-25T11:44:20Z</time>
      </trkpt>
      <trkpt lat="59.072155952453613" lon="30.017952919006348">
        <time>2026-04-25T11:44:23Z</time>
      </trkpt>
      <trkpt lat="59.072155952453613" lon="30.017995834350586">
        <time>2026-04-25T11:44:25Z</time>
      </trkpt>
      <trkpt lat="59.072155952453613" lon="30.018038749694824">
        <time>2026-04-25T11:44:28Z</time>
      </trkpt>
      <trkpt lat="59.072155952453613" lon="30.018081665039063">
        <time>2026-04-25T11:44:30Z</time>
      </trkpt>
      <trkpt lat="59.072155952453613" lon="30.018081665039063">
        <time>2026-04-25T11:44:33Z</time>
      </trkpt>
      <trkpt lat="59.072155952453613" lon="30.018103122711182">
        <time>2026-04-25T11:44:35Z</time>
      </trkpt>
      <trkpt lat="59.072155952453613" lon="30.018103122711182">
        <time>2026-04-25T11:44:38Z</time>
      </trkpt>
      <trkpt lat="59.072155952453613" lon="30.018124580383301">
        <time>2026-04-25T11:44:40Z</time>
      </trkpt>
      <trkpt lat="59.072155952453613" lon="30.018188953399658">
        <time>2026-04-25T11:44:43Z</time>
      </trkpt>
      <trkpt lat="59.072177410125732" lon="30.018296241760254">
        <time>2026-04-25T11:44:45Z</time>
      </trkpt>
      <trkpt lat="59.072177410125732" lon="30.018360614776611">
        <time>2026-04-25T11:44:48Z</time>
      </trkpt>
      <trkpt lat="59.072177410125732" lon="30.018446445465088">
        <time>2026-04-25T11:44:50Z</time>
      </trkpt>
      <trkpt lat="59.072177410125732" lon="30.018532276153564">
        <time>2026-04-25T11:44:53Z</time>
      </trkpt>
      <trkpt lat="59.072198867797852" lon="30.018575191497803">
        <time>2026-04-25T11:44:55Z</time>
      </trkpt>
      <trkpt lat="59.072198867797852" lon="30.018575191497803">
        <time>2026-04-25T11:44:58Z</time>
      </trkpt>
      <trkpt lat="59.072198867797852" lon="30.018553733825684">
        <time>2026-04-25T11:45:00Z</time>
      </trkpt>
      <trkpt lat="59.072198867797852" lon="30.018575191497803">
        <time>2026-04-25T11:45:03Z</time>
      </trkpt>
      <trkpt lat="59.072220325469971" lon="30.018596649169922">
        <time>2026-04-25T11:45:05Z</time>
      </trkpt>
      <trkpt lat="59.072220325469971" lon="30.018661022186279">
        <time>2026-04-25T11:45:08Z</time>
      </trkpt>
      <trkpt lat="59.07224178314209" lon="30.018768310546875">
        <time>2026-04-25T11:45:10Z</time>
      </trkpt>
      <trkpt lat="59.072263240814209" lon="30.018854141235352">
        <time>2026-04-25T11:45:13Z</time>
      </trkpt>
      <trkpt lat="59.072284698486328" lon="30.018961429595947">
        <time>2026-04-25T11:45:15Z</time>
      </trkpt>
      <trkpt lat="59.072284698486328" lon="30.019025802612305">
        <time>2026-04-25T11:45:18Z</time>
      </trkpt>
      <trkpt lat="59.072284698486328" lon="30.019047260284424">
        <time>2026-04-25T11:45:20Z</time>
      </trkpt>
      <trkpt lat="59.072284698486328" lon="30.019047260284424">
        <time>2026-04-25T11:45:23Z</time>
      </trkpt>
      <trkpt lat="59.072284698486328" lon="30.019047260284424">
        <time>2026-04-25T11:45:25Z</time>
      </trkpt>
      <trkpt lat="59.072306156158447" lon="30.019047260284424">
        <time>2026-04-25T11:45:28Z</time>
      </trkpt>
      <trkpt lat="59.072284698486328" lon="30.019047260284424">
        <time>2026-04-25T11:45:30Z</time>
      </trkpt>
      <trkpt lat="59.072284698486328" lon="30.019047260284424">
        <time>2026-04-25T11:45:33Z</time>
      </trkpt>
      <trkpt lat="59.072284698486328" lon="30.019068717956543">
        <time>2026-04-25T11:45:35Z</time>
      </trkpt>
      <trkpt lat="59.072284698486328" lon="30.019068717956543">
        <time>2026-04-25T11:45:38Z</time>
      </trkpt>
      <trkpt lat="59.072284698486328" lon="30.019090175628662">
        <time>2026-04-25T11:45:40Z</time>
      </trkpt>
      <trkpt lat="59.072263240814209" lon="30.019090175628662">
        <time>2026-04-25T11:45:43Z</time>
      </trkpt>
      <trkpt lat="59.07224178314209" lon="30.019090175628662">
        <time>2026-04-25T11:45:45Z</time>
      </trkpt>
      <trkpt lat="59.07224178314209" lon="30.019090175628662">
        <time>2026-04-25T11:45:48Z</time>
      </trkpt>
      <trkpt lat="59.072198867797852" lon="30.0191330909729">
        <time>2026-04-25T11:45:50Z</time>
      </trkpt>
      <trkpt lat="59.072198867797852" lon="30.019176006317139">
        <time>2026-04-25T11:45:53Z</time>
      </trkpt>
      <trkpt lat="59.072220325469971" lon="30.019261837005615">
        <time>2026-04-25T11:45:55Z</time>
      </trkpt>
      <trkpt lat="59.072220325469971" lon="30.019304752349854">
        <time>2026-04-25T11:45:58Z</time>
      </trkpt>
      <trkpt lat="59.072177410125732" lon="30.019412040710449">
        <time>2026-04-25T11:46:00Z</time>
      </trkpt>
      <trkpt lat="59.072177410125732" lon="30.019476413726807">
        <time>2026-04-25T11:46:03Z</time>
      </trkpt>
      <trkpt lat="59.072155952453613" lon="30.019476413726807">
        <time>2026-04-25T11:46:05Z</time>
      </trkpt>
      <trkpt lat="59.072155952453613" lon="30.019454956054688">
        <time>2026-04-25T11:46:08Z</time>
      </trkpt>
      <trkpt lat="59.072177410125732" lon="30.019454956054688">
        <time>2026-04-25T11:46:10Z</time>
      </trkpt>
      <trkpt lat="59.072198867797852" lon="30.019433498382568">
        <time>2026-04-25T11:46:13Z</time>
      </trkpt>
      <trkpt lat="59.07224178314209" lon="30.019433498382568">
        <time>2026-04-25T11:46:15Z</time>
      </trkpt>
      <trkpt lat="59.072284698486328" lon="30.019497871398926">
        <time>2026-04-25T11:46:18Z</time>
      </trkpt>
      <trkpt lat="59.072327613830566" lon="30.019562244415283">
        <time>2026-04-25T11:46:20Z</time>
      </trkpt>
      <trkpt lat="59.072370529174805" lon="30.019605159759521">
        <time>2026-04-25T11:46:23Z</time>
      </trkpt>
      <trkpt lat="59.072413444519043" lon="30.019690990447998">
        <time>2026-04-25T11:46:25Z</time>
      </trkpt>
      <trkpt lat="59.072434902191162" lon="30.019733905792236">
        <time>2026-04-25T11:46:28Z</time>
      </trkpt>
      <trkpt lat="59.072456359863281" lon="30.019755363464355">
        <time>2026-04-25T11:46:30Z</time>
      </trkpt>
      <trkpt lat="59.072456359863281" lon="30.019798278808594">
        <time>2026-04-25T11:46:33Z</time>
      </trkpt>
      <trkpt lat="59.0724778175354" lon="30.01988410949707">
        <time>2026-04-25T11:46:35Z</time>
      </trkpt>
      <trkpt lat="59.07249927520752" lon="30.019969940185547">
        <time>2026-04-25T11:46:38Z</time>
      </trkpt>
      <trkpt lat="59.072520732879639" lon="30.020120143890381">
        <time>2026-04-25T11:46:40Z</time>
      </trkpt>
      <trkpt lat="59.072520732879639" lon="30.020205974578857">
        <time>2026-04-25T11:46:43Z</time>
      </trkpt>
      <trkpt lat="59.072542190551758" lon="30.020270347595215">
        <time>2026-04-25T11:46:45Z</time>
      </trkpt>
      <trkpt lat="59.072542190551758" lon="30.020313262939453">
        <time>2026-04-25T11:46:48Z</time>
      </trkpt>
      <trkpt lat="59.072563648223877" lon="30.020420551300049">
        <time>2026-04-25T11:46:50Z</time>
      </trkpt>
      <trkpt lat="59.072563648223877" lon="30.020506381988525">
        <time>2026-04-25T11:46:53Z</time>
      </trkpt>
      <trkpt lat="59.072585105895996" lon="30.020592212677002">
        <time>2026-04-25T11:46:55Z</time>
      </trkpt>
      <trkpt lat="59.072606563568115" lon="30.020656585693359">
        <time>2026-04-25T11:46:58Z</time>
      </trkpt>
      <trkpt lat="59.072606563568115" lon="30.020699501037598">
        <time>2026-04-25T11:47:00Z</time>
      </trkpt>
      <trkpt lat="59.072628021240234" lon="30.020699501037598">
        <time>2026-04-25T11:47:03Z</time>
      </trkpt>
      <trkpt lat="59.072628021240234" lon="30.020678043365479">
        <time>2026-04-25T11:47:05Z</time>
      </trkpt>
      <trkpt lat="59.072649478912354" lon="30.020656585693359">
        <time>2026-04-25T11:47:08Z</time>
      </trkpt>
      <trkpt lat="59.072670936584473" lon="30.020678043365479">
        <time>2026-04-25T11:47:10Z</time>
      </trkpt>
      <trkpt lat="59.072670936584473" lon="30.020699501037598">
        <time>2026-04-25T11:47:13Z</time>
      </trkpt>
      <trkpt lat="59.072670936584473" lon="30.020720958709717">
        <time>2026-04-25T11:47:15Z</time>
      </trkpt>
      <trkpt lat="59.072649478912354" lon="30.020720958709717">
        <time>2026-04-25T11:47:18Z</time>
      </trkpt>
      <trkpt lat="59.072649478912354" lon="30.020763874053955">
        <time>2026-04-25T11:47:20Z</time>
      </trkpt>
      <trkpt lat="59.072649478912354" lon="30.020806789398193">
        <time>2026-04-25T11:47:23Z</time>
      </trkpt>
      <trkpt lat="59.072628021240234" lon="30.020849704742432">
        <time>2026-04-25T11:47:25Z</time>
      </trkpt>
      <trkpt lat="59.072628021240234" lon="30.020871162414551">
        <time>2026-04-25T11:47:28Z</time>
      </trkpt>
      <trkpt lat="59.072628021240234" lon="30.020849704742432">
        <time>2026-04-25T11:47:30Z</time>
      </trkpt>
      <trkpt lat="59.072628021240234" lon="30.020849704742432">
        <time>2026-04-25T11:47:33Z</time>
      </trkpt>
      <trkpt lat="59.072628021240234" lon="30.020849704742432">
        <time>2026-04-25T11:47:35Z</time>
      </trkpt>
      <trkpt lat="59.072628021240234" lon="30.020849704742432">
        <time>2026-04-25T11:47:38Z</time>
      </trkpt>
      <trkpt lat="59.072628021240234" lon="30.020871162414551">
        <time>2026-04-25T11:47:40Z</time>
      </trkpt>
      <trkpt lat="59.072628021240234" lon="30.020956993103027">
        <time>2026-04-25T11:47:43Z</time>
      </trkpt>
      <trkpt lat="59.072628021240234" lon="30.021171569824219">
        <time>2026-04-25T11:47:45Z</time>
      </trkpt>
      <trkpt lat="59.072628021240234" lon="30.021321773529053">
        <time>2026-04-25T11:47:48Z</time>
      </trkpt>
      <trkpt lat="59.072628021240234" lon="30.02138614654541">
        <time>2026-04-25T11:47:50Z</time>
      </trkpt>
      <trkpt lat="59.072628021240234" lon="30.02138614654541">
        <time>2026-04-25T11:47:53Z</time>
      </trkpt>
      <trkpt lat="59.072628021240234" lon="30.02138614654541">
        <time>2026-04-25T11:47:55Z</time>
      </trkpt>
      <trkpt lat="59.072606563568115" lon="30.021493434906006">
        <time>2026-04-25T11:47:58Z</time>
      </trkpt>
      <trkpt lat="59.072628021240234" lon="30.02164363861084">
        <time>2026-04-25T11:48:00Z</time>
      </trkpt>
      <trkpt lat="59.072628021240234" lon="30.021729469299316">
        <time>2026-04-25T11:48:03Z</time>
      </trkpt>
      <trkpt lat="59.072606563568115" lon="30.021858215332031">
        <time>2026-04-25T11:48:05Z</time>
      </trkpt>
      <trkpt lat="59.072606563568115" lon="30.021944046020508">
        <time>2026-04-25T11:48:08Z</time>
      </trkpt>
      <trkpt lat="59.072585105895996" lon="30.022008419036865">
        <time>2026-04-25T11:48:10Z</time>
      </trkpt>
      <trkpt lat="59.072606563568115" lon="30.022072792053223">
        <time>2026-04-25T11:48:13Z</time>
      </trkpt>
      <trkpt lat="59.072585105895996" lon="30.02213716506958">
        <time>2026-04-25T11:48:15Z</time>
      </trkpt>
      <trkpt lat="59.072585105895996" lon="30.022180080413818">
        <time>2026-04-25T11:48:18Z</time>
      </trkpt>
      <trkpt lat="59.072585105895996" lon="30.022244453430176">
        <time>2026-04-25T11:48:20Z</time>
      </trkpt>
      <trkpt lat="59.072585105895996" lon="30.022287368774414">
        <time>2026-04-25T11:48:23Z</time>
      </trkpt>
      <trkpt lat="59.072585105895996" lon="30.022308826446533">
        <time>2026-04-25T11:48:25Z</time>
      </trkpt>
      <trkpt lat="59.072585105895996" lon="30.022351741790771">
        <time>2026-04-25T11:48:28Z</time>
      </trkpt>
      <trkpt lat="59.072585105895996" lon="30.022351741790771">
        <time>2026-04-25T11:48:30Z</time>
      </trkpt>
      <trkpt lat="59.072585105895996" lon="30.022351741790771">
        <time>2026-04-25T11:48:33Z</time>
      </trkpt>
      <trkpt lat="59.072606563568115" lon="30.022373199462891">
        <time>2026-04-25T11:48:35Z</time>
      </trkpt>
      <trkpt lat="59.072606563568115" lon="30.022437572479248">
        <time>2026-04-25T11:48:38Z</time>
      </trkpt>
      <trkpt lat="59.072585105895996" lon="30.022566318511963">
        <time>2026-04-25T11:48:40Z</time>
      </trkpt>
      <trkpt lat="59.072585105895996" lon="30.022652149200439">
        <time>2026-04-25T11:48:43Z</time>
      </trkpt>
      <trkpt lat="59.072585105895996" lon="30.022780895233154">
        <time>2026-04-25T11:48:45Z</time>
      </trkpt>
      <trkpt lat="59.072585105895996" lon="30.022845268249512">
        <time>2026-04-25T11:48:48Z</time>
      </trkpt>
      <trkpt lat="59.072585105895996" lon="30.022866725921631">
        <time>2026-04-25T11:48:50Z</time>
      </trkpt>
      <trkpt lat="59.072585105895996" lon="30.022845268249512">
        <time>2026-04-25T11:48:53Z</time>
      </trkpt>
      <trkpt lat="59.072585105895996" lon="30.022866725921631">
        <time>2026-04-25T11:48:55Z</time>
      </trkpt>
      <trkpt lat="59.072585105895996" lon="30.022909641265869">
        <time>2026-04-25T11:48:58Z</time>
      </trkpt>
      <trkpt lat="59.072563648223877" lon="30.023038387298584">
        <time>2026-04-25T11:49:00Z</time>
      </trkpt>
      <trkpt lat="59.072542190551758" lon="30.023102760314941">
        <time>2026-04-25T11:49:03Z</time>
      </trkpt>
      <trkpt lat="59.072542190551758" lon="30.023210048675537">
        <time>2026-04-25T11:49:05Z</time>
      </trkpt>
      <trkpt lat="59.072520732879639" lon="30.023231506347656">
        <time>2026-04-25T11:49:08Z</time>
      </trkpt>
      <trkpt lat="59.0724778175354" lon="30.023210048675537">
        <time>2026-04-25T11:49:10Z</time>
      </trkpt>
      <trkpt lat="59.072434902191162" lon="30.023188591003418">
        <time>2026-04-25T11:49:13Z</time>
      </trkpt>
      <trkpt lat="59.072413444519043" lon="30.023188591003418">
        <time>2026-04-25T11:49:15Z</time>
      </trkpt>
      <trkpt lat="59.072370529174805" lon="30.023210048675537">
        <time>2026-04-25T11:49:18Z</time>
      </trkpt>
      <trkpt lat="59.072349071502686" lon="30.023274421691895">
        <time>2026-04-25T11:49:20Z</time>
      </trkpt>
      <trkpt lat="59.072349071502686" lon="30.023338794708252">
        <time>2026-04-25T11:49:23Z</time>
      </trkpt>
      <trkpt lat="59.072327613830566" lon="30.023467540740967">
        <time>2026-04-25T11:49:25Z</time>
      </trkpt>
      <trkpt lat="59.072327613830566" lon="30.023553371429443">
        <time>2026-04-25T11:49:28Z</time>
      </trkpt>
      <trkpt lat="59.072327613830566" lon="30.023660659790039">
        <time>2026-04-25T11:49:30Z</time>
      </trkpt>
      <trkpt lat="59.072327613830566" lon="30.023703575134277">
        <time>2026-04-25T11:49:33Z</time>
      </trkpt>
      <trkpt lat="59.072370529174805" lon="30.023725032806396">
        <time>2026-04-25T11:49:35Z</time>
      </trkpt>
      <trkpt lat="59.072413444519043" lon="30.023746490478516">
        <time>2026-04-25T11:49:38Z</time>
      </trkpt>
      <trkpt lat="59.072434902191162" lon="30.023832321166992">
        <time>2026-04-25T11:49:40Z</time>
      </trkpt>
      <trkpt lat="59.072456359863281" lon="30.02389669418335">
        <time>2026-04-25T11:49:43Z</time>
      </trkpt>
      <trkpt lat="59.0724778175354" lon="30.023982524871826">
        <time>2026-04-25T11:49:45Z</time>
      </trkpt>
      <trkpt lat="59.07249927520752" lon="30.024003982543945">
        <time>2026-04-25T11:49:48Z</time>
      </trkpt>
      <trkpt lat="59.072520732879639" lon="30.024046897888184">
        <time>2026-04-25T11:49:50Z</time>
      </trkpt>
      <trkpt lat="59.072542190551758" lon="30.024068355560303">
        <time>2026-04-25T11:49:53Z</time>
      </trkpt>
      <trkpt lat="59.072585105895996" lon="30.024046897888184">
        <time>2026-04-25T11:49:55Z</time>
      </trkpt>
      <trkpt lat="59.072606563568115" lon="30.024089813232422">
        <time>2026-04-25T11:49:58Z</time>
      </trkpt>
      <trkpt lat="59.072649478912354" lon="30.024197101593018">
        <time>2026-04-25T11:50:00Z</time>
      </trkpt>
      <trkpt lat="59.072649478912354" lon="30.024282932281494">
        <time>2026-04-25T11:50:03Z</time>
      </trkpt>
      <trkpt lat="59.072670936584473" lon="30.024347305297852">
        <time>2026-04-25T11:50:05Z</time>
      </trkpt>
      <trkpt lat="59.072670936584473" lon="30.024368762969971">
        <time>2026-04-25T11:50:08Z</time>
      </trkpt>
      <trkpt lat="59.072670936584473" lon="30.024347305297852">
        <time>2026-04-25T11:50:10Z</time>
      </trkpt>
      <trkpt lat="59.072670936584473" lon="30.024347305297852">
        <time>2026-04-25T11:50:13Z</time>
      </trkpt>
      <trkpt lat="59.072670936584473" lon="30.024411678314209">
        <time>2026-04-25T11:50:15Z</time>
      </trkpt>
      <trkpt lat="59.072670936584473" lon="30.024411678314209">
        <time>2026-04-25T11:50:18Z</time>
      </trkpt>
      <trkpt lat="59.072692394256592" lon="30.024411678314209">
        <time>2026-04-25T11:50:20Z</time>
      </trkpt>
      <trkpt lat="59.072692394256592" lon="30.024411678314209">
        <time>2026-04-25T11:50:23Z</time>
      </trkpt>
      <trkpt lat="59.072692394256592" lon="30.024411678314209">
        <time>2026-04-25T11:50:25Z</time>
      </trkpt>
      <trkpt lat="59.072692394256592" lon="30.024433135986328">
        <time>2026-04-25T11:50:28Z</time>
      </trkpt>
      <trkpt lat="59.072713851928711" lon="30.024561882019043">
        <time>2026-04-25T11:50:30Z</time>
      </trkpt>
      <trkpt lat="59.07273530960083" lon="30.024669170379639">
        <time>2026-04-25T11:50:33Z</time>
      </trkpt>
      <trkpt lat="59.07273530960083" lon="30.02488374710083">
        <time>2026-04-25T11:50:38Z</time>
      </trkpt>
      <trkpt lat="59.072756767272949" lon="30.024991035461426">
        <time>2026-04-25T11:50:40Z</time>
      </trkpt>
      <trkpt lat="59.072756767272949" lon="30.025055408477783">
        <time>2026-04-25T11:50:43Z</time>
      </trkpt>
      <trkpt lat="59.07273530960083" lon="30.025055408477783">
        <time>2026-04-25T11:50:45Z</time>
      </trkpt>
      <trkpt lat="59.072756767272949" lon="30.025055408477783">
        <time>2026-04-25T11:50:48Z</time>
      </trkpt>
      <trkpt lat="59.072756767272949" lon="30.025076866149902">
        <time>2026-04-25T11:50:50Z</time>
      </trkpt>
      <trkpt lat="59.072756767272949" lon="30.025076866149902">
        <time>2026-04-25T11:50:53Z</time>
      </trkpt>
      <trkpt lat="59.072756767272949" lon="30.025076866149902">
        <time>2026-04-25T11:50:55Z</time>
      </trkpt>
      <trkpt lat="59.072756767272949" lon="30.02514123916626">
        <time>2026-04-25T11:50:58Z</time>
      </trkpt>
      <trkpt lat="59.072756767272949" lon="30.025227069854736">
        <time>2026-04-25T11:51:00Z</time>
      </trkpt>
      <trkpt lat="59.072778224945068" lon="30.025312900543213">
        <time>2026-04-25T11:51:03Z</time>
      </trkpt>
      <trkpt lat="59.072778224945068" lon="30.025420188903809">
        <time>2026-04-25T11:51:05Z</time>
      </trkpt>
      <trkpt lat="59.072778224945068" lon="30.025484561920166">
        <time>2026-04-25T11:51:08Z</time>
      </trkpt>
      <trkpt lat="59.072799682617187" lon="30.025570392608643">
        <time>2026-04-25T11:51:10Z</time>
      </trkpt>
      <trkpt lat="59.072821140289307" lon="30.025634765625">
        <time>2026-04-25T11:51:13Z</time>
      </trkpt>
      <trkpt lat="59.072842597961426" lon="30.025742053985596">
        <time>2026-04-25T11:51:15Z</time>
      </trkpt>
      <trkpt lat="59.072842597961426" lon="30.025806427001953">
        <time>2026-04-25T11:51:18Z</time>
      </trkpt>
      <trkpt lat="59.072842597961426" lon="30.02589225769043">
        <time>2026-04-25T11:51:20Z</time>
      </trkpt>
      <trkpt lat="59.072864055633545" lon="30.025956630706787">
        <time>2026-04-25T11:51:23Z</time>
      </trkpt>
      <trkpt lat="59.072864055633545" lon="30.026085376739502">
        <time>2026-04-25T11:51:25Z</time>
      </trkpt>
      <trkpt lat="59.072864055633545" lon="30.026149749755859">
        <time>2026-04-25T11:51:28Z</time>
      </trkpt>
      <trkpt lat="59.072885513305664" lon="30.026235580444336">
        <time>2026-04-25T11:51:30Z</time>
      </trkpt>
      <trkpt lat="59.072906970977783" lon="30.026299953460693">
        <time>2026-04-25T11:51:33Z</time>
      </trkpt>
      <trkpt lat="59.072928428649902" lon="30.02638578414917">
        <time>2026-04-25T11:51:35Z</time>
      </trkpt>
      <trkpt lat="59.072928428649902" lon="30.026471614837646">
        <time>2026-04-25T11:51:38Z</time>
      </trkpt>
      <trkpt lat="59.072949886322021" lon="30.026557445526123">
        <time>2026-04-25T11:51:40Z</time>
      </trkpt>
      <trkpt lat="59.072949886322021" lon="30.02662181854248">
        <time>2026-04-25T11:51:43Z</time>
      </trkpt>
      <trkpt lat="59.072949886322021" lon="30.026729106903076">
        <time>2026-04-25T11:51:45Z</time>
      </trkpt>
      <trkpt lat="59.072949886322021" lon="30.026793479919434">
        <time>2026-04-25T11:51:48Z</time>
      </trkpt>
      <trkpt lat="59.072971343994141" lon="30.02687931060791">
        <time>2026-04-25T11:51:50Z</time>
      </trkpt>
      <trkpt lat="59.072971343994141" lon="30.026922225952148">
        <time>2026-04-25T11:51:53Z</time>
      </trkpt>
      <trkpt lat="59.072971343994141" lon="30.026943683624268">
        <time>2026-04-25T11:51:55Z</time>
      </trkpt>
      <trkpt lat="59.072971343994141" lon="30.026986598968506">
        <time>2026-04-25T11:51:58Z</time>
      </trkpt>
      <trkpt lat="59.07299280166626" lon="30.027093887329102">
        <time>2026-04-25T11:52:00Z</time>
      </trkpt>
      <trkpt lat="59.073014259338379" lon="30.027158260345459">
        <time>2026-04-25T11:52:03Z</time>
      </trkpt>
      <trkpt lat="59.073014259338379" lon="30.027244091033936">
        <time>2026-04-25T11:52:05Z</time>
      </trkpt>
      <trkpt lat="59.073035717010498" lon="30.027287006378174">
        <time>2026-04-25T11:52:08Z</time>
      </trkpt>
      <trkpt lat="59.073057174682617" lon="30.027351379394531">
        <time>2026-04-25T11:52:10Z</time>
      </trkpt>
      <trkpt lat="59.073057174682617" lon="30.027415752410889">
        <time>2026-04-25T11:52:13Z</time>
      </trkpt>
      <trkpt lat="59.073057174682617" lon="30.027458667755127">
        <time>2026-04-25T11:52:15Z</time>
      </trkpt>
      <trkpt lat="59.073057174682617" lon="30.027480125427246">
        <time>2026-04-25T11:52:18Z</time>
      </trkpt>
      <trkpt lat="59.073057174682617" lon="30.027480125427246">
        <time>2026-04-25T11:52:20Z</time>
      </trkpt>
      <trkpt lat="59.073057174682617" lon="30.027501583099365">
        <time>2026-04-25T11:52:23Z</time>
      </trkpt>
      <trkpt lat="59.073057174682617" lon="30.027501583099365">
        <time>2026-04-25T11:52:25Z</time>
      </trkpt>
      <trkpt lat="59.073057174682617" lon="30.027501583099365">
        <time>2026-04-25T11:52:28Z</time>
      </trkpt>
      <trkpt lat="59.073057174682617" lon="30.027501583099365">
        <time>2026-04-25T11:52:30Z</time>
      </trkpt>
      <trkpt lat="59.073057174682617" lon="30.027501583099365">
        <time>2026-04-25T11:52:33Z</time>
      </trkpt>
      <trkpt lat="59.073057174682617" lon="30.027501583099365">
        <time>2026-04-25T11:52:35Z</time>
      </trkpt>
      <trkpt lat="59.073057174682617" lon="30.027501583099365">
        <time>2026-04-25T11:52:38Z</time>
      </trkpt>
      <trkpt lat="59.073057174682617" lon="30.027501583099365">
        <time>2026-04-25T11:52:40Z</time>
      </trkpt>
      <trkpt lat="59.073057174682617" lon="30.027501583099365">
        <time>2026-04-25T11:52:43Z</time>
      </trkpt>
      <trkpt lat="59.073057174682617" lon="30.027501583099365">
        <time>2026-04-25T11:52:45Z</time>
      </trkpt>
      <trkpt lat="59.073078632354736" lon="30.027523040771484">
        <time>2026-04-25T11:52:48Z</time>
      </trkpt>
      <trkpt lat="59.073100090026855" lon="30.027544498443604">
        <time>2026-04-25T11:52:50Z</time>
      </trkpt>
      <trkpt lat="59.073100090026855" lon="30.027565956115723">
        <time>2026-04-25T11:52:53Z</time>
      </trkpt>
      <trkpt lat="59.073100090026855" lon="30.027565956115723">
        <time>2026-04-25T11:52:55Z</time>
      </trkpt>
      <trkpt lat="59.073121547698975" lon="30.027565956115723">
        <time>2026-04-25T11:52:58Z</time>
      </trkpt>
      <trkpt lat="59.073100090026855" lon="30.027608871459961">
        <time>2026-04-25T11:53:00Z</time>
      </trkpt>
      <trkpt lat="59.073100090026855" lon="30.02763032913208">
        <time>2026-04-25T11:53:03Z</time>
      </trkpt>
      <trkpt lat="59.073057174682617" lon="30.027651786804199">
        <time>2026-04-25T11:53:05Z</time>
      </trkpt>
      <trkpt lat="59.07299280166626" lon="30.027673244476318">
        <time>2026-04-25T11:53:08Z</time>
      </trkpt>
      <trkpt lat="59.072928428649902" lon="30.027716159820557">
        <time>2026-04-25T11:53:10Z</time>
      </trkpt>
      <trkpt lat="59.072864055633545" lon="30.027759075164795">
        <time>2026-04-25T11:53:13Z</time>
      </trkpt>
      <trkpt lat="59.072821140289307" lon="30.027801990509033">
        <time>2026-04-25T11:53:15Z</time>
      </trkpt>
      <trkpt lat="59.072821140289307" lon="30.027801990509033">
        <time>2026-04-25T11:53:18Z</time>
      </trkpt>
      <trkpt lat="59.072799682617187" lon="30.027844905853271">
        <time>2026-04-25T11:53:20Z</time>
      </trkpt>
      <trkpt lat="59.072778224945068" lon="30.027844905853271">
        <time>2026-04-25T11:53:23Z</time>
      </trkpt>
      <trkpt lat="59.07273530960083" lon="30.027823448181152">
        <time>2026-04-25T11:53:25Z</time>
      </trkpt>
      <trkpt lat="59.072713851928711" lon="30.027823448181152">
        <time>2026-04-25T11:53:28Z</time>
      </trkpt>
      <trkpt lat="59.072670936584473" lon="30.027780532836914">
        <time>2026-04-25T11:53:30Z</time>
      </trkpt>
      <trkpt lat="59.072628021240234" lon="30.027801990509033">
        <time>2026-04-25T11:53:33Z</time>
      </trkpt>
      <trkpt lat="59.072606563568115" lon="30.027823448181152">
        <time>2026-04-25T11:53:35Z</time>
      </trkpt>
      <trkpt lat="59.072585105895996" lon="30.027823448181152">
        <time>2026-04-25T11:53:38Z</time>
      </trkpt>
      <trkpt lat="59.072542190551758" lon="30.027823448181152">
        <time>2026-04-25T11:53:40Z</time>
      </trkpt>
      <trkpt lat="59.072520732879639" lon="30.027844905853271">
        <time>2026-04-25T11:53:43Z</time>
      </trkpt>
      <trkpt lat="59.07249927520752" lon="30.027866363525391">
        <time>2026-04-25T11:53:45Z</time>
      </trkpt>
      <trkpt lat="59.07249927520752" lon="30.02788782119751">
        <time>2026-04-25T11:53:48Z</time>
      </trkpt>
      <trkpt lat="59.072456359863281" lon="30.027866363525391">
        <time>2026-04-25T11:53:53Z</time>
      </trkpt>
      <trkpt lat="59.072434902191162" lon="30.02788782119751">
        <time>2026-04-25T11:53:55Z</time>
      </trkpt>
      <trkpt lat="59.072413444519043" lon="30.02788782119751">
        <time>2026-04-25T11:53:58Z</time>
      </trkpt>
      <trkpt lat="59.072413444519043" lon="30.02788782119751">
        <time>2026-04-25T11:54:00Z</time>
      </trkpt>
      <trkpt lat="59.072413444519043" lon="30.027909278869629">
        <time>2026-04-25T11:54:03Z</time>
      </trkpt>
      <trkpt lat="59.072391986846924" lon="30.027909278869629">
        <time>2026-04-25T11:54:05Z</time>
      </trkpt>
      <trkpt lat="59.072391986846924" lon="30.027909278869629">
        <time>2026-04-25T11:54:08Z</time>
      </trkpt>
      <trkpt lat="59.072391986846924" lon="30.027909278869629">
        <time>2026-04-25T11:54:10Z</time>
      </trkpt>
      <trkpt lat="59.072413444519043" lon="30.027909278869629">
        <time>2026-04-25T11:54:13Z</time>
      </trkpt>
      <trkpt lat="59.072413444519043" lon="30.02788782119751">
        <time>2026-04-25T11:54:15Z</time>
      </trkpt>
      <trkpt lat="59.072413444519043" lon="30.027909278869629">
        <time>2026-04-25T11:54:18Z</time>
      </trkpt>
      <trkpt lat="59.072370529174805" lon="30.027930736541748">
        <time>2026-04-25T11:54:20Z</time>
      </trkpt>
      <trkpt lat="59.072349071502686" lon="30.027973651885986">
        <time>2026-04-25T11:54:23Z</time>
      </trkpt>
      <trkpt lat="59.072327613830566" lon="30.028016567230225">
        <time>2026-04-25T11:54:25Z</time>
      </trkpt>
      <trkpt lat="59.072306156158447" lon="30.028038024902344">
        <time>2026-04-25T11:54:28Z</time>
      </trkpt>
      <trkpt lat="59.072306156158447" lon="30.028016567230225">
        <time>2026-04-25T11:54:30Z</time>
      </trkpt>
      <trkpt lat="59.072306156158447" lon="30.028016567230225">
        <time>2026-04-25T11:54:33Z</time>
      </trkpt>
      <trkpt lat="59.072306156158447" lon="30.028016567230225">
        <time>2026-04-25T11:54:35Z</time>
      </trkpt>
      <trkpt lat="59.072306156158447" lon="30.028016567230225">
        <time>2026-04-25T11:54:38Z</time>
      </trkpt>
      <trkpt lat="59.072306156158447" lon="30.028016567230225">
        <time>2026-04-25T11:54:40Z</time>
      </trkpt>
      <trkpt lat="59.072306156158447" lon="30.028016567230225">
        <time>2026-04-25T11:54:43Z</time>
      </trkpt>
      <trkpt lat="59.072306156158447" lon="30.028038024902344">
        <time>2026-04-25T11:54:45Z</time>
      </trkpt>
      <trkpt lat="59.072306156158447" lon="30.028038024902344">
        <time>2026-04-25T11:54:48Z</time>
      </trkpt>
      <trkpt lat="59.072284698486328" lon="30.028038024902344">
        <time>2026-04-25T11:54:50Z</time>
      </trkpt>
      <trkpt lat="59.072284698486328" lon="30.028059482574463">
        <time>2026-04-25T11:54:53Z</time>
      </trkpt>
      <trkpt lat="59.07224178314209" lon="30.028080940246582">
        <time>2026-04-25T11:54:55Z</time>
      </trkpt>
      <trkpt lat="59.072220325469971" lon="30.028080940246582">
        <time>2026-04-25T11:54:58Z</time>
      </trkpt>
      <trkpt lat="59.072198867797852" lon="30.028059482574463">
        <time>2026-04-25T11:55:00Z</time>
      </trkpt>
      <trkpt lat="59.072198867797852" lon="30.028038024902344">
        <time>2026-04-25T11:55:03Z</time>
      </trkpt>
      <trkpt lat="59.072155952453613" lon="30.028038024902344">
        <time>2026-04-25T11:55:05Z</time>
      </trkpt>
      <trkpt lat="59.072113037109375" lon="30.028038024902344">
        <time>2026-04-25T11:55:08Z</time>
      </trkpt>
      <trkpt lat="59.072070121765137" lon="30.028059482574463">
        <time>2026-04-25T11:55:10Z</time>
      </trkpt>
      <trkpt lat="59.072048664093018" lon="30.028059482574463">
        <time>2026-04-25T11:55:13Z</time>
      </trkpt>
      <trkpt lat="59.072027206420898" lon="30.028038024902344">
        <time>2026-04-25T11:55:15Z</time>
      </trkpt>
      <trkpt lat="59.072027206420898" lon="30.028059482574463">
        <time>2026-04-25T11:55:18Z</time>
      </trkpt>
      <trkpt lat="59.072005748748779" lon="30.028038024902344">
        <time>2026-04-25T11:55:20Z</time>
      </trkpt>
      <trkpt lat="59.072005748748779" lon="30.028038024902344">
        <time>2026-04-25T11:55:23Z</time>
      </trkpt>
      <trkpt lat="59.071962833404541" lon="30.028038024902344">
        <time>2026-04-25T11:55:25Z</time>
      </trkpt>
      <trkpt lat="59.071941375732422" lon="30.028038024902344">
        <time>2026-04-25T11:55:28Z</time>
      </trkpt>
      <trkpt lat="59.071898460388184" lon="30.028059482574463">
        <time>2026-04-25T11:55:30Z</time>
      </trkpt>
      <trkpt lat="59.071855545043945" lon="30.028080940246582">
        <time>2026-04-25T11:55:33Z</time>
      </trkpt>
      <trkpt lat="59.071812629699707" lon="30.028102397918701">
        <time>2026-04-25T11:55:35Z</time>
      </trkpt>
      <trkpt lat="59.071791172027588" lon="30.028080940246582">
        <time>2026-04-25T11:55:38Z</time>
      </trkpt>
      <trkpt lat="59.071769714355469" lon="30.028080940246582">
        <time>2026-04-25T11:55:40Z</time>
      </trkpt>
      <trkpt lat="59.071769714355469" lon="30.028080940246582">
        <time>2026-04-25T11:55:43Z</time>
      </trkpt>
      <trkpt lat="59.07174825668335" lon="30.028080940246582">
        <time>2026-04-25T11:55:45Z</time>
      </trkpt>
      <trkpt lat="59.07172679901123" lon="30.028102397918701">
        <time>2026-04-25T11:55:48Z</time>
      </trkpt>
      <trkpt lat="59.071705341339111" lon="30.02812385559082">
        <time>2026-04-25T11:55:50Z</time>
      </trkpt>
      <trkpt lat="59.071683883666992" lon="30.02812385559082">
        <time>2026-04-25T11:55:53Z</time>
      </trkpt>
      <trkpt lat="59.071683883666992" lon="30.02812385559082">
        <time>2026-04-25T11:55:55Z</time>
      </trkpt>
      <trkpt lat="59.071662425994873" lon="30.02812385559082">
        <time>2026-04-25T11:55:58Z</time>
      </trkpt>
      <trkpt lat="59.071619510650635" lon="30.02812385559082">
        <time>2026-04-25T11:56:00Z</time>
      </trkpt>
      <trkpt lat="59.071598052978516" lon="30.028145313262939">
        <time>2026-04-25T11:56:03Z</time>
      </trkpt>
      <trkpt lat="59.071555137634277" lon="30.028166770935059">
        <time>2026-04-25T11:56:05Z</time>
      </trkpt>
      <trkpt lat="59.071533679962158" lon="30.028166770935059">
        <time>2026-04-25T11:56:08Z</time>
      </trkpt>
      <trkpt lat="59.071512222290039" lon="30.028188228607178">
        <time>2026-04-25T11:56:10Z</time>
      </trkpt>
      <trkpt lat="59.07149076461792" lon="30.028188228607178">
        <time>2026-04-25T11:56:13Z</time>
      </trkpt>
      <trkpt lat="59.07149076461792" lon="30.028166770935059">
        <time>2026-04-25T11:56:15Z</time>
      </trkpt>
      <trkpt lat="59.07149076461792" lon="30.028188228607178">
        <time>2026-04-25T11:56:18Z</time>
      </trkpt>
      <trkpt lat="59.071469306945801" lon="30.028188228607178">
        <time>2026-04-25T11:56:20Z</time>
      </trkpt>
      <trkpt lat="59.071447849273682" lon="30.028188228607178">
        <time>2026-04-25T11:56:23Z</time>
      </trkpt>
      <trkpt lat="59.071426391601563" lon="30.028209686279297">
        <time>2026-04-25T11:56:25Z</time>
      </trkpt>
      <trkpt lat="59.071404933929443" lon="30.028209686279297">
        <time>2026-04-25T11:56:28Z</time>
      </trkpt>
      <trkpt lat="59.071383476257324" lon="30.028188228607178">
        <time>2026-04-25T11:56:30Z</time>
      </trkpt>
      <trkpt lat="59.071383476257324" lon="30.028209686279297">
        <time>2026-04-25T11:56:33Z</time>
      </trkpt>
      <trkpt lat="59.071340560913086" lon="30.028209686279297">
        <time>2026-04-25T11:56:35Z</time>
      </trkpt>
      <trkpt lat="59.071340560913086" lon="30.028209686279297">
        <time>2026-04-25T11:56:38Z</time>
      </trkpt>
      <trkpt lat="59.071319103240967" lon="30.028209686279297">
        <time>2026-04-25T11:56:40Z</time>
      </trkpt>
      <trkpt lat="59.071276187896729" lon="30.028231143951416">
        <time>2026-04-25T11:56:43Z</time>
      </trkpt>
      <trkpt lat="59.07123327255249" lon="30.028252601623535">
        <time>2026-04-25T11:56:45Z</time>
      </trkpt>
      <trkpt lat="59.07123327255249" lon="30.028252601623535">
        <time>2026-04-25T11:56:48Z</time>
      </trkpt>
      <trkpt lat="59.071211814880371" lon="30.028252601623535">
        <time>2026-04-25T11:56:50Z</time>
      </trkpt>
      <trkpt lat="59.071190357208252" lon="30.028274059295654">
        <time>2026-04-25T11:56:53Z</time>
      </trkpt>
      <trkpt lat="59.071190357208252" lon="30.028274059295654">
        <time>2026-04-25T11:56:55Z</time>
      </trkpt>
      <trkpt lat="59.071190357208252" lon="30.028274059295654">
        <time>2026-04-25T11:56:58Z</time>
      </trkpt>
      <trkpt lat="59.071190357208252" lon="30.028316974639893">
        <time>2026-04-25T11:57:00Z</time>
      </trkpt>
      <trkpt lat="59.071168899536133" lon="30.028316974639893">
        <time>2026-04-25T11:57:03Z</time>
      </trkpt>
      <trkpt lat="59.071168899536133" lon="30.028316974639893">
        <time>2026-04-25T11:57:05Z</time>
      </trkpt>
      <trkpt lat="59.071168899536133" lon="30.028338432312012">
        <time>2026-04-25T11:57:08Z</time>
      </trkpt>
      <trkpt lat="59.071168899536133" lon="30.028359889984131">
        <time>2026-04-25T11:57:10Z</time>
      </trkpt>
      <trkpt lat="59.071168899536133" lon="30.028402805328369">
        <time>2026-04-25T11:57:13Z</time>
      </trkpt>
      <trkpt lat="59.071168899536133" lon="30.02838134765625">
        <time>2026-04-25T11:57:15Z</time>
      </trkpt>
      <trkpt lat="59.071147441864014" lon="30.028338432312012">
        <time>2026-04-25T11:57:18Z</time>
      </trkpt>
      <trkpt lat="59.071104526519775" lon="30.028338432312012">
        <time>2026-04-25T11:57:20Z</time>
      </trkpt>
      <trkpt lat="59.071040153503418" lon="30.02838134765625">
        <time>2026-04-25T11:57:23Z</time>
      </trkpt>
      <trkpt lat="59.070932865142822" lon="30.028402805328369">
        <time>2026-04-25T11:57:25Z</time>
      </trkpt>
      <trkpt lat="59.070868492126465" lon="30.028424263000488">
        <time>2026-04-25T11:57:28Z</time>
      </trkpt>
      <trkpt lat="59.070825576782227" lon="30.028424263000488">
        <time>2026-04-25T11:57:30Z</time>
      </trkpt>
      <trkpt lat="59.070782661437988" lon="30.028445720672607">
        <time>2026-04-25T11:57:33Z</time>
      </trkpt>
      <trkpt lat="59.070782661437988" lon="30.028445720672607">
        <time>2026-04-25T11:57:35Z</time>
      </trkpt>
      <trkpt lat="59.070782661437988" lon="30.028467178344727">
        <time>2026-04-25T11:57:38Z</time>
      </trkpt>
      <trkpt lat="59.070761203765869" lon="30.028488636016846">
        <time>2026-04-25T11:57:40Z</time>
      </trkpt>
      <trkpt lat="59.070761203765869" lon="30.028488636016846">
        <time>2026-04-25T11:57:43Z</time>
      </trkpt>
      <trkpt lat="59.070761203765869" lon="30.028488636016846">
        <time>2026-04-25T11:57:45Z</time>
      </trkpt>
      <trkpt lat="59.070761203765869" lon="30.028488636016846">
        <time>2026-04-25T11:57:48Z</time>
      </trkpt>
      <trkpt lat="59.070761203765869" lon="30.028488636016846">
        <time>2026-04-25T11:57:50Z</time>
      </trkpt>
      <trkpt lat="59.070761203765869" lon="30.028488636016846">
        <time>2026-04-25T11:57:53Z</time>
      </trkpt>
      <trkpt lat="59.070761203765869" lon="30.028488636016846">
        <time>2026-04-25T11:57:55Z</time>
      </trkpt>
      <trkpt lat="59.070761203765869" lon="30.028467178344727">
        <time>2026-04-25T11:57:58Z</time>
      </trkpt>
      <trkpt lat="59.070761203765869" lon="30.028467178344727">
        <time>2026-04-25T11:58:00Z</time>
      </trkpt>
      <trkpt lat="59.070761203765869" lon="30.028467178344727">
        <time>2026-04-25T11:58:03Z</time>
      </trkpt>
      <trkpt lat="59.070696830749512" lon="30.028488636016846">
        <time>2026-04-25T11:58:05Z</time>
      </trkpt>
      <trkpt lat="59.070653915405273" lon="30.028510093688965">
        <time>2026-04-25T11:58:08Z</time>
      </trkpt>
      <trkpt lat="59.070568084716797" lon="30.028531551361084">
        <time>2026-04-25T11:58:10Z</time>
      </trkpt>
      <trkpt lat="59.070546627044678" lon="30.028553009033203">
        <time>2026-04-25T11:58:13Z</time>
      </trkpt>
      <trkpt lat="59.070525169372559" lon="30.028553009033203">
        <time>2026-04-25T11:58:15Z</time>
      </trkpt>
      <trkpt lat="59.070503711700439" lon="30.028531551361084">
        <time>2026-04-25T11:58:18Z</time>
      </trkpt>
      <trkpt lat="59.07048225402832" lon="30.028531551361084">
        <time>2026-04-25T11:58:20Z</time>
      </trkpt>
      <trkpt lat="59.070460796356201" lon="30.028531551361084">
        <time>2026-04-25T11:58:23Z</time>
      </trkpt>
      <trkpt lat="59.070439338684082" lon="30.028531551361084">
        <time>2026-04-25T11:58:25Z</time>
      </trkpt>
      <trkpt lat="59.070396423339844" lon="30.028531551361084">
        <time>2026-04-25T11:58:28Z</time>
      </trkpt>
      <trkpt lat="59.070332050323486" lon="30.028553009033203">
        <time>2026-04-25T11:58:30Z</time>
      </trkpt>
      <trkpt lat="59.070310592651367" lon="30.028574466705322">
        <time>2026-04-25T11:58:33Z</time>
      </trkpt>
      <trkpt lat="59.070267677307129" lon="30.028574466705322">
        <time>2026-04-25T11:58:35Z</time>
      </trkpt>
      <trkpt lat="59.07024621963501" lon="30.028595924377441">
        <time>2026-04-25T11:58:38Z</time>
      </trkpt>
      <trkpt lat="59.07024621963501" lon="30.02863883972168">
        <time>2026-04-25T11:58:40Z</time>
      </trkpt>
      <trkpt lat="59.070224761962891" lon="30.02863883972168">
        <time>2026-04-25T11:58:43Z</time>
      </trkpt>
      <trkpt lat="59.070224761962891" lon="30.02863883972168">
        <time>2026-04-25T11:58:45Z</time>
      </trkpt>
      <trkpt lat="59.070224761962891" lon="30.02863883972168">
        <time>2026-04-25T11:58:48Z</time>
      </trkpt>
      <trkpt lat="59.070224761962891" lon="30.02863883972168">
        <time>2026-04-25T11:58:50Z</time>
      </trkpt>
      <trkpt lat="59.070224761962891" lon="30.02863883972168">
        <time>2026-04-25T11:58:53Z</time>
      </trkpt>
      <trkpt lat="59.070181846618652" lon="30.028681755065918">
        <time>2026-04-25T11:58:55Z</time>
      </trkpt>
      <trkpt lat="59.070160388946533" lon="30.028703212738037">
        <time>2026-04-25T11:58:58Z</time>
      </trkpt>
      <trkpt lat="59.070117473602295" lon="30.028703212738037">
        <time>2026-04-25T11:59:00Z</time>
      </trkpt>
      <trkpt lat="59.070074558258057" lon="30.028724670410156">
        <time>2026-04-25T11:59:03Z</time>
      </trkpt>
      <trkpt lat="59.070031642913818" lon="30.028724670410156">
        <time>2026-04-25T11:59:05Z</time>
      </trkpt>
      <trkpt lat="59.070031642913818" lon="30.028724670410156">
        <time>2026-04-25T11:59:08Z</time>
      </trkpt>
      <trkpt lat="59.070010185241699" lon="30.028681755065918">
        <time>2026-04-25T11:59:10Z</time>
      </trkpt>
      <trkpt lat="59.070010185241699" lon="30.028681755065918">
        <time>2026-04-25T11:59:13Z</time>
      </trkpt>
      <trkpt lat="59.070010185241699" lon="30.028681755065918">
        <time>2026-04-25T11:59:15Z</time>
      </trkpt>
      <trkpt lat="59.070010185241699" lon="30.028681755065918">
        <time>2026-04-25T11:59:18Z</time>
      </trkpt>
      <trkpt lat="59.070010185241699" lon="30.028681755065918">
        <time>2026-04-25T11:59:20Z</time>
      </trkpt>
      <trkpt lat="59.070010185241699" lon="30.028681755065918">
        <time>2026-04-25T11:59:23Z</time>
      </trkpt>
      <trkpt lat="59.070010185241699" lon="30.028681755065918">
        <time>2026-04-25T11:59:25Z</time>
      </trkpt>
      <trkpt lat="59.070010185241699" lon="30.028681755065918">
        <time>2026-04-25T11:59:28Z</time>
      </trkpt>
      <trkpt lat="59.070010185241699" lon="30.028681755065918">
        <time>2026-04-25T11:59:30Z</time>
      </trkpt>
      <trkpt lat="59.070010185241699" lon="30.028681755065918">
        <time>2026-04-25T11:59:33Z</time>
      </trkpt>
      <trkpt lat="59.070010185241699" lon="30.028681755065918">
        <time>2026-04-25T11:59:35Z</time>
      </trkpt>
      <trkpt lat="59.070010185241699" lon="30.028681755065918">
        <time>2026-04-25T11:59:38Z</time>
      </trkpt>
      <trkpt lat="59.06998872756958" lon="30.028681755065918">
        <time>2026-04-25T11:59:40Z</time>
      </trkpt>
      <trkpt lat="59.069967269897461" lon="30.028681755065918">
        <time>2026-04-25T11:59:43Z</time>
      </trkpt>
      <trkpt lat="59.069924354553223" lon="30.028767585754395">
        <time>2026-04-25T11:59:45Z</time>
      </trkpt>
      <trkpt lat="59.069859981536865" lon="30.028810501098633">
        <time>2026-04-25T11:59:48Z</time>
      </trkpt>
      <trkpt lat="59.06975269317627" lon="30.028853416442871">
        <time>2026-04-25T11:59:50Z</time>
      </trkpt>
      <trkpt lat="59.069688320159912" lon="30.028853416442871">
        <time>2026-04-25T11:59:53Z</time>
      </trkpt>
      <trkpt lat="59.069602489471436" lon="30.028853416442871">
        <time>2026-04-25T11:59:55Z</time>
      </trkpt>
      <trkpt lat="59.069559574127197" lon="30.02887487411499">
        <time>2026-04-25T11:59:58Z</time>
      </trkpt>
      <trkpt lat="59.069538116455078" lon="30.02887487411499">
        <time>2026-04-25T12:00:00Z</time>
      </trkpt>
      <trkpt lat="59.06949520111084" lon="30.02887487411499">
        <time>2026-04-25T12:00:03Z</time>
      </trkpt>
      <trkpt lat="59.069473743438721" lon="30.028896331787109">
        <time>2026-04-25T12:00:05Z</time>
      </trkpt>
      <trkpt lat="59.069430828094482" lon="30.028917789459229">
        <time>2026-04-25T12:00:08Z</time>
      </trkpt>
      <trkpt lat="59.069366455078125" lon="30.028939247131348">
        <time>2026-04-25T12:00:10Z</time>
      </trkpt>
      <trkpt lat="59.069366455078125" lon="30.028960704803467">
        <time>2026-04-25T12:00:13Z</time>
      </trkpt>
      <trkpt lat="59.069366455078125" lon="30.028960704803467">
        <time>2026-04-25T12:00:15Z</time>
      </trkpt>
      <trkpt lat="59.069366455078125" lon="30.028960704803467">
        <time>2026-04-25T12:00:18Z</time>
      </trkpt>
      <trkpt lat="59.069344997406006" lon="30.028982162475586">
        <time>2026-04-25T12:00:20Z</time>
      </trkpt>
      <trkpt lat="59.069302082061768" lon="30.028960704803467">
        <time>2026-04-25T12:00:23Z</time>
      </trkpt>
      <trkpt lat="59.069302082061768" lon="30.028960704803467">
        <time>2026-04-25T12:00:25Z</time>
      </trkpt>
      <trkpt lat="59.069280624389648" lon="30.028960704803467">
        <time>2026-04-25T12:00:28Z</time>
      </trkpt>
      <trkpt lat="59.069259166717529" lon="30.028960704803467">
        <time>2026-04-25T12:00:30Z</time>
      </trkpt>
      <trkpt lat="59.06923770904541" lon="30.028960704803467">
        <time>2026-04-25T12:00:33Z</time>
      </trkpt>
      <trkpt lat="59.069216251373291" lon="30.028960704803467">
        <time>2026-04-25T12:00:35Z</time>
      </trkpt>
      <trkpt lat="59.069194793701172" lon="30.028960704803467">
        <time>2026-04-25T12:00:38Z</time>
      </trkpt>
      <trkpt lat="59.069173336029053" lon="30.028960704803467">
        <time>2026-04-25T12:00:40Z</time>
      </trkpt>
      <trkpt lat="59.069173336029053" lon="30.028960704803467">
        <time>2026-04-25T12:00:43Z</time>
      </trkpt>
      <trkpt lat="59.069151878356934" lon="30.028960704803467">
        <time>2026-04-25T12:00:45Z</time>
      </trkpt>
      <trkpt lat="59.069130420684814" lon="30.028982162475586">
        <time>2026-04-25T12:00:48Z</time>
      </trkpt>
      <trkpt lat="59.069066047668457" lon="30.029003620147705">
        <time>2026-04-25T12:00:50Z</time>
      </trkpt>
      <trkpt lat="59.069023132324219" lon="30.029025077819824">
        <time>2026-04-25T12:00:53Z</time>
      </trkpt>
      <trkpt lat="59.06898021697998" lon="30.029046535491943">
        <time>2026-04-25T12:00:55Z</time>
      </trkpt>
      <trkpt lat="59.068958759307861" lon="30.029067993164062">
        <time>2026-04-25T12:00:58Z</time>
      </trkpt>
      <trkpt lat="59.068915843963623" lon="30.029089450836182">
        <time>2026-04-25T12:01:00Z</time>
      </trkpt>
      <trkpt lat="59.068894386291504" lon="30.029089450836182">
        <time>2026-04-25T12:01:03Z</time>
      </trkpt>
      <trkpt lat="59.068851470947266" lon="30.029110908508301">
        <time>2026-04-25T12:01:05Z</time>
      </trkpt>
      <trkpt lat="59.068808555603027" lon="30.02913236618042">
        <time>2026-04-25T12:01:08Z</time>
      </trkpt>
      <trkpt lat="59.068808555603027" lon="30.029110908508301">
        <time>2026-04-25T12:01:10Z</time>
      </trkpt>
      <trkpt lat="59.068808555603027" lon="30.029110908508301">
        <time>2026-04-25T12:01:13Z</time>
      </trkpt>
      <trkpt lat="59.068808555603027" lon="30.029110908508301">
        <time>2026-04-25T12:01:15Z</time>
      </trkpt>
      <trkpt lat="59.068787097930908" lon="30.029110908508301">
        <time>2026-04-25T12:01:18Z</time>
      </trkpt>
      <trkpt lat="59.068787097930908" lon="30.02913236618042">
        <time>2026-04-25T12:01:20Z</time>
      </trkpt>
      <trkpt lat="59.06874418258667" lon="30.029153823852539">
        <time>2026-04-25T12:01:23Z</time>
      </trkpt>
      <trkpt lat="59.068722724914551" lon="30.029153823852539">
        <time>2026-04-25T12:01:25Z</time>
      </trkpt>
      <trkpt lat="59.068722724914551" lon="30.029153823852539">
        <time>2026-04-25T12:01:28Z</time>
      </trkpt>
      <trkpt lat="59.068679809570313" lon="30.02913236618042">
        <time>2026-04-25T12:01:30Z</time>
      </trkpt>
      <trkpt lat="59.068679809570313" lon="30.029089450836182">
        <time>2026-04-25T12:01:33Z</time>
      </trkpt>
      <trkpt lat="59.068658351898193" lon="30.029046535491943">
        <time>2026-04-25T12:01:35Z</time>
      </trkpt>
      <trkpt lat="59.068636894226074" lon="30.029067993164062">
        <time>2026-04-25T12:01:38Z</time>
      </trkpt>
      <trkpt lat="59.068615436553955" lon="30.029153823852539">
        <time>2026-04-25T12:01:40Z</time>
      </trkpt>
      <trkpt lat="59.068593978881836" lon="30.029175281524658">
        <time>2026-04-25T12:01:43Z</time>
      </trkpt>
      <trkpt lat="59.068508148193359" lon="30.029196739196777">
        <time>2026-04-25T12:01:45Z</time>
      </trkpt>
      <trkpt lat="59.068465232849121" lon="30.029218196868896">
        <time>2026-04-25T12:01:48Z</time>
      </trkpt>
      <trkpt lat="59.068400859832764" lon="30.029239654541016">
        <time>2026-04-25T12:01:50Z</time>
      </trkpt>
      <trkpt lat="59.068379402160645" lon="30.029261112213135">
        <time>2026-04-25T12:01:53Z</time>
      </trkpt>
      <trkpt lat="59.068357944488525" lon="30.029261112213135">
        <time>2026-04-25T12:01:55Z</time>
      </trkpt>
      <trkpt lat="59.068357944488525" lon="30.029261112213135">
        <time>2026-04-25T12:01:58Z</time>
      </trkpt>
      <trkpt lat="59.068357944488525" lon="30.029261112213135">
        <time>2026-04-25T12:02:00Z</time>
      </trkpt>
      <trkpt lat="59.068357944488525" lon="30.029261112213135">
        <time>2026-04-25T12:02:03Z</time>
      </trkpt>
      <trkpt lat="59.068379402160645" lon="30.029282569885254">
        <time>2026-04-25T12:02:05Z</time>
      </trkpt>
      <trkpt lat="59.068400859832764" lon="30.029304027557373">
        <time>2026-04-25T12:02:08Z</time>
      </trkpt>
      <trkpt lat="59.068400859832764" lon="30.029325485229492">
        <time>2026-04-25T12:02:10Z</time>
      </trkpt>
      <trkpt lat="59.068400859832764" lon="30.029346942901611">
        <time>2026-04-25T12:02:13Z</time>
      </trkpt>
      <trkpt lat="59.068379402160645" lon="30.029304027557373">
        <time>2026-04-25T12:02:15Z</time>
      </trkpt>
      <trkpt lat="59.068379402160645" lon="30.029304027557373">
        <time>2026-04-25T12:02:18Z</time>
      </trkpt>
      <trkpt lat="59.068336486816406" lon="30.029282569885254">
        <time>2026-04-25T12:02:20Z</time>
      </trkpt>
      <trkpt lat="59.068315029144287" lon="30.029282569885254">
        <time>2026-04-25T12:02:23Z</time>
      </trkpt>
      <trkpt lat="59.06825065612793" lon="30.029304027557373">
        <time>2026-04-25T12:02:25Z</time>
      </trkpt>
      <trkpt lat="59.068207740783691" lon="30.029304027557373">
        <time>2026-04-25T12:02:28Z</time>
      </trkpt>
      <trkpt lat="59.068164825439453" lon="30.029304027557373">
        <time>2026-04-25T12:02:30Z</time>
      </trkpt>
      <trkpt lat="59.068121910095215" lon="30.029304027557373">
        <time>2026-04-25T12:02:33Z</time>
      </trkpt>
      <trkpt lat="59.068078994750977" lon="30.029304027557373">
        <time>2026-04-25T12:02:35Z</time>
      </trkpt>
      <trkpt lat="59.068078994750977" lon="30.029325485229492">
        <time>2026-04-25T12:02:38Z</time>
      </trkpt>
      <trkpt lat="59.068057537078857" lon="30.029346942901611">
        <time>2026-04-25T12:02:40Z</time>
      </trkpt>
      <trkpt lat="59.068057537078857" lon="30.029346942901611">
        <time>2026-04-25T12:02:43Z</time>
      </trkpt>
      <trkpt lat="59.068057537078857" lon="30.029346942901611">
        <time>2026-04-25T12:02:45Z</time>
      </trkpt>
      <trkpt lat="59.068057537078857" lon="30.029346942901611">
        <time>2026-04-25T12:02:48Z</time>
      </trkpt>
      <trkpt lat="59.068057537078857" lon="30.029346942901611">
        <time>2026-04-25T12:02:50Z</time>
      </trkpt>
      <trkpt lat="59.068057537078857" lon="30.029346942901611">
        <time>2026-04-25T12:02:53Z</time>
      </trkpt>
      <trkpt lat="59.068057537078857" lon="30.029346942901611">
        <time>2026-04-25T12:02:55Z</time>
      </trkpt>
      <trkpt lat="59.068057537078857" lon="30.029346942901611">
        <time>2026-04-25T12:02:58Z</time>
      </trkpt>
      <trkpt lat="59.068057537078857" lon="30.029346942901611">
        <time>2026-04-25T12:03:00Z</time>
      </trkpt>
      <trkpt lat="59.068057537078857" lon="30.029346942901611">
        <time>2026-04-25T12:03:03Z</time>
      </trkpt>
      <trkpt lat="59.068014621734619" lon="30.02936840057373">
        <time>2026-04-25T12:03:05Z</time>
      </trkpt>
      <trkpt lat="59.0679931640625" lon="30.02936840057373">
        <time>2026-04-25T12:03:08Z</time>
      </trkpt>
      <trkpt lat="59.067971706390381" lon="30.02936840057373">
        <time>2026-04-25T12:03:10Z</time>
      </trkpt>
      <trkpt lat="59.067950248718262" lon="30.02938985824585">
        <time>2026-04-25T12:03:13Z</time>
      </trkpt>
      <trkpt lat="59.067907333374023" lon="30.02938985824585">
        <time>2026-04-25T12:03:15Z</time>
      </trkpt>
      <trkpt lat="59.067885875701904" lon="30.029411315917969">
        <time>2026-04-25T12:03:18Z</time>
      </trkpt>
      <trkpt lat="59.067842960357666" lon="30.029432773590088">
        <time>2026-04-25T12:03:20Z</time>
      </trkpt>
      <trkpt lat="59.067821502685547" lon="30.029432773590088">
        <time>2026-04-25T12:03:23Z</time>
      </trkpt>
      <trkpt lat="59.067800045013428" lon="30.029454231262207">
        <time>2026-04-25T12:03:25Z</time>
      </trkpt>
      <trkpt lat="59.067778587341309" lon="30.029475688934326">
        <time>2026-04-25T12:03:28Z</time>
      </trkpt>
      <trkpt lat="59.067757129669189" lon="30.029454231262207">
        <time>2026-04-25T12:03:30Z</time>
      </trkpt>
      <trkpt lat="59.067714214324951" lon="30.029454231262207">
        <time>2026-04-25T12:03:33Z</time>
      </trkpt>
      <trkpt lat="59.067692756652832" lon="30.029454231262207">
        <time>2026-04-25T12:03:35Z</time>
      </trkpt>
      <trkpt lat="59.067692756652832" lon="30.029454231262207">
        <time>2026-04-25T12:03:38Z</time>
      </trkpt>
      <trkpt lat="59.067671298980713" lon="30.029475688934326">
        <time>2026-04-25T12:03:40Z</time>
      </trkpt>
      <trkpt lat="59.067628383636475" lon="30.029497146606445">
        <time>2026-04-25T12:03:43Z</time>
      </trkpt>
      <trkpt lat="59.067564010620117" lon="30.029518604278564">
        <time>2026-04-25T12:03:45Z</time>
      </trkpt>
      <trkpt lat="59.067542552947998" lon="30.029497146606445">
        <time>2026-04-25T12:03:48Z</time>
      </trkpt>
      <trkpt lat="59.067478179931641" lon="30.029540061950684">
        <time>2026-04-25T12:03:50Z</time>
      </trkpt>
      <trkpt lat="59.067456722259521" lon="30.029540061950684">
        <time>2026-04-25T12:03:53Z</time>
      </trkpt>
      <trkpt lat="59.067413806915283" lon="30.029540061950684">
        <time>2026-04-25T12:03:55Z</time>
      </trkpt>
      <trkpt lat="59.067392349243164" lon="30.029540061950684">
        <time>2026-04-25T12:03:58Z</time>
      </trkpt>
      <trkpt lat="59.067370891571045" lon="30.029561519622803">
        <time>2026-04-25T12:04:00Z</time>
      </trkpt>
      <trkpt lat="59.067370891571045" lon="30.029561519622803">
        <time>2026-04-25T12:04:03Z</time>
      </trkpt>
      <trkpt lat="59.067327976226807" lon="30.029582977294922">
        <time>2026-04-25T12:04:05Z</time>
      </trkpt>
      <trkpt lat="59.067306518554688" lon="30.029604434967041">
        <time>2026-04-25T12:04:08Z</time>
      </trkpt>
      <trkpt lat="59.067285060882568" lon="30.029604434967041">
        <time>2026-04-25T12:04:10Z</time>
      </trkpt>
      <trkpt lat="59.067263603210449" lon="30.029604434967041">
        <time>2026-04-25T12:04:13Z</time>
      </trkpt>
      <trkpt lat="59.06724214553833" lon="30.029582977294922">
        <time>2026-04-25T12:04:15Z</time>
      </trkpt>
      <trkpt lat="59.06724214553833" lon="30.029582977294922">
        <time>2026-04-25T12:04:18Z</time>
      </trkpt>
      <trkpt lat="59.067220687866211" lon="30.029604434967041">
        <time>2026-04-25T12:04:20Z</time>
      </trkpt>
      <trkpt lat="59.067220687866211" lon="30.02962589263916">
        <time>2026-04-25T12:04:23Z</time>
      </trkpt>
      <trkpt lat="59.067220687866211" lon="30.029647350311279">
        <time>2026-04-25T12:04:25Z</time>
      </trkpt>
      <trkpt lat="59.067220687866211" lon="30.029668807983398">
        <time>2026-04-25T12:04:28Z</time>
      </trkpt>
      <trkpt lat="59.067220687866211" lon="30.029647350311279">
        <time>2026-04-25T12:04:30Z</time>
      </trkpt>
      <trkpt lat="59.067199230194092" lon="30.029668807983398">
        <time>2026-04-25T12:04:33Z</time>
      </trkpt>
      <trkpt lat="59.067177772521973" lon="30.029711723327637">
        <time>2026-04-25T12:04:35Z</time>
      </trkpt>
      <trkpt lat="59.067156314849854" lon="30.029733180999756">
        <time>2026-04-25T12:04:38Z</time>
      </trkpt>
      <trkpt lat="59.067134857177734" lon="30.029733180999756">
        <time>2026-04-25T12:04:40Z</time>
      </trkpt>
      <trkpt lat="59.067113399505615" lon="30.029733180999756">
        <time>2026-04-25T12:04:43Z</time>
      </trkpt>
      <trkpt lat="59.067070484161377" lon="30.029711723327637">
        <time>2026-04-25T12:04:48Z</time>
      </trkpt>
      <trkpt lat="59.067049026489258" lon="30.029711723327637">
        <time>2026-04-25T12:04:50Z</time>
      </trkpt>
      <trkpt lat="59.067049026489258" lon="30.029733180999756">
        <time>2026-04-25T12:04:53Z</time>
      </trkpt>
      <trkpt lat="59.067049026489258" lon="30.029733180999756">
        <time>2026-04-25T12:04:55Z</time>
      </trkpt>
      <trkpt lat="59.067049026489258" lon="30.029733180999756">
        <time>2026-04-25T12:04:58Z</time>
      </trkpt>
      <trkpt lat="59.067027568817139" lon="30.029711723327637">
        <time>2026-04-25T12:05:00Z</time>
      </trkpt>
      <trkpt lat="59.06700611114502" lon="30.029733180999756">
        <time>2026-04-25T12:05:03Z</time>
      </trkpt>
      <trkpt lat="59.06700611114502" lon="30.029754638671875">
        <time>2026-04-25T12:05:05Z</time>
      </trkpt>
      <trkpt lat="59.06700611114502" lon="30.029754638671875">
        <time>2026-04-25T12:05:08Z</time>
      </trkpt>
      <trkpt lat="59.0669846534729" lon="30.029776096343994">
        <time>2026-04-25T12:05:10Z</time>
      </trkpt>
      <trkpt lat="59.0669846534729" lon="30.029776096343994">
        <time>2026-04-25T12:05:13Z</time>
      </trkpt>
      <trkpt lat="59.066963195800781" lon="30.029797554016113">
        <time>2026-04-25T12:05:15Z</time>
      </trkpt>
      <trkpt lat="59.066941738128662" lon="30.029797554016113">
        <time>2026-04-25T12:05:18Z</time>
      </trkpt>
      <trkpt lat="59.066898822784424" lon="30.029840469360352">
        <time>2026-04-25T12:05:20Z</time>
      </trkpt>
      <trkpt lat="59.066877365112305" lon="30.029861927032471">
        <time>2026-04-25T12:05:23Z</time>
      </trkpt>
      <trkpt lat="59.066834449768066" lon="30.029840469360352">
        <time>2026-04-25T12:05:25Z</time>
      </trkpt>
      <trkpt lat="59.066812992095947" lon="30.029819011688232">
        <time>2026-04-25T12:05:28Z</time>
      </trkpt>
      <trkpt lat="59.066812992095947" lon="30.029797554016113">
        <time>2026-04-25T12:05:30Z</time>
      </trkpt>
      <trkpt lat="59.066791534423828" lon="30.029776096343994">
        <time>2026-04-25T12:05:33Z</time>
      </trkpt>
      <trkpt lat="59.06674861907959" lon="30.029797554016113">
        <time>2026-04-25T12:05:35Z</time>
      </trkpt>
      <trkpt lat="59.066727161407471" lon="30.029797554016113">
        <time>2026-04-25T12:05:38Z</time>
      </trkpt>
      <trkpt lat="59.066705703735352" lon="30.029819011688232">
        <time>2026-04-25T12:05:40Z</time>
      </trkpt>
      <trkpt lat="59.066684246063232" lon="30.029840469360352">
        <time>2026-04-25T12:05:43Z</time>
      </trkpt>
      <trkpt lat="59.066641330718994" lon="30.029840469360352">
        <time>2026-04-25T12:05:45Z</time>
      </trkpt>
      <trkpt lat="59.066619873046875" lon="30.029840469360352">
        <time>2026-04-25T12:05:48Z</time>
      </trkpt>
      <trkpt lat="59.066555500030518" lon="30.02988338470459">
        <time>2026-04-25T12:05:50Z</time>
      </trkpt>
      <trkpt lat="59.066512584686279" lon="30.029861927032471">
        <time>2026-04-25T12:05:53Z</time>
      </trkpt>
      <trkpt lat="59.066512584686279" lon="30.029840469360352">
        <time>2026-04-25T12:05:55Z</time>
      </trkpt>
      <trkpt lat="59.066512584686279" lon="30.029861927032471">
        <time>2026-04-25T12:05:58Z</time>
      </trkpt>
      <trkpt lat="59.06649112701416" lon="30.029861927032471">
        <time>2026-04-25T12:06:00Z</time>
      </trkpt>
      <trkpt lat="59.066469669342041" lon="30.029861927032471">
        <time>2026-04-25T12:06:03Z</time>
      </trkpt>
      <trkpt lat="59.066469669342041" lon="30.02988338470459">
        <time>2026-04-25T12:06:05Z</time>
      </trkpt>
      <trkpt lat="59.066469669342041" lon="30.02988338470459">
        <time>2026-04-25T12:06:08Z</time>
      </trkpt>
      <trkpt lat="59.066448211669922" lon="30.02988338470459">
        <time>2026-04-25T12:06:10Z</time>
      </trkpt>
      <trkpt lat="59.066426753997803" lon="30.029904842376709">
        <time>2026-04-25T12:06:13Z</time>
      </trkpt>
      <trkpt lat="59.066405296325684" lon="30.029926300048828">
        <time>2026-04-25T12:06:15Z</time>
      </trkpt>
      <trkpt lat="59.066405296325684" lon="30.029926300048828">
        <time>2026-04-25T12:06:18Z</time>
      </trkpt>
      <trkpt lat="59.066405296325684" lon="30.029926300048828">
        <time>2026-04-25T12:06:20Z</time>
      </trkpt>
      <trkpt lat="59.066405296325684" lon="30.029926300048828">
        <time>2026-04-25T12:06:23Z</time>
      </trkpt>
      <trkpt lat="59.066405296325684" lon="30.029947757720947">
        <time>2026-04-25T12:06:25Z</time>
      </trkpt>
      <trkpt lat="59.066405296325684" lon="30.029947757720947">
        <time>2026-04-25T12:06:28Z</time>
      </trkpt>
      <trkpt lat="59.066383838653564" lon="30.029947757720947">
        <time>2026-04-25T12:06:30Z</time>
      </trkpt>
      <trkpt lat="59.066362380981445" lon="30.029969215393066">
        <time>2026-04-25T12:06:33Z</time>
      </trkpt>
      <trkpt lat="59.066340923309326" lon="30.029969215393066">
        <time>2026-04-25T12:06:35Z</time>
      </trkpt>
      <trkpt lat="59.066340923309326" lon="30.029969215393066">
        <time>2026-04-25T12:06:38Z</time>
      </trkpt>
      <trkpt lat="59.066340923309326" lon="30.029990673065186">
        <time>2026-04-25T12:06:40Z</time>
      </trkpt>
      <trkpt lat="59.066340923309326" lon="30.029969215393066">
        <time>2026-04-25T12:06:43Z</time>
      </trkpt>
      <trkpt lat="59.066362380981445" lon="30.029969215393066">
        <time>2026-04-25T12:06:45Z</time>
      </trkpt>
      <trkpt lat="59.066362380981445" lon="30.029926300048828">
        <time>2026-04-25T12:06:48Z</time>
      </trkpt>
      <trkpt lat="59.066426753997803" lon="30.02988338470459">
        <time>2026-04-25T12:06:50Z</time>
      </trkpt>
      <trkpt lat="59.066469669342041" lon="30.02988338470459">
        <time>2026-04-25T12:06:53Z</time>
      </trkpt>
      <trkpt lat="59.066512584686279" lon="30.02988338470459">
        <time>2026-04-25T12:06:55Z</time>
      </trkpt>
      <trkpt lat="59.066534042358398" lon="30.029904842376709">
        <time>2026-04-25T12:06:58Z</time>
      </trkpt>
      <trkpt lat="59.066555500030518" lon="30.029904842376709">
        <time>2026-04-25T12:07:00Z</time>
      </trkpt>
      <trkpt lat="59.066555500030518" lon="30.02988338470459">
        <time>2026-04-25T12:07:03Z</time>
      </trkpt>
      <trkpt lat="59.066576957702637" lon="30.029840469360352">
        <time>2026-04-25T12:07:05Z</time>
      </trkpt>
      <trkpt lat="59.066576957702637" lon="30.029797554016113">
        <time>2026-04-25T12:07:08Z</time>
      </trkpt>
      <trkpt lat="59.066619873046875" lon="30.029776096343994">
        <time>2026-04-25T12:07:10Z</time>
      </trkpt>
      <trkpt lat="59.066619873046875" lon="30.029754638671875">
        <time>2026-04-25T12:07:13Z</time>
      </trkpt>
      <trkpt lat="59.066641330718994" lon="30.029711723327637">
        <time>2026-04-25T12:07:15Z</time>
      </trkpt>
      <trkpt lat="59.066641330718994" lon="30.029668807983398">
        <time>2026-04-25T12:07:18Z</time>
      </trkpt>
      <trkpt lat="59.066662788391113" lon="30.029604434967041">
        <time>2026-04-25T12:07:20Z</time>
      </trkpt>
      <trkpt lat="59.066662788391113" lon="30.029582977294922">
        <time>2026-04-25T12:07:23Z</time>
      </trkpt>
      <trkpt lat="59.066641330718994" lon="30.029604434967041">
        <time>2026-04-25T12:07:25Z</time>
      </trkpt>
      <trkpt lat="59.066598415374756" lon="30.029647350311279">
        <time>2026-04-25T12:07:28Z</time>
      </trkpt>
      <trkpt lat="59.066555500030518" lon="30.029690265655518">
        <time>2026-04-25T12:07:30Z</time>
      </trkpt>
      <trkpt lat="59.066534042358398" lon="30.029711723327637">
        <time>2026-04-25T12:07:33Z</time>
      </trkpt>
      <trkpt lat="59.06649112701416" lon="30.029754638671875">
        <time>2026-04-25T12:07:35Z</time>
      </trkpt>
      <trkpt lat="59.06649112701416" lon="30.029733180999756">
        <time>2026-04-25T12:07:38Z</time>
      </trkpt>
      <trkpt lat="59.066469669342041" lon="30.029754638671875">
        <time>2026-04-25T12:07:40Z</time>
      </trkpt>
      <trkpt lat="59.066469669342041" lon="30.029754638671875">
        <time>2026-04-25T12:07:43Z</time>
      </trkpt>
      <trkpt lat="59.066469669342041" lon="30.029754638671875">
        <time>2026-04-25T12:07:45Z</time>
      </trkpt>
      <trkpt lat="59.066469669342041" lon="30.029754638671875">
        <time>2026-04-25T12:07:48Z</time>
      </trkpt>
      <trkpt lat="59.066469669342041" lon="30.029754638671875">
        <time>2026-04-25T12:07:50Z</time>
      </trkpt>
      <trkpt lat="59.066448211669922" lon="30.029754638671875">
        <time>2026-04-25T12:07:53Z</time>
      </trkpt>
      <trkpt lat="59.066426753997803" lon="30.029754638671875">
        <time>2026-04-25T12:07:55Z</time>
      </trkpt>
      <trkpt lat="59.066405296325684" lon="30.029776096343994">
        <time>2026-04-25T12:07:58Z</time>
      </trkpt>
      <trkpt lat="59.066383838653564" lon="30.029776096343994">
        <time>2026-04-25T12:08:00Z</time>
      </trkpt>
      <trkpt lat="59.066362380981445" lon="30.029776096343994">
        <time>2026-04-25T12:08:03Z</time>
      </trkpt>
      <trkpt lat="59.066340923309326" lon="30.029776096343994">
        <time>2026-04-25T12:08:05Z</time>
      </trkpt>
      <trkpt lat="59.066319465637207" lon="30.029797554016113">
        <time>2026-04-25T12:08:08Z</time>
      </trkpt>
      <trkpt lat="59.066319465637207" lon="30.029819011688232">
        <time>2026-04-25T12:08:10Z</time>
      </trkpt>
      <trkpt lat="59.066319465637207" lon="30.029819011688232">
        <time>2026-04-25T12:08:13Z</time>
      </trkpt>
      <trkpt lat="59.066319465637207" lon="30.029840469360352">
        <time>2026-04-25T12:08:15Z</time>
      </trkpt>
      <trkpt lat="59.066319465637207" lon="30.029840469360352">
        <time>2026-04-25T12:08:18Z</time>
      </trkpt>
      <trkpt lat="59.066319465637207" lon="30.029861927032471">
        <time>2026-04-25T12:08:20Z</time>
      </trkpt>
      <trkpt lat="59.066319465637207" lon="30.02988338470459">
        <time>2026-04-25T12:08:23Z</time>
      </trkpt>
      <trkpt lat="59.066298007965088" lon="30.029904842376709">
        <time>2026-04-25T12:08:25Z</time>
      </trkpt>
      <trkpt lat="59.066276550292969" lon="30.029904842376709">
        <time>2026-04-25T12:08:28Z</time>
      </trkpt>
      <trkpt lat="59.06625509262085" lon="30.029904842376709">
        <time>2026-04-25T12:08:30Z</time>
      </trkpt>
      <trkpt lat="59.06623363494873" lon="30.02988338470459">
        <time>2026-04-25T12:08:33Z</time>
      </trkpt>
      <trkpt lat="59.06623363494873" lon="30.02988338470459">
        <time>2026-04-25T12:08:35Z</time>
      </trkpt>
      <trkpt lat="59.06623363494873" lon="30.02988338470459">
        <time>2026-04-25T12:08:38Z</time>
      </trkpt>
      <trkpt lat="59.06623363494873" lon="30.02988338470459">
        <time>2026-04-25T12:08:40Z</time>
      </trkpt>
      <trkpt lat="59.06623363494873" lon="30.029861927032471">
        <time>2026-04-25T12:08:43Z</time>
      </trkpt>
      <trkpt lat="59.06623363494873" lon="30.02988338470459">
        <time>2026-04-25T12:08:45Z</time>
      </trkpt>
      <trkpt lat="59.066212177276611" lon="30.029904842376709">
        <time>2026-04-25T12:08:48Z</time>
      </trkpt>
      <trkpt lat="59.066190719604492" lon="30.029926300048828">
        <time>2026-04-25T12:08:50Z</time>
      </trkpt>
      <trkpt lat="59.066190719604492" lon="30.029926300048828">
        <time>2026-04-25T12:08:53Z</time>
      </trkpt>
      <trkpt lat="59.066147804260254" lon="30.029947757720947">
        <time>2026-04-25T12:08:55Z</time>
      </trkpt>
      <trkpt lat="59.066126346588135" lon="30.029947757720947">
        <time>2026-04-25T12:08:58Z</time>
      </trkpt>
      <trkpt lat="59.066104888916016" lon="30.029969215393066">
        <time>2026-04-25T12:09:00Z</time>
      </trkpt>
      <trkpt lat="59.066104888916016" lon="30.029969215393066">
        <time>2026-04-25T12:09:03Z</time>
      </trkpt>
      <trkpt lat="59.066083431243896" lon="30.029990673065186">
        <time>2026-04-25T12:09:05Z</time>
      </trkpt>
      <trkpt lat="59.066083431243896" lon="30.029990673065186">
        <time>2026-04-25T12:09:08Z</time>
      </trkpt>
      <trkpt lat="59.066061973571777" lon="30.030012130737305">
        <time>2026-04-25T12:09:10Z</time>
      </trkpt>
      <trkpt lat="59.066040515899658" lon="30.029990673065186">
        <time>2026-04-25T12:09:13Z</time>
      </trkpt>
      <trkpt lat="59.066019058227539" lon="30.029969215393066">
        <time>2026-04-25T12:09:15Z</time>
      </trkpt>
      <trkpt lat="59.066019058227539" lon="30.029947757720947">
        <time>2026-04-25T12:09:18Z</time>
      </trkpt>
      <trkpt lat="59.06599760055542" lon="30.029947757720947">
        <time>2026-04-25T12:09:20Z</time>
      </trkpt>
      <trkpt lat="59.066019058227539" lon="30.029947757720947">
        <time>2026-04-25T12:09:23Z</time>
      </trkpt>
      <trkpt lat="59.066019058227539" lon="30.029969215393066">
        <time>2026-04-25T12:09:25Z</time>
      </trkpt>
      <trkpt lat="59.06599760055542" lon="30.029969215393066">
        <time>2026-04-25T12:09:28Z</time>
      </trkpt>
      <trkpt lat="59.065976142883301" lon="30.030012130737305">
        <time>2026-04-25T12:09:30Z</time>
      </trkpt>
      <trkpt lat="59.065954685211182" lon="30.030055046081543">
        <time>2026-04-25T12:09:33Z</time>
      </trkpt>
      <trkpt lat="59.065933227539062" lon="30.030033588409424">
        <time>2026-04-25T12:09:35Z</time>
      </trkpt>
      <trkpt lat="59.065911769866943" lon="30.030033588409424">
        <time>2026-04-25T12:09:38Z</time>
      </trkpt>
      <trkpt lat="59.065890312194824" lon="30.030033588409424">
        <time>2026-04-25T12:09:40Z</time>
      </trkpt>
      <trkpt lat="59.065890312194824" lon="30.030055046081543">
        <time>2026-04-25T12:09:43Z</time>
      </trkpt>
      <trkpt lat="59.065868854522705" lon="30.030076503753662">
        <time>2026-04-25T12:09:45Z</time>
      </trkpt>
      <trkpt lat="59.065847396850586" lon="30.030076503753662">
        <time>2026-04-25T12:09:48Z</time>
      </trkpt>
      <trkpt lat="59.065825939178467" lon="30.030097961425781">
        <time>2026-04-25T12:09:50Z</time>
      </trkpt>
      <trkpt lat="59.065804481506348" lon="30.030097961425781">
        <time>2026-04-25T12:09:53Z</time>
      </trkpt>
      <trkpt lat="59.065783023834229" lon="30.030097961425781">
        <time>2026-04-25T12:09:55Z</time>
      </trkpt>
      <trkpt lat="59.065783023834229" lon="30.030076503753662">
        <time>2026-04-25T12:09:58Z</time>
      </trkpt>
      <trkpt lat="59.065783023834229" lon="30.030076503753662">
        <time>2026-04-25T12:10:00Z</time>
      </trkpt>
      <trkpt lat="59.065783023834229" lon="30.030076503753662">
        <time>2026-04-25T12:10:03Z</time>
      </trkpt>
      <trkpt lat="59.065783023834229" lon="30.030076503753662">
        <time>2026-04-25T12:10:05Z</time>
      </trkpt>
      <trkpt lat="59.065783023834229" lon="30.030055046081543">
        <time>2026-04-25T12:10:08Z</time>
      </trkpt>
      <trkpt lat="59.065783023834229" lon="30.030076503753662">
        <time>2026-04-25T12:10:10Z</time>
      </trkpt>
      <trkpt lat="59.065783023834229" lon="30.030076503753662">
        <time>2026-04-25T12:10:13Z</time>
      </trkpt>
      <trkpt lat="59.065761566162109" lon="30.030076503753662">
        <time>2026-04-25T12:10:15Z</time>
      </trkpt>
      <trkpt lat="59.065718650817871" lon="30.030097961425781">
        <time>2026-04-25T12:10:18Z</time>
      </trkpt>
      <trkpt lat="59.065697193145752" lon="30.03014087677002">
        <time>2026-04-25T12:10:20Z</time>
      </trkpt>
      <trkpt lat="59.065675735473633" lon="30.030162334442139">
        <time>2026-04-25T12:10:23Z</time>
      </trkpt>
      <trkpt lat="59.065654277801514" lon="30.030183792114258">
        <time>2026-04-25T12:10:25Z</time>
      </trkpt>
      <trkpt lat="59.065654277801514" lon="30.030183792114258">
        <time>2026-04-25T12:10:28Z</time>
      </trkpt>
      <trkpt lat="59.065632820129395" lon="30.030205249786377">
        <time>2026-04-25T12:10:30Z</time>
      </trkpt>
      <trkpt lat="59.065632820129395" lon="30.030183792114258">
        <time>2026-04-25T12:10:33Z</time>
      </trkpt>
      <trkpt lat="59.065611362457275" lon="30.030205249786377">
        <time>2026-04-25T12:10:35Z</time>
      </trkpt>
      <trkpt lat="59.065611362457275" lon="30.030205249786377">
        <time>2026-04-25T12:10:38Z</time>
      </trkpt>
      <trkpt lat="59.065589904785156" lon="30.030205249786377">
        <time>2026-04-25T12:10:40Z</time>
      </trkpt>
      <trkpt lat="59.065611362457275" lon="30.030205249786377">
        <time>2026-04-25T12:10:43Z</time>
      </trkpt>
      <trkpt lat="59.065611362457275" lon="30.030269622802734">
        <time>2026-04-25T12:10:45Z</time>
      </trkpt>
      <trkpt lat="59.065632820129395" lon="30.030291080474854">
        <time>2026-04-25T12:10:48Z</time>
      </trkpt>
      <trkpt lat="59.065654277801514" lon="30.030312538146973">
        <time>2026-04-25T12:10:50Z</time>
      </trkpt>
      <trkpt lat="59.065675735473633" lon="30.030333995819092">
        <time>2026-04-25T12:10:53Z</time>
      </trkpt>
      <trkpt lat="59.065697193145752" lon="30.030355453491211">
        <time>2026-04-25T12:10:55Z</time>
      </trkpt>
      <trkpt lat="59.065718650817871" lon="30.030355453491211">
        <time>2026-04-25T12:10:58Z</time>
      </trkpt>
      <trkpt lat="59.06574010848999" lon="30.030355453491211">
        <time>2026-04-25T12:11:00Z</time>
      </trkpt>
      <trkpt lat="59.06574010848999" lon="30.03037691116333">
        <time>2026-04-25T12:11:03Z</time>
      </trkpt>
      <trkpt lat="59.065783023834229" lon="30.030398368835449">
        <time>2026-04-25T12:11:05Z</time>
      </trkpt>
      <trkpt lat="59.065804481506348" lon="30.030462741851807">
        <time>2026-04-25T12:11:08Z</time>
      </trkpt>
      <trkpt lat="59.065825939178467" lon="30.030527114868164">
        <time>2026-04-25T12:11:10Z</time>
      </trkpt>
      <trkpt lat="59.065825939178467" lon="30.030591487884521">
        <time>2026-04-25T12:11:13Z</time>
      </trkpt>
      <trkpt lat="59.065804481506348" lon="30.030591487884521">
        <time>2026-04-25T12:11:15Z</time>
      </trkpt>
      <trkpt lat="59.065804481506348" lon="30.030591487884521">
        <time>2026-04-25T12:11:18Z</time>
      </trkpt>
      <trkpt lat="59.065783023834229" lon="30.030591487884521">
        <time>2026-04-25T12:11:20Z</time>
      </trkpt>
      <trkpt lat="59.065761566162109" lon="30.030570030212402">
        <time>2026-04-25T12:11:23Z</time>
      </trkpt>
      <trkpt lat="59.065718650817871" lon="30.030505657196045">
        <time>2026-04-25T12:11:25Z</time>
      </trkpt>
      <trkpt lat="59.065718650817871" lon="30.030441284179688">
        <time>2026-04-25T12:11:28Z</time>
      </trkpt>
      <trkpt lat="59.065697193145752" lon="30.030355453491211">
        <time>2026-04-25T12:11:30Z</time>
      </trkpt>
      <trkpt lat="59.065697193145752" lon="30.030333995819092">
        <time>2026-04-25T12:11:33Z</time>
      </trkpt>
      <trkpt lat="59.065718650817871" lon="30.030333995819092">
        <time>2026-04-25T12:11:35Z</time>
      </trkpt>
      <trkpt lat="59.06574010848999" lon="30.030333995819092">
        <time>2026-04-25T12:11:38Z</time>
      </trkpt>
      <trkpt lat="59.065804481506348" lon="30.030333995819092">
        <time>2026-04-25T12:11:40Z</time>
      </trkpt>
      <trkpt lat="59.065825939178467" lon="30.030333995819092">
        <time>2026-04-25T12:11:43Z</time>
      </trkpt>
      <trkpt lat="59.065868854522705" lon="30.030333995819092">
        <time>2026-04-25T12:11:45Z</time>
      </trkpt>
      <trkpt lat="59.065868854522705" lon="30.030333995819092">
        <time>2026-04-25T12:11:48Z</time>
      </trkpt>
      <trkpt lat="59.065868854522705" lon="30.030333995819092">
        <time>2026-04-25T12:11:50Z</time>
      </trkpt>
      <trkpt lat="59.065890312194824" lon="30.030333995819092">
        <time>2026-04-25T12:11:53Z</time>
      </trkpt>
      <trkpt lat="59.065890312194824" lon="30.030333995819092">
        <time>2026-04-25T12:11:55Z</time>
      </trkpt>
      <trkpt lat="59.065911769866943" lon="30.030312538146973">
        <time>2026-04-25T12:11:58Z</time>
      </trkpt>
      <trkpt lat="59.065933227539062" lon="30.030291080474854">
        <time>2026-04-25T12:12:00Z</time>
      </trkpt>
      <trkpt lat="59.065933227539062" lon="30.030248165130615">
        <time>2026-04-25T12:12:03Z</time>
      </trkpt>
      <trkpt lat="59.065954685211182" lon="30.030205249786377">
        <time>2026-04-25T12:12:05Z</time>
      </trkpt>
      <trkpt lat="59.065954685211182" lon="30.030162334442139">
        <time>2026-04-25T12:12:08Z</time>
      </trkpt>
      <trkpt lat="59.065976142883301" lon="30.03014087677002">
        <time>2026-04-25T12:12:10Z</time>
      </trkpt>
      <trkpt lat="59.065976142883301" lon="30.0301194190979">
        <time>2026-04-25T12:12:13Z</time>
      </trkpt>
      <trkpt lat="59.065976142883301" lon="30.0301194190979">
        <time>2026-04-25T12:12:15Z</time>
      </trkpt>
      <trkpt lat="59.065976142883301" lon="30.0301194190979">
        <time>2026-04-25T12:12:18Z</time>
      </trkpt>
      <trkpt lat="59.065976142883301" lon="30.030097961425781">
        <time>2026-04-25T12:12:20Z</time>
      </trkpt>
      <trkpt lat="59.065976142883301" lon="30.030097961425781">
        <time>2026-04-25T12:12:23Z</time>
      </trkpt>
      <trkpt lat="59.065976142883301" lon="30.030097961425781">
        <time>2026-04-25T12:12:25Z</time>
      </trkpt>
      <trkpt lat="59.065976142883301" lon="30.030097961425781">
        <time>2026-04-25T12:12:28Z</time>
      </trkpt>
      <trkpt lat="59.06599760055542" lon="30.030097961425781">
        <time>2026-04-25T12:12:30Z</time>
      </trkpt>
      <trkpt lat="59.065976142883301" lon="30.030097961425781">
        <time>2026-04-25T12:12:33Z</time>
      </trkpt>
      <trkpt lat="59.065976142883301" lon="30.030097961425781">
        <time>2026-04-25T12:12:35Z</time>
      </trkpt>
      <trkpt lat="59.065976142883301" lon="30.030097961425781">
        <time>2026-04-25T12:12:38Z</time>
      </trkpt>
      <trkpt lat="59.065976142883301" lon="30.030097961425781">
        <time>2026-04-25T12:12:40Z</time>
      </trkpt>
      <trkpt lat="59.065976142883301" lon="30.030097961425781">
        <time>2026-04-25T12:12:43Z</time>
      </trkpt>
      <trkpt lat="59.065976142883301" lon="30.030097961425781">
        <time>2026-04-25T12:12:45Z</time>
      </trkpt>
      <trkpt lat="59.06599760055542" lon="30.030055046081543">
        <time>2026-04-25T12:12:48Z</time>
      </trkpt>
      <trkpt lat="59.066083431243896" lon="30.030033588409424">
        <time>2026-04-25T12:12:50Z</time>
      </trkpt>
      <trkpt lat="59.066083431243896" lon="30.030012130737305">
        <time>2026-04-25T12:12:53Z</time>
      </trkpt>
      <trkpt lat="59.066104888916016" lon="30.029990673065186">
        <time>2026-04-25T12:12:55Z</time>
      </trkpt>
      <trkpt lat="59.066104888916016" lon="30.029969215393066">
        <time>2026-04-25T12:12:58Z</time>
      </trkpt>
      <trkpt lat="59.066104888916016" lon="30.029969215393066">
        <time>2026-04-25T12:13:00Z</time>
      </trkpt>
      <trkpt lat="59.066104888916016" lon="30.029969215393066">
        <time>2026-04-25T12:13:03Z</time>
      </trkpt>
      <trkpt lat="59.066104888916016" lon="30.029969215393066">
        <time>2026-04-25T12:13:05Z</time>
      </trkpt>
      <trkpt lat="59.066126346588135" lon="30.029969215393066">
        <time>2026-04-25T12:13:08Z</time>
      </trkpt>
      <trkpt lat="59.066126346588135" lon="30.029969215393066">
        <time>2026-04-25T12:13:10Z</time>
      </trkpt>
      <trkpt lat="59.066126346588135" lon="30.029969215393066">
        <time>2026-04-25T12:13:13Z</time>
      </trkpt>
      <trkpt lat="59.066126346588135" lon="30.029969215393066">
        <time>2026-04-25T12:13:15Z</time>
      </trkpt>
      <trkpt lat="59.066126346588135" lon="30.029969215393066">
        <time>2026-04-25T12:13:18Z</time>
      </trkpt>
      <trkpt lat="59.066126346588135" lon="30.029969215393066">
        <time>2026-04-25T12:13:20Z</time>
      </trkpt>
      <trkpt lat="59.066126346588135" lon="30.029969215393066">
        <time>2026-04-25T12:13:23Z</time>
      </trkpt>
      <trkpt lat="59.066126346588135" lon="30.029969215393066">
        <time>2026-04-25T12:13:25Z</time>
      </trkpt>
      <trkpt lat="59.066126346588135" lon="30.029969215393066">
        <time>2026-04-25T12:13:28Z</time>
      </trkpt>
      <trkpt lat="59.066126346588135" lon="30.029969215393066">
        <time>2026-04-25T12:13:30Z</time>
      </trkpt>
      <trkpt lat="59.066126346588135" lon="30.029969215393066">
        <time>2026-04-25T12:13:33Z</time>
      </trkpt>
      <trkpt lat="59.066126346588135" lon="30.029969215393066">
        <time>2026-04-25T12:13:35Z</time>
      </trkpt>
      <trkpt lat="59.066126346588135" lon="30.029969215393066">
        <time>2026-04-25T12:13:38Z</time>
      </trkpt>
      <trkpt lat="59.066104888916016" lon="30.029990673065186">
        <time>2026-04-25T12:13:40Z</time>
      </trkpt>
      <trkpt lat="59.066061973571777" lon="30.030033588409424">
        <time>2026-04-25T12:13:43Z</time>
      </trkpt>
      <trkpt lat="59.06599760055542" lon="30.0301194190979">
        <time>2026-04-25T12:13:45Z</time>
      </trkpt>
      <trkpt lat="59.066019058227539" lon="30.030097961425781">
        <time>2026-04-25T12:13:48Z</time>
      </trkpt>
      <trkpt lat="59.066040515899658" lon="30.030076503753662">
        <time>2026-04-25T12:13:50Z</time>
      </trkpt>
      <trkpt lat="59.066040515899658" lon="30.030076503753662">
        <time>2026-04-25T12:13:53Z</time>
      </trkpt>
      <trkpt lat="59.06599760055542" lon="30.030097961425781">
        <time>2026-04-25T12:13:55Z</time>
      </trkpt>
      <trkpt lat="59.065954685211182" lon="30.0301194190979">
        <time>2026-04-25T12:13:58Z</time>
      </trkpt>
      <trkpt lat="59.065954685211182" lon="30.03014087677002">
        <time>2026-04-25T12:14:00Z</time>
      </trkpt>
      <trkpt lat="59.065976142883301" lon="30.0301194190979">
        <time>2026-04-25T12:14:03Z</time>
      </trkpt>
      <trkpt lat="59.065976142883301" lon="30.030097961425781">
        <time>2026-04-25T12:14:05Z</time>
      </trkpt>
      <trkpt lat="59.06599760055542" lon="30.030097961425781">
        <time>2026-04-25T12:14:08Z</time>
      </trkpt>
      <trkpt lat="59.06599760055542" lon="30.030097961425781">
        <time>2026-04-25T12:14:10Z</time>
      </trkpt>
      <trkpt lat="59.06599760055542" lon="30.0301194190979">
        <time>2026-04-25T12:14:13Z</time>
      </trkpt>
      <trkpt lat="59.06599760055542" lon="30.0301194190979">
        <time>2026-04-25T12:14:15Z</time>
      </trkpt>
      <trkpt lat="59.065976142883301" lon="30.0301194190979">
        <time>2026-04-25T12:14:18Z</time>
      </trkpt>
      <trkpt lat="59.065976142883301" lon="30.0301194190979">
        <time>2026-04-25T12:14:20Z</time>
      </trkpt>
      <trkpt lat="59.065976142883301" lon="30.0301194190979">
        <time>2026-04-25T12:14:23Z</time>
      </trkpt>
      <trkpt lat="59.065976142883301" lon="30.0301194190979">
        <time>2026-04-25T12:14:25Z</time>
      </trkpt>
      <trkpt lat="59.065976142883301" lon="30.0301194190979">
        <time>2026-04-25T12:14:28Z</time>
      </trkpt>
      <trkpt lat="59.065976142883301" lon="30.030097961425781">
        <time>2026-04-25T12:14:30Z</time>
      </trkpt>
      <trkpt lat="59.065976142883301" lon="30.030097961425781">
        <time>2026-04-25T12:14:33Z</time>
      </trkpt>
      <trkpt lat="59.065976142883301" lon="30.0301194190979">
        <time>2026-04-25T12:14:35Z</time>
      </trkpt>
      <trkpt lat="59.065976142883301" lon="30.03014087677002">
        <time>2026-04-25T12:14:38Z</time>
      </trkpt>
      <trkpt lat="59.065954685211182" lon="30.030162334442139">
        <time>2026-04-25T12:14:40Z</time>
      </trkpt>
      <trkpt lat="59.065954685211182" lon="30.030162334442139">
        <time>2026-04-25T12:14:43Z</time>
      </trkpt>
      <trkpt lat="59.065933227539062" lon="30.030162334442139">
        <time>2026-04-25T12:14:45Z</time>
      </trkpt>
      <trkpt lat="59.065954685211182" lon="30.03014087677002">
        <time>2026-04-25T12:14:48Z</time>
      </trkpt>
      <trkpt lat="59.065976142883301" lon="30.0301194190979">
        <time>2026-04-25T12:14:50Z</time>
      </trkpt>
      <trkpt lat="59.065976142883301" lon="30.0301194190979">
        <time>2026-04-25T12:14:53Z</time>
      </trkpt>
      <trkpt lat="59.065976142883301" lon="30.0301194190979">
        <time>2026-04-25T12:14:55Z</time>
      </trkpt>
      <trkpt lat="59.065976142883301" lon="30.0301194190979">
        <time>2026-04-25T12:14:58Z</time>
      </trkpt>
      <trkpt lat="59.065976142883301" lon="30.0301194190979">
        <time>2026-04-25T12:15:00Z</time>
      </trkpt>
      <trkpt lat="59.065976142883301" lon="30.03014087677002">
        <time>2026-04-25T12:15:03Z</time>
      </trkpt>
      <trkpt lat="59.065976142883301" lon="30.03014087677002">
        <time>2026-04-25T12:15:05Z</time>
      </trkpt>
      <trkpt lat="59.065976142883301" lon="30.03014087677002">
        <time>2026-04-25T12:15:08Z</time>
      </trkpt>
      <trkpt lat="59.065976142883301" lon="30.03014087677002">
        <time>2026-04-25T12:15:10Z</time>
      </trkpt>
      <trkpt lat="59.065976142883301" lon="30.03014087677002">
        <time>2026-04-25T12:15:13Z</time>
      </trkpt>
      <trkpt lat="59.065976142883301" lon="30.03014087677002">
        <time>2026-04-25T12:15:15Z</time>
      </trkpt>
      <trkpt lat="59.065976142883301" lon="30.03014087677002">
        <time>2026-04-25T12:15:18Z</time>
      </trkpt>
      <trkpt lat="59.065976142883301" lon="30.03014087677002">
        <time>2026-04-25T12:15:20Z</time>
      </trkpt>
      <trkpt lat="59.065976142883301" lon="30.03014087677002">
        <time>2026-04-25T12:15:23Z</time>
      </trkpt>
      <trkpt lat="59.065976142883301" lon="30.03014087677002">
        <time>2026-04-25T12:15:25Z</time>
      </trkpt>
      <trkpt lat="59.065976142883301" lon="30.03014087677002">
        <time>2026-04-25T12:15:28Z</time>
      </trkpt>
      <trkpt lat="59.065976142883301" lon="30.0301194190979">
        <time>2026-04-25T12:15:30Z</time>
      </trkpt>
      <trkpt lat="59.065976142883301" lon="30.0301194190979">
        <time>2026-04-25T12:15:33Z</time>
      </trkpt>
      <trkpt lat="59.065976142883301" lon="30.0301194190979">
        <time>2026-04-25T12:15:35Z</time>
      </trkpt>
      <trkpt lat="59.065976142883301" lon="30.0301194190979">
        <time>2026-04-25T12:15:38Z</time>
      </trkpt>
      <trkpt lat="59.065976142883301" lon="30.0301194190979">
        <time>2026-04-25T12:15:40Z</time>
      </trkpt>
      <trkpt lat="59.065976142883301" lon="30.0301194190979">
        <time>2026-04-25T12:15:43Z</time>
      </trkpt>
      <trkpt lat="59.065976142883301" lon="30.0301194190979">
        <time>2026-04-25T12:15:45Z</time>
      </trkpt>
      <trkpt lat="59.065976142883301" lon="30.0301194190979">
        <time>2026-04-25T12:15:48Z</time>
      </trkpt>
      <trkpt lat="59.065976142883301" lon="30.0301194190979">
        <time>2026-04-25T12:15:50Z</time>
      </trkpt>
      <trkpt lat="59.065976142883301" lon="30.0301194190979">
        <time>2026-04-25T12:15:53Z</time>
      </trkpt>
      <trkpt lat="59.065976142883301" lon="30.0301194190979">
        <time>2026-04-25T12:15:55Z</time>
      </trkpt>
      <trkpt lat="59.065976142883301" lon="30.0301194190979">
        <time>2026-04-25T12:15:58Z</time>
      </trkpt>
      <trkpt lat="59.065976142883301" lon="30.0301194190979">
        <time>2026-04-25T12:16:00Z</time>
      </trkpt>
      <trkpt lat="59.065976142883301" lon="30.0301194190979">
        <time>2026-04-25T12:16:03Z</time>
      </trkpt>
      <trkpt lat="59.065976142883301" lon="30.0301194190979">
        <time>2026-04-25T12:16:05Z</time>
      </trkpt>
      <trkpt lat="59.065976142883301" lon="30.0301194190979">
        <time>2026-04-25T12:16:08Z</time>
      </trkpt>
      <trkpt lat="59.065976142883301" lon="30.0301194190979">
        <time>2026-04-25T12:16:10Z</time>
      </trkpt>
      <trkpt lat="59.065976142883301" lon="30.0301194190979">
        <time>2026-04-25T12:16:13Z</time>
      </trkpt>
      <trkpt lat="59.065976142883301" lon="30.0301194190979">
        <time>2026-04-25T12:16:15Z</time>
      </trkpt>
      <trkpt lat="59.065976142883301" lon="30.0301194190979">
        <time>2026-04-25T12:16:18Z</time>
      </trkpt>
      <trkpt lat="59.065976142883301" lon="30.0301194190979">
        <time>2026-04-25T12:16:20Z</time>
      </trkpt>
      <trkpt lat="59.065976142883301" lon="30.0301194190979">
        <time>2026-04-25T12:16:23Z</time>
      </trkpt>
      <trkpt lat="59.065976142883301" lon="30.0301194190979">
        <time>2026-04-25T12:16:25Z</time>
      </trkpt>
      <trkpt lat="59.065976142883301" lon="30.0301194190979">
        <time>2026-04-25T12:16:28Z</time>
      </trkpt>
      <trkpt lat="59.065976142883301" lon="30.0301194190979">
        <time>2026-04-25T12:16:30Z</time>
      </trkpt>
      <trkpt lat="59.065976142883301" lon="30.0301194190979">
        <time>2026-04-25T12:16:33Z</time>
      </trkpt>
      <trkpt lat="59.065976142883301" lon="30.0301194190979">
        <time>2026-04-25T12:16:35Z</time>
      </trkpt>
      <trkpt lat="59.06599760055542" lon="30.0301194190979">
        <time>2026-04-25T12:16:38Z</time>
      </trkpt>
      <trkpt lat="59.06599760055542" lon="30.0301194190979">
        <time>2026-04-25T12:16:40Z</time>
      </trkpt>
      <trkpt lat="59.06599760055542" lon="30.0301194190979">
        <time>2026-04-25T12:16:43Z</time>
      </trkpt>
      <trkpt lat="59.06599760055542" lon="30.0301194190979">
        <time>2026-04-25T12:16:45Z</time>
      </trkpt>
      <trkpt lat="59.06599760055542" lon="30.0301194190979">
        <time>2026-04-25T12:16:48Z</time>
      </trkpt>
      <trkpt lat="59.06599760055542" lon="30.0301194190979">
        <time>2026-04-25T12:16:50Z</time>
      </trkpt>
      <trkpt lat="59.06599760055542" lon="30.0301194190979">
        <time>2026-04-25T12:16:53Z</time>
      </trkpt>
      <trkpt lat="59.06599760055542" lon="30.030097961425781">
        <time>2026-04-25T12:16:55Z</time>
      </trkpt>
      <trkpt lat="59.06599760055542" lon="30.030097961425781">
        <time>2026-04-25T12:16:58Z</time>
      </trkpt>
      <trkpt lat="59.06599760055542" lon="30.030097961425781">
        <time>2026-04-25T12:17:00Z</time>
      </trkpt>
      <trkpt lat="59.06599760055542" lon="30.030097961425781">
        <time>2026-04-25T12:17:03Z</time>
      </trkpt>
      <trkpt lat="59.06599760055542" lon="30.030097961425781">
        <time>2026-04-25T12:17:05Z</time>
      </trkpt>
      <trkpt lat="59.06599760055542" lon="30.030097961425781">
        <time>2026-04-25T12:17:08Z</time>
      </trkpt>
      <trkpt lat="59.06599760055542" lon="30.030097961425781">
        <time>2026-04-25T12:17:10Z</time>
      </trkpt>
      <trkpt lat="59.06599760055542" lon="30.030097961425781">
        <time>2026-04-25T12:17:13Z</time>
      </trkpt>
      <trkpt lat="59.06599760055542" lon="30.030097961425781">
        <time>2026-04-25T12:17:15Z</time>
      </trkpt>
      <trkpt lat="59.06599760055542" lon="30.030097961425781">
        <time>2026-04-25T12:17:18Z</time>
      </trkpt>
      <trkpt lat="59.06599760055542" lon="30.030097961425781">
        <time>2026-04-25T12:17:20Z</time>
      </trkpt>
      <trkpt lat="59.06599760055542" lon="30.030097961425781">
        <time>2026-04-25T12:17:23Z</time>
      </trkpt>
      <trkpt lat="59.06599760055542" lon="30.030097961425781">
        <time>2026-04-25T12:17:25Z</time>
      </trkpt>
      <trkpt lat="59.06599760055542" lon="30.030097961425781">
        <time>2026-04-25T12:17:28Z</time>
      </trkpt>
      <trkpt lat="59.06599760055542" lon="30.030097961425781">
        <time>2026-04-25T12:17:30Z</time>
      </trkpt>
      <trkpt lat="59.06599760055542" lon="30.030097961425781">
        <time>2026-04-25T12:17:33Z</time>
      </trkpt>
      <trkpt lat="59.06599760055542" lon="30.030076503753662">
        <time>2026-04-25T12:17:35Z</time>
      </trkpt>
      <trkpt lat="59.06599760055542" lon="30.030076503753662">
        <time>2026-04-25T12:17:38Z</time>
      </trkpt>
      <trkpt lat="59.06599760055542" lon="30.030076503753662">
        <time>2026-04-25T12:17:40Z</time>
      </trkpt>
      <trkpt lat="59.06599760055542" lon="30.030076503753662">
        <time>2026-04-25T12:17:43Z</time>
      </trkpt>
      <trkpt lat="59.06599760055542" lon="30.030076503753662">
        <time>2026-04-25T12:17:45Z</time>
      </trkpt>
      <trkpt lat="59.06599760055542" lon="30.030076503753662">
        <time>2026-04-25T12:17:48Z</time>
      </trkpt>
      <trkpt lat="59.06599760055542" lon="30.030076503753662">
        <time>2026-04-25T12:17:50Z</time>
      </trkpt>
      <trkpt lat="59.06599760055542" lon="30.030076503753662">
        <time>2026-04-25T12:17:53Z</time>
      </trkpt>
      <trkpt lat="59.06599760055542" lon="30.030076503753662">
        <time>2026-04-25T12:17:55Z</time>
      </trkpt>
      <trkpt lat="59.06599760055542" lon="30.030076503753662">
        <time>2026-04-25T12:17:58Z</time>
      </trkpt>
      <trkpt lat="59.06599760055542" lon="30.030076503753662">
        <time>2026-04-25T12:18:00Z</time>
      </trkpt>
      <trkpt lat="59.06599760055542" lon="30.030076503753662">
        <time>2026-04-25T12:18:03Z</time>
      </trkpt>
      <trkpt lat="59.065976142883301" lon="30.030097961425781">
        <time>2026-04-25T12:18:05Z</time>
      </trkpt>
      <trkpt lat="59.065976142883301" lon="30.0301194190979">
        <time>2026-04-25T12:18:08Z</time>
      </trkpt>
      <trkpt lat="59.065976142883301" lon="30.03014087677002">
        <time>2026-04-25T12:18:10Z</time>
      </trkpt>
      <trkpt lat="59.065954685211182" lon="30.03014087677002">
        <time>2026-04-25T12:18:13Z</time>
      </trkpt>
      <trkpt lat="59.065954685211182" lon="30.03014087677002">
        <time>2026-04-25T12:18:15Z</time>
      </trkpt>
      <trkpt lat="59.065933227539062" lon="30.03014087677002">
        <time>2026-04-25T12:18:18Z</time>
      </trkpt>
      <trkpt lat="59.065933227539062" lon="30.03014087677002">
        <time>2026-04-25T12:18:20Z</time>
      </trkpt>
      <trkpt lat="59.065911769866943" lon="30.03014087677002">
        <time>2026-04-25T12:18:23Z</time>
      </trkpt>
      <trkpt lat="59.065911769866943" lon="30.030097961425781">
        <time>2026-04-25T12:18:25Z</time>
      </trkpt>
      <trkpt lat="59.065911769866943" lon="30.030076503753662">
        <time>2026-04-25T12:18:28Z</time>
      </trkpt>
      <trkpt lat="59.065890312194824" lon="30.030076503753662">
        <time>2026-04-25T12:18:30Z</time>
      </trkpt>
      <trkpt lat="59.065868854522705" lon="30.030097961425781">
        <time>2026-04-25T12:18:33Z</time>
      </trkpt>
      <trkpt lat="59.065847396850586" lon="30.030097961425781">
        <time>2026-04-25T12:18:35Z</time>
      </trkpt>
      <trkpt lat="59.065825939178467" lon="30.030097961425781">
        <time>2026-04-25T12:18:38Z</time>
      </trkpt>
      <trkpt lat="59.065804481506348" lon="30.0301194190979">
        <time>2026-04-25T12:18:40Z</time>
      </trkpt>
      <trkpt lat="59.065783023834229" lon="30.0301194190979">
        <time>2026-04-25T12:18:43Z</time>
      </trkpt>
      <trkpt lat="59.06574010848999" lon="30.0301194190979">
        <time>2026-04-25T12:18:45Z</time>
      </trkpt>
      <trkpt lat="59.06574010848999" lon="30.03014087677002">
        <time>2026-04-25T12:18:48Z</time>
      </trkpt>
      <trkpt lat="59.065697193145752" lon="30.03014087677002">
        <time>2026-04-25T12:18:50Z</time>
      </trkpt>
      <trkpt lat="59.065675735473633" lon="30.030162334442139">
        <time>2026-04-25T12:18:53Z</time>
      </trkpt>
      <trkpt lat="59.065654277801514" lon="30.030183792114258">
        <time>2026-04-25T12:18:55Z</time>
      </trkpt>
      <trkpt lat="59.065632820129395" lon="30.030205249786377">
        <time>2026-04-25T12:18:58Z</time>
      </trkpt>
      <trkpt lat="59.065589904785156" lon="30.030226707458496">
        <time>2026-04-25T12:19:00Z</time>
      </trkpt>
      <trkpt lat="59.065568447113037" lon="30.030226707458496">
        <time>2026-04-25T12:19:03Z</time>
      </trkpt>
      <trkpt lat="59.065525531768799" lon="30.030226707458496">
        <time>2026-04-25T12:19:05Z</time>
      </trkpt>
      <trkpt lat="59.06550407409668" lon="30.030248165130615">
        <time>2026-04-25T12:19:08Z</time>
      </trkpt>
      <trkpt lat="59.065482616424561" lon="30.030269622802734">
        <time>2026-04-25T12:19:10Z</time>
      </trkpt>
      <trkpt lat="59.065482616424561" lon="30.030269622802734">
        <time>2026-04-25T12:19:13Z</time>
      </trkpt>
      <trkpt lat="59.065482616424561" lon="30.030269622802734">
        <time>2026-04-25T12:19:15Z</time>
      </trkpt>
      <trkpt lat="59.065461158752441" lon="30.030291080474854">
        <time>2026-04-25T12:19:18Z</time>
      </trkpt>
      <trkpt lat="59.065418243408203" lon="30.030291080474854">
        <time>2026-04-25T12:19:20Z</time>
      </trkpt>
      <trkpt lat="59.065375328063965" lon="30.030291080474854">
        <time>2026-04-25T12:19:23Z</time>
      </trkpt>
      <trkpt lat="59.065353870391846" lon="30.030291080474854">
        <time>2026-04-25T12:19:25Z</time>
      </trkpt>
      <trkpt lat="59.065332412719727" lon="30.030312538146973">
        <time>2026-04-25T12:19:28Z</time>
      </trkpt>
      <trkpt lat="59.065310955047607" lon="30.030312538146973">
        <time>2026-04-25T12:19:30Z</time>
      </trkpt>
      <trkpt lat="59.065289497375488" lon="30.030333995819092">
        <time>2026-04-25T12:19:33Z</time>
      </trkpt>
      <trkpt lat="59.06524658203125" lon="30.030333995819092">
        <time>2026-04-25T12:19:35Z</time>
      </trkpt>
      <trkpt lat="59.065225124359131" lon="30.030333995819092">
        <time>2026-04-25T12:19:38Z</time>
      </trkpt>
      <trkpt lat="59.065160751342773" lon="30.030333995819092">
        <time>2026-04-25T12:19:40Z</time>
      </trkpt>
      <trkpt lat="59.065139293670654" lon="30.030355453491211">
        <time>2026-04-25T12:19:43Z</time>
      </trkpt>
      <trkpt lat="59.065117835998535" lon="30.030355453491211">
        <time>2026-04-25T12:19:45Z</time>
      </trkpt>
      <trkpt lat="59.065096378326416" lon="30.03037691116333">
        <time>2026-04-25T12:19:48Z</time>
      </trkpt>
      <trkpt lat="59.065074920654297" lon="30.03037691116333">
        <time>2026-04-25T12:19:50Z</time>
      </trkpt>
      <trkpt lat="59.065032005310059" lon="30.03037691116333">
        <time>2026-04-25T12:19:53Z</time>
      </trkpt>
      <trkpt lat="59.065010547637939" lon="30.03037691116333">
        <time>2026-04-25T12:19:55Z</time>
      </trkpt>
      <trkpt lat="59.065010547637939" lon="30.030398368835449">
        <time>2026-04-25T12:19:58Z</time>
      </trkpt>
      <trkpt lat="59.06498908996582" lon="30.030419826507568">
        <time>2026-04-25T12:20:00Z</time>
      </trkpt>
      <trkpt lat="59.064967632293701" lon="30.030398368835449">
        <time>2026-04-25T12:20:03Z</time>
      </trkpt>
      <trkpt lat="59.064967632293701" lon="30.030419826507568">
        <time>2026-04-25T12:20:05Z</time>
      </trkpt>
      <trkpt lat="59.064967632293701" lon="30.030398368835449">
        <time>2026-04-25T12:20:08Z</time>
      </trkpt>
      <trkpt lat="59.064967632293701" lon="30.030398368835449">
        <time>2026-04-25T12:20:10Z</time>
      </trkpt>
      <trkpt lat="59.064946174621582" lon="30.030398368835449">
        <time>2026-04-25T12:20:13Z</time>
      </trkpt>
      <trkpt lat="59.064946174621582" lon="30.030398368835449">
        <time>2026-04-25T12:20:15Z</time>
      </trkpt>
      <trkpt lat="59.064946174621582" lon="30.030398368835449">
        <time>2026-04-25T12:20:18Z</time>
      </trkpt>
      <trkpt lat="59.064946174621582" lon="30.030398368835449">
        <time>2026-04-25T12:20:20Z</time>
      </trkpt>
      <trkpt lat="59.064946174621582" lon="30.030398368835449">
        <time>2026-04-25T12:20:23Z</time>
      </trkpt>
      <trkpt lat="59.064946174621582" lon="30.030398368835449">
        <time>2026-04-25T12:20:25Z</time>
      </trkpt>
      <trkpt lat="59.064946174621582" lon="30.03037691116333">
        <time>2026-04-25T12:20:28Z</time>
      </trkpt>
      <trkpt lat="59.064946174621582" lon="30.03037691116333">
        <time>2026-04-25T12:20:30Z</time>
      </trkpt>
      <trkpt lat="59.064946174621582" lon="30.03037691116333">
        <time>2026-04-25T12:20:33Z</time>
      </trkpt>
      <trkpt lat="59.064924716949463" lon="30.03037691116333">
        <time>2026-04-25T12:20:35Z</time>
      </trkpt>
      <trkpt lat="59.064881801605225" lon="30.030398368835449">
        <time>2026-04-25T12:20:38Z</time>
      </trkpt>
      <trkpt lat="59.064860343933105" lon="30.030419826507568">
        <time>2026-04-25T12:20:40Z</time>
      </trkpt>
      <trkpt lat="59.064838886260986" lon="30.030419826507568">
        <time>2026-04-25T12:20:43Z</time>
      </trkpt>
      <trkpt lat="59.064795970916748" lon="30.030419826507568">
        <time>2026-04-25T12:20:45Z</time>
      </trkpt>
      <trkpt lat="59.064774513244629" lon="30.030441284179688">
        <time>2026-04-25T12:20:48Z</time>
      </trkpt>
      <trkpt lat="59.06475305557251" lon="30.030462741851807">
        <time>2026-04-25T12:20:50Z</time>
      </trkpt>
      <trkpt lat="59.064731597900391" lon="30.030462741851807">
        <time>2026-04-25T12:20:53Z</time>
      </trkpt>
      <trkpt lat="59.064688682556152" lon="30.030462741851807">
        <time>2026-04-25T12:20:55Z</time>
      </trkpt>
      <trkpt lat="59.064667224884033" lon="30.030484199523926">
        <time>2026-04-25T12:20:58Z</time>
      </trkpt>
      <trkpt lat="59.064624309539795" lon="30.030505657196045">
        <time>2026-04-25T12:21:00Z</time>
      </trkpt>
      <trkpt lat="59.064602851867676" lon="30.030527114868164">
        <time>2026-04-25T12:21:03Z</time>
      </trkpt>
      <trkpt lat="59.064581394195557" lon="30.030527114868164">
        <time>2026-04-25T12:21:05Z</time>
      </trkpt>
      <trkpt lat="59.064559936523438" lon="30.030527114868164">
        <time>2026-04-25T12:21:08Z</time>
      </trkpt>
      <trkpt lat="59.064538478851318" lon="30.030527114868164">
        <time>2026-04-25T12:21:10Z</time>
      </trkpt>
      <trkpt lat="59.064517021179199" lon="30.030527114868164">
        <time>2026-04-25T12:21:13Z</time>
      </trkpt>
      <trkpt lat="59.064474105834961" lon="30.030548572540283">
        <time>2026-04-25T12:21:15Z</time>
      </trkpt>
      <trkpt lat="59.064452648162842" lon="30.030570030212402">
        <time>2026-04-25T12:21:18Z</time>
      </trkpt>
      <trkpt lat="59.064431190490723" lon="30.030591487884521">
        <time>2026-04-25T12:21:20Z</time>
      </trkpt>
      <trkpt lat="59.064431190490723" lon="30.030591487884521">
        <time>2026-04-25T12:21:23Z</time>
      </trkpt>
      <trkpt lat="59.064409732818604" lon="30.030612945556641">
        <time>2026-04-25T12:21:25Z</time>
      </trkpt>
      <trkpt lat="59.064388275146484" lon="30.030612945556641">
        <time>2026-04-25T12:21:28Z</time>
      </trkpt>
      <trkpt lat="59.064388275146484" lon="30.030612945556641">
        <time>2026-04-25T12:21:30Z</time>
      </trkpt>
      <trkpt lat="59.064366817474365" lon="30.030612945556641">
        <time>2026-04-25T12:21:33Z</time>
      </trkpt>
      <trkpt lat="59.064345359802246" lon="30.030612945556641">
        <time>2026-04-25T12:21:35Z</time>
      </trkpt>
      <trkpt lat="59.064323902130127" lon="30.030612945556641">
        <time>2026-04-25T12:21:38Z</time>
      </trkpt>
      <trkpt lat="59.064280986785889" lon="30.030612945556641">
        <time>2026-04-25T12:21:40Z</time>
      </trkpt>
      <trkpt lat="59.064280986785889" lon="30.030612945556641">
        <time>2026-04-25T12:21:43Z</time>
      </trkpt>
      <trkpt lat="59.06425952911377" lon="30.03063440322876">
        <time>2026-04-25T12:21:45Z</time>
      </trkpt>
      <trkpt lat="59.06423807144165" lon="30.030655860900879">
        <time>2026-04-25T12:21:48Z</time>
      </trkpt>
      <trkpt lat="59.064216613769531" lon="30.030677318572998">
        <time>2026-04-25T12:21:50Z</time>
      </trkpt>
      <trkpt lat="59.064195156097412" lon="30.030698776245117">
        <time>2026-04-25T12:21:53Z</time>
      </trkpt>
      <trkpt lat="59.064173698425293" lon="30.030677318572998">
        <time>2026-04-25T12:21:55Z</time>
      </trkpt>
      <trkpt lat="59.064152240753174" lon="30.030655860900879">
        <time>2026-04-25T12:21:58Z</time>
      </trkpt>
      <trkpt lat="59.064130783081055" lon="30.030655860900879">
        <time>2026-04-25T12:22:00Z</time>
      </trkpt>
      <trkpt lat="59.064109325408936" lon="30.03063440322876">
        <time>2026-04-25T12:22:03Z</time>
      </trkpt>
      <trkpt lat="59.064087867736816" lon="30.030655860900879">
        <time>2026-04-25T12:22:05Z</time>
      </trkpt>
      <trkpt lat="59.064066410064697" lon="30.030677318572998">
        <time>2026-04-25T12:22:08Z</time>
      </trkpt>
      <trkpt lat="59.064066410064697" lon="30.030698776245117">
        <time>2026-04-25T12:22:10Z</time>
      </trkpt>
      <trkpt lat="59.064066410064697" lon="30.030720233917236">
        <time>2026-04-25T12:22:13Z</time>
      </trkpt>
      <trkpt lat="59.064044952392578" lon="30.030741691589355">
        <time>2026-04-25T12:22:15Z</time>
      </trkpt>
      <trkpt lat="59.064044952392578" lon="30.030763149261475">
        <time>2026-04-25T12:22:18Z</time>
      </trkpt>
      <trkpt lat="59.064023494720459" lon="30.030763149261475">
        <time>2026-04-25T12:22:20Z</time>
      </trkpt>
      <trkpt lat="59.064023494720459" lon="30.030784606933594">
        <time>2026-04-25T12:22:23Z</time>
      </trkpt>
      <trkpt lat="59.064023494720459" lon="30.030763149261475">
        <time>2026-04-25T12:22:25Z</time>
      </trkpt>
      <trkpt lat="59.064023494720459" lon="30.030763149261475">
        <time>2026-04-25T12:22:28Z</time>
      </trkpt>
      <trkpt lat="59.064023494720459" lon="30.030784606933594">
        <time>2026-04-25T12:22:30Z</time>
      </trkpt>
      <trkpt lat="59.064023494720459" lon="30.030784606933594">
        <time>2026-04-25T12:22:33Z</time>
      </trkpt>
      <trkpt lat="59.064023494720459" lon="30.030784606933594">
        <time>2026-04-25T12:22:35Z</time>
      </trkpt>
      <trkpt lat="59.064023494720459" lon="30.030784606933594">
        <time>2026-04-25T12:22:38Z</time>
      </trkpt>
      <trkpt lat="59.064044952392578" lon="30.030763149261475">
        <time>2026-04-25T12:22:40Z</time>
      </trkpt>
      <trkpt lat="59.064023494720459" lon="30.030784606933594">
        <time>2026-04-25T12:22:43Z</time>
      </trkpt>
      <trkpt lat="59.06400203704834" lon="30.030784606933594">
        <time>2026-04-25T12:22:45Z</time>
      </trkpt>
      <trkpt lat="59.063980579376221" lon="30.030784606933594">
        <time>2026-04-25T12:22:48Z</time>
      </trkpt>
      <trkpt lat="59.063959121704102" lon="30.030806064605713">
        <time>2026-04-25T12:22:50Z</time>
      </trkpt>
      <trkpt lat="59.063937664031982" lon="30.030806064605713">
        <time>2026-04-25T12:22:53Z</time>
      </trkpt>
      <trkpt lat="59.063916206359863" lon="30.030806064605713">
        <time>2026-04-25T12:22:55Z</time>
      </trkpt>
      <trkpt lat="59.063916206359863" lon="30.030806064605713">
        <time>2026-04-25T12:22:58Z</time>
      </trkpt>
      <trkpt lat="59.063916206359863" lon="30.030827522277832">
        <time>2026-04-25T12:23:00Z</time>
      </trkpt>
      <trkpt lat="59.063894748687744" lon="30.030827522277832">
        <time>2026-04-25T12:23:03Z</time>
      </trkpt>
      <trkpt lat="59.063894748687744" lon="30.030827522277832">
        <time>2026-04-25T12:23:05Z</time>
      </trkpt>
      <trkpt lat="59.063873291015625" lon="30.030827522277832">
        <time>2026-04-25T12:23:08Z</time>
      </trkpt>
      <trkpt lat="59.063873291015625" lon="30.030827522277832">
        <time>2026-04-25T12:23:10Z</time>
      </trkpt>
      <trkpt lat="59.063873291015625" lon="30.030806064605713">
        <time>2026-04-25T12:23:13Z</time>
      </trkpt>
      <trkpt lat="59.063873291015625" lon="30.030806064605713">
        <time>2026-04-25T12:23:15Z</time>
      </trkpt>
      <trkpt lat="59.063873291015625" lon="30.030806064605713">
        <time>2026-04-25T12:23:18Z</time>
      </trkpt>
      <trkpt lat="59.063873291015625" lon="30.030806064605713">
        <time>2026-04-25T12:23:20Z</time>
      </trkpt>
      <trkpt lat="59.063873291015625" lon="30.030806064605713">
        <time>2026-04-25T12:23:23Z</time>
      </trkpt>
      <trkpt lat="59.063851833343506" lon="30.030806064605713">
        <time>2026-04-25T12:23:25Z</time>
      </trkpt>
      <trkpt lat="59.063830375671387" lon="30.030806064605713">
        <time>2026-04-25T12:23:28Z</time>
      </trkpt>
      <trkpt lat="59.063808917999268" lon="30.030784606933594">
        <time>2026-04-25T12:23:30Z</time>
      </trkpt>
      <trkpt lat="59.063787460327148" lon="30.030763149261475">
        <time>2026-04-25T12:23:33Z</time>
      </trkpt>
      <trkpt lat="59.06374454498291" lon="30.030763149261475">
        <time>2026-04-25T12:23:35Z</time>
      </trkpt>
      <trkpt lat="59.06374454498291" lon="30.030784606933594">
        <time>2026-04-25T12:23:38Z</time>
      </trkpt>
      <trkpt lat="59.063723087310791" lon="30.030763149261475">
        <time>2026-04-25T12:23:40Z</time>
      </trkpt>
      <trkpt lat="59.063701629638672" lon="30.030763149261475">
        <time>2026-04-25T12:23:43Z</time>
      </trkpt>
      <trkpt lat="59.063680171966553" lon="30.030763149261475">
        <time>2026-04-25T12:23:45Z</time>
      </trkpt>
      <trkpt lat="59.063680171966553" lon="30.030763149261475">
        <time>2026-04-25T12:23:48Z</time>
      </trkpt>
      <trkpt lat="59.063658714294434" lon="30.030763149261475">
        <time>2026-04-25T12:23:50Z</time>
      </trkpt>
      <trkpt lat="59.063658714294434" lon="30.030763149261475">
        <time>2026-04-25T12:23:53Z</time>
      </trkpt>
      <trkpt lat="59.063637256622314" lon="30.030784606933594">
        <time>2026-04-25T12:23:55Z</time>
      </trkpt>
      <trkpt lat="59.063637256622314" lon="30.030806064605713">
        <time>2026-04-25T12:23:58Z</time>
      </trkpt>
      <trkpt lat="59.063615798950195" lon="30.030848979949951">
        <time>2026-04-25T12:24:00Z</time>
      </trkpt>
      <trkpt lat="59.063594341278076" lon="30.03087043762207">
        <time>2026-04-25T12:24:03Z</time>
      </trkpt>
      <trkpt lat="59.063572883605957" lon="30.030891895294189">
        <time>2026-04-25T12:24:05Z</time>
      </trkpt>
      <trkpt lat="59.063551425933838" lon="30.030913352966309">
        <time>2026-04-25T12:24:08Z</time>
      </trkpt>
      <trkpt lat="59.063529968261719" lon="30.030913352966309">
        <time>2026-04-25T12:24:10Z</time>
      </trkpt>
      <trkpt lat="59.063529968261719" lon="30.030934810638428">
        <time>2026-04-25T12:24:13Z</time>
      </trkpt>
      <trkpt lat="59.0635085105896" lon="30.030934810638428">
        <time>2026-04-25T12:24:15Z</time>
      </trkpt>
      <trkpt lat="59.06348705291748" lon="30.030934810638428">
        <time>2026-04-25T12:24:18Z</time>
      </trkpt>
      <trkpt lat="59.063444137573242" lon="30.030956268310547">
        <time>2026-04-25T12:24:20Z</time>
      </trkpt>
      <trkpt lat="59.063444137573242" lon="30.030956268310547">
        <time>2026-04-25T12:24:23Z</time>
      </trkpt>
      <trkpt lat="59.063401222229004" lon="30.030977725982666">
        <time>2026-04-25T12:24:25Z</time>
      </trkpt>
      <trkpt lat="59.063379764556885" lon="30.030977725982666">
        <time>2026-04-25T12:24:28Z</time>
      </trkpt>
      <trkpt lat="59.063358306884766" lon="30.030999183654785">
        <time>2026-04-25T12:24:30Z</time>
      </trkpt>
      <trkpt lat="59.063336849212646" lon="30.031020641326904">
        <time>2026-04-25T12:24:33Z</time>
      </trkpt>
      <trkpt lat="59.063315391540527" lon="30.031020641326904">
        <time>2026-04-25T12:24:35Z</time>
      </trkpt>
      <trkpt lat="59.063293933868408" lon="30.031042098999023">
        <time>2026-04-25T12:24:38Z</time>
      </trkpt>
      <trkpt lat="59.063293933868408" lon="30.031020641326904">
        <time>2026-04-25T12:24:40Z</time>
      </trkpt>
      <trkpt lat="59.063272476196289" lon="30.031020641326904">
        <time>2026-04-25T12:24:43Z</time>
      </trkpt>
      <trkpt lat="59.06325101852417" lon="30.031042098999023">
        <time>2026-04-25T12:24:45Z</time>
      </trkpt>
      <trkpt lat="59.06325101852417" lon="30.031042098999023">
        <time>2026-04-25T12:24:48Z</time>
      </trkpt>
      <trkpt lat="59.06325101852417" lon="30.031063556671143">
        <time>2026-04-25T12:24:50Z</time>
      </trkpt>
      <trkpt lat="59.063229560852051" lon="30.031063556671143">
        <time>2026-04-25T12:24:53Z</time>
      </trkpt>
      <trkpt lat="59.063229560852051" lon="30.031063556671143">
        <time>2026-04-25T12:24:55Z</time>
      </trkpt>
      <trkpt lat="59.063229560852051" lon="30.031063556671143">
        <time>2026-04-25T12:24:58Z</time>
      </trkpt>
      <trkpt lat="59.063229560852051" lon="30.031063556671143">
        <time>2026-04-25T12:25:00Z</time>
      </trkpt>
      <trkpt lat="59.063229560852051" lon="30.031063556671143">
        <time>2026-04-25T12:25:03Z</time>
      </trkpt>
      <trkpt lat="59.063229560852051" lon="30.031063556671143">
        <time>2026-04-25T12:25:05Z</time>
      </trkpt>
      <trkpt lat="59.063229560852051" lon="30.031063556671143">
        <time>2026-04-25T12:25:08Z</time>
      </trkpt>
      <trkpt lat="59.063229560852051" lon="30.031063556671143">
        <time>2026-04-25T12:25:10Z</time>
      </trkpt>
      <trkpt lat="59.063229560852051" lon="30.031063556671143">
        <time>2026-04-25T12:25:13Z</time>
      </trkpt>
      <trkpt lat="59.063229560852051" lon="30.031063556671143">
        <time>2026-04-25T12:25:15Z</time>
      </trkpt>
      <trkpt lat="59.063229560852051" lon="30.031063556671143">
        <time>2026-04-25T12:25:18Z</time>
      </trkpt>
      <trkpt lat="59.063229560852051" lon="30.031063556671143">
        <time>2026-04-25T12:25:20Z</time>
      </trkpt>
      <trkpt lat="59.063229560852051" lon="30.031063556671143">
        <time>2026-04-25T12:25:23Z</time>
      </trkpt>
      <trkpt lat="59.063229560852051" lon="30.031063556671143">
        <time>2026-04-25T12:25:25Z</time>
      </trkpt>
      <trkpt lat="59.063229560852051" lon="30.031042098999023">
        <time>2026-04-25T12:25:28Z</time>
      </trkpt>
      <trkpt lat="59.063229560852051" lon="30.031042098999023">
        <time>2026-04-25T12:25:30Z</time>
      </trkpt>
      <trkpt lat="59.063229560852051" lon="30.031042098999023">
        <time>2026-04-25T12:25:33Z</time>
      </trkpt>
      <trkpt lat="59.063229560852051" lon="30.031042098999023">
        <time>2026-04-25T12:25:35Z</time>
      </trkpt>
      <trkpt lat="59.063229560852051" lon="30.031042098999023">
        <time>2026-04-25T12:25:38Z</time>
      </trkpt>
      <trkpt lat="59.063229560852051" lon="30.031042098999023">
        <time>2026-04-25T12:25:40Z</time>
      </trkpt>
      <trkpt lat="59.063229560852051" lon="30.031042098999023">
        <time>2026-04-25T12:25:43Z</time>
      </trkpt>
      <trkpt lat="59.063229560852051" lon="30.031042098999023">
        <time>2026-04-25T12:25:45Z</time>
      </trkpt>
      <trkpt lat="59.063229560852051" lon="30.031042098999023">
        <time>2026-04-25T12:25:48Z</time>
      </trkpt>
      <trkpt lat="59.063229560852051" lon="30.031042098999023">
        <time>2026-04-25T12:25:50Z</time>
      </trkpt>
      <trkpt lat="59.063229560852051" lon="30.031042098999023">
        <time>2026-04-25T12:25:53Z</time>
      </trkpt>
      <trkpt lat="59.063229560852051" lon="30.031042098999023">
        <time>2026-04-25T12:25:55Z</time>
      </trkpt>
      <trkpt lat="59.063229560852051" lon="30.031042098999023">
        <time>2026-04-25T12:25:58Z</time>
      </trkpt>
      <trkpt lat="59.063229560852051" lon="30.031042098999023">
        <time>2026-04-25T12:26:00Z</time>
      </trkpt>
      <trkpt lat="59.063229560852051" lon="30.031042098999023">
        <time>2026-04-25T12:26:03Z</time>
      </trkpt>
      <trkpt lat="59.063229560852051" lon="30.031042098999023">
        <time>2026-04-25T12:26:05Z</time>
      </trkpt>
      <trkpt lat="59.063229560852051" lon="30.031042098999023">
        <time>2026-04-25T12:26:08Z</time>
      </trkpt>
      <trkpt lat="59.063229560852051" lon="30.031042098999023">
        <time>2026-04-25T12:26:10Z</time>
      </trkpt>
      <trkpt lat="59.063229560852051" lon="30.031042098999023">
        <time>2026-04-25T12:26:13Z</time>
      </trkpt>
      <trkpt lat="59.063229560852051" lon="30.031042098999023">
        <time>2026-04-25T12:26:15Z</time>
      </trkpt>
      <trkpt lat="59.063229560852051" lon="30.031042098999023">
        <time>2026-04-25T12:26:18Z</time>
      </trkpt>
      <trkpt lat="59.063229560852051" lon="30.031042098999023">
        <time>2026-04-25T12:26:20Z</time>
      </trkpt>
      <trkpt lat="59.063229560852051" lon="30.031042098999023">
        <time>2026-04-25T12:26:23Z</time>
      </trkpt>
      <trkpt lat="59.063229560852051" lon="30.031042098999023">
        <time>2026-04-25T12:26:25Z</time>
      </trkpt>
      <trkpt lat="59.063229560852051" lon="30.031042098999023">
        <time>2026-04-25T12:26:28Z</time>
      </trkpt>
      <trkpt lat="59.063229560852051" lon="30.031042098999023">
        <time>2026-04-25T12:26:30Z</time>
      </trkpt>
      <trkpt lat="59.06325101852417" lon="30.031042098999023">
        <time>2026-04-25T12:26:33Z</time>
      </trkpt>
      <trkpt lat="59.06325101852417" lon="30.031042098999023">
        <time>2026-04-25T12:26:35Z</time>
      </trkpt>
      <trkpt lat="59.06325101852417" lon="30.031042098999023">
        <time>2026-04-25T12:26:38Z</time>
      </trkpt>
      <trkpt lat="59.06325101852417" lon="30.031042098999023">
        <time>2026-04-25T12:26:40Z</time>
      </trkpt>
      <trkpt lat="59.06325101852417" lon="30.031042098999023">
        <time>2026-04-25T12:26:43Z</time>
      </trkpt>
      <trkpt lat="59.06325101852417" lon="30.031042098999023">
        <time>2026-04-25T12:26:45Z</time>
      </trkpt>
      <trkpt lat="59.06325101852417" lon="30.031042098999023">
        <time>2026-04-25T12:26:48Z</time>
      </trkpt>
      <trkpt lat="59.06325101852417" lon="30.031042098999023">
        <time>2026-04-25T12:26:50Z</time>
      </trkpt>
      <trkpt lat="59.06325101852417" lon="30.031042098999023">
        <time>2026-04-25T12:26:53Z</time>
      </trkpt>
      <trkpt lat="59.06325101852417" lon="30.031042098999023">
        <time>2026-04-25T12:26:55Z</time>
      </trkpt>
      <trkpt lat="59.06325101852417" lon="30.031042098999023">
        <time>2026-04-25T12:26:58Z</time>
      </trkpt>
      <trkpt lat="59.06325101852417" lon="30.031042098999023">
        <time>2026-04-25T12:27:00Z</time>
      </trkpt>
      <trkpt lat="59.06325101852417" lon="30.031042098999023">
        <time>2026-04-25T12:27:03Z</time>
      </trkpt>
      <trkpt lat="59.06325101852417" lon="30.031042098999023">
        <time>2026-04-25T12:27:05Z</time>
      </trkpt>
      <trkpt lat="59.06325101852417" lon="30.031042098999023">
        <time>2026-04-25T12:27:08Z</time>
      </trkpt>
      <trkpt lat="59.06325101852417" lon="30.031042098999023">
        <time>2026-04-25T12:27:10Z</time>
      </trkpt>
      <trkpt lat="59.06325101852417" lon="30.031042098999023">
        <time>2026-04-25T12:27:13Z</time>
      </trkpt>
      <trkpt lat="59.06325101852417" lon="30.031042098999023">
        <time>2026-04-25T12:27:15Z</time>
      </trkpt>
      <trkpt lat="59.06325101852417" lon="30.031042098999023">
        <time>2026-04-25T12:27:18Z</time>
      </trkpt>
      <trkpt lat="59.06325101852417" lon="30.031042098999023">
        <time>2026-04-25T12:27:20Z</time>
      </trkpt>
      <trkpt lat="59.06325101852417" lon="30.031020641326904">
        <time>2026-04-25T12:27:23Z</time>
      </trkpt>
      <trkpt lat="59.06325101852417" lon="30.031020641326904">
        <time>2026-04-25T12:27:25Z</time>
      </trkpt>
      <trkpt lat="59.06325101852417" lon="30.031020641326904">
        <time>2026-04-25T12:27:28Z</time>
      </trkpt>
      <trkpt lat="59.06325101852417" lon="30.031020641326904">
        <time>2026-04-25T12:27:30Z</time>
      </trkpt>
      <trkpt lat="59.06325101852417" lon="30.031020641326904">
        <time>2026-04-25T12:27:33Z</time>
      </trkpt>
      <trkpt lat="59.06325101852417" lon="30.031020641326904">
        <time>2026-04-25T12:27:35Z</time>
      </trkpt>
      <trkpt lat="59.06325101852417" lon="30.031020641326904">
        <time>2026-04-25T12:27:38Z</time>
      </trkpt>
      <trkpt lat="59.06325101852417" lon="30.031020641326904">
        <time>2026-04-25T12:27:40Z</time>
      </trkpt>
      <trkpt lat="59.06325101852417" lon="30.031020641326904">
        <time>2026-04-25T12:27:43Z</time>
      </trkpt>
      <trkpt lat="59.06325101852417" lon="30.031020641326904">
        <time>2026-04-25T12:27:45Z</time>
      </trkpt>
      <trkpt lat="59.06325101852417" lon="30.030999183654785">
        <time>2026-04-25T12:27:48Z</time>
      </trkpt>
      <trkpt lat="59.06325101852417" lon="30.031020641326904">
        <time>2026-04-25T12:27:50Z</time>
      </trkpt>
    </trkseg>
  </trk>

</gpx>